<?xml version="1.0" encoding="UTF-8"?>
<gpx version="1.1" creator="https://www.youtrack.es" xsi:schemaLocation="http://www.topografix.com/GPX/1/1 http://www.topografix.com/GPX/1/1/gpx.xsd http://www.garmin.com/xmlschemas/GpxExtensions/v3 http://www.garmin.com/xmlschemas/GpxExtensionsv3.xsd http://www.garmin.com/xmlschemas/TrackPointExtension/v1 http://www.garmin.com/xmlschemas/TrackPointExtensionv1.xsd" xmlns:gpxtpx="http://www.garmin.com/xmlschemas/TrackPointExtension/v1" xmlns:gpxx="http://www.garmin.com/xmlschemas/GpxExtensions/v3" xmlns:xsi="http://www.w3.org/2001/XMLSchema-instance">
  <metadata>
    <link href="https://www.youtrack.es">
      <text>YouTrack.es</text>
    </link>
    <time>2026-05-08T19:11:17Z</time>
  </metadata>
  <trk>
    <src>https://www.youtrack.es</src>
    <link href="https://www.youtrack.es/ruta/37457-caravaca-alicante">
      <text>YouTrack.es</text>
    </link>
    <trkseg>
      <trkpt lat="38.108373" lon="-1.858773">
        <ele>749.418</ele>
        <time>2017-03-18T10:40:53Z</time>
      </trkpt>
      <trkpt lat="38.108150" lon="-1.858779">
        <ele>699.498</ele>
        <time>2017-03-18T10:44:23Z</time>
      </trkpt>
      <trkpt lat="38.108252" lon="-1.858831">
        <ele>723.917</ele>
        <time>2017-03-18T10:44:27Z</time>
      </trkpt>
      <trkpt lat="38.108348" lon="-1.858865">
        <ele>720.608</ele>
        <time>2017-03-18T10:44:29Z</time>
      </trkpt>
      <trkpt lat="38.108268" lon="-1.858809">
        <ele>713.032</ele>
        <time>2017-03-18T10:47:01Z</time>
      </trkpt>
      <trkpt lat="38.108210" lon="-1.858896">
        <ele>713.597</ele>
        <time>2017-03-18T10:47:09Z</time>
      </trkpt>
      <trkpt lat="38.108188" lon="-1.859049">
        <ele>715.269</ele>
        <time>2017-03-18T10:47:20Z</time>
      </trkpt>
      <trkpt lat="38.108119" lon="-1.859178">
        <ele>715.764</ele>
        <time>2017-03-18T10:47:24Z</time>
      </trkpt>
      <trkpt lat="38.108020" lon="-1.859175">
        <ele>716.122</ele>
        <time>2017-03-18T10:47:28Z</time>
      </trkpt>
      <trkpt lat="38.107907" lon="-1.859172">
        <ele>716.386</ele>
        <time>2017-03-18T10:47:32Z</time>
      </trkpt>
      <trkpt lat="38.107769" lon="-1.859132">
        <ele>716.252</ele>
        <time>2017-03-18T10:47:36Z</time>
      </trkpt>
      <trkpt lat="38.107654" lon="-1.859126">
        <ele>715.962</ele>
        <time>2017-03-18T10:47:39Z</time>
      </trkpt>
      <trkpt lat="38.107545" lon="-1.859104">
        <ele>715.552</ele>
        <time>2017-03-18T10:47:42Z</time>
      </trkpt>
      <trkpt lat="38.107429" lon="-1.859092">
        <ele>714.853</ele>
        <time>2017-03-18T10:47:46Z</time>
      </trkpt>
      <trkpt lat="38.107333" lon="-1.859023">
        <ele>709.408</ele>
        <time>2017-03-18T10:47:49Z</time>
      </trkpt>
      <trkpt lat="38.107239" lon="-1.858969">
        <ele>706.808</ele>
        <time>2017-03-18T10:48:11Z</time>
      </trkpt>
      <trkpt lat="38.107320" lon="-1.859035">
        <ele>704.626</ele>
        <time>2017-03-18T10:49:00Z</time>
      </trkpt>
      <trkpt lat="38.107362" lon="-1.859177">
        <ele>703.351</ele>
        <time>2017-03-18T10:49:27Z</time>
      </trkpt>
      <trkpt lat="38.107432" lon="-1.859297">
        <ele>702.613</ele>
        <time>2017-03-18T10:49:31Z</time>
      </trkpt>
      <trkpt lat="38.107505" lon="-1.859396">
        <ele>702.178</ele>
        <time>2017-03-18T10:49:35Z</time>
      </trkpt>
      <trkpt lat="38.107568" lon="-1.859504">
        <ele>701.046</ele>
        <time>2017-03-18T10:49:41Z</time>
      </trkpt>
      <trkpt lat="38.107631" lon="-1.859594">
        <ele>698.990</ele>
        <time>2017-03-18T10:49:43Z</time>
      </trkpt>
      <trkpt lat="38.107720" lon="-1.859673">
        <ele>697.356</ele>
        <time>2017-03-18T10:49:46Z</time>
      </trkpt>
      <trkpt lat="38.107818" lon="-1.859747">
        <ele>696.666</ele>
        <time>2017-03-18T10:49:50Z</time>
      </trkpt>
      <trkpt lat="38.107901" lon="-1.859796">
        <ele>696.193</ele>
        <time>2017-03-18T10:49:53Z</time>
      </trkpt>
      <trkpt lat="38.107983" lon="-1.859879">
        <ele>695.265</ele>
        <time>2017-03-18T10:49:57Z</time>
      </trkpt>
      <trkpt lat="38.107984" lon="-1.859994">
        <ele>694.221</ele>
        <time>2017-03-18T10:50:00Z</time>
      </trkpt>
      <trkpt lat="38.108033" lon="-1.860096">
        <ele>693.308</ele>
        <time>2017-03-18T10:50:03Z</time>
      </trkpt>
      <trkpt lat="38.108100" lon="-1.860276">
        <ele>689.060</ele>
        <time>2017-03-18T10:50:12Z</time>
      </trkpt>
      <trkpt lat="38.108207" lon="-1.860336">
        <ele>685.795</ele>
        <time>2017-03-18T10:50:25Z</time>
      </trkpt>
      <trkpt lat="38.108272" lon="-1.860450">
        <ele>683.847</ele>
        <time>2017-03-18T10:50:36Z</time>
      </trkpt>
      <trkpt lat="38.108137" lon="-1.860375">
        <ele>683.862</ele>
        <time>2017-03-18T10:50:53Z</time>
      </trkpt>
      <trkpt lat="38.108058" lon="-1.860312">
        <ele>683.720</ele>
        <time>2017-03-18T10:50:56Z</time>
      </trkpt>
      <trkpt lat="38.107939" lon="-1.860256">
        <ele>683.344</ele>
        <time>2017-03-18T10:50:59Z</time>
      </trkpt>
      <trkpt lat="38.107847" lon="-1.860201">
        <ele>682.930</ele>
        <time>2017-03-18T10:51:02Z</time>
      </trkpt>
      <trkpt lat="38.107747" lon="-1.860138">
        <ele>682.790</ele>
        <time>2017-03-18T10:51:06Z</time>
      </trkpt>
      <trkpt lat="38.107657" lon="-1.860069">
        <ele>682.737</ele>
        <time>2017-03-18T10:51:11Z</time>
      </trkpt>
      <trkpt lat="38.107576" lon="-1.859994">
        <ele>683.249</ele>
        <time>2017-03-18T10:51:17Z</time>
      </trkpt>
      <trkpt lat="38.107475" lon="-1.859900">
        <ele>688.013</ele>
        <time>2017-03-18T10:52:38Z</time>
      </trkpt>
      <trkpt lat="38.107369" lon="-1.859931">
        <ele>689.708</ele>
        <time>2017-03-18T10:53:08Z</time>
      </trkpt>
      <trkpt lat="38.107293" lon="-1.859870">
        <ele>691.064</ele>
        <time>2017-03-18T10:53:34Z</time>
      </trkpt>
      <trkpt lat="38.107220" lon="-1.859790">
        <ele>691.149</ele>
        <time>2017-03-18T10:53:39Z</time>
      </trkpt>
      <trkpt lat="38.107154" lon="-1.859702">
        <ele>691.161</ele>
        <time>2017-03-18T10:53:42Z</time>
      </trkpt>
      <trkpt lat="38.107079" lon="-1.859620">
        <ele>691.046</ele>
        <time>2017-03-18T10:53:45Z</time>
      </trkpt>
      <trkpt lat="38.106996" lon="-1.859561">
        <ele>690.464</ele>
        <time>2017-03-18T10:53:48Z</time>
      </trkpt>
      <trkpt lat="38.106914" lon="-1.859657">
        <ele>689.398</ele>
        <time>2017-03-18T10:53:53Z</time>
      </trkpt>
      <trkpt lat="38.106773" lon="-1.859685">
        <ele>688.464</ele>
        <time>2017-03-18T10:53:56Z</time>
      </trkpt>
      <trkpt lat="38.106673" lon="-1.859711">
        <ele>688.324</ele>
        <time>2017-03-18T10:53:58Z</time>
      </trkpt>
      <trkpt lat="38.106582" lon="-1.859726">
        <ele>688.266</ele>
        <time>2017-03-18T10:54:00Z</time>
      </trkpt>
      <trkpt lat="38.106492" lon="-1.859726">
        <ele>688.429</ele>
        <time>2017-03-18T10:54:03Z</time>
      </trkpt>
      <trkpt lat="38.106385" lon="-1.859775">
        <ele>689.421</ele>
        <time>2017-03-18T10:54:09Z</time>
      </trkpt>
      <trkpt lat="38.106291" lon="-1.859844">
        <ele>690.008</ele>
        <time>2017-03-18T10:54:13Z</time>
      </trkpt>
      <trkpt lat="38.106196" lon="-1.859898">
        <ele>690.697</ele>
        <time>2017-03-18T10:54:16Z</time>
      </trkpt>
      <trkpt lat="38.106116" lon="-1.859953">
        <ele>692.562</ele>
        <time>2017-03-18T10:54:19Z</time>
      </trkpt>
      <trkpt lat="38.106036" lon="-1.860045">
        <ele>693.164</ele>
        <time>2017-03-18T10:54:23Z</time>
      </trkpt>
      <trkpt lat="38.105943" lon="-1.860100">
        <ele>693.699</ele>
        <time>2017-03-18T10:54:26Z</time>
      </trkpt>
      <trkpt lat="38.105844" lon="-1.860156">
        <ele>696.517</ele>
        <time>2017-03-18T10:54:29Z</time>
      </trkpt>
      <trkpt lat="38.105770" lon="-1.860224">
        <ele>696.791</ele>
        <time>2017-03-18T10:54:34Z</time>
      </trkpt>
      <trkpt lat="38.105689" lon="-1.860279">
        <ele>696.677</ele>
        <time>2017-03-18T10:54:38Z</time>
      </trkpt>
      <trkpt lat="38.105372" lon="-1.860395">
        <ele>680.857</ele>
        <time>2017-03-18T10:56:55Z</time>
      </trkpt>
      <trkpt lat="38.105312" lon="-1.860280">
        <ele>680.964</ele>
        <time>2017-03-18T10:59:18Z</time>
      </trkpt>
      <trkpt lat="38.105303" lon="-1.860119">
        <ele>681.606</ele>
        <time>2017-03-18T10:59:21Z</time>
      </trkpt>
      <trkpt lat="38.105307" lon="-1.859984">
        <ele>682.216</ele>
        <time>2017-03-18T10:59:24Z</time>
      </trkpt>
      <trkpt lat="38.105283" lon="-1.859856">
        <ele>683.208</ele>
        <time>2017-03-18T10:59:27Z</time>
      </trkpt>
      <trkpt lat="38.105193" lon="-1.859806">
        <ele>684.247</ele>
        <time>2017-03-18T10:59:31Z</time>
      </trkpt>
      <trkpt lat="38.105090" lon="-1.859773">
        <ele>684.592</ele>
        <time>2017-03-18T10:59:35Z</time>
      </trkpt>
      <trkpt lat="38.104955" lon="-1.859676">
        <ele>684.514</ele>
        <time>2017-03-18T10:59:38Z</time>
      </trkpt>
      <trkpt lat="38.104892" lon="-1.859563">
        <ele>684.069</ele>
        <time>2017-03-18T10:59:40Z</time>
      </trkpt>
      <trkpt lat="38.104832" lon="-1.859446">
        <ele>683.377</ele>
        <time>2017-03-18T10:59:42Z</time>
      </trkpt>
      <trkpt lat="38.104779" lon="-1.859324">
        <ele>682.251</ele>
        <time>2017-03-18T10:59:45Z</time>
      </trkpt>
      <trkpt lat="38.104734" lon="-1.859195">
        <ele>677.897</ele>
        <time>2017-03-18T10:59:48Z</time>
      </trkpt>
      <trkpt lat="38.104713" lon="-1.859064">
        <ele>677.337</ele>
        <time>2017-03-18T10:59:51Z</time>
      </trkpt>
      <trkpt lat="38.104700" lon="-1.858909">
        <ele>676.666</ele>
        <time>2017-03-18T10:59:54Z</time>
      </trkpt>
      <trkpt lat="38.104649" lon="-1.858780">
        <ele>676.029</ele>
        <time>2017-03-18T10:59:57Z</time>
      </trkpt>
      <trkpt lat="38.104615" lon="-1.858659">
        <ele>675.621</ele>
        <time>2017-03-18T11:00:00Z</time>
      </trkpt>
      <trkpt lat="38.104563" lon="-1.858558">
        <ele>674.708</ele>
        <time>2017-03-18T11:00:24Z</time>
      </trkpt>
      <trkpt lat="38.104492" lon="-1.858448">
        <ele>674.557</ele>
        <time>2017-03-18T11:00:28Z</time>
      </trkpt>
      <trkpt lat="38.104501" lon="-1.858324">
        <ele>673.312</ele>
        <time>2017-03-18T11:00:30Z</time>
      </trkpt>
      <trkpt lat="38.104522" lon="-1.858209">
        <ele>671.874</ele>
        <time>2017-03-18T11:00:32Z</time>
      </trkpt>
      <trkpt lat="38.104545" lon="-1.858098">
        <ele>670.099</ele>
        <time>2017-03-18T11:00:34Z</time>
      </trkpt>
      <trkpt lat="38.104572" lon="-1.857988">
        <ele>668.827</ele>
        <time>2017-03-18T11:00:36Z</time>
      </trkpt>
      <trkpt lat="38.104602" lon="-1.857878">
        <ele>668.511</ele>
        <time>2017-03-18T11:00:39Z</time>
      </trkpt>
      <trkpt lat="38.104638" lon="-1.857723">
        <ele>668.257</ele>
        <time>2017-03-18T11:00:43Z</time>
      </trkpt>
      <trkpt lat="38.104678" lon="-1.857608">
        <ele>669.437</ele>
        <time>2017-03-18T11:00:47Z</time>
      </trkpt>
      <trkpt lat="38.104704" lon="-1.857466">
        <ele>669.233</ele>
        <time>2017-03-18T11:00:50Z</time>
      </trkpt>
      <trkpt lat="38.104763" lon="-1.857337">
        <ele>667.623</ele>
        <time>2017-03-18T11:00:52Z</time>
      </trkpt>
      <trkpt lat="38.104843" lon="-1.857216">
        <ele>667.315</ele>
        <time>2017-03-18T11:00:54Z</time>
      </trkpt>
      <trkpt lat="38.104963" lon="-1.857103">
        <ele>669.208</ele>
        <time>2017-03-18T11:00:57Z</time>
      </trkpt>
      <trkpt lat="38.105076" lon="-1.857052">
        <ele>669.734</ele>
        <time>2017-03-18T11:01:00Z</time>
      </trkpt>
      <trkpt lat="38.105184" lon="-1.857036">
        <ele>669.689</ele>
        <time>2017-03-18T11:01:04Z</time>
      </trkpt>
      <trkpt lat="38.105164" lon="-1.856924">
        <ele>668.731</ele>
        <time>2017-03-18T11:01:10Z</time>
      </trkpt>
      <trkpt lat="38.105081" lon="-1.856849">
        <ele>668.246</ele>
        <time>2017-03-18T11:01:13Z</time>
      </trkpt>
      <trkpt lat="38.105035" lon="-1.856731">
        <ele>667.544</ele>
        <time>2017-03-18T11:01:16Z</time>
      </trkpt>
      <trkpt lat="38.105017" lon="-1.856609">
        <ele>667.158</ele>
        <time>2017-03-18T11:01:19Z</time>
      </trkpt>
      <trkpt lat="38.105036" lon="-1.856488">
        <ele>666.944</ele>
        <time>2017-03-18T11:01:21Z</time>
      </trkpt>
      <trkpt lat="38.105063" lon="-1.856354">
        <ele>666.934</ele>
        <time>2017-03-18T11:01:24Z</time>
      </trkpt>
      <trkpt lat="38.105088" lon="-1.856230">
        <ele>667.473</ele>
        <time>2017-03-18T11:01:28Z</time>
      </trkpt>
      <trkpt lat="38.105095" lon="-1.856093">
        <ele>667.985</ele>
        <time>2017-03-18T11:01:33Z</time>
      </trkpt>
      <trkpt lat="38.105111" lon="-1.855938">
        <ele>668.213</ele>
        <time>2017-03-18T11:01:35Z</time>
      </trkpt>
      <trkpt lat="38.105141" lon="-1.855798">
        <ele>664.308</ele>
        <time>2017-03-18T11:01:37Z</time>
      </trkpt>
      <trkpt lat="38.105144" lon="-1.855681">
        <ele>660.468</ele>
        <time>2017-03-18T11:01:39Z</time>
      </trkpt>
      <trkpt lat="38.105107" lon="-1.855561">
        <ele>660.013</ele>
        <time>2017-03-18T11:01:42Z</time>
      </trkpt>
      <trkpt lat="38.105078" lon="-1.855438">
        <ele>659.535</ele>
        <time>2017-03-18T11:01:45Z</time>
      </trkpt>
      <trkpt lat="38.105040" lon="-1.855308">
        <ele>658.860</ele>
        <time>2017-03-18T11:01:48Z</time>
      </trkpt>
      <trkpt lat="38.105024" lon="-1.855188">
        <ele>657.958</ele>
        <time>2017-03-18T11:01:51Z</time>
      </trkpt>
      <trkpt lat="38.105020" lon="-1.855060">
        <ele>656.862</ele>
        <time>2017-03-18T11:01:55Z</time>
      </trkpt>
      <trkpt lat="38.105020" lon="-1.854931">
        <ele>654.758</ele>
        <time>2017-03-18T11:02:09Z</time>
      </trkpt>
      <trkpt lat="38.105006" lon="-1.854785">
        <ele>653.728</ele>
        <time>2017-03-18T11:02:13Z</time>
      </trkpt>
      <trkpt lat="38.104994" lon="-1.854646">
        <ele>649.193</ele>
        <time>2017-03-18T11:02:16Z</time>
      </trkpt>
      <trkpt lat="38.104997" lon="-1.854492">
        <ele>648.165</ele>
        <time>2017-03-18T11:02:19Z</time>
      </trkpt>
      <trkpt lat="38.105004" lon="-1.854366">
        <ele>648.121</ele>
        <time>2017-03-18T11:02:21Z</time>
      </trkpt>
      <trkpt lat="38.105008" lon="-1.854235">
        <ele>647.908</ele>
        <time>2017-03-18T11:02:23Z</time>
      </trkpt>
      <trkpt lat="38.105010" lon="-1.854104">
        <ele>648.020</ele>
        <time>2017-03-18T11:02:25Z</time>
      </trkpt>
      <trkpt lat="38.105010" lon="-1.853971">
        <ele>648.475</ele>
        <time>2017-03-18T11:02:27Z</time>
      </trkpt>
      <trkpt lat="38.105007" lon="-1.853837">
        <ele>648.727</ele>
        <time>2017-03-18T11:02:29Z</time>
      </trkpt>
      <trkpt lat="38.105001" lon="-1.853687">
        <ele>647.792</ele>
        <time>2017-03-18T11:02:31Z</time>
      </trkpt>
      <trkpt lat="38.104995" lon="-1.853536">
        <ele>646.410</ele>
        <time>2017-03-18T11:02:33Z</time>
      </trkpt>
      <trkpt lat="38.104993" lon="-1.853389">
        <ele>645.824</ele>
        <time>2017-03-18T11:02:35Z</time>
      </trkpt>
      <trkpt lat="38.104989" lon="-1.853248">
        <ele>645.890</ele>
        <time>2017-03-18T11:02:37Z</time>
      </trkpt>
      <trkpt lat="38.104987" lon="-1.853095">
        <ele>645.350</ele>
        <time>2017-03-18T11:02:39Z</time>
      </trkpt>
      <trkpt lat="38.104985" lon="-1.852951">
        <ele>645.085</ele>
        <time>2017-03-18T11:02:41Z</time>
      </trkpt>
      <trkpt lat="38.104978" lon="-1.852783">
        <ele>644.289</ele>
        <time>2017-03-18T11:02:43Z</time>
      </trkpt>
      <trkpt lat="38.104974" lon="-1.852651">
        <ele>644.417</ele>
        <time>2017-03-18T11:02:45Z</time>
      </trkpt>
      <trkpt lat="38.104970" lon="-1.852504">
        <ele>644.208</ele>
        <time>2017-03-18T11:02:47Z</time>
      </trkpt>
      <trkpt lat="38.104965" lon="-1.852358">
        <ele>644.399</ele>
        <time>2017-03-18T11:02:49Z</time>
      </trkpt>
      <trkpt lat="38.104951" lon="-1.852237">
        <ele>643.864</ele>
        <time>2017-03-18T11:02:51Z</time>
      </trkpt>
      <trkpt lat="38.104933" lon="-1.852115">
        <ele>643.446</ele>
        <time>2017-03-18T11:02:53Z</time>
      </trkpt>
      <trkpt lat="38.104915" lon="-1.851974">
        <ele>642.891</ele>
        <time>2017-03-18T11:02:55Z</time>
      </trkpt>
      <trkpt lat="38.104900" lon="-1.851843">
        <ele>642.699</ele>
        <time>2017-03-18T11:02:57Z</time>
      </trkpt>
      <trkpt lat="38.104893" lon="-1.851700">
        <ele>642.713</ele>
        <time>2017-03-18T11:02:59Z</time>
      </trkpt>
      <trkpt lat="38.104887" lon="-1.851564">
        <ele>642.739</ele>
        <time>2017-03-18T11:03:02Z</time>
      </trkpt>
      <trkpt lat="38.104887" lon="-1.851424">
        <ele>643.839</ele>
        <time>2017-03-18T11:03:04Z</time>
      </trkpt>
      <trkpt lat="38.104883" lon="-1.851289">
        <ele>644.877</ele>
        <time>2017-03-18T11:03:06Z</time>
      </trkpt>
      <trkpt lat="38.104872" lon="-1.851154">
        <ele>645.261</ele>
        <time>2017-03-18T11:03:08Z</time>
      </trkpt>
      <trkpt lat="38.104856" lon="-1.851018">
        <ele>644.727</ele>
        <time>2017-03-18T11:03:10Z</time>
      </trkpt>
      <trkpt lat="38.104846" lon="-1.850882">
        <ele>644.008</ele>
        <time>2017-03-18T11:03:12Z</time>
      </trkpt>
      <trkpt lat="38.104834" lon="-1.850737">
        <ele>643.258</ele>
        <time>2017-03-18T11:03:15Z</time>
      </trkpt>
      <trkpt lat="38.104836" lon="-1.850597">
        <ele>643.423</ele>
        <time>2017-03-18T11:03:18Z</time>
      </trkpt>
      <trkpt lat="38.104838" lon="-1.850470">
        <ele>642.715</ele>
        <time>2017-03-18T11:03:20Z</time>
      </trkpt>
      <trkpt lat="38.104839" lon="-1.850325">
        <ele>643.180</ele>
        <time>2017-03-18T11:03:22Z</time>
      </trkpt>
      <trkpt lat="38.104836" lon="-1.850204">
        <ele>644.168</ele>
        <time>2017-03-18T11:03:24Z</time>
      </trkpt>
      <trkpt lat="38.104807" lon="-1.850067">
        <ele>642.952</ele>
        <time>2017-03-18T11:03:26Z</time>
      </trkpt>
      <trkpt lat="38.104796" lon="-1.849951">
        <ele>641.578</ele>
        <time>2017-03-18T11:03:28Z</time>
      </trkpt>
      <trkpt lat="38.104784" lon="-1.849815">
        <ele>640.488</ele>
        <time>2017-03-18T11:03:30Z</time>
      </trkpt>
      <trkpt lat="38.104756" lon="-1.849668">
        <ele>639.287</ele>
        <time>2017-03-18T11:03:32Z</time>
      </trkpt>
      <trkpt lat="38.104758" lon="-1.849540">
        <ele>638.242</ele>
        <time>2017-03-18T11:03:34Z</time>
      </trkpt>
      <trkpt lat="38.104747" lon="-1.849411">
        <ele>637.526</ele>
        <time>2017-03-18T11:03:35Z</time>
      </trkpt>
      <trkpt lat="38.104723" lon="-1.849187">
        <ele>635.108</ele>
        <time>2017-03-18T11:03:38Z</time>
      </trkpt>
      <trkpt lat="38.104707" lon="-1.849040">
        <ele>633.839</ele>
        <time>2017-03-18T11:03:40Z</time>
      </trkpt>
      <trkpt lat="38.104695" lon="-1.848914">
        <ele>632.824</ele>
        <time>2017-03-18T11:03:42Z</time>
      </trkpt>
      <trkpt lat="38.104670" lon="-1.848722">
        <ele>631.886</ele>
        <time>2017-03-18T11:03:45Z</time>
      </trkpt>
      <trkpt lat="38.104655" lon="-1.848593">
        <ele>632.151</ele>
        <time>2017-03-18T11:03:47Z</time>
      </trkpt>
      <trkpt lat="38.104652" lon="-1.848458">
        <ele>632.349</ele>
        <time>2017-03-18T11:03:49Z</time>
      </trkpt>
      <trkpt lat="38.104650" lon="-1.848311">
        <ele>632.973</ele>
        <time>2017-03-18T11:03:51Z</time>
      </trkpt>
      <trkpt lat="38.104636" lon="-1.848173">
        <ele>633.589</ele>
        <time>2017-03-18T11:03:53Z</time>
      </trkpt>
      <trkpt lat="38.104628" lon="-1.848038">
        <ele>633.749</ele>
        <time>2017-03-18T11:03:55Z</time>
      </trkpt>
      <trkpt lat="38.104631" lon="-1.847902">
        <ele>634.091</ele>
        <time>2017-03-18T11:03:57Z</time>
      </trkpt>
      <trkpt lat="38.104637" lon="-1.847764">
        <ele>634.581</ele>
        <time>2017-03-18T11:03:59Z</time>
      </trkpt>
      <trkpt lat="38.104631" lon="-1.847631">
        <ele>634.919</ele>
        <time>2017-03-18T11:04:01Z</time>
      </trkpt>
      <trkpt lat="38.104637" lon="-1.847499">
        <ele>635.108</ele>
        <time>2017-03-18T11:04:03Z</time>
      </trkpt>
      <trkpt lat="38.104634" lon="-1.847367">
        <ele>635.730</ele>
        <time>2017-03-18T11:04:05Z</time>
      </trkpt>
      <trkpt lat="38.104625" lon="-1.847235">
        <ele>635.935</ele>
        <time>2017-03-18T11:04:07Z</time>
      </trkpt>
      <trkpt lat="38.104617" lon="-1.847095">
        <ele>634.677</ele>
        <time>2017-03-18T11:04:09Z</time>
      </trkpt>
      <trkpt lat="38.104608" lon="-1.846965">
        <ele>633.612</ele>
        <time>2017-03-18T11:04:11Z</time>
      </trkpt>
      <trkpt lat="38.104597" lon="-1.846828">
        <ele>632.660</ele>
        <time>2017-03-18T11:04:13Z</time>
      </trkpt>
      <trkpt lat="38.104585" lon="-1.846687">
        <ele>631.474</ele>
        <time>2017-03-18T11:04:15Z</time>
      </trkpt>
      <trkpt lat="38.104572" lon="-1.846545">
        <ele>630.350</ele>
        <time>2017-03-18T11:04:17Z</time>
      </trkpt>
      <trkpt lat="38.104558" lon="-1.846407">
        <ele>629.410</ele>
        <time>2017-03-18T11:04:19Z</time>
      </trkpt>
      <trkpt lat="38.104550" lon="-1.846259">
        <ele>629.041</ele>
        <time>2017-03-18T11:04:22Z</time>
      </trkpt>
      <trkpt lat="38.104543" lon="-1.846102">
        <ele>629.081</ele>
        <time>2017-03-18T11:04:24Z</time>
      </trkpt>
      <trkpt lat="38.104535" lon="-1.845945">
        <ele>629.109</ele>
        <time>2017-03-18T11:04:26Z</time>
      </trkpt>
      <trkpt lat="38.104519" lon="-1.845784">
        <ele>628.308</ele>
        <time>2017-03-18T11:04:28Z</time>
      </trkpt>
      <trkpt lat="38.104497" lon="-1.845642">
        <ele>627.615</ele>
        <time>2017-03-18T11:04:30Z</time>
      </trkpt>
      <trkpt lat="38.104482" lon="-1.845506">
        <ele>627.230</ele>
        <time>2017-03-18T11:04:32Z</time>
      </trkpt>
      <trkpt lat="38.104470" lon="-1.845364">
        <ele>626.912</ele>
        <time>2017-03-18T11:04:34Z</time>
      </trkpt>
      <trkpt lat="38.104450" lon="-1.845220">
        <ele>626.757</ele>
        <time>2017-03-18T11:04:36Z</time>
      </trkpt>
      <trkpt lat="38.104435" lon="-1.845074">
        <ele>626.745</ele>
        <time>2017-03-18T11:04:38Z</time>
      </trkpt>
      <trkpt lat="38.104434" lon="-1.844915">
        <ele>626.679</ele>
        <time>2017-03-18T11:04:40Z</time>
      </trkpt>
      <trkpt lat="38.104436" lon="-1.844753">
        <ele>626.445</ele>
        <time>2017-03-18T11:04:42Z</time>
      </trkpt>
      <trkpt lat="38.104439" lon="-1.844590">
        <ele>625.695</ele>
        <time>2017-03-18T11:04:44Z</time>
      </trkpt>
      <trkpt lat="38.104436" lon="-1.844463">
        <ele>625.995</ele>
        <time>2017-03-18T11:04:46Z</time>
      </trkpt>
      <trkpt lat="38.104432" lon="-1.844331">
        <ele>626.549</ele>
        <time>2017-03-18T11:04:48Z</time>
      </trkpt>
      <trkpt lat="38.104433" lon="-1.844113">
        <ele>626.623</ele>
        <time>2017-03-18T11:04:50Z</time>
      </trkpt>
      <trkpt lat="38.104435" lon="-1.843958">
        <ele>625.908</ele>
        <time>2017-03-18T11:04:52Z</time>
      </trkpt>
      <trkpt lat="38.104430" lon="-1.843810">
        <ele>624.770</ele>
        <time>2017-03-18T11:04:54Z</time>
      </trkpt>
      <trkpt lat="38.104401" lon="-1.843651">
        <ele>623.585</ele>
        <time>2017-03-18T11:04:56Z</time>
      </trkpt>
      <trkpt lat="38.104379" lon="-1.843486">
        <ele>622.427</ele>
        <time>2017-03-18T11:04:58Z</time>
      </trkpt>
      <trkpt lat="38.104365" lon="-1.843317">
        <ele>621.672</ele>
        <time>2017-03-18T11:05:00Z</time>
      </trkpt>
      <trkpt lat="38.104358" lon="-1.843146">
        <ele>621.010</ele>
        <time>2017-03-18T11:05:02Z</time>
      </trkpt>
      <trkpt lat="38.104335" lon="-1.842881">
        <ele>619.914</ele>
        <time>2017-03-18T11:05:05Z</time>
      </trkpt>
      <trkpt lat="38.104328" lon="-1.842705">
        <ele>619.630</ele>
        <time>2017-03-18T11:05:07Z</time>
      </trkpt>
      <trkpt lat="38.104327" lon="-1.842541">
        <ele>619.810</ele>
        <time>2017-03-18T11:05:09Z</time>
      </trkpt>
      <trkpt lat="38.104312" lon="-1.842389">
        <ele>619.649</ele>
        <time>2017-03-18T11:05:11Z</time>
      </trkpt>
      <trkpt lat="38.104303" lon="-1.842233">
        <ele>620.402</ele>
        <time>2017-03-18T11:05:13Z</time>
      </trkpt>
      <trkpt lat="38.104295" lon="-1.842078">
        <ele>620.822</ele>
        <time>2017-03-18T11:05:15Z</time>
      </trkpt>
      <trkpt lat="38.104282" lon="-1.841935">
        <ele>621.808</ele>
        <time>2017-03-18T11:05:17Z</time>
      </trkpt>
      <trkpt lat="38.104269" lon="-1.841787">
        <ele>621.815</ele>
        <time>2017-03-18T11:05:19Z</time>
      </trkpt>
      <trkpt lat="38.104253" lon="-1.841641">
        <ele>621.820</ele>
        <time>2017-03-18T11:05:21Z</time>
      </trkpt>
      <trkpt lat="38.104241" lon="-1.841489">
        <ele>622.362</ele>
        <time>2017-03-18T11:05:23Z</time>
      </trkpt>
      <trkpt lat="38.104229" lon="-1.841343">
        <ele>622.757</ele>
        <time>2017-03-18T11:05:25Z</time>
      </trkpt>
      <trkpt lat="38.104211" lon="-1.841176">
        <ele>622.585</ele>
        <time>2017-03-18T11:05:27Z</time>
      </trkpt>
      <trkpt lat="38.104198" lon="-1.841001">
        <ele>620.349</ele>
        <time>2017-03-18T11:05:29Z</time>
      </trkpt>
      <trkpt lat="38.104183" lon="-1.840842">
        <ele>617.935</ele>
        <time>2017-03-18T11:05:31Z</time>
      </trkpt>
      <trkpt lat="38.104170" lon="-1.840681">
        <ele>616.235</ele>
        <time>2017-03-18T11:05:33Z</time>
      </trkpt>
      <trkpt lat="38.104161" lon="-1.840533">
        <ele>615.236</ele>
        <time>2017-03-18T11:05:35Z</time>
      </trkpt>
      <trkpt lat="38.104158" lon="-1.840393">
        <ele>614.117</ele>
        <time>2017-03-18T11:05:37Z</time>
      </trkpt>
      <trkpt lat="38.104158" lon="-1.840260">
        <ele>613.718</ele>
        <time>2017-03-18T11:05:40Z</time>
      </trkpt>
      <trkpt lat="38.104156" lon="-1.840113">
        <ele>612.908</ele>
        <time>2017-03-18T11:05:42Z</time>
      </trkpt>
      <trkpt lat="38.104149" lon="-1.839966">
        <ele>612.364</ele>
        <time>2017-03-18T11:05:44Z</time>
      </trkpt>
      <trkpt lat="38.104138" lon="-1.839825">
        <ele>612.779</ele>
        <time>2017-03-18T11:05:46Z</time>
      </trkpt>
      <trkpt lat="38.104127" lon="-1.839694">
        <ele>612.331</ele>
        <time>2017-03-18T11:05:48Z</time>
      </trkpt>
      <trkpt lat="38.104121" lon="-1.839577">
        <ele>611.326</ele>
        <time>2017-03-18T11:05:50Z</time>
      </trkpt>
      <trkpt lat="38.104119" lon="-1.839420">
        <ele>610.814</ele>
        <time>2017-03-18T11:05:53Z</time>
      </trkpt>
      <trkpt lat="38.104116" lon="-1.839302">
        <ele>610.948</ele>
        <time>2017-03-18T11:05:55Z</time>
      </trkpt>
      <trkpt lat="38.104111" lon="-1.839171">
        <ele>611.514</ele>
        <time>2017-03-18T11:05:57Z</time>
      </trkpt>
      <trkpt lat="38.104111" lon="-1.839025">
        <ele>612.474</ele>
        <time>2017-03-18T11:05:59Z</time>
      </trkpt>
      <trkpt lat="38.104104" lon="-1.838868">
        <ele>613.672</ele>
        <time>2017-03-18T11:06:01Z</time>
      </trkpt>
      <trkpt lat="38.104091" lon="-1.838711">
        <ele>614.613</ele>
        <time>2017-03-18T11:06:03Z</time>
      </trkpt>
      <trkpt lat="38.104078" lon="-1.838575">
        <ele>615.514</ele>
        <time>2017-03-18T11:06:05Z</time>
      </trkpt>
      <trkpt lat="38.104071" lon="-1.838429">
        <ele>614.708</ele>
        <time>2017-03-18T11:06:07Z</time>
      </trkpt>
      <trkpt lat="38.104064" lon="-1.838280">
        <ele>614.338</ele>
        <time>2017-03-18T11:06:08Z</time>
      </trkpt>
      <trkpt lat="38.104054" lon="-1.838134">
        <ele>615.323</ele>
        <time>2017-03-18T11:06:10Z</time>
      </trkpt>
      <trkpt lat="38.104048" lon="-1.837978">
        <ele>615.345</ele>
        <time>2017-03-18T11:06:12Z</time>
      </trkpt>
      <trkpt lat="38.104041" lon="-1.837807">
        <ele>614.860</ele>
        <time>2017-03-18T11:06:14Z</time>
      </trkpt>
      <trkpt lat="38.104034" lon="-1.837641">
        <ele>613.848</ele>
        <time>2017-03-18T11:06:16Z</time>
      </trkpt>
      <trkpt lat="38.104027" lon="-1.837483">
        <ele>613.682</ele>
        <time>2017-03-18T11:06:18Z</time>
      </trkpt>
      <trkpt lat="38.104020" lon="-1.837319">
        <ele>614.678</ele>
        <time>2017-03-18T11:06:20Z</time>
      </trkpt>
      <trkpt lat="38.104021" lon="-1.837164">
        <ele>614.648</ele>
        <time>2017-03-18T11:06:22Z</time>
      </trkpt>
      <trkpt lat="38.104026" lon="-1.837018">
        <ele>615.966</ele>
        <time>2017-03-18T11:06:24Z</time>
      </trkpt>
      <trkpt lat="38.104029" lon="-1.836841">
        <ele>616.029</ele>
        <time>2017-03-18T11:06:26Z</time>
      </trkpt>
      <trkpt lat="38.104030" lon="-1.836681">
        <ele>615.221</ele>
        <time>2017-03-18T11:06:28Z</time>
      </trkpt>
      <trkpt lat="38.104020" lon="-1.836416">
        <ele>613.608</ele>
        <time>2017-03-18T11:06:31Z</time>
      </trkpt>
      <trkpt lat="38.104011" lon="-1.836258">
        <ele>613.877</ele>
        <time>2017-03-18T11:06:33Z</time>
      </trkpt>
      <trkpt lat="38.104003" lon="-1.836075">
        <ele>614.222</ele>
        <time>2017-03-18T11:06:35Z</time>
      </trkpt>
      <trkpt lat="38.103991" lon="-1.835899">
        <ele>614.524</ele>
        <time>2017-03-18T11:06:37Z</time>
      </trkpt>
      <trkpt lat="38.103983" lon="-1.835760">
        <ele>614.869</ele>
        <time>2017-03-18T11:06:39Z</time>
      </trkpt>
      <trkpt lat="38.103976" lon="-1.835617">
        <ele>614.477</ele>
        <time>2017-03-18T11:06:41Z</time>
      </trkpt>
      <trkpt lat="38.103969" lon="-1.835452">
        <ele>614.491</ele>
        <time>2017-03-18T11:06:43Z</time>
      </trkpt>
      <trkpt lat="38.103965" lon="-1.835299">
        <ele>615.177</ele>
        <time>2017-03-18T11:06:45Z</time>
      </trkpt>
      <trkpt lat="38.103962" lon="-1.835132">
        <ele>614.727</ele>
        <time>2017-03-18T11:06:47Z</time>
      </trkpt>
      <trkpt lat="38.103957" lon="-1.834967">
        <ele>613.781</ele>
        <time>2017-03-18T11:06:49Z</time>
      </trkpt>
      <trkpt lat="38.103951" lon="-1.834804">
        <ele>613.261</ele>
        <time>2017-03-18T11:06:51Z</time>
      </trkpt>
      <trkpt lat="38.103948" lon="-1.834653">
        <ele>613.217</ele>
        <time>2017-03-18T11:06:53Z</time>
      </trkpt>
      <trkpt lat="38.103945" lon="-1.834493">
        <ele>613.308</ele>
        <time>2017-03-18T11:06:55Z</time>
      </trkpt>
      <trkpt lat="38.103939" lon="-1.834348">
        <ele>613.389</ele>
        <time>2017-03-18T11:06:57Z</time>
      </trkpt>
      <trkpt lat="38.103933" lon="-1.834199">
        <ele>612.674</ele>
        <time>2017-03-18T11:06:59Z</time>
      </trkpt>
      <trkpt lat="38.103919" lon="-1.834062">
        <ele>612.226</ele>
        <time>2017-03-18T11:07:01Z</time>
      </trkpt>
      <trkpt lat="38.103914" lon="-1.833914">
        <ele>610.971</ele>
        <time>2017-03-18T11:07:04Z</time>
      </trkpt>
      <trkpt lat="38.103905" lon="-1.833769">
        <ele>609.439</ele>
        <time>2017-03-18T11:07:06Z</time>
      </trkpt>
      <trkpt lat="38.103884" lon="-1.833637">
        <ele>608.153</ele>
        <time>2017-03-18T11:07:08Z</time>
      </trkpt>
      <trkpt lat="38.103859" lon="-1.833508">
        <ele>606.649</ele>
        <time>2017-03-18T11:07:10Z</time>
      </trkpt>
      <trkpt lat="38.103839" lon="-1.833378">
        <ele>605.299</ele>
        <time>2017-03-18T11:07:12Z</time>
      </trkpt>
      <trkpt lat="38.103830" lon="-1.833246">
        <ele>604.198</ele>
        <time>2017-03-18T11:07:14Z</time>
      </trkpt>
      <trkpt lat="38.103825" lon="-1.833117">
        <ele>603.815</ele>
        <time>2017-03-18T11:07:16Z</time>
      </trkpt>
      <trkpt lat="38.103822" lon="-1.832986">
        <ele>604.026</ele>
        <time>2017-03-18T11:07:18Z</time>
      </trkpt>
      <trkpt lat="38.103819" lon="-1.832847">
        <ele>604.808</ele>
        <time>2017-03-18T11:07:20Z</time>
      </trkpt>
      <trkpt lat="38.103811" lon="-1.832710">
        <ele>605.270</ele>
        <time>2017-03-18T11:07:22Z</time>
      </trkpt>
      <trkpt lat="38.103804" lon="-1.832568">
        <ele>605.415</ele>
        <time>2017-03-18T11:07:24Z</time>
      </trkpt>
      <trkpt lat="38.103803" lon="-1.832437">
        <ele>605.947</ele>
        <time>2017-03-18T11:07:26Z</time>
      </trkpt>
      <trkpt lat="38.103781" lon="-1.832289">
        <ele>605.752</ele>
        <time>2017-03-18T11:07:28Z</time>
      </trkpt>
      <trkpt lat="38.103762" lon="-1.832137">
        <ele>604.050</ele>
        <time>2017-03-18T11:07:30Z</time>
      </trkpt>
      <trkpt lat="38.103733" lon="-1.832004">
        <ele>601.444</ele>
        <time>2017-03-18T11:07:32Z</time>
      </trkpt>
      <trkpt lat="38.103706" lon="-1.831863">
        <ele>598.620</ele>
        <time>2017-03-18T11:07:34Z</time>
      </trkpt>
      <trkpt lat="38.103691" lon="-1.831742">
        <ele>596.090</ele>
        <time>2017-03-18T11:07:36Z</time>
      </trkpt>
      <trkpt lat="38.103693" lon="-1.831573">
        <ele>595.544</ele>
        <time>2017-03-18T11:07:39Z</time>
      </trkpt>
      <trkpt lat="38.103689" lon="-1.831400">
        <ele>596.605</ele>
        <time>2017-03-18T11:07:41Z</time>
      </trkpt>
      <trkpt lat="38.103683" lon="-1.831252">
        <ele>598.815</ele>
        <time>2017-03-18T11:07:44Z</time>
      </trkpt>
      <trkpt lat="38.103675" lon="-1.831093">
        <ele>601.308</ele>
        <time>2017-03-18T11:07:47Z</time>
      </trkpt>
      <trkpt lat="38.103672" lon="-1.830930">
        <ele>602.545</ele>
        <time>2017-03-18T11:07:50Z</time>
      </trkpt>
      <trkpt lat="38.103673" lon="-1.830794">
        <ele>602.630</ele>
        <time>2017-03-18T11:07:53Z</time>
      </trkpt>
      <trkpt lat="38.103673" lon="-1.830657">
        <ele>604.692</ele>
        <time>2017-03-18T11:07:55Z</time>
      </trkpt>
      <trkpt lat="38.103677" lon="-1.830531">
        <ele>605.277</ele>
        <time>2017-03-18T11:07:57Z</time>
      </trkpt>
      <trkpt lat="38.103684" lon="-1.830406">
        <ele>606.325</ele>
        <time>2017-03-18T11:07:59Z</time>
      </trkpt>
      <trkpt lat="38.103688" lon="-1.830273">
        <ele>608.129</ele>
        <time>2017-03-18T11:08:02Z</time>
      </trkpt>
      <trkpt lat="38.103694" lon="-1.830157">
        <ele>608.975</ele>
        <time>2017-03-18T11:08:04Z</time>
      </trkpt>
      <trkpt lat="38.103705" lon="-1.830038">
        <ele>608.915</ele>
        <time>2017-03-18T11:08:06Z</time>
      </trkpt>
      <trkpt lat="38.103709" lon="-1.829916">
        <ele>608.674</ele>
        <time>2017-03-18T11:08:08Z</time>
      </trkpt>
      <trkpt lat="38.103701" lon="-1.829794">
        <ele>607.556</ele>
        <time>2017-03-18T11:08:10Z</time>
      </trkpt>
      <trkpt lat="38.103684" lon="-1.829679">
        <ele>606.421</ele>
        <time>2017-03-18T11:08:12Z</time>
      </trkpt>
      <trkpt lat="38.103667" lon="-1.829524">
        <ele>605.508</ele>
        <time>2017-03-18T11:08:14Z</time>
      </trkpt>
      <trkpt lat="38.103648" lon="-1.829380">
        <ele>605.348</ele>
        <time>2017-03-18T11:08:16Z</time>
      </trkpt>
      <trkpt lat="38.103634" lon="-1.829235">
        <ele>605.893</ele>
        <time>2017-03-18T11:08:18Z</time>
      </trkpt>
      <trkpt lat="38.103626" lon="-1.829096">
        <ele>606.665</ele>
        <time>2017-03-18T11:08:20Z</time>
      </trkpt>
      <trkpt lat="38.103621" lon="-1.828961">
        <ele>608.210</ele>
        <time>2017-03-18T11:08:22Z</time>
      </trkpt>
      <trkpt lat="38.103627" lon="-1.828833">
        <ele>611.558</ele>
        <time>2017-03-18T11:08:24Z</time>
      </trkpt>
      <trkpt lat="38.103632" lon="-1.828708">
        <ele>615.082</ele>
        <time>2017-03-18T11:08:26Z</time>
      </trkpt>
      <trkpt lat="38.103631" lon="-1.828564">
        <ele>616.878</ele>
        <time>2017-03-18T11:08:28Z</time>
      </trkpt>
      <trkpt lat="38.103628" lon="-1.828416">
        <ele>616.288</ele>
        <time>2017-03-18T11:08:31Z</time>
      </trkpt>
      <trkpt lat="38.103620" lon="-1.828268">
        <ele>613.889</ele>
        <time>2017-03-18T11:08:33Z</time>
      </trkpt>
      <trkpt lat="38.103603" lon="-1.828120">
        <ele>611.306</ele>
        <time>2017-03-18T11:08:35Z</time>
      </trkpt>
      <trkpt lat="38.103573" lon="-1.827973">
        <ele>608.726</ele>
        <time>2017-03-18T11:08:37Z</time>
      </trkpt>
      <trkpt lat="38.103549" lon="-1.827842">
        <ele>606.508</ele>
        <time>2017-03-18T11:08:39Z</time>
      </trkpt>
      <trkpt lat="38.103533" lon="-1.827723">
        <ele>605.049</ele>
        <time>2017-03-18T11:08:41Z</time>
      </trkpt>
      <trkpt lat="38.103517" lon="-1.827603">
        <ele>604.154</ele>
        <time>2017-03-18T11:08:43Z</time>
      </trkpt>
      <trkpt lat="38.103501" lon="-1.827480">
        <ele>603.886</ele>
        <time>2017-03-18T11:08:45Z</time>
      </trkpt>
      <trkpt lat="38.103484" lon="-1.827339">
        <ele>603.211</ele>
        <time>2017-03-18T11:08:48Z</time>
      </trkpt>
      <trkpt lat="38.103470" lon="-1.827212">
        <ele>602.689</ele>
        <time>2017-03-18T11:08:50Z</time>
      </trkpt>
      <trkpt lat="38.103456" lon="-1.827092">
        <ele>604.193</ele>
        <time>2017-03-18T11:08:52Z</time>
      </trkpt>
      <trkpt lat="38.103436" lon="-1.826976">
        <ele>604.739</ele>
        <time>2017-03-18T11:08:54Z</time>
      </trkpt>
      <trkpt lat="38.103413" lon="-1.826858">
        <ele>604.449</ele>
        <time>2017-03-18T11:08:56Z</time>
      </trkpt>
      <trkpt lat="38.103384" lon="-1.826736">
        <ele>603.697</ele>
        <time>2017-03-18T11:08:58Z</time>
      </trkpt>
      <trkpt lat="38.103349" lon="-1.826611">
        <ele>602.623</ele>
        <time>2017-03-18T11:09:00Z</time>
      </trkpt>
      <trkpt lat="38.103300" lon="-1.826432">
        <ele>601.225</ele>
        <time>2017-03-18T11:09:02Z</time>
      </trkpt>
      <trkpt lat="38.103263" lon="-1.826263">
        <ele>601.108</ele>
        <time>2017-03-18T11:09:05Z</time>
      </trkpt>
      <trkpt lat="38.103224" lon="-1.826116">
        <ele>602.070</ele>
        <time>2017-03-18T11:09:08Z</time>
      </trkpt>
      <trkpt lat="38.103160" lon="-1.825912">
        <ele>602.135</ele>
        <time>2017-03-18T11:09:12Z</time>
      </trkpt>
      <trkpt lat="38.103119" lon="-1.825774">
        <ele>601.617</ele>
        <time>2017-03-18T11:09:14Z</time>
      </trkpt>
      <trkpt lat="38.103086" lon="-1.825628">
        <ele>601.662</ele>
        <time>2017-03-18T11:09:16Z</time>
      </trkpt>
      <trkpt lat="38.103060" lon="-1.825510">
        <ele>600.870</ele>
        <time>2017-03-18T11:09:18Z</time>
      </trkpt>
      <trkpt lat="38.103031" lon="-1.825399">
        <ele>600.744</ele>
        <time>2017-03-18T11:09:20Z</time>
      </trkpt>
      <trkpt lat="38.102989" lon="-1.825289">
        <ele>600.130</ele>
        <time>2017-03-18T11:09:22Z</time>
      </trkpt>
      <trkpt lat="38.102954" lon="-1.825175">
        <ele>599.250</ele>
        <time>2017-03-18T11:09:24Z</time>
      </trkpt>
      <trkpt lat="38.102918" lon="-1.825060">
        <ele>598.435</ele>
        <time>2017-03-18T11:09:26Z</time>
      </trkpt>
      <trkpt lat="38.102878" lon="-1.824946">
        <ele>597.886</ele>
        <time>2017-03-18T11:09:28Z</time>
      </trkpt>
      <trkpt lat="38.102836" lon="-1.824838">
        <ele>597.214</ele>
        <time>2017-03-18T11:09:30Z</time>
      </trkpt>
      <trkpt lat="38.102784" lon="-1.824685">
        <ele>597.508</ele>
        <time>2017-03-18T11:09:33Z</time>
      </trkpt>
      <trkpt lat="38.102732" lon="-1.824528">
        <ele>598.014</ele>
        <time>2017-03-18T11:09:36Z</time>
      </trkpt>
      <trkpt lat="38.102692" lon="-1.824421">
        <ele>598.149</ele>
        <time>2017-03-18T11:09:38Z</time>
      </trkpt>
      <trkpt lat="38.102650" lon="-1.824317">
        <ele>598.191</ele>
        <time>2017-03-18T11:09:40Z</time>
      </trkpt>
      <trkpt lat="38.102608" lon="-1.824213">
        <ele>598.046</ele>
        <time>2017-03-18T11:09:42Z</time>
      </trkpt>
      <trkpt lat="38.102563" lon="-1.824114">
        <ele>598.084</ele>
        <time>2017-03-18T11:09:44Z</time>
      </trkpt>
      <trkpt lat="38.102525" lon="-1.824010">
        <ele>597.948</ele>
        <time>2017-03-18T11:09:46Z</time>
      </trkpt>
      <trkpt lat="38.102486" lon="-1.823907">
        <ele>597.734</ele>
        <time>2017-03-18T11:09:48Z</time>
      </trkpt>
      <trkpt lat="38.102441" lon="-1.823752">
        <ele>597.074</ele>
        <time>2017-03-18T11:09:51Z</time>
      </trkpt>
      <trkpt lat="38.102403" lon="-1.823606">
        <ele>597.321</ele>
        <time>2017-03-18T11:09:54Z</time>
      </trkpt>
      <trkpt lat="38.102343" lon="-1.823457">
        <ele>599.741</ele>
        <time>2017-03-18T11:09:57Z</time>
      </trkpt>
      <trkpt lat="38.102296" lon="-1.823353">
        <ele>600.005</ele>
        <time>2017-03-18T11:09:59Z</time>
      </trkpt>
      <trkpt lat="38.102252" lon="-1.823252">
        <ele>599.808</ele>
        <time>2017-03-18T11:10:01Z</time>
      </trkpt>
      <trkpt lat="38.102207" lon="-1.823149">
        <ele>599.433</ele>
        <time>2017-03-18T11:10:04Z</time>
      </trkpt>
      <trkpt lat="38.102144" lon="-1.823004">
        <ele>599.058</ele>
        <time>2017-03-18T11:10:07Z</time>
      </trkpt>
      <trkpt lat="38.102079" lon="-1.822865">
        <ele>598.830</ele>
        <time>2017-03-18T11:10:10Z</time>
      </trkpt>
      <trkpt lat="38.102017" lon="-1.822727">
        <ele>598.635</ele>
        <time>2017-03-18T11:10:13Z</time>
      </trkpt>
      <trkpt lat="38.101976" lon="-1.822585">
        <ele>598.463</ele>
        <time>2017-03-18T11:10:16Z</time>
      </trkpt>
      <trkpt lat="38.101945" lon="-1.822476">
        <ele>598.617</ele>
        <time>2017-03-18T11:10:18Z</time>
      </trkpt>
      <trkpt lat="38.101879" lon="-1.822329">
        <ele>599.873</ele>
        <time>2017-03-18T11:10:21Z</time>
      </trkpt>
      <trkpt lat="38.101837" lon="-1.822227">
        <ele>600.573</ele>
        <time>2017-03-18T11:10:23Z</time>
      </trkpt>
      <trkpt lat="38.101793" lon="-1.822107">
        <ele>601.336</ele>
        <time>2017-03-18T11:10:25Z</time>
      </trkpt>
      <trkpt lat="38.101753" lon="-1.821995">
        <ele>601.817</ele>
        <time>2017-03-18T11:10:27Z</time>
      </trkpt>
      <trkpt lat="38.101723" lon="-1.821877">
        <ele>601.818</ele>
        <time>2017-03-18T11:10:29Z</time>
      </trkpt>
      <trkpt lat="38.101690" lon="-1.821764">
        <ele>601.508</ele>
        <time>2017-03-18T11:10:31Z</time>
      </trkpt>
      <trkpt lat="38.101650" lon="-1.821645">
        <ele>601.054</ele>
        <time>2017-03-18T11:10:32Z</time>
      </trkpt>
      <trkpt lat="38.101609" lon="-1.821528">
        <ele>600.069</ele>
        <time>2017-03-18T11:10:35Z</time>
      </trkpt>
      <trkpt lat="38.101570" lon="-1.821420">
        <ele>599.531</ele>
        <time>2017-03-18T11:10:36Z</time>
      </trkpt>
      <trkpt lat="38.101530" lon="-1.821306">
        <ele>599.416</ele>
        <time>2017-03-18T11:10:38Z</time>
      </trkpt>
      <trkpt lat="38.101484" lon="-1.821192">
        <ele>599.234</ele>
        <time>2017-03-18T11:10:40Z</time>
      </trkpt>
      <trkpt lat="38.101433" lon="-1.821074">
        <ele>598.818</ele>
        <time>2017-03-18T11:10:42Z</time>
      </trkpt>
      <trkpt lat="38.101385" lon="-1.820951">
        <ele>598.314</ele>
        <time>2017-03-18T11:10:44Z</time>
      </trkpt>
      <trkpt lat="38.101338" lon="-1.820823">
        <ele>597.924</ele>
        <time>2017-03-18T11:10:46Z</time>
      </trkpt>
      <trkpt lat="38.101286" lon="-1.820697">
        <ele>597.675</ele>
        <time>2017-03-18T11:10:48Z</time>
      </trkpt>
      <trkpt lat="38.101235" lon="-1.820573">
        <ele>597.228</ele>
        <time>2017-03-18T11:10:50Z</time>
      </trkpt>
      <trkpt lat="38.101190" lon="-1.820444">
        <ele>597.120</ele>
        <time>2017-03-18T11:10:52Z</time>
      </trkpt>
      <trkpt lat="38.101146" lon="-1.820310">
        <ele>598.008</ele>
        <time>2017-03-18T11:10:54Z</time>
      </trkpt>
      <trkpt lat="38.101093" lon="-1.820174">
        <ele>597.958</ele>
        <time>2017-03-18T11:10:56Z</time>
      </trkpt>
      <trkpt lat="38.101032" lon="-1.820027">
        <ele>597.143</ele>
        <time>2017-03-18T11:10:58Z</time>
      </trkpt>
      <trkpt lat="38.100969" lon="-1.819878">
        <ele>595.975</ele>
        <time>2017-03-18T11:11:00Z</time>
      </trkpt>
      <trkpt lat="38.100913" lon="-1.819741">
        <ele>595.150</ele>
        <time>2017-03-18T11:11:02Z</time>
      </trkpt>
      <trkpt lat="38.100858" lon="-1.819611">
        <ele>594.778</ele>
        <time>2017-03-18T11:11:04Z</time>
      </trkpt>
      <trkpt lat="38.100799" lon="-1.819485">
        <ele>594.482</ele>
        <time>2017-03-18T11:11:06Z</time>
      </trkpt>
      <trkpt lat="38.100736" lon="-1.819362">
        <ele>594.298</ele>
        <time>2017-03-18T11:11:08Z</time>
      </trkpt>
      <trkpt lat="38.100669" lon="-1.819242">
        <ele>594.258</ele>
        <time>2017-03-18T11:11:10Z</time>
      </trkpt>
      <trkpt lat="38.100595" lon="-1.819125">
        <ele>594.286</ele>
        <time>2017-03-18T11:11:12Z</time>
      </trkpt>
      <trkpt lat="38.100517" lon="-1.819011">
        <ele>594.260</ele>
        <time>2017-03-18T11:11:14Z</time>
      </trkpt>
      <trkpt lat="38.100440" lon="-1.818899">
        <ele>594.526</ele>
        <time>2017-03-18T11:11:16Z</time>
      </trkpt>
      <trkpt lat="38.100365" lon="-1.818791">
        <ele>595.108</ele>
        <time>2017-03-18T11:11:18Z</time>
      </trkpt>
      <trkpt lat="38.100280" lon="-1.818693">
        <ele>594.879</ele>
        <time>2017-03-18T11:11:21Z</time>
      </trkpt>
      <trkpt lat="38.100189" lon="-1.818600">
        <ele>594.214</ele>
        <time>2017-03-18T11:11:23Z</time>
      </trkpt>
      <trkpt lat="38.100096" lon="-1.818512">
        <ele>593.216</ele>
        <time>2017-03-18T11:11:25Z</time>
      </trkpt>
      <trkpt lat="38.100003" lon="-1.818422">
        <ele>592.231</ele>
        <time>2017-03-18T11:11:27Z</time>
      </trkpt>
      <trkpt lat="38.099911" lon="-1.818333">
        <ele>591.179</ele>
        <time>2017-03-18T11:11:29Z</time>
      </trkpt>
      <trkpt lat="38.099814" lon="-1.818241">
        <ele>589.813</ele>
        <time>2017-03-18T11:11:31Z</time>
      </trkpt>
      <trkpt lat="38.099717" lon="-1.818154">
        <ele>588.689</ele>
        <time>2017-03-18T11:11:33Z</time>
      </trkpt>
      <trkpt lat="38.099621" lon="-1.818071">
        <ele>587.039</ele>
        <time>2017-03-18T11:11:35Z</time>
      </trkpt>
      <trkpt lat="38.099523" lon="-1.817989">
        <ele>585.531</ele>
        <time>2017-03-18T11:11:37Z</time>
      </trkpt>
      <trkpt lat="38.099435" lon="-1.817889">
        <ele>584.261</ele>
        <time>2017-03-18T11:11:39Z</time>
      </trkpt>
      <trkpt lat="38.099345" lon="-1.817786">
        <ele>583.607</ele>
        <time>2017-03-18T11:11:41Z</time>
      </trkpt>
      <trkpt lat="38.099254" lon="-1.817695">
        <ele>583.708</ele>
        <time>2017-03-18T11:11:43Z</time>
      </trkpt>
      <trkpt lat="38.099164" lon="-1.817609">
        <ele>584.154</ele>
        <time>2017-03-18T11:11:45Z</time>
      </trkpt>
      <trkpt lat="38.099074" lon="-1.817525">
        <ele>584.649</ele>
        <time>2017-03-18T11:11:47Z</time>
      </trkpt>
      <trkpt lat="38.098987" lon="-1.817440">
        <ele>585.371</ele>
        <time>2017-03-18T11:11:49Z</time>
      </trkpt>
      <trkpt lat="38.098907" lon="-1.817355">
        <ele>585.946</ele>
        <time>2017-03-18T11:11:51Z</time>
      </trkpt>
      <trkpt lat="38.098832" lon="-1.817275">
        <ele>586.594</ele>
        <time>2017-03-18T11:11:53Z</time>
      </trkpt>
      <trkpt lat="38.098761" lon="-1.817203">
        <ele>586.818</ele>
        <time>2017-03-18T11:11:55Z</time>
      </trkpt>
      <trkpt lat="38.098688" lon="-1.817124">
        <ele>587.294</ele>
        <time>2017-03-18T11:11:56Z</time>
      </trkpt>
      <trkpt lat="38.098575" lon="-1.817003">
        <ele>587.914</ele>
        <time>2017-03-18T11:11:59Z</time>
      </trkpt>
      <trkpt lat="38.098496" lon="-1.816924">
        <ele>588.193</ele>
        <time>2017-03-18T11:12:01Z</time>
      </trkpt>
      <trkpt lat="38.098421" lon="-1.816848">
        <ele>588.465</ele>
        <time>2017-03-18T11:12:03Z</time>
      </trkpt>
      <trkpt lat="38.098350" lon="-1.816776">
        <ele>588.621</ele>
        <time>2017-03-18T11:12:05Z</time>
      </trkpt>
      <trkpt lat="38.098275" lon="-1.816702">
        <ele>588.608</ele>
        <time>2017-03-18T11:12:07Z</time>
      </trkpt>
      <trkpt lat="38.098196" lon="-1.816627">
        <ele>588.570</ele>
        <time>2017-03-18T11:12:09Z</time>
      </trkpt>
      <trkpt lat="38.098117" lon="-1.816555">
        <ele>588.485</ele>
        <time>2017-03-18T11:12:11Z</time>
      </trkpt>
      <trkpt lat="38.098042" lon="-1.816482">
        <ele>588.457</ele>
        <time>2017-03-18T11:12:13Z</time>
      </trkpt>
      <trkpt lat="38.097964" lon="-1.816404">
        <ele>588.262</ele>
        <time>2017-03-18T11:12:15Z</time>
      </trkpt>
      <trkpt lat="38.097886" lon="-1.816328">
        <ele>588.120</ele>
        <time>2017-03-18T11:12:17Z</time>
      </trkpt>
      <trkpt lat="38.097810" lon="-1.816253">
        <ele>588.384</ele>
        <time>2017-03-18T11:12:19Z</time>
      </trkpt>
      <trkpt lat="38.097739" lon="-1.816177">
        <ele>588.520</ele>
        <time>2017-03-18T11:12:21Z</time>
      </trkpt>
      <trkpt lat="38.097669" lon="-1.816098">
        <ele>588.780</ele>
        <time>2017-03-18T11:12:23Z</time>
      </trkpt>
      <trkpt lat="38.097580" lon="-1.815993">
        <ele>588.926</ele>
        <time>2017-03-18T11:12:26Z</time>
      </trkpt>
      <trkpt lat="38.097488" lon="-1.815876">
        <ele>589.447</ele>
        <time>2017-03-18T11:12:29Z</time>
      </trkpt>
      <trkpt lat="38.097392" lon="-1.815757">
        <ele>590.111</ele>
        <time>2017-03-18T11:12:32Z</time>
      </trkpt>
      <trkpt lat="38.095311" lon="-1.813194">
        <ele>602.408</ele>
        <time>2017-03-18T11:13:37Z</time>
      </trkpt>
      <trkpt lat="38.095245" lon="-1.813066">
        <ele>601.113</ele>
        <time>2017-03-18T11:13:40Z</time>
      </trkpt>
      <trkpt lat="38.095175" lon="-1.812985">
        <ele>599.418</ele>
        <time>2017-03-18T11:13:42Z</time>
      </trkpt>
      <trkpt lat="38.095078" lon="-1.812873">
        <ele>598.230</ele>
        <time>2017-03-18T11:13:45Z</time>
      </trkpt>
      <trkpt lat="38.095004" lon="-1.812791">
        <ele>597.265</ele>
        <time>2017-03-18T11:13:47Z</time>
      </trkpt>
      <trkpt lat="38.094934" lon="-1.812707">
        <ele>595.923</ele>
        <time>2017-03-18T11:13:49Z</time>
      </trkpt>
      <trkpt lat="38.094863" lon="-1.812614">
        <ele>594.227</ele>
        <time>2017-03-18T11:13:51Z</time>
      </trkpt>
      <trkpt lat="38.094798" lon="-1.812531">
        <ele>592.983</ele>
        <time>2017-03-18T11:13:53Z</time>
      </trkpt>
      <trkpt lat="38.094732" lon="-1.812449">
        <ele>592.273</ele>
        <time>2017-03-18T11:13:55Z</time>
      </trkpt>
      <trkpt lat="38.094664" lon="-1.812368">
        <ele>592.118</ele>
        <time>2017-03-18T11:13:57Z</time>
      </trkpt>
      <trkpt lat="38.094598" lon="-1.812284">
        <ele>592.498</ele>
        <time>2017-03-18T11:13:59Z</time>
      </trkpt>
      <trkpt lat="38.094529" lon="-1.812196">
        <ele>592.717</ele>
        <time>2017-03-18T11:14:01Z</time>
      </trkpt>
      <trkpt lat="38.094462" lon="-1.812105">
        <ele>592.708</ele>
        <time>2017-03-18T11:14:03Z</time>
      </trkpt>
      <trkpt lat="38.094394" lon="-1.812007">
        <ele>592.692</ele>
        <time>2017-03-18T11:14:05Z</time>
      </trkpt>
      <trkpt lat="38.094330" lon="-1.811906">
        <ele>592.437</ele>
        <time>2017-03-18T11:14:07Z</time>
      </trkpt>
      <trkpt lat="38.094266" lon="-1.811806">
        <ele>592.279</ele>
        <time>2017-03-18T11:14:09Z</time>
      </trkpt>
      <trkpt lat="38.094200" lon="-1.811712">
        <ele>591.994</ele>
        <time>2017-03-18T11:14:11Z</time>
      </trkpt>
      <trkpt lat="38.094134" lon="-1.811620">
        <ele>591.782</ele>
        <time>2017-03-18T11:14:14Z</time>
      </trkpt>
      <trkpt lat="38.094066" lon="-1.811527">
        <ele>591.226</ele>
        <time>2017-03-18T11:14:16Z</time>
      </trkpt>
      <trkpt lat="38.093995" lon="-1.811429">
        <ele>591.132</ele>
        <time>2017-03-18T11:14:18Z</time>
      </trkpt>
      <trkpt lat="38.093924" lon="-1.811323">
        <ele>590.572</ele>
        <time>2017-03-18T11:14:20Z</time>
      </trkpt>
      <trkpt lat="38.093862" lon="-1.811229">
        <ele>589.838</ele>
        <time>2017-03-18T11:14:22Z</time>
      </trkpt>
      <trkpt lat="38.093804" lon="-1.811138">
        <ele>589.270</ele>
        <time>2017-03-18T11:14:24Z</time>
      </trkpt>
      <trkpt lat="38.093743" lon="-1.811039">
        <ele>588.617</ele>
        <time>2017-03-18T11:14:26Z</time>
      </trkpt>
      <trkpt lat="38.093688" lon="-1.810936">
        <ele>588.308</ele>
        <time>2017-03-18T11:14:28Z</time>
      </trkpt>
      <trkpt lat="38.093631" lon="-1.810825">
        <ele>588.394</ele>
        <time>2017-03-18T11:14:30Z</time>
      </trkpt>
      <trkpt lat="38.093574" lon="-1.810716">
        <ele>588.469</ele>
        <time>2017-03-18T11:14:32Z</time>
      </trkpt>
      <trkpt lat="38.093515" lon="-1.810601">
        <ele>588.311</ele>
        <time>2017-03-18T11:14:34Z</time>
      </trkpt>
      <trkpt lat="38.093461" lon="-1.810490">
        <ele>587.876</ele>
        <time>2017-03-18T11:14:36Z</time>
      </trkpt>
      <trkpt lat="38.093402" lon="-1.810370">
        <ele>588.614</ele>
        <time>2017-03-18T11:14:38Z</time>
      </trkpt>
      <trkpt lat="38.093342" lon="-1.810246">
        <ele>589.338</ele>
        <time>2017-03-18T11:14:40Z</time>
      </trkpt>
      <trkpt lat="38.093255" lon="-1.810068">
        <ele>590.144</ele>
        <time>2017-03-18T11:14:42Z</time>
      </trkpt>
      <trkpt lat="38.093201" lon="-1.809952">
        <ele>590.454</ele>
        <time>2017-03-18T11:14:45Z</time>
      </trkpt>
      <trkpt lat="38.093149" lon="-1.809837">
        <ele>590.866</ele>
        <time>2017-03-18T11:14:46Z</time>
      </trkpt>
      <trkpt lat="38.093073" lon="-1.809672">
        <ele>590.929</ele>
        <time>2017-03-18T11:14:49Z</time>
      </trkpt>
      <trkpt lat="38.093035" lon="-1.809561">
        <ele>591.321</ele>
        <time>2017-03-18T11:14:51Z</time>
      </trkpt>
      <trkpt lat="38.092987" lon="-1.809434">
        <ele>591.108</ele>
        <time>2017-03-18T11:14:53Z</time>
      </trkpt>
      <trkpt lat="38.092930" lon="-1.809303">
        <ele>591.057</ele>
        <time>2017-03-18T11:14:55Z</time>
      </trkpt>
      <trkpt lat="38.092875" lon="-1.809176">
        <ele>590.852</ele>
        <time>2017-03-18T11:14:57Z</time>
      </trkpt>
      <trkpt lat="38.092822" lon="-1.809047">
        <ele>590.474</ele>
        <time>2017-03-18T11:14:59Z</time>
      </trkpt>
      <trkpt lat="38.092761" lon="-1.808921">
        <ele>590.359</ele>
        <time>2017-03-18T11:15:01Z</time>
      </trkpt>
      <trkpt lat="38.092701" lon="-1.808792">
        <ele>590.217</ele>
        <time>2017-03-18T11:15:03Z</time>
      </trkpt>
      <trkpt lat="38.092643" lon="-1.808666">
        <ele>590.031</ele>
        <time>2017-03-18T11:15:05Z</time>
      </trkpt>
      <trkpt lat="38.092586" lon="-1.808538">
        <ele>589.967</ele>
        <time>2017-03-18T11:15:07Z</time>
      </trkpt>
      <trkpt lat="38.092535" lon="-1.808414">
        <ele>589.677</ele>
        <time>2017-03-18T11:15:09Z</time>
      </trkpt>
      <trkpt lat="38.092476" lon="-1.808287">
        <ele>589.584</ele>
        <time>2017-03-18T11:15:11Z</time>
      </trkpt>
      <trkpt lat="38.092413" lon="-1.808156">
        <ele>589.207</ele>
        <time>2017-03-18T11:15:13Z</time>
      </trkpt>
      <trkpt lat="38.092353" lon="-1.808023">
        <ele>588.717</ele>
        <time>2017-03-18T11:15:15Z</time>
      </trkpt>
      <trkpt lat="38.092298" lon="-1.807888">
        <ele>588.208</ele>
        <time>2017-03-18T11:15:17Z</time>
      </trkpt>
      <trkpt lat="38.092243" lon="-1.807757">
        <ele>587.899</ele>
        <time>2017-03-18T11:15:19Z</time>
      </trkpt>
      <trkpt lat="38.092190" lon="-1.807634">
        <ele>587.424</ele>
        <time>2017-03-18T11:15:21Z</time>
      </trkpt>
      <trkpt lat="38.092138" lon="-1.807504">
        <ele>586.956</ele>
        <time>2017-03-18T11:15:23Z</time>
      </trkpt>
      <trkpt lat="38.092079" lon="-1.807374">
        <ele>586.391</ele>
        <time>2017-03-18T11:15:25Z</time>
      </trkpt>
      <trkpt lat="38.092019" lon="-1.807236">
        <ele>585.879</ele>
        <time>2017-03-18T11:15:28Z</time>
      </trkpt>
      <trkpt lat="38.091964" lon="-1.807098">
        <ele>585.263</ele>
        <time>2017-03-18T11:15:30Z</time>
      </trkpt>
      <trkpt lat="38.091912" lon="-1.806962">
        <ele>584.769</ele>
        <time>2017-03-18T11:15:32Z</time>
      </trkpt>
      <trkpt lat="38.091860" lon="-1.806830">
        <ele>584.559</ele>
        <time>2017-03-18T11:15:34Z</time>
      </trkpt>
      <trkpt lat="38.091805" lon="-1.806702">
        <ele>584.695</ele>
        <time>2017-03-18T11:15:36Z</time>
      </trkpt>
      <trkpt lat="38.091747" lon="-1.806577">
        <ele>584.649</ele>
        <time>2017-03-18T11:15:38Z</time>
      </trkpt>
      <trkpt lat="38.091690" lon="-1.806457">
        <ele>584.523</ele>
        <time>2017-03-18T11:15:40Z</time>
      </trkpt>
      <trkpt lat="38.091635" lon="-1.806339">
        <ele>584.408</ele>
        <time>2017-03-18T11:15:42Z</time>
      </trkpt>
      <trkpt lat="38.091582" lon="-1.806223">
        <ele>584.240</ele>
        <time>2017-03-18T11:15:44Z</time>
      </trkpt>
      <trkpt lat="38.091526" lon="-1.806104">
        <ele>583.985</ele>
        <time>2017-03-18T11:15:46Z</time>
      </trkpt>
      <trkpt lat="38.091467" lon="-1.805975">
        <ele>583.637</ele>
        <time>2017-03-18T11:15:48Z</time>
      </trkpt>
      <trkpt lat="38.091407" lon="-1.805850">
        <ele>583.282</ele>
        <time>2017-03-18T11:15:50Z</time>
      </trkpt>
      <trkpt lat="38.091349" lon="-1.805730">
        <ele>582.990</ele>
        <time>2017-03-18T11:15:52Z</time>
      </trkpt>
      <trkpt lat="38.091293" lon="-1.805609">
        <ele>582.644</ele>
        <time>2017-03-18T11:15:54Z</time>
      </trkpt>
      <trkpt lat="38.091235" lon="-1.805485">
        <ele>582.290</ele>
        <time>2017-03-18T11:15:56Z</time>
      </trkpt>
      <trkpt lat="38.091174" lon="-1.805358">
        <ele>581.750</ele>
        <time>2017-03-18T11:15:58Z</time>
      </trkpt>
      <trkpt lat="38.091114" lon="-1.805234">
        <ele>581.041</ele>
        <time>2017-03-18T11:16:00Z</time>
      </trkpt>
      <trkpt lat="38.091061" lon="-1.805115">
        <ele>580.581</ele>
        <time>2017-03-18T11:16:01Z</time>
      </trkpt>
      <trkpt lat="38.091014" lon="-1.804996">
        <ele>580.009</ele>
        <time>2017-03-18T11:16:03Z</time>
      </trkpt>
      <trkpt lat="38.090967" lon="-1.804878">
        <ele>578.808</ele>
        <time>2017-03-18T11:16:05Z</time>
      </trkpt>
      <trkpt lat="38.090918" lon="-1.804770">
        <ele>578.515</ele>
        <time>2017-03-18T11:16:07Z</time>
      </trkpt>
      <trkpt lat="38.090869" lon="-1.804662">
        <ele>579.170</ele>
        <time>2017-03-18T11:16:09Z</time>
      </trkpt>
      <trkpt lat="38.090821" lon="-1.804545">
        <ele>579.792</ele>
        <time>2017-03-18T11:16:11Z</time>
      </trkpt>
      <trkpt lat="38.090773" lon="-1.804429">
        <ele>580.757</ele>
        <time>2017-03-18T11:16:13Z</time>
      </trkpt>
      <trkpt lat="38.090725" lon="-1.804311">
        <ele>581.585</ele>
        <time>2017-03-18T11:16:15Z</time>
      </trkpt>
      <trkpt lat="38.090681" lon="-1.804199">
        <ele>582.189</ele>
        <time>2017-03-18T11:16:17Z</time>
      </trkpt>
      <trkpt lat="38.090638" lon="-1.804089">
        <ele>582.265</ele>
        <time>2017-03-18T11:16:19Z</time>
      </trkpt>
      <trkpt lat="38.090592" lon="-1.803974">
        <ele>582.085</ele>
        <time>2017-03-18T11:16:21Z</time>
      </trkpt>
      <trkpt lat="38.090541" lon="-1.803863">
        <ele>581.729</ele>
        <time>2017-03-18T11:16:23Z</time>
      </trkpt>
      <trkpt lat="38.090489" lon="-1.803751">
        <ele>581.000</ele>
        <time>2017-03-18T11:16:25Z</time>
      </trkpt>
      <trkpt lat="38.090445" lon="-1.803636">
        <ele>579.720</ele>
        <time>2017-03-18T11:16:27Z</time>
      </trkpt>
      <trkpt lat="38.090394" lon="-1.803519">
        <ele>578.908</ele>
        <time>2017-03-18T11:16:29Z</time>
      </trkpt>
      <trkpt lat="38.090336" lon="-1.803408">
        <ele>578.653</ele>
        <time>2017-03-18T11:16:31Z</time>
      </trkpt>
      <trkpt lat="38.090278" lon="-1.803300">
        <ele>578.198</ele>
        <time>2017-03-18T11:16:33Z</time>
      </trkpt>
      <trkpt lat="38.090223" lon="-1.803162">
        <ele>578.390</ele>
        <time>2017-03-18T11:16:36Z</time>
      </trkpt>
      <trkpt lat="38.090167" lon="-1.803007">
        <ele>578.995</ele>
        <time>2017-03-18T11:16:39Z</time>
      </trkpt>
      <trkpt lat="38.090125" lon="-1.802898">
        <ele>579.443</ele>
        <time>2017-03-18T11:16:41Z</time>
      </trkpt>
      <trkpt lat="38.090075" lon="-1.802793">
        <ele>580.227</ele>
        <time>2017-03-18T11:16:43Z</time>
      </trkpt>
      <trkpt lat="38.090020" lon="-1.802689">
        <ele>580.883</ele>
        <time>2017-03-18T11:16:45Z</time>
      </trkpt>
      <trkpt lat="38.089951" lon="-1.802557">
        <ele>581.373</ele>
        <time>2017-03-18T11:16:49Z</time>
      </trkpt>
      <trkpt lat="38.089883" lon="-1.802440">
        <ele>581.568</ele>
        <time>2017-03-18T11:16:52Z</time>
      </trkpt>
      <trkpt lat="38.089810" lon="-1.802319">
        <ele>581.142</ele>
        <time>2017-03-18T11:16:55Z</time>
      </trkpt>
      <trkpt lat="38.089737" lon="-1.802193">
        <ele>580.926</ele>
        <time>2017-03-18T11:16:58Z</time>
      </trkpt>
      <trkpt lat="38.089674" lon="-1.802088">
        <ele>581.008</ele>
        <time>2017-03-18T11:17:01Z</time>
      </trkpt>
      <trkpt lat="38.089595" lon="-1.801989">
        <ele>581.857</ele>
        <time>2017-03-18T11:17:04Z</time>
      </trkpt>
      <trkpt lat="38.089490" lon="-1.801891">
        <ele>581.882</ele>
        <time>2017-03-18T11:17:07Z</time>
      </trkpt>
      <trkpt lat="38.089420" lon="-1.801810">
        <ele>581.944</ele>
        <time>2017-03-18T11:17:10Z</time>
      </trkpt>
      <trkpt lat="38.089348" lon="-1.801721">
        <ele>582.419</ele>
        <time>2017-03-18T11:17:13Z</time>
      </trkpt>
      <trkpt lat="38.089273" lon="-1.801631">
        <ele>582.457</ele>
        <time>2017-03-18T11:17:16Z</time>
      </trkpt>
      <trkpt lat="38.089199" lon="-1.801549">
        <ele>582.411</ele>
        <time>2017-03-18T11:17:19Z</time>
      </trkpt>
      <trkpt lat="38.089094" lon="-1.801462">
        <ele>582.577</ele>
        <time>2017-03-18T11:17:22Z</time>
      </trkpt>
      <trkpt lat="38.089020" lon="-1.801375">
        <ele>582.697</ele>
        <time>2017-03-18T11:17:25Z</time>
      </trkpt>
      <trkpt lat="38.088939" lon="-1.801287">
        <ele>582.751</ele>
        <time>2017-03-18T11:17:28Z</time>
      </trkpt>
      <trkpt lat="38.088856" lon="-1.801209">
        <ele>582.801</ele>
        <time>2017-03-18T11:17:31Z</time>
      </trkpt>
      <trkpt lat="38.088780" lon="-1.801122">
        <ele>583.011</ele>
        <time>2017-03-18T11:17:34Z</time>
      </trkpt>
      <trkpt lat="38.088708" lon="-1.801036">
        <ele>583.208</ele>
        <time>2017-03-18T11:17:37Z</time>
      </trkpt>
      <trkpt lat="38.088641" lon="-1.800953">
        <ele>583.466</ele>
        <time>2017-03-18T11:17:40Z</time>
      </trkpt>
      <trkpt lat="38.088557" lon="-1.800859">
        <ele>583.741</ele>
        <time>2017-03-18T11:17:44Z</time>
      </trkpt>
      <trkpt lat="38.088485" lon="-1.800776">
        <ele>583.993</ele>
        <time>2017-03-18T11:17:47Z</time>
      </trkpt>
      <trkpt lat="38.088411" lon="-1.800690">
        <ele>584.218</ele>
        <time>2017-03-18T11:17:50Z</time>
      </trkpt>
      <trkpt lat="38.088343" lon="-1.800601">
        <ele>584.496</ele>
        <time>2017-03-18T11:17:53Z</time>
      </trkpt>
      <trkpt lat="38.088269" lon="-1.800500">
        <ele>584.890</ele>
        <time>2017-03-18T11:17:57Z</time>
      </trkpt>
      <trkpt lat="38.088202" lon="-1.800405">
        <ele>585.196</ele>
        <time>2017-03-18T11:18:00Z</time>
      </trkpt>
      <trkpt lat="38.088119" lon="-1.800293">
        <ele>585.946</ele>
        <time>2017-03-18T11:18:04Z</time>
      </trkpt>
      <trkpt lat="38.088052" lon="-1.800195">
        <ele>586.665</ele>
        <time>2017-03-18T11:18:09Z</time>
      </trkpt>
      <trkpt lat="38.087979" lon="-1.800111">
        <ele>587.068</ele>
        <time>2017-03-18T11:18:13Z</time>
      </trkpt>
      <trkpt lat="38.087913" lon="-1.800002">
        <ele>587.414</ele>
        <time>2017-03-18T11:18:18Z</time>
      </trkpt>
      <trkpt lat="38.087839" lon="-1.799893">
        <ele>587.708</ele>
        <time>2017-03-18T11:18:21Z</time>
      </trkpt>
      <trkpt lat="38.087765" lon="-1.799764">
        <ele>590.177</ele>
        <time>2017-03-18T11:18:24Z</time>
      </trkpt>
      <trkpt lat="38.087701" lon="-1.799674">
        <ele>590.532</ele>
        <time>2017-03-18T11:18:26Z</time>
      </trkpt>
      <trkpt lat="38.087631" lon="-1.799578">
        <ele>589.874</ele>
        <time>2017-03-18T11:18:28Z</time>
      </trkpt>
      <trkpt lat="38.087557" lon="-1.799474">
        <ele>589.239</ele>
        <time>2017-03-18T11:18:30Z</time>
      </trkpt>
      <trkpt lat="38.087487" lon="-1.799366">
        <ele>588.987</ele>
        <time>2017-03-18T11:18:32Z</time>
      </trkpt>
      <trkpt lat="38.087426" lon="-1.799256">
        <ele>588.621</ele>
        <time>2017-03-18T11:18:34Z</time>
      </trkpt>
      <trkpt lat="38.087372" lon="-1.799134">
        <ele>588.517</ele>
        <time>2017-03-18T11:18:36Z</time>
      </trkpt>
      <trkpt lat="38.087308" lon="-1.799004">
        <ele>588.477</ele>
        <time>2017-03-18T11:18:38Z</time>
      </trkpt>
      <trkpt lat="38.087245" lon="-1.798876">
        <ele>588.038</ele>
        <time>2017-03-18T11:18:40Z</time>
      </trkpt>
      <trkpt lat="38.087191" lon="-1.798745">
        <ele>587.870</ele>
        <time>2017-03-18T11:18:42Z</time>
      </trkpt>
      <trkpt lat="38.087149" lon="-1.798609">
        <ele>587.617</ele>
        <time>2017-03-18T11:18:44Z</time>
      </trkpt>
      <trkpt lat="38.087119" lon="-1.798474">
        <ele>587.508</ele>
        <time>2017-03-18T11:18:45Z</time>
      </trkpt>
      <trkpt lat="38.087085" lon="-1.798343">
        <ele>587.474</ele>
        <time>2017-03-18T11:18:47Z</time>
      </trkpt>
      <trkpt lat="38.087048" lon="-1.798214">
        <ele>587.439</ele>
        <time>2017-03-18T11:18:49Z</time>
      </trkpt>
      <trkpt lat="38.087016" lon="-1.798087">
        <ele>587.381</ele>
        <time>2017-03-18T11:18:51Z</time>
      </trkpt>
      <trkpt lat="38.086993" lon="-1.797964">
        <ele>587.596</ele>
        <time>2017-03-18T11:18:53Z</time>
      </trkpt>
      <trkpt lat="38.086974" lon="-1.797842">
        <ele>588.264</ele>
        <time>2017-03-18T11:18:55Z</time>
      </trkpt>
      <trkpt lat="38.086951" lon="-1.797671">
        <ele>588.948</ele>
        <time>2017-03-18T11:18:58Z</time>
      </trkpt>
      <trkpt lat="38.086939" lon="-1.797555">
        <ele>588.784</ele>
        <time>2017-03-18T11:19:00Z</time>
      </trkpt>
      <trkpt lat="38.086929" lon="-1.797399">
        <ele>588.594</ele>
        <time>2017-03-18T11:19:03Z</time>
      </trkpt>
      <trkpt lat="38.086944" lon="-1.797276">
        <ele>588.993</ele>
        <time>2017-03-18T11:19:07Z</time>
      </trkpt>
      <trkpt lat="38.086953" lon="-1.797139">
        <ele>590.565</ele>
        <time>2017-03-18T11:19:10Z</time>
      </trkpt>
      <trkpt lat="38.086940" lon="-1.797007">
        <ele>591.621</ele>
        <time>2017-03-18T11:19:12Z</time>
      </trkpt>
      <trkpt lat="38.086915" lon="-1.796861">
        <ele>591.208</ele>
        <time>2017-03-18T11:19:14Z</time>
      </trkpt>
      <trkpt lat="38.086887" lon="-1.796707">
        <ele>590.530</ele>
        <time>2017-03-18T11:19:16Z</time>
      </trkpt>
      <trkpt lat="38.086853" lon="-1.796532">
        <ele>589.885</ele>
        <time>2017-03-18T11:19:18Z</time>
      </trkpt>
      <trkpt lat="38.086822" lon="-1.796344">
        <ele>588.957</ele>
        <time>2017-03-18T11:19:21Z</time>
      </trkpt>
      <trkpt lat="38.086790" lon="-1.796148">
        <ele>587.822</ele>
        <time>2017-03-18T11:19:23Z</time>
      </trkpt>
      <trkpt lat="38.086758" lon="-1.795957">
        <ele>586.690</ele>
        <time>2017-03-18T11:19:25Z</time>
      </trkpt>
      <trkpt lat="38.086721" lon="-1.795770">
        <ele>585.274</ele>
        <time>2017-03-18T11:19:27Z</time>
      </trkpt>
      <trkpt lat="38.086688" lon="-1.795592">
        <ele>583.880</ele>
        <time>2017-03-18T11:19:29Z</time>
      </trkpt>
      <trkpt lat="38.086660" lon="-1.795429">
        <ele>582.930</ele>
        <time>2017-03-18T11:19:31Z</time>
      </trkpt>
      <trkpt lat="38.086636" lon="-1.795273">
        <ele>582.349</ele>
        <time>2017-03-18T11:19:33Z</time>
      </trkpt>
      <trkpt lat="38.086622" lon="-1.795123">
        <ele>581.902</ele>
        <time>2017-03-18T11:19:35Z</time>
      </trkpt>
      <trkpt lat="38.086608" lon="-1.794981">
        <ele>581.822</ele>
        <time>2017-03-18T11:19:37Z</time>
      </trkpt>
      <trkpt lat="38.086594" lon="-1.794859">
        <ele>581.908</ele>
        <time>2017-03-18T11:19:39Z</time>
      </trkpt>
      <trkpt lat="38.086579" lon="-1.794744">
        <ele>582.385</ele>
        <time>2017-03-18T11:19:41Z</time>
      </trkpt>
      <trkpt lat="38.086553" lon="-1.794587">
        <ele>582.880</ele>
        <time>2017-03-18T11:19:44Z</time>
      </trkpt>
      <trkpt lat="38.086526" lon="-1.794460">
        <ele>583.252</ele>
        <time>2017-03-18T11:19:47Z</time>
      </trkpt>
      <trkpt lat="38.086512" lon="-1.794297">
        <ele>585.277</ele>
        <time>2017-03-18T11:19:50Z</time>
      </trkpt>
      <trkpt lat="38.086503" lon="-1.794161">
        <ele>586.515</ele>
        <time>2017-03-18T11:19:52Z</time>
      </trkpt>
      <trkpt lat="38.086488" lon="-1.794015">
        <ele>587.699</ele>
        <time>2017-03-18T11:19:54Z</time>
      </trkpt>
      <trkpt lat="38.086460" lon="-1.793791">
        <ele>588.445</ele>
        <time>2017-03-18T11:19:56Z</time>
      </trkpt>
      <trkpt lat="38.086436" lon="-1.793647">
        <ele>588.155</ele>
        <time>2017-03-18T11:19:58Z</time>
      </trkpt>
      <trkpt lat="38.086416" lon="-1.793508">
        <ele>587.483</ele>
        <time>2017-03-18T11:20:00Z</time>
      </trkpt>
      <trkpt lat="38.086393" lon="-1.793377">
        <ele>586.625</ele>
        <time>2017-03-18T11:20:02Z</time>
      </trkpt>
      <trkpt lat="38.086371" lon="-1.793251">
        <ele>585.817</ele>
        <time>2017-03-18T11:20:04Z</time>
      </trkpt>
      <trkpt lat="38.086352" lon="-1.793129">
        <ele>584.908</ele>
        <time>2017-03-18T11:20:06Z</time>
      </trkpt>
      <trkpt lat="38.086330" lon="-1.793005">
        <ele>584.199</ele>
        <time>2017-03-18T11:20:08Z</time>
      </trkpt>
      <trkpt lat="38.086318" lon="-1.792890">
        <ele>583.724</ele>
        <time>2017-03-18T11:20:10Z</time>
      </trkpt>
      <trkpt lat="38.086306" lon="-1.792759">
        <ele>583.726</ele>
        <time>2017-03-18T11:20:12Z</time>
      </trkpt>
      <trkpt lat="38.086292" lon="-1.792633">
        <ele>583.991</ele>
        <time>2017-03-18T11:20:14Z</time>
      </trkpt>
      <trkpt lat="38.086274" lon="-1.792505">
        <ele>583.799</ele>
        <time>2017-03-18T11:20:16Z</time>
      </trkpt>
      <trkpt lat="38.086255" lon="-1.792375">
        <ele>583.413</ele>
        <time>2017-03-18T11:20:18Z</time>
      </trkpt>
      <trkpt lat="38.086234" lon="-1.792250">
        <ele>582.939</ele>
        <time>2017-03-18T11:20:20Z</time>
      </trkpt>
      <trkpt lat="38.086214" lon="-1.792126">
        <ele>582.649</ele>
        <time>2017-03-18T11:20:22Z</time>
      </trkpt>
      <trkpt lat="38.086195" lon="-1.791998">
        <ele>582.149</ele>
        <time>2017-03-18T11:20:24Z</time>
      </trkpt>
      <trkpt lat="38.086173" lon="-1.791869">
        <ele>581.502</ele>
        <time>2017-03-18T11:20:26Z</time>
      </trkpt>
      <trkpt lat="38.086153" lon="-1.791739">
        <ele>580.722</ele>
        <time>2017-03-18T11:20:28Z</time>
      </trkpt>
      <trkpt lat="38.086132" lon="-1.791613">
        <ele>580.108</ele>
        <time>2017-03-18T11:20:30Z</time>
      </trkpt>
      <trkpt lat="38.086116" lon="-1.791495">
        <ele>580.055</ele>
        <time>2017-03-18T11:20:32Z</time>
      </trkpt>
      <trkpt lat="38.086103" lon="-1.791379">
        <ele>580.430</ele>
        <time>2017-03-18T11:20:34Z</time>
      </trkpt>
      <trkpt lat="38.086096" lon="-1.791261">
        <ele>581.432</ele>
        <time>2017-03-18T11:20:36Z</time>
      </trkpt>
      <trkpt lat="38.086090" lon="-1.791144">
        <ele>582.567</ele>
        <time>2017-03-18T11:20:38Z</time>
      </trkpt>
      <trkpt lat="38.086076" lon="-1.791020">
        <ele>582.655</ele>
        <time>2017-03-18T11:20:40Z</time>
      </trkpt>
      <trkpt lat="38.086060" lon="-1.790900">
        <ele>582.379</ele>
        <time>2017-03-18T11:20:43Z</time>
      </trkpt>
      <trkpt lat="38.086044" lon="-1.790787">
        <ele>581.745</ele>
        <time>2017-03-18T11:20:45Z</time>
      </trkpt>
      <trkpt lat="38.086020" lon="-1.790622">
        <ele>581.415</ele>
        <time>2017-03-18T11:20:48Z</time>
      </trkpt>
      <trkpt lat="38.085999" lon="-1.790461">
        <ele>581.849</ele>
        <time>2017-03-18T11:20:51Z</time>
      </trkpt>
      <trkpt lat="38.085978" lon="-1.790306">
        <ele>582.502</ele>
        <time>2017-03-18T11:20:54Z</time>
      </trkpt>
      <trkpt lat="38.085957" lon="-1.790143">
        <ele>582.922</ele>
        <time>2017-03-18T11:20:57Z</time>
      </trkpt>
      <trkpt lat="38.085940" lon="-1.790029">
        <ele>582.908</ele>
        <time>2017-03-18T11:20:59Z</time>
      </trkpt>
      <trkpt lat="38.085919" lon="-1.789867">
        <ele>583.255</ele>
        <time>2017-03-18T11:21:02Z</time>
      </trkpt>
      <trkpt lat="38.085902" lon="-1.789753">
        <ele>582.950</ele>
        <time>2017-03-18T11:21:04Z</time>
      </trkpt>
      <trkpt lat="38.085871" lon="-1.789591">
        <ele>582.442</ele>
        <time>2017-03-18T11:21:06Z</time>
      </trkpt>
      <trkpt lat="38.085840" lon="-1.789441">
        <ele>582.337</ele>
        <time>2017-03-18T11:21:09Z</time>
      </trkpt>
      <trkpt lat="38.085809" lon="-1.789283">
        <ele>582.795</ele>
        <time>2017-03-18T11:21:12Z</time>
      </trkpt>
      <trkpt lat="38.085778" lon="-1.789122">
        <ele>582.829</ele>
        <time>2017-03-18T11:21:15Z</time>
      </trkpt>
      <trkpt lat="38.085758" lon="-1.789011">
        <ele>582.695</ele>
        <time>2017-03-18T11:21:17Z</time>
      </trkpt>
      <trkpt lat="38.085735" lon="-1.788845">
        <ele>582.285</ele>
        <time>2017-03-18T11:21:20Z</time>
      </trkpt>
      <trkpt lat="38.085721" lon="-1.788679">
        <ele>583.112</ele>
        <time>2017-03-18T11:21:23Z</time>
      </trkpt>
      <trkpt lat="38.085712" lon="-1.788554">
        <ele>583.832</ele>
        <time>2017-03-18T11:21:25Z</time>
      </trkpt>
      <trkpt lat="38.085709" lon="-1.788431">
        <ele>584.905</ele>
        <time>2017-03-18T11:21:27Z</time>
      </trkpt>
      <trkpt lat="38.085703" lon="-1.788310">
        <ele>586.008</ele>
        <time>2017-03-18T11:21:29Z</time>
      </trkpt>
      <trkpt lat="38.085691" lon="-1.788183">
        <ele>586.412</ele>
        <time>2017-03-18T11:21:31Z</time>
      </trkpt>
      <trkpt lat="38.085674" lon="-1.788055">
        <ele>585.697</ele>
        <time>2017-03-18T11:21:33Z</time>
      </trkpt>
      <trkpt lat="38.085663" lon="-1.787924">
        <ele>585.149</ele>
        <time>2017-03-18T11:21:35Z</time>
      </trkpt>
      <trkpt lat="38.085648" lon="-1.787797">
        <ele>584.684</ele>
        <time>2017-03-18T11:21:37Z</time>
      </trkpt>
      <trkpt lat="38.085627" lon="-1.787667">
        <ele>583.572</ele>
        <time>2017-03-18T11:21:39Z</time>
      </trkpt>
      <trkpt lat="38.085608" lon="-1.787532">
        <ele>582.196</ele>
        <time>2017-03-18T11:21:41Z</time>
      </trkpt>
      <trkpt lat="38.085590" lon="-1.787398">
        <ele>580.872</ele>
        <time>2017-03-18T11:21:43Z</time>
      </trkpt>
      <trkpt lat="38.085575" lon="-1.787267">
        <ele>580.052</ele>
        <time>2017-03-18T11:21:46Z</time>
      </trkpt>
      <trkpt lat="38.085562" lon="-1.787139">
        <ele>579.569</ele>
        <time>2017-03-18T11:21:48Z</time>
      </trkpt>
      <trkpt lat="38.085551" lon="-1.787020">
        <ele>579.404</ele>
        <time>2017-03-18T11:21:50Z</time>
      </trkpt>
      <trkpt lat="38.085540" lon="-1.786904">
        <ele>579.824</ele>
        <time>2017-03-18T11:21:52Z</time>
      </trkpt>
      <trkpt lat="38.085526" lon="-1.786785">
        <ele>579.708</ele>
        <time>2017-03-18T11:21:54Z</time>
      </trkpt>
      <trkpt lat="38.085510" lon="-1.786663">
        <ele>579.557</ele>
        <time>2017-03-18T11:21:56Z</time>
      </trkpt>
      <trkpt lat="38.085495" lon="-1.786533">
        <ele>579.332</ele>
        <time>2017-03-18T11:21:58Z</time>
      </trkpt>
      <trkpt lat="38.085481" lon="-1.786400">
        <ele>578.774</ele>
        <time>2017-03-18T11:22:00Z</time>
      </trkpt>
      <trkpt lat="38.085475" lon="-1.786261">
        <ele>578.069</ele>
        <time>2017-03-18T11:22:02Z</time>
      </trkpt>
      <trkpt lat="38.085472" lon="-1.786130">
        <ele>577.197</ele>
        <time>2017-03-18T11:22:04Z</time>
      </trkpt>
      <trkpt lat="38.085480" lon="-1.785943">
        <ele>576.491</ele>
        <time>2017-03-18T11:22:06Z</time>
      </trkpt>
      <trkpt lat="38.085484" lon="-1.785825">
        <ele>576.167</ele>
        <time>2017-03-18T11:22:08Z</time>
      </trkpt>
      <trkpt lat="38.085491" lon="-1.785662">
        <ele>575.877</ele>
        <time>2017-03-18T11:22:11Z</time>
      </trkpt>
      <trkpt lat="38.085508" lon="-1.785524">
        <ele>576.123</ele>
        <time>2017-03-18T11:22:14Z</time>
      </trkpt>
      <trkpt lat="38.085529" lon="-1.785409">
        <ele>576.883</ele>
        <time>2017-03-18T11:22:19Z</time>
      </trkpt>
      <trkpt lat="38.085500" lon="-1.785294">
        <ele>577.511</ele>
        <time>2017-03-18T11:22:23Z</time>
      </trkpt>
      <trkpt lat="38.085461" lon="-1.785186">
        <ele>578.008</ele>
        <time>2017-03-18T11:22:28Z</time>
      </trkpt>
      <trkpt lat="38.085383" lon="-1.785077">
        <ele>578.423</ele>
        <time>2017-03-18T11:22:32Z</time>
      </trkpt>
      <trkpt lat="38.085336" lon="-1.784966">
        <ele>579.868</ele>
        <time>2017-03-18T11:22:35Z</time>
      </trkpt>
      <trkpt lat="38.085288" lon="-1.784833">
        <ele>582.080</ele>
        <time>2017-03-18T11:22:38Z</time>
      </trkpt>
      <trkpt lat="38.085229" lon="-1.784703">
        <ele>583.155</ele>
        <time>2017-03-18T11:22:41Z</time>
      </trkpt>
      <trkpt lat="38.085140" lon="-1.784593">
        <ele>583.293</ele>
        <time>2017-03-18T11:22:44Z</time>
      </trkpt>
      <trkpt lat="38.085101" lon="-1.784444">
        <ele>582.717</ele>
        <time>2017-03-18T11:22:47Z</time>
      </trkpt>
      <trkpt lat="38.085157" lon="-1.784336">
        <ele>582.943</ele>
        <time>2017-03-18T11:22:50Z</time>
      </trkpt>
      <trkpt lat="38.085260" lon="-1.784323">
        <ele>584.173</ele>
        <time>2017-03-18T11:22:52Z</time>
      </trkpt>
      <trkpt lat="38.085355" lon="-1.784306">
        <ele>585.084</ele>
        <time>2017-03-18T11:22:54Z</time>
      </trkpt>
      <trkpt lat="38.085443" lon="-1.784271">
        <ele>585.507</ele>
        <time>2017-03-18T11:22:56Z</time>
      </trkpt>
      <trkpt lat="38.085530" lon="-1.784230">
        <ele>585.517</ele>
        <time>2017-03-18T11:22:58Z</time>
      </trkpt>
      <trkpt lat="38.085618" lon="-1.784183">
        <ele>586.108</ele>
        <time>2017-03-18T11:23:00Z</time>
      </trkpt>
      <trkpt lat="38.085706" lon="-1.784125">
        <ele>587.149</ele>
        <time>2017-03-18T11:23:02Z</time>
      </trkpt>
      <trkpt lat="38.085784" lon="-1.784043">
        <ele>587.464</ele>
        <time>2017-03-18T11:23:04Z</time>
      </trkpt>
      <trkpt lat="38.085838" lon="-1.783913">
        <ele>586.986</ele>
        <time>2017-03-18T11:23:06Z</time>
      </trkpt>
      <trkpt lat="38.085859" lon="-1.783759">
        <ele>586.031</ele>
        <time>2017-03-18T11:23:08Z</time>
      </trkpt>
      <trkpt lat="38.085887" lon="-1.783616">
        <ele>585.219</ele>
        <time>2017-03-18T11:23:10Z</time>
      </trkpt>
      <trkpt lat="38.085940" lon="-1.783482">
        <ele>584.823</ele>
        <time>2017-03-18T11:23:12Z</time>
      </trkpt>
      <trkpt lat="38.085983" lon="-1.783352">
        <ele>584.769</ele>
        <time>2017-03-18T11:23:14Z</time>
      </trkpt>
      <trkpt lat="38.086016" lon="-1.783210">
        <ele>584.669</ele>
        <time>2017-03-18T11:23:16Z</time>
      </trkpt>
      <trkpt lat="38.086050" lon="-1.783079">
        <ele>584.833</ele>
        <time>2017-03-18T11:23:18Z</time>
      </trkpt>
      <trkpt lat="38.086098" lon="-1.782898">
        <ele>584.823</ele>
        <time>2017-03-18T11:23:20Z</time>
      </trkpt>
      <trkpt lat="38.086120" lon="-1.782776">
        <ele>584.715</ele>
        <time>2017-03-18T11:23:22Z</time>
      </trkpt>
      <trkpt lat="38.086148" lon="-1.782654">
        <ele>584.808</ele>
        <time>2017-03-18T11:23:24Z</time>
      </trkpt>
      <trkpt lat="38.086200" lon="-1.782468">
        <ele>583.894</ele>
        <time>2017-03-18T11:23:27Z</time>
      </trkpt>
      <trkpt lat="38.086237" lon="-1.782350">
        <ele>583.119</ele>
        <time>2017-03-18T11:23:29Z</time>
      </trkpt>
      <trkpt lat="38.086270" lon="-1.782237">
        <ele>582.991</ele>
        <time>2017-03-18T11:23:31Z</time>
      </trkpt>
      <trkpt lat="38.086298" lon="-1.782124">
        <ele>582.596</ele>
        <time>2017-03-18T11:23:33Z</time>
      </trkpt>
      <trkpt lat="38.086323" lon="-1.782010">
        <ele>582.544</ele>
        <time>2017-03-18T11:23:35Z</time>
      </trkpt>
      <trkpt lat="38.086346" lon="-1.781893">
        <ele>582.778</ele>
        <time>2017-03-18T11:23:37Z</time>
      </trkpt>
      <trkpt lat="38.086368" lon="-1.781772">
        <ele>583.114</ele>
        <time>2017-03-18T11:23:39Z</time>
      </trkpt>
      <trkpt lat="38.086389" lon="-1.781646">
        <ele>582.624</ele>
        <time>2017-03-18T11:23:41Z</time>
      </trkpt>
      <trkpt lat="38.086408" lon="-1.781522">
        <ele>581.461</ele>
        <time>2017-03-18T11:23:43Z</time>
      </trkpt>
      <trkpt lat="38.086424" lon="-1.781394">
        <ele>580.121</ele>
        <time>2017-03-18T11:23:46Z</time>
      </trkpt>
      <trkpt lat="38.086444" lon="-1.781266">
        <ele>578.613</ele>
        <time>2017-03-18T11:23:48Z</time>
      </trkpt>
      <trkpt lat="38.086466" lon="-1.781134">
        <ele>577.108</ele>
        <time>2017-03-18T11:23:50Z</time>
      </trkpt>
      <trkpt lat="38.086494" lon="-1.781009">
        <ele>576.377</ele>
        <time>2017-03-18T11:23:52Z</time>
      </trkpt>
      <trkpt lat="38.086522" lon="-1.780880">
        <ele>575.742</ele>
        <time>2017-03-18T11:23:54Z</time>
      </trkpt>
      <trkpt lat="38.086554" lon="-1.780749">
        <ele>575.194</ele>
        <time>2017-03-18T11:23:56Z</time>
      </trkpt>
      <trkpt lat="38.086590" lon="-1.780613">
        <ele>574.399</ele>
        <time>2017-03-18T11:23:58Z</time>
      </trkpt>
      <trkpt lat="38.086626" lon="-1.780480">
        <ele>573.917</ele>
        <time>2017-03-18T11:24:00Z</time>
      </trkpt>
      <trkpt lat="38.086662" lon="-1.780347">
        <ele>573.991</ele>
        <time>2017-03-18T11:24:02Z</time>
      </trkpt>
      <trkpt lat="38.086693" lon="-1.780212">
        <ele>573.937</ele>
        <time>2017-03-18T11:24:04Z</time>
      </trkpt>
      <trkpt lat="38.086726" lon="-1.780076">
        <ele>574.487</ele>
        <time>2017-03-18T11:24:06Z</time>
      </trkpt>
      <trkpt lat="38.086764" lon="-1.779944">
        <ele>575.469</ele>
        <time>2017-03-18T11:24:08Z</time>
      </trkpt>
      <trkpt lat="38.086797" lon="-1.779813">
        <ele>576.604</ele>
        <time>2017-03-18T11:24:10Z</time>
      </trkpt>
      <trkpt lat="38.086829" lon="-1.779690">
        <ele>577.924</ele>
        <time>2017-03-18T11:24:12Z</time>
      </trkpt>
      <trkpt lat="38.086861" lon="-1.779554">
        <ele>579.008</ele>
        <time>2017-03-18T11:24:14Z</time>
      </trkpt>
      <trkpt lat="38.086894" lon="-1.779417">
        <ele>580.057</ele>
        <time>2017-03-18T11:24:16Z</time>
      </trkpt>
      <trkpt lat="38.086931" lon="-1.779276">
        <ele>581.142</ele>
        <time>2017-03-18T11:24:18Z</time>
      </trkpt>
      <trkpt lat="38.086968" lon="-1.779145">
        <ele>581.984</ele>
        <time>2017-03-18T11:24:20Z</time>
      </trkpt>
      <trkpt lat="38.087001" lon="-1.779012">
        <ele>582.729</ele>
        <time>2017-03-18T11:24:22Z</time>
      </trkpt>
      <trkpt lat="38.087037" lon="-1.778876">
        <ele>583.157</ele>
        <time>2017-03-18T11:24:24Z</time>
      </trkpt>
      <trkpt lat="38.087076" lon="-1.778738">
        <ele>583.321</ele>
        <time>2017-03-18T11:24:26Z</time>
      </trkpt>
      <trkpt lat="38.087111" lon="-1.778601">
        <ele>583.347</ele>
        <time>2017-03-18T11:24:28Z</time>
      </trkpt>
      <trkpt lat="38.087150" lon="-1.778460">
        <ele>583.147</ele>
        <time>2017-03-18T11:24:30Z</time>
      </trkpt>
      <trkpt lat="38.087187" lon="-1.778314">
        <ele>582.789</ele>
        <time>2017-03-18T11:24:32Z</time>
      </trkpt>
      <trkpt lat="38.087219" lon="-1.778178">
        <ele>582.106</ele>
        <time>2017-03-18T11:24:33Z</time>
      </trkpt>
      <trkpt lat="38.087256" lon="-1.778035">
        <ele>581.626</ele>
        <time>2017-03-18T11:24:35Z</time>
      </trkpt>
      <trkpt lat="38.087297" lon="-1.777891">
        <ele>580.908</ele>
        <time>2017-03-18T11:24:37Z</time>
      </trkpt>
      <trkpt lat="38.087329" lon="-1.777749">
        <ele>579.929</ele>
        <time>2017-03-18T11:24:39Z</time>
      </trkpt>
      <trkpt lat="38.087354" lon="-1.777610">
        <ele>579.144</ele>
        <time>2017-03-18T11:24:41Z</time>
      </trkpt>
      <trkpt lat="38.087375" lon="-1.777484">
        <ele>577.916</ele>
        <time>2017-03-18T11:24:43Z</time>
      </trkpt>
      <trkpt lat="38.087411" lon="-1.777359">
        <ele>576.541</ele>
        <time>2017-03-18T11:24:45Z</time>
      </trkpt>
      <trkpt lat="38.087437" lon="-1.777228">
        <ele>575.919</ele>
        <time>2017-03-18T11:24:47Z</time>
      </trkpt>
      <trkpt lat="38.087460" lon="-1.777105">
        <ele>575.673</ele>
        <time>2017-03-18T11:24:49Z</time>
      </trkpt>
      <trkpt lat="38.087484" lon="-1.776975">
        <ele>575.479</ele>
        <time>2017-03-18T11:24:51Z</time>
      </trkpt>
      <trkpt lat="38.087507" lon="-1.776836">
        <ele>575.449</ele>
        <time>2017-03-18T11:24:53Z</time>
      </trkpt>
      <trkpt lat="38.087536" lon="-1.776702">
        <ele>575.348</ele>
        <time>2017-03-18T11:24:55Z</time>
      </trkpt>
      <trkpt lat="38.087564" lon="-1.776563">
        <ele>575.461</ele>
        <time>2017-03-18T11:24:57Z</time>
      </trkpt>
      <trkpt lat="38.087602" lon="-1.776427">
        <ele>575.517</ele>
        <time>2017-03-18T11:25:00Z</time>
      </trkpt>
      <trkpt lat="38.087627" lon="-1.776296">
        <ele>575.608</ele>
        <time>2017-03-18T11:25:02Z</time>
      </trkpt>
      <trkpt lat="38.087656" lon="-1.776164">
        <ele>575.755</ele>
        <time>2017-03-18T11:25:04Z</time>
      </trkpt>
      <trkpt lat="38.087684" lon="-1.776032">
        <ele>575.940</ele>
        <time>2017-03-18T11:25:06Z</time>
      </trkpt>
      <trkpt lat="38.087711" lon="-1.775901">
        <ele>575.762</ele>
        <time>2017-03-18T11:25:08Z</time>
      </trkpt>
      <trkpt lat="38.087737" lon="-1.775767">
        <ele>575.597</ele>
        <time>2017-03-18T11:25:10Z</time>
      </trkpt>
      <trkpt lat="38.087751" lon="-1.775628">
        <ele>575.165</ele>
        <time>2017-03-18T11:25:12Z</time>
      </trkpt>
      <trkpt lat="38.087766" lon="-1.775491">
        <ele>574.939</ele>
        <time>2017-03-18T11:25:14Z</time>
      </trkpt>
      <trkpt lat="38.087773" lon="-1.775354">
        <ele>575.085</ele>
        <time>2017-03-18T11:25:16Z</time>
      </trkpt>
      <trkpt lat="38.087768" lon="-1.775213">
        <ele>574.115</ele>
        <time>2017-03-18T11:25:18Z</time>
      </trkpt>
      <trkpt lat="38.087772" lon="-1.775073">
        <ele>572.758</ele>
        <time>2017-03-18T11:25:20Z</time>
      </trkpt>
      <trkpt lat="38.087769" lon="-1.774942">
        <ele>571.952</ele>
        <time>2017-03-18T11:25:22Z</time>
      </trkpt>
      <trkpt lat="38.087766" lon="-1.774809">
        <ele>571.217</ele>
        <time>2017-03-18T11:25:24Z</time>
      </trkpt>
      <trkpt lat="38.087748" lon="-1.774673">
        <ele>570.208</ele>
        <time>2017-03-18T11:25:26Z</time>
      </trkpt>
      <trkpt lat="38.087729" lon="-1.774534">
        <ele>569.136</ele>
        <time>2017-03-18T11:25:28Z</time>
      </trkpt>
      <trkpt lat="38.087695" lon="-1.774393">
        <ele>568.421</ele>
        <time>2017-03-18T11:25:30Z</time>
      </trkpt>
      <trkpt lat="38.087667" lon="-1.774270">
        <ele>567.823</ele>
        <time>2017-03-18T11:25:32Z</time>
      </trkpt>
      <trkpt lat="38.087642" lon="-1.774147">
        <ele>567.478</ele>
        <time>2017-03-18T11:25:34Z</time>
      </trkpt>
      <trkpt lat="38.087607" lon="-1.774019">
        <ele>567.416</ele>
        <time>2017-03-18T11:25:36Z</time>
      </trkpt>
      <trkpt lat="38.087571" lon="-1.773910">
        <ele>567.090</ele>
        <time>2017-03-18T11:25:38Z</time>
      </trkpt>
      <trkpt lat="38.087529" lon="-1.773801">
        <ele>566.626</ele>
        <time>2017-03-18T11:25:40Z</time>
      </trkpt>
      <trkpt lat="38.087495" lon="-1.773695">
        <ele>566.026</ele>
        <time>2017-03-18T11:25:42Z</time>
      </trkpt>
      <trkpt lat="38.087447" lon="-1.773547">
        <ele>565.589</ele>
        <time>2017-03-18T11:25:45Z</time>
      </trkpt>
      <trkpt lat="38.087404" lon="-1.773408">
        <ele>564.806</ele>
        <time>2017-03-18T11:25:48Z</time>
      </trkpt>
      <trkpt lat="38.087363" lon="-1.773276">
        <ele>564.626</ele>
        <time>2017-03-18T11:25:50Z</time>
      </trkpt>
      <trkpt lat="38.087311" lon="-1.773115">
        <ele>565.908</ele>
        <time>2017-03-18T11:25:54Z</time>
      </trkpt>
      <trkpt lat="38.087268" lon="-1.772974">
        <ele>568.389</ele>
        <time>2017-03-18T11:25:57Z</time>
      </trkpt>
      <trkpt lat="38.087219" lon="-1.772824">
        <ele>569.824</ele>
        <time>2017-03-18T11:26:00Z</time>
      </trkpt>
      <trkpt lat="38.087176" lon="-1.772675">
        <ele>571.216</ele>
        <time>2017-03-18T11:26:03Z</time>
      </trkpt>
      <trkpt lat="38.087142" lon="-1.772568">
        <ele>571.621</ele>
        <time>2017-03-18T11:26:05Z</time>
      </trkpt>
      <trkpt lat="38.087091" lon="-1.772416">
        <ele>571.879</ele>
        <time>2017-03-18T11:26:08Z</time>
      </trkpt>
      <trkpt lat="38.087057" lon="-1.772272">
        <ele>573.643</ele>
        <time>2017-03-18T11:26:11Z</time>
      </trkpt>
      <trkpt lat="38.087018" lon="-1.772131">
        <ele>574.799</ele>
        <time>2017-03-18T11:26:15Z</time>
      </trkpt>
      <trkpt lat="38.086976" lon="-1.772002">
        <ele>575.519</ele>
        <time>2017-03-18T11:26:18Z</time>
      </trkpt>
      <trkpt lat="38.086933" lon="-1.771858">
        <ele>575.276</ele>
        <time>2017-03-18T11:26:21Z</time>
      </trkpt>
      <trkpt lat="38.086893" lon="-1.771709">
        <ele>576.190</ele>
        <time>2017-03-18T11:26:24Z</time>
      </trkpt>
      <trkpt lat="38.086846" lon="-1.771556">
        <ele>576.319</ele>
        <time>2017-03-18T11:26:27Z</time>
      </trkpt>
      <trkpt lat="38.086795" lon="-1.771408">
        <ele>576.908</ele>
        <time>2017-03-18T11:26:30Z</time>
      </trkpt>
      <trkpt lat="38.086744" lon="-1.771256">
        <ele>576.928</ele>
        <time>2017-03-18T11:26:33Z</time>
      </trkpt>
      <trkpt lat="38.086699" lon="-1.771100">
        <ele>577.193</ele>
        <time>2017-03-18T11:26:36Z</time>
      </trkpt>
      <trkpt lat="38.086651" lon="-1.770948">
        <ele>577.475</ele>
        <time>2017-03-18T11:26:39Z</time>
      </trkpt>
      <trkpt lat="38.086623" lon="-1.770835">
        <ele>576.320</ele>
        <time>2017-03-18T11:26:41Z</time>
      </trkpt>
      <trkpt lat="38.086600" lon="-1.770721">
        <ele>574.648</ele>
        <time>2017-03-18T11:26:43Z</time>
      </trkpt>
      <trkpt lat="38.086558" lon="-1.770565">
        <ele>573.152</ele>
        <time>2017-03-18T11:26:46Z</time>
      </trkpt>
      <trkpt lat="38.086521" lon="-1.770416">
        <ele>573.488</ele>
        <time>2017-03-18T11:26:49Z</time>
      </trkpt>
      <trkpt lat="38.086480" lon="-1.770268">
        <ele>574.248</ele>
        <time>2017-03-18T11:26:52Z</time>
      </trkpt>
      <trkpt lat="38.086430" lon="-1.770161">
        <ele>573.659</ele>
        <time>2017-03-18T11:26:54Z</time>
      </trkpt>
      <trkpt lat="38.086399" lon="-1.770038">
        <ele>573.403</ele>
        <time>2017-03-18T11:26:57Z</time>
      </trkpt>
      <trkpt lat="38.086364" lon="-1.769930">
        <ele>573.223</ele>
        <time>2017-03-18T11:27:00Z</time>
      </trkpt>
      <trkpt lat="38.086322" lon="-1.769803">
        <ele>572.708</ele>
        <time>2017-03-18T11:27:03Z</time>
      </trkpt>
      <trkpt lat="38.086275" lon="-1.769664">
        <ele>572.316</ele>
        <time>2017-03-18T11:27:06Z</time>
      </trkpt>
      <trkpt lat="38.086231" lon="-1.769547">
        <ele>572.371</ele>
        <time>2017-03-18T11:27:09Z</time>
      </trkpt>
      <trkpt lat="38.086189" lon="-1.769430">
        <ele>572.133</ele>
        <time>2017-03-18T11:27:12Z</time>
      </trkpt>
      <trkpt lat="38.086134" lon="-1.769300">
        <ele>571.888</ele>
        <time>2017-03-18T11:27:15Z</time>
      </trkpt>
      <trkpt lat="38.086085" lon="-1.769166">
        <ele>569.836</ele>
        <time>2017-03-18T11:27:18Z</time>
      </trkpt>
      <trkpt lat="38.086035" lon="-1.769029">
        <ele>568.260</ele>
        <time>2017-03-18T11:27:21Z</time>
      </trkpt>
      <trkpt lat="38.085993" lon="-1.768927">
        <ele>567.236</ele>
        <time>2017-03-18T11:27:23Z</time>
      </trkpt>
      <trkpt lat="38.085956" lon="-1.768819">
        <ele>566.276</ele>
        <time>2017-03-18T11:27:25Z</time>
      </trkpt>
      <trkpt lat="38.085908" lon="-1.768671">
        <ele>566.785</ele>
        <time>2017-03-18T11:27:28Z</time>
      </trkpt>
      <trkpt lat="38.085860" lon="-1.768522">
        <ele>567.489</ele>
        <time>2017-03-18T11:27:31Z</time>
      </trkpt>
      <trkpt lat="38.085824" lon="-1.768416">
        <ele>568.117</ele>
        <time>2017-03-18T11:27:33Z</time>
      </trkpt>
      <trkpt lat="38.085776" lon="-1.768259">
        <ele>568.608</ele>
        <time>2017-03-18T11:27:36Z</time>
      </trkpt>
      <trkpt lat="38.085739" lon="-1.768154">
        <ele>569.099</ele>
        <time>2017-03-18T11:27:38Z</time>
      </trkpt>
      <trkpt lat="38.085707" lon="-1.768044">
        <ele>568.554</ele>
        <time>2017-03-18T11:27:40Z</time>
      </trkpt>
      <trkpt lat="38.085674" lon="-1.767932">
        <ele>567.466</ele>
        <time>2017-03-18T11:27:42Z</time>
      </trkpt>
      <trkpt lat="38.085626" lon="-1.767781">
        <ele>568.051</ele>
        <time>2017-03-18T11:27:45Z</time>
      </trkpt>
      <trkpt lat="38.085578" lon="-1.767626">
        <ele>569.989</ele>
        <time>2017-03-18T11:27:48Z</time>
      </trkpt>
      <trkpt lat="38.085536" lon="-1.767467">
        <ele>572.063</ele>
        <time>2017-03-18T11:27:50Z</time>
      </trkpt>
      <trkpt lat="38.085509" lon="-1.767351">
        <ele>572.249</ele>
        <time>2017-03-18T11:27:52Z</time>
      </trkpt>
      <trkpt lat="38.085481" lon="-1.767232">
        <ele>572.129</ele>
        <time>2017-03-18T11:27:54Z</time>
      </trkpt>
      <trkpt lat="38.085457" lon="-1.767118">
        <ele>572.212</ele>
        <time>2017-03-18T11:27:56Z</time>
      </trkpt>
      <trkpt lat="38.085437" lon="-1.767002">
        <ele>572.832</ele>
        <time>2017-03-18T11:27:58Z</time>
      </trkpt>
      <trkpt lat="38.085416" lon="-1.766885">
        <ele>572.705</ele>
        <time>2017-03-18T11:28:00Z</time>
      </trkpt>
      <trkpt lat="38.085391" lon="-1.766725">
        <ele>572.408</ele>
        <time>2017-03-18T11:28:03Z</time>
      </trkpt>
      <trkpt lat="38.085364" lon="-1.766567">
        <ele>571.522</ele>
        <time>2017-03-18T11:28:06Z</time>
      </trkpt>
      <trkpt lat="38.085346" lon="-1.766401">
        <ele>570.217</ele>
        <time>2017-03-18T11:28:09Z</time>
      </trkpt>
      <trkpt lat="38.085338" lon="-1.766242">
        <ele>569.829</ele>
        <time>2017-03-18T11:28:12Z</time>
      </trkpt>
      <trkpt lat="38.085330" lon="-1.766080">
        <ele>571.364</ele>
        <time>2017-03-18T11:28:15Z</time>
      </trkpt>
      <trkpt lat="38.085323" lon="-1.765914">
        <ele>574.432</ele>
        <time>2017-03-18T11:28:19Z</time>
      </trkpt>
      <trkpt lat="38.085322" lon="-1.765797">
        <ele>575.856</ele>
        <time>2017-03-18T11:28:21Z</time>
      </trkpt>
      <trkpt lat="38.085322" lon="-1.765625">
        <ele>576.722</ele>
        <time>2017-03-18T11:28:24Z</time>
      </trkpt>
      <trkpt lat="38.085320" lon="-1.765505">
        <ele>576.542</ele>
        <time>2017-03-18T11:28:26Z</time>
      </trkpt>
      <trkpt lat="38.085324" lon="-1.765384">
        <ele>575.557</ele>
        <time>2017-03-18T11:28:28Z</time>
      </trkpt>
      <trkpt lat="38.085331" lon="-1.765221">
        <ele>574.900</ele>
        <time>2017-03-18T11:28:31Z</time>
      </trkpt>
      <trkpt lat="38.085343" lon="-1.765056">
        <ele>576.120</ele>
        <time>2017-03-18T11:28:34Z</time>
      </trkpt>
      <trkpt lat="38.085345" lon="-1.764941">
        <ele>576.808</ele>
        <time>2017-03-18T11:28:36Z</time>
      </trkpt>
      <trkpt lat="38.085354" lon="-1.764768">
        <ele>577.576</ele>
        <time>2017-03-18T11:28:39Z</time>
      </trkpt>
      <trkpt lat="38.085367" lon="-1.764601">
        <ele>577.551</ele>
        <time>2017-03-18T11:28:42Z</time>
      </trkpt>
      <trkpt lat="38.085376" lon="-1.764485">
        <ele>576.763</ele>
        <time>2017-03-18T11:28:44Z</time>
      </trkpt>
      <trkpt lat="38.085383" lon="-1.764321">
        <ele>575.458</ele>
        <time>2017-03-18T11:28:47Z</time>
      </trkpt>
      <trkpt lat="38.085398" lon="-1.764160">
        <ele>575.976</ele>
        <time>2017-03-18T11:28:50Z</time>
      </trkpt>
      <trkpt lat="38.085407" lon="-1.763996">
        <ele>577.910</ele>
        <time>2017-03-18T11:28:53Z</time>
      </trkpt>
      <trkpt lat="38.085419" lon="-1.763831">
        <ele>578.846</ele>
        <time>2017-03-18T11:28:56Z</time>
      </trkpt>
      <trkpt lat="38.085434" lon="-1.763665">
        <ele>578.986</ele>
        <time>2017-03-18T11:28:59Z</time>
      </trkpt>
      <trkpt lat="38.085439" lon="-1.763498">
        <ele>579.386</ele>
        <time>2017-03-18T11:29:02Z</time>
      </trkpt>
      <trkpt lat="38.085448" lon="-1.763384">
        <ele>579.860</ele>
        <time>2017-03-18T11:29:04Z</time>
      </trkpt>
      <trkpt lat="38.085452" lon="-1.763267">
        <ele>579.926</ele>
        <time>2017-03-18T11:29:06Z</time>
      </trkpt>
      <trkpt lat="38.085463" lon="-1.763043">
        <ele>582.308</ele>
        <time>2017-03-18T11:29:09Z</time>
      </trkpt>
      <trkpt lat="38.085468" lon="-1.762926">
        <ele>582.579</ele>
        <time>2017-03-18T11:29:11Z</time>
      </trkpt>
      <trkpt lat="38.085479" lon="-1.762757">
        <ele>582.544</ele>
        <time>2017-03-18T11:29:14Z</time>
      </trkpt>
      <trkpt lat="38.085484" lon="-1.762587">
        <ele>583.166</ele>
        <time>2017-03-18T11:29:17Z</time>
      </trkpt>
      <trkpt lat="38.085493" lon="-1.762467">
        <ele>583.421</ele>
        <time>2017-03-18T11:29:19Z</time>
      </trkpt>
      <trkpt lat="38.085495" lon="-1.762350">
        <ele>583.119</ele>
        <time>2017-03-18T11:29:21Z</time>
      </trkpt>
      <trkpt lat="38.085506" lon="-1.762230">
        <ele>582.483</ele>
        <time>2017-03-18T11:29:23Z</time>
      </trkpt>
      <trkpt lat="38.085517" lon="-1.762111">
        <ele>581.789</ele>
        <time>2017-03-18T11:29:25Z</time>
      </trkpt>
      <trkpt lat="38.085526" lon="-1.761995">
        <ele>581.029</ele>
        <time>2017-03-18T11:29:27Z</time>
      </trkpt>
      <trkpt lat="38.085536" lon="-1.761824">
        <ele>579.531</ele>
        <time>2017-03-18T11:29:30Z</time>
      </trkpt>
      <trkpt lat="38.085548" lon="-1.761656">
        <ele>579.261</ele>
        <time>2017-03-18T11:29:33Z</time>
      </trkpt>
      <trkpt lat="38.085559" lon="-1.761541">
        <ele>579.107</ele>
        <time>2017-03-18T11:29:35Z</time>
      </trkpt>
      <trkpt lat="38.085568" lon="-1.761373">
        <ele>578.508</ele>
        <time>2017-03-18T11:29:38Z</time>
      </trkpt>
      <trkpt lat="38.085573" lon="-1.761255">
        <ele>577.454</ele>
        <time>2017-03-18T11:29:40Z</time>
      </trkpt>
      <trkpt lat="38.085579" lon="-1.761140">
        <ele>576.699</ele>
        <time>2017-03-18T11:29:42Z</time>
      </trkpt>
      <trkpt lat="38.085586" lon="-1.761018">
        <ele>576.121</ele>
        <time>2017-03-18T11:29:45Z</time>
      </trkpt>
      <trkpt lat="38.085592" lon="-1.760896">
        <ele>575.676</ele>
        <time>2017-03-18T11:29:47Z</time>
      </trkpt>
      <trkpt lat="38.085593" lon="-1.760778">
        <ele>575.664</ele>
        <time>2017-03-18T11:29:49Z</time>
      </trkpt>
      <trkpt lat="38.085597" lon="-1.760655">
        <ele>575.788</ele>
        <time>2017-03-18T11:29:51Z</time>
      </trkpt>
      <trkpt lat="38.085601" lon="-1.760530">
        <ele>575.894</ele>
        <time>2017-03-18T11:29:53Z</time>
      </trkpt>
      <trkpt lat="38.085605" lon="-1.760409">
        <ele>575.914</ele>
        <time>2017-03-18T11:29:55Z</time>
      </trkpt>
      <trkpt lat="38.085607" lon="-1.760291">
        <ele>575.941</ele>
        <time>2017-03-18T11:29:57Z</time>
      </trkpt>
      <trkpt lat="38.085610" lon="-1.760124">
        <ele>577.481</ele>
        <time>2017-03-18T11:30:00Z</time>
      </trkpt>
      <trkpt lat="38.085618" lon="-1.759964">
        <ele>579.809</ele>
        <time>2017-03-18T11:30:03Z</time>
      </trkpt>
      <trkpt lat="38.085624" lon="-1.759809">
        <ele>580.708</ele>
        <time>2017-03-18T11:30:06Z</time>
      </trkpt>
      <trkpt lat="38.085635" lon="-1.759640">
        <ele>581.425</ele>
        <time>2017-03-18T11:30:09Z</time>
      </trkpt>
      <trkpt lat="38.085645" lon="-1.759473">
        <ele>582.630</ele>
        <time>2017-03-18T11:30:12Z</time>
      </trkpt>
      <trkpt lat="38.085647" lon="-1.759309">
        <ele>583.712</ele>
        <time>2017-03-18T11:30:15Z</time>
      </trkpt>
      <trkpt lat="38.085660" lon="-1.759144">
        <ele>584.867</ele>
        <time>2017-03-18T11:30:18Z</time>
      </trkpt>
      <trkpt lat="38.085668" lon="-1.758980">
        <ele>585.215</ele>
        <time>2017-03-18T11:30:21Z</time>
      </trkpt>
      <trkpt lat="38.085677" lon="-1.758814">
        <ele>585.049</ele>
        <time>2017-03-18T11:30:24Z</time>
      </trkpt>
      <trkpt lat="38.085685" lon="-1.758699">
        <ele>584.725</ele>
        <time>2017-03-18T11:30:26Z</time>
      </trkpt>
      <trkpt lat="38.085686" lon="-1.758581">
        <ele>583.925</ele>
        <time>2017-03-18T11:30:28Z</time>
      </trkpt>
      <trkpt lat="38.085693" lon="-1.758466">
        <ele>582.912</ele>
        <time>2017-03-18T11:30:30Z</time>
      </trkpt>
      <trkpt lat="38.085696" lon="-1.758348">
        <ele>582.432</ele>
        <time>2017-03-18T11:30:32Z</time>
      </trkpt>
      <trkpt lat="38.085703" lon="-1.758135">
        <ele>582.705</ele>
        <time>2017-03-18T11:30:35Z</time>
      </trkpt>
      <trkpt lat="38.085709" lon="-1.757966">
        <ele>582.708</ele>
        <time>2017-03-18T11:30:38Z</time>
      </trkpt>
      <trkpt lat="38.085711" lon="-1.757852">
        <ele>582.712</ele>
        <time>2017-03-18T11:30:40Z</time>
      </trkpt>
      <trkpt lat="38.085713" lon="-1.757735">
        <ele>582.837</ele>
        <time>2017-03-18T11:30:42Z</time>
      </trkpt>
      <trkpt lat="38.085707" lon="-1.757565">
        <ele>583.189</ele>
        <time>2017-03-18T11:30:45Z</time>
      </trkpt>
      <trkpt lat="38.085703" lon="-1.757449">
        <ele>583.244</ele>
        <time>2017-03-18T11:30:47Z</time>
      </trkpt>
      <trkpt lat="38.085694" lon="-1.757335">
        <ele>584.322</ele>
        <time>2017-03-18T11:30:49Z</time>
      </trkpt>
      <trkpt lat="38.085684" lon="-1.757221">
        <ele>584.476</ele>
        <time>2017-03-18T11:30:51Z</time>
      </trkpt>
      <trkpt lat="38.085677" lon="-1.757106">
        <ele>584.412</ele>
        <time>2017-03-18T11:30:53Z</time>
      </trkpt>
      <trkpt lat="38.085666" lon="-1.756991">
        <ele>584.812</ele>
        <time>2017-03-18T11:30:55Z</time>
      </trkpt>
      <trkpt lat="38.085641" lon="-1.756820">
        <ele>585.238</ele>
        <time>2017-03-18T11:30:58Z</time>
      </trkpt>
      <trkpt lat="38.085622" lon="-1.756702">
        <ele>584.370</ele>
        <time>2017-03-18T11:31:01Z</time>
      </trkpt>
      <trkpt lat="38.085596" lon="-1.756590">
        <ele>583.517</ele>
        <time>2017-03-18T11:31:03Z</time>
      </trkpt>
      <trkpt lat="38.085574" lon="-1.756479">
        <ele>582.808</ele>
        <time>2017-03-18T11:31:05Z</time>
      </trkpt>
      <trkpt lat="38.085544" lon="-1.756371">
        <ele>583.414</ele>
        <time>2017-03-18T11:31:07Z</time>
      </trkpt>
      <trkpt lat="38.085514" lon="-1.756260">
        <ele>583.539</ele>
        <time>2017-03-18T11:31:09Z</time>
      </trkpt>
      <trkpt lat="38.085461" lon="-1.756107">
        <ele>584.921</ele>
        <time>2017-03-18T11:31:12Z</time>
      </trkpt>
      <trkpt lat="38.085425" lon="-1.756001">
        <ele>585.276</ele>
        <time>2017-03-18T11:31:14Z</time>
      </trkpt>
      <trkpt lat="38.085360" lon="-1.755849">
        <ele>585.744</ele>
        <time>2017-03-18T11:31:17Z</time>
      </trkpt>
      <trkpt lat="38.085298" lon="-1.755704">
        <ele>586.468</ele>
        <time>2017-03-18T11:31:20Z</time>
      </trkpt>
      <trkpt lat="38.085229" lon="-1.755562">
        <ele>586.894</ele>
        <time>2017-03-18T11:31:23Z</time>
      </trkpt>
      <trkpt lat="38.085156" lon="-1.755431">
        <ele>587.374</ele>
        <time>2017-03-18T11:31:26Z</time>
      </trkpt>
      <trkpt lat="38.085073" lon="-1.755311">
        <ele>588.014</ele>
        <time>2017-03-18T11:31:29Z</time>
      </trkpt>
      <trkpt lat="38.084982" lon="-1.755187">
        <ele>589.154</ele>
        <time>2017-03-18T11:31:32Z</time>
      </trkpt>
      <trkpt lat="38.084914" lon="-1.755103">
        <ele>590.309</ele>
        <time>2017-03-18T11:31:34Z</time>
      </trkpt>
      <trkpt lat="38.084838" lon="-1.755021">
        <ele>590.808</ele>
        <time>2017-03-18T11:31:36Z</time>
      </trkpt>
      <trkpt lat="38.084765" lon="-1.754940">
        <ele>591.092</ele>
        <time>2017-03-18T11:31:38Z</time>
      </trkpt>
      <trkpt lat="38.084693" lon="-1.754860">
        <ele>591.497</ele>
        <time>2017-03-18T11:31:40Z</time>
      </trkpt>
      <trkpt lat="38.084616" lon="-1.754789">
        <ele>592.339</ele>
        <time>2017-03-18T11:31:42Z</time>
      </trkpt>
      <trkpt lat="38.084505" lon="-1.754690">
        <ele>592.544</ele>
        <time>2017-03-18T11:31:45Z</time>
      </trkpt>
      <trkpt lat="38.084424" lon="-1.754628">
        <ele>592.352</ele>
        <time>2017-03-18T11:31:47Z</time>
      </trkpt>
      <trkpt lat="38.084344" lon="-1.754566">
        <ele>590.746</ele>
        <time>2017-03-18T11:31:49Z</time>
      </trkpt>
      <trkpt lat="38.084224" lon="-1.754487">
        <ele>588.442</ele>
        <time>2017-03-18T11:31:52Z</time>
      </trkpt>
      <trkpt lat="38.084138" lon="-1.754436">
        <ele>587.282</ele>
        <time>2017-03-18T11:31:54Z</time>
      </trkpt>
      <trkpt lat="38.084052" lon="-1.754391">
        <ele>586.289</ele>
        <time>2017-03-18T11:31:56Z</time>
      </trkpt>
      <trkpt lat="38.083936" lon="-1.754334">
        <ele>585.306</ele>
        <time>2017-03-18T11:31:59Z</time>
      </trkpt>
      <trkpt lat="38.083778" lon="-1.754264">
        <ele>584.426</ele>
        <time>2017-03-18T11:32:02Z</time>
      </trkpt>
      <trkpt lat="38.083648" lon="-1.754207">
        <ele>584.708</ele>
        <time>2017-03-18T11:32:05Z</time>
      </trkpt>
      <trkpt lat="38.083555" lon="-1.754172">
        <ele>584.729</ele>
        <time>2017-03-18T11:32:07Z</time>
      </trkpt>
      <trkpt lat="38.083461" lon="-1.754136">
        <ele>584.384</ele>
        <time>2017-03-18T11:32:09Z</time>
      </trkpt>
      <trkpt lat="38.083367" lon="-1.754091">
        <ele>585.876</ele>
        <time>2017-03-18T11:32:11Z</time>
      </trkpt>
      <trkpt lat="38.083280" lon="-1.754058">
        <ele>587.421</ele>
        <time>2017-03-18T11:32:13Z</time>
      </trkpt>
      <trkpt lat="38.083164" lon="-1.754001">
        <ele>588.419</ele>
        <time>2017-03-18T11:32:16Z</time>
      </trkpt>
      <trkpt lat="38.083077" lon="-1.753968">
        <ele>587.823</ele>
        <time>2017-03-18T11:32:18Z</time>
      </trkpt>
      <trkpt lat="38.082956" lon="-1.753914">
        <ele>587.429</ele>
        <time>2017-03-18T11:32:21Z</time>
      </trkpt>
      <trkpt lat="38.082830" lon="-1.753862">
        <ele>584.899</ele>
        <time>2017-03-18T11:32:24Z</time>
      </trkpt>
      <trkpt lat="38.082744" lon="-1.753823">
        <ele>583.634</ele>
        <time>2017-03-18T11:32:26Z</time>
      </trkpt>
      <trkpt lat="38.082626" lon="-1.753769">
        <ele>581.455</ele>
        <time>2017-03-18T11:32:29Z</time>
      </trkpt>
      <trkpt lat="38.082537" lon="-1.753735">
        <ele>581.110</ele>
        <time>2017-03-18T11:32:31Z</time>
      </trkpt>
      <trkpt lat="38.082449" lon="-1.753695">
        <ele>581.508</ele>
        <time>2017-03-18T11:32:33Z</time>
      </trkpt>
      <trkpt lat="38.082357" lon="-1.753660">
        <ele>582.174</ele>
        <time>2017-03-18T11:32:36Z</time>
      </trkpt>
      <trkpt lat="38.082269" lon="-1.753626">
        <ele>581.749</ele>
        <time>2017-03-18T11:32:38Z</time>
      </trkpt>
      <trkpt lat="38.082177" lon="-1.753587">
        <ele>581.371</ele>
        <time>2017-03-18T11:32:40Z</time>
      </trkpt>
      <trkpt lat="38.082088" lon="-1.753552">
        <ele>581.266</ele>
        <time>2017-03-18T11:32:42Z</time>
      </trkpt>
      <trkpt lat="38.082001" lon="-1.753518">
        <ele>580.634</ele>
        <time>2017-03-18T11:32:44Z</time>
      </trkpt>
      <trkpt lat="38.081915" lon="-1.753482">
        <ele>579.648</ele>
        <time>2017-03-18T11:32:46Z</time>
      </trkpt>
      <trkpt lat="38.081829" lon="-1.753447">
        <ele>578.974</ele>
        <time>2017-03-18T11:32:48Z</time>
      </trkpt>
      <trkpt lat="38.081733" lon="-1.753409">
        <ele>578.374</ele>
        <time>2017-03-18T11:32:50Z</time>
      </trkpt>
      <trkpt lat="38.081639" lon="-1.753373">
        <ele>578.195</ele>
        <time>2017-03-18T11:32:52Z</time>
      </trkpt>
      <trkpt lat="38.081513" lon="-1.753325">
        <ele>577.149</ele>
        <time>2017-03-18T11:32:55Z</time>
      </trkpt>
      <trkpt lat="38.081418" lon="-1.753298">
        <ele>576.623</ele>
        <time>2017-03-18T11:32:57Z</time>
      </trkpt>
      <trkpt lat="38.081326" lon="-1.753257">
        <ele>576.208</ele>
        <time>2017-03-18T11:32:59Z</time>
      </trkpt>
      <trkpt lat="38.081204" lon="-1.753201">
        <ele>576.830</ele>
        <time>2017-03-18T11:33:02Z</time>
      </trkpt>
      <trkpt lat="38.081084" lon="-1.753147">
        <ele>576.945</ele>
        <time>2017-03-18T11:33:05Z</time>
      </trkpt>
      <trkpt lat="38.080996" lon="-1.753118">
        <ele>577.437</ele>
        <time>2017-03-18T11:33:07Z</time>
      </trkpt>
      <trkpt lat="38.080904" lon="-1.753088">
        <ele>577.522</ele>
        <time>2017-03-18T11:33:09Z</time>
      </trkpt>
      <trkpt lat="38.080806" lon="-1.753049">
        <ele>576.810</ele>
        <time>2017-03-18T11:33:11Z</time>
      </trkpt>
      <trkpt lat="38.080673" lon="-1.753005">
        <ele>576.944</ele>
        <time>2017-03-18T11:33:14Z</time>
      </trkpt>
      <trkpt lat="38.080583" lon="-1.752973">
        <ele>576.420</ele>
        <time>2017-03-18T11:33:16Z</time>
      </trkpt>
      <trkpt lat="38.080461" lon="-1.752935">
        <ele>574.210</ele>
        <time>2017-03-18T11:33:19Z</time>
      </trkpt>
      <trkpt lat="38.080340" lon="-1.752878">
        <ele>573.675</ele>
        <time>2017-03-18T11:33:22Z</time>
      </trkpt>
      <trkpt lat="38.080219" lon="-1.752833">
        <ele>575.428</ele>
        <time>2017-03-18T11:33:25Z</time>
      </trkpt>
      <trkpt lat="38.080050" lon="-1.752762">
        <ele>577.420</ele>
        <time>2017-03-18T11:33:28Z</time>
      </trkpt>
      <trkpt lat="38.079922" lon="-1.752711">
        <ele>578.008</ele>
        <time>2017-03-18T11:33:31Z</time>
      </trkpt>
      <trkpt lat="38.079837" lon="-1.752673">
        <ele>578.568</ele>
        <time>2017-03-18T11:33:33Z</time>
      </trkpt>
      <trkpt lat="38.079747" lon="-1.752630">
        <ele>578.973</ele>
        <time>2017-03-18T11:33:35Z</time>
      </trkpt>
      <trkpt lat="38.079650" lon="-1.752578">
        <ele>578.645</ele>
        <time>2017-03-18T11:33:37Z</time>
      </trkpt>
      <trkpt lat="38.079565" lon="-1.752532">
        <ele>577.130</ele>
        <time>2017-03-18T11:33:39Z</time>
      </trkpt>
      <trkpt lat="38.079468" lon="-1.752501">
        <ele>576.478</ele>
        <time>2017-03-18T11:33:41Z</time>
      </trkpt>
      <trkpt lat="38.079375" lon="-1.752448">
        <ele>578.392</ele>
        <time>2017-03-18T11:33:43Z</time>
      </trkpt>
      <trkpt lat="38.079297" lon="-1.752390">
        <ele>580.548</ele>
        <time>2017-03-18T11:33:46Z</time>
      </trkpt>
      <trkpt lat="38.079179" lon="-1.752313">
        <ele>583.428</ele>
        <time>2017-03-18T11:33:49Z</time>
      </trkpt>
      <trkpt lat="38.079067" lon="-1.752232">
        <ele>585.853</ele>
        <time>2017-03-18T11:33:52Z</time>
      </trkpt>
      <trkpt lat="38.078988" lon="-1.752177">
        <ele>586.704</ele>
        <time>2017-03-18T11:33:54Z</time>
      </trkpt>
      <trkpt lat="38.078909" lon="-1.752117">
        <ele>586.714</ele>
        <time>2017-03-18T11:33:56Z</time>
      </trkpt>
      <trkpt lat="38.078828" lon="-1.752060">
        <ele>587.708</ele>
        <time>2017-03-18T11:33:58Z</time>
      </trkpt>
      <trkpt lat="38.078746" lon="-1.752000">
        <ele>588.116</ele>
        <time>2017-03-18T11:34:00Z</time>
      </trkpt>
      <trkpt lat="38.078644" lon="-1.751898">
        <ele>587.741</ele>
        <time>2017-03-18T11:34:03Z</time>
      </trkpt>
      <trkpt lat="38.078576" lon="-1.751822">
        <ele>587.283</ele>
        <time>2017-03-18T11:34:05Z</time>
      </trkpt>
      <trkpt lat="38.078470" lon="-1.751725">
        <ele>587.948</ele>
        <time>2017-03-18T11:34:08Z</time>
      </trkpt>
      <trkpt lat="38.078370" lon="-1.751623">
        <ele>588.016</ele>
        <time>2017-03-18T11:34:11Z</time>
      </trkpt>
      <trkpt lat="38.078302" lon="-1.751540">
        <ele>588.670</ele>
        <time>2017-03-18T11:34:13Z</time>
      </trkpt>
      <trkpt lat="38.078226" lon="-1.751449">
        <ele>588.966</ele>
        <time>2017-03-18T11:34:15Z</time>
      </trkpt>
      <trkpt lat="38.078158" lon="-1.751361">
        <ele>589.866</ele>
        <time>2017-03-18T11:34:17Z</time>
      </trkpt>
      <trkpt lat="38.078092" lon="-1.751276">
        <ele>590.523</ele>
        <time>2017-03-18T11:34:19Z</time>
      </trkpt>
      <trkpt lat="38.078033" lon="-1.751184">
        <ele>591.083</ele>
        <time>2017-03-18T11:34:21Z</time>
      </trkpt>
      <trkpt lat="38.077946" lon="-1.751061">
        <ele>591.911</ele>
        <time>2017-03-18T11:34:24Z</time>
      </trkpt>
      <trkpt lat="38.077873" lon="-1.750985">
        <ele>591.908</ele>
        <time>2017-03-18T11:34:26Z</time>
      </trkpt>
      <trkpt lat="38.077778" lon="-1.750874">
        <ele>592.033</ele>
        <time>2017-03-18T11:34:29Z</time>
      </trkpt>
      <trkpt lat="38.077690" lon="-1.750756">
        <ele>592.978</ele>
        <time>2017-03-18T11:34:32Z</time>
      </trkpt>
      <trkpt lat="38.077600" lon="-1.750638">
        <ele>594.570</ele>
        <time>2017-03-18T11:34:35Z</time>
      </trkpt>
      <trkpt lat="38.077530" lon="-1.750546">
        <ele>594.965</ele>
        <time>2017-03-18T11:34:37Z</time>
      </trkpt>
      <trkpt lat="38.077432" lon="-1.750429">
        <ele>598.473</ele>
        <time>2017-03-18T11:34:39Z</time>
      </trkpt>
      <trkpt lat="38.077363" lon="-1.750351">
        <ele>600.867</ele>
        <time>2017-03-18T11:34:41Z</time>
      </trkpt>
      <trkpt lat="38.077261" lon="-1.750246">
        <ele>602.633</ele>
        <time>2017-03-18T11:34:44Z</time>
      </trkpt>
      <trkpt lat="38.077194" lon="-1.750163">
        <ele>603.523</ele>
        <time>2017-03-18T11:34:46Z</time>
      </trkpt>
      <trkpt lat="38.077100" lon="-1.750044">
        <ele>604.164</ele>
        <time>2017-03-18T11:34:49Z</time>
      </trkpt>
      <trkpt lat="38.077006" lon="-1.749928">
        <ele>603.706</ele>
        <time>2017-03-18T11:34:52Z</time>
      </trkpt>
      <trkpt lat="38.076921" lon="-1.749821">
        <ele>603.916</ele>
        <time>2017-03-18T11:34:55Z</time>
      </trkpt>
      <trkpt lat="38.076833" lon="-1.749718">
        <ele>603.308</ele>
        <time>2017-03-18T11:34:58Z</time>
      </trkpt>
      <trkpt lat="38.076745" lon="-1.749607">
        <ele>601.017</ele>
        <time>2017-03-18T11:35:01Z</time>
      </trkpt>
      <trkpt lat="38.076647" lon="-1.749475">
        <ele>598.932</ele>
        <time>2017-03-18T11:35:04Z</time>
      </trkpt>
      <trkpt lat="38.076563" lon="-1.749368">
        <ele>597.514</ele>
        <time>2017-03-18T11:35:07Z</time>
      </trkpt>
      <trkpt lat="38.076474" lon="-1.749265">
        <ele>594.529</ele>
        <time>2017-03-18T11:35:10Z</time>
      </trkpt>
      <trkpt lat="38.076394" lon="-1.749155">
        <ele>591.597</ele>
        <time>2017-03-18T11:35:14Z</time>
      </trkpt>
      <trkpt lat="38.076319" lon="-1.749049">
        <ele>590.271</ele>
        <time>2017-03-18T11:35:17Z</time>
      </trkpt>
      <trkpt lat="38.076245" lon="-1.748956">
        <ele>590.477</ele>
        <time>2017-03-18T11:35:20Z</time>
      </trkpt>
      <trkpt lat="38.076136" lon="-1.748880">
        <ele>593.077</ele>
        <time>2017-03-18T11:35:23Z</time>
      </trkpt>
      <trkpt lat="38.076062" lon="-1.748779">
        <ele>595.658</ele>
        <time>2017-03-18T11:35:26Z</time>
      </trkpt>
      <trkpt lat="38.075985" lon="-1.748679">
        <ele>595.952</ele>
        <time>2017-03-18T11:35:29Z</time>
      </trkpt>
      <trkpt lat="38.075904" lon="-1.748567">
        <ele>596.817</ele>
        <time>2017-03-18T11:35:32Z</time>
      </trkpt>
      <trkpt lat="38.075841" lon="-1.748472">
        <ele>597.008</ele>
        <time>2017-03-18T11:35:35Z</time>
      </trkpt>
      <trkpt lat="38.075770" lon="-1.748375">
        <ele>598.076</ele>
        <time>2017-03-18T11:35:38Z</time>
      </trkpt>
      <trkpt lat="38.075700" lon="-1.748280">
        <ele>598.281</ele>
        <time>2017-03-18T11:35:41Z</time>
      </trkpt>
      <trkpt lat="38.075617" lon="-1.748185">
        <ele>600.913</ele>
        <time>2017-03-18T11:35:44Z</time>
      </trkpt>
      <trkpt lat="38.075540" lon="-1.748092">
        <ele>602.668</ele>
        <time>2017-03-18T11:35:47Z</time>
      </trkpt>
      <trkpt lat="38.075439" lon="-1.748007">
        <ele>603.766</ele>
        <time>2017-03-18T11:35:50Z</time>
      </trkpt>
      <trkpt lat="38.075366" lon="-1.747938">
        <ele>603.270</ele>
        <time>2017-03-18T11:35:52Z</time>
      </trkpt>
      <trkpt lat="38.075258" lon="-1.747845">
        <ele>601.056</ele>
        <time>2017-03-18T11:35:55Z</time>
      </trkpt>
      <trkpt lat="38.075164" lon="-1.747749">
        <ele>599.276</ele>
        <time>2017-03-18T11:35:58Z</time>
      </trkpt>
      <trkpt lat="38.075052" lon="-1.747627">
        <ele>599.762</ele>
        <time>2017-03-18T11:36:01Z</time>
      </trkpt>
      <trkpt lat="38.074943" lon="-1.747528">
        <ele>598.883</ele>
        <time>2017-03-18T11:36:04Z</time>
      </trkpt>
      <trkpt lat="38.074850" lon="-1.747435">
        <ele>597.711</ele>
        <time>2017-03-18T11:36:07Z</time>
      </trkpt>
      <trkpt lat="38.074766" lon="-1.747351">
        <ele>597.908</ele>
        <time>2017-03-18T11:36:10Z</time>
      </trkpt>
      <trkpt lat="38.074677" lon="-1.747258">
        <ele>598.837</ele>
        <time>2017-03-18T11:36:13Z</time>
      </trkpt>
      <trkpt lat="38.074580" lon="-1.747165">
        <ele>599.782</ele>
        <time>2017-03-18T11:36:16Z</time>
      </trkpt>
      <trkpt lat="38.074486" lon="-1.747069">
        <ele>600.094</ele>
        <time>2017-03-18T11:36:20Z</time>
      </trkpt>
      <trkpt lat="38.074389" lon="-1.746989">
        <ele>600.269</ele>
        <time>2017-03-18T11:36:23Z</time>
      </trkpt>
      <trkpt lat="38.074288" lon="-1.746901">
        <ele>602.837</ele>
        <time>2017-03-18T11:36:26Z</time>
      </trkpt>
      <trkpt lat="38.074197" lon="-1.746810">
        <ele>606.161</ele>
        <time>2017-03-18T11:36:29Z</time>
      </trkpt>
      <trkpt lat="38.074109" lon="-1.746717">
        <ele>608.317</ele>
        <time>2017-03-18T11:36:32Z</time>
      </trkpt>
      <trkpt lat="38.074029" lon="-1.746630">
        <ele>608.747</ele>
        <time>2017-03-18T11:36:35Z</time>
      </trkpt>
      <trkpt lat="38.073952" lon="-1.746551">
        <ele>608.654</ele>
        <time>2017-03-18T11:36:38Z</time>
      </trkpt>
      <trkpt lat="38.073871" lon="-1.746461">
        <ele>608.456</ele>
        <time>2017-03-18T11:36:41Z</time>
      </trkpt>
      <trkpt lat="38.073788" lon="-1.746373">
        <ele>608.211</ele>
        <time>2017-03-18T11:36:44Z</time>
      </trkpt>
      <trkpt lat="38.073703" lon="-1.746289">
        <ele>607.808</ele>
        <time>2017-03-18T11:36:47Z</time>
      </trkpt>
      <trkpt lat="38.073611" lon="-1.746190">
        <ele>607.696</ele>
        <time>2017-03-18T11:36:50Z</time>
      </trkpt>
      <trkpt lat="38.073517" lon="-1.746092">
        <ele>605.911</ele>
        <time>2017-03-18T11:36:53Z</time>
      </trkpt>
      <trkpt lat="38.073431" lon="-1.745989">
        <ele>604.393</ele>
        <time>2017-03-18T11:36:56Z</time>
      </trkpt>
      <trkpt lat="38.073355" lon="-1.745875">
        <ele>602.948</ele>
        <time>2017-03-18T11:36:59Z</time>
      </trkpt>
      <trkpt lat="38.073277" lon="-1.745763">
        <ele>600.626</ele>
        <time>2017-03-18T11:37:02Z</time>
      </trkpt>
      <trkpt lat="38.073174" lon="-1.745608">
        <ele>601.860</ele>
        <time>2017-03-18T11:37:05Z</time>
      </trkpt>
      <trkpt lat="38.073096" lon="-1.745483">
        <ele>602.896</ele>
        <time>2017-03-18T11:37:08Z</time>
      </trkpt>
      <trkpt lat="38.073018" lon="-1.745357">
        <ele>603.536</ele>
        <time>2017-03-18T11:37:11Z</time>
      </trkpt>
      <trkpt lat="38.072950" lon="-1.745231">
        <ele>606.529</ele>
        <time>2017-03-18T11:37:14Z</time>
      </trkpt>
      <trkpt lat="38.072884" lon="-1.745108">
        <ele>608.400</ele>
        <time>2017-03-18T11:37:17Z</time>
      </trkpt>
      <trkpt lat="38.072815" lon="-1.744984">
        <ele>609.520</ele>
        <time>2017-03-18T11:37:20Z</time>
      </trkpt>
      <trkpt lat="38.072746" lon="-1.744863">
        <ele>609.808</ele>
        <time>2017-03-18T11:37:23Z</time>
      </trkpt>
      <trkpt lat="38.072685" lon="-1.744749">
        <ele>609.623</ele>
        <time>2017-03-18T11:37:26Z</time>
      </trkpt>
      <trkpt lat="38.072627" lon="-1.744641">
        <ele>609.838</ele>
        <time>2017-03-18T11:37:29Z</time>
      </trkpt>
      <trkpt lat="38.072565" lon="-1.744520">
        <ele>610.050</ele>
        <time>2017-03-18T11:37:33Z</time>
      </trkpt>
      <trkpt lat="38.072508" lon="-1.744426">
        <ele>609.975</ele>
        <time>2017-03-18T11:37:36Z</time>
      </trkpt>
      <trkpt lat="38.072446" lon="-1.744316">
        <ele>609.783</ele>
        <time>2017-03-18T11:37:40Z</time>
      </trkpt>
      <trkpt lat="38.072387" lon="-1.744204">
        <ele>609.797</ele>
        <time>2017-03-18T11:37:43Z</time>
      </trkpt>
      <trkpt lat="38.072323" lon="-1.744090">
        <ele>609.893</ele>
        <time>2017-03-18T11:37:47Z</time>
      </trkpt>
      <trkpt lat="38.072269" lon="-1.743987">
        <ele>610.093</ele>
        <time>2017-03-18T11:37:51Z</time>
      </trkpt>
      <trkpt lat="38.072212" lon="-1.743865">
        <ele>610.249</ele>
        <time>2017-03-18T11:37:55Z</time>
      </trkpt>
      <trkpt lat="38.072149" lon="-1.743756">
        <ele>610.202</ele>
        <time>2017-03-18T11:37:59Z</time>
      </trkpt>
      <trkpt lat="38.072099" lon="-1.743658">
        <ele>610.122</ele>
        <time>2017-03-18T11:38:02Z</time>
      </trkpt>
      <trkpt lat="38.072032" lon="-1.743542">
        <ele>610.208</ele>
        <time>2017-03-18T11:38:05Z</time>
      </trkpt>
      <trkpt lat="38.071961" lon="-1.743436">
        <ele>610.425</ele>
        <time>2017-03-18T11:38:09Z</time>
      </trkpt>
      <trkpt lat="38.071909" lon="-1.743343">
        <ele>610.970</ele>
        <time>2017-03-18T11:38:15Z</time>
      </trkpt>
      <trkpt lat="38.071835" lon="-1.743234">
        <ele>621.862</ele>
        <time>2017-03-18T11:43:25Z</time>
      </trkpt>
      <trkpt lat="38.071766" lon="-1.743111">
        <ele>621.217</ele>
        <time>2017-03-18T11:43:29Z</time>
      </trkpt>
      <trkpt lat="38.071697" lon="-1.742961">
        <ele>621.075</ele>
        <time>2017-03-18T11:43:32Z</time>
      </trkpt>
      <trkpt lat="38.071640" lon="-1.742852">
        <ele>620.759</ele>
        <time>2017-03-18T11:43:35Z</time>
      </trkpt>
      <trkpt lat="38.071584" lon="-1.742726">
        <ele>619.135</ele>
        <time>2017-03-18T11:43:38Z</time>
      </trkpt>
      <trkpt lat="38.071535" lon="-1.742593">
        <ele>617.585</ele>
        <time>2017-03-18T11:43:41Z</time>
      </trkpt>
      <trkpt lat="38.071478" lon="-1.742451">
        <ele>617.173</ele>
        <time>2017-03-18T11:43:44Z</time>
      </trkpt>
      <trkpt lat="38.071426" lon="-1.742318">
        <ele>616.085</ele>
        <time>2017-03-18T11:43:47Z</time>
      </trkpt>
      <trkpt lat="38.071387" lon="-1.742180">
        <ele>616.513</ele>
        <time>2017-03-18T11:43:50Z</time>
      </trkpt>
      <trkpt lat="38.071364" lon="-1.742041">
        <ele>615.508</ele>
        <time>2017-03-18T11:43:53Z</time>
      </trkpt>
      <trkpt lat="38.071337" lon="-1.741910">
        <ele>615.338</ele>
        <time>2017-03-18T11:43:56Z</time>
      </trkpt>
      <trkpt lat="38.071312" lon="-1.741775">
        <ele>615.343</ele>
        <time>2017-03-18T11:43:59Z</time>
      </trkpt>
      <trkpt lat="38.071286" lon="-1.741636">
        <ele>615.845</ele>
        <time>2017-03-18T11:44:02Z</time>
      </trkpt>
      <trkpt lat="38.071271" lon="-1.741501">
        <ele>616.450</ele>
        <time>2017-03-18T11:44:05Z</time>
      </trkpt>
      <trkpt lat="38.071258" lon="-1.741364">
        <ele>616.478</ele>
        <time>2017-03-18T11:44:08Z</time>
      </trkpt>
      <trkpt lat="38.071248" lon="-1.741228">
        <ele>616.182</ele>
        <time>2017-03-18T11:44:11Z</time>
      </trkpt>
      <trkpt lat="38.071250" lon="-1.741091">
        <ele>614.898</ele>
        <time>2017-03-18T11:44:15Z</time>
      </trkpt>
      <trkpt lat="38.071245" lon="-1.740975">
        <ele>614.088</ele>
        <time>2017-03-18T11:44:17Z</time>
      </trkpt>
      <trkpt lat="38.071252" lon="-1.740824">
        <ele>611.582</ele>
        <time>2017-03-18T11:44:20Z</time>
      </trkpt>
      <trkpt lat="38.071258" lon="-1.740670">
        <ele>610.243</ele>
        <time>2017-03-18T11:44:23Z</time>
      </trkpt>
      <trkpt lat="38.071267" lon="-1.740516">
        <ele>611.717</ele>
        <time>2017-03-18T11:44:26Z</time>
      </trkpt>
      <trkpt lat="38.071268" lon="-1.740377">
        <ele>612.008</ele>
        <time>2017-03-18T11:44:29Z</time>
      </trkpt>
      <trkpt lat="38.071277" lon="-1.740227">
        <ele>609.659</ele>
        <time>2017-03-18T11:44:32Z</time>
      </trkpt>
      <trkpt lat="38.071283" lon="-1.740064">
        <ele>610.634</ele>
        <time>2017-03-18T11:44:35Z</time>
      </trkpt>
      <trkpt lat="38.071298" lon="-1.739900">
        <ele>611.526</ele>
        <time>2017-03-18T11:44:37Z</time>
      </trkpt>
      <trkpt lat="38.071306" lon="-1.739768">
        <ele>612.371</ele>
        <time>2017-03-18T11:44:40Z</time>
      </trkpt>
      <trkpt lat="38.071317" lon="-1.739633">
        <ele>613.229</ele>
        <time>2017-03-18T11:44:43Z</time>
      </trkpt>
      <trkpt lat="38.071326" lon="-1.739473">
        <ele>613.373</ele>
        <time>2017-03-18T11:44:46Z</time>
      </trkpt>
      <trkpt lat="38.071332" lon="-1.739349">
        <ele>615.139</ele>
        <time>2017-03-18T11:44:48Z</time>
      </trkpt>
      <trkpt lat="38.071333" lon="-1.739185">
        <ele>618.529</ele>
        <time>2017-03-18T11:44:51Z</time>
      </trkpt>
      <trkpt lat="38.071342" lon="-1.739024">
        <ele>624.616</ele>
        <time>2017-03-18T11:44:54Z</time>
      </trkpt>
      <trkpt lat="38.071332" lon="-1.738892">
        <ele>627.476</ele>
        <time>2017-03-18T11:44:57Z</time>
      </trkpt>
      <trkpt lat="38.071336" lon="-1.738751">
        <ele>628.013</ele>
        <time>2017-03-18T11:44:59Z</time>
      </trkpt>
      <trkpt lat="38.071333" lon="-1.738620">
        <ele>628.408</ele>
        <time>2017-03-18T11:45:01Z</time>
      </trkpt>
      <trkpt lat="38.071339" lon="-1.738422">
        <ele>626.452</ele>
        <time>2017-03-18T11:45:04Z</time>
      </trkpt>
      <trkpt lat="38.071337" lon="-1.738302">
        <ele>625.087</ele>
        <time>2017-03-18T11:45:06Z</time>
      </trkpt>
      <trkpt lat="38.071356" lon="-1.738125">
        <ele>625.839</ele>
        <time>2017-03-18T11:45:09Z</time>
      </trkpt>
      <trkpt lat="38.071369" lon="-1.738011">
        <ele>625.824</ele>
        <time>2017-03-18T11:45:11Z</time>
      </trkpt>
      <trkpt lat="38.071378" lon="-1.737836">
        <ele>627.272</ele>
        <time>2017-03-18T11:45:14Z</time>
      </trkpt>
      <trkpt lat="38.071381" lon="-1.737715">
        <ele>626.686</ele>
        <time>2017-03-18T11:45:16Z</time>
      </trkpt>
      <trkpt lat="38.071389" lon="-1.737581">
        <ele>626.392</ele>
        <time>2017-03-18T11:45:18Z</time>
      </trkpt>
      <trkpt lat="38.071384" lon="-1.737460">
        <ele>625.812</ele>
        <time>2017-03-18T11:45:20Z</time>
      </trkpt>
      <trkpt lat="38.071385" lon="-1.737327">
        <ele>625.074</ele>
        <time>2017-03-18T11:45:22Z</time>
      </trkpt>
      <trkpt lat="38.071387" lon="-1.737199">
        <ele>624.356</ele>
        <time>2017-03-18T11:45:24Z</time>
      </trkpt>
      <trkpt lat="38.071387" lon="-1.737069">
        <ele>624.021</ele>
        <time>2017-03-18T11:45:26Z</time>
      </trkpt>
      <trkpt lat="38.071391" lon="-1.736940">
        <ele>623.808</ele>
        <time>2017-03-18T11:45:28Z</time>
      </trkpt>
      <trkpt lat="38.071389" lon="-1.736812">
        <ele>623.168</ele>
        <time>2017-03-18T11:45:30Z</time>
      </trkpt>
      <trkpt lat="38.071385" lon="-1.736685">
        <ele>623.573</ele>
        <time>2017-03-18T11:45:32Z</time>
      </trkpt>
      <trkpt lat="38.071383" lon="-1.736560">
        <ele>623.135</ele>
        <time>2017-03-18T11:45:34Z</time>
      </trkpt>
      <trkpt lat="38.071378" lon="-1.736434">
        <ele>622.050</ele>
        <time>2017-03-18T11:45:36Z</time>
      </trkpt>
      <trkpt lat="38.071375" lon="-1.736299">
        <ele>622.358</ele>
        <time>2017-03-18T11:45:38Z</time>
      </trkpt>
      <trkpt lat="38.071368" lon="-1.736180">
        <ele>623.712</ele>
        <time>2017-03-18T11:45:40Z</time>
      </trkpt>
      <trkpt lat="38.071355" lon="-1.736051">
        <ele>625.128</ele>
        <time>2017-03-18T11:45:42Z</time>
      </trkpt>
      <trkpt lat="38.071333" lon="-1.735911">
        <ele>625.688</ele>
        <time>2017-03-18T11:45:44Z</time>
      </trkpt>
      <trkpt lat="38.071309" lon="-1.735775">
        <ele>625.443</ele>
        <time>2017-03-18T11:45:46Z</time>
      </trkpt>
      <trkpt lat="38.071281" lon="-1.735645">
        <ele>624.264</ele>
        <time>2017-03-18T11:45:48Z</time>
      </trkpt>
      <trkpt lat="38.071251" lon="-1.735517">
        <ele>622.810</ele>
        <time>2017-03-18T11:45:51Z</time>
      </trkpt>
      <trkpt lat="38.071218" lon="-1.735380">
        <ele>621.908</ele>
        <time>2017-03-18T11:45:53Z</time>
      </trkpt>
      <trkpt lat="38.071180" lon="-1.735251">
        <ele>620.215</ele>
        <time>2017-03-18T11:45:55Z</time>
      </trkpt>
      <trkpt lat="38.071148" lon="-1.735121">
        <ele>618.750</ele>
        <time>2017-03-18T11:45:57Z</time>
      </trkpt>
      <trkpt lat="38.071115" lon="-1.734987">
        <ele>616.172</ele>
        <time>2017-03-18T11:45:59Z</time>
      </trkpt>
      <trkpt lat="38.071061" lon="-1.734837">
        <ele>614.297</ele>
        <time>2017-03-18T11:46:01Z</time>
      </trkpt>
      <trkpt lat="38.071021" lon="-1.734711">
        <ele>611.095</ele>
        <time>2017-03-18T11:46:02Z</time>
      </trkpt>
      <trkpt lat="38.070936" lon="-1.734502">
        <ele>610.789</ele>
        <time>2017-03-18T11:46:05Z</time>
      </trkpt>
      <trkpt lat="38.070884" lon="-1.734358">
        <ele>610.695</ele>
        <time>2017-03-18T11:46:07Z</time>
      </trkpt>
      <trkpt lat="38.070838" lon="-1.734211">
        <ele>611.665</ele>
        <time>2017-03-18T11:46:09Z</time>
      </trkpt>
      <trkpt lat="38.070808" lon="-1.734075">
        <ele>610.599</ele>
        <time>2017-03-18T11:46:11Z</time>
      </trkpt>
      <trkpt lat="38.070772" lon="-1.733943">
        <ele>610.507</ele>
        <time>2017-03-18T11:46:13Z</time>
      </trkpt>
      <trkpt lat="38.070733" lon="-1.733802">
        <ele>610.327</ele>
        <time>2017-03-18T11:46:15Z</time>
      </trkpt>
      <trkpt lat="38.070705" lon="-1.733651">
        <ele>610.708</ele>
        <time>2017-03-18T11:46:17Z</time>
      </trkpt>
      <trkpt lat="38.070673" lon="-1.733487">
        <ele>613.830</ele>
        <time>2017-03-18T11:46:19Z</time>
      </trkpt>
      <trkpt lat="38.070632" lon="-1.733326">
        <ele>615.975</ele>
        <time>2017-03-18T11:46:21Z</time>
      </trkpt>
      <trkpt lat="38.070587" lon="-1.733170">
        <ele>616.217</ele>
        <time>2017-03-18T11:46:23Z</time>
      </trkpt>
      <trkpt lat="38.070545" lon="-1.733036">
        <ele>616.012</ele>
        <time>2017-03-18T11:46:25Z</time>
      </trkpt>
      <trkpt lat="38.070508" lon="-1.732904">
        <ele>616.470</ele>
        <time>2017-03-18T11:46:27Z</time>
      </trkpt>
      <trkpt lat="38.070473" lon="-1.732765">
        <ele>616.924</ele>
        <time>2017-03-18T11:46:29Z</time>
      </trkpt>
      <trkpt lat="38.070444" lon="-1.732618">
        <ele>616.520</ele>
        <time>2017-03-18T11:46:31Z</time>
      </trkpt>
      <trkpt lat="38.070408" lon="-1.732474">
        <ele>615.690</ele>
        <time>2017-03-18T11:46:33Z</time>
      </trkpt>
      <trkpt lat="38.070376" lon="-1.732321">
        <ele>615.694</ele>
        <time>2017-03-18T11:46:35Z</time>
      </trkpt>
      <trkpt lat="38.070340" lon="-1.732186">
        <ele>613.757</ele>
        <time>2017-03-18T11:46:37Z</time>
      </trkpt>
      <trkpt lat="38.070302" lon="-1.732051">
        <ele>613.922</ele>
        <time>2017-03-18T11:46:39Z</time>
      </trkpt>
      <trkpt lat="38.070264" lon="-1.731927">
        <ele>612.408</ele>
        <time>2017-03-18T11:46:41Z</time>
      </trkpt>
      <trkpt lat="38.070200" lon="-1.731771">
        <ele>610.430</ele>
        <time>2017-03-18T11:46:44Z</time>
      </trkpt>
      <trkpt lat="38.070145" lon="-1.731655">
        <ele>609.755</ele>
        <time>2017-03-18T11:46:46Z</time>
      </trkpt>
      <trkpt lat="38.070093" lon="-1.731538">
        <ele>609.817</ele>
        <time>2017-03-18T11:46:48Z</time>
      </trkpt>
      <trkpt lat="38.070041" lon="-1.731440">
        <ele>608.412</ele>
        <time>2017-03-18T11:46:50Z</time>
      </trkpt>
      <trkpt lat="38.069958" lon="-1.731322">
        <ele>607.730</ele>
        <time>2017-03-18T11:46:53Z</time>
      </trkpt>
      <trkpt lat="38.069889" lon="-1.731241">
        <ele>608.954</ele>
        <time>2017-03-18T11:46:55Z</time>
      </trkpt>
      <trkpt lat="38.069829" lon="-1.731154">
        <ele>610.870</ele>
        <time>2017-03-18T11:46:57Z</time>
      </trkpt>
      <trkpt lat="38.069776" lon="-1.731009">
        <ele>611.120</ele>
        <time>2017-03-18T11:47:01Z</time>
      </trkpt>
      <trkpt lat="38.069729" lon="-1.730900">
        <ele>611.718</ele>
        <time>2017-03-18T11:47:03Z</time>
      </trkpt>
      <trkpt lat="38.069675" lon="-1.730794">
        <ele>611.698</ele>
        <time>2017-03-18T11:47:05Z</time>
      </trkpt>
      <trkpt lat="38.069616" lon="-1.730697">
        <ele>611.417</ele>
        <time>2017-03-18T11:47:07Z</time>
      </trkpt>
      <trkpt lat="38.069559" lon="-1.730600">
        <ele>610.808</ele>
        <time>2017-03-18T11:47:09Z</time>
      </trkpt>
      <trkpt lat="38.069500" lon="-1.730501">
        <ele>611.112</ele>
        <time>2017-03-18T11:47:11Z</time>
      </trkpt>
      <trkpt lat="38.069435" lon="-1.730397">
        <ele>611.747</ele>
        <time>2017-03-18T11:47:12Z</time>
      </trkpt>
      <trkpt lat="38.069376" lon="-1.730294">
        <ele>611.889</ele>
        <time>2017-03-18T11:47:14Z</time>
      </trkpt>
      <trkpt lat="38.069315" lon="-1.730191">
        <ele>612.214</ele>
        <time>2017-03-18T11:47:16Z</time>
      </trkpt>
      <trkpt lat="38.069249" lon="-1.730086">
        <ele>612.632</ele>
        <time>2017-03-18T11:47:18Z</time>
      </trkpt>
      <trkpt lat="38.069187" lon="-1.729975">
        <ele>611.956</ele>
        <time>2017-03-18T11:47:20Z</time>
      </trkpt>
      <trkpt lat="38.069129" lon="-1.729869">
        <ele>611.682</ele>
        <time>2017-03-18T11:47:22Z</time>
      </trkpt>
      <trkpt lat="38.069077" lon="-1.729767">
        <ele>609.622</ele>
        <time>2017-03-18T11:47:24Z</time>
      </trkpt>
      <trkpt lat="38.069019" lon="-1.729669">
        <ele>609.756</ele>
        <time>2017-03-18T11:47:26Z</time>
      </trkpt>
      <trkpt lat="38.068961" lon="-1.729571">
        <ele>610.859</ele>
        <time>2017-03-18T11:47:28Z</time>
      </trkpt>
      <trkpt lat="38.068901" lon="-1.729473">
        <ele>611.614</ele>
        <time>2017-03-18T11:47:30Z</time>
      </trkpt>
      <trkpt lat="38.068842" lon="-1.729377">
        <ele>612.008</ele>
        <time>2017-03-18T11:47:32Z</time>
      </trkpt>
      <trkpt lat="38.068780" lon="-1.729281">
        <ele>612.776</ele>
        <time>2017-03-18T11:47:34Z</time>
      </trkpt>
      <trkpt lat="38.068727" lon="-1.729179">
        <ele>612.571</ele>
        <time>2017-03-18T11:47:36Z</time>
      </trkpt>
      <trkpt lat="38.068670" lon="-1.729079">
        <ele>613.823</ele>
        <time>2017-03-18T11:47:38Z</time>
      </trkpt>
      <trkpt lat="38.068595" lon="-1.728961">
        <ele>614.678</ele>
        <time>2017-03-18T11:47:41Z</time>
      </trkpt>
      <trkpt lat="38.068537" lon="-1.728829">
        <ele>614.976</ele>
        <time>2017-03-18T11:47:44Z</time>
      </trkpt>
      <trkpt lat="38.068497" lon="-1.728685">
        <ele>615.090</ele>
        <time>2017-03-18T11:47:47Z</time>
      </trkpt>
      <trkpt lat="38.068472" lon="-1.728572">
        <ele>615.626</ele>
        <time>2017-03-18T11:47:49Z</time>
      </trkpt>
      <trkpt lat="38.068445" lon="-1.728456">
        <ele>616.116</ele>
        <time>2017-03-18T11:47:51Z</time>
      </trkpt>
      <trkpt lat="38.068416" lon="-1.728340">
        <ele>615.583</ele>
        <time>2017-03-18T11:47:53Z</time>
      </trkpt>
      <trkpt lat="38.068389" lon="-1.728220">
        <ele>615.425</ele>
        <time>2017-03-18T11:47:55Z</time>
      </trkpt>
      <trkpt lat="38.068364" lon="-1.728095">
        <ele>615.117</ele>
        <time>2017-03-18T11:47:57Z</time>
      </trkpt>
      <trkpt lat="38.068337" lon="-1.727975">
        <ele>613.808</ele>
        <time>2017-03-18T11:47:59Z</time>
      </trkpt>
      <trkpt lat="38.068315" lon="-1.727817">
        <ele>611.029</ele>
        <time>2017-03-18T11:48:03Z</time>
      </trkpt>
      <trkpt lat="38.068304" lon="-1.727685">
        <ele>607.954</ele>
        <time>2017-03-18T11:48:05Z</time>
      </trkpt>
      <trkpt lat="38.068290" lon="-1.727546">
        <ele>607.466</ele>
        <time>2017-03-18T11:48:07Z</time>
      </trkpt>
      <trkpt lat="38.068271" lon="-1.727383">
        <ele>608.941</ele>
        <time>2017-03-18T11:48:10Z</time>
      </trkpt>
      <trkpt lat="38.068264" lon="-1.727267">
        <ele>610.599</ele>
        <time>2017-03-18T11:48:12Z</time>
      </trkpt>
      <trkpt lat="38.068271" lon="-1.727148">
        <ele>612.433</ele>
        <time>2017-03-18T11:48:14Z</time>
      </trkpt>
      <trkpt lat="38.068293" lon="-1.726976">
        <ele>614.439</ele>
        <time>2017-03-18T11:48:16Z</time>
      </trkpt>
      <trkpt lat="38.068314" lon="-1.726789">
        <ele>614.189</ele>
        <time>2017-03-18T11:48:19Z</time>
      </trkpt>
      <trkpt lat="38.068337" lon="-1.726661">
        <ele>613.075</ele>
        <time>2017-03-18T11:48:21Z</time>
      </trkpt>
      <trkpt lat="38.068370" lon="-1.726508">
        <ele>611.328</ele>
        <time>2017-03-18T11:48:24Z</time>
      </trkpt>
      <trkpt lat="38.068403" lon="-1.726347">
        <ele>609.720</ele>
        <time>2017-03-18T11:48:27Z</time>
      </trkpt>
      <trkpt lat="38.068444" lon="-1.726204">
        <ele>609.008</ele>
        <time>2017-03-18T11:48:30Z</time>
      </trkpt>
      <trkpt lat="38.068475" lon="-1.726057">
        <ele>609.618</ele>
        <time>2017-03-18T11:48:33Z</time>
      </trkpt>
      <trkpt lat="38.068528" lon="-1.725901">
        <ele>610.963</ele>
        <time>2017-03-18T11:48:36Z</time>
      </trkpt>
      <trkpt lat="38.068568" lon="-1.725756">
        <ele>611.175</ele>
        <time>2017-03-18T11:48:39Z</time>
      </trkpt>
      <trkpt lat="38.068612" lon="-1.725606">
        <ele>610.890</ele>
        <time>2017-03-18T11:48:42Z</time>
      </trkpt>
      <trkpt lat="38.068647" lon="-1.725495">
        <ele>610.218</ele>
        <time>2017-03-18T11:48:44Z</time>
      </trkpt>
      <trkpt lat="38.068697" lon="-1.725334">
        <ele>610.482</ele>
        <time>2017-03-18T11:48:47Z</time>
      </trkpt>
      <trkpt lat="38.068729" lon="-1.725224">
        <ele>611.688</ele>
        <time>2017-03-18T11:48:49Z</time>
      </trkpt>
      <trkpt lat="38.068762" lon="-1.725073">
        <ele>612.068</ele>
        <time>2017-03-18T11:48:52Z</time>
      </trkpt>
      <trkpt lat="38.068788" lon="-1.724945">
        <ele>612.122</ele>
        <time>2017-03-18T11:48:55Z</time>
      </trkpt>
      <trkpt lat="38.068832" lon="-1.724825">
        <ele>612.262</ele>
        <time>2017-03-18T11:48:58Z</time>
      </trkpt>
      <trkpt lat="38.068885" lon="-1.724693">
        <ele>613.608</ele>
        <time>2017-03-18T11:49:01Z</time>
      </trkpt>
      <trkpt lat="38.068919" lon="-1.724583">
        <ele>613.308</ele>
        <time>2017-03-18T11:49:03Z</time>
      </trkpt>
      <trkpt lat="38.068950" lon="-1.724468">
        <ele>613.093</ele>
        <time>2017-03-18T11:49:05Z</time>
      </trkpt>
      <trkpt lat="38.068985" lon="-1.724358">
        <ele>612.748</ele>
        <time>2017-03-18T11:49:07Z</time>
      </trkpt>
      <trkpt lat="38.069032" lon="-1.724197">
        <ele>611.840</ele>
        <time>2017-03-18T11:49:10Z</time>
      </trkpt>
      <trkpt lat="38.069066" lon="-1.724084">
        <ele>611.265</ele>
        <time>2017-03-18T11:49:12Z</time>
      </trkpt>
      <trkpt lat="38.069096" lon="-1.723977">
        <ele>612.163</ele>
        <time>2017-03-18T11:49:15Z</time>
      </trkpt>
      <trkpt lat="38.069132" lon="-1.723813">
        <ele>612.817</ele>
        <time>2017-03-18T11:49:18Z</time>
      </trkpt>
      <trkpt lat="38.069164" lon="-1.723661">
        <ele>612.973</ele>
        <time>2017-03-18T11:49:21Z</time>
      </trkpt>
      <trkpt lat="38.069177" lon="-1.723507">
        <ele>612.793</ele>
        <time>2017-03-18T11:49:24Z</time>
      </trkpt>
      <trkpt lat="38.069194" lon="-1.723356">
        <ele>613.678</ele>
        <time>2017-03-18T11:49:27Z</time>
      </trkpt>
      <trkpt lat="38.069200" lon="-1.723200">
        <ele>617.433</ele>
        <time>2017-03-18T11:49:30Z</time>
      </trkpt>
      <trkpt lat="38.069201" lon="-1.722966">
        <ele>619.726</ele>
        <time>2017-03-18T11:49:33Z</time>
      </trkpt>
      <trkpt lat="38.069203" lon="-1.722836">
        <ele>620.608</ele>
        <time>2017-03-18T11:49:35Z</time>
      </trkpt>
      <trkpt lat="38.069218" lon="-1.722678">
        <ele>621.248</ele>
        <time>2017-03-18T11:49:38Z</time>
      </trkpt>
      <trkpt lat="38.069234" lon="-1.722505">
        <ele>621.353</ele>
        <time>2017-03-18T11:49:41Z</time>
      </trkpt>
      <trkpt lat="38.069251" lon="-1.722370">
        <ele>620.295</ele>
        <time>2017-03-18T11:49:43Z</time>
      </trkpt>
      <trkpt lat="38.069258" lon="-1.722238">
        <ele>620.670</ele>
        <time>2017-03-18T11:49:45Z</time>
      </trkpt>
      <trkpt lat="38.069256" lon="-1.722075">
        <ele>620.258</ele>
        <time>2017-03-18T11:49:48Z</time>
      </trkpt>
      <trkpt lat="38.069267" lon="-1.721914">
        <ele>619.872</ele>
        <time>2017-03-18T11:49:51Z</time>
      </trkpt>
      <trkpt lat="38.069278" lon="-1.721800">
        <ele>618.558</ele>
        <time>2017-03-18T11:49:53Z</time>
      </trkpt>
      <trkpt lat="38.069285" lon="-1.721684">
        <ele>617.698</ele>
        <time>2017-03-18T11:49:55Z</time>
      </trkpt>
      <trkpt lat="38.069287" lon="-1.721556">
        <ele>617.254</ele>
        <time>2017-03-18T11:49:57Z</time>
      </trkpt>
      <trkpt lat="38.069285" lon="-1.721424">
        <ele>616.656</ele>
        <time>2017-03-18T11:49:59Z</time>
      </trkpt>
      <trkpt lat="38.069283" lon="-1.721295">
        <ele>616.611</ele>
        <time>2017-03-18T11:50:01Z</time>
      </trkpt>
      <trkpt lat="38.069286" lon="-1.721169">
        <ele>616.608</ele>
        <time>2017-03-18T11:50:03Z</time>
      </trkpt>
      <trkpt lat="38.069287" lon="-1.721032">
        <ele>617.616</ele>
        <time>2017-03-18T11:50:05Z</time>
      </trkpt>
      <trkpt lat="38.069282" lon="-1.720871">
        <ele>618.131</ele>
        <time>2017-03-18T11:50:08Z</time>
      </trkpt>
      <trkpt lat="38.069295" lon="-1.720700">
        <ele>619.873</ele>
        <time>2017-03-18T11:50:11Z</time>
      </trkpt>
      <trkpt lat="38.069326" lon="-1.720536">
        <ele>622.388</ele>
        <time>2017-03-18T11:50:14Z</time>
      </trkpt>
      <trkpt lat="38.069339" lon="-1.720420">
        <ele>623.196</ele>
        <time>2017-03-18T11:50:16Z</time>
      </trkpt>
      <trkpt lat="38.069370" lon="-1.720244">
        <ele>622.620</ele>
        <time>2017-03-18T11:50:20Z</time>
      </trkpt>
      <trkpt lat="38.069386" lon="-1.720116">
        <ele>621.716</ele>
        <time>2017-03-18T11:50:22Z</time>
      </trkpt>
      <trkpt lat="38.069415" lon="-1.719951">
        <ele>618.856</ele>
        <time>2017-03-18T11:50:25Z</time>
      </trkpt>
      <trkpt lat="38.069449" lon="-1.719793">
        <ele>620.614</ele>
        <time>2017-03-18T11:50:28Z</time>
      </trkpt>
      <trkpt lat="38.069488" lon="-1.719643">
        <ele>619.254</ele>
        <time>2017-03-18T11:50:30Z</time>
      </trkpt>
      <trkpt lat="38.069517" lon="-1.719533">
        <ele>617.609</ele>
        <time>2017-03-18T11:50:32Z</time>
      </trkpt>
      <trkpt lat="38.069563" lon="-1.719378">
        <ele>617.608</ele>
        <time>2017-03-18T11:50:35Z</time>
      </trkpt>
      <trkpt lat="38.069592" lon="-1.719266">
        <ele>618.432</ele>
        <time>2017-03-18T11:50:37Z</time>
      </trkpt>
      <trkpt lat="38.069622" lon="-1.719147">
        <ele>618.487</ele>
        <time>2017-03-18T11:50:39Z</time>
      </trkpt>
      <trkpt lat="38.069651" lon="-1.719034">
        <ele>619.539</ele>
        <time>2017-03-18T11:50:41Z</time>
      </trkpt>
      <trkpt lat="38.069692" lon="-1.718876">
        <ele>619.894</ele>
        <time>2017-03-18T11:50:44Z</time>
      </trkpt>
      <trkpt lat="38.069720" lon="-1.718757">
        <ele>619.262</ele>
        <time>2017-03-18T11:50:46Z</time>
      </trkpt>
      <trkpt lat="38.069741" lon="-1.718641">
        <ele>619.476</ele>
        <time>2017-03-18T11:50:48Z</time>
      </trkpt>
      <trkpt lat="38.069763" lon="-1.718524">
        <ele>620.372</ele>
        <time>2017-03-18T11:50:50Z</time>
      </trkpt>
      <trkpt lat="38.069790" lon="-1.718410">
        <ele>620.112</ele>
        <time>2017-03-18T11:50:52Z</time>
      </trkpt>
      <trkpt lat="38.069823" lon="-1.718284">
        <ele>620.171</ele>
        <time>2017-03-18T11:50:54Z</time>
      </trkpt>
      <trkpt lat="38.069865" lon="-1.718144">
        <ele>620.341</ele>
        <time>2017-03-18T11:50:57Z</time>
      </trkpt>
      <trkpt lat="38.069907" lon="-1.718001">
        <ele>620.615</ele>
        <time>2017-03-18T11:51:00Z</time>
      </trkpt>
      <trkpt lat="38.069947" lon="-1.717861">
        <ele>622.008</ele>
        <time>2017-03-18T11:51:03Z</time>
      </trkpt>
      <trkpt lat="38.069984" lon="-1.717708">
        <ele>623.398</ele>
        <time>2017-03-18T11:51:06Z</time>
      </trkpt>
      <trkpt lat="38.070024" lon="-1.717560">
        <ele>623.083</ele>
        <time>2017-03-18T11:51:09Z</time>
      </trkpt>
      <trkpt lat="38.070072" lon="-1.717403">
        <ele>623.695</ele>
        <time>2017-03-18T11:51:12Z</time>
      </trkpt>
      <trkpt lat="38.070109" lon="-1.717242">
        <ele>622.110</ele>
        <time>2017-03-18T11:51:15Z</time>
      </trkpt>
      <trkpt lat="38.070150" lon="-1.717090">
        <ele>620.938</ele>
        <time>2017-03-18T11:51:18Z</time>
      </trkpt>
      <trkpt lat="38.070188" lon="-1.716940">
        <ele>619.822</ele>
        <time>2017-03-18T11:51:21Z</time>
      </trkpt>
      <trkpt lat="38.070221" lon="-1.716780">
        <ele>618.448</ele>
        <time>2017-03-18T11:51:24Z</time>
      </trkpt>
      <trkpt lat="38.070245" lon="-1.716668">
        <ele>618.148</ele>
        <time>2017-03-18T11:51:27Z</time>
      </trkpt>
      <trkpt lat="38.070261" lon="-1.716524">
        <ele>618.966</ele>
        <time>2017-03-18T11:51:29Z</time>
      </trkpt>
      <trkpt lat="38.070268" lon="-1.716407">
        <ele>619.729</ele>
        <time>2017-03-18T11:51:31Z</time>
      </trkpt>
      <trkpt lat="38.070262" lon="-1.716248">
        <ele>620.021</ele>
        <time>2017-03-18T11:51:34Z</time>
      </trkpt>
      <trkpt lat="38.070268" lon="-1.716095">
        <ele>620.608</ele>
        <time>2017-03-18T11:51:37Z</time>
      </trkpt>
      <trkpt lat="38.070277" lon="-1.715942">
        <ele>621.177</ele>
        <time>2017-03-18T11:51:39Z</time>
      </trkpt>
      <trkpt lat="38.070279" lon="-1.715772">
        <ele>623.692</ele>
        <time>2017-03-18T11:51:42Z</time>
      </trkpt>
      <trkpt lat="38.070276" lon="-1.715648">
        <ele>624.184</ele>
        <time>2017-03-18T11:51:44Z</time>
      </trkpt>
      <trkpt lat="38.070263" lon="-1.715529">
        <ele>623.769</ele>
        <time>2017-03-18T11:51:46Z</time>
      </trkpt>
      <trkpt lat="38.070253" lon="-1.715407">
        <ele>622.877</ele>
        <time>2017-03-18T11:51:48Z</time>
      </trkpt>
      <trkpt lat="38.070249" lon="-1.715286">
        <ele>621.981</ele>
        <time>2017-03-18T11:51:50Z</time>
      </trkpt>
      <trkpt lat="38.070257" lon="-1.715164">
        <ele>620.537</ele>
        <time>2017-03-18T11:51:52Z</time>
      </trkpt>
      <trkpt lat="38.070258" lon="-1.715000">
        <ele>619.377</ele>
        <time>2017-03-18T11:51:55Z</time>
      </trkpt>
      <trkpt lat="38.070259" lon="-1.714886">
        <ele>617.883</ele>
        <time>2017-03-18T11:51:57Z</time>
      </trkpt>
      <trkpt lat="38.070265" lon="-1.714765">
        <ele>617.025</ele>
        <time>2017-03-18T11:51:59Z</time>
      </trkpt>
      <trkpt lat="38.070275" lon="-1.714595">
        <ele>616.317</ele>
        <time>2017-03-18T11:52:02Z</time>
      </trkpt>
      <trkpt lat="38.070274" lon="-1.714452">
        <ele>615.108</ele>
        <time>2017-03-18T11:52:04Z</time>
      </trkpt>
      <trkpt lat="38.070274" lon="-1.714326">
        <ele>615.279</ele>
        <time>2017-03-18T11:52:06Z</time>
      </trkpt>
      <trkpt lat="38.070272" lon="-1.714165">
        <ele>615.784</ele>
        <time>2017-03-18T11:52:09Z</time>
      </trkpt>
      <trkpt lat="38.070263" lon="-1.714007">
        <ele>616.636</ele>
        <time>2017-03-18T11:52:12Z</time>
      </trkpt>
      <trkpt lat="38.070254" lon="-1.713843">
        <ele>616.621</ele>
        <time>2017-03-18T11:52:15Z</time>
      </trkpt>
      <trkpt lat="38.070257" lon="-1.713725">
        <ele>616.969</ele>
        <time>2017-03-18T11:52:17Z</time>
      </trkpt>
      <trkpt lat="38.070254" lon="-1.713605">
        <ele>618.223</ele>
        <time>2017-03-18T11:52:19Z</time>
      </trkpt>
      <trkpt lat="38.070239" lon="-1.713446">
        <ele>620.049</ele>
        <time>2017-03-18T11:52:22Z</time>
      </trkpt>
      <trkpt lat="38.070221" lon="-1.713295">
        <ele>622.669</ele>
        <time>2017-03-18T11:52:25Z</time>
      </trkpt>
      <trkpt lat="38.070236" lon="-1.713136">
        <ele>623.575</ele>
        <time>2017-03-18T11:52:28Z</time>
      </trkpt>
      <trkpt lat="38.070242" lon="-1.713017">
        <ele>623.428</ele>
        <time>2017-03-18T11:52:30Z</time>
      </trkpt>
      <trkpt lat="38.070268" lon="-1.712907">
        <ele>623.720</ele>
        <time>2017-03-18T11:52:32Z</time>
      </trkpt>
      <trkpt lat="38.070282" lon="-1.712758">
        <ele>623.608</ele>
        <time>2017-03-18T11:52:35Z</time>
      </trkpt>
      <trkpt lat="38.070285" lon="-1.712620">
        <ele>623.438</ele>
        <time>2017-03-18T11:52:38Z</time>
      </trkpt>
      <trkpt lat="38.070314" lon="-1.712496">
        <ele>622.853</ele>
        <time>2017-03-18T11:52:43Z</time>
      </trkpt>
      <trkpt lat="38.070304" lon="-1.712371">
        <ele>622.475</ele>
        <time>2017-03-18T11:52:47Z</time>
      </trkpt>
      <trkpt lat="38.070303" lon="-1.712236">
        <ele>622.450</ele>
        <time>2017-03-18T11:52:50Z</time>
      </trkpt>
      <trkpt lat="38.070301" lon="-1.712083">
        <ele>622.688</ele>
        <time>2017-03-18T11:52:53Z</time>
      </trkpt>
      <trkpt lat="38.070297" lon="-1.711946">
        <ele>623.182</ele>
        <time>2017-03-18T11:52:56Z</time>
      </trkpt>
      <trkpt lat="38.070293" lon="-1.711824">
        <ele>623.358</ele>
        <time>2017-03-18T11:53:01Z</time>
      </trkpt>
      <trkpt lat="38.070295" lon="-1.711700">
        <ele>623.458</ele>
        <time>2017-03-18T11:53:06Z</time>
      </trkpt>
      <trkpt lat="38.070273" lon="-1.711550">
        <ele>623.497</ele>
        <time>2017-03-18T11:53:11Z</time>
      </trkpt>
      <trkpt lat="38.070272" lon="-1.711436">
        <ele>623.523</ele>
        <time>2017-03-18T11:53:15Z</time>
      </trkpt>
      <trkpt lat="38.070282" lon="-1.711302">
        <ele>623.225</ele>
        <time>2017-03-18T11:53:19Z</time>
      </trkpt>
      <trkpt lat="38.070274" lon="-1.711123">
        <ele>623.008</ele>
        <time>2017-03-18T11:53:22Z</time>
      </trkpt>
      <trkpt lat="38.070268" lon="-1.711001">
        <ele>622.730</ele>
        <time>2017-03-18T11:53:25Z</time>
      </trkpt>
      <trkpt lat="38.070265" lon="-1.710868">
        <ele>622.395</ele>
        <time>2017-03-18T11:53:28Z</time>
      </trkpt>
      <trkpt lat="38.070264" lon="-1.710731">
        <ele>623.367</ele>
        <time>2017-03-18T11:53:31Z</time>
      </trkpt>
      <trkpt lat="38.070256" lon="-1.710586">
        <ele>624.272</ele>
        <time>2017-03-18T11:53:34Z</time>
      </trkpt>
      <trkpt lat="38.070246" lon="-1.710442">
        <ele>625.230</ele>
        <time>2017-03-18T11:53:37Z</time>
      </trkpt>
      <trkpt lat="38.070232" lon="-1.710293">
        <ele>625.864</ele>
        <time>2017-03-18T11:53:40Z</time>
      </trkpt>
      <trkpt lat="38.070212" lon="-1.710143">
        <ele>626.120</ele>
        <time>2017-03-18T11:53:43Z</time>
      </trkpt>
      <trkpt lat="38.070188" lon="-1.709996">
        <ele>626.330</ele>
        <time>2017-03-18T11:53:46Z</time>
      </trkpt>
      <trkpt lat="38.070162" lon="-1.709845">
        <ele>626.368</ele>
        <time>2017-03-18T11:53:49Z</time>
      </trkpt>
      <trkpt lat="38.070133" lon="-1.709707">
        <ele>623.842</ele>
        <time>2017-03-18T11:53:53Z</time>
      </trkpt>
      <trkpt lat="38.070101" lon="-1.709582">
        <ele>623.526</ele>
        <time>2017-03-18T11:53:56Z</time>
      </trkpt>
      <trkpt lat="38.070075" lon="-1.709455">
        <ele>622.208</ele>
        <time>2017-03-18T11:53:59Z</time>
      </trkpt>
      <trkpt lat="38.070019" lon="-1.709307">
        <ele>621.967</ele>
        <time>2017-03-18T11:54:02Z</time>
      </trkpt>
      <trkpt lat="38.069965" lon="-1.709188">
        <ele>621.772</ele>
        <time>2017-03-18T11:54:06Z</time>
      </trkpt>
      <trkpt lat="38.069907" lon="-1.709075">
        <ele>621.974</ele>
        <time>2017-03-18T11:54:10Z</time>
      </trkpt>
      <trkpt lat="38.069855" lon="-1.708954">
        <ele>623.099</ele>
        <time>2017-03-18T11:54:13Z</time>
      </trkpt>
      <trkpt lat="38.069786" lon="-1.708815">
        <ele>625.177</ele>
        <time>2017-03-18T11:54:16Z</time>
      </trkpt>
      <trkpt lat="38.069724" lon="-1.708692">
        <ele>625.591</ele>
        <time>2017-03-18T11:54:19Z</time>
      </trkpt>
      <trkpt lat="38.069634" lon="-1.708549">
        <ele>624.767</ele>
        <time>2017-03-18T11:54:22Z</time>
      </trkpt>
      <trkpt lat="38.069549" lon="-1.708427">
        <ele>625.347</ele>
        <time>2017-03-18T11:54:25Z</time>
      </trkpt>
      <trkpt lat="38.069467" lon="-1.708307">
        <ele>626.146</ele>
        <time>2017-03-18T11:54:28Z</time>
      </trkpt>
      <trkpt lat="38.069379" lon="-1.708188">
        <ele>625.788</ele>
        <time>2017-03-18T11:54:31Z</time>
      </trkpt>
      <trkpt lat="38.069299" lon="-1.708078">
        <ele>626.416</ele>
        <time>2017-03-18T11:54:34Z</time>
      </trkpt>
      <trkpt lat="38.069222" lon="-1.707980">
        <ele>626.708</ele>
        <time>2017-03-18T11:54:37Z</time>
      </trkpt>
      <trkpt lat="38.069146" lon="-1.707882">
        <ele>626.855</ele>
        <time>2017-03-18T11:54:40Z</time>
      </trkpt>
      <trkpt lat="38.069068" lon="-1.707781">
        <ele>627.330</ele>
        <time>2017-03-18T11:54:43Z</time>
      </trkpt>
      <trkpt lat="38.068990" lon="-1.707675">
        <ele>625.962</ele>
        <time>2017-03-18T11:54:46Z</time>
      </trkpt>
      <trkpt lat="38.068907" lon="-1.707574">
        <ele>624.867</ele>
        <time>2017-03-18T11:54:49Z</time>
      </trkpt>
      <trkpt lat="38.068831" lon="-1.707471">
        <ele>624.695</ele>
        <time>2017-03-18T11:54:52Z</time>
      </trkpt>
      <trkpt lat="38.068751" lon="-1.707362">
        <ele>625.239</ele>
        <time>2017-03-18T11:54:55Z</time>
      </trkpt>
      <trkpt lat="38.068671" lon="-1.707248">
        <ele>625.925</ele>
        <time>2017-03-18T11:54:58Z</time>
      </trkpt>
      <trkpt lat="38.068591" lon="-1.707129">
        <ele>625.415</ele>
        <time>2017-03-18T11:55:01Z</time>
      </trkpt>
      <trkpt lat="38.068496" lon="-1.707001">
        <ele>625.045</ele>
        <time>2017-03-18T11:55:05Z</time>
      </trkpt>
      <trkpt lat="38.068431" lon="-1.706920">
        <ele>624.447</ele>
        <time>2017-03-18T11:55:07Z</time>
      </trkpt>
      <trkpt lat="38.068370" lon="-1.706833">
        <ele>624.411</ele>
        <time>2017-03-18T11:55:09Z</time>
      </trkpt>
      <trkpt lat="38.068282" lon="-1.706707">
        <ele>625.008</ele>
        <time>2017-03-18T11:55:12Z</time>
      </trkpt>
      <trkpt lat="38.068194" lon="-1.706588">
        <ele>624.485</ele>
        <time>2017-03-18T11:55:15Z</time>
      </trkpt>
      <trkpt lat="38.068135" lon="-1.706496">
        <ele>624.650</ele>
        <time>2017-03-18T11:55:17Z</time>
      </trkpt>
      <trkpt lat="38.068053" lon="-1.706377">
        <ele>625.572</ele>
        <time>2017-03-18T11:55:19Z</time>
      </trkpt>
      <trkpt lat="38.067969" lon="-1.706247">
        <ele>625.217</ele>
        <time>2017-03-18T11:55:22Z</time>
      </trkpt>
      <trkpt lat="38.067898" lon="-1.706127">
        <ele>622.755</ele>
        <time>2017-03-18T11:55:25Z</time>
      </trkpt>
      <trkpt lat="38.067834" lon="-1.706034">
        <ele>621.539</ele>
        <time>2017-03-18T11:55:27Z</time>
      </trkpt>
      <trkpt lat="38.067769" lon="-1.705941">
        <ele>620.615</ele>
        <time>2017-03-18T11:55:29Z</time>
      </trkpt>
      <trkpt lat="38.067698" lon="-1.705852">
        <ele>621.025</ele>
        <time>2017-03-18T11:55:31Z</time>
      </trkpt>
      <trkpt lat="38.067635" lon="-1.705762">
        <ele>623.455</ele>
        <time>2017-03-18T11:55:33Z</time>
      </trkpt>
      <trkpt lat="38.067573" lon="-1.705668">
        <ele>625.507</ele>
        <time>2017-03-18T11:55:35Z</time>
      </trkpt>
      <trkpt lat="38.067501" lon="-1.705569">
        <ele>626.917</ele>
        <time>2017-03-18T11:55:37Z</time>
      </trkpt>
      <trkpt lat="38.067430" lon="-1.705470">
        <ele>627.908</ele>
        <time>2017-03-18T11:55:39Z</time>
      </trkpt>
      <trkpt lat="38.067359" lon="-1.705378">
        <ele>630.666</ele>
        <time>2017-03-18T11:55:41Z</time>
      </trkpt>
      <trkpt lat="38.067290" lon="-1.705290">
        <ele>632.271</ele>
        <time>2017-03-18T11:55:43Z</time>
      </trkpt>
      <trkpt lat="38.067217" lon="-1.705196">
        <ele>631.653</ele>
        <time>2017-03-18T11:55:45Z</time>
      </trkpt>
      <trkpt lat="38.067148" lon="-1.705107">
        <ele>631.268</ele>
        <time>2017-03-18T11:55:47Z</time>
      </trkpt>
      <trkpt lat="38.067085" lon="-1.705015">
        <ele>631.556</ele>
        <time>2017-03-18T11:55:49Z</time>
      </trkpt>
      <trkpt lat="38.067008" lon="-1.704916">
        <ele>630.550</ele>
        <time>2017-03-18T11:55:51Z</time>
      </trkpt>
      <trkpt lat="38.066948" lon="-1.704831">
        <ele>631.446</ele>
        <time>2017-03-18T11:55:53Z</time>
      </trkpt>
      <trkpt lat="38.066877" lon="-1.704729">
        <ele>631.696</ele>
        <time>2017-03-18T11:55:55Z</time>
      </trkpt>
      <trkpt lat="38.066812" lon="-1.704636">
        <ele>633.964</ele>
        <time>2017-03-18T11:55:57Z</time>
      </trkpt>
      <trkpt lat="38.066746" lon="-1.704546">
        <ele>634.006</ele>
        <time>2017-03-18T11:55:59Z</time>
      </trkpt>
      <trkpt lat="38.066680" lon="-1.704455">
        <ele>633.316</ele>
        <time>2017-03-18T11:56:01Z</time>
      </trkpt>
      <trkpt lat="38.066617" lon="-1.704363">
        <ele>633.208</ele>
        <time>2017-03-18T11:56:03Z</time>
      </trkpt>
      <trkpt lat="38.066562" lon="-1.704267">
        <ele>633.187</ele>
        <time>2017-03-18T11:56:05Z</time>
      </trkpt>
      <trkpt lat="38.066496" lon="-1.704170">
        <ele>632.662</ele>
        <time>2017-03-18T11:56:07Z</time>
      </trkpt>
      <trkpt lat="38.066432" lon="-1.704064">
        <ele>631.384</ele>
        <time>2017-03-18T11:56:09Z</time>
      </trkpt>
      <trkpt lat="38.066371" lon="-1.703957">
        <ele>632.049</ele>
        <time>2017-03-18T11:56:11Z</time>
      </trkpt>
      <trkpt lat="38.066308" lon="-1.703861">
        <ele>633.937</ele>
        <time>2017-03-18T11:56:13Z</time>
      </trkpt>
      <trkpt lat="38.066243" lon="-1.703772">
        <ele>634.611</ele>
        <time>2017-03-18T11:56:15Z</time>
      </trkpt>
      <trkpt lat="38.066177" lon="-1.703679">
        <ele>632.497</ele>
        <time>2017-03-18T11:56:17Z</time>
      </trkpt>
      <trkpt lat="38.066109" lon="-1.703586">
        <ele>631.297</ele>
        <time>2017-03-18T11:56:19Z</time>
      </trkpt>
      <trkpt lat="38.066048" lon="-1.703494">
        <ele>629.634</ele>
        <time>2017-03-18T11:56:21Z</time>
      </trkpt>
      <trkpt lat="38.065984" lon="-1.703408">
        <ele>628.655</ele>
        <time>2017-03-18T11:56:23Z</time>
      </trkpt>
      <trkpt lat="38.065913" lon="-1.703324">
        <ele>627.410</ele>
        <time>2017-03-18T11:56:25Z</time>
      </trkpt>
      <trkpt lat="38.065841" lon="-1.703228">
        <ele>626.308</ele>
        <time>2017-03-18T11:56:28Z</time>
      </trkpt>
      <trkpt lat="38.065771" lon="-1.703137">
        <ele>624.944</ele>
        <time>2017-03-18T11:56:30Z</time>
      </trkpt>
      <trkpt lat="38.065700" lon="-1.703045">
        <ele>623.989</ele>
        <time>2017-03-18T11:56:32Z</time>
      </trkpt>
      <trkpt lat="38.065631" lon="-1.702951">
        <ele>623.551</ele>
        <time>2017-03-18T11:56:34Z</time>
      </trkpt>
      <trkpt lat="38.065559" lon="-1.702858">
        <ele>623.756</ele>
        <time>2017-03-18T11:56:36Z</time>
      </trkpt>
      <trkpt lat="38.065484" lon="-1.702767">
        <ele>622.714</ele>
        <time>2017-03-18T11:56:37Z</time>
      </trkpt>
      <trkpt lat="38.065385" lon="-1.702631">
        <ele>622.588</ele>
        <time>2017-03-18T11:56:40Z</time>
      </trkpt>
      <trkpt lat="38.065315" lon="-1.702543">
        <ele>623.064</ele>
        <time>2017-03-18T11:56:42Z</time>
      </trkpt>
      <trkpt lat="38.065246" lon="-1.702455">
        <ele>623.664</ele>
        <time>2017-03-18T11:56:44Z</time>
      </trkpt>
      <trkpt lat="38.065178" lon="-1.702367">
        <ele>624.421</ele>
        <time>2017-03-18T11:56:46Z</time>
      </trkpt>
      <trkpt lat="38.065109" lon="-1.702279">
        <ele>624.841</ele>
        <time>2017-03-18T11:56:48Z</time>
      </trkpt>
      <trkpt lat="38.065044" lon="-1.702188">
        <ele>625.105</ele>
        <time>2017-03-18T11:56:50Z</time>
      </trkpt>
      <trkpt lat="38.064982" lon="-1.702098">
        <ele>625.208</ele>
        <time>2017-03-18T11:56:52Z</time>
      </trkpt>
      <trkpt lat="38.064878" lon="-1.701959">
        <ele>626.343</ele>
        <time>2017-03-18T11:56:55Z</time>
      </trkpt>
      <trkpt lat="38.064814" lon="-1.701867">
        <ele>627.268</ele>
        <time>2017-03-18T11:56:57Z</time>
      </trkpt>
      <trkpt lat="38.064752" lon="-1.701779">
        <ele>628.020</ele>
        <time>2017-03-18T11:56:59Z</time>
      </trkpt>
      <trkpt lat="38.064690" lon="-1.701689">
        <ele>628.745</ele>
        <time>2017-03-18T11:57:01Z</time>
      </trkpt>
      <trkpt lat="38.064633" lon="-1.701599">
        <ele>629.893</ele>
        <time>2017-03-18T11:57:03Z</time>
      </trkpt>
      <trkpt lat="38.064580" lon="-1.701500">
        <ele>631.347</ele>
        <time>2017-03-18T11:57:05Z</time>
      </trkpt>
      <trkpt lat="38.064523" lon="-1.701409">
        <ele>632.753</ele>
        <time>2017-03-18T11:57:07Z</time>
      </trkpt>
      <trkpt lat="38.064468" lon="-1.701312">
        <ele>633.743</ele>
        <time>2017-03-18T11:57:09Z</time>
      </trkpt>
      <trkpt lat="38.064402" lon="-1.701165">
        <ele>635.157</ele>
        <time>2017-03-18T11:57:12Z</time>
      </trkpt>
      <trkpt lat="38.064360" lon="-1.701058">
        <ele>635.500</ele>
        <time>2017-03-18T11:57:14Z</time>
      </trkpt>
      <trkpt lat="38.064321" lon="-1.700912">
        <ele>635.720</ele>
        <time>2017-03-18T11:57:17Z</time>
      </trkpt>
      <trkpt lat="38.064275" lon="-1.700767">
        <ele>634.808</ele>
        <time>2017-03-18T11:57:20Z</time>
      </trkpt>
      <trkpt lat="38.064211" lon="-1.700641">
        <ele>633.346</ele>
        <time>2017-03-18T11:57:23Z</time>
      </trkpt>
      <trkpt lat="38.064165" lon="-1.700542">
        <ele>631.831</ele>
        <time>2017-03-18T11:57:25Z</time>
      </trkpt>
      <trkpt lat="38.064127" lon="-1.700437">
        <ele>630.293</ele>
        <time>2017-03-18T11:57:27Z</time>
      </trkpt>
      <trkpt lat="38.064085" lon="-1.700332">
        <ele>628.878</ele>
        <time>2017-03-18T11:57:29Z</time>
      </trkpt>
      <trkpt lat="38.064018" lon="-1.700180">
        <ele>627.196</ele>
        <time>2017-03-18T11:57:32Z</time>
      </trkpt>
      <trkpt lat="38.063969" lon="-1.700051">
        <ele>626.590</ele>
        <time>2017-03-18T11:57:35Z</time>
      </trkpt>
      <trkpt lat="38.063926" lon="-1.699915">
        <ele>625.286</ele>
        <time>2017-03-18T11:57:38Z</time>
      </trkpt>
      <trkpt lat="38.063896" lon="-1.699768">
        <ele>624.946</ele>
        <time>2017-03-18T11:57:41Z</time>
      </trkpt>
      <trkpt lat="38.063856" lon="-1.699608">
        <ele>623.036</ele>
        <time>2017-03-18T11:57:44Z</time>
      </trkpt>
      <trkpt lat="38.063800" lon="-1.699465">
        <ele>622.117</ele>
        <time>2017-03-18T11:57:48Z</time>
      </trkpt>
      <trkpt lat="38.063748" lon="-1.699331">
        <ele>622.118</ele>
        <time>2017-03-18T11:57:51Z</time>
      </trkpt>
      <trkpt lat="38.063695" lon="-1.699195">
        <ele>624.008</ele>
        <time>2017-03-18T11:57:54Z</time>
      </trkpt>
      <trkpt lat="38.063671" lon="-1.699083">
        <ele>625.174</ele>
        <time>2017-03-18T11:57:56Z</time>
      </trkpt>
      <trkpt lat="38.063658" lon="-1.698950">
        <ele>625.239</ele>
        <time>2017-03-18T11:57:58Z</time>
      </trkpt>
      <trkpt lat="38.063634" lon="-1.698813">
        <ele>625.911</ele>
        <time>2017-03-18T11:58:00Z</time>
      </trkpt>
      <trkpt lat="38.063602" lon="-1.698664">
        <ele>628.016</ele>
        <time>2017-03-18T11:58:03Z</time>
      </trkpt>
      <trkpt lat="38.063577" lon="-1.698517">
        <ele>629.234</ele>
        <time>2017-03-18T11:58:06Z</time>
      </trkpt>
      <trkpt lat="38.063559" lon="-1.698370">
        <ele>629.928</ele>
        <time>2017-03-18T11:58:09Z</time>
      </trkpt>
      <trkpt lat="38.063554" lon="-1.698230">
        <ele>630.054</ele>
        <time>2017-03-18T11:58:12Z</time>
      </trkpt>
      <trkpt lat="38.063543" lon="-1.698085">
        <ele>630.974</ele>
        <time>2017-03-18T11:58:15Z</time>
      </trkpt>
      <trkpt lat="38.063521" lon="-1.697954">
        <ele>631.573</ele>
        <time>2017-03-18T11:58:17Z</time>
      </trkpt>
      <trkpt lat="38.063480" lon="-1.697797">
        <ele>632.585</ele>
        <time>2017-03-18T11:58:20Z</time>
      </trkpt>
      <trkpt lat="38.063434" lon="-1.697642">
        <ele>632.113</ele>
        <time>2017-03-18T11:58:23Z</time>
      </trkpt>
      <trkpt lat="38.063388" lon="-1.697482">
        <ele>631.708</ele>
        <time>2017-03-18T11:58:26Z</time>
      </trkpt>
      <trkpt lat="38.063341" lon="-1.697327">
        <ele>631.958</ele>
        <time>2017-03-18T11:58:29Z</time>
      </trkpt>
      <trkpt lat="38.063300" lon="-1.697171">
        <ele>632.243</ele>
        <time>2017-03-18T11:58:32Z</time>
      </trkpt>
      <trkpt lat="38.063266" lon="-1.697008">
        <ele>631.845</ele>
        <time>2017-03-18T11:58:35Z</time>
      </trkpt>
      <trkpt lat="38.063234" lon="-1.696843">
        <ele>631.870</ele>
        <time>2017-03-18T11:58:38Z</time>
      </trkpt>
      <trkpt lat="38.063197" lon="-1.696686">
        <ele>632.278</ele>
        <time>2017-03-18T11:58:41Z</time>
      </trkpt>
      <trkpt lat="38.063159" lon="-1.696579">
        <ele>632.642</ele>
        <time>2017-03-18T11:58:43Z</time>
      </trkpt>
      <trkpt lat="38.063127" lon="-1.696424">
        <ele>632.268</ele>
        <time>2017-03-18T11:58:46Z</time>
      </trkpt>
      <trkpt lat="38.063100" lon="-1.696282">
        <ele>633.238</ele>
        <time>2017-03-18T11:58:49Z</time>
      </trkpt>
      <trkpt lat="38.063073" lon="-1.696150">
        <ele>633.376</ele>
        <time>2017-03-18T11:58:52Z</time>
      </trkpt>
      <trkpt lat="38.063056" lon="-1.696019">
        <ele>633.290</ele>
        <time>2017-03-18T11:58:55Z</time>
      </trkpt>
      <trkpt lat="38.063038" lon="-1.695872">
        <ele>632.719</ele>
        <time>2017-03-18T11:58:59Z</time>
      </trkpt>
      <trkpt lat="38.063010" lon="-1.695723">
        <ele>633.808</ele>
        <time>2017-03-18T11:59:02Z</time>
      </trkpt>
      <trkpt lat="38.062976" lon="-1.695575">
        <ele>635.738</ele>
        <time>2017-03-18T11:59:05Z</time>
      </trkpt>
      <trkpt lat="38.062940" lon="-1.695420">
        <ele>635.843</ele>
        <time>2017-03-18T11:59:08Z</time>
      </trkpt>
      <trkpt lat="38.062888" lon="-1.695212">
        <ele>635.365</ele>
        <time>2017-03-18T11:59:11Z</time>
      </trkpt>
      <trkpt lat="38.062851" lon="-1.695058">
        <ele>634.690</ele>
        <time>2017-03-18T11:59:14Z</time>
      </trkpt>
      <trkpt lat="38.062812" lon="-1.694899">
        <ele>634.368</ele>
        <time>2017-03-18T11:59:17Z</time>
      </trkpt>
      <trkpt lat="38.062779" lon="-1.694742">
        <ele>633.852</ele>
        <time>2017-03-18T11:59:20Z</time>
      </trkpt>
      <trkpt lat="38.062743" lon="-1.694578">
        <ele>633.688</ele>
        <time>2017-03-18T11:59:23Z</time>
      </trkpt>
      <trkpt lat="38.062719" lon="-1.694467">
        <ele>633.538</ele>
        <time>2017-03-18T11:59:25Z</time>
      </trkpt>
      <trkpt lat="38.062690" lon="-1.694356">
        <ele>633.248</ele>
        <time>2017-03-18T11:59:27Z</time>
      </trkpt>
      <trkpt lat="38.062666" lon="-1.694243">
        <ele>633.061</ele>
        <time>2017-03-18T11:59:29Z</time>
      </trkpt>
      <trkpt lat="38.062629" lon="-1.694090">
        <ele>633.017</ele>
        <time>2017-03-18T11:59:32Z</time>
      </trkpt>
      <trkpt lat="38.062599" lon="-1.693951">
        <ele>632.908</ele>
        <time>2017-03-18T11:59:35Z</time>
      </trkpt>
      <trkpt lat="38.062565" lon="-1.693796">
        <ele>632.735</ele>
        <time>2017-03-18T11:59:38Z</time>
      </trkpt>
      <trkpt lat="38.062532" lon="-1.693631">
        <ele>632.540</ele>
        <time>2017-03-18T11:59:41Z</time>
      </trkpt>
      <trkpt lat="38.062504" lon="-1.693521">
        <ele>632.612</ele>
        <time>2017-03-18T11:59:43Z</time>
      </trkpt>
      <trkpt lat="38.062468" lon="-1.693362">
        <ele>632.897</ele>
        <time>2017-03-18T11:59:46Z</time>
      </trkpt>
      <trkpt lat="38.062444" lon="-1.693250">
        <ele>632.955</ele>
        <time>2017-03-18T11:59:48Z</time>
      </trkpt>
      <trkpt lat="38.062420" lon="-1.693138">
        <ele>633.129</ele>
        <time>2017-03-18T11:59:50Z</time>
      </trkpt>
      <trkpt lat="38.062400" lon="-1.693025">
        <ele>633.455</ele>
        <time>2017-03-18T11:59:52Z</time>
      </trkpt>
      <trkpt lat="38.062379" lon="-1.692913">
        <ele>633.825</ele>
        <time>2017-03-18T11:59:54Z</time>
      </trkpt>
      <trkpt lat="38.062349" lon="-1.692750">
        <ele>634.293</ele>
        <time>2017-03-18T11:59:57Z</time>
      </trkpt>
      <trkpt lat="38.062327" lon="-1.692639">
        <ele>634.365</ele>
        <time>2017-03-18T11:59:59Z</time>
      </trkpt>
      <trkpt lat="38.062294" lon="-1.692479">
        <ele>634.521</ele>
        <time>2017-03-18T12:00:02Z</time>
      </trkpt>
      <trkpt lat="38.062266" lon="-1.692364">
        <ele>634.708</ele>
        <time>2017-03-18T12:00:04Z</time>
      </trkpt>
      <trkpt lat="38.062229" lon="-1.692210">
        <ele>635.090</ele>
        <time>2017-03-18T12:00:07Z</time>
      </trkpt>
      <trkpt lat="38.062202" lon="-1.692098">
        <ele>634.925</ele>
        <time>2017-03-18T12:00:09Z</time>
      </trkpt>
      <trkpt lat="38.062173" lon="-1.691989">
        <ele>634.987</ele>
        <time>2017-03-18T12:00:11Z</time>
      </trkpt>
      <trkpt lat="38.062130" lon="-1.691831">
        <ele>635.572</ele>
        <time>2017-03-18T12:00:14Z</time>
      </trkpt>
      <trkpt lat="38.062088" lon="-1.691687">
        <ele>635.990</ele>
        <time>2017-03-18T12:00:17Z</time>
      </trkpt>
      <trkpt lat="38.062039" lon="-1.691529">
        <ele>635.834</ele>
        <time>2017-03-18T12:00:20Z</time>
      </trkpt>
      <trkpt lat="38.061999" lon="-1.691426">
        <ele>635.390</ele>
        <time>2017-03-18T12:00:22Z</time>
      </trkpt>
      <trkpt lat="38.061954" lon="-1.691320">
        <ele>635.150</ele>
        <time>2017-03-18T12:00:25Z</time>
      </trkpt>
      <trkpt lat="38.061910" lon="-1.691217">
        <ele>635.037</ele>
        <time>2017-03-18T12:00:27Z</time>
      </trkpt>
      <trkpt lat="38.061867" lon="-1.691109">
        <ele>634.749</ele>
        <time>2017-03-18T12:00:29Z</time>
      </trkpt>
      <trkpt lat="38.061820" lon="-1.691004">
        <ele>634.713</ele>
        <time>2017-03-18T12:00:31Z</time>
      </trkpt>
      <trkpt lat="38.061770" lon="-1.690903">
        <ele>634.708</ele>
        <time>2017-03-18T12:00:33Z</time>
      </trkpt>
      <trkpt lat="38.061696" lon="-1.690762">
        <ele>634.694</ele>
        <time>2017-03-18T12:00:36Z</time>
      </trkpt>
      <trkpt lat="38.061597" lon="-1.690579">
        <ele>635.099</ele>
        <time>2017-03-18T12:00:39Z</time>
      </trkpt>
      <trkpt lat="38.061525" lon="-1.690445">
        <ele>635.111</ele>
        <time>2017-03-18T12:00:42Z</time>
      </trkpt>
      <trkpt lat="38.061447" lon="-1.690313">
        <ele>635.016</ele>
        <time>2017-03-18T12:00:45Z</time>
      </trkpt>
      <trkpt lat="38.061365" lon="-1.690190">
        <ele>635.694</ele>
        <time>2017-03-18T12:00:48Z</time>
      </trkpt>
      <trkpt lat="38.061289" lon="-1.690071">
        <ele>636.598</ele>
        <time>2017-03-18T12:00:51Z</time>
      </trkpt>
      <trkpt lat="38.061209" lon="-1.689941">
        <ele>637.154</ele>
        <time>2017-03-18T12:00:54Z</time>
      </trkpt>
      <trkpt lat="38.061117" lon="-1.689824">
        <ele>637.544</ele>
        <time>2017-03-18T12:00:57Z</time>
      </trkpt>
      <trkpt lat="38.061023" lon="-1.689713">
        <ele>638.121</ele>
        <time>2017-03-18T12:01:00Z</time>
      </trkpt>
      <trkpt lat="38.060932" lon="-1.689604">
        <ele>638.841</ele>
        <time>2017-03-18T12:01:03Z</time>
      </trkpt>
      <trkpt lat="38.060845" lon="-1.689499">
        <ele>638.805</ele>
        <time>2017-03-18T12:01:06Z</time>
      </trkpt>
      <trkpt lat="38.060764" lon="-1.689408">
        <ele>639.108</ele>
        <time>2017-03-18T12:01:09Z</time>
      </trkpt>
      <trkpt lat="38.060680" lon="-1.689318">
        <ele>639.493</ele>
        <time>2017-03-18T12:01:12Z</time>
      </trkpt>
      <trkpt lat="38.060580" lon="-1.689223">
        <ele>639.728</ele>
        <time>2017-03-18T12:01:15Z</time>
      </trkpt>
      <trkpt lat="38.060475" lon="-1.689128">
        <ele>640.010</ele>
        <time>2017-03-18T12:01:18Z</time>
      </trkpt>
      <trkpt lat="38.060376" lon="-1.689049">
        <ele>640.495</ele>
        <time>2017-03-18T12:01:21Z</time>
      </trkpt>
      <trkpt lat="38.060280" lon="-1.688975">
        <ele>640.573</ele>
        <time>2017-03-18T12:01:25Z</time>
      </trkpt>
      <trkpt lat="38.060191" lon="-1.688918">
        <ele>640.577</ele>
        <time>2017-03-18T12:01:29Z</time>
      </trkpt>
      <trkpt lat="38.060101" lon="-1.688958">
        <ele>640.563</ele>
        <time>2017-03-18T12:01:34Z</time>
      </trkpt>
      <trkpt lat="38.060035" lon="-1.689053">
        <ele>640.913</ele>
        <time>2017-03-18T12:01:39Z</time>
      </trkpt>
      <trkpt lat="38.059940" lon="-1.689145">
        <ele>641.531</ele>
        <time>2017-03-18T12:01:44Z</time>
      </trkpt>
      <trkpt lat="38.059843" lon="-1.689225">
        <ele>642.461</ele>
        <time>2017-03-18T12:01:48Z</time>
      </trkpt>
      <trkpt lat="38.059716" lon="-1.689305">
        <ele>643.507</ele>
        <time>2017-03-18T12:01:52Z</time>
      </trkpt>
      <trkpt lat="38.059623" lon="-1.689355">
        <ele>644.208</ele>
        <time>2017-03-18T12:01:55Z</time>
      </trkpt>
      <trkpt lat="38.059524" lon="-1.689392">
        <ele>644.844</ele>
        <time>2017-03-18T12:01:58Z</time>
      </trkpt>
      <trkpt lat="38.059431" lon="-1.689432">
        <ele>645.369</ele>
        <time>2017-03-18T12:02:01Z</time>
      </trkpt>
      <trkpt lat="38.059323" lon="-1.689479">
        <ele>645.641</ele>
        <time>2017-03-18T12:02:04Z</time>
      </trkpt>
      <trkpt lat="38.059220" lon="-1.689512">
        <ele>645.776</ele>
        <time>2017-03-18T12:02:07Z</time>
      </trkpt>
      <trkpt lat="38.059130" lon="-1.689527">
        <ele>645.824</ele>
        <time>2017-03-18T12:02:10Z</time>
      </trkpt>
      <trkpt lat="38.059031" lon="-1.689563">
        <ele>646.068</ele>
        <time>2017-03-18T12:02:13Z</time>
      </trkpt>
      <trkpt lat="38.058930" lon="-1.689609">
        <ele>646.274</ele>
        <time>2017-03-18T12:02:16Z</time>
      </trkpt>
      <trkpt lat="38.058826" lon="-1.689630">
        <ele>646.784</ele>
        <time>2017-03-18T12:02:19Z</time>
      </trkpt>
      <trkpt lat="38.058728" lon="-1.689639">
        <ele>647.027</ele>
        <time>2017-03-18T12:02:22Z</time>
      </trkpt>
      <trkpt lat="38.058615" lon="-1.689640">
        <ele>648.068</ele>
        <time>2017-03-18T12:02:25Z</time>
      </trkpt>
      <trkpt lat="38.058506" lon="-1.689628">
        <ele>648.114</ele>
        <time>2017-03-18T12:02:28Z</time>
      </trkpt>
      <trkpt lat="38.058399" lon="-1.689611">
        <ele>648.008</ele>
        <time>2017-03-18T12:02:31Z</time>
      </trkpt>
      <trkpt lat="38.058296" lon="-1.689577">
        <ele>648.043</ele>
        <time>2017-03-18T12:02:34Z</time>
      </trkpt>
      <trkpt lat="38.058200" lon="-1.689536">
        <ele>647.998</ele>
        <time>2017-03-18T12:02:37Z</time>
      </trkpt>
      <trkpt lat="38.058093" lon="-1.689497">
        <ele>648.180</ele>
        <time>2017-03-18T12:02:40Z</time>
      </trkpt>
      <trkpt lat="38.057988" lon="-1.689469">
        <ele>648.145</ele>
        <time>2017-03-18T12:02:43Z</time>
      </trkpt>
      <trkpt lat="38.057890" lon="-1.689424">
        <ele>648.213</ele>
        <time>2017-03-18T12:02:46Z</time>
      </trkpt>
      <trkpt lat="38.057788" lon="-1.689376">
        <ele>648.337</ele>
        <time>2017-03-18T12:02:49Z</time>
      </trkpt>
      <trkpt lat="38.057688" lon="-1.689326">
        <ele>648.523</ele>
        <time>2017-03-18T12:02:52Z</time>
      </trkpt>
      <trkpt lat="38.057588" lon="-1.689284">
        <ele>648.773</ele>
        <time>2017-03-18T12:02:56Z</time>
      </trkpt>
      <trkpt lat="38.057487" lon="-1.689245">
        <ele>649.114</ele>
        <time>2017-03-18T12:02:59Z</time>
      </trkpt>
      <trkpt lat="38.057382" lon="-1.689207">
        <ele>649.354</ele>
        <time>2017-03-18T12:03:02Z</time>
      </trkpt>
      <trkpt lat="38.057273" lon="-1.689181">
        <ele>649.609</ele>
        <time>2017-03-18T12:03:05Z</time>
      </trkpt>
      <trkpt lat="38.057168" lon="-1.689153">
        <ele>649.808</ele>
        <time>2017-03-18T12:03:07Z</time>
      </trkpt>
      <trkpt lat="38.057064" lon="-1.689125">
        <ele>650.132</ele>
        <time>2017-03-18T12:03:10Z</time>
      </trkpt>
      <trkpt lat="38.056966" lon="-1.689101">
        <ele>650.537</ele>
        <time>2017-03-18T12:03:13Z</time>
      </trkpt>
      <trkpt lat="38.056857" lon="-1.689082">
        <ele>651.089</ele>
        <time>2017-03-18T12:03:17Z</time>
      </trkpt>
      <trkpt lat="38.056762" lon="-1.689065">
        <ele>651.344</ele>
        <time>2017-03-18T12:03:20Z</time>
      </trkpt>
      <trkpt lat="38.056666" lon="-1.689041">
        <ele>651.342</ele>
        <time>2017-03-18T12:03:23Z</time>
      </trkpt>
      <trkpt lat="38.056558" lon="-1.689019">
        <ele>651.336</ele>
        <time>2017-03-18T12:03:26Z</time>
      </trkpt>
      <trkpt lat="38.056453" lon="-1.688999">
        <ele>651.362</ele>
        <time>2017-03-18T12:03:29Z</time>
      </trkpt>
      <trkpt lat="38.056363" lon="-1.688960">
        <ele>651.322</ele>
        <time>2017-03-18T12:03:32Z</time>
      </trkpt>
      <trkpt lat="38.056269" lon="-1.688933">
        <ele>651.417</ele>
        <time>2017-03-18T12:03:35Z</time>
      </trkpt>
      <trkpt lat="38.056170" lon="-1.688910">
        <ele>651.787</ele>
        <time>2017-03-18T12:03:38Z</time>
      </trkpt>
      <trkpt lat="38.056072" lon="-1.688889">
        <ele>652.115</ele>
        <time>2017-03-18T12:03:41Z</time>
      </trkpt>
      <trkpt lat="38.055976" lon="-1.688859">
        <ele>652.408</ele>
        <time>2017-03-18T12:03:44Z</time>
      </trkpt>
      <trkpt lat="38.055880" lon="-1.688836">
        <ele>652.822</ele>
        <time>2017-03-18T12:03:47Z</time>
      </trkpt>
      <trkpt lat="38.055782" lon="-1.688800">
        <ele>653.017</ele>
        <time>2017-03-18T12:03:50Z</time>
      </trkpt>
      <trkpt lat="38.055680" lon="-1.688768">
        <ele>653.059</ele>
        <time>2017-03-18T12:03:53Z</time>
      </trkpt>
      <trkpt lat="38.055575" lon="-1.688732">
        <ele>654.024</ele>
        <time>2017-03-18T12:03:56Z</time>
      </trkpt>
      <trkpt lat="38.055462" lon="-1.688702">
        <ele>655.932</ele>
        <time>2017-03-18T12:03:59Z</time>
      </trkpt>
      <trkpt lat="38.055347" lon="-1.688664">
        <ele>656.686</ele>
        <time>2017-03-18T12:04:02Z</time>
      </trkpt>
      <trkpt lat="38.055233" lon="-1.688623">
        <ele>657.542</ele>
        <time>2017-03-18T12:04:05Z</time>
      </trkpt>
      <trkpt lat="38.055123" lon="-1.688586">
        <ele>658.262</ele>
        <time>2017-03-18T12:04:09Z</time>
      </trkpt>
      <trkpt lat="38.055009" lon="-1.688552">
        <ele>658.546</ele>
        <time>2017-03-18T12:04:12Z</time>
      </trkpt>
      <trkpt lat="38.054900" lon="-1.688519">
        <ele>657.788</ele>
        <time>2017-03-18T12:04:15Z</time>
      </trkpt>
      <trkpt lat="38.054788" lon="-1.688484">
        <ele>657.216</ele>
        <time>2017-03-18T12:04:18Z</time>
      </trkpt>
      <trkpt lat="38.054637" lon="-1.688445">
        <ele>656.908</ele>
        <time>2017-03-18T12:04:21Z</time>
      </trkpt>
      <trkpt lat="38.054517" lon="-1.688406">
        <ele>656.585</ele>
        <time>2017-03-18T12:04:24Z</time>
      </trkpt>
      <trkpt lat="38.054400" lon="-1.688319">
        <ele>656.420</ele>
        <time>2017-03-18T12:04:27Z</time>
      </trkpt>
      <trkpt lat="38.054324" lon="-1.688248">
        <ele>655.642</ele>
        <time>2017-03-18T12:04:29Z</time>
      </trkpt>
      <trkpt lat="38.054245" lon="-1.688184">
        <ele>655.847</ele>
        <time>2017-03-18T12:04:31Z</time>
      </trkpt>
      <trkpt lat="38.054150" lon="-1.688148">
        <ele>655.675</ele>
        <time>2017-03-18T12:04:33Z</time>
      </trkpt>
      <trkpt lat="38.053821" lon="-1.688157">
        <ele>651.389</ele>
        <time>2017-03-18T12:04:40Z</time>
      </trkpt>
      <trkpt lat="38.053660" lon="-1.688218">
        <ele>652.045</ele>
        <time>2017-03-18T12:04:42Z</time>
      </trkpt>
      <trkpt lat="38.053571" lon="-1.688253">
        <ele>653.015</ele>
        <time>2017-03-18T12:04:43Z</time>
      </trkpt>
      <trkpt lat="38.053476" lon="-1.688296">
        <ele>651.878</ele>
        <time>2017-03-18T12:04:45Z</time>
      </trkpt>
      <trkpt lat="38.053385" lon="-1.688350">
        <ele>651.133</ele>
        <time>2017-03-18T12:04:47Z</time>
      </trkpt>
      <trkpt lat="38.053300" lon="-1.688403">
        <ele>651.126</ele>
        <time>2017-03-18T12:04:49Z</time>
      </trkpt>
      <trkpt lat="38.053184" lon="-1.688485">
        <ele>651.108</ele>
        <time>2017-03-18T12:04:52Z</time>
      </trkpt>
      <trkpt lat="38.053081" lon="-1.688564">
        <ele>651.838</ele>
        <time>2017-03-18T12:04:55Z</time>
      </trkpt>
      <trkpt lat="38.052989" lon="-1.688661">
        <ele>651.813</ele>
        <time>2017-03-18T12:04:58Z</time>
      </trkpt>
      <trkpt lat="38.052931" lon="-1.688762">
        <ele>651.885</ele>
        <time>2017-03-18T12:05:01Z</time>
      </trkpt>
      <trkpt lat="38.052903" lon="-1.688874">
        <ele>651.810</ele>
        <time>2017-03-18T12:05:04Z</time>
      </trkpt>
      <trkpt lat="38.052877" lon="-1.688987">
        <ele>651.528</ele>
        <time>2017-03-18T12:05:07Z</time>
      </trkpt>
      <trkpt lat="38.052860" lon="-1.689117">
        <ele>651.382</ele>
        <time>2017-03-18T12:05:10Z</time>
      </trkpt>
      <trkpt lat="38.052842" lon="-1.689243">
        <ele>651.368</ele>
        <time>2017-03-18T12:05:13Z</time>
      </trkpt>
      <trkpt lat="38.052835" lon="-1.689385">
        <ele>651.758</ele>
        <time>2017-03-18T12:05:17Z</time>
      </trkpt>
      <trkpt lat="38.052834" lon="-1.689511">
        <ele>652.769</ele>
        <time>2017-03-18T12:05:21Z</time>
      </trkpt>
      <trkpt lat="38.052829" lon="-1.689645">
        <ele>653.904</ele>
        <time>2017-03-18T12:05:25Z</time>
      </trkpt>
      <trkpt lat="38.052828" lon="-1.689762">
        <ele>654.924</ele>
        <time>2017-03-18T12:05:30Z</time>
      </trkpt>
      <trkpt lat="38.052836" lon="-1.689908">
        <ele>655.608</ele>
        <time>2017-03-18T12:05:34Z</time>
      </trkpt>
      <trkpt lat="38.052842" lon="-1.690057">
        <ele>656.347</ele>
        <time>2017-03-18T12:05:38Z</time>
      </trkpt>
      <trkpt lat="38.052842" lon="-1.690205">
        <ele>656.912</ele>
        <time>2017-03-18T12:05:41Z</time>
      </trkpt>
      <trkpt lat="38.052770" lon="-1.690285">
        <ele>657.674</ele>
        <time>2017-03-18T12:05:46Z</time>
      </trkpt>
      <trkpt lat="38.052652" lon="-1.690278">
        <ele>659.719</ele>
        <time>2017-03-18T12:05:50Z</time>
      </trkpt>
      <trkpt lat="38.052561" lon="-1.690242">
        <ele>661.957</ele>
        <time>2017-03-18T12:05:52Z</time>
      </trkpt>
      <trkpt lat="38.052451" lon="-1.690198">
        <ele>663.171</ele>
        <time>2017-03-18T12:05:54Z</time>
      </trkpt>
      <trkpt lat="38.052323" lon="-1.690147">
        <ele>663.317</ele>
        <time>2017-03-18T12:05:56Z</time>
      </trkpt>
      <trkpt lat="38.052188" lon="-1.690092">
        <ele>662.957</ele>
        <time>2017-03-18T12:05:58Z</time>
      </trkpt>
      <trkpt lat="38.052057" lon="-1.690028">
        <ele>662.492</ele>
        <time>2017-03-18T12:06:00Z</time>
      </trkpt>
      <trkpt lat="38.051938" lon="-1.689970">
        <ele>661.873</ele>
        <time>2017-03-18T12:06:02Z</time>
      </trkpt>
      <trkpt lat="38.051821" lon="-1.689912">
        <ele>661.520</ele>
        <time>2017-03-18T12:06:04Z</time>
      </trkpt>
      <trkpt lat="38.051719" lon="-1.689862">
        <ele>661.608</ele>
        <time>2017-03-18T12:06:06Z</time>
      </trkpt>
      <trkpt lat="38.051626" lon="-1.689816">
        <ele>661.950</ele>
        <time>2017-03-18T12:06:08Z</time>
      </trkpt>
      <trkpt lat="38.051537" lon="-1.689774">
        <ele>662.575</ele>
        <time>2017-03-18T12:06:10Z</time>
      </trkpt>
      <trkpt lat="38.051447" lon="-1.689735">
        <ele>663.237</ele>
        <time>2017-03-18T12:06:12Z</time>
      </trkpt>
      <trkpt lat="38.051360" lon="-1.689699">
        <ele>663.722</ele>
        <time>2017-03-18T12:06:14Z</time>
      </trkpt>
      <trkpt lat="38.051234" lon="-1.689650">
        <ele>664.230</ele>
        <time>2017-03-18T12:06:17Z</time>
      </trkpt>
      <trkpt lat="38.051118" lon="-1.689601">
        <ele>664.624</ele>
        <time>2017-03-18T12:06:20Z</time>
      </trkpt>
      <trkpt lat="38.051002" lon="-1.689553">
        <ele>665.370</ele>
        <time>2017-03-18T12:06:23Z</time>
      </trkpt>
      <trkpt lat="38.050897" lon="-1.689519">
        <ele>666.250</ele>
        <time>2017-03-18T12:06:26Z</time>
      </trkpt>
      <trkpt lat="38.050797" lon="-1.689492">
        <ele>666.872</ele>
        <time>2017-03-18T12:06:29Z</time>
      </trkpt>
      <trkpt lat="38.050692" lon="-1.689464">
        <ele>666.913</ele>
        <time>2017-03-18T12:06:32Z</time>
      </trkpt>
      <trkpt lat="38.050588" lon="-1.689448">
        <ele>667.114</ele>
        <time>2017-03-18T12:06:35Z</time>
      </trkpt>
      <trkpt lat="38.050488" lon="-1.689482">
        <ele>667.008</ele>
        <time>2017-03-18T12:06:38Z</time>
      </trkpt>
      <trkpt lat="38.050388" lon="-1.689537">
        <ele>667.188</ele>
        <time>2017-03-18T12:06:42Z</time>
      </trkpt>
      <trkpt lat="38.050308" lon="-1.689602">
        <ele>667.353</ele>
        <time>2017-03-18T12:06:45Z</time>
      </trkpt>
      <trkpt lat="38.050219" lon="-1.689661">
        <ele>667.425</ele>
        <time>2017-03-18T12:06:48Z</time>
      </trkpt>
      <trkpt lat="38.050111" lon="-1.689704">
        <ele>667.440</ele>
        <time>2017-03-18T12:06:53Z</time>
      </trkpt>
      <trkpt lat="38.050015" lon="-1.689694">
        <ele>667.128</ele>
        <time>2017-03-18T12:06:57Z</time>
      </trkpt>
      <trkpt lat="38.049903" lon="-1.689673">
        <ele>666.322</ele>
        <time>2017-03-18T12:07:01Z</time>
      </trkpt>
      <trkpt lat="38.049817" lon="-1.689633">
        <ele>665.718</ele>
        <time>2017-03-18T12:07:04Z</time>
      </trkpt>
      <trkpt lat="38.049683" lon="-1.689549">
        <ele>665.498</ele>
        <time>2017-03-18T12:07:08Z</time>
      </trkpt>
      <trkpt lat="38.049609" lon="-1.689474">
        <ele>665.589</ele>
        <time>2017-03-18T12:07:11Z</time>
      </trkpt>
      <trkpt lat="38.049531" lon="-1.689405">
        <ele>665.606</ele>
        <time>2017-03-18T12:07:14Z</time>
      </trkpt>
      <trkpt lat="38.049447" lon="-1.689348">
        <ele>665.526</ele>
        <time>2017-03-18T12:07:17Z</time>
      </trkpt>
      <trkpt lat="38.049353" lon="-1.689307">
        <ele>665.608</ele>
        <time>2017-03-18T12:07:20Z</time>
      </trkpt>
      <trkpt lat="38.049250" lon="-1.689301">
        <ele>665.729</ele>
        <time>2017-03-18T12:07:23Z</time>
      </trkpt>
      <trkpt lat="38.049142" lon="-1.689327">
        <ele>665.974</ele>
        <time>2017-03-18T12:07:26Z</time>
      </trkpt>
      <trkpt lat="38.049036" lon="-1.689369">
        <ele>666.046</ele>
        <time>2017-03-18T12:07:29Z</time>
      </trkpt>
      <trkpt lat="38.048939" lon="-1.689430">
        <ele>666.151</ele>
        <time>2017-03-18T12:07:32Z</time>
      </trkpt>
      <trkpt lat="38.048861" lon="-1.689524">
        <ele>666.299</ele>
        <time>2017-03-18T12:07:35Z</time>
      </trkpt>
      <trkpt lat="38.048777" lon="-1.689607">
        <ele>666.353</ele>
        <time>2017-03-18T12:07:39Z</time>
      </trkpt>
      <trkpt lat="38.048674" lon="-1.689653">
        <ele>666.579</ele>
        <time>2017-03-18T12:07:43Z</time>
      </trkpt>
      <trkpt lat="38.048582" lon="-1.689676">
        <ele>666.639</ele>
        <time>2017-03-18T12:07:46Z</time>
      </trkpt>
      <trkpt lat="38.048470" lon="-1.689674">
        <ele>666.125</ele>
        <time>2017-03-18T12:07:51Z</time>
      </trkpt>
      <trkpt lat="38.048353" lon="-1.689704">
        <ele>665.826</ele>
        <time>2017-03-18T12:07:55Z</time>
      </trkpt>
      <trkpt lat="38.048239" lon="-1.689728">
        <ele>665.708</ele>
        <time>2017-03-18T12:07:59Z</time>
      </trkpt>
      <trkpt lat="38.048142" lon="-1.689739">
        <ele>665.508</ele>
        <time>2017-03-18T12:08:03Z</time>
      </trkpt>
      <trkpt lat="38.048042" lon="-1.689760">
        <ele>665.193</ele>
        <time>2017-03-18T12:08:07Z</time>
      </trkpt>
      <trkpt lat="38.047947" lon="-1.689762">
        <ele>665.088</ele>
        <time>2017-03-18T12:08:11Z</time>
      </trkpt>
      <trkpt lat="38.047836" lon="-1.689766">
        <ele>665.140</ele>
        <time>2017-03-18T12:08:16Z</time>
      </trkpt>
      <trkpt lat="38.047727" lon="-1.689763">
        <ele>665.665</ele>
        <time>2017-03-18T12:08:20Z</time>
      </trkpt>
      <trkpt lat="38.047613" lon="-1.689765">
        <ele>665.883</ele>
        <time>2017-03-18T12:08:26Z</time>
      </trkpt>
      <trkpt lat="38.047515" lon="-1.689768">
        <ele>666.037</ele>
        <time>2017-03-18T12:08:30Z</time>
      </trkpt>
      <trkpt lat="38.047397" lon="-1.689763">
        <ele>666.333</ele>
        <time>2017-03-18T12:08:34Z</time>
      </trkpt>
      <trkpt lat="38.047305" lon="-1.689762">
        <ele>666.863</ele>
        <time>2017-03-18T12:08:37Z</time>
      </trkpt>
      <trkpt lat="38.047168" lon="-1.689725">
        <ele>667.521</ele>
        <time>2017-03-18T12:08:43Z</time>
      </trkpt>
      <trkpt lat="38.047071" lon="-1.689699">
        <ele>667.841</ele>
        <time>2017-03-18T12:08:46Z</time>
      </trkpt>
      <trkpt lat="38.046951" lon="-1.689660">
        <ele>668.205</ele>
        <time>2017-03-18T12:08:50Z</time>
      </trkpt>
      <trkpt lat="38.046854" lon="-1.689626">
        <ele>668.608</ele>
        <time>2017-03-18T12:08:53Z</time>
      </trkpt>
      <trkpt lat="38.046753" lon="-1.689554">
        <ele>669.043</ele>
        <time>2017-03-18T12:08:56Z</time>
      </trkpt>
      <trkpt lat="38.046645" lon="-1.689485">
        <ele>674.048</ele>
        <time>2017-03-18T12:09:00Z</time>
      </trkpt>
      <trkpt lat="38.046552" lon="-1.689424">
        <ele>676.340</ele>
        <time>2017-03-18T12:09:02Z</time>
      </trkpt>
      <trkpt lat="38.046462" lon="-1.689354">
        <ele>676.885</ele>
        <time>2017-03-18T12:09:04Z</time>
      </trkpt>
      <trkpt lat="38.046345" lon="-1.689270">
        <ele>676.293</ele>
        <time>2017-03-18T12:09:06Z</time>
      </trkpt>
      <trkpt lat="38.046239" lon="-1.689235">
        <ele>676.937</ele>
        <time>2017-03-18T12:09:09Z</time>
      </trkpt>
      <trkpt lat="38.046121" lon="-1.689224">
        <ele>677.493</ele>
        <time>2017-03-18T12:09:11Z</time>
      </trkpt>
      <trkpt lat="38.046026" lon="-1.689252">
        <ele>677.793</ele>
        <time>2017-03-18T12:09:14Z</time>
      </trkpt>
      <trkpt lat="38.045926" lon="-1.689321">
        <ele>678.113</ele>
        <time>2017-03-18T12:09:18Z</time>
      </trkpt>
      <trkpt lat="38.045821" lon="-1.689364">
        <ele>678.943</ele>
        <time>2017-03-18T12:09:22Z</time>
      </trkpt>
      <trkpt lat="38.045712" lon="-1.689393">
        <ele>679.207</ele>
        <time>2017-03-18T12:09:26Z</time>
      </trkpt>
      <trkpt lat="38.045603" lon="-1.689396">
        <ele>679.308</ele>
        <time>2017-03-18T12:09:30Z</time>
      </trkpt>
      <trkpt lat="38.045488" lon="-1.689401">
        <ele>679.272</ele>
        <time>2017-03-18T12:09:34Z</time>
      </trkpt>
      <trkpt lat="38.045374" lon="-1.689399">
        <ele>679.287</ele>
        <time>2017-03-18T12:09:38Z</time>
      </trkpt>
      <trkpt lat="38.045257" lon="-1.689366">
        <ele>679.429</ele>
        <time>2017-03-18T12:09:42Z</time>
      </trkpt>
      <trkpt lat="38.045150" lon="-1.689354">
        <ele>679.684</ele>
        <time>2017-03-18T12:09:46Z</time>
      </trkpt>
      <trkpt lat="38.045038" lon="-1.689358">
        <ele>679.962</ele>
        <time>2017-03-18T12:09:50Z</time>
      </trkpt>
      <trkpt lat="38.044933" lon="-1.689348">
        <ele>680.296</ele>
        <time>2017-03-18T12:09:54Z</time>
      </trkpt>
      <trkpt lat="38.044825" lon="-1.689350">
        <ele>680.462</ele>
        <time>2017-03-18T12:09:58Z</time>
      </trkpt>
      <trkpt lat="38.044715" lon="-1.689367">
        <ele>680.872</ele>
        <time>2017-03-18T12:10:02Z</time>
      </trkpt>
      <trkpt lat="38.044599" lon="-1.689374">
        <ele>681.217</ele>
        <time>2017-03-18T12:10:06Z</time>
      </trkpt>
      <trkpt lat="38.044463" lon="-1.689364">
        <ele>681.687</ele>
        <time>2017-03-18T12:10:10Z</time>
      </trkpt>
      <trkpt lat="38.044358" lon="-1.689342">
        <ele>681.915</ele>
        <time>2017-03-18T12:10:14Z</time>
      </trkpt>
      <trkpt lat="38.044248" lon="-1.689332">
        <ele>682.308</ele>
        <time>2017-03-18T12:10:19Z</time>
      </trkpt>
      <trkpt lat="38.044142" lon="-1.689318">
        <ele>682.962</ele>
        <time>2017-03-18T12:10:24Z</time>
      </trkpt>
      <trkpt lat="38.044042" lon="-1.689289">
        <ele>683.597</ele>
        <time>2017-03-18T12:10:30Z</time>
      </trkpt>
      <trkpt lat="38.043936" lon="-1.689269">
        <ele>684.319</ele>
        <time>2017-03-18T12:10:35Z</time>
      </trkpt>
      <trkpt lat="38.043848" lon="-1.689230">
        <ele>684.924</ele>
        <time>2017-03-18T12:10:39Z</time>
      </trkpt>
      <trkpt lat="38.043786" lon="-1.689143">
        <ele>685.642</ele>
        <time>2017-03-18T12:10:43Z</time>
      </trkpt>
      <trkpt lat="38.043749" lon="-1.689016">
        <ele>686.476</ele>
        <time>2017-03-18T12:10:48Z</time>
      </trkpt>
      <trkpt lat="38.043692" lon="-1.688903">
        <ele>686.762</ele>
        <time>2017-03-18T12:10:52Z</time>
      </trkpt>
      <trkpt lat="38.043653" lon="-1.688778">
        <ele>687.142</ele>
        <time>2017-03-18T12:10:56Z</time>
      </trkpt>
      <trkpt lat="38.043640" lon="-1.688655">
        <ele>687.678</ele>
        <time>2017-03-18T12:11:00Z</time>
      </trkpt>
      <trkpt lat="38.043645" lon="-1.688507">
        <ele>687.933</ele>
        <time>2017-03-18T12:11:04Z</time>
      </trkpt>
      <trkpt lat="38.043639" lon="-1.688361">
        <ele>688.326</ele>
        <time>2017-03-18T12:11:08Z</time>
      </trkpt>
      <trkpt lat="38.043639" lon="-1.688208">
        <ele>688.708</ele>
        <time>2017-03-18T12:11:12Z</time>
      </trkpt>
      <trkpt lat="38.043643" lon="-1.688085">
        <ele>689.078</ele>
        <time>2017-03-18T12:11:14Z</time>
      </trkpt>
      <trkpt lat="38.043652" lon="-1.687962">
        <ele>689.393</ele>
        <time>2017-03-18T12:11:17Z</time>
      </trkpt>
      <trkpt lat="38.043665" lon="-1.687834">
        <ele>689.565</ele>
        <time>2017-03-18T12:11:20Z</time>
      </trkpt>
      <trkpt lat="38.043675" lon="-1.687712">
        <ele>689.830</ele>
        <time>2017-03-18T12:11:23Z</time>
      </trkpt>
      <trkpt lat="38.043690" lon="-1.687583">
        <ele>690.248</ele>
        <time>2017-03-18T12:11:26Z</time>
      </trkpt>
      <trkpt lat="38.043713" lon="-1.687456">
        <ele>690.562</ele>
        <time>2017-03-18T12:11:29Z</time>
      </trkpt>
      <trkpt lat="38.043735" lon="-1.687331">
        <ele>690.778</ele>
        <time>2017-03-18T12:11:32Z</time>
      </trkpt>
      <trkpt lat="38.043748" lon="-1.687202">
        <ele>691.068</ele>
        <time>2017-03-18T12:11:35Z</time>
      </trkpt>
      <trkpt lat="38.043768" lon="-1.687075">
        <ele>691.362</ele>
        <time>2017-03-18T12:11:38Z</time>
      </trkpt>
      <trkpt lat="38.043793" lon="-1.686957">
        <ele>691.583</ele>
        <time>2017-03-18T12:11:42Z</time>
      </trkpt>
      <trkpt lat="38.043822" lon="-1.686812">
        <ele>691.911</ele>
        <time>2017-03-18T12:11:46Z</time>
      </trkpt>
      <trkpt lat="38.043860" lon="-1.686684">
        <ele>692.208</ele>
        <time>2017-03-18T12:11:50Z</time>
      </trkpt>
      <trkpt lat="38.043877" lon="-1.686563">
        <ele>692.537</ele>
        <time>2017-03-18T12:11:54Z</time>
      </trkpt>
      <trkpt lat="38.043874" lon="-1.686427">
        <ele>692.962</ele>
        <time>2017-03-18T12:11:58Z</time>
      </trkpt>
      <trkpt lat="38.043871" lon="-1.686304">
        <ele>693.394</ele>
        <time>2017-03-18T12:12:03Z</time>
      </trkpt>
      <trkpt lat="38.043869" lon="-1.686176">
        <ele>693.799</ele>
        <time>2017-03-18T12:12:07Z</time>
      </trkpt>
      <trkpt lat="38.043869" lon="-1.686049">
        <ele>694.097</ele>
        <time>2017-03-18T12:12:11Z</time>
      </trkpt>
      <trkpt lat="38.043859" lon="-1.685915">
        <ele>694.411</ele>
        <time>2017-03-18T12:12:15Z</time>
      </trkpt>
      <trkpt lat="38.043846" lon="-1.685791">
        <ele>694.667</ele>
        <time>2017-03-18T12:12:19Z</time>
      </trkpt>
      <trkpt lat="38.043806" lon="-1.685658">
        <ele>694.897</ele>
        <time>2017-03-18T12:12:23Z</time>
      </trkpt>
      <trkpt lat="38.043769" lon="-1.685527">
        <ele>695.053</ele>
        <time>2017-03-18T12:12:26Z</time>
      </trkpt>
      <trkpt lat="38.043727" lon="-1.685401">
        <ele>695.104</ele>
        <time>2017-03-18T12:12:30Z</time>
      </trkpt>
      <trkpt lat="38.043698" lon="-1.685246">
        <ele>695.314</ele>
        <time>2017-03-18T12:12:35Z</time>
      </trkpt>
      <trkpt lat="38.043679" lon="-1.685124">
        <ele>695.708</ele>
        <time>2017-03-18T12:12:39Z</time>
      </trkpt>
      <trkpt lat="38.043641" lon="-1.684993">
        <ele>696.296</ele>
        <time>2017-03-18T12:12:44Z</time>
      </trkpt>
      <trkpt lat="38.043621" lon="-1.684879">
        <ele>696.791</ele>
        <time>2017-03-18T12:12:48Z</time>
      </trkpt>
      <trkpt lat="38.043575" lon="-1.684771">
        <ele>697.163</ele>
        <time>2017-03-18T12:12:53Z</time>
      </trkpt>
      <trkpt lat="38.043558" lon="-1.684651">
        <ele>697.558</ele>
        <time>2017-03-18T12:12:58Z</time>
      </trkpt>
      <trkpt lat="38.043527" lon="-1.684537">
        <ele>697.866</ele>
        <time>2017-03-18T12:13:03Z</time>
      </trkpt>
      <trkpt lat="38.043498" lon="-1.684423">
        <ele>698.370</ele>
        <time>2017-03-18T12:13:07Z</time>
      </trkpt>
      <trkpt lat="38.043459" lon="-1.684303">
        <ele>698.856</ele>
        <time>2017-03-18T12:13:11Z</time>
      </trkpt>
      <trkpt lat="38.043432" lon="-1.684180">
        <ele>699.486</ele>
        <time>2017-03-18T12:13:15Z</time>
      </trkpt>
      <trkpt lat="38.043395" lon="-1.684049">
        <ele>699.818</ele>
        <time>2017-03-18T12:13:20Z</time>
      </trkpt>
      <trkpt lat="38.043349" lon="-1.683948">
        <ele>700.198</ele>
        <time>2017-03-18T12:13:24Z</time>
      </trkpt>
      <trkpt lat="38.043265" lon="-1.683847">
        <ele>700.317</ele>
        <time>2017-03-18T12:13:28Z</time>
      </trkpt>
      <trkpt lat="38.043209" lon="-1.683758">
        <ele>700.508</ele>
        <time>2017-03-18T12:13:32Z</time>
      </trkpt>
      <trkpt lat="38.043142" lon="-1.683660">
        <ele>700.832</ele>
        <time>2017-03-18T12:13:36Z</time>
      </trkpt>
      <trkpt lat="38.043074" lon="-1.683556">
        <ele>700.917</ele>
        <time>2017-03-18T12:13:40Z</time>
      </trkpt>
      <trkpt lat="38.043013" lon="-1.683462">
        <ele>701.089</ele>
        <time>2017-03-18T12:13:44Z</time>
      </trkpt>
      <trkpt lat="38.042958" lon="-1.683355">
        <ele>701.154</ele>
        <time>2017-03-18T12:13:47Z</time>
      </trkpt>
      <trkpt lat="38.042925" lon="-1.683236">
        <ele>701.462</ele>
        <time>2017-03-18T12:13:51Z</time>
      </trkpt>
      <trkpt lat="38.042914" lon="-1.683110">
        <ele>701.816</ele>
        <time>2017-03-18T12:13:55Z</time>
      </trkpt>
      <trkpt lat="38.042917" lon="-1.682991">
        <ele>702.022</ele>
        <time>2017-03-18T12:13:59Z</time>
      </trkpt>
      <trkpt lat="38.042917" lon="-1.682871">
        <ele>702.352</ele>
        <time>2017-03-18T12:14:03Z</time>
      </trkpt>
      <trkpt lat="38.042912" lon="-1.682752">
        <ele>702.772</ele>
        <time>2017-03-18T12:14:07Z</time>
      </trkpt>
      <trkpt lat="38.042904" lon="-1.682625">
        <ele>703.113</ele>
        <time>2017-03-18T12:14:11Z</time>
      </trkpt>
      <trkpt lat="38.042893" lon="-1.682487">
        <ele>703.714</ele>
        <time>2017-03-18T12:14:15Z</time>
      </trkpt>
      <trkpt lat="38.042889" lon="-1.682354">
        <ele>704.308</ele>
        <time>2017-03-18T12:14:20Z</time>
      </trkpt>
      <trkpt lat="38.042889" lon="-1.682219">
        <ele>705.098</ele>
        <time>2017-03-18T12:14:24Z</time>
      </trkpt>
      <trkpt lat="38.042879" lon="-1.682093">
        <ele>705.463</ele>
        <time>2017-03-18T12:14:28Z</time>
      </trkpt>
      <trkpt lat="38.042864" lon="-1.681964">
        <ele>705.825</ele>
        <time>2017-03-18T12:14:32Z</time>
      </trkpt>
      <trkpt lat="38.042843" lon="-1.681836">
        <ele>706.220</ele>
        <time>2017-03-18T12:14:36Z</time>
      </trkpt>
      <trkpt lat="38.042814" lon="-1.681709">
        <ele>706.618</ele>
        <time>2017-03-18T12:14:40Z</time>
      </trkpt>
      <trkpt lat="38.042782" lon="-1.681576">
        <ele>707.222</ele>
        <time>2017-03-18T12:14:44Z</time>
      </trkpt>
      <trkpt lat="38.042741" lon="-1.681473">
        <ele>707.748</ele>
        <time>2017-03-18T12:14:48Z</time>
      </trkpt>
      <trkpt lat="38.042713" lon="-1.681350">
        <ele>707.948</ele>
        <time>2017-03-18T12:14:53Z</time>
      </trkpt>
      <trkpt lat="38.042692" lon="-1.681229">
        <ele>708.037</ele>
        <time>2017-03-18T12:14:57Z</time>
      </trkpt>
      <trkpt lat="38.042655" lon="-1.681114">
        <ele>707.949</ele>
        <time>2017-03-18T12:15:01Z</time>
      </trkpt>
      <trkpt lat="38.042600" lon="-1.680993">
        <ele>707.913</ele>
        <time>2017-03-18T12:15:05Z</time>
      </trkpt>
      <trkpt lat="38.042564" lon="-1.680886">
        <ele>708.108</ele>
        <time>2017-03-18T12:15:08Z</time>
      </trkpt>
      <trkpt lat="38.042530" lon="-1.680777">
        <ele>708.454</ele>
        <time>2017-03-18T12:15:13Z</time>
      </trkpt>
      <trkpt lat="38.042502" lon="-1.680655">
        <ele>708.689</ele>
        <time>2017-03-18T12:15:18Z</time>
      </trkpt>
      <trkpt lat="38.042468" lon="-1.680525">
        <ele>709.541</ele>
        <time>2017-03-18T12:15:23Z</time>
      </trkpt>
      <trkpt lat="38.042436" lon="-1.680409">
        <ele>709.776</ele>
        <time>2017-03-18T12:15:27Z</time>
      </trkpt>
      <trkpt lat="38.042392" lon="-1.680290">
        <ele>710.034</ele>
        <time>2017-03-18T12:15:31Z</time>
      </trkpt>
      <trkpt lat="38.042352" lon="-1.680176">
        <ele>709.928</ele>
        <time>2017-03-18T12:15:35Z</time>
      </trkpt>
      <trkpt lat="38.042305" lon="-1.680067">
        <ele>710.034</ele>
        <time>2017-03-18T12:15:39Z</time>
      </trkpt>
      <trkpt lat="38.042240" lon="-1.679944">
        <ele>710.234</ele>
        <time>2017-03-18T12:15:44Z</time>
      </trkpt>
      <trkpt lat="38.042176" lon="-1.679833">
        <ele>710.432</ele>
        <time>2017-03-18T12:15:48Z</time>
      </trkpt>
      <trkpt lat="38.042116" lon="-1.679720">
        <ele>710.992</ele>
        <time>2017-03-18T12:15:52Z</time>
      </trkpt>
      <trkpt lat="38.042047" lon="-1.679613">
        <ele>711.111</ele>
        <time>2017-03-18T12:15:56Z</time>
      </trkpt>
      <trkpt lat="38.041976" lon="-1.679506">
        <ele>711.508</ele>
        <time>2017-03-18T12:16:00Z</time>
      </trkpt>
      <trkpt lat="38.041916" lon="-1.679410">
        <ele>712.554</ele>
        <time>2017-03-18T12:16:04Z</time>
      </trkpt>
      <trkpt lat="38.041849" lon="-1.679297">
        <ele>713.139</ele>
        <time>2017-03-18T12:16:09Z</time>
      </trkpt>
      <trkpt lat="38.041794" lon="-1.679185">
        <ele>713.811</ele>
        <time>2017-03-18T12:16:14Z</time>
      </trkpt>
      <trkpt lat="38.041762" lon="-1.679072">
        <ele>714.296</ele>
        <time>2017-03-18T12:16:18Z</time>
      </trkpt>
      <trkpt lat="38.041725" lon="-1.678945">
        <ele>714.414</ele>
        <time>2017-03-18T12:16:22Z</time>
      </trkpt>
      <trkpt lat="38.041710" lon="-1.678781">
        <ele>714.978</ele>
        <time>2017-03-18T12:16:27Z</time>
      </trkpt>
      <trkpt lat="38.041697" lon="-1.678664">
        <ele>715.324</ele>
        <time>2017-03-18T12:16:31Z</time>
      </trkpt>
      <trkpt lat="38.041682" lon="-1.678534">
        <ele>715.684</ele>
        <time>2017-03-18T12:16:35Z</time>
      </trkpt>
      <trkpt lat="38.041687" lon="-1.678415">
        <ele>716.183</ele>
        <time>2017-03-18T12:16:39Z</time>
      </trkpt>
      <trkpt lat="38.041698" lon="-1.678289">
        <ele>716.525</ele>
        <time>2017-03-18T12:16:43Z</time>
      </trkpt>
      <trkpt lat="38.041700" lon="-1.678159">
        <ele>717.017</ele>
        <time>2017-03-18T12:16:47Z</time>
      </trkpt>
      <trkpt lat="38.041713" lon="-1.678022">
        <ele>717.608</ele>
        <time>2017-03-18T12:16:51Z</time>
      </trkpt>
      <trkpt lat="38.041724" lon="-1.677898">
        <ele>718.179</ele>
        <time>2017-03-18T12:16:55Z</time>
      </trkpt>
      <trkpt lat="38.041752" lon="-1.677766">
        <ele>718.524</ele>
        <time>2017-03-18T12:16:59Z</time>
      </trkpt>
      <trkpt lat="38.041766" lon="-1.677620">
        <ele>719.066</ele>
        <time>2017-03-18T12:17:04Z</time>
      </trkpt>
      <trkpt lat="38.041796" lon="-1.677492">
        <ele>720.071</ele>
        <time>2017-03-18T12:17:10Z</time>
      </trkpt>
      <trkpt lat="38.041847" lon="-1.677373">
        <ele>720.749</ele>
        <time>2017-03-18T12:17:15Z</time>
      </trkpt>
      <trkpt lat="38.041873" lon="-1.677262">
        <ele>721.073</ele>
        <time>2017-03-18T12:17:18Z</time>
      </trkpt>
      <trkpt lat="38.041887" lon="-1.677109">
        <ele>721.489</ele>
        <time>2017-03-18T12:17:22Z</time>
      </trkpt>
      <trkpt lat="38.041879" lon="-1.676961">
        <ele>722.859</ele>
        <time>2017-03-18T12:17:25Z</time>
      </trkpt>
      <trkpt lat="38.041868" lon="-1.676793">
        <ele>722.696</ele>
        <time>2017-03-18T12:17:28Z</time>
      </trkpt>
      <trkpt lat="38.041856" lon="-1.676671">
        <ele>722.031</ele>
        <time>2017-03-18T12:17:30Z</time>
      </trkpt>
      <trkpt lat="38.041838" lon="-1.676528">
        <ele>720.824</ele>
        <time>2017-03-18T12:17:32Z</time>
      </trkpt>
      <trkpt lat="38.041827" lon="-1.676370">
        <ele>720.008</ele>
        <time>2017-03-18T12:17:34Z</time>
      </trkpt>
      <trkpt lat="38.041819" lon="-1.676213">
        <ele>719.410</ele>
        <time>2017-03-18T12:17:36Z</time>
      </trkpt>
      <trkpt lat="38.041811" lon="-1.676051">
        <ele>718.945</ele>
        <time>2017-03-18T12:17:38Z</time>
      </trkpt>
      <trkpt lat="38.041810" lon="-1.675889">
        <ele>718.367</ele>
        <time>2017-03-18T12:17:40Z</time>
      </trkpt>
      <trkpt lat="38.041803" lon="-1.675732">
        <ele>717.352</ele>
        <time>2017-03-18T12:17:42Z</time>
      </trkpt>
      <trkpt lat="38.041781" lon="-1.675571">
        <ele>716.360</ele>
        <time>2017-03-18T12:17:44Z</time>
      </trkpt>
      <trkpt lat="38.041742" lon="-1.675397">
        <ele>715.774</ele>
        <time>2017-03-18T12:17:46Z</time>
      </trkpt>
      <trkpt lat="38.041706" lon="-1.675292">
        <ele>715.560</ele>
        <time>2017-03-18T12:17:51Z</time>
      </trkpt>
      <trkpt lat="38.041648" lon="-1.675180">
        <ele>715.820</ele>
        <time>2017-03-18T12:17:58Z</time>
      </trkpt>
      <trkpt lat="38.041590" lon="-1.675074">
        <ele>716.087</ele>
        <time>2017-03-18T12:18:02Z</time>
      </trkpt>
      <trkpt lat="38.041521" lon="-1.674979">
        <ele>716.442</ele>
        <time>2017-03-18T12:18:06Z</time>
      </trkpt>
      <trkpt lat="38.041450" lon="-1.674890">
        <ele>717.426</ele>
        <time>2017-03-18T12:18:09Z</time>
      </trkpt>
      <trkpt lat="38.041392" lon="-1.674780">
        <ele>717.508</ele>
        <time>2017-03-18T12:18:12Z</time>
      </trkpt>
      <trkpt lat="38.041431" lon="-1.674672">
        <ele>717.259</ele>
        <time>2017-03-18T12:18:15Z</time>
      </trkpt>
      <trkpt lat="38.041497" lon="-1.674576">
        <ele>717.284</ele>
        <time>2017-03-18T12:18:18Z</time>
      </trkpt>
      <trkpt lat="38.041572" lon="-1.674492">
        <ele>717.366</ele>
        <time>2017-03-18T12:18:24Z</time>
      </trkpt>
      <trkpt lat="38.041570" lon="-1.674368">
        <ele>716.951</ele>
        <time>2017-03-18T12:18:28Z</time>
      </trkpt>
      <trkpt lat="38.041511" lon="-1.674280">
        <ele>715.419</ele>
        <time>2017-03-18T12:18:30Z</time>
      </trkpt>
      <trkpt lat="38.041424" lon="-1.674154">
        <ele>712.753</ele>
        <time>2017-03-18T12:18:33Z</time>
      </trkpt>
      <trkpt lat="38.041357" lon="-1.674060">
        <ele>711.089</ele>
        <time>2017-03-18T12:18:35Z</time>
      </trkpt>
      <trkpt lat="38.041292" lon="-1.673975">
        <ele>710.299</ele>
        <time>2017-03-18T12:18:37Z</time>
      </trkpt>
      <trkpt lat="38.041214" lon="-1.673870">
        <ele>710.536</ele>
        <time>2017-03-18T12:18:39Z</time>
      </trkpt>
      <trkpt lat="38.041148" lon="-1.673775">
        <ele>710.417</ele>
        <time>2017-03-18T12:18:41Z</time>
      </trkpt>
      <trkpt lat="38.041080" lon="-1.673687">
        <ele>710.218</ele>
        <time>2017-03-18T12:18:43Z</time>
      </trkpt>
      <trkpt lat="38.041010" lon="-1.673591">
        <ele>710.708</ele>
        <time>2017-03-18T12:18:45Z</time>
      </trkpt>
      <trkpt lat="38.040931" lon="-1.673486">
        <ele>711.344</ele>
        <time>2017-03-18T12:18:47Z</time>
      </trkpt>
      <trkpt lat="38.040833" lon="-1.673379">
        <ele>711.719</ele>
        <time>2017-03-18T12:18:49Z</time>
      </trkpt>
      <trkpt lat="38.040734" lon="-1.673269">
        <ele>712.181</ele>
        <time>2017-03-18T12:18:51Z</time>
      </trkpt>
      <trkpt lat="38.040655" lon="-1.673165">
        <ele>712.266</ele>
        <time>2017-03-18T12:18:53Z</time>
      </trkpt>
      <trkpt lat="38.040584" lon="-1.673057">
        <ele>711.994</ele>
        <time>2017-03-18T12:18:55Z</time>
      </trkpt>
      <trkpt lat="38.040511" lon="-1.672954">
        <ele>711.958</ele>
        <time>2017-03-18T12:18:57Z</time>
      </trkpt>
      <trkpt lat="38.040443" lon="-1.672858">
        <ele>711.884</ele>
        <time>2017-03-18T12:18:59Z</time>
      </trkpt>
      <trkpt lat="38.040376" lon="-1.672755">
        <ele>711.744</ele>
        <time>2017-03-18T12:19:01Z</time>
      </trkpt>
      <trkpt lat="38.040305" lon="-1.672652">
        <ele>712.089</ele>
        <time>2017-03-18T12:19:03Z</time>
      </trkpt>
      <trkpt lat="38.040233" lon="-1.672557">
        <ele>712.406</ele>
        <time>2017-03-18T12:19:05Z</time>
      </trkpt>
      <trkpt lat="38.040183" lon="-1.672437">
        <ele>712.126</ele>
        <time>2017-03-18T12:19:09Z</time>
      </trkpt>
      <trkpt lat="38.040200" lon="-1.672283">
        <ele>711.308</ele>
        <time>2017-03-18T12:19:13Z</time>
      </trkpt>
      <trkpt lat="38.040191" lon="-1.672121">
        <ele>706.649</ele>
        <time>2017-03-18T12:19:16Z</time>
      </trkpt>
      <trkpt lat="38.040197" lon="-1.671956">
        <ele>704.864</ele>
        <time>2017-03-18T12:19:19Z</time>
      </trkpt>
      <trkpt lat="38.040201" lon="-1.671840">
        <ele>703.566</ele>
        <time>2017-03-18T12:19:21Z</time>
      </trkpt>
      <trkpt lat="38.040183" lon="-1.671662">
        <ele>702.321</ele>
        <time>2017-03-18T12:19:24Z</time>
      </trkpt>
      <trkpt lat="38.040174" lon="-1.671539">
        <ele>702.049</ele>
        <time>2017-03-18T12:19:26Z</time>
      </trkpt>
      <trkpt lat="38.040165" lon="-1.671403">
        <ele>701.053</ele>
        <time>2017-03-18T12:19:28Z</time>
      </trkpt>
      <trkpt lat="38.040160" lon="-1.671271">
        <ele>699.079</ele>
        <time>2017-03-18T12:19:30Z</time>
      </trkpt>
      <trkpt lat="38.040155" lon="-1.671131">
        <ele>696.959</ele>
        <time>2017-03-18T12:19:33Z</time>
      </trkpt>
      <trkpt lat="38.040201" lon="-1.671012">
        <ele>696.644</ele>
        <time>2017-03-18T12:19:38Z</time>
      </trkpt>
      <trkpt lat="38.040296" lon="-1.670955">
        <ele>696.205</ele>
        <time>2017-03-18T12:19:41Z</time>
      </trkpt>
      <trkpt lat="38.040378" lon="-1.670897">
        <ele>696.815</ele>
        <time>2017-03-18T12:19:43Z</time>
      </trkpt>
      <trkpt lat="38.040463" lon="-1.670749">
        <ele>698.208</ele>
        <time>2017-03-18T12:19:46Z</time>
      </trkpt>
      <trkpt lat="38.040508" lon="-1.670623">
        <ele>697.675</ele>
        <time>2017-03-18T12:19:48Z</time>
      </trkpt>
      <trkpt lat="38.040547" lon="-1.670513">
        <ele>697.880</ele>
        <time>2017-03-18T12:19:50Z</time>
      </trkpt>
      <trkpt lat="38.040619" lon="-1.670366">
        <ele>697.312</ele>
        <time>2017-03-18T12:19:53Z</time>
      </trkpt>
      <trkpt lat="38.040688" lon="-1.670265">
        <ele>697.197</ele>
        <time>2017-03-18T12:19:56Z</time>
      </trkpt>
      <trkpt lat="38.040717" lon="-1.670151">
        <ele>696.965</ele>
        <time>2017-03-18T12:19:59Z</time>
      </trkpt>
      <trkpt lat="38.040800" lon="-1.670080">
        <ele>697.269</ele>
        <time>2017-03-18T12:20:04Z</time>
      </trkpt>
      <trkpt lat="38.040889" lon="-1.670158">
        <ele>697.075</ele>
        <time>2017-03-18T12:20:07Z</time>
      </trkpt>
      <trkpt lat="38.040966" lon="-1.670221">
        <ele>696.415</ele>
        <time>2017-03-18T12:20:09Z</time>
      </trkpt>
      <trkpt lat="38.041068" lon="-1.670288">
        <ele>695.746</ele>
        <time>2017-03-18T12:20:12Z</time>
      </trkpt>
      <trkpt lat="38.041144" lon="-1.670361">
        <ele>697.088</ele>
        <time>2017-03-18T12:20:15Z</time>
      </trkpt>
      <trkpt lat="38.041244" lon="-1.670434">
        <ele>697.716</ele>
        <time>2017-03-18T12:20:19Z</time>
      </trkpt>
      <trkpt lat="38.041342" lon="-1.670491">
        <ele>700.108</ele>
        <time>2017-03-18T12:20:22Z</time>
      </trkpt>
      <trkpt lat="38.041440" lon="-1.670547">
        <ele>702.525</ele>
        <time>2017-03-18T12:20:25Z</time>
      </trkpt>
      <trkpt lat="38.041569" lon="-1.670517">
        <ele>702.940</ele>
        <time>2017-03-18T12:20:31Z</time>
      </trkpt>
      <trkpt lat="38.041647" lon="-1.670423">
        <ele>702.792</ele>
        <time>2017-03-18T12:20:34Z</time>
      </trkpt>
      <trkpt lat="38.041670" lon="-1.670312">
        <ele>702.467</ele>
        <time>2017-03-18T12:20:36Z</time>
      </trkpt>
      <trkpt lat="38.041694" lon="-1.670181">
        <ele>701.665</ele>
        <time>2017-03-18T12:20:40Z</time>
      </trkpt>
      <trkpt lat="38.041707" lon="-1.670068">
        <ele>698.059</ele>
        <time>2017-03-18T12:22:19Z</time>
      </trkpt>
      <trkpt lat="38.041727" lon="-1.669935">
        <ele>695.195</ele>
        <time>2017-03-18T12:22:22Z</time>
      </trkpt>
      <trkpt lat="38.041737" lon="-1.669769">
        <ele>692.425</ele>
        <time>2017-03-18T12:22:25Z</time>
      </trkpt>
      <trkpt lat="38.041751" lon="-1.669645">
        <ele>690.899</ele>
        <time>2017-03-18T12:22:27Z</time>
      </trkpt>
      <trkpt lat="38.041764" lon="-1.669508">
        <ele>689.607</ele>
        <time>2017-03-18T12:22:29Z</time>
      </trkpt>
      <trkpt lat="38.041783" lon="-1.669363">
        <ele>688.227</ele>
        <time>2017-03-18T12:22:31Z</time>
      </trkpt>
      <trkpt lat="38.041803" lon="-1.669219">
        <ele>687.608</ele>
        <time>2017-03-18T12:22:33Z</time>
      </trkpt>
      <trkpt lat="38.041822" lon="-1.669068">
        <ele>687.740</ele>
        <time>2017-03-18T12:22:35Z</time>
      </trkpt>
      <trkpt lat="38.041840" lon="-1.668909">
        <ele>687.345</ele>
        <time>2017-03-18T12:22:37Z</time>
      </trkpt>
      <trkpt lat="38.041857" lon="-1.668749">
        <ele>686.747</ele>
        <time>2017-03-18T12:22:39Z</time>
      </trkpt>
      <trkpt lat="38.041876" lon="-1.668588">
        <ele>686.142</ele>
        <time>2017-03-18T12:22:41Z</time>
      </trkpt>
      <trkpt lat="38.041896" lon="-1.668429">
        <ele>685.470</ele>
        <time>2017-03-18T12:22:43Z</time>
      </trkpt>
      <trkpt lat="38.041917" lon="-1.668276">
        <ele>684.734</ele>
        <time>2017-03-18T12:22:45Z</time>
      </trkpt>
      <trkpt lat="38.041937" lon="-1.668106">
        <ele>684.250</ele>
        <time>2017-03-18T12:22:47Z</time>
      </trkpt>
      <trkpt lat="38.041952" lon="-1.667936">
        <ele>683.850</ele>
        <time>2017-03-18T12:22:49Z</time>
      </trkpt>
      <trkpt lat="38.041971" lon="-1.667766">
        <ele>683.744</ele>
        <time>2017-03-18T12:22:51Z</time>
      </trkpt>
      <trkpt lat="38.041982" lon="-1.667594">
        <ele>683.405</ele>
        <time>2017-03-18T12:22:53Z</time>
      </trkpt>
      <trkpt lat="38.041996" lon="-1.667416">
        <ele>683.015</ele>
        <time>2017-03-18T12:22:54Z</time>
      </trkpt>
      <trkpt lat="38.042014" lon="-1.667250">
        <ele>682.708</ele>
        <time>2017-03-18T12:22:56Z</time>
      </trkpt>
      <trkpt lat="38.042030" lon="-1.667073">
        <ele>682.545</ele>
        <time>2017-03-18T12:22:58Z</time>
      </trkpt>
      <trkpt lat="38.042047" lon="-1.666904">
        <ele>682.550</ele>
        <time>2017-03-18T12:23:00Z</time>
      </trkpt>
      <trkpt lat="38.042073" lon="-1.666729">
        <ele>682.632</ele>
        <time>2017-03-18T12:23:02Z</time>
      </trkpt>
      <trkpt lat="38.042094" lon="-1.666562">
        <ele>682.867</ele>
        <time>2017-03-18T12:23:04Z</time>
      </trkpt>
      <trkpt lat="38.042114" lon="-1.666395">
        <ele>682.935</ele>
        <time>2017-03-18T12:23:06Z</time>
      </trkpt>
      <trkpt lat="38.042145" lon="-1.666152">
        <ele>682.599</ele>
        <time>2017-03-18T12:23:09Z</time>
      </trkpt>
      <trkpt lat="38.042164" lon="-1.665989">
        <ele>682.375</ele>
        <time>2017-03-18T12:23:11Z</time>
      </trkpt>
      <trkpt lat="38.042188" lon="-1.665835">
        <ele>681.985</ele>
        <time>2017-03-18T12:23:13Z</time>
      </trkpt>
      <trkpt lat="38.042210" lon="-1.665691">
        <ele>681.231</ele>
        <time>2017-03-18T12:23:15Z</time>
      </trkpt>
      <trkpt lat="38.042235" lon="-1.665550">
        <ele>680.061</ele>
        <time>2017-03-18T12:23:17Z</time>
      </trkpt>
      <trkpt lat="38.042250" lon="-1.665408">
        <ele>679.007</ele>
        <time>2017-03-18T12:23:19Z</time>
      </trkpt>
      <trkpt lat="38.042265" lon="-1.665253">
        <ele>678.908</ele>
        <time>2017-03-18T12:23:21Z</time>
      </trkpt>
      <trkpt lat="38.042280" lon="-1.665116">
        <ele>679.474</ele>
        <time>2017-03-18T12:23:23Z</time>
      </trkpt>
      <trkpt lat="38.042290" lon="-1.664983">
        <ele>679.999</ele>
        <time>2017-03-18T12:23:25Z</time>
      </trkpt>
      <trkpt lat="38.042297" lon="-1.664862">
        <ele>680.881</ele>
        <time>2017-03-18T12:23:27Z</time>
      </trkpt>
      <trkpt lat="38.042311" lon="-1.664738">
        <ele>681.586</ele>
        <time>2017-03-18T12:23:29Z</time>
      </trkpt>
      <trkpt lat="38.042327" lon="-1.664602">
        <ele>681.954</ele>
        <time>2017-03-18T12:23:31Z</time>
      </trkpt>
      <trkpt lat="38.042343" lon="-1.664474">
        <ele>682.248</ele>
        <time>2017-03-18T12:23:34Z</time>
      </trkpt>
      <trkpt lat="38.042356" lon="-1.664343">
        <ele>682.554</ele>
        <time>2017-03-18T12:23:36Z</time>
      </trkpt>
      <trkpt lat="38.042364" lon="-1.664211">
        <ele>682.784</ele>
        <time>2017-03-18T12:23:38Z</time>
      </trkpt>
      <trkpt lat="38.042375" lon="-1.664087">
        <ele>682.731</ele>
        <time>2017-03-18T12:23:40Z</time>
      </trkpt>
      <trkpt lat="38.042390" lon="-1.663971">
        <ele>682.561</ele>
        <time>2017-03-18T12:23:42Z</time>
      </trkpt>
      <trkpt lat="38.042408" lon="-1.663855">
        <ele>682.207</ele>
        <time>2017-03-18T12:23:44Z</time>
      </trkpt>
      <trkpt lat="38.042423" lon="-1.663733">
        <ele>682.508</ele>
        <time>2017-03-18T12:23:46Z</time>
      </trkpt>
      <trkpt lat="38.042438" lon="-1.663603">
        <ele>683.014</ele>
        <time>2017-03-18T12:23:48Z</time>
      </trkpt>
      <trkpt lat="38.042452" lon="-1.663482">
        <ele>683.359</ele>
        <time>2017-03-18T12:23:50Z</time>
      </trkpt>
      <trkpt lat="38.042481" lon="-1.663319">
        <ele>683.421</ele>
        <time>2017-03-18T12:23:53Z</time>
      </trkpt>
      <trkpt lat="38.042512" lon="-1.663165">
        <ele>683.476</ele>
        <time>2017-03-18T12:23:56Z</time>
      </trkpt>
      <trkpt lat="38.042546" lon="-1.663011">
        <ele>682.864</ele>
        <time>2017-03-18T12:23:59Z</time>
      </trkpt>
      <trkpt lat="38.042598" lon="-1.662871">
        <ele>683.018</ele>
        <time>2017-03-18T12:24:02Z</time>
      </trkpt>
      <trkpt lat="38.042673" lon="-1.662748">
        <ele>684.074</ele>
        <time>2017-03-18T12:24:05Z</time>
      </trkpt>
      <trkpt lat="38.042764" lon="-1.662846">
        <ele>684.734</ele>
        <time>2017-03-18T12:24:11Z</time>
      </trkpt>
      <trkpt lat="38.042888" lon="-1.662834">
        <ele>684.949</ele>
        <time>2017-03-18T12:24:15Z</time>
      </trkpt>
      <trkpt lat="38.042986" lon="-1.662770">
        <ele>685.202</ele>
        <time>2017-03-18T12:24:19Z</time>
      </trkpt>
      <trkpt lat="38.043110" lon="-1.662680">
        <ele>686.222</ele>
        <time>2017-03-18T12:24:24Z</time>
      </trkpt>
      <trkpt lat="38.043211" lon="-1.662602">
        <ele>687.008</ele>
        <time>2017-03-18T12:24:28Z</time>
      </trkpt>
      <trkpt lat="38.043287" lon="-1.662537">
        <ele>687.495</ele>
        <time>2017-03-18T12:24:31Z</time>
      </trkpt>
      <trkpt lat="38.043386" lon="-1.662458">
        <ele>687.920</ele>
        <time>2017-03-18T12:24:35Z</time>
      </trkpt>
      <trkpt lat="38.043479" lon="-1.662393">
        <ele>688.382</ele>
        <time>2017-03-18T12:24:39Z</time>
      </trkpt>
      <trkpt lat="38.043560" lon="-1.662299">
        <ele>688.627</ele>
        <time>2017-03-18T12:24:42Z</time>
      </trkpt>
      <trkpt lat="38.043649" lon="-1.662219">
        <ele>688.845</ele>
        <time>2017-03-18T12:24:46Z</time>
      </trkpt>
      <trkpt lat="38.043739" lon="-1.662149">
        <ele>689.399</ele>
        <time>2017-03-18T12:24:51Z</time>
      </trkpt>
      <trkpt lat="38.043823" lon="-1.662072">
        <ele>689.825</ele>
        <time>2017-03-18T12:24:56Z</time>
      </trkpt>
      <trkpt lat="38.043902" lon="-1.662008">
        <ele>688.765</ele>
        <time>2017-03-18T12:28:18Z</time>
      </trkpt>
      <trkpt lat="38.043991" lon="-1.661933">
        <ele>688.727</ele>
        <time>2017-03-18T12:28:22Z</time>
      </trkpt>
      <trkpt lat="38.044075" lon="-1.661851">
        <ele>688.468</ele>
        <time>2017-03-18T12:28:25Z</time>
      </trkpt>
      <trkpt lat="38.044148" lon="-1.661773">
        <ele>688.014</ele>
        <time>2017-03-18T12:28:28Z</time>
      </trkpt>
      <trkpt lat="38.044231" lon="-1.661709">
        <ele>687.808</ele>
        <time>2017-03-18T12:28:31Z</time>
      </trkpt>
      <trkpt lat="38.044333" lon="-1.661622">
        <ele>687.533</ele>
        <time>2017-03-18T12:28:35Z</time>
      </trkpt>
      <trkpt lat="38.044424" lon="-1.661536">
        <ele>687.468</ele>
        <time>2017-03-18T12:28:38Z</time>
      </trkpt>
      <trkpt lat="38.044499" lon="-1.661459">
        <ele>687.730</ele>
        <time>2017-03-18T12:28:41Z</time>
      </trkpt>
      <trkpt lat="38.044577" lon="-1.661399">
        <ele>687.735</ele>
        <time>2017-03-18T12:28:44Z</time>
      </trkpt>
      <trkpt lat="38.044667" lon="-1.661301">
        <ele>687.683</ele>
        <time>2017-03-18T12:28:48Z</time>
      </trkpt>
      <trkpt lat="38.044708" lon="-1.661199">
        <ele>687.537</ele>
        <time>2017-03-18T12:28:52Z</time>
      </trkpt>
      <trkpt lat="38.044810" lon="-1.661180">
        <ele>687.263</ele>
        <time>2017-03-18T12:28:59Z</time>
      </trkpt>
      <trkpt lat="38.044890" lon="-1.661276">
        <ele>687.283</ele>
        <time>2017-03-18T12:29:02Z</time>
      </trkpt>
      <trkpt lat="38.044970" lon="-1.661375">
        <ele>687.789</ele>
        <time>2017-03-18T12:29:05Z</time>
      </trkpt>
      <trkpt lat="38.045046" lon="-1.661475">
        <ele>689.406</ele>
        <time>2017-03-18T12:29:08Z</time>
      </trkpt>
      <trkpt lat="38.045119" lon="-1.661562">
        <ele>689.926</ele>
        <time>2017-03-18T12:29:11Z</time>
      </trkpt>
      <trkpt lat="38.045196" lon="-1.661638">
        <ele>690.308</ele>
        <time>2017-03-18T12:29:14Z</time>
      </trkpt>
      <trkpt lat="38.045306" lon="-1.661752">
        <ele>691.089</ele>
        <time>2017-03-18T12:29:17Z</time>
      </trkpt>
      <trkpt lat="38.045395" lon="-1.661845">
        <ele>691.414</ele>
        <time>2017-03-18T12:29:20Z</time>
      </trkpt>
      <trkpt lat="38.045464" lon="-1.661928">
        <ele>691.616</ele>
        <time>2017-03-18T12:29:23Z</time>
      </trkpt>
      <trkpt lat="38.045556" lon="-1.661975">
        <ele>691.961</ele>
        <time>2017-03-18T12:29:29Z</time>
      </trkpt>
      <trkpt lat="38.045610" lon="-1.661879">
        <ele>692.059</ele>
        <time>2017-03-18T12:29:32Z</time>
      </trkpt>
      <trkpt lat="38.045669" lon="-1.661760">
        <ele>692.283</ele>
        <time>2017-03-18T12:29:36Z</time>
      </trkpt>
      <trkpt lat="38.045776" lon="-1.661785">
        <ele>692.249</ele>
        <time>2017-03-18T12:29:40Z</time>
      </trkpt>
      <trkpt lat="38.045855" lon="-1.661860">
        <ele>692.239</ele>
        <time>2017-03-18T12:29:43Z</time>
      </trkpt>
      <trkpt lat="38.045956" lon="-1.661970">
        <ele>692.262</ele>
        <time>2017-03-18T12:29:46Z</time>
      </trkpt>
      <trkpt lat="38.046026" lon="-1.662042">
        <ele>692.283</ele>
        <time>2017-03-18T12:29:48Z</time>
      </trkpt>
      <trkpt lat="38.046101" lon="-1.662106">
        <ele>692.111</ele>
        <time>2017-03-18T12:29:51Z</time>
      </trkpt>
      <trkpt lat="38.046197" lon="-1.662213">
        <ele>693.308</ele>
        <time>2017-03-18T12:29:54Z</time>
      </trkpt>
      <trkpt lat="38.046269" lon="-1.662291">
        <ele>693.797</ele>
        <time>2017-03-18T12:29:56Z</time>
      </trkpt>
      <trkpt lat="38.046355" lon="-1.662370">
        <ele>691.572</ele>
        <time>2017-03-18T12:29:58Z</time>
      </trkpt>
      <trkpt lat="38.046458" lon="-1.662456">
        <ele>689.514</ele>
        <time>2017-03-18T12:30:00Z</time>
      </trkpt>
      <trkpt lat="38.046555" lon="-1.662554">
        <ele>689.029</ele>
        <time>2017-03-18T12:30:02Z</time>
      </trkpt>
      <trkpt lat="38.046639" lon="-1.662639">
        <ele>690.477</ele>
        <time>2017-03-18T12:30:04Z</time>
      </trkpt>
      <trkpt lat="38.046730" lon="-1.662715">
        <ele>689.631</ele>
        <time>2017-03-18T12:30:08Z</time>
      </trkpt>
      <trkpt lat="38.046652" lon="-1.662796">
        <ele>689.337</ele>
        <time>2017-03-18T12:30:12Z</time>
      </trkpt>
      <trkpt lat="38.046576" lon="-1.662903">
        <ele>689.257</ele>
        <time>2017-03-18T12:30:16Z</time>
      </trkpt>
      <trkpt lat="38.046575" lon="-1.663048">
        <ele>688.824</ele>
        <time>2017-03-18T12:30:19Z</time>
      </trkpt>
      <trkpt lat="38.046668" lon="-1.663175">
        <ele>687.504</ele>
        <time>2017-03-18T12:30:21Z</time>
      </trkpt>
      <trkpt lat="38.046741" lon="-1.663269">
        <ele>687.614</ele>
        <time>2017-03-18T12:30:23Z</time>
      </trkpt>
      <trkpt lat="38.046809" lon="-1.663351">
        <ele>687.708</ele>
        <time>2017-03-18T12:30:25Z</time>
      </trkpt>
      <trkpt lat="38.046882" lon="-1.663439">
        <ele>686.643</ele>
        <time>2017-03-18T12:30:27Z</time>
      </trkpt>
      <trkpt lat="38.046959" lon="-1.663525">
        <ele>685.998</ele>
        <time>2017-03-18T12:30:29Z</time>
      </trkpt>
      <trkpt lat="38.047037" lon="-1.663614">
        <ele>687.040</ele>
        <time>2017-03-18T12:30:30Z</time>
      </trkpt>
      <trkpt lat="38.047117" lon="-1.663702">
        <ele>687.945</ele>
        <time>2017-03-18T12:30:32Z</time>
      </trkpt>
      <trkpt lat="38.047198" lon="-1.663799">
        <ele>687.663</ele>
        <time>2017-03-18T12:30:34Z</time>
      </trkpt>
      <trkpt lat="38.047286" lon="-1.663894">
        <ele>687.937</ele>
        <time>2017-03-18T12:30:36Z</time>
      </trkpt>
      <trkpt lat="38.047374" lon="-1.663984">
        <ele>687.643</ele>
        <time>2017-03-18T12:30:38Z</time>
      </trkpt>
      <trkpt lat="38.047455" lon="-1.664060">
        <ele>687.343</ele>
        <time>2017-03-18T12:30:40Z</time>
      </trkpt>
      <trkpt lat="38.047527" lon="-1.664132">
        <ele>687.882</ele>
        <time>2017-03-18T12:30:42Z</time>
      </trkpt>
      <trkpt lat="38.047629" lon="-1.664235">
        <ele>689.543</ele>
        <time>2017-03-18T12:30:45Z</time>
      </trkpt>
      <trkpt lat="38.047715" lon="-1.664327">
        <ele>691.717</ele>
        <time>2017-03-18T12:30:48Z</time>
      </trkpt>
      <trkpt lat="38.047834" lon="-1.664277">
        <ele>692.508</ele>
        <time>2017-03-18T12:30:51Z</time>
      </trkpt>
      <trkpt lat="38.047922" lon="-1.664155">
        <ele>693.199</ele>
        <time>2017-03-18T12:30:54Z</time>
      </trkpt>
      <trkpt lat="38.048025" lon="-1.664016">
        <ele>692.644</ele>
        <time>2017-03-18T12:30:57Z</time>
      </trkpt>
      <trkpt lat="38.048114" lon="-1.663901">
        <ele>690.656</ele>
        <time>2017-03-18T12:31:00Z</time>
      </trkpt>
      <trkpt lat="38.048198" lon="-1.663784">
        <ele>688.511</ele>
        <time>2017-03-18T12:31:03Z</time>
      </trkpt>
      <trkpt lat="38.048267" lon="-1.663669">
        <ele>688.259</ele>
        <time>2017-03-18T12:31:06Z</time>
      </trkpt>
      <trkpt lat="38.048333" lon="-1.663551">
        <ele>686.863</ele>
        <time>2017-03-18T12:31:09Z</time>
      </trkpt>
      <trkpt lat="38.048411" lon="-1.663424">
        <ele>683.529</ele>
        <time>2017-03-18T12:31:12Z</time>
      </trkpt>
      <trkpt lat="38.048491" lon="-1.663306">
        <ele>681.969</ele>
        <time>2017-03-18T12:31:15Z</time>
      </trkpt>
      <trkpt lat="38.048565" lon="-1.663186">
        <ele>681.147</ele>
        <time>2017-03-18T12:31:18Z</time>
      </trkpt>
      <trkpt lat="38.048630" lon="-1.663063">
        <ele>678.129</ele>
        <time>2017-03-18T12:31:21Z</time>
      </trkpt>
      <trkpt lat="38.048696" lon="-1.662949">
        <ele>675.121</ele>
        <time>2017-03-18T12:31:24Z</time>
      </trkpt>
      <trkpt lat="38.048737" lon="-1.662829">
        <ele>672.008</ele>
        <time>2017-03-18T12:31:27Z</time>
      </trkpt>
      <trkpt lat="38.048763" lon="-1.662720">
        <ele>672.045</ele>
        <time>2017-03-18T12:31:30Z</time>
      </trkpt>
      <trkpt lat="38.048785" lon="-1.662605">
        <ele>672.950</ele>
        <time>2017-03-18T12:31:32Z</time>
      </trkpt>
      <trkpt lat="38.048809" lon="-1.662445">
        <ele>671.882</ele>
        <time>2017-03-18T12:31:35Z</time>
      </trkpt>
      <trkpt lat="38.048830" lon="-1.662301">
        <ele>670.857</ele>
        <time>2017-03-18T12:31:37Z</time>
      </trkpt>
      <trkpt lat="38.048842" lon="-1.662176">
        <ele>670.575</ele>
        <time>2017-03-18T12:31:39Z</time>
      </trkpt>
      <trkpt lat="38.048855" lon="-1.662051">
        <ele>670.859</ele>
        <time>2017-03-18T12:31:41Z</time>
      </trkpt>
      <trkpt lat="38.048879" lon="-1.661894">
        <ele>671.255</ele>
        <time>2017-03-18T12:31:43Z</time>
      </trkpt>
      <trkpt lat="38.048905" lon="-1.661754">
        <ele>671.065</ele>
        <time>2017-03-18T12:31:45Z</time>
      </trkpt>
      <trkpt lat="38.048929" lon="-1.661611">
        <ele>671.391</ele>
        <time>2017-03-18T12:31:47Z</time>
      </trkpt>
      <trkpt lat="38.048947" lon="-1.661476">
        <ele>672.181</ele>
        <time>2017-03-18T12:31:48Z</time>
      </trkpt>
      <trkpt lat="38.048966" lon="-1.661329">
        <ele>672.119</ele>
        <time>2017-03-18T12:31:50Z</time>
      </trkpt>
      <trkpt lat="38.048980" lon="-1.661187">
        <ele>671.308</ele>
        <time>2017-03-18T12:31:52Z</time>
      </trkpt>
      <trkpt lat="38.048997" lon="-1.661048">
        <ele>670.150</ele>
        <time>2017-03-18T12:31:54Z</time>
      </trkpt>
      <trkpt lat="38.049016" lon="-1.660916">
        <ele>669.985</ele>
        <time>2017-03-18T12:31:56Z</time>
      </trkpt>
      <trkpt lat="38.049045" lon="-1.660775">
        <ele>669.657</ele>
        <time>2017-03-18T12:31:58Z</time>
      </trkpt>
      <trkpt lat="38.049063" lon="-1.660642">
        <ele>669.172</ele>
        <time>2017-03-18T12:32:00Z</time>
      </trkpt>
      <trkpt lat="38.049088" lon="-1.660489">
        <ele>668.650</ele>
        <time>2017-03-18T12:32:02Z</time>
      </trkpt>
      <trkpt lat="38.049122" lon="-1.660339">
        <ele>668.394</ele>
        <time>2017-03-18T12:32:04Z</time>
      </trkpt>
      <trkpt lat="38.049120" lon="-1.660176">
        <ele>668.190</ele>
        <time>2017-03-18T12:32:06Z</time>
      </trkpt>
      <trkpt lat="38.049164" lon="-1.660021">
        <ele>666.580</ele>
        <time>2017-03-18T12:32:08Z</time>
      </trkpt>
      <trkpt lat="38.049210" lon="-1.659882">
        <ele>665.084</ele>
        <time>2017-03-18T12:32:10Z</time>
      </trkpt>
      <trkpt lat="38.049249" lon="-1.659730">
        <ele>663.807</ele>
        <time>2017-03-18T12:32:12Z</time>
      </trkpt>
      <trkpt lat="38.049277" lon="-1.659576">
        <ele>663.117</ele>
        <time>2017-03-18T12:32:14Z</time>
      </trkpt>
      <trkpt lat="38.049308" lon="-1.659422">
        <ele>662.608</ele>
        <time>2017-03-18T12:32:16Z</time>
      </trkpt>
      <trkpt lat="38.049339" lon="-1.659273">
        <ele>662.749</ele>
        <time>2017-03-18T12:32:18Z</time>
      </trkpt>
      <trkpt lat="38.049360" lon="-1.659120">
        <ele>662.934</ele>
        <time>2017-03-18T12:32:20Z</time>
      </trkpt>
      <trkpt lat="38.049379" lon="-1.658960">
        <ele>663.216</ele>
        <time>2017-03-18T12:32:22Z</time>
      </trkpt>
      <trkpt lat="38.049396" lon="-1.658808">
        <ele>663.311</ele>
        <time>2017-03-18T12:32:24Z</time>
      </trkpt>
      <trkpt lat="38.049408" lon="-1.658667">
        <ele>663.079</ele>
        <time>2017-03-18T12:32:26Z</time>
      </trkpt>
      <trkpt lat="38.049419" lon="-1.658503">
        <ele>662.683</ele>
        <time>2017-03-18T12:32:28Z</time>
      </trkpt>
      <trkpt lat="38.049429" lon="-1.658353">
        <ele>663.119</ele>
        <time>2017-03-18T12:32:30Z</time>
      </trkpt>
      <trkpt lat="38.049436" lon="-1.658197">
        <ele>663.699</ele>
        <time>2017-03-18T12:32:32Z</time>
      </trkpt>
      <trkpt lat="38.049441" lon="-1.658042">
        <ele>663.971</ele>
        <time>2017-03-18T12:32:34Z</time>
      </trkpt>
      <trkpt lat="38.049452" lon="-1.657897">
        <ele>664.341</ele>
        <time>2017-03-18T12:32:36Z</time>
      </trkpt>
      <trkpt lat="38.049458" lon="-1.657744">
        <ele>664.715</ele>
        <time>2017-03-18T12:32:38Z</time>
      </trkpt>
      <trkpt lat="38.049460" lon="-1.657608">
        <ele>664.608</ele>
        <time>2017-03-18T12:32:40Z</time>
      </trkpt>
      <trkpt lat="38.049462" lon="-1.657468">
        <ele>664.498</ele>
        <time>2017-03-18T12:32:42Z</time>
      </trkpt>
      <trkpt lat="38.049457" lon="-1.657320">
        <ele>664.533</ele>
        <time>2017-03-18T12:32:44Z</time>
      </trkpt>
      <trkpt lat="38.049428" lon="-1.657207">
        <ele>664.815</ele>
        <time>2017-03-18T12:32:46Z</time>
      </trkpt>
      <trkpt lat="38.049418" lon="-1.657084">
        <ele>664.770</ele>
        <time>2017-03-18T12:32:48Z</time>
      </trkpt>
      <trkpt lat="38.049424" lon="-1.656947">
        <ele>664.278</ele>
        <time>2017-03-18T12:32:51Z</time>
      </trkpt>
      <trkpt lat="38.049429" lon="-1.656793">
        <ele>664.072</ele>
        <time>2017-03-18T12:32:53Z</time>
      </trkpt>
      <trkpt lat="38.049441" lon="-1.656650">
        <ele>664.098</ele>
        <time>2017-03-18T12:32:55Z</time>
      </trkpt>
      <trkpt lat="38.049456" lon="-1.656505">
        <ele>664.118</ele>
        <time>2017-03-18T12:32:57Z</time>
      </trkpt>
      <trkpt lat="38.049472" lon="-1.656363">
        <ele>664.362</ele>
        <time>2017-03-18T12:32:59Z</time>
      </trkpt>
      <trkpt lat="38.049490" lon="-1.656227">
        <ele>664.583</ele>
        <time>2017-03-18T12:33:01Z</time>
      </trkpt>
      <trkpt lat="38.049515" lon="-1.656090">
        <ele>664.611</ele>
        <time>2017-03-18T12:33:03Z</time>
      </trkpt>
      <trkpt lat="38.049534" lon="-1.655954">
        <ele>664.308</ele>
        <time>2017-03-18T12:33:05Z</time>
      </trkpt>
      <trkpt lat="38.049562" lon="-1.655744">
        <ele>664.167</ele>
        <time>2017-03-18T12:33:07Z</time>
      </trkpt>
      <trkpt lat="38.049575" lon="-1.655600">
        <ele>664.092</ele>
        <time>2017-03-18T12:33:09Z</time>
      </trkpt>
      <trkpt lat="38.049596" lon="-1.655447">
        <ele>663.884</ele>
        <time>2017-03-18T12:33:11Z</time>
      </trkpt>
      <trkpt lat="38.049626" lon="-1.655290">
        <ele>663.489</ele>
        <time>2017-03-18T12:33:13Z</time>
      </trkpt>
      <trkpt lat="38.049662" lon="-1.655139">
        <ele>663.097</ele>
        <time>2017-03-18T12:33:15Z</time>
      </trkpt>
      <trkpt lat="38.049705" lon="-1.654980">
        <ele>662.841</ele>
        <time>2017-03-18T12:33:17Z</time>
      </trkpt>
      <trkpt lat="38.049754" lon="-1.654826">
        <ele>662.667</ele>
        <time>2017-03-18T12:33:19Z</time>
      </trkpt>
      <trkpt lat="38.049812" lon="-1.654673">
        <ele>662.457</ele>
        <time>2017-03-18T12:33:21Z</time>
      </trkpt>
      <trkpt lat="38.049885" lon="-1.654510">
        <ele>662.154</ele>
        <time>2017-03-18T12:33:23Z</time>
      </trkpt>
      <trkpt lat="38.049961" lon="-1.654358">
        <ele>661.856</ele>
        <time>2017-03-18T12:33:25Z</time>
      </trkpt>
      <trkpt lat="38.050043" lon="-1.654216">
        <ele>661.411</ele>
        <time>2017-03-18T12:33:27Z</time>
      </trkpt>
      <trkpt lat="38.050127" lon="-1.654080">
        <ele>661.108</ele>
        <time>2017-03-18T12:33:29Z</time>
      </trkpt>
      <trkpt lat="38.050215" lon="-1.653941">
        <ele>660.826</ele>
        <time>2017-03-18T12:33:31Z</time>
      </trkpt>
      <trkpt lat="38.050305" lon="-1.653801">
        <ele>660.681</ele>
        <time>2017-03-18T12:33:33Z</time>
      </trkpt>
      <trkpt lat="38.050402" lon="-1.653655">
        <ele>659.733</ele>
        <time>2017-03-18T12:33:35Z</time>
      </trkpt>
      <trkpt lat="38.050495" lon="-1.653506">
        <ele>658.458</ele>
        <time>2017-03-18T12:33:37Z</time>
      </trkpt>
      <trkpt lat="38.050585" lon="-1.653365">
        <ele>657.616</ele>
        <time>2017-03-18T12:33:39Z</time>
      </trkpt>
      <trkpt lat="38.050674" lon="-1.653220">
        <ele>657.480</ele>
        <time>2017-03-18T12:33:41Z</time>
      </trkpt>
      <trkpt lat="38.050764" lon="-1.653071">
        <ele>657.396</ele>
        <time>2017-03-18T12:33:43Z</time>
      </trkpt>
      <trkpt lat="38.050851" lon="-1.652924">
        <ele>657.016</ele>
        <time>2017-03-18T12:33:45Z</time>
      </trkpt>
      <trkpt lat="38.050938" lon="-1.652778">
        <ele>656.923</ele>
        <time>2017-03-18T12:33:47Z</time>
      </trkpt>
      <trkpt lat="38.051024" lon="-1.652620">
        <ele>656.683</ele>
        <time>2017-03-18T12:33:49Z</time>
      </trkpt>
      <trkpt lat="38.051107" lon="-1.652479">
        <ele>655.911</ele>
        <time>2017-03-18T12:33:51Z</time>
      </trkpt>
      <trkpt lat="38.051201" lon="-1.652335">
        <ele>655.708</ele>
        <time>2017-03-18T12:33:53Z</time>
      </trkpt>
      <trkpt lat="38.051282" lon="-1.652209">
        <ele>655.653</ele>
        <time>2017-03-18T12:33:55Z</time>
      </trkpt>
      <trkpt lat="38.051350" lon="-1.652094">
        <ele>655.758</ele>
        <time>2017-03-18T12:33:58Z</time>
      </trkpt>
      <trkpt lat="38.051419" lon="-1.651988">
        <ele>655.880</ele>
        <time>2017-03-18T12:34:00Z</time>
      </trkpt>
      <trkpt lat="38.051491" lon="-1.651878">
        <ele>656.495</ele>
        <time>2017-03-18T12:34:02Z</time>
      </trkpt>
      <trkpt lat="38.051577" lon="-1.651753">
        <ele>656.873</ele>
        <time>2017-03-18T12:34:04Z</time>
      </trkpt>
      <trkpt lat="38.051679" lon="-1.651619">
        <ele>656.637</ele>
        <time>2017-03-18T12:34:06Z</time>
      </trkpt>
      <trkpt lat="38.051782" lon="-1.651479">
        <ele>656.183</ele>
        <time>2017-03-18T12:34:08Z</time>
      </trkpt>
      <trkpt lat="38.051884" lon="-1.651332">
        <ele>655.543</ele>
        <time>2017-03-18T12:34:10Z</time>
      </trkpt>
      <trkpt lat="38.051981" lon="-1.651182">
        <ele>655.039</ele>
        <time>2017-03-18T12:34:12Z</time>
      </trkpt>
      <trkpt lat="38.052073" lon="-1.651044">
        <ele>654.501</ele>
        <time>2017-03-18T12:34:14Z</time>
      </trkpt>
      <trkpt lat="38.052202" lon="-1.650847">
        <ele>653.921</ele>
        <time>2017-03-18T12:34:16Z</time>
      </trkpt>
      <trkpt lat="38.052275" lon="-1.650732">
        <ele>653.508</ele>
        <time>2017-03-18T12:34:18Z</time>
      </trkpt>
      <trkpt lat="38.052343" lon="-1.650611">
        <ele>653.314</ele>
        <time>2017-03-18T12:34:20Z</time>
      </trkpt>
      <trkpt lat="38.052410" lon="-1.650491">
        <ele>653.819</ele>
        <time>2017-03-18T12:34:22Z</time>
      </trkpt>
      <trkpt lat="38.052467" lon="-1.650379">
        <ele>654.691</ele>
        <time>2017-03-18T12:34:24Z</time>
      </trkpt>
      <trkpt lat="38.052530" lon="-1.650245">
        <ele>655.186</ele>
        <time>2017-03-18T12:34:26Z</time>
      </trkpt>
      <trkpt lat="38.052585" lon="-1.650120">
        <ele>654.484</ele>
        <time>2017-03-18T12:34:28Z</time>
      </trkpt>
      <trkpt lat="38.052630" lon="-1.649998">
        <ele>653.958</ele>
        <time>2017-03-18T12:34:30Z</time>
      </trkpt>
      <trkpt lat="38.052667" lon="-1.649882">
        <ele>653.944</ele>
        <time>2017-03-18T12:34:32Z</time>
      </trkpt>
      <trkpt lat="38.052686" lon="-1.649766">
        <ele>653.424</ele>
        <time>2017-03-18T12:34:34Z</time>
      </trkpt>
      <trkpt lat="38.052704" lon="-1.649643">
        <ele>652.693</ele>
        <time>2017-03-18T12:34:36Z</time>
      </trkpt>
      <trkpt lat="38.052737" lon="-1.649480">
        <ele>652.265</ele>
        <time>2017-03-18T12:34:39Z</time>
      </trkpt>
      <trkpt lat="38.052762" lon="-1.649367">
        <ele>652.221</ele>
        <time>2017-03-18T12:34:41Z</time>
      </trkpt>
      <trkpt lat="38.052787" lon="-1.649251">
        <ele>652.408</ele>
        <time>2017-03-18T12:34:43Z</time>
      </trkpt>
      <trkpt lat="38.052810" lon="-1.649131">
        <ele>652.890</ele>
        <time>2017-03-18T12:34:45Z</time>
      </trkpt>
      <trkpt lat="38.052835" lon="-1.648967">
        <ele>653.175</ele>
        <time>2017-03-18T12:34:48Z</time>
      </trkpt>
      <trkpt lat="38.052850" lon="-1.648843">
        <ele>653.217</ele>
        <time>2017-03-18T12:34:50Z</time>
      </trkpt>
      <trkpt lat="38.052859" lon="-1.648720">
        <ele>653.582</ele>
        <time>2017-03-18T12:34:52Z</time>
      </trkpt>
      <trkpt lat="38.052870" lon="-1.648603">
        <ele>654.080</ele>
        <time>2017-03-18T12:34:54Z</time>
      </trkpt>
      <trkpt lat="38.052875" lon="-1.648481">
        <ele>654.554</ele>
        <time>2017-03-18T12:34:56Z</time>
      </trkpt>
      <trkpt lat="38.052880" lon="-1.648357">
        <ele>655.040</ele>
        <time>2017-03-18T12:34:58Z</time>
      </trkpt>
      <trkpt lat="38.052892" lon="-1.648181">
        <ele>655.460</ele>
        <time>2017-03-18T12:35:01Z</time>
      </trkpt>
      <trkpt lat="38.052899" lon="-1.648056">
        <ele>655.492</ele>
        <time>2017-03-18T12:35:03Z</time>
      </trkpt>
      <trkpt lat="38.052906" lon="-1.647928">
        <ele>655.673</ele>
        <time>2017-03-18T12:35:05Z</time>
      </trkpt>
      <trkpt lat="38.052910" lon="-1.647807">
        <ele>655.920</ele>
        <time>2017-03-18T12:35:08Z</time>
      </trkpt>
      <trkpt lat="38.052903" lon="-1.647692">
        <ele>655.708</ele>
        <time>2017-03-18T12:35:10Z</time>
      </trkpt>
      <trkpt lat="38.052889" lon="-1.647561">
        <ele>655.580</ele>
        <time>2017-03-18T12:35:12Z</time>
      </trkpt>
      <trkpt lat="38.052880" lon="-1.647440">
        <ele>655.545</ele>
        <time>2017-03-18T12:35:14Z</time>
      </trkpt>
      <trkpt lat="38.052871" lon="-1.647313">
        <ele>655.147</ele>
        <time>2017-03-18T12:35:16Z</time>
      </trkpt>
      <trkpt lat="38.052866" lon="-1.647178">
        <ele>654.762</ele>
        <time>2017-03-18T12:35:18Z</time>
      </trkpt>
      <trkpt lat="38.052861" lon="-1.647044">
        <ele>654.430</ele>
        <time>2017-03-18T12:35:20Z</time>
      </trkpt>
      <trkpt lat="38.052861" lon="-1.646912">
        <ele>654.184</ele>
        <time>2017-03-18T12:35:22Z</time>
      </trkpt>
      <trkpt lat="38.052866" lon="-1.646773">
        <ele>653.870</ele>
        <time>2017-03-18T12:35:24Z</time>
      </trkpt>
      <trkpt lat="38.052871" lon="-1.646635">
        <ele>653.740</ele>
        <time>2017-03-18T12:35:26Z</time>
      </trkpt>
      <trkpt lat="38.052887" lon="-1.646433">
        <ele>652.935</ele>
        <time>2017-03-18T12:35:28Z</time>
      </trkpt>
      <trkpt lat="38.052897" lon="-1.646285">
        <ele>652.886</ele>
        <time>2017-03-18T12:35:30Z</time>
      </trkpt>
      <trkpt lat="38.052911" lon="-1.646136">
        <ele>652.614</ele>
        <time>2017-03-18T12:35:32Z</time>
      </trkpt>
      <trkpt lat="38.052923" lon="-1.645981">
        <ele>652.908</ele>
        <time>2017-03-18T12:35:34Z</time>
      </trkpt>
      <trkpt lat="38.052939" lon="-1.645829">
        <ele>653.384</ele>
        <time>2017-03-18T12:35:36Z</time>
      </trkpt>
      <trkpt lat="38.052955" lon="-1.645673">
        <ele>653.559</ele>
        <time>2017-03-18T12:35:38Z</time>
      </trkpt>
      <trkpt lat="38.052971" lon="-1.645515">
        <ele>653.561</ele>
        <time>2017-03-18T12:35:40Z</time>
      </trkpt>
      <trkpt lat="38.052990" lon="-1.645377">
        <ele>653.136</ele>
        <time>2017-03-18T12:35:42Z</time>
      </trkpt>
      <trkpt lat="38.053010" lon="-1.645224">
        <ele>652.764</ele>
        <time>2017-03-18T12:35:44Z</time>
      </trkpt>
      <trkpt lat="38.053027" lon="-1.645074">
        <ele>652.338</ele>
        <time>2017-03-18T12:35:46Z</time>
      </trkpt>
      <trkpt lat="38.053041" lon="-1.644919">
        <ele>651.994</ele>
        <time>2017-03-18T12:35:48Z</time>
      </trkpt>
      <trkpt lat="38.053052" lon="-1.644769">
        <ele>651.674</ele>
        <time>2017-03-18T12:35:50Z</time>
      </trkpt>
      <trkpt lat="38.053061" lon="-1.644622">
        <ele>650.948</ele>
        <time>2017-03-18T12:35:52Z</time>
      </trkpt>
      <trkpt lat="38.053077" lon="-1.644471">
        <ele>650.361</ele>
        <time>2017-03-18T12:35:54Z</time>
      </trkpt>
      <trkpt lat="38.053102" lon="-1.644329">
        <ele>649.717</ele>
        <time>2017-03-18T12:35:56Z</time>
      </trkpt>
      <trkpt lat="38.053125" lon="-1.644173">
        <ele>649.308</ele>
        <time>2017-03-18T12:35:58Z</time>
      </trkpt>
      <trkpt lat="38.053143" lon="-1.644024">
        <ele>649.045</ele>
        <time>2017-03-18T12:36:00Z</time>
      </trkpt>
      <trkpt lat="38.053161" lon="-1.643862">
        <ele>649.050</ele>
        <time>2017-03-18T12:36:02Z</time>
      </trkpt>
      <trkpt lat="38.053175" lon="-1.643703">
        <ele>649.382</ele>
        <time>2017-03-18T12:36:04Z</time>
      </trkpt>
      <trkpt lat="38.053184" lon="-1.643548">
        <ele>649.317</ele>
        <time>2017-03-18T12:36:06Z</time>
      </trkpt>
      <trkpt lat="38.053191" lon="-1.643395">
        <ele>649.195</ele>
        <time>2017-03-18T12:36:08Z</time>
      </trkpt>
      <trkpt lat="38.053195" lon="-1.643238">
        <ele>648.749</ele>
        <time>2017-03-18T12:36:10Z</time>
      </trkpt>
      <trkpt lat="38.053197" lon="-1.643088">
        <ele>648.525</ele>
        <time>2017-03-18T12:36:12Z</time>
      </trkpt>
      <trkpt lat="38.053197" lon="-1.642937">
        <ele>648.285</ele>
        <time>2017-03-18T12:36:14Z</time>
      </trkpt>
      <trkpt lat="38.053201" lon="-1.642778">
        <ele>647.932</ele>
        <time>2017-03-18T12:36:16Z</time>
      </trkpt>
      <trkpt lat="38.053210" lon="-1.642607">
        <ele>648.192</ele>
        <time>2017-03-18T12:36:18Z</time>
      </trkpt>
      <trkpt lat="38.053218" lon="-1.642449">
        <ele>648.611</ele>
        <time>2017-03-18T12:36:20Z</time>
      </trkpt>
      <trkpt lat="38.053228" lon="-1.642276">
        <ele>648.808</ele>
        <time>2017-03-18T12:36:22Z</time>
      </trkpt>
      <trkpt lat="38.053245" lon="-1.642109">
        <ele>648.674</ele>
        <time>2017-03-18T12:36:24Z</time>
      </trkpt>
      <trkpt lat="38.053260" lon="-1.641935">
        <ele>648.389</ele>
        <time>2017-03-18T12:36:26Z</time>
      </trkpt>
      <trkpt lat="38.053278" lon="-1.641763">
        <ele>648.391</ele>
        <time>2017-03-18T12:36:28Z</time>
      </trkpt>
      <trkpt lat="38.053295" lon="-1.641600">
        <ele>647.756</ele>
        <time>2017-03-18T12:36:30Z</time>
      </trkpt>
      <trkpt lat="38.053308" lon="-1.641428">
        <ele>647.624</ele>
        <time>2017-03-18T12:36:33Z</time>
      </trkpt>
      <trkpt lat="38.053314" lon="-1.641255">
        <ele>647.528</ele>
        <time>2017-03-18T12:36:35Z</time>
      </trkpt>
      <trkpt lat="38.053319" lon="-1.641085">
        <ele>647.574</ele>
        <time>2017-03-18T12:36:37Z</time>
      </trkpt>
      <trkpt lat="38.053324" lon="-1.640924">
        <ele>647.134</ele>
        <time>2017-03-18T12:36:39Z</time>
      </trkpt>
      <trkpt lat="38.053333" lon="-1.640746">
        <ele>646.282</ele>
        <time>2017-03-18T12:36:41Z</time>
      </trkpt>
      <trkpt lat="38.053339" lon="-1.640574">
        <ele>645.743</ele>
        <time>2017-03-18T12:36:43Z</time>
      </trkpt>
      <trkpt lat="38.053341" lon="-1.640399">
        <ele>645.217</ele>
        <time>2017-03-18T12:36:45Z</time>
      </trkpt>
      <trkpt lat="38.053340" lon="-1.640226">
        <ele>645.208</ele>
        <time>2017-03-18T12:36:47Z</time>
      </trkpt>
      <trkpt lat="38.053336" lon="-1.640048">
        <ele>645.289</ele>
        <time>2017-03-18T12:36:49Z</time>
      </trkpt>
      <trkpt lat="38.053340" lon="-1.639782">
        <ele>645.234</ele>
        <time>2017-03-18T12:36:51Z</time>
      </trkpt>
      <trkpt lat="38.053344" lon="-1.639607">
        <ele>645.036</ele>
        <time>2017-03-18T12:36:53Z</time>
      </trkpt>
      <trkpt lat="38.053343" lon="-1.639426">
        <ele>644.991</ele>
        <time>2017-03-18T12:36:55Z</time>
      </trkpt>
      <trkpt lat="38.053341" lon="-1.639237">
        <ele>645.199</ele>
        <time>2017-03-18T12:36:57Z</time>
      </trkpt>
      <trkpt lat="38.053339" lon="-1.639069">
        <ele>645.463</ele>
        <time>2017-03-18T12:36:59Z</time>
      </trkpt>
      <trkpt lat="38.053340" lon="-1.638911">
        <ele>645.749</ele>
        <time>2017-03-18T12:37:01Z</time>
      </trkpt>
      <trkpt lat="38.053340" lon="-1.638768">
        <ele>645.599</ele>
        <time>2017-03-18T12:37:03Z</time>
      </trkpt>
      <trkpt lat="38.053333" lon="-1.638610">
        <ele>645.125</ele>
        <time>2017-03-18T12:37:05Z</time>
      </trkpt>
      <trkpt lat="38.053318" lon="-1.638433">
        <ele>644.626</ele>
        <time>2017-03-18T12:37:07Z</time>
      </trkpt>
      <trkpt lat="38.053303" lon="-1.638262">
        <ele>644.208</ele>
        <time>2017-03-18T12:37:09Z</time>
      </trkpt>
      <trkpt lat="38.053289" lon="-1.638098">
        <ele>643.908</ele>
        <time>2017-03-18T12:37:11Z</time>
      </trkpt>
      <trkpt lat="38.053273" lon="-1.637937">
        <ele>643.513</ele>
        <time>2017-03-18T12:37:14Z</time>
      </trkpt>
      <trkpt lat="38.053250" lon="-1.637777">
        <ele>643.288</ele>
        <time>2017-03-18T12:37:16Z</time>
      </trkpt>
      <trkpt lat="38.053226" lon="-1.637621">
        <ele>642.840</ele>
        <time>2017-03-18T12:37:18Z</time>
      </trkpt>
      <trkpt lat="38.053199" lon="-1.637470">
        <ele>642.645</ele>
        <time>2017-03-18T12:37:20Z</time>
      </trkpt>
      <trkpt lat="38.053168" lon="-1.637297">
        <ele>642.273</ele>
        <time>2017-03-18T12:37:22Z</time>
      </trkpt>
      <trkpt lat="38.053134" lon="-1.637124">
        <ele>641.317</ele>
        <time>2017-03-18T12:37:24Z</time>
      </trkpt>
      <trkpt lat="38.053100" lon="-1.636957">
        <ele>640.723</ele>
        <time>2017-03-18T12:37:26Z</time>
      </trkpt>
      <trkpt lat="38.053059" lon="-1.636784">
        <ele>640.163</ele>
        <time>2017-03-18T12:37:28Z</time>
      </trkpt>
      <trkpt lat="38.053019" lon="-1.636616">
        <ele>639.714</ele>
        <time>2017-03-18T12:37:30Z</time>
      </trkpt>
      <trkpt lat="38.052977" lon="-1.636454">
        <ele>639.854</ele>
        <time>2017-03-18T12:37:32Z</time>
      </trkpt>
      <trkpt lat="38.052936" lon="-1.636284">
        <ele>639.709</ele>
        <time>2017-03-18T12:37:34Z</time>
      </trkpt>
      <trkpt lat="38.052900" lon="-1.636116">
        <ele>639.508</ele>
        <time>2017-03-18T12:37:36Z</time>
      </trkpt>
      <trkpt lat="38.052857" lon="-1.635951">
        <ele>638.892</ele>
        <time>2017-03-18T12:37:38Z</time>
      </trkpt>
      <trkpt lat="38.052811" lon="-1.635786">
        <ele>637.937</ele>
        <time>2017-03-18T12:37:40Z</time>
      </trkpt>
      <trkpt lat="38.052761" lon="-1.635627">
        <ele>637.429</ele>
        <time>2017-03-18T12:37:42Z</time>
      </trkpt>
      <trkpt lat="38.052713" lon="-1.635467">
        <ele>637.034</ele>
        <time>2017-03-18T12:37:44Z</time>
      </trkpt>
      <trkpt lat="38.052662" lon="-1.635310">
        <ele>636.922</ele>
        <time>2017-03-18T12:37:46Z</time>
      </trkpt>
      <trkpt lat="38.052622" lon="-1.635164">
        <ele>636.426</ele>
        <time>2017-03-18T12:37:48Z</time>
      </trkpt>
      <trkpt lat="38.052587" lon="-1.635013">
        <ele>636.592</ele>
        <time>2017-03-18T12:37:50Z</time>
      </trkpt>
      <trkpt lat="38.052552" lon="-1.634862">
        <ele>635.762</ele>
        <time>2017-03-18T12:37:52Z</time>
      </trkpt>
      <trkpt lat="38.052512" lon="-1.634703">
        <ele>635.165</ele>
        <time>2017-03-18T12:37:54Z</time>
      </trkpt>
      <trkpt lat="38.052479" lon="-1.634543">
        <ele>635.268</ele>
        <time>2017-03-18T12:37:56Z</time>
      </trkpt>
      <trkpt lat="38.052427" lon="-1.634310">
        <ele>636.114</ele>
        <time>2017-03-18T12:37:58Z</time>
      </trkpt>
      <trkpt lat="38.052383" lon="-1.634146">
        <ele>636.608</ele>
        <time>2017-03-18T12:38:00Z</time>
      </trkpt>
      <trkpt lat="38.052336" lon="-1.633984">
        <ele>636.857</ele>
        <time>2017-03-18T12:38:02Z</time>
      </trkpt>
      <trkpt lat="38.052294" lon="-1.633824">
        <ele>636.952</ele>
        <time>2017-03-18T12:38:04Z</time>
      </trkpt>
      <trkpt lat="38.052248" lon="-1.633670">
        <ele>636.134</ele>
        <time>2017-03-18T12:38:06Z</time>
      </trkpt>
      <trkpt lat="38.052207" lon="-1.633523">
        <ele>635.199</ele>
        <time>2017-03-18T12:38:08Z</time>
      </trkpt>
      <trkpt lat="38.052166" lon="-1.633374">
        <ele>634.327</ele>
        <time>2017-03-18T12:38:10Z</time>
      </trkpt>
      <trkpt lat="38.052124" lon="-1.633223">
        <ele>633.671</ele>
        <time>2017-03-18T12:38:12Z</time>
      </trkpt>
      <trkpt lat="38.052081" lon="-1.633065">
        <ele>633.397</ele>
        <time>2017-03-18T12:38:14Z</time>
      </trkpt>
      <trkpt lat="38.052034" lon="-1.632910">
        <ele>632.957</ele>
        <time>2017-03-18T12:38:16Z</time>
      </trkpt>
      <trkpt lat="38.051987" lon="-1.632759">
        <ele>632.614</ele>
        <time>2017-03-18T12:38:18Z</time>
      </trkpt>
      <trkpt lat="38.051948" lon="-1.632607">
        <ele>632.754</ele>
        <time>2017-03-18T12:38:20Z</time>
      </trkpt>
      <trkpt lat="38.051906" lon="-1.632452">
        <ele>632.609</ele>
        <time>2017-03-18T12:38:22Z</time>
      </trkpt>
      <trkpt lat="38.051866" lon="-1.632301">
        <ele>632.508</ele>
        <time>2017-03-18T12:38:24Z</time>
      </trkpt>
      <trkpt lat="38.051828" lon="-1.632152">
        <ele>632.312</ele>
        <time>2017-03-18T12:38:26Z</time>
      </trkpt>
      <trkpt lat="38.051785" lon="-1.631995">
        <ele>632.157</ele>
        <time>2017-03-18T12:38:28Z</time>
      </trkpt>
      <trkpt lat="38.051723" lon="-1.631769">
        <ele>631.629</ele>
        <time>2017-03-18T12:38:32Z</time>
      </trkpt>
      <trkpt lat="38.051676" lon="-1.631611">
        <ele>631.194</ele>
        <time>2017-03-18T12:38:34Z</time>
      </trkpt>
      <trkpt lat="38.051627" lon="-1.631445">
        <ele>630.532</ele>
        <time>2017-03-18T12:38:36Z</time>
      </trkpt>
      <trkpt lat="38.051578" lon="-1.631291">
        <ele>629.776</ele>
        <time>2017-03-18T12:38:38Z</time>
      </trkpt>
      <trkpt lat="38.051538" lon="-1.631146">
        <ele>629.372</ele>
        <time>2017-03-18T12:38:40Z</time>
      </trkpt>
      <trkpt lat="38.051499" lon="-1.630998">
        <ele>629.182</ele>
        <time>2017-03-18T12:38:42Z</time>
      </trkpt>
      <trkpt lat="38.051460" lon="-1.630847">
        <ele>629.188</ele>
        <time>2017-03-18T12:38:44Z</time>
      </trkpt>
      <trkpt lat="38.051416" lon="-1.630687">
        <ele>628.824</ele>
        <time>2017-03-18T12:38:46Z</time>
      </trkpt>
      <trkpt lat="38.051366" lon="-1.630520">
        <ele>627.926</ele>
        <time>2017-03-18T12:38:48Z</time>
      </trkpt>
      <trkpt lat="38.051317" lon="-1.630365">
        <ele>626.808</ele>
        <time>2017-03-18T12:38:50Z</time>
      </trkpt>
      <trkpt lat="38.051264" lon="-1.630202">
        <ele>625.579</ele>
        <time>2017-03-18T12:38:52Z</time>
      </trkpt>
      <trkpt lat="38.051214" lon="-1.630042">
        <ele>624.414</ele>
        <time>2017-03-18T12:38:54Z</time>
      </trkpt>
      <trkpt lat="38.051166" lon="-1.629875">
        <ele>623.796</ele>
        <time>2017-03-18T12:38:56Z</time>
      </trkpt>
      <trkpt lat="38.051120" lon="-1.629715">
        <ele>623.041</ele>
        <time>2017-03-18T12:38:58Z</time>
      </trkpt>
      <trkpt lat="38.051076" lon="-1.629562">
        <ele>622.589</ele>
        <time>2017-03-18T12:39:00Z</time>
      </trkpt>
      <trkpt lat="38.051035" lon="-1.629404">
        <ele>622.043</ele>
        <time>2017-03-18T12:39:02Z</time>
      </trkpt>
      <trkpt lat="38.050994" lon="-1.629244">
        <ele>621.829</ele>
        <time>2017-03-18T12:39:04Z</time>
      </trkpt>
      <trkpt lat="38.050957" lon="-1.629095">
        <ele>621.899</ele>
        <time>2017-03-18T12:39:06Z</time>
      </trkpt>
      <trkpt lat="38.050920" lon="-1.628943">
        <ele>622.028</ele>
        <time>2017-03-18T12:39:08Z</time>
      </trkpt>
      <trkpt lat="38.050883" lon="-1.628789">
        <ele>622.289</ele>
        <time>2017-03-18T12:39:10Z</time>
      </trkpt>
      <trkpt lat="38.050846" lon="-1.628631">
        <ele>622.517</ele>
        <time>2017-03-18T12:39:12Z</time>
      </trkpt>
      <trkpt lat="38.050806" lon="-1.628475">
        <ele>622.608</ele>
        <time>2017-03-18T12:39:14Z</time>
      </trkpt>
      <trkpt lat="38.050732" lon="-1.628249">
        <ele>622.863</ele>
        <time>2017-03-18T12:39:16Z</time>
      </trkpt>
      <trkpt lat="38.050651" lon="-1.628020">
        <ele>622.278</ele>
        <time>2017-03-18T12:39:19Z</time>
      </trkpt>
      <trkpt lat="38.050601" lon="-1.627868">
        <ele>621.610</ele>
        <time>2017-03-18T12:39:21Z</time>
      </trkpt>
      <trkpt lat="38.050553" lon="-1.627712">
        <ele>621.085</ele>
        <time>2017-03-18T12:39:23Z</time>
      </trkpt>
      <trkpt lat="38.050510" lon="-1.627559">
        <ele>619.943</ele>
        <time>2017-03-18T12:39:25Z</time>
      </trkpt>
      <trkpt lat="38.050445" lon="-1.627323">
        <ele>618.677</ele>
        <time>2017-03-18T12:39:28Z</time>
      </trkpt>
      <trkpt lat="38.050383" lon="-1.627092">
        <ele>617.863</ele>
        <time>2017-03-18T12:39:31Z</time>
      </trkpt>
      <trkpt lat="38.050347" lon="-1.626936">
        <ele>617.413</ele>
        <time>2017-03-18T12:39:33Z</time>
      </trkpt>
      <trkpt lat="38.050312" lon="-1.626775">
        <ele>617.322</ele>
        <time>2017-03-18T12:39:35Z</time>
      </trkpt>
      <trkpt lat="38.050277" lon="-1.626617">
        <ele>617.362</ele>
        <time>2017-03-18T12:39:37Z</time>
      </trkpt>
      <trkpt lat="38.050237" lon="-1.626446">
        <ele>617.208</ele>
        <time>2017-03-18T12:39:39Z</time>
      </trkpt>
      <trkpt lat="38.050199" lon="-1.626283">
        <ele>617.108</ele>
        <time>2017-03-18T12:39:41Z</time>
      </trkpt>
      <trkpt lat="38.050160" lon="-1.626123">
        <ele>617.043</ele>
        <time>2017-03-18T12:39:43Z</time>
      </trkpt>
      <trkpt lat="38.050120" lon="-1.625954">
        <ele>617.418</ele>
        <time>2017-03-18T12:39:45Z</time>
      </trkpt>
      <trkpt lat="38.050078" lon="-1.625793">
        <ele>617.670</ele>
        <time>2017-03-18T12:39:47Z</time>
      </trkpt>
      <trkpt lat="38.050035" lon="-1.625630">
        <ele>617.755</ele>
        <time>2017-03-18T12:39:49Z</time>
      </trkpt>
      <trkpt lat="38.049992" lon="-1.625478">
        <ele>617.443</ele>
        <time>2017-03-18T12:39:51Z</time>
      </trkpt>
      <trkpt lat="38.049945" lon="-1.625320">
        <ele>616.837</ele>
        <time>2017-03-18T12:39:53Z</time>
      </trkpt>
      <trkpt lat="38.049900" lon="-1.625167">
        <ele>616.113</ele>
        <time>2017-03-18T12:39:55Z</time>
      </trkpt>
      <trkpt lat="38.049851" lon="-1.625010">
        <ele>615.083</ele>
        <time>2017-03-18T12:39:58Z</time>
      </trkpt>
      <trkpt lat="38.049802" lon="-1.624854">
        <ele>614.139</ele>
        <time>2017-03-18T12:40:00Z</time>
      </trkpt>
      <trkpt lat="38.049756" lon="-1.624697">
        <ele>613.401</ele>
        <time>2017-03-18T12:40:02Z</time>
      </trkpt>
      <trkpt lat="38.049710" lon="-1.624534">
        <ele>613.021</ele>
        <time>2017-03-18T12:40:04Z</time>
      </trkpt>
      <trkpt lat="38.049665" lon="-1.624368">
        <ele>612.808</ele>
        <time>2017-03-18T12:40:06Z</time>
      </trkpt>
      <trkpt lat="38.049623" lon="-1.624212">
        <ele>612.964</ele>
        <time>2017-03-18T12:40:08Z</time>
      </trkpt>
      <trkpt lat="38.049582" lon="-1.624049">
        <ele>613.119</ele>
        <time>2017-03-18T12:40:10Z</time>
      </trkpt>
      <trkpt lat="38.049544" lon="-1.623887">
        <ele>613.041</ele>
        <time>2017-03-18T12:40:12Z</time>
      </trkpt>
      <trkpt lat="38.049505" lon="-1.623719">
        <ele>612.496</ele>
        <time>2017-03-18T12:40:14Z</time>
      </trkpt>
      <trkpt lat="38.049468" lon="-1.623545">
        <ele>611.574</ele>
        <time>2017-03-18T12:40:16Z</time>
      </trkpt>
      <trkpt lat="38.049440" lon="-1.623372">
        <ele>611.388</ele>
        <time>2017-03-18T12:40:18Z</time>
      </trkpt>
      <trkpt lat="38.049416" lon="-1.623189">
        <ele>611.164</ele>
        <time>2017-03-18T12:40:20Z</time>
      </trkpt>
      <trkpt lat="38.049398" lon="-1.623002">
        <ele>610.824</ele>
        <time>2017-03-18T12:40:22Z</time>
      </trkpt>
      <trkpt lat="38.049384" lon="-1.622821">
        <ele>610.916</ele>
        <time>2017-03-18T12:40:24Z</time>
      </trkpt>
      <trkpt lat="38.049378" lon="-1.622646">
        <ele>611.276</ele>
        <time>2017-03-18T12:40:26Z</time>
      </trkpt>
      <trkpt lat="38.049379" lon="-1.622474">
        <ele>611.313</ele>
        <time>2017-03-18T12:40:28Z</time>
      </trkpt>
      <trkpt lat="38.049390" lon="-1.622304">
        <ele>611.208</ele>
        <time>2017-03-18T12:40:30Z</time>
      </trkpt>
      <trkpt lat="38.049411" lon="-1.622128">
        <ele>610.722</ele>
        <time>2017-03-18T12:40:32Z</time>
      </trkpt>
      <trkpt lat="38.049437" lon="-1.621936">
        <ele>610.147</ele>
        <time>2017-03-18T12:40:33Z</time>
      </trkpt>
      <trkpt lat="38.049462" lon="-1.621755">
        <ele>609.619</ele>
        <time>2017-03-18T12:40:35Z</time>
      </trkpt>
      <trkpt lat="38.049502" lon="-1.621499">
        <ele>609.074</ele>
        <time>2017-03-18T12:40:38Z</time>
      </trkpt>
      <trkpt lat="38.049529" lon="-1.621344">
        <ele>608.592</ele>
        <time>2017-03-18T12:40:40Z</time>
      </trkpt>
      <trkpt lat="38.049561" lon="-1.621185">
        <ele>608.466</ele>
        <time>2017-03-18T12:40:42Z</time>
      </trkpt>
      <trkpt lat="38.049603" lon="-1.621024">
        <ele>608.722</ele>
        <time>2017-03-18T12:40:44Z</time>
      </trkpt>
      <trkpt lat="38.049653" lon="-1.620866">
        <ele>608.292</ele>
        <time>2017-03-18T12:40:46Z</time>
      </trkpt>
      <trkpt lat="38.049707" lon="-1.620705">
        <ele>607.693</ele>
        <time>2017-03-18T12:40:48Z</time>
      </trkpt>
      <trkpt lat="38.049765" lon="-1.620542">
        <ele>607.165</ele>
        <time>2017-03-18T12:40:50Z</time>
      </trkpt>
      <trkpt lat="38.049873" lon="-1.620297">
        <ele>606.021</ele>
        <time>2017-03-18T12:40:53Z</time>
      </trkpt>
      <trkpt lat="38.049949" lon="-1.620138">
        <ele>605.708</ele>
        <time>2017-03-18T12:40:55Z</time>
      </trkpt>
      <trkpt lat="38.050024" lon="-1.619995">
        <ele>606.060</ele>
        <time>2017-03-18T12:40:57Z</time>
      </trkpt>
      <trkpt lat="38.050099" lon="-1.619854">
        <ele>606.325</ele>
        <time>2017-03-18T12:40:59Z</time>
      </trkpt>
      <trkpt lat="38.050171" lon="-1.619712">
        <ele>606.627</ele>
        <time>2017-03-18T12:41:01Z</time>
      </trkpt>
      <trkpt lat="38.050243" lon="-1.619563">
        <ele>606.572</ele>
        <time>2017-03-18T12:41:03Z</time>
      </trkpt>
      <trkpt lat="38.050312" lon="-1.619412">
        <ele>606.410</ele>
        <time>2017-03-18T12:41:05Z</time>
      </trkpt>
      <trkpt lat="38.050386" lon="-1.619249">
        <ele>606.694</ele>
        <time>2017-03-18T12:41:07Z</time>
      </trkpt>
      <trkpt lat="38.050458" lon="-1.619083">
        <ele>606.450</ele>
        <time>2017-03-18T12:41:09Z</time>
      </trkpt>
      <trkpt lat="38.050531" lon="-1.618921">
        <ele>606.120</ele>
        <time>2017-03-18T12:41:12Z</time>
      </trkpt>
      <trkpt lat="38.050599" lon="-1.618766">
        <ele>606.591</ele>
        <time>2017-03-18T12:41:14Z</time>
      </trkpt>
      <trkpt lat="38.050665" lon="-1.618616">
        <ele>606.281</ele>
        <time>2017-03-18T12:41:16Z</time>
      </trkpt>
      <trkpt lat="38.050748" lon="-1.618472">
        <ele>605.519</ele>
        <time>2017-03-18T12:41:18Z</time>
      </trkpt>
      <trkpt lat="38.050820" lon="-1.618336">
        <ele>605.208</ele>
        <time>2017-03-18T12:41:20Z</time>
      </trkpt>
      <trkpt lat="38.050892" lon="-1.618187">
        <ele>604.390</ele>
        <time>2017-03-18T12:41:22Z</time>
      </trkpt>
      <trkpt lat="38.050960" lon="-1.618035">
        <ele>602.935</ele>
        <time>2017-03-18T12:41:24Z</time>
      </trkpt>
      <trkpt lat="38.051019" lon="-1.617890">
        <ele>601.947</ele>
        <time>2017-03-18T12:41:26Z</time>
      </trkpt>
      <trkpt lat="38.051077" lon="-1.617741">
        <ele>601.122</ele>
        <time>2017-03-18T12:41:28Z</time>
      </trkpt>
      <trkpt lat="38.051145" lon="-1.617582">
        <ele>600.770</ele>
        <time>2017-03-18T12:41:30Z</time>
      </trkpt>
      <trkpt lat="38.051208" lon="-1.617407">
        <ele>600.044</ele>
        <time>2017-03-18T12:41:32Z</time>
      </trkpt>
      <trkpt lat="38.051263" lon="-1.617244">
        <ele>599.250</ele>
        <time>2017-03-18T12:41:34Z</time>
      </trkpt>
      <trkpt lat="38.051324" lon="-1.617087">
        <ele>598.480</ele>
        <time>2017-03-18T12:41:36Z</time>
      </trkpt>
      <trkpt lat="38.051375" lon="-1.616938">
        <ele>597.491</ele>
        <time>2017-03-18T12:41:38Z</time>
      </trkpt>
      <trkpt lat="38.051421" lon="-1.616785">
        <ele>596.781</ele>
        <time>2017-03-18T12:41:40Z</time>
      </trkpt>
      <trkpt lat="38.051467" lon="-1.616617">
        <ele>596.219</ele>
        <time>2017-03-18T12:41:42Z</time>
      </trkpt>
      <trkpt lat="38.051505" lon="-1.616452">
        <ele>596.008</ele>
        <time>2017-03-18T12:41:44Z</time>
      </trkpt>
      <trkpt lat="38.051537" lon="-1.616277">
        <ele>595.840</ele>
        <time>2017-03-18T12:41:46Z</time>
      </trkpt>
      <trkpt lat="38.051566" lon="-1.616097">
        <ele>596.345</ele>
        <time>2017-03-18T12:41:48Z</time>
      </trkpt>
      <trkpt lat="38.051591" lon="-1.615921">
        <ele>597.077</ele>
        <time>2017-03-18T12:41:50Z</time>
      </trkpt>
      <trkpt lat="38.051609" lon="-1.615730">
        <ele>597.562</ele>
        <time>2017-03-18T12:41:52Z</time>
      </trkpt>
      <trkpt lat="38.051618" lon="-1.615547">
        <ele>597.960</ele>
        <time>2017-03-18T12:41:54Z</time>
      </trkpt>
      <trkpt lat="38.051626" lon="-1.615358">
        <ele>598.384</ele>
        <time>2017-03-18T12:41:56Z</time>
      </trkpt>
      <trkpt lat="38.051624" lon="-1.615154">
        <ele>598.890</ele>
        <time>2017-03-18T12:41:58Z</time>
      </trkpt>
      <trkpt lat="38.051621" lon="-1.614968">
        <ele>599.410</ele>
        <time>2017-03-18T12:41:59Z</time>
      </trkpt>
      <trkpt lat="38.051614" lon="-1.614776">
        <ele>599.753</ele>
        <time>2017-03-18T12:42:01Z</time>
      </trkpt>
      <trkpt lat="38.051604" lon="-1.614584">
        <ele>599.604</ele>
        <time>2017-03-18T12:42:03Z</time>
      </trkpt>
      <trkpt lat="38.051586" lon="-1.614388">
        <ele>599.314</ele>
        <time>2017-03-18T12:42:05Z</time>
      </trkpt>
      <trkpt lat="38.051567" lon="-1.614199">
        <ele>598.908</ele>
        <time>2017-03-18T12:42:07Z</time>
      </trkpt>
      <trkpt lat="38.051549" lon="-1.614011">
        <ele>598.796</ele>
        <time>2017-03-18T12:42:09Z</time>
      </trkpt>
      <trkpt lat="38.051528" lon="-1.613833">
        <ele>598.361</ele>
        <time>2017-03-18T12:42:11Z</time>
      </trkpt>
      <trkpt lat="38.051510" lon="-1.613661">
        <ele>597.633</ele>
        <time>2017-03-18T12:42:13Z</time>
      </trkpt>
      <trkpt lat="38.051484" lon="-1.613490">
        <ele>596.718</ele>
        <time>2017-03-18T12:42:15Z</time>
      </trkpt>
      <trkpt lat="38.051460" lon="-1.613321">
        <ele>596.026</ele>
        <time>2017-03-18T12:42:17Z</time>
      </trkpt>
      <trkpt lat="38.051442" lon="-1.613145">
        <ele>595.540</ele>
        <time>2017-03-18T12:42:19Z</time>
      </trkpt>
      <trkpt lat="38.051427" lon="-1.612971">
        <ele>595.256</ele>
        <time>2017-03-18T12:42:21Z</time>
      </trkpt>
      <trkpt lat="38.051417" lon="-1.612798">
        <ele>594.846</ele>
        <time>2017-03-18T12:42:23Z</time>
      </trkpt>
      <trkpt lat="38.051407" lon="-1.612622">
        <ele>594.777</ele>
        <time>2017-03-18T12:42:25Z</time>
      </trkpt>
      <trkpt lat="38.051391" lon="-1.612438">
        <ele>594.561</ele>
        <time>2017-03-18T12:42:27Z</time>
      </trkpt>
      <trkpt lat="38.051378" lon="-1.612261">
        <ele>594.027</ele>
        <time>2017-03-18T12:42:29Z</time>
      </trkpt>
      <trkpt lat="38.051366" lon="-1.612079">
        <ele>593.508</ele>
        <time>2017-03-18T12:42:31Z</time>
      </trkpt>
      <trkpt lat="38.051346" lon="-1.611897">
        <ele>593.218</ele>
        <time>2017-03-18T12:42:33Z</time>
      </trkpt>
      <trkpt lat="38.051326" lon="-1.611703">
        <ele>592.823</ele>
        <time>2017-03-18T12:42:35Z</time>
      </trkpt>
      <trkpt lat="38.051304" lon="-1.611508">
        <ele>592.775</ele>
        <time>2017-03-18T12:42:37Z</time>
      </trkpt>
      <trkpt lat="38.051285" lon="-1.611326">
        <ele>592.080</ele>
        <time>2017-03-18T12:42:39Z</time>
      </trkpt>
      <trkpt lat="38.051264" lon="-1.611143">
        <ele>591.238</ele>
        <time>2017-03-18T12:42:41Z</time>
      </trkpt>
      <trkpt lat="38.051245" lon="-1.610959">
        <ele>590.522</ele>
        <time>2017-03-18T12:42:44Z</time>
      </trkpt>
      <trkpt lat="38.051223" lon="-1.610777">
        <ele>589.818</ele>
        <time>2017-03-18T12:42:46Z</time>
      </trkpt>
      <trkpt lat="38.051193" lon="-1.610576">
        <ele>589.638</ele>
        <time>2017-03-18T12:42:48Z</time>
      </trkpt>
      <trkpt lat="38.051163" lon="-1.610390">
        <ele>589.591</ele>
        <time>2017-03-18T12:42:50Z</time>
      </trkpt>
      <trkpt lat="38.051140" lon="-1.610221">
        <ele>589.681</ele>
        <time>2017-03-18T12:42:52Z</time>
      </trkpt>
      <trkpt lat="38.051126" lon="-1.610065">
        <ele>589.419</ele>
        <time>2017-03-18T12:42:54Z</time>
      </trkpt>
      <trkpt lat="38.051112" lon="-1.609910">
        <ele>588.808</ele>
        <time>2017-03-18T12:42:56Z</time>
      </trkpt>
      <trkpt lat="38.051099" lon="-1.609727">
        <ele>588.860</ele>
        <time>2017-03-18T12:42:58Z</time>
      </trkpt>
      <trkpt lat="38.051083" lon="-1.609568">
        <ele>588.355</ele>
        <time>2017-03-18T12:43:00Z</time>
      </trkpt>
      <trkpt lat="38.051069" lon="-1.609403">
        <ele>587.777</ele>
        <time>2017-03-18T12:43:02Z</time>
      </trkpt>
      <trkpt lat="38.051058" lon="-1.609231">
        <ele>587.462</ele>
        <time>2017-03-18T12:43:04Z</time>
      </trkpt>
      <trkpt lat="38.051042" lon="-1.609067">
        <ele>587.260</ele>
        <time>2017-03-18T12:43:06Z</time>
      </trkpt>
      <trkpt lat="38.051016" lon="-1.608895">
        <ele>586.884</ele>
        <time>2017-03-18T12:43:08Z</time>
      </trkpt>
      <trkpt lat="38.050994" lon="-1.608728">
        <ele>586.170</ele>
        <time>2017-03-18T12:43:10Z</time>
      </trkpt>
      <trkpt lat="38.050970" lon="-1.608559">
        <ele>585.630</ele>
        <time>2017-03-18T12:43:12Z</time>
      </trkpt>
      <trkpt lat="38.050954" lon="-1.608391">
        <ele>585.993</ele>
        <time>2017-03-18T12:43:14Z</time>
      </trkpt>
      <trkpt lat="38.050949" lon="-1.608233">
        <ele>585.965</ele>
        <time>2017-03-18T12:43:16Z</time>
      </trkpt>
      <trkpt lat="38.050951" lon="-1.608062">
        <ele>585.321</ele>
        <time>2017-03-18T12:43:18Z</time>
      </trkpt>
      <trkpt lat="38.050966" lon="-1.607799">
        <ele>584.708</ele>
        <time>2017-03-18T12:43:20Z</time>
      </trkpt>
      <trkpt lat="38.050980" lon="-1.607616">
        <ele>584.520</ele>
        <time>2017-03-18T12:43:22Z</time>
      </trkpt>
      <trkpt lat="38.050997" lon="-1.607436">
        <ele>584.095</ele>
        <time>2017-03-18T12:43:24Z</time>
      </trkpt>
      <trkpt lat="38.051012" lon="-1.607254">
        <ele>583.287</ele>
        <time>2017-03-18T12:43:26Z</time>
      </trkpt>
      <trkpt lat="38.051032" lon="-1.607066">
        <ele>582.532</ele>
        <time>2017-03-18T12:43:28Z</time>
      </trkpt>
      <trkpt lat="38.051055" lon="-1.606889">
        <ele>582.050</ele>
        <time>2017-03-18T12:43:30Z</time>
      </trkpt>
      <trkpt lat="38.051079" lon="-1.606713">
        <ele>581.744</ele>
        <time>2017-03-18T12:43:32Z</time>
      </trkpt>
      <trkpt lat="38.051142" lon="-1.606460">
        <ele>581.830</ele>
        <time>2017-03-18T12:43:35Z</time>
      </trkpt>
      <trkpt lat="38.051195" lon="-1.606308">
        <ele>581.960</ele>
        <time>2017-03-18T12:43:37Z</time>
      </trkpt>
      <trkpt lat="38.051247" lon="-1.606156">
        <ele>581.655</ele>
        <time>2017-03-18T12:43:39Z</time>
      </trkpt>
      <trkpt lat="38.051294" lon="-1.606005">
        <ele>581.407</ele>
        <time>2017-03-18T12:43:41Z</time>
      </trkpt>
      <trkpt lat="38.051339" lon="-1.605860">
        <ele>581.317</ele>
        <time>2017-03-18T12:43:43Z</time>
      </trkpt>
      <trkpt lat="38.051388" lon="-1.605717">
        <ele>581.208</ele>
        <time>2017-03-18T12:43:45Z</time>
      </trkpt>
      <trkpt lat="38.051441" lon="-1.605570">
        <ele>581.176</ele>
        <time>2017-03-18T12:43:47Z</time>
      </trkpt>
      <trkpt lat="38.051498" lon="-1.605430">
        <ele>580.881</ele>
        <time>2017-03-18T12:43:49Z</time>
      </trkpt>
      <trkpt lat="38.051553" lon="-1.605289">
        <ele>580.843</ele>
        <time>2017-03-18T12:43:51Z</time>
      </trkpt>
      <trkpt lat="38.051606" lon="-1.605148">
        <ele>580.848</ele>
        <time>2017-03-18T12:43:53Z</time>
      </trkpt>
      <trkpt lat="38.051660" lon="-1.605000">
        <ele>581.076</ele>
        <time>2017-03-18T12:43:55Z</time>
      </trkpt>
      <trkpt lat="38.051721" lon="-1.604859">
        <ele>582.080</ele>
        <time>2017-03-18T12:43:58Z</time>
      </trkpt>
      <trkpt lat="38.051781" lon="-1.604732">
        <ele>582.836</ele>
        <time>2017-03-18T12:44:00Z</time>
      </trkpt>
      <trkpt lat="38.051848" lon="-1.604600">
        <ele>583.776</ele>
        <time>2017-03-18T12:44:02Z</time>
      </trkpt>
      <trkpt lat="38.051919" lon="-1.604459">
        <ele>584.914</ele>
        <time>2017-03-18T12:44:04Z</time>
      </trkpt>
      <trkpt lat="38.051985" lon="-1.604324">
        <ele>585.754</ele>
        <time>2017-03-18T12:44:06Z</time>
      </trkpt>
      <trkpt lat="38.052052" lon="-1.604192">
        <ele>586.509</ele>
        <time>2017-03-18T12:44:08Z</time>
      </trkpt>
      <trkpt lat="38.052118" lon="-1.604065">
        <ele>587.708</ele>
        <time>2017-03-18T12:44:10Z</time>
      </trkpt>
      <trkpt lat="38.052187" lon="-1.603939">
        <ele>588.022</ele>
        <time>2017-03-18T12:44:12Z</time>
      </trkpt>
      <trkpt lat="38.052261" lon="-1.603807">
        <ele>588.077</ele>
        <time>2017-03-18T12:44:14Z</time>
      </trkpt>
      <trkpt lat="38.052334" lon="-1.603670">
        <ele>587.429</ele>
        <time>2017-03-18T12:44:16Z</time>
      </trkpt>
      <trkpt lat="38.052408" lon="-1.603533">
        <ele>586.064</ele>
        <time>2017-03-18T12:44:18Z</time>
      </trkpt>
      <trkpt lat="38.052483" lon="-1.603397">
        <ele>584.542</ele>
        <time>2017-03-18T12:44:20Z</time>
      </trkpt>
      <trkpt lat="38.052567" lon="-1.603254">
        <ele>583.486</ele>
        <time>2017-03-18T12:44:22Z</time>
      </trkpt>
      <trkpt lat="38.052644" lon="-1.603117">
        <ele>582.012</ele>
        <time>2017-03-18T12:44:24Z</time>
      </trkpt>
      <trkpt lat="38.052725" lon="-1.602965">
        <ele>581.072</ele>
        <time>2017-03-18T12:44:26Z</time>
      </trkpt>
      <trkpt lat="38.052804" lon="-1.602818">
        <ele>581.034</ele>
        <time>2017-03-18T12:44:28Z</time>
      </trkpt>
      <trkpt lat="38.052874" lon="-1.602679">
        <ele>580.455</ele>
        <time>2017-03-18T12:44:30Z</time>
      </trkpt>
      <trkpt lat="38.052948" lon="-1.602529">
        <ele>579.610</ele>
        <time>2017-03-18T12:44:32Z</time>
      </trkpt>
      <trkpt lat="38.053015" lon="-1.602393">
        <ele>579.508</ele>
        <time>2017-03-18T12:44:34Z</time>
      </trkpt>
      <trkpt lat="38.053079" lon="-1.602270">
        <ele>580.244</ele>
        <time>2017-03-18T12:44:36Z</time>
      </trkpt>
      <trkpt lat="38.053151" lon="-1.602120">
        <ele>579.839</ele>
        <time>2017-03-18T12:44:38Z</time>
      </trkpt>
      <trkpt lat="38.053225" lon="-1.601974">
        <ele>580.171</ele>
        <time>2017-03-18T12:44:40Z</time>
      </trkpt>
      <trkpt lat="38.053301" lon="-1.601818">
        <ele>579.976</ele>
        <time>2017-03-18T12:44:41Z</time>
      </trkpt>
      <trkpt lat="38.053380" lon="-1.601660">
        <ele>579.014</ele>
        <time>2017-03-18T12:44:43Z</time>
      </trkpt>
      <trkpt lat="38.053458" lon="-1.601505">
        <ele>577.928</ele>
        <time>2017-03-18T12:44:45Z</time>
      </trkpt>
      <trkpt lat="38.053522" lon="-1.601366">
        <ele>577.944</ele>
        <time>2017-03-18T12:44:47Z</time>
      </trkpt>
      <trkpt lat="38.053581" lon="-1.601234">
        <ele>578.314</ele>
        <time>2017-03-18T12:44:49Z</time>
      </trkpt>
      <trkpt lat="38.053644" lon="-1.601084">
        <ele>577.593</ele>
        <time>2017-03-18T12:44:51Z</time>
      </trkpt>
      <trkpt lat="38.053705" lon="-1.600925">
        <ele>576.765</ele>
        <time>2017-03-18T12:44:53Z</time>
      </trkpt>
      <trkpt lat="38.053754" lon="-1.600767">
        <ele>575.921</ele>
        <time>2017-03-18T12:44:55Z</time>
      </trkpt>
      <trkpt lat="38.053799" lon="-1.600610">
        <ele>575.008</ele>
        <time>2017-03-18T12:44:57Z</time>
      </trkpt>
      <trkpt lat="38.053851" lon="-1.600439">
        <ele>574.890</ele>
        <time>2017-03-18T12:44:59Z</time>
      </trkpt>
      <trkpt lat="38.053895" lon="-1.600268">
        <ele>574.345</ele>
        <time>2017-03-18T12:45:01Z</time>
      </trkpt>
      <trkpt lat="38.053936" lon="-1.600100">
        <ele>574.027</ele>
        <time>2017-03-18T12:45:03Z</time>
      </trkpt>
      <trkpt lat="38.053971" lon="-1.599947">
        <ele>572.442</ele>
        <time>2017-03-18T12:45:05Z</time>
      </trkpt>
      <trkpt lat="38.054000" lon="-1.599785">
        <ele>570.840</ele>
        <time>2017-03-18T12:45:07Z</time>
      </trkpt>
      <trkpt lat="38.054023" lon="-1.599623">
        <ele>570.374</ele>
        <time>2017-03-18T12:45:09Z</time>
      </trkpt>
      <trkpt lat="38.054047" lon="-1.599468">
        <ele>570.060</ele>
        <time>2017-03-18T12:45:11Z</time>
      </trkpt>
      <trkpt lat="38.054066" lon="-1.599306">
        <ele>569.850</ele>
        <time>2017-03-18T12:45:13Z</time>
      </trkpt>
      <trkpt lat="38.054078" lon="-1.599134">
        <ele>570.284</ele>
        <time>2017-03-18T12:45:15Z</time>
      </trkpt>
      <trkpt lat="38.054094" lon="-1.598960">
        <ele>570.807</ele>
        <time>2017-03-18T12:45:17Z</time>
      </trkpt>
      <trkpt lat="38.054098" lon="-1.598788">
        <ele>570.517</ele>
        <time>2017-03-18T12:45:19Z</time>
      </trkpt>
      <trkpt lat="38.054099" lon="-1.598603">
        <ele>570.608</ele>
        <time>2017-03-18T12:45:21Z</time>
      </trkpt>
      <trkpt lat="38.054097" lon="-1.598422">
        <ele>570.799</ele>
        <time>2017-03-18T12:45:24Z</time>
      </trkpt>
      <trkpt lat="38.054098" lon="-1.598240">
        <ele>570.614</ele>
        <time>2017-03-18T12:45:26Z</time>
      </trkpt>
      <trkpt lat="38.054100" lon="-1.598062">
        <ele>570.066</ele>
        <time>2017-03-18T12:45:28Z</time>
      </trkpt>
      <trkpt lat="38.054108" lon="-1.597885">
        <ele>569.151</ele>
        <time>2017-03-18T12:45:30Z</time>
      </trkpt>
      <trkpt lat="38.054115" lon="-1.597694">
        <ele>568.499</ele>
        <time>2017-03-18T12:45:32Z</time>
      </trkpt>
      <trkpt lat="38.054117" lon="-1.597501">
        <ele>567.593</ele>
        <time>2017-03-18T12:45:34Z</time>
      </trkpt>
      <trkpt lat="38.054117" lon="-1.597327">
        <ele>565.549</ele>
        <time>2017-03-18T12:45:36Z</time>
      </trkpt>
      <trkpt lat="38.054123" lon="-1.597153">
        <ele>563.719</ele>
        <time>2017-03-18T12:45:38Z</time>
      </trkpt>
      <trkpt lat="38.054133" lon="-1.596963">
        <ele>562.942</ele>
        <time>2017-03-18T12:45:40Z</time>
      </trkpt>
      <trkpt lat="38.054142" lon="-1.596775">
        <ele>562.822</ele>
        <time>2017-03-18T12:45:42Z</time>
      </trkpt>
      <trkpt lat="38.054146" lon="-1.596598">
        <ele>562.714</ele>
        <time>2017-03-18T12:45:44Z</time>
      </trkpt>
      <trkpt lat="38.054149" lon="-1.596420">
        <ele>562.708</ele>
        <time>2017-03-18T12:45:46Z</time>
      </trkpt>
      <trkpt lat="38.054156" lon="-1.596242">
        <ele>562.335</ele>
        <time>2017-03-18T12:45:48Z</time>
      </trkpt>
      <trkpt lat="38.054158" lon="-1.596058">
        <ele>561.990</ele>
        <time>2017-03-18T12:45:50Z</time>
      </trkpt>
      <trkpt lat="38.054158" lon="-1.595863">
        <ele>562.032</ele>
        <time>2017-03-18T12:45:52Z</time>
      </trkpt>
      <trkpt lat="38.054158" lon="-1.595684">
        <ele>562.387</ele>
        <time>2017-03-18T12:45:54Z</time>
      </trkpt>
      <trkpt lat="38.054162" lon="-1.595508">
        <ele>562.345</ele>
        <time>2017-03-18T12:45:56Z</time>
      </trkpt>
      <trkpt lat="38.054170" lon="-1.595323">
        <ele>561.999</ele>
        <time>2017-03-18T12:45:58Z</time>
      </trkpt>
      <trkpt lat="38.054180" lon="-1.595135">
        <ele>562.215</ele>
        <time>2017-03-18T12:46:00Z</time>
      </trkpt>
      <trkpt lat="38.054192" lon="-1.594956">
        <ele>562.695</ele>
        <time>2017-03-18T12:46:01Z</time>
      </trkpt>
      <trkpt lat="38.054199" lon="-1.594781">
        <ele>562.455</ele>
        <time>2017-03-18T12:46:03Z</time>
      </trkpt>
      <trkpt lat="38.054201" lon="-1.594605">
        <ele>561.707</ele>
        <time>2017-03-18T12:46:05Z</time>
      </trkpt>
      <trkpt lat="38.054194" lon="-1.594427">
        <ele>561.017</ele>
        <time>2017-03-18T12:46:07Z</time>
      </trkpt>
      <trkpt lat="38.054180" lon="-1.594249">
        <ele>560.408</ele>
        <time>2017-03-18T12:46:09Z</time>
      </trkpt>
      <trkpt lat="38.054159" lon="-1.594071">
        <ele>560.086</ele>
        <time>2017-03-18T12:46:11Z</time>
      </trkpt>
      <trkpt lat="38.054137" lon="-1.593895">
        <ele>559.611</ele>
        <time>2017-03-18T12:46:13Z</time>
      </trkpt>
      <trkpt lat="38.054113" lon="-1.593715">
        <ele>559.153</ele>
        <time>2017-03-18T12:46:15Z</time>
      </trkpt>
      <trkpt lat="38.054089" lon="-1.593552">
        <ele>558.728</ele>
        <time>2017-03-18T12:46:17Z</time>
      </trkpt>
      <trkpt lat="38.054060" lon="-1.593390">
        <ele>558.376</ele>
        <time>2017-03-18T12:46:19Z</time>
      </trkpt>
      <trkpt lat="38.054026" lon="-1.593234">
        <ele>557.850</ele>
        <time>2017-03-18T12:46:21Z</time>
      </trkpt>
      <trkpt lat="38.053985" lon="-1.593066">
        <ele>557.436</ele>
        <time>2017-03-18T12:46:23Z</time>
      </trkpt>
      <trkpt lat="38.053941" lon="-1.592904">
        <ele>557.036</ele>
        <time>2017-03-18T12:46:25Z</time>
      </trkpt>
      <trkpt lat="38.053893" lon="-1.592742">
        <ele>556.844</ele>
        <time>2017-03-18T12:46:27Z</time>
      </trkpt>
      <trkpt lat="38.053842" lon="-1.592584">
        <ele>556.905</ele>
        <time>2017-03-18T12:46:29Z</time>
      </trkpt>
      <trkpt lat="38.053788" lon="-1.592428">
        <ele>557.115</ele>
        <time>2017-03-18T12:46:31Z</time>
      </trkpt>
      <trkpt lat="38.053726" lon="-1.592270">
        <ele>557.108</ele>
        <time>2017-03-18T12:46:33Z</time>
      </trkpt>
      <trkpt lat="38.053657" lon="-1.592114">
        <ele>556.565</ele>
        <time>2017-03-18T12:46:35Z</time>
      </trkpt>
      <trkpt lat="38.053595" lon="-1.591973">
        <ele>556.340</ele>
        <time>2017-03-18T12:46:37Z</time>
      </trkpt>
      <trkpt lat="38.053530" lon="-1.591815">
        <ele>556.692</ele>
        <time>2017-03-18T12:46:39Z</time>
      </trkpt>
      <trkpt lat="38.053468" lon="-1.591668">
        <ele>557.747</ele>
        <time>2017-03-18T12:46:41Z</time>
      </trkpt>
      <trkpt lat="38.053406" lon="-1.591537">
        <ele>558.875</ele>
        <time>2017-03-18T12:46:43Z</time>
      </trkpt>
      <trkpt lat="38.053338" lon="-1.591403">
        <ele>559.649</ele>
        <time>2017-03-18T12:46:45Z</time>
      </trkpt>
      <trkpt lat="38.053270" lon="-1.591259">
        <ele>559.935</ele>
        <time>2017-03-18T12:46:48Z</time>
      </trkpt>
      <trkpt lat="38.053199" lon="-1.591112">
        <ele>559.655</ele>
        <time>2017-03-18T12:46:50Z</time>
      </trkpt>
      <trkpt lat="38.053118" lon="-1.590967">
        <ele>558.723</ele>
        <time>2017-03-18T12:46:52Z</time>
      </trkpt>
      <trkpt lat="38.053052" lon="-1.590817">
        <ele>557.483</ele>
        <time>2017-03-18T12:46:54Z</time>
      </trkpt>
      <trkpt lat="38.052979" lon="-1.590669">
        <ele>555.711</ele>
        <time>2017-03-18T12:46:56Z</time>
      </trkpt>
      <trkpt lat="38.052900" lon="-1.590522">
        <ele>553.708</ele>
        <time>2017-03-18T12:46:58Z</time>
      </trkpt>
      <trkpt lat="38.052828" lon="-1.590376">
        <ele>551.883</ele>
        <time>2017-03-18T12:47:00Z</time>
      </trkpt>
      <trkpt lat="38.052763" lon="-1.590236">
        <ele>550.178</ele>
        <time>2017-03-18T12:47:02Z</time>
      </trkpt>
      <trkpt lat="38.052698" lon="-1.590105">
        <ele>549.650</ele>
        <time>2017-03-18T12:47:04Z</time>
      </trkpt>
      <trkpt lat="38.052627" lon="-1.589952">
        <ele>549.225</ele>
        <time>2017-03-18T12:47:06Z</time>
      </trkpt>
      <trkpt lat="38.052555" lon="-1.589808">
        <ele>548.613</ele>
        <time>2017-03-18T12:47:08Z</time>
      </trkpt>
      <trkpt lat="38.052487" lon="-1.589667">
        <ele>548.227</ele>
        <time>2017-03-18T12:47:10Z</time>
      </trkpt>
      <trkpt lat="38.052421" lon="-1.589533">
        <ele>548.023</ele>
        <time>2017-03-18T12:47:12Z</time>
      </trkpt>
      <trkpt lat="38.052354" lon="-1.589402">
        <ele>547.933</ele>
        <time>2017-03-18T12:47:14Z</time>
      </trkpt>
      <trkpt lat="38.052289" lon="-1.589259">
        <ele>548.191</ele>
        <time>2017-03-18T12:47:15Z</time>
      </trkpt>
      <trkpt lat="38.052228" lon="-1.589115">
        <ele>548.581</ele>
        <time>2017-03-18T12:47:17Z</time>
      </trkpt>
      <trkpt lat="38.052156" lon="-1.588971">
        <ele>548.819</ele>
        <time>2017-03-18T12:47:19Z</time>
      </trkpt>
      <trkpt lat="38.052089" lon="-1.588836">
        <ele>548.708</ele>
        <time>2017-03-18T12:47:21Z</time>
      </trkpt>
      <trkpt lat="38.052023" lon="-1.588694">
        <ele>548.670</ele>
        <time>2017-03-18T12:47:23Z</time>
      </trkpt>
      <trkpt lat="38.051950" lon="-1.588545">
        <ele>548.155</ele>
        <time>2017-03-18T12:47:24Z</time>
      </trkpt>
      <trkpt lat="38.051879" lon="-1.588401">
        <ele>548.167</ele>
        <time>2017-03-18T12:47:26Z</time>
      </trkpt>
      <trkpt lat="38.051813" lon="-1.588261">
        <ele>547.832</ele>
        <time>2017-03-18T12:47:28Z</time>
      </trkpt>
      <trkpt lat="38.051747" lon="-1.588114">
        <ele>547.460</ele>
        <time>2017-03-18T12:47:30Z</time>
      </trkpt>
      <trkpt lat="38.051681" lon="-1.587953">
        <ele>547.144</ele>
        <time>2017-03-18T12:47:32Z</time>
      </trkpt>
      <trkpt lat="38.051623" lon="-1.587788">
        <ele>546.830</ele>
        <time>2017-03-18T12:47:34Z</time>
      </trkpt>
      <trkpt lat="38.051568" lon="-1.587625">
        <ele>546.870</ele>
        <time>2017-03-18T12:47:36Z</time>
      </trkpt>
      <trkpt lat="38.051523" lon="-1.587460">
        <ele>546.883</ele>
        <time>2017-03-18T12:47:38Z</time>
      </trkpt>
      <trkpt lat="38.051481" lon="-1.587282">
        <ele>545.925</ele>
        <time>2017-03-18T12:47:40Z</time>
      </trkpt>
      <trkpt lat="38.051443" lon="-1.587092">
        <ele>545.117</ele>
        <time>2017-03-18T12:47:42Z</time>
      </trkpt>
      <trkpt lat="38.051413" lon="-1.586923">
        <ele>543.808</ele>
        <time>2017-03-18T12:47:44Z</time>
      </trkpt>
      <trkpt lat="38.051392" lon="-1.586746">
        <ele>543.019</ele>
        <time>2017-03-18T12:47:46Z</time>
      </trkpt>
      <trkpt lat="38.051378" lon="-1.586584">
        <ele>542.124</ele>
        <time>2017-03-18T12:47:48Z</time>
      </trkpt>
      <trkpt lat="38.051364" lon="-1.586402">
        <ele>541.536</ele>
        <time>2017-03-18T12:47:50Z</time>
      </trkpt>
      <trkpt lat="38.051354" lon="-1.586212">
        <ele>541.471</ele>
        <time>2017-03-18T12:47:52Z</time>
      </trkpt>
      <trkpt lat="38.051347" lon="-1.586023">
        <ele>540.999</ele>
        <time>2017-03-18T12:47:54Z</time>
      </trkpt>
      <trkpt lat="38.051351" lon="-1.585850">
        <ele>540.663</ele>
        <time>2017-03-18T12:47:56Z</time>
      </trkpt>
      <trkpt lat="38.051360" lon="-1.585672">
        <ele>540.519</ele>
        <time>2017-03-18T12:47:58Z</time>
      </trkpt>
      <trkpt lat="38.051379" lon="-1.585502">
        <ele>540.889</ele>
        <time>2017-03-18T12:48:00Z</time>
      </trkpt>
      <trkpt lat="38.051403" lon="-1.585325">
        <ele>540.712</ele>
        <time>2017-03-18T12:48:02Z</time>
      </trkpt>
      <trkpt lat="38.051447" lon="-1.585168">
        <ele>540.032</ele>
        <time>2017-03-18T12:48:04Z</time>
      </trkpt>
      <trkpt lat="38.051485" lon="-1.585005">
        <ele>538.905</ele>
        <time>2017-03-18T12:48:07Z</time>
      </trkpt>
      <trkpt lat="38.051509" lon="-1.584842">
        <ele>537.108</ele>
        <time>2017-03-18T12:48:09Z</time>
      </trkpt>
      <trkpt lat="38.051549" lon="-1.584689">
        <ele>535.892</ele>
        <time>2017-03-18T12:48:11Z</time>
      </trkpt>
      <trkpt lat="38.051598" lon="-1.584523">
        <ele>534.997</ele>
        <time>2017-03-18T12:48:13Z</time>
      </trkpt>
      <trkpt lat="38.051651" lon="-1.584337">
        <ele>533.789</ele>
        <time>2017-03-18T12:48:15Z</time>
      </trkpt>
      <trkpt lat="38.051701" lon="-1.584165">
        <ele>532.574</ele>
        <time>2017-03-18T12:48:17Z</time>
      </trkpt>
      <trkpt lat="38.051753" lon="-1.584000">
        <ele>532.462</ele>
        <time>2017-03-18T12:48:19Z</time>
      </trkpt>
      <trkpt lat="38.051795" lon="-1.583844">
        <ele>532.826</ele>
        <time>2017-03-18T12:48:21Z</time>
      </trkpt>
      <trkpt lat="38.051833" lon="-1.583684">
        <ele>533.052</ele>
        <time>2017-03-18T12:48:23Z</time>
      </trkpt>
      <trkpt lat="38.051874" lon="-1.583523">
        <ele>532.932</ele>
        <time>2017-03-18T12:48:25Z</time>
      </trkpt>
      <trkpt lat="38.051925" lon="-1.583362">
        <ele>532.633</ele>
        <time>2017-03-18T12:48:27Z</time>
      </trkpt>
      <trkpt lat="38.051966" lon="-1.583203">
        <ele>532.323</ele>
        <time>2017-03-18T12:48:29Z</time>
      </trkpt>
      <trkpt lat="38.052007" lon="-1.583033">
        <ele>532.315</ele>
        <time>2017-03-18T12:48:31Z</time>
      </trkpt>
      <trkpt lat="38.052039" lon="-1.582874">
        <ele>532.408</ele>
        <time>2017-03-18T12:48:33Z</time>
      </trkpt>
      <trkpt lat="38.052066" lon="-1.582700">
        <ele>532.774</ele>
        <time>2017-03-18T12:48:35Z</time>
      </trkpt>
      <trkpt lat="38.052095" lon="-1.582527">
        <ele>532.949</ele>
        <time>2017-03-18T12:48:37Z</time>
      </trkpt>
      <trkpt lat="38.052125" lon="-1.582351">
        <ele>533.181</ele>
        <time>2017-03-18T12:48:39Z</time>
      </trkpt>
      <trkpt lat="38.052147" lon="-1.582181">
        <ele>533.186</ele>
        <time>2017-03-18T12:48:41Z</time>
      </trkpt>
      <trkpt lat="38.052181" lon="-1.582004">
        <ele>533.114</ele>
        <time>2017-03-18T12:48:43Z</time>
      </trkpt>
      <trkpt lat="38.052208" lon="-1.581832">
        <ele>533.178</ele>
        <time>2017-03-18T12:48:45Z</time>
      </trkpt>
      <trkpt lat="38.052235" lon="-1.581670">
        <ele>533.064</ele>
        <time>2017-03-18T12:48:47Z</time>
      </trkpt>
      <trkpt lat="38.052259" lon="-1.581505">
        <ele>533.024</ele>
        <time>2017-03-18T12:48:49Z</time>
      </trkpt>
      <trkpt lat="38.052286" lon="-1.581330">
        <ele>533.424</ele>
        <time>2017-03-18T12:48:51Z</time>
      </trkpt>
      <trkpt lat="38.052330" lon="-1.581071">
        <ele>532.804</ele>
        <time>2017-03-18T12:48:53Z</time>
      </trkpt>
      <trkpt lat="38.052364" lon="-1.580893">
        <ele>531.914</ele>
        <time>2017-03-18T12:48:55Z</time>
      </trkpt>
      <trkpt lat="38.052396" lon="-1.580711">
        <ele>530.508</ele>
        <time>2017-03-18T12:48:57Z</time>
      </trkpt>
      <trkpt lat="38.052426" lon="-1.580536">
        <ele>529.743</ele>
        <time>2017-03-18T12:48:59Z</time>
      </trkpt>
      <trkpt lat="38.052454" lon="-1.580372">
        <ele>529.538</ele>
        <time>2017-03-18T12:49:01Z</time>
      </trkpt>
      <trkpt lat="38.052488" lon="-1.580200">
        <ele>529.180</ele>
        <time>2017-03-18T12:49:03Z</time>
      </trkpt>
      <trkpt lat="38.052524" lon="-1.580021">
        <ele>528.685</ele>
        <time>2017-03-18T12:49:05Z</time>
      </trkpt>
      <trkpt lat="38.052558" lon="-1.579857">
        <ele>528.023</ele>
        <time>2017-03-18T12:49:07Z</time>
      </trkpt>
      <trkpt lat="38.052596" lon="-1.579684">
        <ele>528.127</ele>
        <time>2017-03-18T12:49:09Z</time>
      </trkpt>
      <trkpt lat="38.052631" lon="-1.579518">
        <ele>528.143</ele>
        <time>2017-03-18T12:49:11Z</time>
      </trkpt>
      <trkpt lat="38.052675" lon="-1.579346">
        <ele>528.193</ele>
        <time>2017-03-18T12:49:13Z</time>
      </trkpt>
      <trkpt lat="38.052720" lon="-1.579185">
        <ele>528.099</ele>
        <time>2017-03-18T12:49:15Z</time>
      </trkpt>
      <trkpt lat="38.052758" lon="-1.579041">
        <ele>528.007</ele>
        <time>2017-03-18T12:49:17Z</time>
      </trkpt>
      <trkpt lat="38.052795" lon="-1.578906">
        <ele>528.327</ele>
        <time>2017-03-18T12:49:19Z</time>
      </trkpt>
      <trkpt lat="38.052829" lon="-1.578772">
        <ele>528.608</ele>
        <time>2017-03-18T12:49:21Z</time>
      </trkpt>
      <trkpt lat="38.052857" lon="-1.578631">
        <ele>528.970</ele>
        <time>2017-03-18T12:49:24Z</time>
      </trkpt>
      <trkpt lat="38.052869" lon="-1.578481">
        <ele>529.355</ele>
        <time>2017-03-18T12:49:26Z</time>
      </trkpt>
      <trkpt lat="38.052876" lon="-1.578357">
        <ele>528.867</ele>
        <time>2017-03-18T12:49:28Z</time>
      </trkpt>
      <trkpt lat="38.052875" lon="-1.578216">
        <ele>528.042</ele>
        <time>2017-03-18T12:49:30Z</time>
      </trkpt>
      <trkpt lat="38.052862" lon="-1.578085">
        <ele>526.230</ele>
        <time>2017-03-18T12:49:32Z</time>
      </trkpt>
      <trkpt lat="38.052844" lon="-1.577936">
        <ele>524.094</ele>
        <time>2017-03-18T12:49:34Z</time>
      </trkpt>
      <trkpt lat="38.052818" lon="-1.577789">
        <ele>521.880</ele>
        <time>2017-03-18T12:49:36Z</time>
      </trkpt>
      <trkpt lat="38.052787" lon="-1.577647">
        <ele>520.210</ele>
        <time>2017-03-18T12:49:38Z</time>
      </trkpt>
      <trkpt lat="38.052756" lon="-1.577522">
        <ele>519.376</ele>
        <time>2017-03-18T12:49:40Z</time>
      </trkpt>
      <trkpt lat="38.052731" lon="-1.577407">
        <ele>519.090</ele>
        <time>2017-03-18T12:49:42Z</time>
      </trkpt>
      <trkpt lat="38.052707" lon="-1.577266">
        <ele>519.319</ele>
        <time>2017-03-18T12:49:45Z</time>
      </trkpt>
      <trkpt lat="38.052680" lon="-1.577109">
        <ele>519.708</ele>
        <time>2017-03-18T12:49:48Z</time>
      </trkpt>
      <trkpt lat="38.052677" lon="-1.576950">
        <ele>522.028</ele>
        <time>2017-03-18T12:49:51Z</time>
      </trkpt>
      <trkpt lat="38.052687" lon="-1.576806">
        <ele>525.773</ele>
        <time>2017-03-18T12:49:54Z</time>
      </trkpt>
      <trkpt lat="38.052694" lon="-1.576648">
        <ele>528.895</ele>
        <time>2017-03-18T12:49:57Z</time>
      </trkpt>
      <trkpt lat="38.052694" lon="-1.576534">
        <ele>530.780</ele>
        <time>2017-03-18T12:49:59Z</time>
      </trkpt>
      <trkpt lat="38.052688" lon="-1.576405">
        <ele>531.888</ele>
        <time>2017-03-18T12:50:01Z</time>
      </trkpt>
      <trkpt lat="38.052678" lon="-1.576277">
        <ele>532.292</ele>
        <time>2017-03-18T12:50:02Z</time>
      </trkpt>
      <trkpt lat="38.052666" lon="-1.576147">
        <ele>532.458</ele>
        <time>2017-03-18T12:50:04Z</time>
      </trkpt>
      <trkpt lat="38.052648" lon="-1.576018">
        <ele>531.728</ele>
        <time>2017-03-18T12:50:06Z</time>
      </trkpt>
      <trkpt lat="38.052628" lon="-1.575892">
        <ele>530.575</ele>
        <time>2017-03-18T12:50:08Z</time>
      </trkpt>
      <trkpt lat="38.052609" lon="-1.575753">
        <ele>529.328</ele>
        <time>2017-03-18T12:50:10Z</time>
      </trkpt>
      <trkpt lat="38.052587" lon="-1.575628">
        <ele>528.520</ele>
        <time>2017-03-18T12:50:12Z</time>
      </trkpt>
      <trkpt lat="38.052571" lon="-1.575503">
        <ele>527.708</ele>
        <time>2017-03-18T12:50:14Z</time>
      </trkpt>
      <trkpt lat="38.052554" lon="-1.575381">
        <ele>527.028</ele>
        <time>2017-03-18T12:50:16Z</time>
      </trkpt>
      <trkpt lat="38.052535" lon="-1.575264">
        <ele>526.393</ele>
        <time>2017-03-18T12:50:18Z</time>
      </trkpt>
      <trkpt lat="38.052515" lon="-1.575151">
        <ele>525.175</ele>
        <time>2017-03-18T12:50:20Z</time>
      </trkpt>
      <trkpt lat="38.052503" lon="-1.575015">
        <ele>524.480</ele>
        <time>2017-03-18T12:50:22Z</time>
      </trkpt>
      <trkpt lat="38.052501" lon="-1.574891">
        <ele>524.988</ele>
        <time>2017-03-18T12:50:24Z</time>
      </trkpt>
      <trkpt lat="38.052486" lon="-1.574718">
        <ele>525.522</ele>
        <time>2017-03-18T12:50:27Z</time>
      </trkpt>
      <trkpt lat="38.052472" lon="-1.574587">
        <ele>525.978</ele>
        <time>2017-03-18T12:50:29Z</time>
      </trkpt>
      <trkpt lat="38.052460" lon="-1.574458">
        <ele>526.278</ele>
        <time>2017-03-18T12:50:32Z</time>
      </trkpt>
      <trkpt lat="38.052444" lon="-1.574320">
        <ele>527.117</ele>
        <time>2017-03-18T12:50:34Z</time>
      </trkpt>
      <trkpt lat="38.052425" lon="-1.574195">
        <ele>527.887</ele>
        <time>2017-03-18T12:50:36Z</time>
      </trkpt>
      <trkpt lat="38.052413" lon="-1.574035">
        <ele>529.615</ele>
        <time>2017-03-18T12:50:39Z</time>
      </trkpt>
      <trkpt lat="38.052418" lon="-1.573880">
        <ele>531.308</ele>
        <time>2017-03-18T12:50:42Z</time>
      </trkpt>
      <trkpt lat="38.052412" lon="-1.573758">
        <ele>531.662</ele>
        <time>2017-03-18T12:50:44Z</time>
      </trkpt>
      <trkpt lat="38.052414" lon="-1.573635">
        <ele>531.677</ele>
        <time>2017-03-18T12:50:46Z</time>
      </trkpt>
      <trkpt lat="38.052406" lon="-1.573520">
        <ele>531.269</ele>
        <time>2017-03-18T12:50:48Z</time>
      </trkpt>
      <trkpt lat="38.052394" lon="-1.573392">
        <ele>530.594</ele>
        <time>2017-03-18T12:50:50Z</time>
      </trkpt>
      <trkpt lat="38.052378" lon="-1.573259">
        <ele>529.742</ele>
        <time>2017-03-18T12:50:52Z</time>
      </trkpt>
      <trkpt lat="38.052363" lon="-1.573126">
        <ele>529.056</ele>
        <time>2017-03-18T12:50:54Z</time>
      </trkpt>
      <trkpt lat="38.052342" lon="-1.572996">
        <ele>528.822</ele>
        <time>2017-03-18T12:50:56Z</time>
      </trkpt>
      <trkpt lat="38.052318" lon="-1.572866">
        <ele>529.262</ele>
        <time>2017-03-18T12:50:58Z</time>
      </trkpt>
      <trkpt lat="38.052294" lon="-1.572734">
        <ele>530.328</ele>
        <time>2017-03-18T12:51:00Z</time>
      </trkpt>
      <trkpt lat="38.052271" lon="-1.572614">
        <ele>531.489</ele>
        <time>2017-03-18T12:51:02Z</time>
      </trkpt>
      <trkpt lat="38.052255" lon="-1.572497">
        <ele>531.917</ele>
        <time>2017-03-18T12:51:04Z</time>
      </trkpt>
      <trkpt lat="38.052118" lon="-1.570913">
        <ele>529.508</ele>
        <time>2017-03-18T12:51:34Z</time>
      </trkpt>
      <trkpt lat="38.052102" lon="-1.570784">
        <ele>529.743</ele>
        <time>2017-03-18T12:51:36Z</time>
      </trkpt>
      <trkpt lat="38.052062" lon="-1.570679">
        <ele>529.878</ele>
        <time>2017-03-18T12:51:38Z</time>
      </trkpt>
      <trkpt lat="38.052048" lon="-1.570552">
        <ele>529.840</ele>
        <time>2017-03-18T12:51:41Z</time>
      </trkpt>
      <trkpt lat="38.052050" lon="-1.570414">
        <ele>529.785</ele>
        <time>2017-03-18T12:51:45Z</time>
      </trkpt>
      <trkpt lat="38.052016" lon="-1.570280">
        <ele>527.063</ele>
        <time>2017-03-18T12:51:48Z</time>
      </trkpt>
      <trkpt lat="38.051980" lon="-1.570115">
        <ele>525.537</ele>
        <time>2017-03-18T12:51:51Z</time>
      </trkpt>
      <trkpt lat="38.051962" lon="-1.569994">
        <ele>525.843</ele>
        <time>2017-03-18T12:51:53Z</time>
      </trkpt>
      <trkpt lat="38.051943" lon="-1.569872">
        <ele>526.793</ele>
        <time>2017-03-18T12:51:55Z</time>
      </trkpt>
      <trkpt lat="38.051922" lon="-1.569749">
        <ele>527.578</ele>
        <time>2017-03-18T12:51:57Z</time>
      </trkpt>
      <trkpt lat="38.051913" lon="-1.569624">
        <ele>528.233</ele>
        <time>2017-03-18T12:51:59Z</time>
      </trkpt>
      <trkpt lat="38.051910" lon="-1.569499">
        <ele>528.726</ele>
        <time>2017-03-18T12:52:01Z</time>
      </trkpt>
      <trkpt lat="38.051894" lon="-1.569366">
        <ele>529.008</ele>
        <time>2017-03-18T12:52:03Z</time>
      </trkpt>
      <trkpt lat="38.051881" lon="-1.569247">
        <ele>529.298</ele>
        <time>2017-03-18T12:52:06Z</time>
      </trkpt>
      <trkpt lat="38.051875" lon="-1.569080">
        <ele>529.373</ele>
        <time>2017-03-18T12:52:09Z</time>
      </trkpt>
      <trkpt lat="38.051864" lon="-1.568915">
        <ele>529.925</ele>
        <time>2017-03-18T12:52:12Z</time>
      </trkpt>
      <trkpt lat="38.051866" lon="-1.568746">
        <ele>530.130</ele>
        <time>2017-03-18T12:52:15Z</time>
      </trkpt>
      <trkpt lat="38.051855" lon="-1.568627">
        <ele>529.118</ele>
        <time>2017-03-18T12:52:17Z</time>
      </trkpt>
      <trkpt lat="38.051841" lon="-1.568507">
        <ele>527.962</ele>
        <time>2017-03-18T12:52:19Z</time>
      </trkpt>
      <trkpt lat="38.051823" lon="-1.568391">
        <ele>527.068</ele>
        <time>2017-03-18T12:52:21Z</time>
      </trkpt>
      <trkpt lat="38.051801" lon="-1.568280">
        <ele>526.238</ele>
        <time>2017-03-18T12:52:23Z</time>
      </trkpt>
      <trkpt lat="38.051780" lon="-1.568164">
        <ele>526.242</ele>
        <time>2017-03-18T12:52:25Z</time>
      </trkpt>
      <trkpt lat="38.051758" lon="-1.568024">
        <ele>525.822</ele>
        <time>2017-03-18T12:52:27Z</time>
      </trkpt>
      <trkpt lat="38.051748" lon="-1.567900">
        <ele>525.014</ele>
        <time>2017-03-18T12:52:29Z</time>
      </trkpt>
      <trkpt lat="38.051744" lon="-1.567772">
        <ele>524.208</ele>
        <time>2017-03-18T12:52:31Z</time>
      </trkpt>
      <trkpt lat="38.051735" lon="-1.567642">
        <ele>523.185</ele>
        <time>2017-03-18T12:52:33Z</time>
      </trkpt>
      <trkpt lat="38.051722" lon="-1.567522">
        <ele>522.170</ele>
        <time>2017-03-18T12:52:35Z</time>
      </trkpt>
      <trkpt lat="38.051716" lon="-1.567402">
        <ele>521.452</ele>
        <time>2017-03-18T12:52:37Z</time>
      </trkpt>
      <trkpt lat="38.051711" lon="-1.567280">
        <ele>521.087</ele>
        <time>2017-03-18T12:52:39Z</time>
      </trkpt>
      <trkpt lat="38.051705" lon="-1.567164">
        <ele>520.775</ele>
        <time>2017-03-18T12:52:41Z</time>
      </trkpt>
      <trkpt lat="38.051699" lon="-1.567039">
        <ele>520.839</ele>
        <time>2017-03-18T12:52:43Z</time>
      </trkpt>
      <trkpt lat="38.051696" lon="-1.566907">
        <ele>521.035</ele>
        <time>2017-03-18T12:52:45Z</time>
      </trkpt>
      <trkpt lat="38.051688" lon="-1.566764">
        <ele>520.945</ele>
        <time>2017-03-18T12:52:47Z</time>
      </trkpt>
      <trkpt lat="38.051684" lon="-1.566624">
        <ele>520.792</ele>
        <time>2017-03-18T12:52:49Z</time>
      </trkpt>
      <trkpt lat="38.051688" lon="-1.566474">
        <ele>520.173</ele>
        <time>2017-03-18T12:52:51Z</time>
      </trkpt>
      <trkpt lat="38.051703" lon="-1.566316">
        <ele>519.420</ele>
        <time>2017-03-18T12:52:52Z</time>
      </trkpt>
      <trkpt lat="38.051726" lon="-1.566083">
        <ele>519.508</ele>
        <time>2017-03-18T12:52:55Z</time>
      </trkpt>
      <trkpt lat="38.051732" lon="-1.565926">
        <ele>519.310</ele>
        <time>2017-03-18T12:52:57Z</time>
      </trkpt>
      <trkpt lat="38.051748" lon="-1.565767">
        <ele>519.525</ele>
        <time>2017-03-18T12:52:59Z</time>
      </trkpt>
      <trkpt lat="38.051771" lon="-1.565620">
        <ele>520.087</ele>
        <time>2017-03-18T12:53:01Z</time>
      </trkpt>
      <trkpt lat="38.051792" lon="-1.565473">
        <ele>521.132</ele>
        <time>2017-03-18T12:53:03Z</time>
      </trkpt>
      <trkpt lat="38.051809" lon="-1.565319">
        <ele>522.040</ele>
        <time>2017-03-18T12:53:05Z</time>
      </trkpt>
      <trkpt lat="38.051826" lon="-1.565165">
        <ele>522.954</ele>
        <time>2017-03-18T12:53:07Z</time>
      </trkpt>
      <trkpt lat="38.051833" lon="-1.565000">
        <ele>523.550</ele>
        <time>2017-03-18T12:53:09Z</time>
      </trkpt>
      <trkpt lat="38.051843" lon="-1.564840">
        <ele>523.430</ele>
        <time>2017-03-18T12:53:11Z</time>
      </trkpt>
      <trkpt lat="38.051850" lon="-1.564684">
        <ele>522.712</ele>
        <time>2017-03-18T12:53:13Z</time>
      </trkpt>
      <trkpt lat="38.051860" lon="-1.564532">
        <ele>521.932</ele>
        <time>2017-03-18T12:53:15Z</time>
      </trkpt>
      <trkpt lat="38.052183" lon="-1.561089">
        <ele>484.805</ele>
        <time>2017-03-18T12:54:02Z</time>
      </trkpt>
      <trkpt lat="38.052160" lon="-1.560955">
        <ele>485.708</ele>
        <time>2017-03-18T12:54:04Z</time>
      </trkpt>
      <trkpt lat="38.052160" lon="-1.560801">
        <ele>489.572</ele>
        <time>2017-03-18T12:54:06Z</time>
      </trkpt>
      <trkpt lat="38.052162" lon="-1.560635">
        <ele>493.347</ele>
        <time>2017-03-18T12:54:08Z</time>
      </trkpt>
      <trkpt lat="38.052148" lon="-1.560449">
        <ele>496.219</ele>
        <time>2017-03-18T12:54:10Z</time>
      </trkpt>
      <trkpt lat="38.052139" lon="-1.560277">
        <ele>498.074</ele>
        <time>2017-03-18T12:54:12Z</time>
      </trkpt>
      <trkpt lat="38.052139" lon="-1.560115">
        <ele>499.782</ele>
        <time>2017-03-18T12:54:14Z</time>
      </trkpt>
      <trkpt lat="38.052146" lon="-1.559892">
        <ele>501.656</ele>
        <time>2017-03-18T12:54:16Z</time>
      </trkpt>
      <trkpt lat="38.052142" lon="-1.559742">
        <ele>502.772</ele>
        <time>2017-03-18T12:54:18Z</time>
      </trkpt>
      <trkpt lat="38.052134" lon="-1.559594">
        <ele>503.582</ele>
        <time>2017-03-18T12:54:20Z</time>
      </trkpt>
      <trkpt lat="38.052127" lon="-1.559446">
        <ele>504.253</ele>
        <time>2017-03-18T12:54:22Z</time>
      </trkpt>
      <trkpt lat="38.052110" lon="-1.559303">
        <ele>504.704</ele>
        <time>2017-03-18T12:54:24Z</time>
      </trkpt>
      <trkpt lat="38.052086" lon="-1.559168">
        <ele>504.214</ele>
        <time>2017-03-18T12:54:26Z</time>
      </trkpt>
      <trkpt lat="38.052061" lon="-1.559036">
        <ele>503.208</ele>
        <time>2017-03-18T12:54:28Z</time>
      </trkpt>
      <trkpt lat="38.052046" lon="-1.558892">
        <ele>502.766</ele>
        <time>2017-03-18T12:54:30Z</time>
      </trkpt>
      <trkpt lat="38.052027" lon="-1.558730">
        <ele>502.931</ele>
        <time>2017-03-18T12:54:32Z</time>
      </trkpt>
      <trkpt lat="38.051977" lon="-1.558598">
        <ele>503.753</ele>
        <time>2017-03-18T12:54:34Z</time>
      </trkpt>
      <trkpt lat="38.051938" lon="-1.558463">
        <ele>504.728</ele>
        <time>2017-03-18T12:54:36Z</time>
      </trkpt>
      <trkpt lat="38.051904" lon="-1.558330">
        <ele>505.836</ele>
        <time>2017-03-18T12:54:38Z</time>
      </trkpt>
      <trkpt lat="38.051881" lon="-1.558217">
        <ele>507.320</ele>
        <time>2017-03-18T12:54:40Z</time>
      </trkpt>
      <trkpt lat="38.051852" lon="-1.558096">
        <ele>508.126</ele>
        <time>2017-03-18T12:54:42Z</time>
      </trkpt>
      <trkpt lat="38.051820" lon="-1.557984">
        <ele>509.236</ele>
        <time>2017-03-18T12:54:44Z</time>
      </trkpt>
      <trkpt lat="38.051773" lon="-1.557857">
        <ele>509.941</ele>
        <time>2017-03-18T12:54:46Z</time>
      </trkpt>
      <trkpt lat="38.051706" lon="-1.557711">
        <ele>509.981</ele>
        <time>2017-03-18T12:54:48Z</time>
      </trkpt>
      <trkpt lat="38.051619" lon="-1.557541">
        <ele>509.409</ele>
        <time>2017-03-18T12:54:51Z</time>
      </trkpt>
      <trkpt lat="38.051539" lon="-1.557397">
        <ele>508.208</ele>
        <time>2017-03-18T12:54:53Z</time>
      </trkpt>
      <trkpt lat="38.051458" lon="-1.557245">
        <ele>507.015</ele>
        <time>2017-03-18T12:54:55Z</time>
      </trkpt>
      <trkpt lat="38.051378" lon="-1.557101">
        <ele>505.410</ele>
        <time>2017-03-18T12:54:57Z</time>
      </trkpt>
      <trkpt lat="38.051294" lon="-1.556960">
        <ele>503.882</ele>
        <time>2017-03-18T12:54:59Z</time>
      </trkpt>
      <trkpt lat="38.051203" lon="-1.556825">
        <ele>502.497</ele>
        <time>2017-03-18T12:55:01Z</time>
      </trkpt>
      <trkpt lat="38.051102" lon="-1.556696">
        <ele>501.495</ele>
        <time>2017-03-18T12:55:03Z</time>
      </trkpt>
      <trkpt lat="38.051000" lon="-1.556567">
        <ele>501.199</ele>
        <time>2017-03-18T12:55:05Z</time>
      </trkpt>
      <trkpt lat="38.050900" lon="-1.556434">
        <ele>500.875</ele>
        <time>2017-03-18T12:55:07Z</time>
      </trkpt>
      <trkpt lat="38.050803" lon="-1.556307">
        <ele>500.915</ele>
        <time>2017-03-18T12:55:09Z</time>
      </trkpt>
      <trkpt lat="38.050710" lon="-1.556178">
        <ele>501.299</ele>
        <time>2017-03-18T12:55:11Z</time>
      </trkpt>
      <trkpt lat="38.050625" lon="-1.556056">
        <ele>501.207</ele>
        <time>2017-03-18T12:55:13Z</time>
      </trkpt>
      <trkpt lat="38.050546" lon="-1.555938">
        <ele>501.127</ele>
        <time>2017-03-18T12:55:15Z</time>
      </trkpt>
      <trkpt lat="38.050457" lon="-1.555823">
        <ele>501.708</ele>
        <time>2017-03-18T12:55:17Z</time>
      </trkpt>
      <trkpt lat="38.050370" lon="-1.555698">
        <ele>502.390</ele>
        <time>2017-03-18T12:55:19Z</time>
      </trkpt>
      <trkpt lat="38.050284" lon="-1.555580">
        <ele>502.585</ele>
        <time>2017-03-18T12:55:21Z</time>
      </trkpt>
      <trkpt lat="38.050198" lon="-1.555470">
        <ele>502.327</ele>
        <time>2017-03-18T12:55:23Z</time>
      </trkpt>
      <trkpt lat="38.050114" lon="-1.555354">
        <ele>502.162</ele>
        <time>2017-03-18T12:55:25Z</time>
      </trkpt>
      <trkpt lat="38.050033" lon="-1.555241">
        <ele>501.780</ele>
        <time>2017-03-18T12:55:27Z</time>
      </trkpt>
      <trkpt lat="38.049954" lon="-1.555129">
        <ele>501.234</ele>
        <time>2017-03-18T12:55:29Z</time>
      </trkpt>
      <trkpt lat="38.049884" lon="-1.555020">
        <ele>500.770</ele>
        <time>2017-03-18T12:55:31Z</time>
      </trkpt>
      <trkpt lat="38.049752" lon="-1.554851">
        <ele>500.120</ele>
        <time>2017-03-18T12:55:34Z</time>
      </trkpt>
      <trkpt lat="38.049661" lon="-1.554746">
        <ele>499.842</ele>
        <time>2017-03-18T12:55:36Z</time>
      </trkpt>
      <trkpt lat="38.049580" lon="-1.554644">
        <ele>499.622</ele>
        <time>2017-03-18T12:55:38Z</time>
      </trkpt>
      <trkpt lat="38.049502" lon="-1.554555">
        <ele>499.114</ele>
        <time>2017-03-18T12:55:40Z</time>
      </trkpt>
      <trkpt lat="38.049427" lon="-1.554458">
        <ele>498.808</ele>
        <time>2017-03-18T12:55:42Z</time>
      </trkpt>
      <trkpt lat="38.049353" lon="-1.554343">
        <ele>498.415</ele>
        <time>2017-03-18T12:55:44Z</time>
      </trkpt>
      <trkpt lat="38.049288" lon="-1.554215">
        <ele>497.940</ele>
        <time>2017-03-18T12:55:46Z</time>
      </trkpt>
      <trkpt lat="38.049221" lon="-1.554077">
        <ele>497.552</ele>
        <time>2017-03-18T12:55:48Z</time>
      </trkpt>
      <trkpt lat="38.049161" lon="-1.553942">
        <ele>496.887</ele>
        <time>2017-03-18T12:55:50Z</time>
      </trkpt>
      <trkpt lat="38.049103" lon="-1.553795">
        <ele>496.635</ele>
        <time>2017-03-18T12:55:52Z</time>
      </trkpt>
      <trkpt lat="38.049052" lon="-1.553647">
        <ele>496.859</ele>
        <time>2017-03-18T12:55:54Z</time>
      </trkpt>
      <trkpt lat="38.049008" lon="-1.553497">
        <ele>496.675</ele>
        <time>2017-03-18T12:55:56Z</time>
      </trkpt>
      <trkpt lat="38.048965" lon="-1.553343">
        <ele>496.495</ele>
        <time>2017-03-18T12:55:58Z</time>
      </trkpt>
      <trkpt lat="38.048926" lon="-1.553178">
        <ele>496.579</ele>
        <time>2017-03-18T12:56:00Z</time>
      </trkpt>
      <trkpt lat="38.048893" lon="-1.553006">
        <ele>496.505</ele>
        <time>2017-03-18T12:56:02Z</time>
      </trkpt>
      <trkpt lat="38.048860" lon="-1.552833">
        <ele>496.425</ele>
        <time>2017-03-18T12:56:04Z</time>
      </trkpt>
      <trkpt lat="38.048828" lon="-1.552658">
        <ele>496.008</ele>
        <time>2017-03-18T12:56:06Z</time>
      </trkpt>
      <trkpt lat="38.048796" lon="-1.552482">
        <ele>495.188</ele>
        <time>2017-03-18T12:56:08Z</time>
      </trkpt>
      <trkpt lat="38.048765" lon="-1.552309">
        <ele>494.313</ele>
        <time>2017-03-18T12:56:10Z</time>
      </trkpt>
      <trkpt lat="38.048735" lon="-1.552134">
        <ele>493.835</ele>
        <time>2017-03-18T12:56:12Z</time>
      </trkpt>
      <trkpt lat="38.048707" lon="-1.551965">
        <ele>493.450</ele>
        <time>2017-03-18T12:56:14Z</time>
      </trkpt>
      <trkpt lat="38.048681" lon="-1.551804">
        <ele>493.518</ele>
        <time>2017-03-18T12:56:16Z</time>
      </trkpt>
      <trkpt lat="38.048656" lon="-1.551637">
        <ele>493.662</ele>
        <time>2017-03-18T12:56:18Z</time>
      </trkpt>
      <trkpt lat="38.048632" lon="-1.551469">
        <ele>493.498</ele>
        <time>2017-03-18T12:56:20Z</time>
      </trkpt>
      <trkpt lat="38.048603" lon="-1.551296">
        <ele>492.948</ele>
        <time>2017-03-18T12:56:22Z</time>
      </trkpt>
      <trkpt lat="38.048576" lon="-1.551126">
        <ele>492.089</ele>
        <time>2017-03-18T12:56:24Z</time>
      </trkpt>
      <trkpt lat="38.048542" lon="-1.550954">
        <ele>490.806</ele>
        <time>2017-03-18T12:56:26Z</time>
      </trkpt>
      <trkpt lat="38.048506" lon="-1.550784">
        <ele>489.526</ele>
        <time>2017-03-18T12:56:28Z</time>
      </trkpt>
      <trkpt lat="38.048468" lon="-1.550612">
        <ele>488.608</ele>
        <time>2017-03-18T12:56:30Z</time>
      </trkpt>
      <trkpt lat="38.048431" lon="-1.550439">
        <ele>487.479</ele>
        <time>2017-03-18T12:56:32Z</time>
      </trkpt>
      <trkpt lat="38.048399" lon="-1.550277">
        <ele>486.964</ele>
        <time>2017-03-18T12:56:34Z</time>
      </trkpt>
      <trkpt lat="38.048374" lon="-1.550124">
        <ele>487.036</ele>
        <time>2017-03-18T12:56:36Z</time>
      </trkpt>
      <trkpt lat="38.048349" lon="-1.549984">
        <ele>487.361</ele>
        <time>2017-03-18T12:56:38Z</time>
      </trkpt>
      <trkpt lat="38.048321" lon="-1.549846">
        <ele>488.189</ele>
        <time>2017-03-18T12:56:40Z</time>
      </trkpt>
      <trkpt lat="38.048294" lon="-1.549687">
        <ele>488.923</ele>
        <time>2017-03-18T12:56:42Z</time>
      </trkpt>
      <trkpt lat="38.048267" lon="-1.549528">
        <ele>489.359</ele>
        <time>2017-03-18T12:56:44Z</time>
      </trkpt>
      <trkpt lat="38.048231" lon="-1.549291">
        <ele>490.249</ele>
        <time>2017-03-18T12:56:46Z</time>
      </trkpt>
      <trkpt lat="38.048208" lon="-1.549128">
        <ele>491.287</ele>
        <time>2017-03-18T12:56:49Z</time>
      </trkpt>
      <trkpt lat="38.048182" lon="-1.548949">
        <ele>491.642</ele>
        <time>2017-03-18T12:56:51Z</time>
      </trkpt>
      <trkpt lat="38.048153" lon="-1.548772">
        <ele>491.826</ele>
        <time>2017-03-18T12:56:53Z</time>
      </trkpt>
      <trkpt lat="38.048127" lon="-1.548596">
        <ele>491.508</ele>
        <time>2017-03-18T12:56:55Z</time>
      </trkpt>
      <trkpt lat="38.048103" lon="-1.548423">
        <ele>491.029</ele>
        <time>2017-03-18T12:56:57Z</time>
      </trkpt>
      <trkpt lat="38.048073" lon="-1.548253">
        <ele>490.174</ele>
        <time>2017-03-18T12:56:59Z</time>
      </trkpt>
      <trkpt lat="38.048044" lon="-1.548089">
        <ele>488.966</ele>
        <time>2017-03-18T12:57:01Z</time>
      </trkpt>
      <trkpt lat="38.048016" lon="-1.547928">
        <ele>487.781</ele>
        <time>2017-03-18T12:57:03Z</time>
      </trkpt>
      <trkpt lat="38.047988" lon="-1.547775">
        <ele>487.019</ele>
        <time>2017-03-18T12:57:05Z</time>
      </trkpt>
      <trkpt lat="38.047953" lon="-1.547633">
        <ele>486.753</ele>
        <time>2017-03-18T12:57:07Z</time>
      </trkpt>
      <trkpt lat="38.047915" lon="-1.547484">
        <ele>486.989</ele>
        <time>2017-03-18T12:57:09Z</time>
      </trkpt>
      <trkpt lat="38.047915" lon="-1.547310">
        <ele>486.669</ele>
        <time>2017-03-18T12:57:11Z</time>
      </trkpt>
      <trkpt lat="38.047907" lon="-1.547118">
        <ele>486.492</ele>
        <time>2017-03-18T12:57:13Z</time>
      </trkpt>
      <trkpt lat="38.047888" lon="-1.546918">
        <ele>486.373</ele>
        <time>2017-03-18T12:57:15Z</time>
      </trkpt>
      <trkpt lat="38.047863" lon="-1.546744">
        <ele>486.020</ele>
        <time>2017-03-18T12:57:17Z</time>
      </trkpt>
      <trkpt lat="38.047836" lon="-1.546595">
        <ele>485.508</ele>
        <time>2017-03-18T12:57:19Z</time>
      </trkpt>
      <trkpt lat="38.047805" lon="-1.546453">
        <ele>484.770</ele>
        <time>2017-03-18T12:57:21Z</time>
      </trkpt>
      <trkpt lat="38.047775" lon="-1.546306">
        <ele>484.315</ele>
        <time>2017-03-18T12:57:23Z</time>
      </trkpt>
      <trkpt lat="38.047753" lon="-1.546163">
        <ele>484.127</ele>
        <time>2017-03-18T12:57:25Z</time>
      </trkpt>
      <trkpt lat="38.047730" lon="-1.546008">
        <ele>484.912</ele>
        <time>2017-03-18T12:57:27Z</time>
      </trkpt>
      <trkpt lat="38.047709" lon="-1.545843">
        <ele>485.680</ele>
        <time>2017-03-18T12:57:29Z</time>
      </trkpt>
      <trkpt lat="38.047691" lon="-1.545668">
        <ele>485.834</ele>
        <time>2017-03-18T12:57:31Z</time>
      </trkpt>
      <trkpt lat="38.047672" lon="-1.545486">
        <ele>485.160</ele>
        <time>2017-03-18T12:57:33Z</time>
      </trkpt>
      <trkpt lat="38.047652" lon="-1.545294">
        <ele>484.610</ele>
        <time>2017-03-18T12:57:35Z</time>
      </trkpt>
      <trkpt lat="38.047642" lon="-1.545113">
        <ele>484.359</ele>
        <time>2017-03-18T12:57:37Z</time>
      </trkpt>
      <trkpt lat="38.047634" lon="-1.544950">
        <ele>484.603</ele>
        <time>2017-03-18T12:57:40Z</time>
      </trkpt>
      <trkpt lat="38.047631" lon="-1.544791">
        <ele>484.823</ele>
        <time>2017-03-18T12:57:42Z</time>
      </trkpt>
      <trkpt lat="38.047636" lon="-1.544634">
        <ele>485.208</ele>
        <time>2017-03-18T12:57:44Z</time>
      </trkpt>
      <trkpt lat="38.047643" lon="-1.544476">
        <ele>486.166</ele>
        <time>2017-03-18T12:57:46Z</time>
      </trkpt>
      <trkpt lat="38.047652" lon="-1.544309">
        <ele>486.831</ele>
        <time>2017-03-18T12:57:48Z</time>
      </trkpt>
      <trkpt lat="38.047668" lon="-1.544080">
        <ele>486.583</ele>
        <time>2017-03-18T12:57:50Z</time>
      </trkpt>
      <trkpt lat="38.047693" lon="-1.543852">
        <ele>486.538</ele>
        <time>2017-03-18T12:57:53Z</time>
      </trkpt>
      <trkpt lat="38.047716" lon="-1.543704">
        <ele>486.746</ele>
        <time>2017-03-18T12:57:55Z</time>
      </trkpt>
      <trkpt lat="38.047738" lon="-1.543546">
        <ele>486.460</ele>
        <time>2017-03-18T12:57:57Z</time>
      </trkpt>
      <trkpt lat="38.047770" lon="-1.543386">
        <ele>486.546</ele>
        <time>2017-03-18T12:57:59Z</time>
      </trkpt>
      <trkpt lat="38.047802" lon="-1.543230">
        <ele>486.866</ele>
        <time>2017-03-18T12:58:01Z</time>
      </trkpt>
      <trkpt lat="38.047830" lon="-1.543064">
        <ele>486.611</ele>
        <time>2017-03-18T12:58:03Z</time>
      </trkpt>
      <trkpt lat="38.047862" lon="-1.542906">
        <ele>486.421</ele>
        <time>2017-03-18T12:58:05Z</time>
      </trkpt>
      <trkpt lat="38.047886" lon="-1.542744">
        <ele>486.003</ele>
        <time>2017-03-18T12:58:07Z</time>
      </trkpt>
      <trkpt lat="38.047912" lon="-1.542583">
        <ele>485.808</ele>
        <time>2017-03-18T12:58:09Z</time>
      </trkpt>
      <trkpt lat="38.047931" lon="-1.542431">
        <ele>485.712</ele>
        <time>2017-03-18T12:58:11Z</time>
      </trkpt>
      <trkpt lat="38.047943" lon="-1.542282">
        <ele>485.587</ele>
        <time>2017-03-18T12:58:13Z</time>
      </trkpt>
      <trkpt lat="38.047959" lon="-1.542126">
        <ele>485.399</ele>
        <time>2017-03-18T12:58:15Z</time>
      </trkpt>
      <trkpt lat="38.047974" lon="-1.541970">
        <ele>485.074</ele>
        <time>2017-03-18T12:58:17Z</time>
      </trkpt>
      <trkpt lat="38.047993" lon="-1.541815">
        <ele>484.992</ele>
        <time>2017-03-18T12:58:19Z</time>
      </trkpt>
      <trkpt lat="38.048023" lon="-1.541657">
        <ele>485.556</ele>
        <time>2017-03-18T12:58:21Z</time>
      </trkpt>
      <trkpt lat="38.048057" lon="-1.541485">
        <ele>486.172</ele>
        <time>2017-03-18T12:58:23Z</time>
      </trkpt>
      <trkpt lat="38.048086" lon="-1.541326">
        <ele>486.462</ele>
        <time>2017-03-18T12:58:25Z</time>
      </trkpt>
      <trkpt lat="38.048110" lon="-1.541179">
        <ele>486.021</ele>
        <time>2017-03-18T12:58:28Z</time>
      </trkpt>
      <trkpt lat="38.048132" lon="-1.541024">
        <ele>485.141</ele>
        <time>2017-03-18T12:58:30Z</time>
      </trkpt>
      <trkpt lat="38.048152" lon="-1.540859">
        <ele>483.605</ele>
        <time>2017-03-18T12:58:32Z</time>
      </trkpt>
      <trkpt lat="38.048164" lon="-1.540687">
        <ele>482.208</ele>
        <time>2017-03-18T12:58:34Z</time>
      </trkpt>
      <trkpt lat="38.048171" lon="-1.540512">
        <ele>481.173</ele>
        <time>2017-03-18T12:58:36Z</time>
      </trkpt>
      <trkpt lat="38.048165" lon="-1.540325">
        <ele>480.118</ele>
        <time>2017-03-18T12:58:38Z</time>
      </trkpt>
      <trkpt lat="38.048152" lon="-1.540146">
        <ele>479.620</ele>
        <time>2017-03-18T12:58:40Z</time>
      </trkpt>
      <trkpt lat="38.048142" lon="-1.539967">
        <ele>479.655</ele>
        <time>2017-03-18T12:58:42Z</time>
      </trkpt>
      <trkpt lat="38.048132" lon="-1.539789">
        <ele>480.073</ele>
        <time>2017-03-18T12:58:44Z</time>
      </trkpt>
      <trkpt lat="38.048102" lon="-1.539600">
        <ele>479.977</ele>
        <time>2017-03-18T12:58:46Z</time>
      </trkpt>
      <trkpt lat="38.048061" lon="-1.539417">
        <ele>479.773</ele>
        <time>2017-03-18T12:58:48Z</time>
      </trkpt>
      <trkpt lat="38.048017" lon="-1.539239">
        <ele>479.553</ele>
        <time>2017-03-18T12:58:50Z</time>
      </trkpt>
      <trkpt lat="38.047973" lon="-1.539064">
        <ele>478.989</ele>
        <time>2017-03-18T12:58:52Z</time>
      </trkpt>
      <trkpt lat="38.047937" lon="-1.538906">
        <ele>478.406</ele>
        <time>2017-03-18T12:58:54Z</time>
      </trkpt>
      <trkpt lat="38.047915" lon="-1.538781">
        <ele>478.126</ele>
        <time>2017-03-18T12:58:57Z</time>
      </trkpt>
      <trkpt lat="38.047871" lon="-1.538659">
        <ele>477.508</ele>
        <time>2017-03-18T13:01:06Z</time>
      </trkpt>
      <trkpt lat="38.047837" lon="-1.538528">
        <ele>477.269</ele>
        <time>2017-03-18T13:01:09Z</time>
      </trkpt>
      <trkpt lat="38.047784" lon="-1.538365">
        <ele>477.124</ele>
        <time>2017-03-18T13:01:12Z</time>
      </trkpt>
      <trkpt lat="38.047752" lon="-1.538257">
        <ele>477.526</ele>
        <time>2017-03-18T13:01:14Z</time>
      </trkpt>
      <trkpt lat="38.047719" lon="-1.538139">
        <ele>478.551</ele>
        <time>2017-03-18T13:01:16Z</time>
      </trkpt>
      <trkpt lat="38.047692" lon="-1.538020">
        <ele>479.039</ele>
        <time>2017-03-18T13:01:18Z</time>
      </trkpt>
      <trkpt lat="38.047663" lon="-1.537890">
        <ele>479.123</ele>
        <time>2017-03-18T13:01:20Z</time>
      </trkpt>
      <trkpt lat="38.047634" lon="-1.537764">
        <ele>478.239</ele>
        <time>2017-03-18T13:01:22Z</time>
      </trkpt>
      <trkpt lat="38.047612" lon="-1.537648">
        <ele>477.059</ele>
        <time>2017-03-18T13:01:25Z</time>
      </trkpt>
      <trkpt lat="38.047592" lon="-1.537530">
        <ele>476.454</ele>
        <time>2017-03-18T13:01:27Z</time>
      </trkpt>
      <trkpt lat="38.047574" lon="-1.537392">
        <ele>475.856</ele>
        <time>2017-03-18T13:01:29Z</time>
      </trkpt>
      <trkpt lat="38.047561" lon="-1.537249">
        <ele>474.211</ele>
        <time>2017-03-18T13:01:31Z</time>
      </trkpt>
      <trkpt lat="38.047542" lon="-1.537114">
        <ele>472.508</ele>
        <time>2017-03-18T13:01:33Z</time>
      </trkpt>
      <trkpt lat="38.047517" lon="-1.536973">
        <ele>471.496</ele>
        <time>2017-03-18T13:01:35Z</time>
      </trkpt>
      <trkpt lat="38.047487" lon="-1.536820">
        <ele>470.071</ele>
        <time>2017-03-18T13:01:37Z</time>
      </trkpt>
      <trkpt lat="38.047451" lon="-1.536674">
        <ele>469.333</ele>
        <time>2017-03-18T13:01:39Z</time>
      </trkpt>
      <trkpt lat="38.047415" lon="-1.536544">
        <ele>469.198</ele>
        <time>2017-03-18T13:01:41Z</time>
      </trkpt>
      <trkpt lat="38.047378" lon="-1.536432">
        <ele>469.476</ele>
        <time>2017-03-18T13:01:43Z</time>
      </trkpt>
      <trkpt lat="38.047332" lon="-1.536318">
        <ele>469.980</ele>
        <time>2017-03-18T13:01:45Z</time>
      </trkpt>
      <trkpt lat="38.047280" lon="-1.536201">
        <ele>470.226</ele>
        <time>2017-03-18T13:01:47Z</time>
      </trkpt>
      <trkpt lat="38.047233" lon="-1.536080">
        <ele>470.876</ele>
        <time>2017-03-18T13:01:49Z</time>
      </trkpt>
      <trkpt lat="38.047175" lon="-1.535946">
        <ele>471.342</ele>
        <time>2017-03-18T13:01:51Z</time>
      </trkpt>
      <trkpt lat="38.047105" lon="-1.535807">
        <ele>471.822</ele>
        <time>2017-03-18T13:01:53Z</time>
      </trkpt>
      <trkpt lat="38.047052" lon="-1.535674">
        <ele>473.414</ele>
        <time>2017-03-18T13:01:55Z</time>
      </trkpt>
      <trkpt lat="38.047010" lon="-1.535511">
        <ele>476.308</ele>
        <time>2017-03-18T13:01:57Z</time>
      </trkpt>
      <trkpt lat="38.046951" lon="-1.535390">
        <ele>477.455</ele>
        <time>2017-03-18T13:02:00Z</time>
      </trkpt>
      <trkpt lat="38.046874" lon="-1.535256">
        <ele>476.190</ele>
        <time>2017-03-18T13:02:03Z</time>
      </trkpt>
      <trkpt lat="38.046820" lon="-1.535152">
        <ele>474.532</ele>
        <time>2017-03-18T13:02:05Z</time>
      </trkpt>
      <trkpt lat="38.046764" lon="-1.535060">
        <ele>472.827</ele>
        <time>2017-03-18T13:02:07Z</time>
      </trkpt>
      <trkpt lat="38.046703" lon="-1.534968">
        <ele>472.615</ele>
        <time>2017-03-18T13:02:09Z</time>
      </trkpt>
      <trkpt lat="38.046639" lon="-1.534881">
        <ele>472.949</ele>
        <time>2017-03-18T13:02:11Z</time>
      </trkpt>
      <trkpt lat="38.046565" lon="-1.534753">
        <ele>472.775</ele>
        <time>2017-03-18T13:02:14Z</time>
      </trkpt>
      <trkpt lat="38.045750" lon="-1.533921">
        <ele>470.835</ele>
        <time>2017-03-18T13:02:41Z</time>
      </trkpt>
      <trkpt lat="38.045742" lon="-1.533787">
        <ele>470.859</ele>
        <time>2017-03-18T13:02:43Z</time>
      </trkpt>
      <trkpt lat="38.045684" lon="-1.533694">
        <ele>471.403</ele>
        <time>2017-03-18T13:02:45Z</time>
      </trkpt>
      <trkpt lat="38.045605" lon="-1.533594">
        <ele>471.623</ele>
        <time>2017-03-18T13:02:48Z</time>
      </trkpt>
      <trkpt lat="38.045542" lon="-1.533510">
        <ele>471.508</ele>
        <time>2017-03-18T13:02:52Z</time>
      </trkpt>
      <trkpt lat="38.045464" lon="-1.533406">
        <ele>471.186</ele>
        <time>2017-03-18T13:02:56Z</time>
      </trkpt>
      <trkpt lat="38.045395" lon="-1.533323">
        <ele>470.851</ele>
        <time>2017-03-18T13:02:59Z</time>
      </trkpt>
      <trkpt lat="38.045306" lon="-1.533226">
        <ele>470.533</ele>
        <time>2017-03-18T13:03:02Z</time>
      </trkpt>
      <trkpt lat="38.045216" lon="-1.533131">
        <ele>469.358</ele>
        <time>2017-03-18T13:03:05Z</time>
      </trkpt>
      <trkpt lat="38.045121" lon="-1.533043">
        <ele>466.616</ele>
        <time>2017-03-18T13:03:08Z</time>
      </trkpt>
      <trkpt lat="38.045023" lon="-1.532951">
        <ele>465.180</ele>
        <time>2017-03-18T13:03:11Z</time>
      </trkpt>
      <trkpt lat="38.044923" lon="-1.532848">
        <ele>464.636</ele>
        <time>2017-03-18T13:03:14Z</time>
      </trkpt>
      <trkpt lat="38.044848" lon="-1.532771">
        <ele>464.176</ele>
        <time>2017-03-18T13:03:16Z</time>
      </trkpt>
      <trkpt lat="38.044765" lon="-1.532689">
        <ele>463.466</ele>
        <time>2017-03-18T13:03:18Z</time>
      </trkpt>
      <trkpt lat="38.044689" lon="-1.532608">
        <ele>462.329</ele>
        <time>2017-03-18T13:03:20Z</time>
      </trkpt>
      <trkpt lat="38.044613" lon="-1.532525">
        <ele>461.021</ele>
        <time>2017-03-18T13:03:22Z</time>
      </trkpt>
      <trkpt lat="38.044532" lon="-1.532445">
        <ele>460.108</ele>
        <time>2017-03-18T13:03:24Z</time>
      </trkpt>
      <trkpt lat="38.044449" lon="-1.532358">
        <ele>459.697</ele>
        <time>2017-03-18T13:03:26Z</time>
      </trkpt>
      <trkpt lat="38.044372" lon="-1.532277">
        <ele>459.492</ele>
        <time>2017-03-18T13:03:28Z</time>
      </trkpt>
      <trkpt lat="38.044274" lon="-1.532171">
        <ele>459.674</ele>
        <time>2017-03-18T13:03:31Z</time>
      </trkpt>
      <trkpt lat="38.044173" lon="-1.532070">
        <ele>460.059</ele>
        <time>2017-03-18T13:03:34Z</time>
      </trkpt>
      <trkpt lat="38.044102" lon="-1.531995">
        <ele>459.837</ele>
        <time>2017-03-18T13:03:36Z</time>
      </trkpt>
      <trkpt lat="38.044025" lon="-1.531915">
        <ele>459.691</ele>
        <time>2017-03-18T13:03:38Z</time>
      </trkpt>
      <trkpt lat="38.043943" lon="-1.531837">
        <ele>459.417</ele>
        <time>2017-03-18T13:03:41Z</time>
      </trkpt>
      <trkpt lat="38.043854" lon="-1.531749">
        <ele>459.297</ele>
        <time>2017-03-18T13:03:43Z</time>
      </trkpt>
      <trkpt lat="38.043764" lon="-1.531655">
        <ele>459.228</ele>
        <time>2017-03-18T13:03:45Z</time>
      </trkpt>
      <trkpt lat="38.043674" lon="-1.531555">
        <ele>459.089</ele>
        <time>2017-03-18T13:03:47Z</time>
      </trkpt>
      <trkpt lat="38.043590" lon="-1.531455">
        <ele>458.817</ele>
        <time>2017-03-18T13:03:49Z</time>
      </trkpt>
      <trkpt lat="38.043514" lon="-1.531358">
        <ele>458.608</ele>
        <time>2017-03-18T13:03:51Z</time>
      </trkpt>
      <trkpt lat="38.043447" lon="-1.531261">
        <ele>458.673</ele>
        <time>2017-03-18T13:03:53Z</time>
      </trkpt>
      <trkpt lat="38.043384" lon="-1.531171">
        <ele>459.128</ele>
        <time>2017-03-18T13:03:55Z</time>
      </trkpt>
      <trkpt lat="38.043314" lon="-1.531071">
        <ele>459.430</ele>
        <time>2017-03-18T13:03:57Z</time>
      </trkpt>
      <trkpt lat="38.043251" lon="-1.530972">
        <ele>459.435</ele>
        <time>2017-03-18T13:03:58Z</time>
      </trkpt>
      <trkpt lat="38.043193" lon="-1.530865">
        <ele>459.293</ele>
        <time>2017-03-18T13:04:00Z</time>
      </trkpt>
      <trkpt lat="38.043139" lon="-1.530756">
        <ele>458.827</ele>
        <time>2017-03-18T13:04:02Z</time>
      </trkpt>
      <trkpt lat="38.043081" lon="-1.530642">
        <ele>457.553</ele>
        <time>2017-03-18T13:04:04Z</time>
      </trkpt>
      <trkpt lat="38.043027" lon="-1.530531">
        <ele>457.583</ele>
        <time>2017-03-18T13:04:06Z</time>
      </trkpt>
      <trkpt lat="38.042913" lon="-1.529275">
        <ele>457.315</ele>
        <time>2017-03-18T13:04:29Z</time>
      </trkpt>
      <trkpt lat="38.043004" lon="-1.529266">
        <ele>459.765</ele>
        <time>2017-03-18T13:04:38Z</time>
      </trkpt>
      <trkpt lat="38.043100" lon="-1.529198">
        <ele>460.911</ele>
        <time>2017-03-18T13:04:43Z</time>
      </trkpt>
      <trkpt lat="38.043170" lon="-1.529104">
        <ele>462.008</ele>
        <time>2017-03-18T13:04:48Z</time>
      </trkpt>
      <trkpt lat="38.043239" lon="-1.529007">
        <ele>462.672</ele>
        <time>2017-03-18T13:04:53Z</time>
      </trkpt>
      <trkpt lat="38.043278" lon="-1.528895">
        <ele>462.597</ele>
        <time>2017-03-18T13:04:57Z</time>
      </trkpt>
      <trkpt lat="38.043294" lon="-1.528772">
        <ele>462.579</ele>
        <time>2017-03-18T13:05:01Z</time>
      </trkpt>
      <trkpt lat="38.043357" lon="-1.528681">
        <ele>462.474</ele>
        <time>2017-03-18T13:05:07Z</time>
      </trkpt>
      <trkpt lat="38.043443" lon="-1.528582">
        <ele>463.092</ele>
        <time>2017-03-18T13:05:12Z</time>
      </trkpt>
      <trkpt lat="38.043498" lon="-1.528457">
        <ele>463.616</ele>
        <time>2017-03-18T13:05:16Z</time>
      </trkpt>
      <trkpt lat="38.043560" lon="-1.528352">
        <ele>464.062</ele>
        <time>2017-03-18T13:05:20Z</time>
      </trkpt>
      <trkpt lat="38.043643" lon="-1.528270">
        <ele>464.422</ele>
        <time>2017-03-18T13:05:24Z</time>
      </trkpt>
      <trkpt lat="38.043733" lon="-1.528252">
        <ele>464.714</ele>
        <time>2017-03-18T13:05:26Z</time>
      </trkpt>
      <trkpt lat="38.043822" lon="-1.528194">
        <ele>466.554</ele>
        <time>2017-03-18T13:05:30Z</time>
      </trkpt>
      <trkpt lat="38.043918" lon="-1.528176">
        <ele>467.009</ele>
        <time>2017-03-18T13:05:34Z</time>
      </trkpt>
      <trkpt lat="38.044020" lon="-1.528159">
        <ele>467.708</ele>
        <time>2017-03-18T13:05:39Z</time>
      </trkpt>
      <trkpt lat="38.044112" lon="-1.528143">
        <ele>468.122</ele>
        <time>2017-03-18T13:05:42Z</time>
      </trkpt>
      <trkpt lat="38.044226" lon="-1.528121">
        <ele>468.617</ele>
        <time>2017-03-18T13:05:46Z</time>
      </trkpt>
      <trkpt lat="38.044342" lon="-1.528099">
        <ele>469.089</ele>
        <time>2017-03-18T13:05:50Z</time>
      </trkpt>
      <trkpt lat="38.044458" lon="-1.528083">
        <ele>469.424</ele>
        <time>2017-03-18T13:05:54Z</time>
      </trkpt>
      <trkpt lat="38.044574" lon="-1.528041">
        <ele>470.182</ele>
        <time>2017-03-18T13:05:58Z</time>
      </trkpt>
      <trkpt lat="38.044663" lon="-1.527983">
        <ele>471.776</ele>
        <time>2017-03-18T13:06:01Z</time>
      </trkpt>
      <trkpt lat="38.044756" lon="-1.527969">
        <ele>471.842</ele>
        <time>2017-03-18T13:06:04Z</time>
      </trkpt>
      <trkpt lat="38.044865" lon="-1.527964">
        <ele>471.692</ele>
        <time>2017-03-18T13:06:07Z</time>
      </trkpt>
      <trkpt lat="38.044958" lon="-1.527951">
        <ele>471.461</ele>
        <time>2017-03-18T13:06:10Z</time>
      </trkpt>
      <trkpt lat="38.045057" lon="-1.527948">
        <ele>471.421</ele>
        <time>2017-03-18T13:06:13Z</time>
      </trkpt>
      <trkpt lat="38.045158" lon="-1.527958">
        <ele>470.913</ele>
        <time>2017-03-18T13:06:17Z</time>
      </trkpt>
      <trkpt lat="38.045264" lon="-1.527961">
        <ele>470.708</ele>
        <time>2017-03-18T13:06:20Z</time>
      </trkpt>
      <trkpt lat="38.045366" lon="-1.527946">
        <ele>471.057</ele>
        <time>2017-03-18T13:06:23Z</time>
      </trkpt>
      <trkpt lat="38.045467" lon="-1.527973">
        <ele>471.912</ele>
        <time>2017-03-18T13:06:29Z</time>
      </trkpt>
      <trkpt lat="38.045573" lon="-1.527926">
        <ele>472.434</ele>
        <time>2017-03-18T13:06:33Z</time>
      </trkpt>
      <trkpt lat="38.045677" lon="-1.527916">
        <ele>472.769</ele>
        <time>2017-03-18T13:06:37Z</time>
      </trkpt>
      <trkpt lat="38.045783" lon="-1.527933">
        <ele>472.877</ele>
        <time>2017-03-18T13:06:40Z</time>
      </trkpt>
      <trkpt lat="38.045891" lon="-1.527966">
        <ele>472.891</ele>
        <time>2017-03-18T13:06:44Z</time>
      </trkpt>
      <trkpt lat="38.045986" lon="-1.527998">
        <ele>473.177</ele>
        <time>2017-03-18T13:06:50Z</time>
      </trkpt>
      <trkpt lat="38.046070" lon="-1.527930">
        <ele>473.637</ele>
        <time>2017-03-18T13:06:55Z</time>
      </trkpt>
      <trkpt lat="38.046173" lon="-1.527970">
        <ele>473.771</ele>
        <time>2017-03-18T13:07:03Z</time>
      </trkpt>
      <trkpt lat="38.046240" lon="-1.527893">
        <ele>474.541</ele>
        <time>2017-03-18T14:51:15Z</time>
      </trkpt>
      <trkpt lat="38.046149" lon="-1.527926">
        <ele>476.615</ele>
        <time>2017-03-18T14:51:36Z</time>
      </trkpt>
      <trkpt lat="38.046062" lon="-1.527863">
        <ele>476.308</ele>
        <time>2017-03-18T14:51:40Z</time>
      </trkpt>
      <trkpt lat="38.045960" lon="-1.527767">
        <ele>474.578</ele>
        <time>2017-03-18T14:51:43Z</time>
      </trkpt>
      <trkpt lat="38.045892" lon="-1.527690">
        <ele>473.843</ele>
        <time>2017-03-18T14:51:45Z</time>
      </trkpt>
      <trkpt lat="38.045779" lon="-1.527584">
        <ele>472.395</ele>
        <time>2017-03-18T14:51:48Z</time>
      </trkpt>
      <trkpt lat="38.045668" lon="-1.527484">
        <ele>471.430</ele>
        <time>2017-03-18T14:51:50Z</time>
      </trkpt>
      <trkpt lat="38.045563" lon="-1.527398">
        <ele>471.158</ele>
        <time>2017-03-18T14:51:53Z</time>
      </trkpt>
      <trkpt lat="38.045450" lon="-1.527316">
        <ele>470.832</ele>
        <time>2017-03-18T14:51:55Z</time>
      </trkpt>
      <trkpt lat="38.045243" lon="-1.527158">
        <ele>470.318</ele>
        <time>2017-03-18T14:51:57Z</time>
      </trkpt>
      <trkpt lat="38.045104" lon="-1.527046">
        <ele>470.558</ele>
        <time>2017-03-18T14:51:59Z</time>
      </trkpt>
      <trkpt lat="38.045027" lon="-1.526984">
        <ele>470.163</ele>
        <time>2017-03-18T14:52:00Z</time>
      </trkpt>
      <trkpt lat="38.044949" lon="-1.526917">
        <ele>469.744</ele>
        <time>2017-03-18T14:52:01Z</time>
      </trkpt>
      <trkpt lat="38.044870" lon="-1.526848">
        <ele>469.318</ele>
        <time>2017-03-18T14:52:02Z</time>
      </trkpt>
      <trkpt lat="38.044794" lon="-1.526781">
        <ele>468.708</ele>
        <time>2017-03-18T14:52:03Z</time>
      </trkpt>
      <trkpt lat="38.044722" lon="-1.526711">
        <ele>468.097</ele>
        <time>2017-03-18T14:52:04Z</time>
      </trkpt>
      <trkpt lat="38.044648" lon="-1.526633">
        <ele>467.562</ele>
        <time>2017-03-18T14:52:05Z</time>
      </trkpt>
      <trkpt lat="38.044581" lon="-1.526555">
        <ele>467.044</ele>
        <time>2017-03-18T14:52:06Z</time>
      </trkpt>
      <trkpt lat="38.044512" lon="-1.526467">
        <ele>466.179</ele>
        <time>2017-03-18T14:52:07Z</time>
      </trkpt>
      <trkpt lat="38.044445" lon="-1.526372">
        <ele>465.217</ele>
        <time>2017-03-18T14:52:08Z</time>
      </trkpt>
      <trkpt lat="38.044380" lon="-1.526274">
        <ele>464.261</ele>
        <time>2017-03-18T14:52:09Z</time>
      </trkpt>
      <trkpt lat="38.044325" lon="-1.526177">
        <ele>463.487</ele>
        <time>2017-03-18T14:52:10Z</time>
      </trkpt>
      <trkpt lat="38.044257" lon="-1.525971">
        <ele>461.797</ele>
        <time>2017-03-18T14:52:12Z</time>
      </trkpt>
      <trkpt lat="38.044201" lon="-1.525770">
        <ele>459.831</ele>
        <time>2017-03-18T14:52:14Z</time>
      </trkpt>
      <trkpt lat="38.044170" lon="-1.525635">
        <ele>459.761</ele>
        <time>2017-03-18T14:52:15Z</time>
      </trkpt>
      <trkpt lat="38.044148" lon="-1.525500">
        <ele>459.807</ele>
        <time>2017-03-18T14:52:16Z</time>
      </trkpt>
      <trkpt lat="38.044135" lon="-1.525367">
        <ele>459.808</ele>
        <time>2017-03-18T14:52:17Z</time>
      </trkpt>
      <trkpt lat="38.044124" lon="-1.525238">
        <ele>459.134</ele>
        <time>2017-03-18T14:52:18Z</time>
      </trkpt>
      <trkpt lat="38.044114" lon="-1.525120">
        <ele>458.339</ele>
        <time>2017-03-18T14:52:19Z</time>
      </trkpt>
      <trkpt lat="38.044105" lon="-1.524997">
        <ele>457.671</ele>
        <time>2017-03-18T14:52:20Z</time>
      </trkpt>
      <trkpt lat="38.044092" lon="-1.524867">
        <ele>456.856</ele>
        <time>2017-03-18T14:52:21Z</time>
      </trkpt>
      <trkpt lat="38.044076" lon="-1.524744">
        <ele>455.624</ele>
        <time>2017-03-18T14:52:22Z</time>
      </trkpt>
      <trkpt lat="38.044059" lon="-1.524629">
        <ele>454.388</ele>
        <time>2017-03-18T14:52:23Z</time>
      </trkpt>
      <trkpt lat="38.044039" lon="-1.524504">
        <ele>453.224</ele>
        <time>2017-03-18T14:52:24Z</time>
      </trkpt>
      <trkpt lat="38.044015" lon="-1.524374">
        <ele>452.614</ele>
        <time>2017-03-18T14:52:25Z</time>
      </trkpt>
      <trkpt lat="38.043992" lon="-1.524253">
        <ele>451.726</ele>
        <time>2017-03-18T14:52:26Z</time>
      </trkpt>
      <trkpt lat="38.043968" lon="-1.524137">
        <ele>450.847</ele>
        <time>2017-03-18T14:52:27Z</time>
      </trkpt>
      <trkpt lat="38.043940" lon="-1.524004">
        <ele>450.311</ele>
        <time>2017-03-18T14:52:28Z</time>
      </trkpt>
      <trkpt lat="38.043915" lon="-1.523888">
        <ele>449.708</ele>
        <time>2017-03-18T14:52:29Z</time>
      </trkpt>
      <trkpt lat="38.043889" lon="-1.523768">
        <ele>449.223</ele>
        <time>2017-03-18T14:52:30Z</time>
      </trkpt>
      <trkpt lat="38.043858" lon="-1.523636">
        <ele>448.988</ele>
        <time>2017-03-18T14:52:31Z</time>
      </trkpt>
      <trkpt lat="38.043829" lon="-1.523513">
        <ele>448.590</ele>
        <time>2017-03-18T14:52:32Z</time>
      </trkpt>
      <trkpt lat="38.043805" lon="-1.523382">
        <ele>447.865</ele>
        <time>2017-03-18T14:52:33Z</time>
      </trkpt>
      <trkpt lat="38.043785" lon="-1.523254">
        <ele>447.013</ele>
        <time>2017-03-18T14:52:34Z</time>
      </trkpt>
      <trkpt lat="38.043770" lon="-1.523129">
        <ele>446.147</ele>
        <time>2017-03-18T14:52:35Z</time>
      </trkpt>
      <trkpt lat="38.043755" lon="-1.523003">
        <ele>445.593</ele>
        <time>2017-03-18T14:52:36Z</time>
      </trkpt>
      <trkpt lat="38.043743" lon="-1.522883">
        <ele>444.843</ele>
        <time>2017-03-18T14:52:37Z</time>
      </trkpt>
      <trkpt lat="38.043725" lon="-1.522741">
        <ele>444.342</ele>
        <time>2017-03-18T14:52:38Z</time>
      </trkpt>
      <trkpt lat="38.043708" lon="-1.522603">
        <ele>443.822</ele>
        <time>2017-03-18T14:52:39Z</time>
      </trkpt>
      <trkpt lat="38.043692" lon="-1.522485">
        <ele>443.314</ele>
        <time>2017-03-18T14:52:40Z</time>
      </trkpt>
      <trkpt lat="38.043668" lon="-1.522363">
        <ele>442.908</ele>
        <time>2017-03-18T14:52:41Z</time>
      </trkpt>
      <trkpt lat="38.043635" lon="-1.522243">
        <ele>442.345</ele>
        <time>2017-03-18T14:52:42Z</time>
      </trkpt>
      <trkpt lat="38.043593" lon="-1.522112">
        <ele>442.070</ele>
        <time>2017-03-18T14:52:43Z</time>
      </trkpt>
      <trkpt lat="38.043547" lon="-1.521988">
        <ele>441.732</ele>
        <time>2017-03-18T14:52:44Z</time>
      </trkpt>
      <trkpt lat="38.043504" lon="-1.521868">
        <ele>440.797</ele>
        <time>2017-03-18T14:52:45Z</time>
      </trkpt>
      <trkpt lat="38.043462" lon="-1.521735">
        <ele>439.735</ele>
        <time>2017-03-18T14:52:46Z</time>
      </trkpt>
      <trkpt lat="38.043442" lon="-1.521593">
        <ele>439.129</ele>
        <time>2017-03-18T14:52:47Z</time>
      </trkpt>
      <trkpt lat="38.043433" lon="-1.521450">
        <ele>438.385</ele>
        <time>2017-03-18T14:52:48Z</time>
      </trkpt>
      <trkpt lat="38.043449" lon="-1.521315">
        <ele>437.695</ele>
        <time>2017-03-18T14:52:49Z</time>
      </trkpt>
      <trkpt lat="38.043469" lon="-1.521176">
        <ele>436.649</ele>
        <time>2017-03-18T14:52:50Z</time>
      </trkpt>
      <trkpt lat="38.043489" lon="-1.521040">
        <ele>436.102</ele>
        <time>2017-03-18T14:52:51Z</time>
      </trkpt>
      <trkpt lat="38.043503" lon="-1.520906">
        <ele>435.522</ele>
        <time>2017-03-18T14:52:52Z</time>
      </trkpt>
      <trkpt lat="38.043507" lon="-1.520787">
        <ele>434.908</ele>
        <time>2017-03-18T14:52:53Z</time>
      </trkpt>
      <trkpt lat="38.043478" lon="-1.520667">
        <ele>434.075</ele>
        <time>2017-03-18T14:52:54Z</time>
      </trkpt>
      <trkpt lat="38.043420" lon="-1.520562">
        <ele>433.370</ele>
        <time>2017-03-18T14:52:55Z</time>
      </trkpt>
      <trkpt lat="38.043341" lon="-1.520469">
        <ele>432.892</ele>
        <time>2017-03-18T14:52:57Z</time>
      </trkpt>
      <trkpt lat="38.043264" lon="-1.520387">
        <ele>432.617</ele>
        <time>2017-03-18T14:52:58Z</time>
      </trkpt>
      <trkpt lat="38.043179" lon="-1.520310">
        <ele>432.515</ele>
        <time>2017-03-18T14:52:58Z</time>
      </trkpt>
      <trkpt lat="38.043093" lon="-1.520240">
        <ele>431.939</ele>
        <time>2017-03-18T14:53:00Z</time>
      </trkpt>
      <trkpt lat="38.043005" lon="-1.520175">
        <ele>431.315</ele>
        <time>2017-03-18T14:53:01Z</time>
      </trkpt>
      <trkpt lat="38.042911" lon="-1.520109">
        <ele>430.695</ele>
        <time>2017-03-18T14:53:02Z</time>
      </trkpt>
      <trkpt lat="38.042728" lon="-1.519979">
        <ele>428.974</ele>
        <time>2017-03-18T14:53:03Z</time>
      </trkpt>
      <trkpt lat="38.042638" lon="-1.519907">
        <ele>428.156</ele>
        <time>2017-03-18T14:53:04Z</time>
      </trkpt>
      <trkpt lat="38.042563" lon="-1.519832">
        <ele>427.421</ele>
        <time>2017-03-18T14:53:05Z</time>
      </trkpt>
      <trkpt lat="38.042485" lon="-1.519741">
        <ele>426.808</ele>
        <time>2017-03-18T14:53:06Z</time>
      </trkpt>
      <trkpt lat="38.042411" lon="-1.519645">
        <ele>426.278</ele>
        <time>2017-03-18T14:53:07Z</time>
      </trkpt>
      <trkpt lat="38.042341" lon="-1.519552">
        <ele>425.713</ele>
        <time>2017-03-18T14:53:08Z</time>
      </trkpt>
      <trkpt lat="38.042272" lon="-1.519461">
        <ele>425.625</ele>
        <time>2017-03-18T14:53:09Z</time>
      </trkpt>
      <trkpt lat="38.042206" lon="-1.519371">
        <ele>425.760</ele>
        <time>2017-03-18T14:53:10Z</time>
      </trkpt>
      <trkpt lat="38.042141" lon="-1.519279">
        <ele>425.758</ele>
        <time>2017-03-18T14:53:11Z</time>
      </trkpt>
      <trkpt lat="38.042077" lon="-1.519182">
        <ele>425.932</ele>
        <time>2017-03-18T14:53:12Z</time>
      </trkpt>
      <trkpt lat="38.042011" lon="-1.519083">
        <ele>426.258</ele>
        <time>2017-03-18T14:53:13Z</time>
      </trkpt>
      <trkpt lat="38.041947" lon="-1.518981">
        <ele>426.228</ele>
        <time>2017-03-18T14:53:14Z</time>
      </trkpt>
      <trkpt lat="38.041881" lon="-1.518879">
        <ele>426.171</ele>
        <time>2017-03-18T14:53:15Z</time>
      </trkpt>
      <trkpt lat="38.041814" lon="-1.518775">
        <ele>426.041</ele>
        <time>2017-03-18T14:53:16Z</time>
      </trkpt>
      <trkpt lat="38.041751" lon="-1.518676">
        <ele>425.515</ele>
        <time>2017-03-18T14:53:17Z</time>
      </trkpt>
      <trkpt lat="38.041684" lon="-1.518570">
        <ele>425.008</ele>
        <time>2017-03-18T14:53:18Z</time>
      </trkpt>
      <trkpt lat="38.041617" lon="-1.518470">
        <ele>424.698</ele>
        <time>2017-03-18T14:53:19Z</time>
      </trkpt>
      <trkpt lat="38.041550" lon="-1.518370">
        <ele>423.843</ele>
        <time>2017-03-18T14:53:20Z</time>
      </trkpt>
      <trkpt lat="38.041487" lon="-1.518277">
        <ele>423.525</ele>
        <time>2017-03-18T14:53:21Z</time>
      </trkpt>
      <trkpt lat="38.041418" lon="-1.518172">
        <ele>422.840</ele>
        <time>2017-03-18T14:53:22Z</time>
      </trkpt>
      <trkpt lat="38.041351" lon="-1.518070">
        <ele>422.328</ele>
        <time>2017-03-18T14:53:23Z</time>
      </trkpt>
      <trkpt lat="38.041284" lon="-1.517966">
        <ele>421.622</ele>
        <time>2017-03-18T14:53:24Z</time>
      </trkpt>
      <trkpt lat="38.041221" lon="-1.517869">
        <ele>421.338</ele>
        <time>2017-03-18T14:53:25Z</time>
      </trkpt>
      <trkpt lat="38.041155" lon="-1.517770">
        <ele>420.558</ele>
        <time>2017-03-18T14:53:26Z</time>
      </trkpt>
      <trkpt lat="38.041091" lon="-1.517678">
        <ele>419.399</ele>
        <time>2017-03-18T14:53:27Z</time>
      </trkpt>
      <trkpt lat="38.041023" lon="-1.517581">
        <ele>418.107</ele>
        <time>2017-03-18T14:53:28Z</time>
      </trkpt>
      <trkpt lat="38.040959" lon="-1.517487">
        <ele>417.327</ele>
        <time>2017-03-18T14:53:29Z</time>
      </trkpt>
      <trkpt lat="38.040896" lon="-1.517399">
        <ele>416.608</ele>
        <time>2017-03-18T14:53:30Z</time>
      </trkpt>
      <trkpt lat="38.040828" lon="-1.517305">
        <ele>415.710</ele>
        <time>2017-03-18T14:53:31Z</time>
      </trkpt>
      <trkpt lat="38.040765" lon="-1.517215">
        <ele>414.745</ele>
        <time>2017-03-18T14:53:32Z</time>
      </trkpt>
      <trkpt lat="38.040704" lon="-1.517125">
        <ele>413.727</ele>
        <time>2017-03-18T14:53:33Z</time>
      </trkpt>
      <trkpt lat="38.040644" lon="-1.517034">
        <ele>412.682</ele>
        <time>2017-03-18T14:53:34Z</time>
      </trkpt>
      <trkpt lat="38.040588" lon="-1.516942">
        <ele>411.510</ele>
        <time>2017-03-18T14:53:35Z</time>
      </trkpt>
      <trkpt lat="38.040497" lon="-1.516768">
        <ele>410.534</ele>
        <time>2017-03-18T14:53:37Z</time>
      </trkpt>
      <trkpt lat="38.040421" lon="-1.516582">
        <ele>409.710</ele>
        <time>2017-03-18T14:53:39Z</time>
      </trkpt>
      <trkpt lat="38.040380" lon="-1.516474">
        <ele>409.490</ele>
        <time>2017-03-18T14:53:40Z</time>
      </trkpt>
      <trkpt lat="38.040315" lon="-1.516258">
        <ele>408.039</ele>
        <time>2017-03-18T14:53:42Z</time>
      </trkpt>
      <trkpt lat="38.040262" lon="-1.516036">
        <ele>407.001</ele>
        <time>2017-03-18T14:53:44Z</time>
      </trkpt>
      <trkpt lat="38.040212" lon="-1.515819">
        <ele>405.621</ele>
        <time>2017-03-18T14:53:46Z</time>
      </trkpt>
      <trkpt lat="38.040185" lon="-1.515703">
        <ele>404.808</ele>
        <time>2017-03-18T14:53:47Z</time>
      </trkpt>
      <trkpt lat="38.040130" lon="-1.515481">
        <ele>404.844</ele>
        <time>2017-03-18T14:53:49Z</time>
      </trkpt>
      <trkpt lat="38.040102" lon="-1.515370">
        <ele>405.299</ele>
        <time>2017-03-18T14:53:50Z</time>
      </trkpt>
      <trkpt lat="38.040050" lon="-1.515164">
        <ele>405.861</ele>
        <time>2017-03-18T14:53:52Z</time>
      </trkpt>
      <trkpt lat="38.039999" lon="-1.514955">
        <ele>405.116</ele>
        <time>2017-03-18T14:53:54Z</time>
      </trkpt>
      <trkpt lat="38.039946" lon="-1.514755">
        <ele>404.294</ele>
        <time>2017-03-18T14:53:56Z</time>
      </trkpt>
      <trkpt lat="38.039899" lon="-1.514580">
        <ele>403.198</ele>
        <time>2017-03-18T14:53:59Z</time>
      </trkpt>
      <trkpt lat="38.039834" lon="-1.514408">
        <ele>402.434</ele>
        <time>2017-03-18T14:54:02Z</time>
      </trkpt>
      <trkpt lat="38.039766" lon="-1.514258">
        <ele>402.014</ele>
        <time>2017-03-18T14:54:06Z</time>
      </trkpt>
      <trkpt lat="38.039724" lon="-1.514114">
        <ele>401.577</ele>
        <time>2017-03-18T14:54:09Z</time>
      </trkpt>
      <trkpt lat="38.039700" lon="-1.513983">
        <ele>401.061</ele>
        <time>2017-03-18T14:54:11Z</time>
      </trkpt>
      <trkpt lat="38.039672" lon="-1.513864">
        <ele>401.227</ele>
        <time>2017-03-18T14:54:13Z</time>
      </trkpt>
      <trkpt lat="38.039629" lon="-1.513721">
        <ele>400.708</ele>
        <time>2017-03-18T14:54:16Z</time>
      </trkpt>
      <trkpt lat="38.039586" lon="-1.513617">
        <ele>400.998</ele>
        <time>2017-03-18T14:54:18Z</time>
      </trkpt>
      <trkpt lat="38.039529" lon="-1.513482">
        <ele>401.073</ele>
        <time>2017-03-18T14:54:21Z</time>
      </trkpt>
      <trkpt lat="38.039458" lon="-1.513373">
        <ele>401.065</ele>
        <time>2017-03-18T14:54:26Z</time>
      </trkpt>
      <trkpt lat="38.039371" lon="-1.513323">
        <ele>401.130</ele>
        <time>2017-03-18T14:54:30Z</time>
      </trkpt>
      <trkpt lat="38.039282" lon="-1.513375">
        <ele>401.058</ele>
        <time>2017-03-18T14:54:35Z</time>
      </trkpt>
      <trkpt lat="38.039198" lon="-1.513456">
        <ele>401.052</ele>
        <time>2017-03-18T14:54:39Z</time>
      </trkpt>
      <trkpt lat="38.039126" lon="-1.513527">
        <ele>400.928</ele>
        <time>2017-03-18T14:54:42Z</time>
      </trkpt>
      <trkpt lat="38.039026" lon="-1.513615">
        <ele>400.788</ele>
        <time>2017-03-18T14:54:46Z</time>
      </trkpt>
      <trkpt lat="38.038925" lon="-1.513692">
        <ele>397.836</ele>
        <time>2017-03-18T14:54:49Z</time>
      </trkpt>
      <trkpt lat="38.038824" lon="-1.513773">
        <ele>394.917</ele>
        <time>2017-03-18T14:54:52Z</time>
      </trkpt>
      <trkpt lat="38.038721" lon="-1.513850">
        <ele>393.618</ele>
        <time>2017-03-18T14:54:55Z</time>
      </trkpt>
      <trkpt lat="38.038620" lon="-1.513916">
        <ele>393.108</ele>
        <time>2017-03-18T14:54:58Z</time>
      </trkpt>
      <trkpt lat="38.038504" lon="-1.513985">
        <ele>393.194</ele>
        <time>2017-03-18T14:55:01Z</time>
      </trkpt>
      <trkpt lat="38.038382" lon="-1.514051">
        <ele>392.859</ele>
        <time>2017-03-18T14:55:04Z</time>
      </trkpt>
      <trkpt lat="38.038265" lon="-1.514114">
        <ele>392.111</ele>
        <time>2017-03-18T14:55:07Z</time>
      </trkpt>
      <trkpt lat="38.038149" lon="-1.514166">
        <ele>392.356</ele>
        <time>2017-03-18T14:55:10Z</time>
      </trkpt>
      <trkpt lat="38.038057" lon="-1.514198">
        <ele>393.114</ele>
        <time>2017-03-18T14:55:13Z</time>
      </trkpt>
      <trkpt lat="38.037940" lon="-1.514247">
        <ele>393.848</ele>
        <time>2017-03-18T14:55:16Z</time>
      </trkpt>
      <trkpt lat="38.037772" lon="-1.514328">
        <ele>392.734</ele>
        <time>2017-03-18T14:55:19Z</time>
      </trkpt>
      <trkpt lat="38.037657" lon="-1.514369">
        <ele>393.414</ele>
        <time>2017-03-18T14:55:22Z</time>
      </trkpt>
      <trkpt lat="38.037523" lon="-1.514416">
        <ele>394.442</ele>
        <time>2017-03-18T14:55:25Z</time>
      </trkpt>
      <trkpt lat="38.037396" lon="-1.514449">
        <ele>396.122</ele>
        <time>2017-03-18T14:55:28Z</time>
      </trkpt>
      <trkpt lat="38.037290" lon="-1.514485">
        <ele>396.614</ele>
        <time>2017-03-18T14:55:30Z</time>
      </trkpt>
      <trkpt lat="38.037178" lon="-1.514527">
        <ele>396.408</ele>
        <time>2017-03-18T14:55:32Z</time>
      </trkpt>
      <trkpt lat="38.037078" lon="-1.514569">
        <ele>395.125</ele>
        <time>2017-03-18T14:55:34Z</time>
      </trkpt>
      <trkpt lat="38.036976" lon="-1.514618">
        <ele>393.650</ele>
        <time>2017-03-18T14:55:36Z</time>
      </trkpt>
      <trkpt lat="38.036875" lon="-1.514667">
        <ele>392.792</ele>
        <time>2017-03-18T14:55:38Z</time>
      </trkpt>
      <trkpt lat="38.036766" lon="-1.514716">
        <ele>392.857</ele>
        <time>2017-03-18T14:55:41Z</time>
      </trkpt>
      <trkpt lat="38.036672" lon="-1.514753">
        <ele>393.085</ele>
        <time>2017-03-18T14:55:44Z</time>
      </trkpt>
      <trkpt lat="38.036570" lon="-1.514796">
        <ele>393.379</ele>
        <time>2017-03-18T14:55:48Z</time>
      </trkpt>
      <trkpt lat="38.036462" lon="-1.514852">
        <ele>393.825</ele>
        <time>2017-03-18T14:56:07Z</time>
      </trkpt>
      <trkpt lat="38.036347" lon="-1.514894">
        <ele>394.815</ele>
        <time>2017-03-18T14:56:10Z</time>
      </trkpt>
      <trkpt lat="38.036250" lon="-1.514926">
        <ele>395.728</ele>
        <time>2017-03-18T14:56:12Z</time>
      </trkpt>
      <trkpt lat="38.036133" lon="-1.514957">
        <ele>396.089</ele>
        <time>2017-03-18T14:56:15Z</time>
      </trkpt>
      <trkpt lat="38.036007" lon="-1.515008">
        <ele>395.017</ele>
        <time>2017-03-18T14:56:18Z</time>
      </trkpt>
      <trkpt lat="38.035892" lon="-1.515040">
        <ele>395.408</ele>
        <time>2017-03-18T14:56:22Z</time>
      </trkpt>
      <trkpt lat="38.035772" lon="-1.515078">
        <ele>395.373</ele>
        <time>2017-03-18T14:56:25Z</time>
      </trkpt>
      <trkpt lat="38.035684" lon="-1.515112">
        <ele>394.938</ele>
        <time>2017-03-18T14:56:27Z</time>
      </trkpt>
      <trkpt lat="38.035596" lon="-1.515148">
        <ele>394.550</ele>
        <time>2017-03-18T14:56:29Z</time>
      </trkpt>
      <trkpt lat="38.035509" lon="-1.515181">
        <ele>394.175</ele>
        <time>2017-03-18T14:56:31Z</time>
      </trkpt>
      <trkpt lat="38.035421" lon="-1.515220">
        <ele>393.643</ele>
        <time>2017-03-18T14:56:33Z</time>
      </trkpt>
      <trkpt lat="38.035323" lon="-1.515266">
        <ele>392.457</ele>
        <time>2017-03-18T14:56:35Z</time>
      </trkpt>
      <trkpt lat="38.035223" lon="-1.515309">
        <ele>390.683</ele>
        <time>2017-03-18T14:56:37Z</time>
      </trkpt>
      <trkpt lat="38.035123" lon="-1.515344">
        <ele>389.243</ele>
        <time>2017-03-18T14:56:39Z</time>
      </trkpt>
      <trkpt lat="38.035024" lon="-1.515359">
        <ele>389.034</ele>
        <time>2017-03-18T14:56:41Z</time>
      </trkpt>
      <trkpt lat="38.034922" lon="-1.515369">
        <ele>389.055</ele>
        <time>2017-03-18T14:56:43Z</time>
      </trkpt>
      <trkpt lat="38.034819" lon="-1.515373">
        <ele>389.210</ele>
        <time>2017-03-18T14:56:45Z</time>
      </trkpt>
      <trkpt lat="38.034706" lon="-1.515375">
        <ele>389.508</ele>
        <time>2017-03-18T14:56:47Z</time>
      </trkpt>
      <trkpt lat="38.034599" lon="-1.515373">
        <ele>389.834</ele>
        <time>2017-03-18T14:56:49Z</time>
      </trkpt>
      <trkpt lat="38.034501" lon="-1.515368">
        <ele>390.289</ele>
        <time>2017-03-18T14:56:51Z</time>
      </trkpt>
      <trkpt lat="38.034403" lon="-1.515357">
        <ele>390.871</ele>
        <time>2017-03-18T14:56:53Z</time>
      </trkpt>
      <trkpt lat="38.034298" lon="-1.515339">
        <ele>391.116</ele>
        <time>2017-03-18T14:56:55Z</time>
      </trkpt>
      <trkpt lat="38.034135" lon="-1.515303">
        <ele>390.834</ele>
        <time>2017-03-18T14:56:57Z</time>
      </trkpt>
      <trkpt lat="38.034029" lon="-1.515276">
        <ele>390.318</ele>
        <time>2017-03-18T14:56:59Z</time>
      </trkpt>
      <trkpt lat="38.033914" lon="-1.515247">
        <ele>390.474</ele>
        <time>2017-03-18T14:57:01Z</time>
      </trkpt>
      <trkpt lat="38.033810" lon="-1.515210">
        <ele>391.444</ele>
        <time>2017-03-18T14:57:03Z</time>
      </trkpt>
      <trkpt lat="38.033717" lon="-1.515165">
        <ele>391.942</ele>
        <time>2017-03-18T14:57:05Z</time>
      </trkpt>
      <trkpt lat="38.033610" lon="-1.515114">
        <ele>392.522</ele>
        <time>2017-03-18T14:57:07Z</time>
      </trkpt>
      <trkpt lat="38.033510" lon="-1.515073">
        <ele>392.614</ele>
        <time>2017-03-18T14:57:09Z</time>
      </trkpt>
      <trkpt lat="38.033411" lon="-1.515018">
        <ele>392.408</ele>
        <time>2017-03-18T14:57:11Z</time>
      </trkpt>
      <trkpt lat="38.033305" lon="-1.514953">
        <ele>391.765</ele>
        <time>2017-03-18T14:57:13Z</time>
      </trkpt>
      <trkpt lat="38.033195" lon="-1.514866">
        <ele>391.890</ele>
        <time>2017-03-18T14:57:15Z</time>
      </trkpt>
      <trkpt lat="38.033114" lon="-1.514796">
        <ele>391.342</ele>
        <time>2017-03-18T14:57:17Z</time>
      </trkpt>
      <trkpt lat="38.033023" lon="-1.514712">
        <ele>390.527</ele>
        <time>2017-03-18T14:57:19Z</time>
      </trkpt>
      <trkpt lat="38.032938" lon="-1.514621">
        <ele>389.995</ele>
        <time>2017-03-18T14:57:21Z</time>
      </trkpt>
      <trkpt lat="38.032860" lon="-1.514536">
        <ele>388.729</ele>
        <time>2017-03-18T14:57:23Z</time>
      </trkpt>
      <trkpt lat="38.032786" lon="-1.514462">
        <ele>387.045</ele>
        <time>2017-03-18T14:57:25Z</time>
      </trkpt>
      <trkpt lat="38.032715" lon="-1.514352">
        <ele>386.325</ele>
        <time>2017-03-18T14:57:28Z</time>
      </trkpt>
      <trkpt lat="38.032647" lon="-1.514239">
        <ele>386.399</ele>
        <time>2017-03-18T14:57:31Z</time>
      </trkpt>
      <trkpt lat="38.032589" lon="-1.514131">
        <ele>386.407</ele>
        <time>2017-03-18T14:57:34Z</time>
      </trkpt>
      <trkpt lat="38.032536" lon="-1.514037">
        <ele>386.627</ele>
        <time>2017-03-18T14:57:39Z</time>
      </trkpt>
      <trkpt lat="38.032469" lon="-1.513909">
        <ele>386.908</ele>
        <time>2017-03-18T14:57:43Z</time>
      </trkpt>
      <trkpt lat="38.032452" lon="-1.513797">
        <ele>387.660</ele>
        <time>2017-03-18T14:57:49Z</time>
      </trkpt>
      <trkpt lat="38.032360" lon="-1.513731">
        <ele>388.855</ele>
        <time>2017-03-18T14:58:09Z</time>
      </trkpt>
      <trkpt lat="38.032342" lon="-1.513557">
        <ele>386.887</ele>
        <time>2017-03-18T14:59:14Z</time>
      </trkpt>
      <trkpt lat="38.032298" lon="-1.513423">
        <ele>383.762</ele>
        <time>2017-03-18T14:59:17Z</time>
      </trkpt>
      <trkpt lat="38.032227" lon="-1.513230">
        <ele>385.360</ele>
        <time>2017-03-18T14:59:20Z</time>
      </trkpt>
      <trkpt lat="38.032182" lon="-1.513077">
        <ele>386.864</ele>
        <time>2017-03-18T14:59:23Z</time>
      </trkpt>
      <trkpt lat="38.032145" lon="-1.512948">
        <ele>386.490</ele>
        <time>2017-03-18T14:59:25Z</time>
      </trkpt>
      <trkpt lat="38.032094" lon="-1.512737">
        <ele>385.190</ele>
        <time>2017-03-18T14:59:28Z</time>
      </trkpt>
      <trkpt lat="38.032074" lon="-1.512609">
        <ele>383.765</ele>
        <time>2017-03-18T14:59:30Z</time>
      </trkpt>
      <trkpt lat="38.032057" lon="-1.512488">
        <ele>382.968</ele>
        <time>2017-03-18T14:59:32Z</time>
      </trkpt>
      <trkpt lat="38.032037" lon="-1.512328">
        <ele>381.914</ele>
        <time>2017-03-18T14:59:35Z</time>
      </trkpt>
      <trkpt lat="38.032029" lon="-1.512212">
        <ele>380.508</ele>
        <time>2017-03-18T14:59:37Z</time>
      </trkpt>
      <trkpt lat="38.032027" lon="-1.512089">
        <ele>379.637</ele>
        <time>2017-03-18T14:59:39Z</time>
      </trkpt>
      <trkpt lat="38.032027" lon="-1.511972">
        <ele>378.942</ele>
        <time>2017-03-18T14:59:41Z</time>
      </trkpt>
      <trkpt lat="38.032032" lon="-1.511853">
        <ele>378.614</ele>
        <time>2017-03-18T14:59:43Z</time>
      </trkpt>
      <trkpt lat="38.032040" lon="-1.511735">
        <ele>378.499</ele>
        <time>2017-03-18T14:59:45Z</time>
      </trkpt>
      <trkpt lat="38.032049" lon="-1.511617">
        <ele>378.247</ele>
        <time>2017-03-18T14:59:47Z</time>
      </trkpt>
      <trkpt lat="38.032061" lon="-1.511497">
        <ele>378.381</ele>
        <time>2017-03-18T14:59:49Z</time>
      </trkpt>
      <trkpt lat="38.032075" lon="-1.511368">
        <ele>379.387</ele>
        <time>2017-03-18T14:59:51Z</time>
      </trkpt>
      <trkpt lat="38.032093" lon="-1.511240">
        <ele>379.297</ele>
        <time>2017-03-18T14:59:53Z</time>
      </trkpt>
      <trkpt lat="38.032113" lon="-1.511120">
        <ele>377.917</ele>
        <time>2017-03-18T14:59:55Z</time>
      </trkpt>
      <trkpt lat="38.032136" lon="-1.510998">
        <ele>377.487</ele>
        <time>2017-03-18T14:59:57Z</time>
      </trkpt>
      <trkpt lat="38.032165" lon="-1.510871">
        <ele>376.615</ele>
        <time>2017-03-18T14:59:59Z</time>
      </trkpt>
      <trkpt lat="38.032200" lon="-1.510750">
        <ele>376.208</ele>
        <time>2017-03-18T15:00:01Z</time>
      </trkpt>
      <trkpt lat="38.032242" lon="-1.510623">
        <ele>376.642</ele>
        <time>2017-03-18T15:00:03Z</time>
      </trkpt>
      <trkpt lat="38.032285" lon="-1.510496">
        <ele>376.077</ele>
        <time>2017-03-18T15:00:05Z</time>
      </trkpt>
      <trkpt lat="38.032334" lon="-1.510372">
        <ele>375.439</ele>
        <time>2017-03-18T15:00:07Z</time>
      </trkpt>
      <trkpt lat="38.032392" lon="-1.510247">
        <ele>376.174</ele>
        <time>2017-03-18T15:00:09Z</time>
      </trkpt>
      <trkpt lat="38.032444" lon="-1.510140">
        <ele>376.532</ele>
        <time>2017-03-18T15:00:11Z</time>
      </trkpt>
      <trkpt lat="38.032505" lon="-1.510031">
        <ele>376.216</ele>
        <time>2017-03-18T15:00:13Z</time>
      </trkpt>
      <trkpt lat="38.032572" lon="-1.509918">
        <ele>375.662</ele>
        <time>2017-03-18T15:00:15Z</time>
      </trkpt>
      <trkpt lat="38.032645" lon="-1.509803">
        <ele>374.692</ele>
        <time>2017-03-18T15:00:17Z</time>
      </trkpt>
      <trkpt lat="38.032720" lon="-1.509688">
        <ele>374.098</ele>
        <time>2017-03-18T15:00:19Z</time>
      </trkpt>
      <trkpt lat="38.032792" lon="-1.509574">
        <ele>373.715</ele>
        <time>2017-03-18T15:00:21Z</time>
      </trkpt>
      <trkpt lat="38.032876" lon="-1.509453">
        <ele>373.526</ele>
        <time>2017-03-18T15:00:23Z</time>
      </trkpt>
      <trkpt lat="38.032960" lon="-1.509331">
        <ele>372.808</ele>
        <time>2017-03-18T15:00:25Z</time>
      </trkpt>
      <trkpt lat="38.033040" lon="-1.509215">
        <ele>372.020</ele>
        <time>2017-03-18T15:00:27Z</time>
      </trkpt>
      <trkpt lat="38.033120" lon="-1.509095">
        <ele>371.545</ele>
        <time>2017-03-18T15:00:30Z</time>
      </trkpt>
      <trkpt lat="38.033195" lon="-1.508979">
        <ele>371.277</ele>
        <time>2017-03-18T15:00:32Z</time>
      </trkpt>
      <trkpt lat="38.033274" lon="-1.508854">
        <ele>371.442</ele>
        <time>2017-03-18T15:00:34Z</time>
      </trkpt>
      <trkpt lat="38.033353" lon="-1.508731">
        <ele>371.070</ele>
        <time>2017-03-18T15:00:36Z</time>
      </trkpt>
      <trkpt lat="38.033435" lon="-1.508611">
        <ele>370.974</ele>
        <time>2017-03-18T15:00:38Z</time>
      </trkpt>
      <trkpt lat="38.033515" lon="-1.508493">
        <ele>370.860</ele>
        <time>2017-03-18T15:00:40Z</time>
      </trkpt>
      <trkpt lat="38.033606" lon="-1.508377">
        <ele>371.030</ele>
        <time>2017-03-18T15:00:41Z</time>
      </trkpt>
      <trkpt lat="38.033698" lon="-1.508258">
        <ele>371.021</ele>
        <time>2017-03-18T15:00:43Z</time>
      </trkpt>
      <trkpt lat="38.033783" lon="-1.508138">
        <ele>370.841</ele>
        <time>2017-03-18T15:00:45Z</time>
      </trkpt>
      <trkpt lat="38.033865" lon="-1.508019">
        <ele>370.805</ele>
        <time>2017-03-18T15:00:47Z</time>
      </trkpt>
      <trkpt lat="38.033943" lon="-1.507899">
        <ele>370.808</ele>
        <time>2017-03-18T15:00:49Z</time>
      </trkpt>
      <trkpt lat="38.034021" lon="-1.507776">
        <ele>370.423</ele>
        <time>2017-03-18T15:00:51Z</time>
      </trkpt>
      <trkpt lat="38.034095" lon="-1.507658">
        <ele>370.318</ele>
        <time>2017-03-18T15:00:53Z</time>
      </trkpt>
      <trkpt lat="38.034162" lon="-1.507551">
        <ele>370.320</ele>
        <time>2017-03-18T15:00:55Z</time>
      </trkpt>
      <trkpt lat="38.034223" lon="-1.507433">
        <ele>370.155</ele>
        <time>2017-03-18T15:00:57Z</time>
      </trkpt>
      <trkpt lat="38.034299" lon="-1.507285">
        <ele>369.863</ele>
        <time>2017-03-18T15:00:59Z</time>
      </trkpt>
      <trkpt lat="38.034375" lon="-1.507121">
        <ele>369.487</ele>
        <time>2017-03-18T15:01:01Z</time>
      </trkpt>
      <trkpt lat="38.034438" lon="-1.506967">
        <ele>368.933</ele>
        <time>2017-03-18T15:01:03Z</time>
      </trkpt>
      <trkpt lat="38.034492" lon="-1.506817">
        <ele>368.773</ele>
        <time>2017-03-18T15:01:05Z</time>
      </trkpt>
      <trkpt lat="38.034536" lon="-1.506679">
        <ele>368.725</ele>
        <time>2017-03-18T15:01:07Z</time>
      </trkpt>
      <trkpt lat="38.034581" lon="-1.506499">
        <ele>368.526</ele>
        <time>2017-03-18T15:01:09Z</time>
      </trkpt>
      <trkpt lat="38.034610" lon="-1.506353">
        <ele>368.708</ele>
        <time>2017-03-18T15:01:11Z</time>
      </trkpt>
      <trkpt lat="38.034635" lon="-1.506189">
        <ele>369.108</ele>
        <time>2017-03-18T15:01:13Z</time>
      </trkpt>
      <trkpt lat="38.034658" lon="-1.506031">
        <ele>369.043</ele>
        <time>2017-03-18T15:01:15Z</time>
      </trkpt>
      <trkpt lat="38.034672" lon="-1.505863">
        <ele>368.938</ele>
        <time>2017-03-18T15:01:17Z</time>
      </trkpt>
      <trkpt lat="38.034676" lon="-1.505716">
        <ele>368.540</ele>
        <time>2017-03-18T15:01:19Z</time>
      </trkpt>
      <trkpt lat="38.034679" lon="-1.505589">
        <ele>368.595</ele>
        <time>2017-03-18T15:01:21Z</time>
      </trkpt>
      <trkpt lat="38.034683" lon="-1.505470">
        <ele>368.093</ele>
        <time>2017-03-18T15:01:23Z</time>
      </trkpt>
      <trkpt lat="38.034697" lon="-1.505336">
        <ele>367.027</ele>
        <time>2017-03-18T15:01:26Z</time>
      </trkpt>
      <trkpt lat="38.034771" lon="-1.505256">
        <ele>366.943</ele>
        <time>2017-03-18T15:01:31Z</time>
      </trkpt>
      <trkpt lat="38.034867" lon="-1.505173">
        <ele>366.223</ele>
        <time>2017-03-18T15:01:34Z</time>
      </trkpt>
      <trkpt lat="38.034890" lon="-1.505016">
        <ele>366.418</ele>
        <time>2017-03-18T15:01:38Z</time>
      </trkpt>
      <trkpt lat="38.034866" lon="-1.504873">
        <ele>367.798</ele>
        <time>2017-03-18T15:01:41Z</time>
      </trkpt>
      <trkpt lat="38.034811" lon="-1.504719">
        <ele>366.317</ele>
        <time>2017-03-18T15:01:44Z</time>
      </trkpt>
      <trkpt lat="38.034764" lon="-1.504604">
        <ele>365.208</ele>
        <time>2017-03-18T15:01:46Z</time>
      </trkpt>
      <trkpt lat="38.034722" lon="-1.504483">
        <ele>364.042</ele>
        <time>2017-03-18T15:01:48Z</time>
      </trkpt>
      <trkpt lat="38.034681" lon="-1.504357">
        <ele>363.367</ele>
        <time>2017-03-18T15:01:50Z</time>
      </trkpt>
      <trkpt lat="38.034668" lon="-1.504225">
        <ele>362.859</ele>
        <time>2017-03-18T15:01:52Z</time>
      </trkpt>
      <trkpt lat="38.034681" lon="-1.504094">
        <ele>362.474</ele>
        <time>2017-03-18T15:01:54Z</time>
      </trkpt>
      <trkpt lat="38.034694" lon="-1.503964">
        <ele>361.712</ele>
        <time>2017-03-18T15:01:56Z</time>
      </trkpt>
      <trkpt lat="38.034713" lon="-1.503833">
        <ele>361.426</ele>
        <time>2017-03-18T15:01:58Z</time>
      </trkpt>
      <trkpt lat="38.034744" lon="-1.503636">
        <ele>360.952</ele>
        <time>2017-03-18T15:02:00Z</time>
      </trkpt>
      <trkpt lat="38.034760" lon="-1.503510">
        <ele>360.592</ele>
        <time>2017-03-18T15:02:02Z</time>
      </trkpt>
      <trkpt lat="38.034776" lon="-1.503388">
        <ele>360.226</ele>
        <time>2017-03-18T15:02:04Z</time>
      </trkpt>
      <trkpt lat="38.034790" lon="-1.503262">
        <ele>360.547</ele>
        <time>2017-03-18T15:02:06Z</time>
      </trkpt>
      <trkpt lat="38.034803" lon="-1.503125">
        <ele>360.811</ele>
        <time>2017-03-18T15:02:08Z</time>
      </trkpt>
      <trkpt lat="38.034810" lon="-1.502988">
        <ele>360.708</ele>
        <time>2017-03-18T15:02:10Z</time>
      </trkpt>
      <trkpt lat="38.034814" lon="-1.502842">
        <ele>360.843</ele>
        <time>2017-03-18T15:02:12Z</time>
      </trkpt>
      <trkpt lat="38.034809" lon="-1.502696">
        <ele>360.698</ele>
        <time>2017-03-18T15:02:14Z</time>
      </trkpt>
      <trkpt lat="38.034799" lon="-1.502542">
        <ele>360.020</ele>
        <time>2017-03-18T15:02:16Z</time>
      </trkpt>
      <trkpt lat="38.034769" lon="-1.502390">
        <ele>359.775</ele>
        <time>2017-03-18T15:02:18Z</time>
      </trkpt>
      <trkpt lat="38.034730" lon="-1.502240">
        <ele>359.543</ele>
        <time>2017-03-18T15:02:20Z</time>
      </trkpt>
      <trkpt lat="38.034695" lon="-1.502085">
        <ele>358.757</ele>
        <time>2017-03-18T15:02:22Z</time>
      </trkpt>
      <trkpt lat="38.034669" lon="-1.501930">
        <ele>358.493</ele>
        <time>2017-03-18T15:02:24Z</time>
      </trkpt>
      <trkpt lat="38.034656" lon="-1.501787">
        <ele>358.313</ele>
        <time>2017-03-18T15:02:26Z</time>
      </trkpt>
      <trkpt lat="38.034645" lon="-1.501646">
        <ele>358.266</ele>
        <time>2017-03-18T15:02:28Z</time>
      </trkpt>
      <trkpt lat="38.034634" lon="-1.501496">
        <ele>358.229</ele>
        <time>2017-03-18T15:02:30Z</time>
      </trkpt>
      <trkpt lat="38.034623" lon="-1.501348">
        <ele>358.121</ele>
        <time>2017-03-18T15:02:32Z</time>
      </trkpt>
      <trkpt lat="38.034608" lon="-1.501212">
        <ele>358.108</ele>
        <time>2017-03-18T15:02:34Z</time>
      </trkpt>
      <trkpt lat="38.034585" lon="-1.501068">
        <ele>357.777</ele>
        <time>2017-03-18T15:02:36Z</time>
      </trkpt>
      <trkpt lat="38.034566" lon="-1.500928">
        <ele>357.262</ele>
        <time>2017-03-18T15:02:38Z</time>
      </trkpt>
      <trkpt lat="38.034555" lon="-1.500786">
        <ele>356.974</ele>
        <time>2017-03-18T15:02:40Z</time>
      </trkpt>
      <trkpt lat="38.034570" lon="-1.500648">
        <ele>356.559</ele>
        <time>2017-03-18T15:02:42Z</time>
      </trkpt>
      <trkpt lat="38.034614" lon="-1.500530">
        <ele>356.567</ele>
        <time>2017-03-18T15:02:44Z</time>
      </trkpt>
      <trkpt lat="38.034676" lon="-1.500426">
        <ele>356.911</ele>
        <time>2017-03-18T15:02:47Z</time>
      </trkpt>
      <trkpt lat="38.034737" lon="-1.500333">
        <ele>357.637</ele>
        <time>2017-03-18T15:02:49Z</time>
      </trkpt>
      <trkpt lat="38.034820" lon="-1.500224">
        <ele>358.277</ele>
        <time>2017-03-18T15:02:52Z</time>
      </trkpt>
      <trkpt lat="38.034854" lon="-1.500097">
        <ele>358.284</ele>
        <time>2017-03-18T15:02:56Z</time>
      </trkpt>
      <trkpt lat="38.034766" lon="-1.500048">
        <ele>358.407</ele>
        <time>2017-03-18T15:03:00Z</time>
      </trkpt>
      <trkpt lat="38.034633" lon="-1.500041">
        <ele>358.617</ele>
        <time>2017-03-18T15:03:03Z</time>
      </trkpt>
      <trkpt lat="38.034505" lon="-1.500003">
        <ele>357.008</ele>
        <time>2017-03-18T15:03:06Z</time>
      </trkpt>
      <trkpt lat="38.034391" lon="-1.499920">
        <ele>353.429</ele>
        <time>2017-03-18T15:03:09Z</time>
      </trkpt>
      <trkpt lat="38.034350" lon="-1.499818">
        <ele>351.754</ele>
        <time>2017-03-18T15:03:11Z</time>
      </trkpt>
      <trkpt lat="38.034316" lon="-1.499695">
        <ele>350.276</ele>
        <time>2017-03-18T15:03:13Z</time>
      </trkpt>
      <trkpt lat="38.034294" lon="-1.499567">
        <ele>350.041</ele>
        <time>2017-03-18T15:03:14Z</time>
      </trkpt>
      <trkpt lat="38.034276" lon="-1.499373">
        <ele>350.529</ele>
        <time>2017-03-18T15:03:17Z</time>
      </trkpt>
      <trkpt lat="38.034268" lon="-1.499245">
        <ele>350.983</ele>
        <time>2017-03-18T15:03:19Z</time>
      </trkpt>
      <trkpt lat="38.034265" lon="-1.499111">
        <ele>351.929</ele>
        <time>2017-03-18T15:03:21Z</time>
      </trkpt>
      <trkpt lat="38.034259" lon="-1.498970">
        <ele>352.539</ele>
        <time>2017-03-18T15:03:23Z</time>
      </trkpt>
      <trkpt lat="38.034247" lon="-1.498832">
        <ele>353.294</ele>
        <time>2017-03-18T15:03:25Z</time>
      </trkpt>
      <trkpt lat="38.034233" lon="-1.498695">
        <ele>353.257</ele>
        <time>2017-03-18T15:03:27Z</time>
      </trkpt>
      <trkpt lat="38.034217" lon="-1.498564">
        <ele>353.222</ele>
        <time>2017-03-18T15:03:29Z</time>
      </trkpt>
      <trkpt lat="38.034196" lon="-1.498435">
        <ele>353.208</ele>
        <time>2017-03-18T15:03:31Z</time>
      </trkpt>
      <trkpt lat="38.034171" lon="-1.498305">
        <ele>353.350</ele>
        <time>2017-03-18T15:03:33Z</time>
      </trkpt>
      <trkpt lat="38.034147" lon="-1.498181">
        <ele>353.245</ele>
        <time>2017-03-18T15:03:35Z</time>
      </trkpt>
      <trkpt lat="38.034127" lon="-1.498058">
        <ele>353.117</ele>
        <time>2017-03-18T15:03:37Z</time>
      </trkpt>
      <trkpt lat="38.034112" lon="-1.497920">
        <ele>353.442</ele>
        <time>2017-03-18T15:03:39Z</time>
      </trkpt>
      <trkpt lat="38.034105" lon="-1.497787">
        <ele>353.580</ele>
        <time>2017-03-18T15:03:41Z</time>
      </trkpt>
      <trkpt lat="38.034107" lon="-1.497655">
        <ele>354.164</ele>
        <time>2017-03-18T15:03:43Z</time>
      </trkpt>
      <trkpt lat="38.034114" lon="-1.497464">
        <ele>354.790</ele>
        <time>2017-03-18T15:03:46Z</time>
      </trkpt>
      <trkpt lat="38.034123" lon="-1.497331">
        <ele>354.690</ele>
        <time>2017-03-18T15:03:48Z</time>
      </trkpt>
      <trkpt lat="38.034135" lon="-1.497199">
        <ele>354.535</ele>
        <time>2017-03-18T15:03:50Z</time>
      </trkpt>
      <trkpt lat="38.034151" lon="-1.497076">
        <ele>354.686</ele>
        <time>2017-03-18T15:03:52Z</time>
      </trkpt>
      <trkpt lat="38.034172" lon="-1.496943">
        <ele>354.514</ele>
        <time>2017-03-18T15:03:54Z</time>
      </trkpt>
      <trkpt lat="38.034194" lon="-1.496814">
        <ele>354.408</ele>
        <time>2017-03-18T15:03:56Z</time>
      </trkpt>
      <trkpt lat="38.034223" lon="-1.496683">
        <ele>354.764</ele>
        <time>2017-03-18T15:03:58Z</time>
      </trkpt>
      <trkpt lat="38.034245" lon="-1.496554">
        <ele>354.789</ele>
        <time>2017-03-18T15:04:00Z</time>
      </trkpt>
      <trkpt lat="38.034267" lon="-1.496428">
        <ele>354.861</ele>
        <time>2017-03-18T15:04:02Z</time>
      </trkpt>
      <trkpt lat="38.034282" lon="-1.496306">
        <ele>354.476</ele>
        <time>2017-03-18T15:04:04Z</time>
      </trkpt>
      <trkpt lat="38.034272" lon="-1.496185">
        <ele>354.434</ele>
        <time>2017-03-18T15:04:06Z</time>
      </trkpt>
      <trkpt lat="38.034264" lon="-1.496060">
        <ele>354.448</ele>
        <time>2017-03-18T15:04:10Z</time>
      </trkpt>
      <trkpt lat="38.034281" lon="-1.495937">
        <ele>354.214</ele>
        <time>2017-03-18T15:04:24Z</time>
      </trkpt>
      <trkpt lat="38.034380" lon="-1.495867">
        <ele>352.974</ele>
        <time>2017-03-18T15:04:27Z</time>
      </trkpt>
      <trkpt lat="38.034503" lon="-1.495814">
        <ele>352.458</ele>
        <time>2017-03-18T15:04:30Z</time>
      </trkpt>
      <trkpt lat="38.034626" lon="-1.495777">
        <ele>353.252</ele>
        <time>2017-03-18T15:04:33Z</time>
      </trkpt>
      <trkpt lat="38.034755" lon="-1.495737">
        <ele>354.317</ele>
        <time>2017-03-18T15:04:36Z</time>
      </trkpt>
      <trkpt lat="38.034842" lon="-1.495704">
        <ele>355.408</ele>
        <time>2017-03-18T15:04:38Z</time>
      </trkpt>
      <trkpt lat="38.034969" lon="-1.495658">
        <ele>356.946</ele>
        <time>2017-03-18T15:04:41Z</time>
      </trkpt>
      <trkpt lat="38.035050" lon="-1.495607">
        <ele>357.591</ele>
        <time>2017-03-18T15:04:43Z</time>
      </trkpt>
      <trkpt lat="38.035088" lon="-1.495501">
        <ele>356.873</ele>
        <time>2017-03-18T15:04:45Z</time>
      </trkpt>
      <trkpt lat="38.035123" lon="-1.495318">
        <ele>354.898</ele>
        <time>2017-03-18T15:04:47Z</time>
      </trkpt>
      <trkpt lat="38.035148" lon="-1.495193">
        <ele>354.686</ele>
        <time>2017-03-18T15:04:49Z</time>
      </trkpt>
      <trkpt lat="38.035170" lon="-1.495075">
        <ele>354.160</ele>
        <time>2017-03-18T15:04:51Z</time>
      </trkpt>
      <trkpt lat="38.035193" lon="-1.494944">
        <ele>353.936</ele>
        <time>2017-03-18T15:04:53Z</time>
      </trkpt>
      <trkpt lat="38.035215" lon="-1.494813">
        <ele>353.246</ele>
        <time>2017-03-18T15:04:55Z</time>
      </trkpt>
      <trkpt lat="38.035239" lon="-1.494686">
        <ele>352.421</ele>
        <time>2017-03-18T15:04:57Z</time>
      </trkpt>
      <trkpt lat="38.035263" lon="-1.494554">
        <ele>351.941</ele>
        <time>2017-03-18T15:04:59Z</time>
      </trkpt>
      <trkpt lat="38.035284" lon="-1.494435">
        <ele>351.405</ele>
        <time>2017-03-18T15:05:01Z</time>
      </trkpt>
      <trkpt lat="38.035294" lon="-1.494318">
        <ele>351.008</ele>
        <time>2017-03-18T15:05:03Z</time>
      </trkpt>
      <trkpt lat="38.035311" lon="-1.494196">
        <ele>351.193</ele>
        <time>2017-03-18T15:05:05Z</time>
      </trkpt>
      <trkpt lat="38.035335" lon="-1.494085">
        <ele>351.328</ele>
        <time>2017-03-18T15:05:07Z</time>
      </trkpt>
      <trkpt lat="38.035371" lon="-1.493926">
        <ele>352.350</ele>
        <time>2017-03-18T15:05:10Z</time>
      </trkpt>
      <trkpt lat="38.035391" lon="-1.493803">
        <ele>351.995</ele>
        <time>2017-03-18T15:05:12Z</time>
      </trkpt>
      <trkpt lat="38.035412" lon="-1.493678">
        <ele>351.413</ele>
        <time>2017-03-18T15:05:14Z</time>
      </trkpt>
      <trkpt lat="38.035440" lon="-1.493542">
        <ele>350.937</ele>
        <time>2017-03-18T15:05:16Z</time>
      </trkpt>
      <trkpt lat="38.035469" lon="-1.493410">
        <ele>350.333</ele>
        <time>2017-03-18T15:05:18Z</time>
      </trkpt>
      <trkpt lat="38.035495" lon="-1.493276">
        <ele>349.763</ele>
        <time>2017-03-18T15:05:20Z</time>
      </trkpt>
      <trkpt lat="38.035519" lon="-1.493143">
        <ele>349.192</ele>
        <time>2017-03-18T15:05:22Z</time>
      </trkpt>
      <trkpt lat="38.035545" lon="-1.492994">
        <ele>348.973</ele>
        <time>2017-03-18T15:05:24Z</time>
      </trkpt>
      <trkpt lat="38.035569" lon="-1.492858">
        <ele>348.520</ele>
        <time>2017-03-18T15:05:26Z</time>
      </trkpt>
      <trkpt lat="38.035593" lon="-1.492719">
        <ele>348.008</ele>
        <time>2017-03-18T15:05:28Z</time>
      </trkpt>
      <trkpt lat="38.035622" lon="-1.492579">
        <ele>347.860</ele>
        <time>2017-03-18T15:05:30Z</time>
      </trkpt>
      <trkpt lat="38.035655" lon="-1.492429">
        <ele>348.295</ele>
        <time>2017-03-18T15:05:32Z</time>
      </trkpt>
      <trkpt lat="38.035687" lon="-1.492270">
        <ele>348.357</ele>
        <time>2017-03-18T15:05:34Z</time>
      </trkpt>
      <trkpt lat="38.035711" lon="-1.492094">
        <ele>347.852</ele>
        <time>2017-03-18T15:05:36Z</time>
      </trkpt>
      <trkpt lat="38.035737" lon="-1.491928">
        <ele>347.640</ele>
        <time>2017-03-18T15:05:38Z</time>
      </trkpt>
      <trkpt lat="38.035763" lon="-1.491755">
        <ele>346.834</ele>
        <time>2017-03-18T15:05:40Z</time>
      </trkpt>
      <trkpt lat="38.035794" lon="-1.491578">
        <ele>346.640</ele>
        <time>2017-03-18T15:05:42Z</time>
      </trkpt>
      <trkpt lat="38.035823" lon="-1.491402">
        <ele>345.940</ele>
        <time>2017-03-18T15:05:44Z</time>
      </trkpt>
      <trkpt lat="38.035850" lon="-1.491227">
        <ele>345.669</ele>
        <time>2017-03-18T15:05:46Z</time>
      </trkpt>
      <trkpt lat="38.035883" lon="-1.491054">
        <ele>345.604</ele>
        <time>2017-03-18T15:05:48Z</time>
      </trkpt>
      <trkpt lat="38.035916" lon="-1.490887">
        <ele>345.924</ele>
        <time>2017-03-18T15:05:51Z</time>
      </trkpt>
      <trkpt lat="38.035942" lon="-1.490740">
        <ele>345.308</ele>
        <time>2017-03-18T15:05:53Z</time>
      </trkpt>
      <trkpt lat="38.035967" lon="-1.490585">
        <ele>344.677</ele>
        <time>2017-03-18T15:05:55Z</time>
      </trkpt>
      <trkpt lat="38.035990" lon="-1.490440">
        <ele>343.962</ele>
        <time>2017-03-18T15:05:57Z</time>
      </trkpt>
      <trkpt lat="38.036017" lon="-1.490293">
        <ele>343.564</ele>
        <time>2017-03-18T15:05:59Z</time>
      </trkpt>
      <trkpt lat="38.036051" lon="-1.490145">
        <ele>343.529</ele>
        <time>2017-03-18T15:06:01Z</time>
      </trkpt>
      <trkpt lat="38.036085" lon="-1.490004">
        <ele>343.477</ele>
        <time>2017-03-18T15:06:03Z</time>
      </trkpt>
      <trkpt lat="38.036116" lon="-1.489854">
        <ele>343.651</ele>
        <time>2017-03-18T15:06:05Z</time>
      </trkpt>
      <trkpt lat="38.036133" lon="-1.489710">
        <ele>343.427</ele>
        <time>2017-03-18T15:06:07Z</time>
      </trkpt>
      <trkpt lat="38.036148" lon="-1.489564">
        <ele>343.017</ele>
        <time>2017-03-18T15:06:09Z</time>
      </trkpt>
      <trkpt lat="38.036167" lon="-1.489415">
        <ele>343.145</ele>
        <time>2017-03-18T15:06:11Z</time>
      </trkpt>
      <trkpt lat="38.036189" lon="-1.489271">
        <ele>343.047</ele>
        <time>2017-03-18T15:06:13Z</time>
      </trkpt>
      <trkpt lat="38.036215" lon="-1.489126">
        <ele>343.311</ele>
        <time>2017-03-18T15:06:14Z</time>
      </trkpt>
      <trkpt lat="38.036237" lon="-1.488995">
        <ele>342.708</ele>
        <time>2017-03-18T15:06:16Z</time>
      </trkpt>
      <trkpt lat="38.036265" lon="-1.488849">
        <ele>342.745</ele>
        <time>2017-03-18T15:06:18Z</time>
      </trkpt>
      <trkpt lat="38.036287" lon="-1.488730">
        <ele>342.140</ele>
        <time>2017-03-18T15:06:20Z</time>
      </trkpt>
      <trkpt lat="38.036306" lon="-1.488596">
        <ele>342.062</ele>
        <time>2017-03-18T15:06:23Z</time>
      </trkpt>
      <trkpt lat="38.036340" lon="-1.488469">
        <ele>341.817</ele>
        <time>2017-03-18T15:06:26Z</time>
      </trkpt>
      <trkpt lat="38.036384" lon="-1.488331">
        <ele>340.945</ele>
        <time>2017-03-18T15:06:29Z</time>
      </trkpt>
      <trkpt lat="38.036418" lon="-1.488211">
        <ele>340.469</ele>
        <time>2017-03-18T15:06:31Z</time>
      </trkpt>
      <trkpt lat="38.036452" lon="-1.488083">
        <ele>340.145</ele>
        <time>2017-03-18T15:06:33Z</time>
      </trkpt>
      <trkpt lat="38.036486" lon="-1.487949">
        <ele>339.335</ele>
        <time>2017-03-18T15:06:35Z</time>
      </trkpt>
      <trkpt lat="38.036522" lon="-1.487803">
        <ele>338.523</ele>
        <time>2017-03-18T15:06:37Z</time>
      </trkpt>
      <trkpt lat="38.036565" lon="-1.487653">
        <ele>338.083</ele>
        <time>2017-03-18T15:06:39Z</time>
      </trkpt>
      <trkpt lat="38.036602" lon="-1.487511">
        <ele>337.411</ele>
        <time>2017-03-18T15:06:41Z</time>
      </trkpt>
      <trkpt lat="38.036641" lon="-1.487383">
        <ele>336.708</ele>
        <time>2017-03-18T15:06:43Z</time>
      </trkpt>
      <trkpt lat="38.036682" lon="-1.487248">
        <ele>336.433</ele>
        <time>2017-03-18T15:06:45Z</time>
      </trkpt>
      <trkpt lat="38.036722" lon="-1.487109">
        <ele>336.088</ele>
        <time>2017-03-18T15:06:47Z</time>
      </trkpt>
      <trkpt lat="38.036763" lon="-1.486972">
        <ele>335.610</ele>
        <time>2017-03-18T15:06:49Z</time>
      </trkpt>
      <trkpt lat="38.036801" lon="-1.486835">
        <ele>335.385</ele>
        <time>2017-03-18T15:06:51Z</time>
      </trkpt>
      <trkpt lat="38.036841" lon="-1.486696">
        <ele>335.743</ele>
        <time>2017-03-18T15:06:53Z</time>
      </trkpt>
      <trkpt lat="38.036880" lon="-1.486563">
        <ele>335.617</ele>
        <time>2017-03-18T15:06:55Z</time>
      </trkpt>
      <trkpt lat="38.036921" lon="-1.486421">
        <ele>335.083</ele>
        <time>2017-03-18T15:06:57Z</time>
      </trkpt>
      <trkpt lat="38.036965" lon="-1.486273">
        <ele>334.823</ele>
        <time>2017-03-18T15:06:59Z</time>
      </trkpt>
      <trkpt lat="38.037009" lon="-1.486131">
        <ele>334.766</ele>
        <time>2017-03-18T15:07:01Z</time>
      </trkpt>
      <trkpt lat="38.037056" lon="-1.485979">
        <ele>334.629</ele>
        <time>2017-03-18T15:07:03Z</time>
      </trkpt>
      <trkpt lat="38.037104" lon="-1.485827">
        <ele>335.021</ele>
        <time>2017-03-18T15:07:05Z</time>
      </trkpt>
      <trkpt lat="38.037152" lon="-1.485679">
        <ele>335.108</ele>
        <time>2017-03-18T15:07:07Z</time>
      </trkpt>
      <trkpt lat="38.037199" lon="-1.485522">
        <ele>335.237</ele>
        <time>2017-03-18T15:07:09Z</time>
      </trkpt>
      <trkpt lat="38.037246" lon="-1.485364">
        <ele>335.672</ele>
        <time>2017-03-18T15:07:11Z</time>
      </trkpt>
      <trkpt lat="38.037294" lon="-1.485203">
        <ele>336.184</ele>
        <time>2017-03-18T15:07:13Z</time>
      </trkpt>
      <trkpt lat="38.037332" lon="-1.485061">
        <ele>335.929</ele>
        <time>2017-03-18T15:07:15Z</time>
      </trkpt>
      <trkpt lat="38.037376" lon="-1.484911">
        <ele>335.747</ele>
        <time>2017-03-18T15:07:17Z</time>
      </trkpt>
      <trkpt lat="38.037420" lon="-1.484759">
        <ele>335.791</ele>
        <time>2017-03-18T15:07:19Z</time>
      </trkpt>
      <trkpt lat="38.037463" lon="-1.484611">
        <ele>335.447</ele>
        <time>2017-03-18T15:07:21Z</time>
      </trkpt>
      <trkpt lat="38.037510" lon="-1.484456">
        <ele>334.877</ele>
        <time>2017-03-18T15:07:23Z</time>
      </trkpt>
      <trkpt lat="38.037560" lon="-1.484298">
        <ele>334.412</ele>
        <time>2017-03-18T15:07:26Z</time>
      </trkpt>
      <trkpt lat="38.037608" lon="-1.484141">
        <ele>334.632</ele>
        <time>2017-03-18T15:07:28Z</time>
      </trkpt>
      <trkpt lat="38.037652" lon="-1.483990">
        <ele>334.505</ele>
        <time>2017-03-18T15:07:30Z</time>
      </trkpt>
      <trkpt lat="38.037695" lon="-1.483834">
        <ele>333.908</ele>
        <time>2017-03-18T15:07:32Z</time>
      </trkpt>
      <trkpt lat="38.037740" lon="-1.483684">
        <ele>333.252</ele>
        <time>2017-03-18T15:07:34Z</time>
      </trkpt>
      <trkpt lat="38.037784" lon="-1.483536">
        <ele>333.037</ele>
        <time>2017-03-18T15:07:36Z</time>
      </trkpt>
      <trkpt lat="38.037827" lon="-1.483398">
        <ele>332.249</ele>
        <time>2017-03-18T15:07:38Z</time>
      </trkpt>
      <trkpt lat="38.037870" lon="-1.483262">
        <ele>331.524</ele>
        <time>2017-03-18T15:07:40Z</time>
      </trkpt>
      <trkpt lat="38.037905" lon="-1.483138">
        <ele>331.372</ele>
        <time>2017-03-18T15:07:42Z</time>
      </trkpt>
      <trkpt lat="38.037892" lon="-1.483017">
        <ele>331.176</ele>
        <time>2017-03-18T15:07:44Z</time>
      </trkpt>
      <trkpt lat="38.037805" lon="-1.482925">
        <ele>330.762</ele>
        <time>2017-03-18T15:07:47Z</time>
      </trkpt>
      <trkpt lat="38.037691" lon="-1.482847">
        <ele>331.412</ele>
        <time>2017-03-18T15:07:50Z</time>
      </trkpt>
      <trkpt lat="38.037604" lon="-1.482791">
        <ele>331.986</ele>
        <time>2017-03-18T15:07:52Z</time>
      </trkpt>
      <trkpt lat="38.037497" lon="-1.482732">
        <ele>330.160</ele>
        <time>2017-03-18T15:07:54Z</time>
      </trkpt>
      <trkpt lat="38.037416" lon="-1.482593">
        <ele>328.526</ele>
        <time>2017-03-18T15:07:57Z</time>
      </trkpt>
      <trkpt lat="38.037386" lon="-1.482473">
        <ele>327.508</ele>
        <time>2017-03-18T15:07:59Z</time>
      </trkpt>
      <trkpt lat="38.037368" lon="-1.482340">
        <ele>327.569</ele>
        <time>2017-03-18T15:08:01Z</time>
      </trkpt>
      <trkpt lat="38.037358" lon="-1.482208">
        <ele>327.354</ele>
        <time>2017-03-18T15:08:03Z</time>
      </trkpt>
      <trkpt lat="38.037349" lon="-1.482071">
        <ele>327.416</ele>
        <time>2017-03-18T15:08:05Z</time>
      </trkpt>
      <trkpt lat="38.037344" lon="-1.481935">
        <ele>327.991</ele>
        <time>2017-03-18T15:08:07Z</time>
      </trkpt>
      <trkpt lat="38.037340" lon="-1.481798">
        <ele>328.169</ele>
        <time>2017-03-18T15:08:09Z</time>
      </trkpt>
      <trkpt lat="38.037337" lon="-1.481669">
        <ele>328.253</ele>
        <time>2017-03-18T15:08:11Z</time>
      </trkpt>
      <trkpt lat="38.037333" lon="-1.481548">
        <ele>328.479</ele>
        <time>2017-03-18T15:08:13Z</time>
      </trkpt>
      <trkpt lat="38.037324" lon="-1.481418">
        <ele>328.899</ele>
        <time>2017-03-18T15:08:15Z</time>
      </trkpt>
      <trkpt lat="38.037308" lon="-1.481295">
        <ele>329.393</ele>
        <time>2017-03-18T15:08:17Z</time>
      </trkpt>
      <trkpt lat="38.037286" lon="-1.481176">
        <ele>329.865</ele>
        <time>2017-03-18T15:08:19Z</time>
      </trkpt>
      <trkpt lat="38.037247" lon="-1.481025">
        <ele>330.921</ele>
        <time>2017-03-18T15:08:22Z</time>
      </trkpt>
      <trkpt lat="38.037164" lon="-1.480948">
        <ele>331.108</ele>
        <time>2017-03-18T15:08:26Z</time>
      </trkpt>
      <trkpt lat="38.037091" lon="-1.480871">
        <ele>331.520</ele>
        <time>2017-03-18T15:08:32Z</time>
      </trkpt>
      <trkpt lat="38.036993" lon="-1.480789">
        <ele>331.725</ele>
        <time>2017-03-18T15:08:37Z</time>
      </trkpt>
      <trkpt lat="38.037014" lon="-1.480643">
        <ele>332.117</ele>
        <time>2017-03-18T15:08:40Z</time>
      </trkpt>
      <trkpt lat="38.037037" lon="-1.480532">
        <ele>332.922</ele>
        <time>2017-03-18T15:08:42Z</time>
      </trkpt>
      <trkpt lat="38.037062" lon="-1.480419">
        <ele>333.290</ele>
        <time>2017-03-18T15:08:44Z</time>
      </trkpt>
      <trkpt lat="38.037087" lon="-1.480281">
        <ele>334.034</ele>
        <time>2017-03-18T15:08:46Z</time>
      </trkpt>
      <trkpt lat="38.037111" lon="-1.480164">
        <ele>336.080</ele>
        <time>2017-03-18T15:08:48Z</time>
      </trkpt>
      <trkpt lat="38.037146" lon="-1.479994">
        <ele>338.680</ele>
        <time>2017-03-18T15:08:51Z</time>
      </trkpt>
      <trkpt lat="38.037168" lon="-1.479868">
        <ele>339.277</ele>
        <time>2017-03-18T15:08:53Z</time>
      </trkpt>
      <trkpt lat="38.037195" lon="-1.479736">
        <ele>339.661</ele>
        <time>2017-03-18T15:08:55Z</time>
      </trkpt>
      <trkpt lat="38.037218" lon="-1.479616">
        <ele>338.927</ele>
        <time>2017-03-18T15:08:58Z</time>
      </trkpt>
      <trkpt lat="38.037251" lon="-1.479453">
        <ele>336.308</ele>
        <time>2017-03-18T15:09:01Z</time>
      </trkpt>
      <trkpt lat="38.037277" lon="-1.479333">
        <ele>334.468</ele>
        <time>2017-03-18T15:09:03Z</time>
      </trkpt>
      <trkpt lat="38.037304" lon="-1.479221">
        <ele>333.343</ele>
        <time>2017-03-18T15:09:05Z</time>
      </trkpt>
      <trkpt lat="38.037332" lon="-1.479109">
        <ele>332.765</ele>
        <time>2017-03-18T15:09:07Z</time>
      </trkpt>
      <trkpt lat="38.037368" lon="-1.478998">
        <ele>332.320</ele>
        <time>2017-03-18T15:09:09Z</time>
      </trkpt>
      <trkpt lat="38.037407" lon="-1.478892">
        <ele>331.938</ele>
        <time>2017-03-18T15:09:11Z</time>
      </trkpt>
      <trkpt lat="38.037446" lon="-1.478773">
        <ele>332.122</ele>
        <time>2017-03-18T15:09:13Z</time>
      </trkpt>
      <trkpt lat="38.037474" lon="-1.478648">
        <ele>332.558</ele>
        <time>2017-03-18T15:09:15Z</time>
      </trkpt>
      <trkpt lat="38.037495" lon="-1.478520">
        <ele>332.468</ele>
        <time>2017-03-18T15:09:17Z</time>
      </trkpt>
      <trkpt lat="38.037518" lon="-1.478392">
        <ele>332.833</ele>
        <time>2017-03-18T15:09:19Z</time>
      </trkpt>
      <trkpt lat="38.037542" lon="-1.478280">
        <ele>332.823</ele>
        <time>2017-03-18T15:09:21Z</time>
      </trkpt>
      <trkpt lat="38.037571" lon="-1.478171">
        <ele>332.715</ele>
        <time>2017-03-18T15:09:23Z</time>
      </trkpt>
      <trkpt lat="38.037621" lon="-1.478010">
        <ele>332.608</ele>
        <time>2017-03-18T15:09:26Z</time>
      </trkpt>
      <trkpt lat="38.037658" lon="-1.477775">
        <ele>332.164</ele>
        <time>2017-03-18T15:09:29Z</time>
      </trkpt>
      <trkpt lat="38.037677" lon="-1.477657">
        <ele>332.529</ele>
        <time>2017-03-18T15:09:31Z</time>
      </trkpt>
      <trkpt lat="38.037699" lon="-1.477543">
        <ele>333.641</ele>
        <time>2017-03-18T15:09:33Z</time>
      </trkpt>
      <trkpt lat="38.037726" lon="-1.477433">
        <ele>334.086</ele>
        <time>2017-03-18T15:09:35Z</time>
      </trkpt>
      <trkpt lat="38.037748" lon="-1.477321">
        <ele>333.724</ele>
        <time>2017-03-18T15:09:37Z</time>
      </trkpt>
      <trkpt lat="38.037767" lon="-1.477207">
        <ele>333.638</ele>
        <time>2017-03-18T15:09:39Z</time>
      </trkpt>
      <trkpt lat="38.037798" lon="-1.477017">
        <ele>332.894</ele>
        <time>2017-03-18T15:09:42Z</time>
      </trkpt>
      <trkpt lat="38.037820" lon="-1.476882">
        <ele>332.734</ele>
        <time>2017-03-18T15:09:44Z</time>
      </trkpt>
      <trkpt lat="38.037844" lon="-1.476757">
        <ele>332.966</ele>
        <time>2017-03-18T15:09:46Z</time>
      </trkpt>
      <trkpt lat="38.037869" lon="-1.476637">
        <ele>333.029</ele>
        <time>2017-03-18T15:09:48Z</time>
      </trkpt>
      <trkpt lat="38.037891" lon="-1.476513">
        <ele>333.221</ele>
        <time>2017-03-18T15:09:50Z</time>
      </trkpt>
      <trkpt lat="38.037921" lon="-1.476329">
        <ele>332.708</ele>
        <time>2017-03-18T15:09:53Z</time>
      </trkpt>
      <trkpt lat="38.037943" lon="-1.476200">
        <ele>332.517</ele>
        <time>2017-03-18T15:09:55Z</time>
      </trkpt>
      <trkpt lat="38.037963" lon="-1.476074">
        <ele>332.262</ele>
        <time>2017-03-18T15:09:57Z</time>
      </trkpt>
      <trkpt lat="38.037986" lon="-1.475946">
        <ele>331.664</ele>
        <time>2017-03-18T15:09:59Z</time>
      </trkpt>
      <trkpt lat="38.038011" lon="-1.475816">
        <ele>330.999</ele>
        <time>2017-03-18T15:10:01Z</time>
      </trkpt>
      <trkpt lat="38.038037" lon="-1.475691">
        <ele>330.037</ele>
        <time>2017-03-18T15:10:03Z</time>
      </trkpt>
      <trkpt lat="38.038058" lon="-1.475564">
        <ele>329.471</ele>
        <time>2017-03-18T15:10:05Z</time>
      </trkpt>
      <trkpt lat="38.038076" lon="-1.475447">
        <ele>329.177</ele>
        <time>2017-03-18T15:10:07Z</time>
      </trkpt>
      <trkpt lat="38.038094" lon="-1.475327">
        <ele>328.927</ele>
        <time>2017-03-18T15:10:09Z</time>
      </trkpt>
      <trkpt lat="38.038110" lon="-1.475208">
        <ele>328.755</ele>
        <time>2017-03-18T15:10:11Z</time>
      </trkpt>
      <trkpt lat="38.038132" lon="-1.475084">
        <ele>328.807</ele>
        <time>2017-03-18T15:10:13Z</time>
      </trkpt>
      <trkpt lat="38.038158" lon="-1.474962">
        <ele>329.217</ele>
        <time>2017-03-18T15:10:15Z</time>
      </trkpt>
      <trkpt lat="38.038185" lon="-1.474835">
        <ele>329.708</ele>
        <time>2017-03-18T15:10:17Z</time>
      </trkpt>
      <trkpt lat="38.038206" lon="-1.474716">
        <ele>329.776</ele>
        <time>2017-03-18T15:10:19Z</time>
      </trkpt>
      <trkpt lat="38.038228" lon="-1.474599">
        <ele>329.611</ele>
        <time>2017-03-18T15:10:22Z</time>
      </trkpt>
      <trkpt lat="38.038252" lon="-1.474471">
        <ele>329.423</ele>
        <time>2017-03-18T15:10:24Z</time>
      </trkpt>
      <trkpt lat="38.038274" lon="-1.474337">
        <ele>329.088</ele>
        <time>2017-03-18T15:10:26Z</time>
      </trkpt>
      <trkpt lat="38.038299" lon="-1.474198">
        <ele>328.636</ele>
        <time>2017-03-18T15:10:28Z</time>
      </trkpt>
      <trkpt lat="38.038323" lon="-1.474063">
        <ele>328.250</ele>
        <time>2017-03-18T15:10:30Z</time>
      </trkpt>
      <trkpt lat="38.038345" lon="-1.473931">
        <ele>327.846</ele>
        <time>2017-03-18T15:10:32Z</time>
      </trkpt>
      <trkpt lat="38.038368" lon="-1.473792">
        <ele>327.856</ele>
        <time>2017-03-18T15:10:34Z</time>
      </trkpt>
      <trkpt lat="38.038393" lon="-1.473657">
        <ele>327.944</ele>
        <time>2017-03-18T15:10:36Z</time>
      </trkpt>
      <trkpt lat="38.038416" lon="-1.473518">
        <ele>327.805</ele>
        <time>2017-03-18T15:10:38Z</time>
      </trkpt>
      <trkpt lat="38.038442" lon="-1.473381">
        <ele>327.515</ele>
        <time>2017-03-18T15:10:40Z</time>
      </trkpt>
      <trkpt lat="38.038468" lon="-1.473241">
        <ele>327.708</ele>
        <time>2017-03-18T15:10:42Z</time>
      </trkpt>
      <trkpt lat="38.038495" lon="-1.473104">
        <ele>327.615</ele>
        <time>2017-03-18T15:10:44Z</time>
      </trkpt>
      <trkpt lat="38.038524" lon="-1.472968">
        <ele>327.310</ele>
        <time>2017-03-18T15:10:46Z</time>
      </trkpt>
      <trkpt lat="38.038554" lon="-1.472825">
        <ele>327.212</ele>
        <time>2017-03-18T15:10:48Z</time>
      </trkpt>
      <trkpt lat="38.038596" lon="-1.472623">
        <ele>326.927</ele>
        <time>2017-03-18T15:10:50Z</time>
      </trkpt>
      <trkpt lat="38.038620" lon="-1.472474">
        <ele>326.945</ele>
        <time>2017-03-18T15:10:52Z</time>
      </trkpt>
      <trkpt lat="38.038650" lon="-1.472329">
        <ele>327.379</ele>
        <time>2017-03-18T15:10:54Z</time>
      </trkpt>
      <trkpt lat="38.038677" lon="-1.472181">
        <ele>327.985</ele>
        <time>2017-03-18T15:10:56Z</time>
      </trkpt>
      <trkpt lat="38.038704" lon="-1.472031">
        <ele>328.645</ele>
        <time>2017-03-18T15:10:58Z</time>
      </trkpt>
      <trkpt lat="38.038734" lon="-1.471886">
        <ele>329.456</ele>
        <time>2017-03-18T15:11:00Z</time>
      </trkpt>
      <trkpt lat="38.038762" lon="-1.471747">
        <ele>329.759</ele>
        <time>2017-03-18T15:11:02Z</time>
      </trkpt>
      <trkpt lat="38.038792" lon="-1.471601">
        <ele>330.614</ele>
        <time>2017-03-18T15:11:04Z</time>
      </trkpt>
      <trkpt lat="38.038822" lon="-1.471467">
        <ele>330.708</ele>
        <time>2017-03-18T15:11:06Z</time>
      </trkpt>
      <trkpt lat="38.038850" lon="-1.471328">
        <ele>330.366</ele>
        <time>2017-03-18T15:11:08Z</time>
      </trkpt>
      <trkpt lat="38.038872" lon="-1.471201">
        <ele>329.021</ele>
        <time>2017-03-18T15:11:10Z</time>
      </trkpt>
      <trkpt lat="38.038894" lon="-1.471068">
        <ele>327.963</ele>
        <time>2017-03-18T15:11:12Z</time>
      </trkpt>
      <trkpt lat="38.038917" lon="-1.470934">
        <ele>327.378</ele>
        <time>2017-03-18T15:11:14Z</time>
      </trkpt>
      <trkpt lat="38.038941" lon="-1.470804">
        <ele>327.326</ele>
        <time>2017-03-18T15:11:16Z</time>
      </trkpt>
      <trkpt lat="38.038966" lon="-1.470666">
        <ele>327.490</ele>
        <time>2017-03-18T15:11:18Z</time>
      </trkpt>
      <trkpt lat="38.038987" lon="-1.470541">
        <ele>327.116</ele>
        <time>2017-03-18T15:11:20Z</time>
      </trkpt>
      <trkpt lat="38.039014" lon="-1.470407">
        <ele>326.986</ele>
        <time>2017-03-18T15:11:22Z</time>
      </trkpt>
      <trkpt lat="38.039043" lon="-1.470271">
        <ele>326.634</ele>
        <time>2017-03-18T15:11:24Z</time>
      </trkpt>
      <trkpt lat="38.039070" lon="-1.470132">
        <ele>326.455</ele>
        <time>2017-03-18T15:11:26Z</time>
      </trkpt>
      <trkpt lat="38.039098" lon="-1.469983">
        <ele>326.410</ele>
        <time>2017-03-18T15:11:28Z</time>
      </trkpt>
      <trkpt lat="38.039118" lon="-1.469842">
        <ele>326.108</ele>
        <time>2017-03-18T15:11:30Z</time>
      </trkpt>
      <trkpt lat="38.039138" lon="-1.469704">
        <ele>325.374</ele>
        <time>2017-03-18T15:11:32Z</time>
      </trkpt>
      <trkpt lat="38.039159" lon="-1.469562">
        <ele>324.589</ele>
        <time>2017-03-18T15:11:35Z</time>
      </trkpt>
      <trkpt lat="38.039183" lon="-1.469413">
        <ele>323.971</ele>
        <time>2017-03-18T15:11:37Z</time>
      </trkpt>
      <trkpt lat="38.039206" lon="-1.469269">
        <ele>323.356</ele>
        <time>2017-03-18T15:11:39Z</time>
      </trkpt>
      <trkpt lat="38.039232" lon="-1.469122">
        <ele>322.874</ele>
        <time>2017-03-18T15:11:41Z</time>
      </trkpt>
      <trkpt lat="38.039260" lon="-1.468976">
        <ele>322.568</ele>
        <time>2017-03-18T15:11:43Z</time>
      </trkpt>
      <trkpt lat="38.039288" lon="-1.468829">
        <ele>322.354</ele>
        <time>2017-03-18T15:11:45Z</time>
      </trkpt>
      <trkpt lat="38.039317" lon="-1.468679">
        <ele>322.394</ele>
        <time>2017-03-18T15:11:47Z</time>
      </trkpt>
      <trkpt lat="38.039344" lon="-1.468534">
        <ele>322.498</ele>
        <time>2017-03-18T15:11:49Z</time>
      </trkpt>
      <trkpt lat="38.039370" lon="-1.468388">
        <ele>322.315</ele>
        <time>2017-03-18T15:11:51Z</time>
      </trkpt>
      <trkpt lat="38.039404" lon="-1.468246">
        <ele>322.526</ele>
        <time>2017-03-18T15:11:53Z</time>
      </trkpt>
      <trkpt lat="38.039432" lon="-1.468110">
        <ele>322.408</ele>
        <time>2017-03-18T15:11:55Z</time>
      </trkpt>
      <trkpt lat="38.039473" lon="-1.467878">
        <ele>322.270</ele>
        <time>2017-03-18T15:11:57Z</time>
      </trkpt>
      <trkpt lat="38.039499" lon="-1.467728">
        <ele>321.785</ele>
        <time>2017-03-18T15:11:59Z</time>
      </trkpt>
      <trkpt lat="38.039526" lon="-1.467577">
        <ele>321.627</ele>
        <time>2017-03-18T15:12:01Z</time>
      </trkpt>
      <trkpt lat="38.039554" lon="-1.467428">
        <ele>321.782</ele>
        <time>2017-03-18T15:12:03Z</time>
      </trkpt>
      <trkpt lat="38.039583" lon="-1.467282">
        <ele>321.790</ele>
        <time>2017-03-18T15:12:05Z</time>
      </trkpt>
      <trkpt lat="38.039613" lon="-1.467141">
        <ele>321.544</ele>
        <time>2017-03-18T15:12:07Z</time>
      </trkpt>
      <trkpt lat="38.039639" lon="-1.466992">
        <ele>321.750</ele>
        <time>2017-03-18T15:12:09Z</time>
      </trkpt>
      <trkpt lat="38.039663" lon="-1.466852">
        <ele>321.470</ele>
        <time>2017-03-18T15:12:11Z</time>
      </trkpt>
      <trkpt lat="38.039688" lon="-1.466717">
        <ele>320.959</ele>
        <time>2017-03-18T15:12:13Z</time>
      </trkpt>
      <trkpt lat="38.039715" lon="-1.466579">
        <ele>320.503</ele>
        <time>2017-03-18T15:12:15Z</time>
      </trkpt>
      <trkpt lat="38.039743" lon="-1.466432">
        <ele>320.323</ele>
        <time>2017-03-18T15:12:17Z</time>
      </trkpt>
      <trkpt lat="38.039774" lon="-1.466285">
        <ele>320.308</ele>
        <time>2017-03-18T15:12:19Z</time>
      </trkpt>
      <trkpt lat="38.039804" lon="-1.466139">
        <ele>320.426</ele>
        <time>2017-03-18T15:12:21Z</time>
      </trkpt>
      <trkpt lat="38.039837" lon="-1.465989">
        <ele>320.761</ele>
        <time>2017-03-18T15:12:23Z</time>
      </trkpt>
      <trkpt lat="38.039873" lon="-1.465836">
        <ele>321.463</ele>
        <time>2017-03-18T15:12:25Z</time>
      </trkpt>
      <trkpt lat="38.039907" lon="-1.465691">
        <ele>322.728</ele>
        <time>2017-03-18T15:12:27Z</time>
      </trkpt>
      <trkpt lat="38.039942" lon="-1.465552">
        <ele>323.936</ele>
        <time>2017-03-18T15:12:29Z</time>
      </trkpt>
      <trkpt lat="38.039975" lon="-1.465398">
        <ele>325.040</ele>
        <time>2017-03-18T15:12:31Z</time>
      </trkpt>
      <trkpt lat="38.040008" lon="-1.465250">
        <ele>325.646</ele>
        <time>2017-03-18T15:12:33Z</time>
      </trkpt>
      <trkpt lat="38.040035" lon="-1.465120">
        <ele>325.766</ele>
        <time>2017-03-18T15:12:35Z</time>
      </trkpt>
      <trkpt lat="38.040065" lon="-1.464975">
        <ele>325.295</ele>
        <time>2017-03-18T15:12:37Z</time>
      </trkpt>
      <trkpt lat="38.040096" lon="-1.464823">
        <ele>325.349</ele>
        <time>2017-03-18T15:12:39Z</time>
      </trkpt>
      <trkpt lat="38.040127" lon="-1.464684">
        <ele>325.523</ele>
        <time>2017-03-18T15:12:41Z</time>
      </trkpt>
      <trkpt lat="38.040151" lon="-1.464560">
        <ele>324.108</ele>
        <time>2017-03-18T15:12:43Z</time>
      </trkpt>
      <trkpt lat="38.040180" lon="-1.464411">
        <ele>322.660</ele>
        <time>2017-03-18T15:12:45Z</time>
      </trkpt>
      <trkpt lat="38.040200" lon="-1.464254">
        <ele>321.545</ele>
        <time>2017-03-18T15:12:47Z</time>
      </trkpt>
      <trkpt lat="38.040219" lon="-1.464101">
        <ele>320.667</ele>
        <time>2017-03-18T15:12:49Z</time>
      </trkpt>
      <trkpt lat="38.040242" lon="-1.463949">
        <ele>319.252</ele>
        <time>2017-03-18T15:12:51Z</time>
      </trkpt>
      <trkpt lat="38.040269" lon="-1.463805">
        <ele>318.730</ele>
        <time>2017-03-18T15:12:53Z</time>
      </trkpt>
      <trkpt lat="38.040296" lon="-1.463652">
        <ele>318.484</ele>
        <time>2017-03-18T15:12:55Z</time>
      </trkpt>
      <trkpt lat="38.040320" lon="-1.463506">
        <ele>318.110</ele>
        <time>2017-03-18T15:12:57Z</time>
      </trkpt>
      <trkpt lat="38.040350" lon="-1.463359">
        <ele>317.930</ele>
        <time>2017-03-18T15:12:59Z</time>
      </trkpt>
      <trkpt lat="38.040385" lon="-1.463194">
        <ele>317.854</ele>
        <time>2017-03-18T15:13:01Z</time>
      </trkpt>
      <trkpt lat="38.040416" lon="-1.463035">
        <ele>317.256</ele>
        <time>2017-03-18T15:13:03Z</time>
      </trkpt>
      <trkpt lat="38.040448" lon="-1.462873">
        <ele>317.411</ele>
        <time>2017-03-18T15:13:05Z</time>
      </trkpt>
      <trkpt lat="38.040473" lon="-1.462722">
        <ele>317.308</ele>
        <time>2017-03-18T15:13:08Z</time>
      </trkpt>
      <trkpt lat="38.040501" lon="-1.462557">
        <ele>317.726</ele>
        <time>2017-03-18T15:13:10Z</time>
      </trkpt>
      <trkpt lat="38.040530" lon="-1.462396">
        <ele>318.471</ele>
        <time>2017-03-18T15:13:12Z</time>
      </trkpt>
      <trkpt lat="38.040562" lon="-1.462238">
        <ele>319.173</ele>
        <time>2017-03-18T15:13:14Z</time>
      </trkpt>
      <trkpt lat="38.040590" lon="-1.462085">
        <ele>319.268</ele>
        <time>2017-03-18T15:13:16Z</time>
      </trkpt>
      <trkpt lat="38.040617" lon="-1.461936">
        <ele>319.556</ele>
        <time>2017-03-18T15:13:18Z</time>
      </trkpt>
      <trkpt lat="38.040637" lon="-1.461800">
        <ele>319.050</ele>
        <time>2017-03-18T15:13:20Z</time>
      </trkpt>
      <trkpt lat="38.040652" lon="-1.461670">
        <ele>318.296</ele>
        <time>2017-03-18T15:13:22Z</time>
      </trkpt>
      <trkpt lat="38.040667" lon="-1.461533">
        <ele>317.396</ele>
        <time>2017-03-18T15:13:24Z</time>
      </trkpt>
      <trkpt lat="38.040697" lon="-1.461386">
        <ele>316.323</ele>
        <time>2017-03-18T15:13:26Z</time>
      </trkpt>
      <trkpt lat="38.040748" lon="-1.461146">
        <ele>315.383</ele>
        <time>2017-03-18T15:13:28Z</time>
      </trkpt>
      <trkpt lat="38.040783" lon="-1.460983">
        <ele>314.811</ele>
        <time>2017-03-18T15:13:30Z</time>
      </trkpt>
      <trkpt lat="38.040814" lon="-1.460822">
        <ele>314.508</ele>
        <time>2017-03-18T15:13:32Z</time>
      </trkpt>
      <trkpt lat="38.040845" lon="-1.460672">
        <ele>314.363</ele>
        <time>2017-03-18T15:13:34Z</time>
      </trkpt>
      <trkpt lat="38.040875" lon="-1.460526">
        <ele>315.168</ele>
        <time>2017-03-18T15:13:36Z</time>
      </trkpt>
      <trkpt lat="38.040902" lon="-1.460402">
        <ele>315.180</ele>
        <time>2017-03-18T15:13:38Z</time>
      </trkpt>
      <trkpt lat="38.040931" lon="-1.460268">
        <ele>314.975</ele>
        <time>2017-03-18T15:13:40Z</time>
      </trkpt>
      <trkpt lat="38.040964" lon="-1.460132">
        <ele>315.343</ele>
        <time>2017-03-18T15:13:42Z</time>
      </trkpt>
      <trkpt lat="38.040997" lon="-1.459997">
        <ele>315.657</ele>
        <time>2017-03-18T15:13:44Z</time>
      </trkpt>
      <trkpt lat="38.041027" lon="-1.459869">
        <ele>315.623</ele>
        <time>2017-03-18T15:13:46Z</time>
      </trkpt>
      <trkpt lat="38.041058" lon="-1.459730">
        <ele>316.173</ele>
        <time>2017-03-18T15:13:48Z</time>
      </trkpt>
      <trkpt lat="38.041091" lon="-1.459599">
        <ele>316.084</ele>
        <time>2017-03-18T15:13:50Z</time>
      </trkpt>
      <trkpt lat="38.041117" lon="-1.459466">
        <ele>316.207</ele>
        <time>2017-03-18T15:13:52Z</time>
      </trkpt>
      <trkpt lat="38.041137" lon="-1.459334">
        <ele>316.417</ele>
        <time>2017-03-18T15:13:54Z</time>
      </trkpt>
      <trkpt lat="38.041150" lon="-1.459206">
        <ele>316.508</ele>
        <time>2017-03-18T15:13:56Z</time>
      </trkpt>
      <trkpt lat="38.041161" lon="-1.459087">
        <ele>315.759</ele>
        <time>2017-03-18T15:13:58Z</time>
      </trkpt>
      <trkpt lat="38.041174" lon="-1.458958">
        <ele>314.934</ele>
        <time>2017-03-18T15:14:00Z</time>
      </trkpt>
      <trkpt lat="38.041182" lon="-1.458838">
        <ele>314.466</ele>
        <time>2017-03-18T15:14:02Z</time>
      </trkpt>
      <trkpt lat="38.041178" lon="-1.458715">
        <ele>314.451</ele>
        <time>2017-03-18T15:14:04Z</time>
      </trkpt>
      <trkpt lat="38.041171" lon="-1.458565">
        <ele>313.829</ele>
        <time>2017-03-18T15:14:06Z</time>
      </trkpt>
      <trkpt lat="38.041164" lon="-1.458435">
        <ele>313.053</ele>
        <time>2017-03-18T15:14:08Z</time>
      </trkpt>
      <trkpt lat="38.041154" lon="-1.458304">
        <ele>312.519</ele>
        <time>2017-03-18T15:14:10Z</time>
      </trkpt>
      <trkpt lat="38.041139" lon="-1.458163">
        <ele>312.639</ele>
        <time>2017-03-18T15:14:12Z</time>
      </trkpt>
      <trkpt lat="38.041109" lon="-1.457994">
        <ele>313.514</ele>
        <time>2017-03-18T15:14:15Z</time>
      </trkpt>
      <trkpt lat="38.041082" lon="-1.457850">
        <ele>314.254</ele>
        <time>2017-03-18T15:14:17Z</time>
      </trkpt>
      <trkpt lat="38.041055" lon="-1.457730">
        <ele>314.609</ele>
        <time>2017-03-18T15:14:19Z</time>
      </trkpt>
      <trkpt lat="38.041022" lon="-1.457602">
        <ele>315.308</ele>
        <time>2017-03-18T15:14:21Z</time>
      </trkpt>
      <trkpt lat="38.040991" lon="-1.457481">
        <ele>315.912</ele>
        <time>2017-03-18T15:14:24Z</time>
      </trkpt>
      <trkpt lat="38.040957" lon="-1.457350">
        <ele>317.097</ele>
        <time>2017-03-18T15:14:26Z</time>
      </trkpt>
      <trkpt lat="38.040927" lon="-1.457217">
        <ele>317.559</ele>
        <time>2017-03-18T15:14:28Z</time>
      </trkpt>
      <trkpt lat="38.040898" lon="-1.457080">
        <ele>318.264</ele>
        <time>2017-03-18T15:14:30Z</time>
      </trkpt>
      <trkpt lat="38.040872" lon="-1.456944">
        <ele>318.342</ele>
        <time>2017-03-18T15:14:32Z</time>
      </trkpt>
      <trkpt lat="38.040851" lon="-1.456814">
        <ele>318.216</ele>
        <time>2017-03-18T15:14:34Z</time>
      </trkpt>
      <trkpt lat="38.040829" lon="-1.456687">
        <ele>317.942</ele>
        <time>2017-03-18T15:14:36Z</time>
      </trkpt>
      <trkpt lat="38.040803" lon="-1.456549">
        <ele>317.782</ele>
        <time>2017-03-18T15:14:38Z</time>
      </trkpt>
      <trkpt lat="38.040776" lon="-1.456415">
        <ele>317.433</ele>
        <time>2017-03-18T15:14:40Z</time>
      </trkpt>
      <trkpt lat="38.040753" lon="-1.456269">
        <ele>317.223</ele>
        <time>2017-03-18T15:14:42Z</time>
      </trkpt>
      <trkpt lat="38.040731" lon="-1.456130">
        <ele>316.715</ele>
        <time>2017-03-18T15:14:44Z</time>
      </trkpt>
      <trkpt lat="38.040712" lon="-1.456009">
        <ele>315.808</ele>
        <time>2017-03-18T15:14:46Z</time>
      </trkpt>
      <trkpt lat="38.040695" lon="-1.455882">
        <ele>314.964</ele>
        <time>2017-03-18T15:14:48Z</time>
      </trkpt>
      <trkpt lat="38.040686" lon="-1.455751">
        <ele>314.019</ele>
        <time>2017-03-18T15:14:50Z</time>
      </trkpt>
      <trkpt lat="38.040686" lon="-1.455621">
        <ele>313.441</ele>
        <time>2017-03-18T15:14:52Z</time>
      </trkpt>
      <trkpt lat="38.040685" lon="-1.455492">
        <ele>313.056</ele>
        <time>2017-03-18T15:14:53Z</time>
      </trkpt>
      <trkpt lat="38.040692" lon="-1.455362">
        <ele>312.694</ele>
        <time>2017-03-18T15:14:55Z</time>
      </trkpt>
      <trkpt lat="38.040697" lon="-1.455240">
        <ele>312.748</ele>
        <time>2017-03-18T15:14:57Z</time>
      </trkpt>
      <trkpt lat="38.040697" lon="-1.455122">
        <ele>312.664</ele>
        <time>2017-03-18T15:14:59Z</time>
      </trkpt>
      <trkpt lat="38.040687" lon="-1.455004">
        <ele>312.574</ele>
        <time>2017-03-18T15:15:01Z</time>
      </trkpt>
      <trkpt lat="38.040676" lon="-1.454871">
        <ele>312.454</ele>
        <time>2017-03-18T15:15:03Z</time>
      </trkpt>
      <trkpt lat="38.040672" lon="-1.454744">
        <ele>312.056</ele>
        <time>2017-03-18T15:15:05Z</time>
      </trkpt>
      <trkpt lat="38.040674" lon="-1.454621">
        <ele>311.711</ele>
        <time>2017-03-18T15:15:07Z</time>
      </trkpt>
      <trkpt lat="38.040673" lon="-1.454501">
        <ele>311.708</ele>
        <time>2017-03-18T15:15:09Z</time>
      </trkpt>
      <trkpt lat="38.040643" lon="-1.454334">
        <ele>311.626</ele>
        <time>2017-03-18T15:15:12Z</time>
      </trkpt>
      <trkpt lat="38.040580" lon="-1.454229">
        <ele>312.321</ele>
        <time>2017-03-18T15:15:14Z</time>
      </trkpt>
      <trkpt lat="38.040508" lon="-1.454126">
        <ele>313.993</ele>
        <time>2017-03-18T15:15:17Z</time>
      </trkpt>
      <trkpt lat="38.040467" lon="-1.453978">
        <ele>314.958</ele>
        <time>2017-03-18T15:15:20Z</time>
      </trkpt>
      <trkpt lat="38.040455" lon="-1.453807">
        <ele>312.886</ele>
        <time>2017-03-18T15:15:23Z</time>
      </trkpt>
      <trkpt lat="38.040430" lon="-1.453654">
        <ele>312.070</ele>
        <time>2017-03-18T15:15:26Z</time>
      </trkpt>
      <trkpt lat="38.040412" lon="-1.453537">
        <ele>311.776</ele>
        <time>2017-03-18T15:15:28Z</time>
      </trkpt>
      <trkpt lat="38.040426" lon="-1.453386">
        <ele>311.186</ele>
        <time>2017-03-18T15:15:31Z</time>
      </trkpt>
      <trkpt lat="38.040456" lon="-1.453225">
        <ele>310.869</ele>
        <time>2017-03-18T15:15:34Z</time>
      </trkpt>
      <trkpt lat="38.040488" lon="-1.453074">
        <ele>311.204</ele>
        <time>2017-03-18T15:15:37Z</time>
      </trkpt>
      <trkpt lat="38.040532" lon="-1.452919">
        <ele>311.924</ele>
        <time>2017-03-18T15:15:40Z</time>
      </trkpt>
      <trkpt lat="38.040572" lon="-1.452816">
        <ele>312.608</ele>
        <time>2017-03-18T15:15:42Z</time>
      </trkpt>
      <trkpt lat="38.040616" lon="-1.452715">
        <ele>313.267</ele>
        <time>2017-03-18T15:15:44Z</time>
      </trkpt>
      <trkpt lat="38.040662" lon="-1.452608">
        <ele>314.382</ele>
        <time>2017-03-18T15:15:46Z</time>
      </trkpt>
      <trkpt lat="38.040711" lon="-1.452495">
        <ele>314.854</ele>
        <time>2017-03-18T15:15:49Z</time>
      </trkpt>
      <trkpt lat="38.040768" lon="-1.452369">
        <ele>314.939</ele>
        <time>2017-03-18T15:15:52Z</time>
      </trkpt>
      <trkpt lat="38.040832" lon="-1.452233">
        <ele>315.087</ele>
        <time>2017-03-18T15:15:55Z</time>
      </trkpt>
      <trkpt lat="38.040890" lon="-1.452117">
        <ele>314.321</ele>
        <time>2017-03-18T15:15:57Z</time>
      </trkpt>
      <trkpt lat="38.040972" lon="-1.452020">
        <ele>313.637</ele>
        <time>2017-03-18T15:16:00Z</time>
      </trkpt>
      <trkpt lat="38.041054" lon="-1.451913">
        <ele>313.527</ele>
        <time>2017-03-18T15:16:02Z</time>
      </trkpt>
      <trkpt lat="38.041129" lon="-1.451804">
        <ele>313.416</ele>
        <time>2017-03-18T15:16:04Z</time>
      </trkpt>
      <trkpt lat="38.041224" lon="-1.451684">
        <ele>312.676</ele>
        <time>2017-03-18T15:16:07Z</time>
      </trkpt>
      <trkpt lat="38.041334" lon="-1.451581">
        <ele>313.213</ele>
        <time>2017-03-18T15:16:10Z</time>
      </trkpt>
      <trkpt lat="38.041415" lon="-1.451504">
        <ele>313.808</ele>
        <time>2017-03-18T15:16:12Z</time>
      </trkpt>
      <trkpt lat="38.041502" lon="-1.451408">
        <ele>314.362</ele>
        <time>2017-03-18T15:16:14Z</time>
      </trkpt>
      <trkpt lat="38.041596" lon="-1.451304">
        <ele>314.667</ele>
        <time>2017-03-18T15:16:16Z</time>
      </trkpt>
      <trkpt lat="38.041681" lon="-1.451210">
        <ele>314.439</ele>
        <time>2017-03-18T15:16:18Z</time>
      </trkpt>
      <trkpt lat="38.041764" lon="-1.451114">
        <ele>314.044</ele>
        <time>2017-03-18T15:16:20Z</time>
      </trkpt>
      <trkpt lat="38.041853" lon="-1.451016">
        <ele>314.352</ele>
        <time>2017-03-18T15:16:22Z</time>
      </trkpt>
      <trkpt lat="38.041940" lon="-1.450921">
        <ele>314.626</ele>
        <time>2017-03-18T15:16:24Z</time>
      </trkpt>
      <trkpt lat="38.042070" lon="-1.450775">
        <ele>314.672</ele>
        <time>2017-03-18T15:16:26Z</time>
      </trkpt>
      <trkpt lat="38.042154" lon="-1.450675">
        <ele>314.312</ele>
        <time>2017-03-18T15:16:28Z</time>
      </trkpt>
      <trkpt lat="38.042240" lon="-1.450574">
        <ele>314.266</ele>
        <time>2017-03-18T15:16:30Z</time>
      </trkpt>
      <trkpt lat="38.042320" lon="-1.450479">
        <ele>313.929</ele>
        <time>2017-03-18T15:16:32Z</time>
      </trkpt>
      <trkpt lat="38.042401" lon="-1.450384">
        <ele>313.921</ele>
        <time>2017-03-18T15:16:34Z</time>
      </trkpt>
      <trkpt lat="38.042492" lon="-1.450285">
        <ele>313.908</ele>
        <time>2017-03-18T15:16:36Z</time>
      </trkpt>
      <trkpt lat="38.042574" lon="-1.450194">
        <ele>314.187</ele>
        <time>2017-03-18T15:16:38Z</time>
      </trkpt>
      <trkpt lat="38.042664" lon="-1.450098">
        <ele>314.972</ele>
        <time>2017-03-18T15:16:40Z</time>
      </trkpt>
      <trkpt lat="38.042758" lon="-1.449997">
        <ele>315.694</ele>
        <time>2017-03-18T15:16:42Z</time>
      </trkpt>
      <trkpt lat="38.042847" lon="-1.449903">
        <ele>315.829</ele>
        <time>2017-03-18T15:16:44Z</time>
      </trkpt>
      <trkpt lat="38.042946" lon="-1.449796">
        <ele>315.187</ele>
        <time>2017-03-18T15:16:46Z</time>
      </trkpt>
      <trkpt lat="38.043158" lon="-1.449491">
        <ele>313.521</ele>
        <time>2017-03-18T15:16:51Z</time>
      </trkpt>
      <trkpt lat="38.043252" lon="-1.449406">
        <ele>313.667</ele>
        <time>2017-03-18T15:16:53Z</time>
      </trkpt>
      <trkpt lat="38.043338" lon="-1.449332">
        <ele>313.497</ele>
        <time>2017-03-18T15:16:55Z</time>
      </trkpt>
      <trkpt lat="38.043421" lon="-1.449261">
        <ele>313.044</ele>
        <time>2017-03-18T15:16:57Z</time>
      </trkpt>
      <trkpt lat="38.043508" lon="-1.449176">
        <ele>312.405</ele>
        <time>2017-03-18T15:16:59Z</time>
      </trkpt>
      <trkpt lat="38.043594" lon="-1.449076">
        <ele>311.615</ele>
        <time>2017-03-18T15:17:01Z</time>
      </trkpt>
      <trkpt lat="38.043681" lon="-1.448965">
        <ele>310.908</ele>
        <time>2017-03-18T15:17:03Z</time>
      </trkpt>
      <trkpt lat="38.043757" lon="-1.448854">
        <ele>310.865</ele>
        <time>2017-03-18T15:17:05Z</time>
      </trkpt>
      <trkpt lat="38.043827" lon="-1.448734">
        <ele>310.880</ele>
        <time>2017-03-18T15:17:07Z</time>
      </trkpt>
      <trkpt lat="38.043898" lon="-1.448607">
        <ele>310.672</ele>
        <time>2017-03-18T15:17:09Z</time>
      </trkpt>
      <trkpt lat="38.043964" lon="-1.448474">
        <ele>310.587</ele>
        <time>2017-03-18T15:17:11Z</time>
      </trkpt>
      <trkpt lat="38.044021" lon="-1.448346">
        <ele>310.585</ele>
        <time>2017-03-18T15:17:13Z</time>
      </trkpt>
      <trkpt lat="38.044075" lon="-1.448223">
        <ele>310.889</ele>
        <time>2017-03-18T15:17:15Z</time>
      </trkpt>
      <trkpt lat="38.044122" lon="-1.448102">
        <ele>311.045</ele>
        <time>2017-03-18T15:17:17Z</time>
      </trkpt>
      <trkpt lat="38.044164" lon="-1.447977">
        <ele>311.045</ele>
        <time>2017-03-18T15:17:19Z</time>
      </trkpt>
      <trkpt lat="38.044201" lon="-1.447846">
        <ele>310.728</ele>
        <time>2017-03-18T15:17:21Z</time>
      </trkpt>
      <trkpt lat="38.044237" lon="-1.447714">
        <ele>310.389</ele>
        <time>2017-03-18T15:17:23Z</time>
      </trkpt>
      <trkpt lat="38.044264" lon="-1.447563">
        <ele>309.817</ele>
        <time>2017-03-18T15:17:25Z</time>
      </trkpt>
      <trkpt lat="38.044287" lon="-1.447414">
        <ele>310.008</ele>
        <time>2017-03-18T15:17:27Z</time>
      </trkpt>
      <trkpt lat="38.044307" lon="-1.447274">
        <ele>310.353</ele>
        <time>2017-03-18T15:17:29Z</time>
      </trkpt>
      <trkpt lat="38.044322" lon="-1.447128">
        <ele>310.618</ele>
        <time>2017-03-18T15:17:31Z</time>
      </trkpt>
      <trkpt lat="38.044332" lon="-1.446990">
        <ele>310.240</ele>
        <time>2017-03-18T15:17:34Z</time>
      </trkpt>
      <trkpt lat="38.044339" lon="-1.446849">
        <ele>309.625</ele>
        <time>2017-03-18T15:17:36Z</time>
      </trkpt>
      <trkpt lat="38.044341" lon="-1.446712">
        <ele>309.313</ele>
        <time>2017-03-18T15:17:38Z</time>
      </trkpt>
      <trkpt lat="38.044337" lon="-1.446584">
        <ele>308.617</ele>
        <time>2017-03-18T15:17:40Z</time>
      </trkpt>
      <trkpt lat="38.044335" lon="-1.446452">
        <ele>307.993</ele>
        <time>2017-03-18T15:17:42Z</time>
      </trkpt>
      <trkpt lat="38.044330" lon="-1.446322">
        <ele>307.513</ele>
        <time>2017-03-18T15:17:44Z</time>
      </trkpt>
      <trkpt lat="38.044324" lon="-1.446168">
        <ele>307.116</ele>
        <time>2017-03-18T15:17:46Z</time>
      </trkpt>
      <trkpt lat="38.044315" lon="-1.446028">
        <ele>306.876</ele>
        <time>2017-03-18T15:17:48Z</time>
      </trkpt>
      <trkpt lat="38.044307" lon="-1.445881">
        <ele>307.213</ele>
        <time>2017-03-18T15:17:50Z</time>
      </trkpt>
      <trkpt lat="38.044299" lon="-1.445748">
        <ele>308.008</ele>
        <time>2017-03-18T15:17:52Z</time>
      </trkpt>
      <trkpt lat="38.044286" lon="-1.445604">
        <ele>308.012</ele>
        <time>2017-03-18T15:17:54Z</time>
      </trkpt>
      <trkpt lat="38.044274" lon="-1.445475">
        <ele>307.697</ele>
        <time>2017-03-18T15:17:56Z</time>
      </trkpt>
      <trkpt lat="38.044262" lon="-1.445347">
        <ele>307.779</ele>
        <time>2017-03-18T15:17:58Z</time>
      </trkpt>
      <trkpt lat="38.044251" lon="-1.445228">
        <ele>308.434</ele>
        <time>2017-03-18T15:18:00Z</time>
      </trkpt>
      <trkpt lat="38.044244" lon="-1.445102">
        <ele>309.312</ele>
        <time>2017-03-18T15:18:01Z</time>
      </trkpt>
      <trkpt lat="38.044235" lon="-1.444976">
        <ele>310.296</ele>
        <time>2017-03-18T15:18:03Z</time>
      </trkpt>
      <trkpt lat="38.044229" lon="-1.444844">
        <ele>310.912</ele>
        <time>2017-03-18T15:18:05Z</time>
      </trkpt>
      <trkpt lat="38.044220" lon="-1.444709">
        <ele>311.272</ele>
        <time>2017-03-18T15:18:07Z</time>
      </trkpt>
      <trkpt lat="38.044213" lon="-1.444575">
        <ele>311.582</ele>
        <time>2017-03-18T15:18:09Z</time>
      </trkpt>
      <trkpt lat="38.044208" lon="-1.444453">
        <ele>311.743</ele>
        <time>2017-03-18T15:18:11Z</time>
      </trkpt>
      <trkpt lat="38.044203" lon="-1.444332">
        <ele>311.617</ele>
        <time>2017-03-18T15:18:13Z</time>
      </trkpt>
      <trkpt lat="38.044197" lon="-1.444208">
        <ele>311.808</ele>
        <time>2017-03-18T15:18:15Z</time>
      </trkpt>
      <trkpt lat="38.044188" lon="-1.444089">
        <ele>312.169</ele>
        <time>2017-03-18T15:18:17Z</time>
      </trkpt>
      <trkpt lat="38.044179" lon="-1.443953">
        <ele>312.134</ele>
        <time>2017-03-18T15:18:19Z</time>
      </trkpt>
      <trkpt lat="38.044177" lon="-1.443820">
        <ele>312.256</ele>
        <time>2017-03-18T15:18:21Z</time>
      </trkpt>
      <trkpt lat="38.044173" lon="-1.443684">
        <ele>311.651</ele>
        <time>2017-03-18T15:18:23Z</time>
      </trkpt>
      <trkpt lat="38.044167" lon="-1.443542">
        <ele>311.239</ele>
        <time>2017-03-18T15:18:25Z</time>
      </trkpt>
      <trkpt lat="38.044162" lon="-1.443405">
        <ele>310.993</ele>
        <time>2017-03-18T15:18:27Z</time>
      </trkpt>
      <trkpt lat="38.044159" lon="-1.443255">
        <ele>310.829</ele>
        <time>2017-03-18T15:18:29Z</time>
      </trkpt>
      <trkpt lat="38.044155" lon="-1.443117">
        <ele>310.689</ele>
        <time>2017-03-18T15:18:31Z</time>
      </trkpt>
      <trkpt lat="38.044152" lon="-1.442975">
        <ele>310.983</ele>
        <time>2017-03-18T15:18:33Z</time>
      </trkpt>
      <trkpt lat="38.044145" lon="-1.442840">
        <ele>311.525</ele>
        <time>2017-03-18T15:18:35Z</time>
      </trkpt>
      <trkpt lat="38.044146" lon="-1.442702">
        <ele>311.317</ele>
        <time>2017-03-18T15:18:37Z</time>
      </trkpt>
      <trkpt lat="38.044146" lon="-1.442556">
        <ele>311.008</ele>
        <time>2017-03-18T15:18:39Z</time>
      </trkpt>
      <trkpt lat="38.044142" lon="-1.442401">
        <ele>310.769</ele>
        <time>2017-03-18T15:18:41Z</time>
      </trkpt>
      <trkpt lat="38.044135" lon="-1.442260">
        <ele>310.324</ele>
        <time>2017-03-18T15:18:43Z</time>
      </trkpt>
      <trkpt lat="38.044130" lon="-1.442117">
        <ele>310.416</ele>
        <time>2017-03-18T15:18:45Z</time>
      </trkpt>
      <trkpt lat="38.044122" lon="-1.441987">
        <ele>310.141</ele>
        <time>2017-03-18T15:18:47Z</time>
      </trkpt>
      <trkpt lat="38.044113" lon="-1.441853">
        <ele>309.189</ele>
        <time>2017-03-18T15:18:49Z</time>
      </trkpt>
      <trkpt lat="38.044104" lon="-1.441714">
        <ele>307.873</ele>
        <time>2017-03-18T15:18:51Z</time>
      </trkpt>
      <trkpt lat="38.044096" lon="-1.441565">
        <ele>307.379</ele>
        <time>2017-03-18T15:18:53Z</time>
      </trkpt>
      <trkpt lat="38.044090" lon="-1.441429">
        <ele>307.279</ele>
        <time>2017-03-18T15:18:55Z</time>
      </trkpt>
      <trkpt lat="38.044083" lon="-1.441295">
        <ele>306.455</ele>
        <time>2017-03-18T15:18:57Z</time>
      </trkpt>
      <trkpt lat="38.044073" lon="-1.441157">
        <ele>305.907</ele>
        <time>2017-03-18T15:18:59Z</time>
      </trkpt>
      <trkpt lat="38.044064" lon="-1.441019">
        <ele>305.617</ele>
        <time>2017-03-18T15:19:01Z</time>
      </trkpt>
      <trkpt lat="38.044060" lon="-1.440895">
        <ele>305.308</ele>
        <time>2017-03-18T15:19:03Z</time>
      </trkpt>
      <trkpt lat="38.044053" lon="-1.440720">
        <ele>304.616</ele>
        <time>2017-03-18T15:19:06Z</time>
      </trkpt>
      <trkpt lat="38.044045" lon="-1.440589">
        <ele>304.871</ele>
        <time>2017-03-18T15:19:09Z</time>
      </trkpt>
      <trkpt lat="38.044040" lon="-1.440470">
        <ele>304.893</ele>
        <time>2017-03-18T15:19:11Z</time>
      </trkpt>
      <trkpt lat="38.044034" lon="-1.440343">
        <ele>305.448</ele>
        <time>2017-03-18T15:19:13Z</time>
      </trkpt>
      <trkpt lat="38.044030" lon="-1.440174">
        <ele>304.986</ele>
        <time>2017-03-18T15:19:16Z</time>
      </trkpt>
      <trkpt lat="38.044034" lon="-1.440048">
        <ele>305.150</ele>
        <time>2017-03-18T15:19:18Z</time>
      </trkpt>
      <trkpt lat="38.044034" lon="-1.439916">
        <ele>305.766</ele>
        <time>2017-03-18T15:19:20Z</time>
      </trkpt>
      <trkpt lat="38.044028" lon="-1.439799">
        <ele>305.986</ele>
        <time>2017-03-18T15:19:22Z</time>
      </trkpt>
      <trkpt lat="38.044023" lon="-1.439664">
        <ele>306.271</ele>
        <time>2017-03-18T15:19:24Z</time>
      </trkpt>
      <trkpt lat="38.044010" lon="-1.439489">
        <ele>305.641</ele>
        <time>2017-03-18T15:19:27Z</time>
      </trkpt>
      <trkpt lat="38.044000" lon="-1.439352">
        <ele>305.015</ele>
        <time>2017-03-18T15:19:29Z</time>
      </trkpt>
      <trkpt lat="38.043992" lon="-1.439227">
        <ele>304.708</ele>
        <time>2017-03-18T15:19:31Z</time>
      </trkpt>
      <trkpt lat="38.043974" lon="-1.438987">
        <ele>305.648</ele>
        <time>2017-03-18T15:19:34Z</time>
      </trkpt>
      <trkpt lat="38.043968" lon="-1.438762">
        <ele>305.493</ele>
        <time>2017-03-18T15:19:37Z</time>
      </trkpt>
      <trkpt lat="38.043961" lon="-1.438626">
        <ele>305.025</ele>
        <time>2017-03-18T15:19:39Z</time>
      </trkpt>
      <trkpt lat="38.043952" lon="-1.438481">
        <ele>304.270</ele>
        <time>2017-03-18T15:19:41Z</time>
      </trkpt>
      <trkpt lat="38.043943" lon="-1.438336">
        <ele>303.358</ele>
        <time>2017-03-18T15:19:43Z</time>
      </trkpt>
      <trkpt lat="38.043934" lon="-1.438190">
        <ele>302.552</ele>
        <time>2017-03-18T15:19:45Z</time>
      </trkpt>
      <trkpt lat="38.043922" lon="-1.438039">
        <ele>301.928</ele>
        <time>2017-03-18T15:19:47Z</time>
      </trkpt>
      <trkpt lat="38.043907" lon="-1.437891">
        <ele>301.988</ele>
        <time>2017-03-18T15:19:49Z</time>
      </trkpt>
      <trkpt lat="38.043894" lon="-1.437750">
        <ele>302.031</ele>
        <time>2017-03-18T15:19:51Z</time>
      </trkpt>
      <trkpt lat="38.043882" lon="-1.437609">
        <ele>301.861</ele>
        <time>2017-03-18T15:19:53Z</time>
      </trkpt>
      <trkpt lat="38.043875" lon="-1.437465">
        <ele>301.807</ele>
        <time>2017-03-18T15:19:55Z</time>
      </trkpt>
      <trkpt lat="38.043867" lon="-1.437325">
        <ele>301.608</ele>
        <time>2017-03-18T15:19:57Z</time>
      </trkpt>
      <trkpt lat="38.043858" lon="-1.437173">
        <ele>301.624</ele>
        <time>2017-03-18T15:19:59Z</time>
      </trkpt>
      <trkpt lat="38.043848" lon="-1.437024">
        <ele>301.519</ele>
        <time>2017-03-18T15:20:01Z</time>
      </trkpt>
      <trkpt lat="38.043841" lon="-1.436877">
        <ele>301.521</ele>
        <time>2017-03-18T15:20:03Z</time>
      </trkpt>
      <trkpt lat="38.043836" lon="-1.436735">
        <ele>301.256</ele>
        <time>2017-03-18T15:20:05Z</time>
      </trkpt>
      <trkpt lat="38.043830" lon="-1.436593">
        <ele>301.124</ele>
        <time>2017-03-18T15:20:07Z</time>
      </trkpt>
      <trkpt lat="38.043825" lon="-1.436456">
        <ele>301.238</ele>
        <time>2017-03-18T15:20:09Z</time>
      </trkpt>
      <trkpt lat="38.043821" lon="-1.436312">
        <ele>301.484</ele>
        <time>2017-03-18T15:20:11Z</time>
      </trkpt>
      <trkpt lat="38.043816" lon="-1.436178">
        <ele>301.124</ele>
        <time>2017-03-18T15:20:13Z</time>
      </trkpt>
      <trkpt lat="38.043811" lon="-1.436040">
        <ele>301.016</ele>
        <time>2017-03-18T15:20:15Z</time>
      </trkpt>
      <trkpt lat="38.043805" lon="-1.435895">
        <ele>301.176</ele>
        <time>2017-03-18T15:20:17Z</time>
      </trkpt>
      <trkpt lat="38.043802" lon="-1.435760">
        <ele>300.613</ele>
        <time>2017-03-18T15:20:19Z</time>
      </trkpt>
      <trkpt lat="38.043802" lon="-1.435620">
        <ele>301.008</ele>
        <time>2017-03-18T15:20:21Z</time>
      </trkpt>
      <trkpt lat="38.043799" lon="-1.435473">
        <ele>301.672</ele>
        <time>2017-03-18T15:20:23Z</time>
      </trkpt>
      <trkpt lat="38.043791" lon="-1.435329">
        <ele>302.517</ele>
        <time>2017-03-18T15:20:25Z</time>
      </trkpt>
      <trkpt lat="38.043779" lon="-1.435191">
        <ele>302.639</ele>
        <time>2017-03-18T15:20:27Z</time>
      </trkpt>
      <trkpt lat="38.043767" lon="-1.435050">
        <ele>302.544</ele>
        <time>2017-03-18T15:20:29Z</time>
      </trkpt>
      <trkpt lat="38.043754" lon="-1.434904">
        <ele>302.692</ele>
        <time>2017-03-18T15:20:31Z</time>
      </trkpt>
      <trkpt lat="38.043742" lon="-1.434765">
        <ele>302.716</ele>
        <time>2017-03-18T15:20:33Z</time>
      </trkpt>
      <trkpt lat="38.043734" lon="-1.434629">
        <ele>302.152</ele>
        <time>2017-03-18T15:20:35Z</time>
      </trkpt>
      <trkpt lat="38.043727" lon="-1.434484">
        <ele>301.852</ele>
        <time>2017-03-18T15:20:37Z</time>
      </trkpt>
      <trkpt lat="38.043719" lon="-1.434339">
        <ele>301.429</ele>
        <time>2017-03-18T15:20:39Z</time>
      </trkpt>
      <trkpt lat="38.043718" lon="-1.434194">
        <ele>301.300</ele>
        <time>2017-03-18T15:20:41Z</time>
      </trkpt>
      <trkpt lat="38.043714" lon="-1.434065">
        <ele>301.420</ele>
        <time>2017-03-18T15:20:43Z</time>
      </trkpt>
      <trkpt lat="38.043706" lon="-1.433924">
        <ele>301.608</ele>
        <time>2017-03-18T15:20:45Z</time>
      </trkpt>
      <trkpt lat="38.043700" lon="-1.433769">
        <ele>302.013</ele>
        <time>2017-03-18T15:20:47Z</time>
      </trkpt>
      <trkpt lat="38.043693" lon="-1.433639">
        <ele>302.528</ele>
        <time>2017-03-18T15:20:49Z</time>
      </trkpt>
      <trkpt lat="38.043689" lon="-1.433486">
        <ele>302.940</ele>
        <time>2017-03-18T15:20:52Z</time>
      </trkpt>
      <trkpt lat="38.043688" lon="-1.433326">
        <ele>303.075</ele>
        <time>2017-03-18T15:20:54Z</time>
      </trkpt>
      <trkpt lat="38.043685" lon="-1.433171">
        <ele>303.023</ele>
        <time>2017-03-18T15:20:56Z</time>
      </trkpt>
      <trkpt lat="38.043679" lon="-1.433020">
        <ele>303.077</ele>
        <time>2017-03-18T15:20:58Z</time>
      </trkpt>
      <trkpt lat="38.043675" lon="-1.432869">
        <ele>302.943</ele>
        <time>2017-03-18T15:21:00Z</time>
      </trkpt>
      <trkpt lat="38.043672" lon="-1.432721">
        <ele>302.953</ele>
        <time>2017-03-18T15:21:02Z</time>
      </trkpt>
      <trkpt lat="38.043670" lon="-1.432576">
        <ele>303.141</ele>
        <time>2017-03-18T15:21:04Z</time>
      </trkpt>
      <trkpt lat="38.043673" lon="-1.432424">
        <ele>303.281</ele>
        <time>2017-03-18T15:21:06Z</time>
      </trkpt>
      <trkpt lat="38.043682" lon="-1.432269">
        <ele>303.209</ele>
        <time>2017-03-18T15:21:08Z</time>
      </trkpt>
      <trkpt lat="38.043694" lon="-1.432110">
        <ele>303.008</ele>
        <time>2017-03-18T15:21:10Z</time>
      </trkpt>
      <trkpt lat="38.043708" lon="-1.431964">
        <ele>303.315</ele>
        <time>2017-03-18T15:21:12Z</time>
      </trkpt>
      <trkpt lat="38.043726" lon="-1.431806">
        <ele>303.390</ele>
        <time>2017-03-18T15:21:14Z</time>
      </trkpt>
      <trkpt lat="38.043744" lon="-1.431645">
        <ele>303.512</ele>
        <time>2017-03-18T15:21:16Z</time>
      </trkpt>
      <trkpt lat="38.043762" lon="-1.431491">
        <ele>303.397</ele>
        <time>2017-03-18T15:21:18Z</time>
      </trkpt>
      <trkpt lat="38.043781" lon="-1.431340">
        <ele>303.045</ele>
        <time>2017-03-18T15:21:20Z</time>
      </trkpt>
      <trkpt lat="38.043804" lon="-1.431190">
        <ele>302.599</ele>
        <time>2017-03-18T15:21:22Z</time>
      </trkpt>
      <trkpt lat="38.043838" lon="-1.431047">
        <ele>301.525</ele>
        <time>2017-03-18T15:21:23Z</time>
      </trkpt>
      <trkpt lat="38.043876" lon="-1.430902">
        <ele>300.745</ele>
        <time>2017-03-18T15:21:25Z</time>
      </trkpt>
      <trkpt lat="38.043916" lon="-1.430756">
        <ele>300.215</ele>
        <time>2017-03-18T15:21:27Z</time>
      </trkpt>
      <trkpt lat="38.043963" lon="-1.430596">
        <ele>300.165</ele>
        <time>2017-03-18T15:21:29Z</time>
      </trkpt>
      <trkpt lat="38.044005" lon="-1.430449">
        <ele>300.311</ele>
        <time>2017-03-18T15:21:31Z</time>
      </trkpt>
      <trkpt lat="38.044046" lon="-1.430301">
        <ele>300.808</ele>
        <time>2017-03-18T15:21:33Z</time>
      </trkpt>
      <trkpt lat="38.044087" lon="-1.430159">
        <ele>301.142</ele>
        <time>2017-03-18T15:21:35Z</time>
      </trkpt>
      <trkpt lat="38.044132" lon="-1.430015">
        <ele>301.447</ele>
        <time>2017-03-18T15:21:37Z</time>
      </trkpt>
      <trkpt lat="38.044186" lon="-1.429868">
        <ele>301.549</ele>
        <time>2017-03-18T15:21:39Z</time>
      </trkpt>
      <trkpt lat="38.044249" lon="-1.429714">
        <ele>301.184</ele>
        <time>2017-03-18T15:21:41Z</time>
      </trkpt>
      <trkpt lat="38.044311" lon="-1.429571">
        <ele>300.352</ele>
        <time>2017-03-18T15:21:43Z</time>
      </trkpt>
      <trkpt lat="38.044359" lon="-1.429459">
        <ele>300.026</ele>
        <time>2017-03-18T15:21:45Z</time>
      </trkpt>
      <trkpt lat="38.044410" lon="-1.429331">
        <ele>300.042</ele>
        <time>2017-03-18T15:21:47Z</time>
      </trkpt>
      <trkpt lat="38.044464" lon="-1.429198">
        <ele>299.822</ele>
        <time>2017-03-18T15:21:49Z</time>
      </trkpt>
      <trkpt lat="38.044522" lon="-1.429061">
        <ele>299.047</ele>
        <time>2017-03-18T15:21:51Z</time>
      </trkpt>
      <trkpt lat="38.044581" lon="-1.428934">
        <ele>297.229</ele>
        <time>2017-03-18T15:21:53Z</time>
      </trkpt>
      <trkpt lat="38.044646" lon="-1.428806">
        <ele>295.421</ele>
        <time>2017-03-18T15:21:55Z</time>
      </trkpt>
      <trkpt lat="38.044707" lon="-1.428668">
        <ele>294.108</ele>
        <time>2017-03-18T15:21:57Z</time>
      </trkpt>
      <trkpt lat="38.044766" lon="-1.428515">
        <ele>293.035</ele>
        <time>2017-03-18T15:21:59Z</time>
      </trkpt>
      <trkpt lat="38.044821" lon="-1.428366">
        <ele>292.230</ele>
        <time>2017-03-18T15:22:01Z</time>
      </trkpt>
      <trkpt lat="38.044875" lon="-1.428220">
        <ele>291.712</ele>
        <time>2017-03-18T15:22:03Z</time>
      </trkpt>
      <trkpt lat="38.044930" lon="-1.428075">
        <ele>291.277</ele>
        <time>2017-03-18T15:22:05Z</time>
      </trkpt>
      <trkpt lat="38.044975" lon="-1.427938">
        <ele>290.465</ele>
        <time>2017-03-18T15:22:07Z</time>
      </trkpt>
      <trkpt lat="38.045025" lon="-1.427793">
        <ele>290.149</ele>
        <time>2017-03-18T15:22:09Z</time>
      </trkpt>
      <trkpt lat="38.045076" lon="-1.427652">
        <ele>290.385</ele>
        <time>2017-03-18T15:22:11Z</time>
      </trkpt>
      <trkpt lat="38.045120" lon="-1.427526">
        <ele>290.425</ele>
        <time>2017-03-18T15:22:13Z</time>
      </trkpt>
      <trkpt lat="38.045164" lon="-1.427402">
        <ele>290.582</ele>
        <time>2017-03-18T15:22:15Z</time>
      </trkpt>
      <trkpt lat="38.045203" lon="-1.427289">
        <ele>290.143</ele>
        <time>2017-03-18T15:22:17Z</time>
      </trkpt>
      <trkpt lat="38.045244" lon="-1.427183">
        <ele>289.717</ele>
        <time>2017-03-18T15:22:19Z</time>
      </trkpt>
      <trkpt lat="38.045284" lon="-1.427077">
        <ele>289.508</ele>
        <time>2017-03-18T15:22:21Z</time>
      </trkpt>
      <trkpt lat="38.045338" lon="-1.426930">
        <ele>288.979</ele>
        <time>2017-03-18T15:22:24Z</time>
      </trkpt>
      <trkpt lat="38.045386" lon="-1.426792">
        <ele>288.234</ele>
        <time>2017-03-18T15:22:27Z</time>
      </trkpt>
      <trkpt lat="38.045443" lon="-1.426643">
        <ele>285.926</ele>
        <time>2017-03-18T15:22:30Z</time>
      </trkpt>
      <trkpt lat="38.045491" lon="-1.426532">
        <ele>284.171</ele>
        <time>2017-03-18T15:22:32Z</time>
      </trkpt>
      <trkpt lat="38.045537" lon="-1.426411">
        <ele>282.929</ele>
        <time>2017-03-18T15:22:35Z</time>
      </trkpt>
      <trkpt lat="38.045584" lon="-1.426302">
        <ele>282.393</ele>
        <time>2017-03-18T15:22:37Z</time>
      </trkpt>
      <trkpt lat="38.045627" lon="-1.426199">
        <ele>282.269</ele>
        <time>2017-03-18T15:22:39Z</time>
      </trkpt>
      <trkpt lat="38.045680" lon="-1.426075">
        <ele>282.599</ele>
        <time>2017-03-18T15:22:40Z</time>
      </trkpt>
      <trkpt lat="38.045756" lon="-1.425897">
        <ele>282.477</ele>
        <time>2017-03-18T15:22:43Z</time>
      </trkpt>
      <trkpt lat="38.045801" lon="-1.425792">
        <ele>282.361</ele>
        <time>2017-03-18T15:22:45Z</time>
      </trkpt>
      <trkpt lat="38.045853" lon="-1.425656">
        <ele>283.127</ele>
        <time>2017-03-18T15:22:48Z</time>
      </trkpt>
      <trkpt lat="38.045886" lon="-1.425539">
        <ele>284.008</ele>
        <time>2017-03-18T15:22:50Z</time>
      </trkpt>
      <trkpt lat="38.045919" lon="-1.425422">
        <ele>284.488</ele>
        <time>2017-03-18T15:22:52Z</time>
      </trkpt>
      <trkpt lat="38.045955" lon="-1.425301">
        <ele>285.083</ele>
        <time>2017-03-18T15:22:54Z</time>
      </trkpt>
      <trkpt lat="38.045988" lon="-1.425184">
        <ele>286.015</ele>
        <time>2017-03-18T15:22:56Z</time>
      </trkpt>
      <trkpt lat="38.046019" lon="-1.425065">
        <ele>287.150</ele>
        <time>2017-03-18T15:22:58Z</time>
      </trkpt>
      <trkpt lat="38.046048" lon="-1.424955">
        <ele>287.848</ele>
        <time>2017-03-18T15:23:00Z</time>
      </trkpt>
      <trkpt lat="38.046079" lon="-1.424842">
        <ele>288.482</ele>
        <time>2017-03-18T15:23:02Z</time>
      </trkpt>
      <trkpt lat="38.046105" lon="-1.424721">
        <ele>288.888</ele>
        <time>2017-03-18T15:23:04Z</time>
      </trkpt>
      <trkpt lat="38.046127" lon="-1.424597">
        <ele>289.278</ele>
        <time>2017-03-18T15:23:06Z</time>
      </trkpt>
      <trkpt lat="38.046147" lon="-1.424471">
        <ele>288.979</ele>
        <time>2017-03-18T15:23:08Z</time>
      </trkpt>
      <trkpt lat="38.046160" lon="-1.424356">
        <ele>288.205</ele>
        <time>2017-03-18T15:23:10Z</time>
      </trkpt>
      <trkpt lat="38.046169" lon="-1.424235">
        <ele>288.225</ele>
        <time>2017-03-18T15:23:12Z</time>
      </trkpt>
      <trkpt lat="38.046172" lon="-1.424081">
        <ele>288.908</ele>
        <time>2017-03-18T15:23:15Z</time>
      </trkpt>
      <trkpt lat="38.046173" lon="-1.423924">
        <ele>290.028</ele>
        <time>2017-03-18T15:23:18Z</time>
      </trkpt>
      <trkpt lat="38.046166" lon="-1.423799">
        <ele>290.733</ele>
        <time>2017-03-18T15:23:21Z</time>
      </trkpt>
      <trkpt lat="38.046160" lon="-1.423673">
        <ele>290.925</ele>
        <time>2017-03-18T15:23:23Z</time>
      </trkpt>
      <trkpt lat="38.046127" lon="-1.423553">
        <ele>290.860</ele>
        <time>2017-03-18T15:23:25Z</time>
      </trkpt>
      <trkpt lat="38.046046" lon="-1.423455">
        <ele>290.458</ele>
        <time>2017-03-18T15:23:28Z</time>
      </trkpt>
      <trkpt lat="38.045956" lon="-1.423336">
        <ele>289.912</ele>
        <time>2017-03-18T15:23:31Z</time>
      </trkpt>
      <trkpt lat="38.045880" lon="-1.423219">
        <ele>291.118</ele>
        <time>2017-03-18T15:23:34Z</time>
      </trkpt>
      <trkpt lat="38.045846" lon="-1.423107">
        <ele>292.748</ele>
        <time>2017-03-18T15:23:36Z</time>
      </trkpt>
      <trkpt lat="38.045826" lon="-1.422991">
        <ele>293.884</ele>
        <time>2017-03-18T15:23:38Z</time>
      </trkpt>
      <trkpt lat="38.045835" lon="-1.422845">
        <ele>294.007</ele>
        <time>2017-03-18T15:23:40Z</time>
      </trkpt>
      <trkpt lat="38.045851" lon="-1.422713">
        <ele>294.217</ele>
        <time>2017-03-18T15:23:42Z</time>
      </trkpt>
      <trkpt lat="38.045859" lon="-1.422584">
        <ele>294.808</ele>
        <time>2017-03-18T15:23:44Z</time>
      </trkpt>
      <trkpt lat="38.045859" lon="-1.422458">
        <ele>294.819</ele>
        <time>2017-03-18T15:23:46Z</time>
      </trkpt>
      <trkpt lat="38.045834" lon="-1.422323">
        <ele>294.254</ele>
        <time>2017-03-18T15:23:48Z</time>
      </trkpt>
      <trkpt lat="38.045790" lon="-1.422191">
        <ele>293.796</ele>
        <time>2017-03-18T15:23:50Z</time>
      </trkpt>
      <trkpt lat="38.045741" lon="-1.422058">
        <ele>293.341</ele>
        <time>2017-03-18T15:23:52Z</time>
      </trkpt>
      <trkpt lat="38.045693" lon="-1.421937">
        <ele>292.969</ele>
        <time>2017-03-18T15:23:54Z</time>
      </trkpt>
      <trkpt lat="38.045647" lon="-1.421822">
        <ele>292.383</ele>
        <time>2017-03-18T15:23:56Z</time>
      </trkpt>
      <trkpt lat="38.045603" lon="-1.421707">
        <ele>291.769</ele>
        <time>2017-03-18T15:23:58Z</time>
      </trkpt>
      <trkpt lat="38.045559" lon="-1.421591">
        <ele>291.479</ele>
        <time>2017-03-18T15:24:00Z</time>
      </trkpt>
      <trkpt lat="38.045518" lon="-1.421477">
        <ele>291.488</ele>
        <time>2017-03-18T15:24:02Z</time>
      </trkpt>
      <trkpt lat="38.045474" lon="-1.421362">
        <ele>291.524</ele>
        <time>2017-03-18T15:24:04Z</time>
      </trkpt>
      <trkpt lat="38.045409" lon="-1.421186">
        <ele>291.226</ele>
        <time>2017-03-18T15:24:06Z</time>
      </trkpt>
      <trkpt lat="38.045363" lon="-1.421062">
        <ele>290.708</ele>
        <time>2017-03-18T15:24:08Z</time>
      </trkpt>
      <trkpt lat="38.045307" lon="-1.420928">
        <ele>289.829</ele>
        <time>2017-03-18T15:24:10Z</time>
      </trkpt>
      <trkpt lat="38.045243" lon="-1.420761">
        <ele>288.854</ele>
        <time>2017-03-18T15:24:13Z</time>
      </trkpt>
      <trkpt lat="38.045188" lon="-1.420613">
        <ele>288.446</ele>
        <time>2017-03-18T15:24:15Z</time>
      </trkpt>
      <trkpt lat="38.045142" lon="-1.420501">
        <ele>288.271</ele>
        <time>2017-03-18T15:24:17Z</time>
      </trkpt>
      <trkpt lat="38.045099" lon="-1.420398">
        <ele>287.959</ele>
        <time>2017-03-18T15:24:19Z</time>
      </trkpt>
      <trkpt lat="38.045057" lon="-1.420294">
        <ele>287.923</ele>
        <time>2017-03-18T15:24:21Z</time>
      </trkpt>
      <trkpt lat="38.045008" lon="-1.420166">
        <ele>287.799</ele>
        <time>2017-03-18T15:24:24Z</time>
      </trkpt>
      <trkpt lat="38.044969" lon="-1.420036">
        <ele>287.959</ele>
        <time>2017-03-18T15:24:28Z</time>
      </trkpt>
      <trkpt lat="38.044924" lon="-1.419887">
        <ele>288.147</ele>
        <time>2017-03-18T15:24:31Z</time>
      </trkpt>
      <trkpt lat="38.044869" lon="-1.419730">
        <ele>287.829</ele>
        <time>2017-03-18T15:24:34Z</time>
      </trkpt>
      <trkpt lat="38.044826" lon="-1.419607">
        <ele>287.821</ele>
        <time>2017-03-18T15:24:36Z</time>
      </trkpt>
      <trkpt lat="38.044791" lon="-1.419499">
        <ele>287.108</ele>
        <time>2017-03-18T15:24:38Z</time>
      </trkpt>
      <trkpt lat="38.044755" lon="-1.419374">
        <ele>287.375</ele>
        <time>2017-03-18T15:24:40Z</time>
      </trkpt>
      <trkpt lat="38.044721" lon="-1.419260">
        <ele>287.860</ele>
        <time>2017-03-18T15:24:42Z</time>
      </trkpt>
      <trkpt lat="38.044686" lon="-1.419141">
        <ele>288.332</ele>
        <time>2017-03-18T15:24:44Z</time>
      </trkpt>
      <trkpt lat="38.044645" lon="-1.419021">
        <ele>288.457</ele>
        <time>2017-03-18T15:24:46Z</time>
      </trkpt>
      <trkpt lat="38.044606" lon="-1.418905">
        <ele>288.195</ele>
        <time>2017-03-18T15:24:48Z</time>
      </trkpt>
      <trkpt lat="38.044567" lon="-1.418797">
        <ele>287.669</ele>
        <time>2017-03-18T15:24:50Z</time>
      </trkpt>
      <trkpt lat="38.044525" lon="-1.418676">
        <ele>287.525</ele>
        <time>2017-03-18T15:24:52Z</time>
      </trkpt>
      <trkpt lat="38.044488" lon="-1.418562">
        <ele>287.555</ele>
        <time>2017-03-18T15:24:54Z</time>
      </trkpt>
      <trkpt lat="38.044450" lon="-1.418441">
        <ele>287.791</ele>
        <time>2017-03-18T15:24:56Z</time>
      </trkpt>
      <trkpt lat="38.044406" lon="-1.418312">
        <ele>287.981</ele>
        <time>2017-03-18T15:24:58Z</time>
      </trkpt>
      <trkpt lat="38.044372" lon="-1.418199">
        <ele>288.419</ele>
        <time>2017-03-18T15:25:00Z</time>
      </trkpt>
      <trkpt lat="38.044332" lon="-1.418075">
        <ele>288.708</ele>
        <time>2017-03-18T15:25:02Z</time>
      </trkpt>
      <trkpt lat="38.044301" lon="-1.417963">
        <ele>289.370</ele>
        <time>2017-03-18T15:25:04Z</time>
      </trkpt>
      <trkpt lat="38.044265" lon="-1.417846">
        <ele>289.715</ele>
        <time>2017-03-18T15:25:06Z</time>
      </trkpt>
      <trkpt lat="38.044224" lon="-1.417717">
        <ele>289.857</ele>
        <time>2017-03-18T15:25:08Z</time>
      </trkpt>
      <trkpt lat="38.044181" lon="-1.417597">
        <ele>289.932</ele>
        <time>2017-03-18T15:25:10Z</time>
      </trkpt>
      <trkpt lat="38.044126" lon="-1.417435">
        <ele>290.170</ele>
        <time>2017-03-18T15:25:13Z</time>
      </trkpt>
      <trkpt lat="38.044084" lon="-1.417322">
        <ele>290.194</ele>
        <time>2017-03-18T15:25:15Z</time>
      </trkpt>
      <trkpt lat="38.044044" lon="-1.417217">
        <ele>290.080</ele>
        <time>2017-03-18T15:25:17Z</time>
      </trkpt>
      <trkpt lat="38.043998" lon="-1.417093">
        <ele>290.360</ele>
        <time>2017-03-18T15:25:20Z</time>
      </trkpt>
      <trkpt lat="38.043941" lon="-1.416898">
        <ele>291.785</ele>
        <time>2017-03-18T15:25:23Z</time>
      </trkpt>
      <trkpt lat="38.043898" lon="-1.416757">
        <ele>291.889</ele>
        <time>2017-03-18T15:25:26Z</time>
      </trkpt>
      <trkpt lat="38.043865" lon="-1.416647">
        <ele>291.417</ele>
        <time>2017-03-18T15:25:28Z</time>
      </trkpt>
      <trkpt lat="38.043823" lon="-1.416501">
        <ele>290.608</ele>
        <time>2017-03-18T15:25:30Z</time>
      </trkpt>
      <trkpt lat="38.043781" lon="-1.416370">
        <ele>289.399</ele>
        <time>2017-03-18T15:25:32Z</time>
      </trkpt>
      <trkpt lat="38.043743" lon="-1.416246">
        <ele>288.144</ele>
        <time>2017-03-18T15:25:34Z</time>
      </trkpt>
      <trkpt lat="38.043705" lon="-1.416117">
        <ele>287.476</ele>
        <time>2017-03-18T15:25:36Z</time>
      </trkpt>
      <trkpt lat="38.043668" lon="-1.415986">
        <ele>286.681</ele>
        <time>2017-03-18T15:25:38Z</time>
      </trkpt>
      <trkpt lat="38.043633" lon="-1.415860">
        <ele>286.139</ele>
        <time>2017-03-18T15:25:40Z</time>
      </trkpt>
      <trkpt lat="38.043599" lon="-1.415740">
        <ele>285.553</ele>
        <time>2017-03-18T15:25:42Z</time>
      </trkpt>
      <trkpt lat="38.043560" lon="-1.415612">
        <ele>284.529</ele>
        <time>2017-03-18T15:25:44Z</time>
      </trkpt>
      <trkpt lat="38.043517" lon="-1.415476">
        <ele>283.439</ele>
        <time>2017-03-18T15:25:46Z</time>
      </trkpt>
      <trkpt lat="38.043482" lon="-1.415342">
        <ele>282.683</ele>
        <time>2017-03-18T15:25:48Z</time>
      </trkpt>
      <trkpt lat="38.043450" lon="-1.415202">
        <ele>282.525</ele>
        <time>2017-03-18T15:25:50Z</time>
      </trkpt>
      <trkpt lat="38.043418" lon="-1.415074">
        <ele>282.517</ele>
        <time>2017-03-18T15:25:52Z</time>
      </trkpt>
      <trkpt lat="38.043385" lon="-1.414935">
        <ele>282.308</ele>
        <time>2017-03-18T15:25:55Z</time>
      </trkpt>
      <trkpt lat="38.043352" lon="-1.414801">
        <ele>282.239</ele>
        <time>2017-03-18T15:25:57Z</time>
      </trkpt>
      <trkpt lat="38.043318" lon="-1.414658">
        <ele>281.984</ele>
        <time>2017-03-18T15:25:59Z</time>
      </trkpt>
      <trkpt lat="38.043283" lon="-1.414505">
        <ele>281.626</ele>
        <time>2017-03-18T15:26:01Z</time>
      </trkpt>
      <trkpt lat="38.043256" lon="-1.414379">
        <ele>281.391</ele>
        <time>2017-03-18T15:26:03Z</time>
      </trkpt>
      <trkpt lat="38.043227" lon="-1.414240">
        <ele>281.119</ele>
        <time>2017-03-18T15:26:05Z</time>
      </trkpt>
      <trkpt lat="38.043196" lon="-1.414107">
        <ele>281.013</ele>
        <time>2017-03-18T15:26:07Z</time>
      </trkpt>
      <trkpt lat="38.043160" lon="-1.413951">
        <ele>281.019</ele>
        <time>2017-03-18T15:26:09Z</time>
      </trkpt>
      <trkpt lat="38.043122" lon="-1.413806">
        <ele>280.429</ele>
        <time>2017-03-18T15:26:11Z</time>
      </trkpt>
      <trkpt lat="38.043085" lon="-1.413662">
        <ele>280.015</ele>
        <time>2017-03-18T15:26:13Z</time>
      </trkpt>
      <trkpt lat="38.043050" lon="-1.413522">
        <ele>279.965</ele>
        <time>2017-03-18T15:26:15Z</time>
      </trkpt>
      <trkpt lat="38.043014" lon="-1.413388">
        <ele>280.011</ele>
        <time>2017-03-18T15:26:17Z</time>
      </trkpt>
      <trkpt lat="38.042986" lon="-1.413268">
        <ele>279.708</ele>
        <time>2017-03-18T15:26:19Z</time>
      </trkpt>
      <trkpt lat="38.042957" lon="-1.413143">
        <ele>279.352</ele>
        <time>2017-03-18T15:26:21Z</time>
      </trkpt>
      <trkpt lat="38.042926" lon="-1.413007">
        <ele>279.777</ele>
        <time>2017-03-18T15:26:23Z</time>
      </trkpt>
      <trkpt lat="38.042899" lon="-1.412893">
        <ele>279.489</ele>
        <time>2017-03-18T15:26:25Z</time>
      </trkpt>
      <trkpt lat="38.042868" lon="-1.412769">
        <ele>279.164</ele>
        <time>2017-03-18T15:26:27Z</time>
      </trkpt>
      <trkpt lat="38.042840" lon="-1.412655">
        <ele>278.582</ele>
        <time>2017-03-18T15:26:29Z</time>
      </trkpt>
      <trkpt lat="38.042806" lon="-1.412498">
        <ele>278.316</ele>
        <time>2017-03-18T15:26:32Z</time>
      </trkpt>
      <trkpt lat="38.042777" lon="-1.412355">
        <ele>278.542</ele>
        <time>2017-03-18T15:26:35Z</time>
      </trkpt>
      <trkpt lat="38.042747" lon="-1.412221">
        <ele>278.522</ele>
        <time>2017-03-18T15:26:38Z</time>
      </trkpt>
      <trkpt lat="38.042710" lon="-1.412080">
        <ele>278.576</ele>
        <time>2017-03-18T15:26:41Z</time>
      </trkpt>
      <trkpt lat="38.042672" lon="-1.411923">
        <ele>278.590</ele>
        <time>2017-03-18T15:26:44Z</time>
      </trkpt>
      <trkpt lat="38.042645" lon="-1.411809">
        <ele>278.619</ele>
        <time>2017-03-18T15:26:46Z</time>
      </trkpt>
      <trkpt lat="38.042613" lon="-1.411697">
        <ele>278.308</ele>
        <time>2017-03-18T15:26:48Z</time>
      </trkpt>
      <trkpt lat="38.042560" lon="-1.411533">
        <ele>278.248</ele>
        <time>2017-03-18T15:26:50Z</time>
      </trkpt>
      <trkpt lat="38.042521" lon="-1.411427">
        <ele>279.123</ele>
        <time>2017-03-18T15:26:52Z</time>
      </trkpt>
      <trkpt lat="38.042482" lon="-1.411324">
        <ele>279.495</ele>
        <time>2017-03-18T15:26:54Z</time>
      </trkpt>
      <trkpt lat="38.042438" lon="-1.411215">
        <ele>279.280</ele>
        <time>2017-03-18T15:26:56Z</time>
      </trkpt>
      <trkpt lat="38.042376" lon="-1.411076">
        <ele>278.898</ele>
        <time>2017-03-18T15:26:59Z</time>
      </trkpt>
      <trkpt lat="38.042324" lon="-1.410978">
        <ele>278.372</ele>
        <time>2017-03-18T15:27:01Z</time>
      </trkpt>
      <trkpt lat="38.042270" lon="-1.410875">
        <ele>278.048</ele>
        <time>2017-03-18T15:27:03Z</time>
      </trkpt>
      <trkpt lat="38.042215" lon="-1.410782">
        <ele>277.828</ele>
        <time>2017-03-18T15:27:05Z</time>
      </trkpt>
      <trkpt lat="38.042154" lon="-1.410695">
        <ele>277.914</ele>
        <time>2017-03-18T15:27:07Z</time>
      </trkpt>
      <trkpt lat="38.042084" lon="-1.410607">
        <ele>277.354</ele>
        <time>2017-03-18T15:27:10Z</time>
      </trkpt>
      <trkpt lat="38.042006" lon="-1.410532">
        <ele>278.509</ele>
        <time>2017-03-18T15:27:13Z</time>
      </trkpt>
      <trkpt lat="38.041908" lon="-1.410437">
        <ele>280.308</ele>
        <time>2017-03-18T15:27:16Z</time>
      </trkpt>
      <trkpt lat="38.041821" lon="-1.410356">
        <ele>281.832</ele>
        <time>2017-03-18T15:27:19Z</time>
      </trkpt>
      <trkpt lat="38.041717" lon="-1.410270">
        <ele>282.997</ele>
        <time>2017-03-18T15:27:22Z</time>
      </trkpt>
      <trkpt lat="38.041617" lon="-1.410188">
        <ele>283.289</ele>
        <time>2017-03-18T15:27:25Z</time>
      </trkpt>
      <trkpt lat="38.041516" lon="-1.410100">
        <ele>283.064</ele>
        <time>2017-03-18T15:27:28Z</time>
      </trkpt>
      <trkpt lat="38.041422" lon="-1.410022">
        <ele>282.792</ele>
        <time>2017-03-18T15:27:31Z</time>
      </trkpt>
      <trkpt lat="38.041323" lon="-1.409934">
        <ele>281.966</ele>
        <time>2017-03-18T15:27:35Z</time>
      </trkpt>
      <trkpt lat="38.041222" lon="-1.409843">
        <ele>281.392</ele>
        <time>2017-03-18T15:27:38Z</time>
      </trkpt>
      <trkpt lat="38.041112" lon="-1.409745">
        <ele>280.992</ele>
        <time>2017-03-18T15:27:41Z</time>
      </trkpt>
      <trkpt lat="38.041007" lon="-1.409644">
        <ele>280.539</ele>
        <time>2017-03-18T15:27:44Z</time>
      </trkpt>
      <trkpt lat="38.040899" lon="-1.409553">
        <ele>279.801</ele>
        <time>2017-03-18T15:27:47Z</time>
      </trkpt>
      <trkpt lat="38.040786" lon="-1.409465">
        <ele>279.421</ele>
        <time>2017-03-18T15:27:50Z</time>
      </trkpt>
      <trkpt lat="38.040682" lon="-1.409383">
        <ele>279.508</ele>
        <time>2017-03-18T15:27:53Z</time>
      </trkpt>
      <trkpt lat="38.040584" lon="-1.409297">
        <ele>279.924</ele>
        <time>2017-03-18T15:27:56Z</time>
      </trkpt>
      <trkpt lat="38.040500" lon="-1.409218">
        <ele>281.479</ele>
        <time>2017-03-18T15:27:59Z</time>
      </trkpt>
      <trkpt lat="38.040399" lon="-1.409132">
        <ele>282.511</ele>
        <time>2017-03-18T15:28:02Z</time>
      </trkpt>
      <trkpt lat="38.040305" lon="-1.409042">
        <ele>283.286</ele>
        <time>2017-03-18T15:28:05Z</time>
      </trkpt>
      <trkpt lat="38.040198" lon="-1.408960">
        <ele>284.154</ele>
        <time>2017-03-18T15:28:08Z</time>
      </trkpt>
      <trkpt lat="38.040098" lon="-1.408866">
        <ele>284.158</ele>
        <time>2017-03-18T15:28:11Z</time>
      </trkpt>
      <trkpt lat="38.039996" lon="-1.408778">
        <ele>284.124</ele>
        <time>2017-03-18T15:28:14Z</time>
      </trkpt>
      <trkpt lat="38.039890" lon="-1.408690">
        <ele>284.344</ele>
        <time>2017-03-18T15:28:17Z</time>
      </trkpt>
      <trkpt lat="38.039784" lon="-1.408592">
        <ele>284.482</ele>
        <time>2017-03-18T15:28:19Z</time>
      </trkpt>
      <trkpt lat="38.039670" lon="-1.408498">
        <ele>284.243</ele>
        <time>2017-03-18T15:28:22Z</time>
      </trkpt>
      <trkpt lat="38.039592" lon="-1.408434">
        <ele>283.917</ele>
        <time>2017-03-18T15:28:24Z</time>
      </trkpt>
      <trkpt lat="38.039513" lon="-1.408369">
        <ele>283.708</ele>
        <time>2017-03-18T15:28:26Z</time>
      </trkpt>
      <trkpt lat="38.039435" lon="-1.408301">
        <ele>283.969</ele>
        <time>2017-03-18T15:28:28Z</time>
      </trkpt>
      <trkpt lat="38.039346" lon="-1.408226">
        <ele>284.564</ele>
        <time>2017-03-18T15:28:30Z</time>
      </trkpt>
      <trkpt lat="38.039261" lon="-1.408150">
        <ele>285.756</ele>
        <time>2017-03-18T15:28:32Z</time>
      </trkpt>
      <trkpt lat="38.039185" lon="-1.408077">
        <ele>286.611</ele>
        <time>2017-03-18T15:28:34Z</time>
      </trkpt>
      <trkpt lat="38.039103" lon="-1.408004">
        <ele>287.029</ele>
        <time>2017-03-18T15:28:36Z</time>
      </trkpt>
      <trkpt lat="38.039020" lon="-1.407928">
        <ele>287.453</ele>
        <time>2017-03-18T15:28:38Z</time>
      </trkpt>
      <trkpt lat="38.038944" lon="-1.407859">
        <ele>287.539</ele>
        <time>2017-03-18T15:28:40Z</time>
      </trkpt>
      <trkpt lat="38.038870" lon="-1.407789">
        <ele>287.479</ele>
        <time>2017-03-18T15:28:42Z</time>
      </trkpt>
      <trkpt lat="38.038773" lon="-1.407705">
        <ele>286.988</ele>
        <time>2017-03-18T15:28:45Z</time>
      </trkpt>
      <trkpt lat="38.038680" lon="-1.407638">
        <ele>286.624</ele>
        <time>2017-03-18T15:28:48Z</time>
      </trkpt>
      <trkpt lat="38.038586" lon="-1.407567">
        <ele>286.626</ele>
        <time>2017-03-18T15:28:51Z</time>
      </trkpt>
      <trkpt lat="38.038492" lon="-1.407487">
        <ele>286.408</ele>
        <time>2017-03-18T15:28:54Z</time>
      </trkpt>
      <trkpt lat="38.038395" lon="-1.407400">
        <ele>286.629</ele>
        <time>2017-03-18T15:28:57Z</time>
      </trkpt>
      <trkpt lat="38.038300" lon="-1.407318">
        <ele>286.434</ele>
        <time>2017-03-18T15:29:01Z</time>
      </trkpt>
      <trkpt lat="38.038208" lon="-1.407238">
        <ele>286.256</ele>
        <time>2017-03-18T15:29:04Z</time>
      </trkpt>
      <trkpt lat="38.038110" lon="-1.407144">
        <ele>286.641</ele>
        <time>2017-03-18T15:29:07Z</time>
      </trkpt>
      <trkpt lat="38.038011" lon="-1.407048">
        <ele>286.969</ele>
        <time>2017-03-18T15:29:10Z</time>
      </trkpt>
      <trkpt lat="38.037906" lon="-1.406951">
        <ele>286.693</ele>
        <time>2017-03-18T15:29:13Z</time>
      </trkpt>
      <trkpt lat="38.037801" lon="-1.406848">
        <ele>286.449</ele>
        <time>2017-03-18T15:29:16Z</time>
      </trkpt>
      <trkpt lat="38.037705" lon="-1.406734">
        <ele>285.929</ele>
        <time>2017-03-18T15:29:19Z</time>
      </trkpt>
      <trkpt lat="38.037626" lon="-1.406621">
        <ele>285.994</ele>
        <time>2017-03-18T15:29:22Z</time>
      </trkpt>
      <trkpt lat="38.037551" lon="-1.406520">
        <ele>286.057</ele>
        <time>2017-03-18T15:29:26Z</time>
      </trkpt>
      <trkpt lat="38.037467" lon="-1.406424">
        <ele>285.522</ele>
        <time>2017-03-18T15:31:01Z</time>
      </trkpt>
      <trkpt lat="38.037412" lon="-1.406329">
        <ele>285.408</ele>
        <time>2017-03-18T15:31:04Z</time>
      </trkpt>
      <trkpt lat="38.037332" lon="-1.406218">
        <ele>284.940</ele>
        <time>2017-03-18T15:31:07Z</time>
      </trkpt>
      <trkpt lat="38.037264" lon="-1.406099">
        <ele>284.855</ele>
        <time>2017-03-18T15:31:11Z</time>
      </trkpt>
      <trkpt lat="38.037221" lon="-1.405996">
        <ele>285.177</ele>
        <time>2017-03-18T15:31:14Z</time>
      </trkpt>
      <trkpt lat="38.037166" lon="-1.405891">
        <ele>285.452</ele>
        <time>2017-03-18T15:31:18Z</time>
      </trkpt>
      <trkpt lat="38.037110" lon="-1.405786">
        <ele>285.760</ele>
        <time>2017-03-18T15:31:22Z</time>
      </trkpt>
      <trkpt lat="38.037056" lon="-1.405683">
        <ele>285.884</ele>
        <time>2017-03-18T15:31:25Z</time>
      </trkpt>
      <trkpt lat="38.036992" lon="-1.405577">
        <ele>286.020</ele>
        <time>2017-03-18T15:31:28Z</time>
      </trkpt>
      <trkpt lat="38.036931" lon="-1.405478">
        <ele>286.290</ele>
        <time>2017-03-18T15:31:31Z</time>
      </trkpt>
      <trkpt lat="38.036851" lon="-1.405356">
        <ele>286.417</ele>
        <time>2017-03-18T15:31:35Z</time>
      </trkpt>
      <trkpt lat="38.036774" lon="-1.405237">
        <ele>284.887</ele>
        <time>2017-03-18T15:31:38Z</time>
      </trkpt>
      <trkpt lat="38.036703" lon="-1.405128">
        <ele>284.415</ele>
        <time>2017-03-18T15:31:41Z</time>
      </trkpt>
      <trkpt lat="38.036638" lon="-1.405014">
        <ele>284.308</ele>
        <time>2017-03-18T15:31:45Z</time>
      </trkpt>
      <trkpt lat="38.036580" lon="-1.404914">
        <ele>284.262</ele>
        <time>2017-03-18T15:31:48Z</time>
      </trkpt>
      <trkpt lat="38.036521" lon="-1.404809">
        <ele>284.267</ele>
        <time>2017-03-18T15:31:51Z</time>
      </trkpt>
      <trkpt lat="38.036461" lon="-1.404707">
        <ele>284.159</ele>
        <time>2017-03-18T15:31:54Z</time>
      </trkpt>
      <trkpt lat="38.036391" lon="-1.404575">
        <ele>282.844</ele>
        <time>2017-03-18T15:31:57Z</time>
      </trkpt>
      <trkpt lat="38.036320" lon="-1.404445">
        <ele>281.662</ele>
        <time>2017-03-18T15:32:00Z</time>
      </trkpt>
      <trkpt lat="38.036253" lon="-1.404328">
        <ele>281.236</ele>
        <time>2017-03-18T15:32:03Z</time>
      </trkpt>
      <trkpt lat="38.036184" lon="-1.404224">
        <ele>281.292</ele>
        <time>2017-03-18T15:32:06Z</time>
      </trkpt>
      <trkpt lat="38.036116" lon="-1.404117">
        <ele>281.742</ele>
        <time>2017-03-18T15:32:09Z</time>
      </trkpt>
      <trkpt lat="38.036039" lon="-1.403997">
        <ele>282.615</ele>
        <time>2017-03-18T15:32:12Z</time>
      </trkpt>
      <trkpt lat="38.035958" lon="-1.403876">
        <ele>283.165</ele>
        <time>2017-03-18T15:32:15Z</time>
      </trkpt>
      <trkpt lat="38.035891" lon="-1.403758">
        <ele>283.511</ele>
        <time>2017-03-18T15:32:18Z</time>
      </trkpt>
      <trkpt lat="38.035819" lon="-1.403632">
        <ele>283.408</ele>
        <time>2017-03-18T15:32:21Z</time>
      </trkpt>
      <trkpt lat="38.035740" lon="-1.403508">
        <ele>284.092</ele>
        <time>2017-03-18T15:32:24Z</time>
      </trkpt>
      <trkpt lat="38.035674" lon="-1.403388">
        <ele>285.147</ele>
        <time>2017-03-18T15:32:27Z</time>
      </trkpt>
      <trkpt lat="38.035615" lon="-1.403252">
        <ele>286.129</ele>
        <time>2017-03-18T15:32:30Z</time>
      </trkpt>
      <trkpt lat="38.035532" lon="-1.403058">
        <ele>286.764</ele>
        <time>2017-03-18T15:32:33Z</time>
      </trkpt>
      <trkpt lat="38.035461" lon="-1.402916">
        <ele>286.892</ele>
        <time>2017-03-18T15:32:36Z</time>
      </trkpt>
      <trkpt lat="38.035391" lon="-1.402776">
        <ele>286.566</ele>
        <time>2017-03-18T15:32:39Z</time>
      </trkpt>
      <trkpt lat="38.035342" lon="-1.402626">
        <ele>285.562</ele>
        <time>2017-03-18T15:32:42Z</time>
      </trkpt>
      <trkpt lat="38.035297" lon="-1.402502">
        <ele>285.542</ele>
        <time>2017-03-18T15:32:45Z</time>
      </trkpt>
      <trkpt lat="38.035263" lon="-1.402365">
        <ele>285.626</ele>
        <time>2017-03-18T15:32:48Z</time>
      </trkpt>
      <trkpt lat="38.035219" lon="-1.402206">
        <ele>285.547</ele>
        <time>2017-03-18T15:32:51Z</time>
      </trkpt>
      <trkpt lat="38.035189" lon="-1.402085">
        <ele>284.611</ele>
        <time>2017-03-18T15:32:53Z</time>
      </trkpt>
      <trkpt lat="38.035146" lon="-1.401922">
        <ele>283.708</ele>
        <time>2017-03-18T15:32:56Z</time>
      </trkpt>
      <trkpt lat="38.035113" lon="-1.401762">
        <ele>283.023</ele>
        <time>2017-03-18T15:32:59Z</time>
      </trkpt>
      <trkpt lat="38.035077" lon="-1.401622">
        <ele>283.088</ele>
        <time>2017-03-18T15:33:02Z</time>
      </trkpt>
      <trkpt lat="38.035037" lon="-1.401466">
        <ele>282.780</ele>
        <time>2017-03-18T15:33:06Z</time>
      </trkpt>
      <trkpt lat="38.035009" lon="-1.401321">
        <ele>282.335</ele>
        <time>2017-03-18T15:33:08Z</time>
      </trkpt>
      <trkpt lat="38.034978" lon="-1.401173">
        <ele>282.033</ele>
        <time>2017-03-18T15:33:10Z</time>
      </trkpt>
      <trkpt lat="38.034946" lon="-1.401006">
        <ele>281.677</ele>
        <time>2017-03-18T15:33:12Z</time>
      </trkpt>
      <trkpt lat="38.034915" lon="-1.400845">
        <ele>281.033</ele>
        <time>2017-03-18T15:33:14Z</time>
      </trkpt>
      <trkpt lat="38.034883" lon="-1.400691">
        <ele>280.563</ele>
        <time>2017-03-18T15:33:16Z</time>
      </trkpt>
      <trkpt lat="38.034847" lon="-1.400536">
        <ele>279.849</ele>
        <time>2017-03-18T15:33:18Z</time>
      </trkpt>
      <trkpt lat="38.034807" lon="-1.400389">
        <ele>279.002</ele>
        <time>2017-03-18T15:33:20Z</time>
      </trkpt>
      <trkpt lat="38.034776" lon="-1.400258">
        <ele>277.922</ele>
        <time>2017-03-18T15:33:22Z</time>
      </trkpt>
      <trkpt lat="38.034742" lon="-1.400123">
        <ele>276.708</ele>
        <time>2017-03-18T15:33:24Z</time>
      </trkpt>
      <trkpt lat="38.034714" lon="-1.400005">
        <ele>275.995</ele>
        <time>2017-03-18T15:33:26Z</time>
      </trkpt>
      <trkpt lat="38.034688" lon="-1.399882">
        <ele>275.320</ele>
        <time>2017-03-18T15:33:28Z</time>
      </trkpt>
      <trkpt lat="38.034658" lon="-1.399752">
        <ele>275.292</ele>
        <time>2017-03-18T15:33:30Z</time>
      </trkpt>
      <trkpt lat="38.034626" lon="-1.399616">
        <ele>275.757</ele>
        <time>2017-03-18T15:33:32Z</time>
      </trkpt>
      <trkpt lat="38.034596" lon="-1.399487">
        <ele>275.155</ele>
        <time>2017-03-18T15:33:34Z</time>
      </trkpt>
      <trkpt lat="38.034565" lon="-1.399348">
        <ele>274.699</ele>
        <time>2017-03-18T15:33:36Z</time>
      </trkpt>
      <trkpt lat="38.034540" lon="-1.399223">
        <ele>274.035</ele>
        <time>2017-03-18T15:33:38Z</time>
      </trkpt>
      <trkpt lat="38.034508" lon="-1.399081">
        <ele>273.585</ele>
        <time>2017-03-18T15:33:40Z</time>
      </trkpt>
      <trkpt lat="38.034478" lon="-1.398938">
        <ele>272.773</ele>
        <time>2017-03-18T15:33:42Z</time>
      </trkpt>
      <trkpt lat="38.034453" lon="-1.398805">
        <ele>272.385</ele>
        <time>2017-03-18T15:33:44Z</time>
      </trkpt>
      <trkpt lat="38.034415" lon="-1.398647">
        <ele>273.313</ele>
        <time>2017-03-18T15:33:47Z</time>
      </trkpt>
      <trkpt lat="38.034387" lon="-1.398524">
        <ele>274.208</ele>
        <time>2017-03-18T15:33:49Z</time>
      </trkpt>
      <trkpt lat="38.034360" lon="-1.398394">
        <ele>274.768</ele>
        <time>2017-03-18T15:33:51Z</time>
      </trkpt>
      <trkpt lat="38.034332" lon="-1.398268">
        <ele>274.913</ele>
        <time>2017-03-18T15:33:52Z</time>
      </trkpt>
      <trkpt lat="38.034306" lon="-1.398142">
        <ele>275.085</ele>
        <time>2017-03-18T15:33:54Z</time>
      </trkpt>
      <trkpt lat="38.034282" lon="-1.398015">
        <ele>275.130</ele>
        <time>2017-03-18T15:33:56Z</time>
      </trkpt>
      <trkpt lat="38.034254" lon="-1.397886">
        <ele>275.328</ele>
        <time>2017-03-18T15:33:58Z</time>
      </trkpt>
      <trkpt lat="38.034227" lon="-1.397754">
        <ele>275.562</ele>
        <time>2017-03-18T15:34:00Z</time>
      </trkpt>
      <trkpt lat="38.034200" lon="-1.397617">
        <ele>275.738</ele>
        <time>2017-03-18T15:34:02Z</time>
      </trkpt>
      <trkpt lat="38.034173" lon="-1.397480">
        <ele>275.918</ele>
        <time>2017-03-18T15:34:04Z</time>
      </trkpt>
      <trkpt lat="38.034146" lon="-1.397341">
        <ele>275.626</ele>
        <time>2017-03-18T15:34:06Z</time>
      </trkpt>
      <trkpt lat="38.034118" lon="-1.397201">
        <ele>275.647</ele>
        <time>2017-03-18T15:34:08Z</time>
      </trkpt>
      <trkpt lat="38.034084" lon="-1.397066">
        <ele>275.611</ele>
        <time>2017-03-18T15:34:11Z</time>
      </trkpt>
      <trkpt lat="38.034052" lon="-1.396927">
        <ele>275.808</ele>
        <time>2017-03-18T15:34:13Z</time>
      </trkpt>
      <trkpt lat="38.034022" lon="-1.396791">
        <ele>275.773</ele>
        <time>2017-03-18T15:34:15Z</time>
      </trkpt>
      <trkpt lat="38.033993" lon="-1.396660">
        <ele>275.718</ele>
        <time>2017-03-18T15:34:17Z</time>
      </trkpt>
      <trkpt lat="38.033958" lon="-1.396514">
        <ele>275.870</ele>
        <time>2017-03-18T15:34:19Z</time>
      </trkpt>
      <trkpt lat="38.033924" lon="-1.396370">
        <ele>275.575</ele>
        <time>2017-03-18T15:34:21Z</time>
      </trkpt>
      <trkpt lat="38.033893" lon="-1.396230">
        <ele>275.423</ele>
        <time>2017-03-18T15:34:23Z</time>
      </trkpt>
      <trkpt lat="38.033867" lon="-1.396082">
        <ele>275.637</ele>
        <time>2017-03-18T15:34:25Z</time>
      </trkpt>
      <trkpt lat="38.033835" lon="-1.395928">
        <ele>275.943</ele>
        <time>2017-03-18T15:34:27Z</time>
      </trkpt>
      <trkpt lat="38.033801" lon="-1.395789">
        <ele>275.443</ele>
        <time>2017-03-18T15:34:29Z</time>
      </trkpt>
      <trkpt lat="38.033767" lon="-1.395643">
        <ele>274.795</ele>
        <time>2017-03-18T15:34:31Z</time>
      </trkpt>
      <trkpt lat="38.033732" lon="-1.395493">
        <ele>275.049</ele>
        <time>2017-03-18T15:34:33Z</time>
      </trkpt>
      <trkpt lat="38.033700" lon="-1.395349">
        <ele>274.823</ele>
        <time>2017-03-18T15:34:35Z</time>
      </trkpt>
      <trkpt lat="38.033666" lon="-1.395207">
        <ele>274.208</ele>
        <time>2017-03-18T15:34:37Z</time>
      </trkpt>
      <trkpt lat="38.033632" lon="-1.395055">
        <ele>273.710</ele>
        <time>2017-03-18T15:34:39Z</time>
      </trkpt>
      <trkpt lat="38.033601" lon="-1.394914">
        <ele>273.195</ele>
        <time>2017-03-18T15:34:41Z</time>
      </trkpt>
      <trkpt lat="38.033568" lon="-1.394765">
        <ele>272.897</ele>
        <time>2017-03-18T15:34:43Z</time>
      </trkpt>
      <trkpt lat="38.033533" lon="-1.394614">
        <ele>272.712</ele>
        <time>2017-03-18T15:34:45Z</time>
      </trkpt>
      <trkpt lat="38.033490" lon="-1.394456">
        <ele>272.650</ele>
        <time>2017-03-18T15:34:47Z</time>
      </trkpt>
      <trkpt lat="38.033456" lon="-1.394308">
        <ele>272.314</ele>
        <time>2017-03-18T15:34:49Z</time>
      </trkpt>
      <trkpt lat="38.033426" lon="-1.394174">
        <ele>272.130</ele>
        <time>2017-03-18T15:34:51Z</time>
      </trkpt>
      <trkpt lat="38.033406" lon="-1.394051">
        <ele>271.740</ele>
        <time>2017-03-18T15:34:53Z</time>
      </trkpt>
      <trkpt lat="38.033378" lon="-1.393919">
        <ele>271.282</ele>
        <time>2017-03-18T15:34:55Z</time>
      </trkpt>
      <trkpt lat="38.033347" lon="-1.393781">
        <ele>270.843</ele>
        <time>2017-03-18T15:34:57Z</time>
      </trkpt>
      <trkpt lat="38.033300" lon="-1.393582">
        <ele>270.617</ele>
        <time>2017-03-18T15:34:59Z</time>
      </trkpt>
      <trkpt lat="38.033272" lon="-1.393462">
        <ele>270.408</ele>
        <time>2017-03-18T15:35:01Z</time>
      </trkpt>
      <trkpt lat="38.033254" lon="-1.393328">
        <ele>270.459</ele>
        <time>2017-03-18T15:35:03Z</time>
      </trkpt>
      <trkpt lat="38.033244" lon="-1.393189">
        <ele>270.644</ele>
        <time>2017-03-18T15:35:05Z</time>
      </trkpt>
      <trkpt lat="38.033245" lon="-1.393057">
        <ele>271.026</ele>
        <time>2017-03-18T15:35:07Z</time>
      </trkpt>
      <trkpt lat="38.033252" lon="-1.392935">
        <ele>270.811</ele>
        <time>2017-03-18T15:35:09Z</time>
      </trkpt>
      <trkpt lat="38.033263" lon="-1.392814">
        <ele>270.419</ele>
        <time>2017-03-18T15:35:11Z</time>
      </trkpt>
      <trkpt lat="38.033283" lon="-1.392697">
        <ele>269.783</ele>
        <time>2017-03-18T15:35:13Z</time>
      </trkpt>
      <trkpt lat="38.033295" lon="-1.392581">
        <ele>269.859</ele>
        <time>2017-03-18T15:35:15Z</time>
      </trkpt>
      <trkpt lat="38.033325" lon="-1.392430">
        <ele>269.269</ele>
        <time>2017-03-18T15:35:18Z</time>
      </trkpt>
      <trkpt lat="38.033357" lon="-1.392315">
        <ele>268.765</ele>
        <time>2017-03-18T15:35:20Z</time>
      </trkpt>
      <trkpt lat="38.033389" lon="-1.392207">
        <ele>269.168</ele>
        <time>2017-03-18T15:35:22Z</time>
      </trkpt>
      <trkpt lat="38.033418" lon="-1.392097">
        <ele>269.514</ele>
        <time>2017-03-18T15:35:24Z</time>
      </trkpt>
      <trkpt lat="38.033466" lon="-1.391939">
        <ele>270.408</ele>
        <time>2017-03-18T15:35:27Z</time>
      </trkpt>
      <trkpt lat="38.033502" lon="-1.391824">
        <ele>271.057</ele>
        <time>2017-03-18T15:35:29Z</time>
      </trkpt>
      <trkpt lat="38.033544" lon="-1.391714">
        <ele>271.452</ele>
        <time>2017-03-18T15:35:31Z</time>
      </trkpt>
      <trkpt lat="38.033584" lon="-1.391610">
        <ele>271.564</ele>
        <time>2017-03-18T15:35:33Z</time>
      </trkpt>
      <trkpt lat="38.033626" lon="-1.391507">
        <ele>271.529</ele>
        <time>2017-03-18T15:35:35Z</time>
      </trkpt>
      <trkpt lat="38.033681" lon="-1.391365">
        <ele>271.867</ele>
        <time>2017-03-18T15:35:38Z</time>
      </trkpt>
      <trkpt lat="38.033729" lon="-1.391256">
        <ele>271.791</ele>
        <time>2017-03-18T15:35:40Z</time>
      </trkpt>
      <trkpt lat="38.033774" lon="-1.391144">
        <ele>271.387</ele>
        <time>2017-03-18T15:35:43Z</time>
      </trkpt>
      <trkpt lat="38.033817" lon="-1.391039">
        <ele>270.737</ele>
        <time>2017-03-18T15:35:45Z</time>
      </trkpt>
      <trkpt lat="38.033864" lon="-1.390934">
        <ele>270.221</ele>
        <time>2017-03-18T15:35:47Z</time>
      </trkpt>
      <trkpt lat="38.033933" lon="-1.390828">
        <ele>269.941</ele>
        <time>2017-03-18T15:35:50Z</time>
      </trkpt>
      <trkpt lat="38.033998" lon="-1.390694">
        <ele>271.105</ele>
        <time>2017-03-18T15:35:53Z</time>
      </trkpt>
      <trkpt lat="38.034052" lon="-1.390595">
        <ele>271.408</ele>
        <time>2017-03-18T15:35:55Z</time>
      </trkpt>
      <trkpt lat="38.034116" lon="-1.390489">
        <ele>271.383</ele>
        <time>2017-03-18T15:35:57Z</time>
      </trkpt>
      <trkpt lat="38.034184" lon="-1.390366">
        <ele>270.968</ele>
        <time>2017-03-18T15:35:59Z</time>
      </trkpt>
      <trkpt lat="38.034245" lon="-1.390247">
        <ele>270.350</ele>
        <time>2017-03-18T15:36:01Z</time>
      </trkpt>
      <trkpt lat="38.034302" lon="-1.390132">
        <ele>269.815</ele>
        <time>2017-03-18T15:36:03Z</time>
      </trkpt>
      <trkpt lat="38.034354" lon="-1.390024">
        <ele>269.333</ele>
        <time>2017-03-18T15:36:05Z</time>
      </trkpt>
      <trkpt lat="38.034403" lon="-1.389907">
        <ele>268.857</ele>
        <time>2017-03-18T15:36:07Z</time>
      </trkpt>
      <trkpt lat="38.034453" lon="-1.389782">
        <ele>268.313</ele>
        <time>2017-03-18T15:36:09Z</time>
      </trkpt>
      <trkpt lat="38.034515" lon="-1.389657">
        <ele>268.033</ele>
        <time>2017-03-18T15:36:11Z</time>
      </trkpt>
      <trkpt lat="38.034580" lon="-1.389538">
        <ele>267.796</ele>
        <time>2017-03-18T15:36:13Z</time>
      </trkpt>
      <trkpt lat="38.034645" lon="-1.389419">
        <ele>267.531</ele>
        <time>2017-03-18T15:36:15Z</time>
      </trkpt>
      <trkpt lat="38.034742" lon="-1.389237">
        <ele>266.824</ele>
        <time>2017-03-18T15:36:17Z</time>
      </trkpt>
      <trkpt lat="38.034807" lon="-1.389107">
        <ele>266.308</ele>
        <time>2017-03-18T15:36:19Z</time>
      </trkpt>
      <trkpt lat="38.034865" lon="-1.388978">
        <ele>265.480</ele>
        <time>2017-03-18T15:36:21Z</time>
      </trkpt>
      <trkpt lat="38.034918" lon="-1.388852">
        <ele>264.425</ele>
        <time>2017-03-18T15:36:23Z</time>
      </trkpt>
      <trkpt lat="38.034972" lon="-1.388730">
        <ele>263.847</ele>
        <time>2017-03-18T15:36:25Z</time>
      </trkpt>
      <trkpt lat="38.035024" lon="-1.388610">
        <ele>263.722</ele>
        <time>2017-03-18T15:36:27Z</time>
      </trkpt>
      <trkpt lat="38.035075" lon="-1.388483">
        <ele>263.980</ele>
        <time>2017-03-18T15:36:29Z</time>
      </trkpt>
      <trkpt lat="38.035125" lon="-1.388348">
        <ele>264.164</ele>
        <time>2017-03-18T15:36:31Z</time>
      </trkpt>
      <trkpt lat="38.035174" lon="-1.388211">
        <ele>264.440</ele>
        <time>2017-03-18T15:36:33Z</time>
      </trkpt>
      <trkpt lat="38.035220" lon="-1.388075">
        <ele>264.530</ele>
        <time>2017-03-18T15:36:35Z</time>
      </trkpt>
      <trkpt lat="38.035263" lon="-1.387936">
        <ele>264.767</ele>
        <time>2017-03-18T15:36:37Z</time>
      </trkpt>
      <trkpt lat="38.035305" lon="-1.387786">
        <ele>264.781</ele>
        <time>2017-03-18T15:36:39Z</time>
      </trkpt>
      <trkpt lat="38.035341" lon="-1.387643">
        <ele>264.619</ele>
        <time>2017-03-18T15:36:41Z</time>
      </trkpt>
      <trkpt lat="38.035377" lon="-1.387503">
        <ele>264.608</ele>
        <time>2017-03-18T15:36:44Z</time>
      </trkpt>
      <trkpt lat="38.035411" lon="-1.387344">
        <ele>264.437</ele>
        <time>2017-03-18T15:36:46Z</time>
      </trkpt>
      <trkpt lat="38.035441" lon="-1.387194">
        <ele>263.812</ele>
        <time>2017-03-18T15:36:48Z</time>
      </trkpt>
      <trkpt lat="38.035470" lon="-1.387053">
        <ele>263.214</ele>
        <time>2017-03-18T15:36:50Z</time>
      </trkpt>
      <trkpt lat="38.035496" lon="-1.386911">
        <ele>262.659</ele>
        <time>2017-03-18T15:36:52Z</time>
      </trkpt>
      <trkpt lat="38.035519" lon="-1.386772">
        <ele>262.327</ele>
        <time>2017-03-18T15:36:54Z</time>
      </trkpt>
      <trkpt lat="38.035543" lon="-1.386621">
        <ele>262.291</ele>
        <time>2017-03-18T15:36:56Z</time>
      </trkpt>
      <trkpt lat="38.035561" lon="-1.386480">
        <ele>261.937</ele>
        <time>2017-03-18T15:36:58Z</time>
      </trkpt>
      <trkpt lat="38.035577" lon="-1.386333">
        <ele>261.727</ele>
        <time>2017-03-18T15:37:00Z</time>
      </trkpt>
      <trkpt lat="38.035592" lon="-1.386186">
        <ele>261.621</ele>
        <time>2017-03-18T15:37:02Z</time>
      </trkpt>
      <trkpt lat="38.035608" lon="-1.386036">
        <ele>261.441</ele>
        <time>2017-03-18T15:37:04Z</time>
      </trkpt>
      <trkpt lat="38.035626" lon="-1.385885">
        <ele>261.405</ele>
        <time>2017-03-18T15:37:06Z</time>
      </trkpt>
      <trkpt lat="38.035647" lon="-1.385734">
        <ele>261.508</ele>
        <time>2017-03-18T15:37:08Z</time>
      </trkpt>
      <trkpt lat="38.035667" lon="-1.385588">
        <ele>261.693</ele>
        <time>2017-03-18T15:37:10Z</time>
      </trkpt>
      <trkpt lat="38.035681" lon="-1.385438">
        <ele>261.338</ele>
        <time>2017-03-18T15:37:12Z</time>
      </trkpt>
      <trkpt lat="38.035696" lon="-1.385282">
        <ele>260.850</ele>
        <time>2017-03-18T15:37:14Z</time>
      </trkpt>
      <trkpt lat="38.035710" lon="-1.385119">
        <ele>259.885</ele>
        <time>2017-03-18T15:37:16Z</time>
      </trkpt>
      <trkpt lat="38.035722" lon="-1.384964">
        <ele>259.233</ele>
        <time>2017-03-18T15:37:18Z</time>
      </trkpt>
      <trkpt lat="38.035739" lon="-1.384808">
        <ele>259.097</ele>
        <time>2017-03-18T15:37:20Z</time>
      </trkpt>
      <trkpt lat="38.035751" lon="-1.384670">
        <ele>259.133</ele>
        <time>2017-03-18T15:37:22Z</time>
      </trkpt>
      <trkpt lat="38.035775" lon="-1.384453">
        <ele>260.323</ele>
        <time>2017-03-18T15:37:24Z</time>
      </trkpt>
      <trkpt lat="38.035788" lon="-1.384289">
        <ele>260.579</ele>
        <time>2017-03-18T15:37:26Z</time>
      </trkpt>
      <trkpt lat="38.035804" lon="-1.384132">
        <ele>260.605</ele>
        <time>2017-03-18T15:37:28Z</time>
      </trkpt>
      <trkpt lat="38.035823" lon="-1.383972">
        <ele>260.425</ele>
        <time>2017-03-18T15:37:30Z</time>
      </trkpt>
      <trkpt lat="38.035845" lon="-1.383821">
        <ele>260.408</ele>
        <time>2017-03-18T15:37:32Z</time>
      </trkpt>
      <trkpt lat="38.035840" lon="-1.383660">
        <ele>260.258</ele>
        <time>2017-03-18T15:37:34Z</time>
      </trkpt>
      <trkpt lat="38.035815" lon="-1.383530">
        <ele>260.273</ele>
        <time>2017-03-18T15:37:36Z</time>
      </trkpt>
      <trkpt lat="38.035786" lon="-1.383375">
        <ele>260.975</ele>
        <time>2017-03-18T15:37:38Z</time>
      </trkpt>
      <trkpt lat="38.035770" lon="-1.383259">
        <ele>261.210</ele>
        <time>2017-03-18T15:37:40Z</time>
      </trkpt>
      <trkpt lat="38.035762" lon="-1.383111">
        <ele>262.128</ele>
        <time>2017-03-18T15:37:42Z</time>
      </trkpt>
      <trkpt lat="38.035764" lon="-1.382955">
        <ele>262.572</ele>
        <time>2017-03-18T15:37:44Z</time>
      </trkpt>
      <trkpt lat="38.035771" lon="-1.382811">
        <ele>262.548</ele>
        <time>2017-03-18T15:37:46Z</time>
      </trkpt>
      <trkpt lat="38.035787" lon="-1.382686">
        <ele>262.868</ele>
        <time>2017-03-18T15:37:48Z</time>
      </trkpt>
      <trkpt lat="38.035805" lon="-1.382564">
        <ele>263.528</ele>
        <time>2017-03-18T15:37:50Z</time>
      </trkpt>
      <trkpt lat="38.035869" lon="-1.382406">
        <ele>264.089</ele>
        <time>2017-03-18T15:37:53Z</time>
      </trkpt>
      <trkpt lat="38.035949" lon="-1.382286">
        <ele>263.517</ele>
        <time>2017-03-18T15:37:56Z</time>
      </trkpt>
      <trkpt lat="38.035976" lon="-1.382138">
        <ele>263.208</ele>
        <time>2017-03-18T15:37:58Z</time>
      </trkpt>
      <trkpt lat="38.035992" lon="-1.381949">
        <ele>263.023</ele>
        <time>2017-03-18T15:38:00Z</time>
      </trkpt>
      <trkpt lat="38.036008" lon="-1.381735">
        <ele>262.218</ele>
        <time>2017-03-18T15:38:02Z</time>
      </trkpt>
      <trkpt lat="38.036025" lon="-1.381532">
        <ele>260.610</ele>
        <time>2017-03-18T15:38:04Z</time>
      </trkpt>
      <trkpt lat="38.036046" lon="-1.381321">
        <ele>259.425</ele>
        <time>2017-03-18T15:38:06Z</time>
      </trkpt>
      <trkpt lat="38.036070" lon="-1.381116">
        <ele>258.533</ele>
        <time>2017-03-18T15:38:08Z</time>
      </trkpt>
      <trkpt lat="38.036094" lon="-1.380941">
        <ele>257.587</ele>
        <time>2017-03-18T15:38:10Z</time>
      </trkpt>
      <trkpt lat="38.036117" lon="-1.380780">
        <ele>257.033</ele>
        <time>2017-03-18T15:38:12Z</time>
      </trkpt>
      <trkpt lat="38.036138" lon="-1.380620">
        <ele>257.253</ele>
        <time>2017-03-18T15:38:14Z</time>
      </trkpt>
      <trkpt lat="38.036156" lon="-1.380494">
        <ele>256.914</ele>
        <time>2017-03-18T15:38:16Z</time>
      </trkpt>
      <trkpt lat="38.036165" lon="-1.380379">
        <ele>256.554</ele>
        <time>2017-03-18T15:38:18Z</time>
      </trkpt>
      <trkpt lat="38.036174" lon="-1.380258">
        <ele>256.109</ele>
        <time>2017-03-18T15:38:20Z</time>
      </trkpt>
      <trkpt lat="38.036184" lon="-1.380126">
        <ele>255.608</ele>
        <time>2017-03-18T15:38:22Z</time>
      </trkpt>
      <trkpt lat="38.036194" lon="-1.379982">
        <ele>255.142</ele>
        <time>2017-03-18T15:38:24Z</time>
      </trkpt>
      <trkpt lat="38.036206" lon="-1.379825">
        <ele>254.337</ele>
        <time>2017-03-18T15:38:26Z</time>
      </trkpt>
      <trkpt lat="38.036217" lon="-1.379684">
        <ele>253.969</ele>
        <time>2017-03-18T15:38:28Z</time>
      </trkpt>
      <trkpt lat="38.036232" lon="-1.379534">
        <ele>253.534</ele>
        <time>2017-03-18T15:38:30Z</time>
      </trkpt>
      <trkpt lat="38.036245" lon="-1.379396">
        <ele>253.892</ele>
        <time>2017-03-18T15:38:32Z</time>
      </trkpt>
      <trkpt lat="38.036256" lon="-1.379253">
        <ele>253.916</ele>
        <time>2017-03-18T15:38:34Z</time>
      </trkpt>
      <trkpt lat="38.036268" lon="-1.379097">
        <ele>253.692</ele>
        <time>2017-03-18T15:38:36Z</time>
      </trkpt>
      <trkpt lat="38.036288" lon="-1.378951">
        <ele>253.522</ele>
        <time>2017-03-18T15:38:37Z</time>
      </trkpt>
      <trkpt lat="38.036304" lon="-1.378799">
        <ele>253.542</ele>
        <time>2017-03-18T15:38:39Z</time>
      </trkpt>
      <trkpt lat="38.036318" lon="-1.378673">
        <ele>254.322</ele>
        <time>2017-03-18T15:38:41Z</time>
      </trkpt>
      <trkpt lat="38.036334" lon="-1.378521">
        <ele>254.414</ele>
        <time>2017-03-18T15:38:43Z</time>
      </trkpt>
      <trkpt lat="38.036348" lon="-1.378385">
        <ele>254.608</ele>
        <time>2017-03-18T15:38:45Z</time>
      </trkpt>
      <trkpt lat="38.036369" lon="-1.378165">
        <ele>254.035</ele>
        <time>2017-03-18T15:38:48Z</time>
      </trkpt>
      <trkpt lat="38.036381" lon="-1.378036">
        <ele>253.410</ele>
        <time>2017-03-18T15:38:50Z</time>
      </trkpt>
      <trkpt lat="38.036391" lon="-1.377891">
        <ele>253.272</ele>
        <time>2017-03-18T15:38:52Z</time>
      </trkpt>
      <trkpt lat="38.036404" lon="-1.377744">
        <ele>252.767</ele>
        <time>2017-03-18T15:38:54Z</time>
      </trkpt>
      <trkpt lat="38.036418" lon="-1.377604">
        <ele>252.155</ele>
        <time>2017-03-18T15:38:56Z</time>
      </trkpt>
      <trkpt lat="38.036432" lon="-1.377449">
        <ele>251.919</ele>
        <time>2017-03-18T15:38:58Z</time>
      </trkpt>
      <trkpt lat="38.036445" lon="-1.377293">
        <ele>251.415</ele>
        <time>2017-03-18T15:39:00Z</time>
      </trkpt>
      <trkpt lat="38.036459" lon="-1.377144">
        <ele>250.615</ele>
        <time>2017-03-18T15:39:02Z</time>
      </trkpt>
      <trkpt lat="38.036470" lon="-1.377010">
        <ele>250.986</ele>
        <time>2017-03-18T15:39:04Z</time>
      </trkpt>
      <trkpt lat="38.036481" lon="-1.376866">
        <ele>251.560</ele>
        <time>2017-03-18T15:39:06Z</time>
      </trkpt>
      <trkpt lat="38.036492" lon="-1.376721">
        <ele>251.926</ele>
        <time>2017-03-18T15:39:08Z</time>
      </trkpt>
      <trkpt lat="38.036501" lon="-1.376583">
        <ele>252.208</ele>
        <time>2017-03-18T15:39:10Z</time>
      </trkpt>
      <trkpt lat="38.036508" lon="-1.376457">
        <ele>252.459</ele>
        <time>2017-03-18T15:39:12Z</time>
      </trkpt>
      <trkpt lat="38.036521" lon="-1.376337">
        <ele>252.124</ele>
        <time>2017-03-18T15:39:14Z</time>
      </trkpt>
      <trkpt lat="38.036537" lon="-1.376222">
        <ele>252.076</ele>
        <time>2017-03-18T15:39:16Z</time>
      </trkpt>
      <trkpt lat="38.036552" lon="-1.376086">
        <ele>251.421</ele>
        <time>2017-03-18T15:39:18Z</time>
      </trkpt>
      <trkpt lat="38.036569" lon="-1.375950">
        <ele>250.759</ele>
        <time>2017-03-18T15:39:21Z</time>
      </trkpt>
      <trkpt lat="38.036587" lon="-1.375828">
        <ele>250.183</ele>
        <time>2017-03-18T15:39:23Z</time>
      </trkpt>
      <trkpt lat="38.036605" lon="-1.375702">
        <ele>250.219</ele>
        <time>2017-03-18T15:39:25Z</time>
      </trkpt>
      <trkpt lat="38.036627" lon="-1.375553">
        <ele>250.359</ele>
        <time>2017-03-18T15:39:27Z</time>
      </trkpt>
      <trkpt lat="38.036649" lon="-1.375406">
        <ele>250.429</ele>
        <time>2017-03-18T15:39:29Z</time>
      </trkpt>
      <trkpt lat="38.036672" lon="-1.375264">
        <ele>250.900</ele>
        <time>2017-03-18T15:39:31Z</time>
      </trkpt>
      <trkpt lat="38.036700" lon="-1.375138">
        <ele>251.520</ele>
        <time>2017-03-18T15:39:33Z</time>
      </trkpt>
      <trkpt lat="38.036731" lon="-1.375012">
        <ele>251.808</ele>
        <time>2017-03-18T15:39:35Z</time>
      </trkpt>
      <trkpt lat="38.036760" lon="-1.374901">
        <ele>251.953</ele>
        <time>2017-03-18T15:39:37Z</time>
      </trkpt>
      <trkpt lat="38.036794" lon="-1.374791">
        <ele>251.218</ele>
        <time>2017-03-18T15:39:39Z</time>
      </trkpt>
      <trkpt lat="38.036840" lon="-1.374664">
        <ele>251.140</ele>
        <time>2017-03-18T15:39:42Z</time>
      </trkpt>
      <trkpt lat="38.036872" lon="-1.374539">
        <ele>251.125</ele>
        <time>2017-03-18T15:39:45Z</time>
      </trkpt>
      <trkpt lat="38.036897" lon="-1.374400">
        <ele>251.593</ele>
        <time>2017-03-18T15:39:48Z</time>
      </trkpt>
      <trkpt lat="38.036914" lon="-1.374263">
        <ele>251.757</ele>
        <time>2017-03-18T15:39:51Z</time>
      </trkpt>
      <trkpt lat="38.036933" lon="-1.374130">
        <ele>252.283</ele>
        <time>2017-03-18T15:39:53Z</time>
      </trkpt>
      <trkpt lat="38.036948" lon="-1.373963">
        <ele>253.563</ele>
        <time>2017-03-18T15:39:56Z</time>
      </trkpt>
      <trkpt lat="38.036956" lon="-1.373800">
        <ele>254.737</ele>
        <time>2017-03-18T15:39:59Z</time>
      </trkpt>
      <trkpt lat="38.036960" lon="-1.373681">
        <ele>255.249</ele>
        <time>2017-03-18T15:40:01Z</time>
      </trkpt>
      <trkpt lat="38.036962" lon="-1.373544">
        <ele>254.413</ele>
        <time>2017-03-18T15:40:03Z</time>
      </trkpt>
      <trkpt lat="38.036955" lon="-1.373413">
        <ele>253.608</ele>
        <time>2017-03-18T15:40:05Z</time>
      </trkpt>
      <trkpt lat="38.036939" lon="-1.373232">
        <ele>252.364</ele>
        <time>2017-03-18T15:40:07Z</time>
      </trkpt>
      <trkpt lat="38.036930" lon="-1.373118">
        <ele>251.549</ele>
        <time>2017-03-18T15:40:08Z</time>
      </trkpt>
      <trkpt lat="38.036917" lon="-1.372915">
        <ele>250.071</ele>
        <time>2017-03-18T15:40:10Z</time>
      </trkpt>
      <trkpt lat="38.036911" lon="-1.372796">
        <ele>249.366</ele>
        <time>2017-03-18T15:40:11Z</time>
      </trkpt>
      <trkpt lat="38.036898" lon="-1.372603">
        <ele>248.624</ele>
        <time>2017-03-18T15:40:13Z</time>
      </trkpt>
      <trkpt lat="38.036881" lon="-1.372429">
        <ele>247.798</ele>
        <time>2017-03-18T15:40:15Z</time>
      </trkpt>
      <trkpt lat="38.036869" lon="-1.372230">
        <ele>246.594</ele>
        <time>2017-03-18T15:40:17Z</time>
      </trkpt>
      <trkpt lat="38.036857" lon="-1.372047">
        <ele>244.814</ele>
        <time>2017-03-18T15:40:19Z</time>
      </trkpt>
      <trkpt lat="38.036847" lon="-1.371888">
        <ele>244.158</ele>
        <time>2017-03-18T15:40:21Z</time>
      </trkpt>
      <trkpt lat="38.036833" lon="-1.371708">
        <ele>244.252</ele>
        <time>2017-03-18T15:40:23Z</time>
      </trkpt>
      <trkpt lat="38.036820" lon="-1.371535">
        <ele>244.617</ele>
        <time>2017-03-18T15:40:25Z</time>
      </trkpt>
      <trkpt lat="38.036811" lon="-1.371361">
        <ele>244.508</ele>
        <time>2017-03-18T15:40:27Z</time>
      </trkpt>
      <trkpt lat="38.036808" lon="-1.371186">
        <ele>244.666</ele>
        <time>2017-03-18T15:40:29Z</time>
      </trkpt>
      <trkpt lat="38.036804" lon="-1.371022">
        <ele>245.181</ele>
        <time>2017-03-18T15:40:31Z</time>
      </trkpt>
      <trkpt lat="38.036797" lon="-1.370877">
        <ele>244.913</ele>
        <time>2017-03-18T15:40:33Z</time>
      </trkpt>
      <trkpt lat="38.036787" lon="-1.370716">
        <ele>244.348</ele>
        <time>2017-03-18T15:40:35Z</time>
      </trkpt>
      <trkpt lat="38.036775" lon="-1.370553">
        <ele>244.166</ele>
        <time>2017-03-18T15:40:37Z</time>
      </trkpt>
      <trkpt lat="38.036758" lon="-1.370389">
        <ele>243.940</ele>
        <time>2017-03-18T15:40:39Z</time>
      </trkpt>
      <trkpt lat="38.036747" lon="-1.370250">
        <ele>243.936</ele>
        <time>2017-03-18T15:40:41Z</time>
      </trkpt>
      <trkpt lat="38.036739" lon="-1.370094">
        <ele>243.986</ele>
        <time>2017-03-18T15:40:44Z</time>
      </trkpt>
      <trkpt lat="38.036729" lon="-1.369962">
        <ele>243.552</ele>
        <time>2017-03-18T15:40:46Z</time>
      </trkpt>
      <trkpt lat="38.036712" lon="-1.369829">
        <ele>243.453</ele>
        <time>2017-03-18T15:40:48Z</time>
      </trkpt>
      <trkpt lat="38.036697" lon="-1.369713">
        <ele>243.708</ele>
        <time>2017-03-18T15:40:50Z</time>
      </trkpt>
      <trkpt lat="38.036687" lon="-1.369587">
        <ele>243.308</ele>
        <time>2017-03-18T15:40:52Z</time>
      </trkpt>
      <trkpt lat="38.036709" lon="-1.369456">
        <ele>242.566</ele>
        <time>2017-03-18T15:40:54Z</time>
      </trkpt>
      <trkpt lat="38.036729" lon="-1.369319">
        <ele>241.591</ele>
        <time>2017-03-18T15:40:56Z</time>
      </trkpt>
      <trkpt lat="38.036753" lon="-1.369181">
        <ele>240.923</ele>
        <time>2017-03-18T15:40:58Z</time>
      </trkpt>
      <trkpt lat="38.036758" lon="-1.369043">
        <ele>240.758</ele>
        <time>2017-03-18T15:41:00Z</time>
      </trkpt>
      <trkpt lat="38.036714" lon="-1.368926">
        <ele>240.616</ele>
        <time>2017-03-18T15:41:02Z</time>
      </trkpt>
      <trkpt lat="38.036668" lon="-1.368790">
        <ele>241.110</ele>
        <time>2017-03-18T15:41:05Z</time>
      </trkpt>
      <trkpt lat="38.036678" lon="-1.368635">
        <ele>242.156</ele>
        <time>2017-03-18T15:41:08Z</time>
      </trkpt>
      <trkpt lat="38.036701" lon="-1.368464">
        <ele>243.286</ele>
        <time>2017-03-18T15:41:11Z</time>
      </trkpt>
      <trkpt lat="38.036675" lon="-1.368343">
        <ele>244.912</ele>
        <time>2017-03-18T15:43:57Z</time>
      </trkpt>
      <trkpt lat="38.036686" lon="-1.368228">
        <ele>245.132</ele>
        <time>2017-03-18T15:44:01Z</time>
      </trkpt>
      <trkpt lat="38.036693" lon="-1.368102">
        <ele>245.205</ele>
        <time>2017-03-18T15:44:19Z</time>
      </trkpt>
      <trkpt lat="38.036715" lon="-1.367970">
        <ele>245.208</ele>
        <time>2017-03-18T15:44:23Z</time>
      </trkpt>
      <trkpt lat="38.036739" lon="-1.367830">
        <ele>245.422</ele>
        <time>2017-03-18T15:44:27Z</time>
      </trkpt>
      <trkpt lat="38.036759" lon="-1.367696">
        <ele>245.527</ele>
        <time>2017-03-18T15:44:30Z</time>
      </trkpt>
      <trkpt lat="38.036787" lon="-1.367560">
        <ele>246.259</ele>
        <time>2017-03-18T15:44:34Z</time>
      </trkpt>
      <trkpt lat="38.036813" lon="-1.367403">
        <ele>246.814</ele>
        <time>2017-03-18T15:44:38Z</time>
      </trkpt>
      <trkpt lat="38.036831" lon="-1.367290">
        <ele>246.822</ele>
        <time>2017-03-18T15:44:40Z</time>
      </trkpt>
      <trkpt lat="38.036877" lon="-1.367140">
        <ele>246.326</ele>
        <time>2017-03-18T15:44:43Z</time>
      </trkpt>
      <trkpt lat="38.036914" lon="-1.367004">
        <ele>245.462</ele>
        <time>2017-03-18T15:44:46Z</time>
      </trkpt>
      <trkpt lat="38.036952" lon="-1.366840">
        <ele>244.662</ele>
        <time>2017-03-18T15:44:49Z</time>
      </trkpt>
      <trkpt lat="38.036980" lon="-1.366713">
        <ele>244.533</ele>
        <time>2017-03-18T15:44:51Z</time>
      </trkpt>
      <trkpt lat="38.037014" lon="-1.366575">
        <ele>244.423</ele>
        <time>2017-03-18T15:44:53Z</time>
      </trkpt>
      <trkpt lat="38.037045" lon="-1.366452">
        <ele>244.115</ele>
        <time>2017-03-18T15:44:55Z</time>
      </trkpt>
      <trkpt lat="38.037073" lon="-1.366324">
        <ele>244.108</ele>
        <time>2017-03-18T15:44:57Z</time>
      </trkpt>
      <trkpt lat="38.037104" lon="-1.366176">
        <ele>244.014</ele>
        <time>2017-03-18T15:44:59Z</time>
      </trkpt>
      <trkpt lat="38.037133" lon="-1.366043">
        <ele>243.339</ele>
        <time>2017-03-18T15:45:01Z</time>
      </trkpt>
      <trkpt lat="38.037172" lon="-1.365903">
        <ele>242.061</ele>
        <time>2017-03-18T15:45:03Z</time>
      </trkpt>
      <trkpt lat="38.037208" lon="-1.365755">
        <ele>241.846</ele>
        <time>2017-03-18T15:45:05Z</time>
      </trkpt>
      <trkpt lat="38.037242" lon="-1.365620">
        <ele>241.014</ele>
        <time>2017-03-18T15:45:07Z</time>
      </trkpt>
      <trkpt lat="38.037277" lon="-1.365485">
        <ele>240.738</ele>
        <time>2017-03-18T15:45:09Z</time>
      </trkpt>
      <trkpt lat="38.037316" lon="-1.365352">
        <ele>240.124</ele>
        <time>2017-03-18T15:45:10Z</time>
      </trkpt>
      <trkpt lat="38.037352" lon="-1.365213">
        <ele>240.114</ele>
        <time>2017-03-18T15:45:12Z</time>
      </trkpt>
      <trkpt lat="38.037383" lon="-1.365088">
        <ele>240.249</ele>
        <time>2017-03-18T15:45:14Z</time>
      </trkpt>
      <trkpt lat="38.037420" lon="-1.364957">
        <ele>239.702</ele>
        <time>2017-03-18T15:45:16Z</time>
      </trkpt>
      <trkpt lat="38.037447" lon="-1.364843">
        <ele>239.422</ele>
        <time>2017-03-18T15:45:18Z</time>
      </trkpt>
      <trkpt lat="38.037481" lon="-1.364707">
        <ele>239.408</ele>
        <time>2017-03-18T15:45:20Z</time>
      </trkpt>
      <trkpt lat="38.037516" lon="-1.364581">
        <ele>239.075</ele>
        <time>2017-03-18T15:45:22Z</time>
      </trkpt>
      <trkpt lat="38.037551" lon="-1.364456">
        <ele>238.760</ele>
        <time>2017-03-18T15:45:24Z</time>
      </trkpt>
      <trkpt lat="38.037584" lon="-1.364325">
        <ele>238.832</ele>
        <time>2017-03-18T15:45:26Z</time>
      </trkpt>
      <trkpt lat="38.037614" lon="-1.364197">
        <ele>238.547</ele>
        <time>2017-03-18T15:45:28Z</time>
      </trkpt>
      <trkpt lat="38.037644" lon="-1.364072">
        <ele>238.095</ele>
        <time>2017-03-18T15:45:30Z</time>
      </trkpt>
      <trkpt lat="38.037676" lon="-1.363934">
        <ele>238.219</ele>
        <time>2017-03-18T15:45:32Z</time>
      </trkpt>
      <trkpt lat="38.037706" lon="-1.363815">
        <ele>238.565</ele>
        <time>2017-03-18T15:45:34Z</time>
      </trkpt>
      <trkpt lat="38.037735" lon="-1.363702">
        <ele>237.985</ele>
        <time>2017-03-18T15:45:36Z</time>
      </trkpt>
      <trkpt lat="38.037773" lon="-1.363541">
        <ele>239.024</ele>
        <time>2017-03-18T15:45:39Z</time>
      </trkpt>
      <trkpt lat="38.037801" lon="-1.363415">
        <ele>240.104</ele>
        <time>2017-03-18T15:45:41Z</time>
      </trkpt>
      <trkpt lat="38.037826" lon="-1.363295">
        <ele>241.314</ele>
        <time>2017-03-18T15:45:43Z</time>
      </trkpt>
      <trkpt lat="38.037856" lon="-1.363151">
        <ele>243.508</ele>
        <time>2017-03-18T15:45:46Z</time>
      </trkpt>
      <trkpt lat="38.037898" lon="-1.362990">
        <ele>243.613</ele>
        <time>2017-03-18T15:45:49Z</time>
      </trkpt>
      <trkpt lat="38.037935" lon="-1.362830">
        <ele>243.318</ele>
        <time>2017-03-18T15:45:51Z</time>
      </trkpt>
      <trkpt lat="38.037971" lon="-1.362678">
        <ele>242.110</ele>
        <time>2017-03-18T15:45:53Z</time>
      </trkpt>
      <trkpt lat="38.038005" lon="-1.362541">
        <ele>242.085</ele>
        <time>2017-03-18T15:45:55Z</time>
      </trkpt>
      <trkpt lat="38.038034" lon="-1.362407">
        <ele>242.893</ele>
        <time>2017-03-18T15:45:57Z</time>
      </trkpt>
      <trkpt lat="38.038063" lon="-1.362271">
        <ele>243.137</ele>
        <time>2017-03-18T15:45:59Z</time>
      </trkpt>
      <trkpt lat="38.038094" lon="-1.362158">
        <ele>242.833</ele>
        <time>2017-03-18T15:46:01Z</time>
      </trkpt>
      <trkpt lat="38.038120" lon="-1.362043">
        <ele>243.373</ele>
        <time>2017-03-18T15:46:03Z</time>
      </trkpt>
      <trkpt lat="38.038148" lon="-1.361928">
        <ele>242.389</ele>
        <time>2017-03-18T15:46:05Z</time>
      </trkpt>
      <trkpt lat="38.038183" lon="-1.361776">
        <ele>241.006</ele>
        <time>2017-03-18T15:46:08Z</time>
      </trkpt>
      <trkpt lat="38.038206" lon="-1.361600">
        <ele>240.726</ele>
        <time>2017-03-18T15:46:11Z</time>
      </trkpt>
      <trkpt lat="38.038212" lon="-1.361479">
        <ele>239.708</ele>
        <time>2017-03-18T15:46:13Z</time>
      </trkpt>
      <trkpt lat="38.038222" lon="-1.361348">
        <ele>238.049</ele>
        <time>2017-03-18T15:46:15Z</time>
      </trkpt>
      <trkpt lat="38.038232" lon="-1.361232">
        <ele>236.654</ele>
        <time>2017-03-18T15:46:17Z</time>
      </trkpt>
      <trkpt lat="38.038248" lon="-1.361075">
        <ele>234.366</ele>
        <time>2017-03-18T15:46:20Z</time>
      </trkpt>
      <trkpt lat="38.038270" lon="-1.360919">
        <ele>232.911</ele>
        <time>2017-03-18T15:46:24Z</time>
      </trkpt>
      <trkpt lat="38.038233" lon="-1.360794">
        <ele>230.549</ele>
        <time>2017-03-18T15:46:27Z</time>
      </trkpt>
      <trkpt lat="38.038105" lon="-1.360734">
        <ele>227.913</ele>
        <time>2017-03-18T15:46:30Z</time>
      </trkpt>
      <trkpt lat="38.038016" lon="-1.360689">
        <ele>226.489</ele>
        <time>2017-03-18T15:46:32Z</time>
      </trkpt>
      <trkpt lat="38.037918" lon="-1.360646">
        <ele>226.059</ele>
        <time>2017-03-18T15:46:34Z</time>
      </trkpt>
      <trkpt lat="38.037832" lon="-1.360576">
        <ele>226.029</ele>
        <time>2017-03-18T15:46:36Z</time>
      </trkpt>
      <trkpt lat="38.037773" lon="-1.360435">
        <ele>225.100</ele>
        <time>2017-03-18T15:46:39Z</time>
      </trkpt>
      <trkpt lat="38.037749" lon="-1.360293">
        <ele>225.020</ele>
        <time>2017-03-18T15:46:41Z</time>
      </trkpt>
      <trkpt lat="38.037738" lon="-1.360146">
        <ele>225.508</ele>
        <time>2017-03-18T15:46:43Z</time>
      </trkpt>
      <trkpt lat="38.037746" lon="-1.359993">
        <ele>226.533</ele>
        <time>2017-03-18T15:46:45Z</time>
      </trkpt>
      <trkpt lat="38.037759" lon="-1.359869">
        <ele>226.928</ele>
        <time>2017-03-18T15:46:47Z</time>
      </trkpt>
      <trkpt lat="38.037760" lon="-1.359717">
        <ele>225.940</ele>
        <time>2017-03-18T15:46:49Z</time>
      </trkpt>
      <trkpt lat="38.037752" lon="-1.359559">
        <ele>224.495</ele>
        <time>2017-03-18T15:46:51Z</time>
      </trkpt>
      <trkpt lat="38.037749" lon="-1.359410">
        <ele>222.483</ele>
        <time>2017-03-18T15:46:53Z</time>
      </trkpt>
      <trkpt lat="38.037748" lon="-1.359271">
        <ele>221.547</ele>
        <time>2017-03-18T15:46:55Z</time>
      </trkpt>
      <trkpt lat="38.037756" lon="-1.359113">
        <ele>221.083</ele>
        <time>2017-03-18T15:46:57Z</time>
      </trkpt>
      <trkpt lat="38.037771" lon="-1.358985">
        <ele>221.083</ele>
        <time>2017-03-18T15:47:00Z</time>
      </trkpt>
      <trkpt lat="38.037790" lon="-1.358842">
        <ele>220.993</ele>
        <time>2017-03-18T15:47:03Z</time>
      </trkpt>
      <trkpt lat="38.037801" lon="-1.358698">
        <ele>219.265</ele>
        <time>2017-03-18T15:47:06Z</time>
      </trkpt>
      <trkpt lat="38.037807" lon="-1.358575">
        <ele>219.221</ele>
        <time>2017-03-18T15:47:08Z</time>
      </trkpt>
      <trkpt lat="38.037822" lon="-1.358439">
        <ele>219.508</ele>
        <time>2017-03-18T15:47:11Z</time>
      </trkpt>
      <trkpt lat="38.037847" lon="-1.358279">
        <ele>219.040</ele>
        <time>2017-03-18T15:47:14Z</time>
      </trkpt>
      <trkpt lat="38.037873" lon="-1.358133">
        <ele>219.445</ele>
        <time>2017-03-18T15:47:17Z</time>
      </trkpt>
      <trkpt lat="38.037924" lon="-1.358015">
        <ele>219.537</ele>
        <time>2017-03-18T15:47:20Z</time>
      </trkpt>
      <trkpt lat="38.037979" lon="-1.357887">
        <ele>219.422</ele>
        <time>2017-03-18T15:47:24Z</time>
      </trkpt>
      <trkpt lat="38.038018" lon="-1.357747">
        <ele>219.090</ele>
        <time>2017-03-18T15:47:27Z</time>
      </trkpt>
      <trkpt lat="38.038061" lon="-1.357599">
        <ele>218.674</ele>
        <time>2017-03-18T15:47:30Z</time>
      </trkpt>
      <trkpt lat="38.038104" lon="-1.357450">
        <ele>218.590</ele>
        <time>2017-03-18T15:47:33Z</time>
      </trkpt>
      <trkpt lat="38.038132" lon="-1.357341">
        <ele>218.780</ele>
        <time>2017-03-18T15:47:35Z</time>
      </trkpt>
      <trkpt lat="38.038165" lon="-1.357235">
        <ele>218.354</ele>
        <time>2017-03-18T15:47:37Z</time>
      </trkpt>
      <trkpt lat="38.038203" lon="-1.357112">
        <ele>218.056</ele>
        <time>2017-03-18T15:47:39Z</time>
      </trkpt>
      <trkpt lat="38.038242" lon="-1.356980">
        <ele>218.111</ele>
        <time>2017-03-18T15:47:41Z</time>
      </trkpt>
      <trkpt lat="38.038273" lon="-1.356871">
        <ele>218.508</ele>
        <time>2017-03-18T15:47:43Z</time>
      </trkpt>
      <trkpt lat="38.038325" lon="-1.356714">
        <ele>218.656</ele>
        <time>2017-03-18T15:47:46Z</time>
      </trkpt>
      <trkpt lat="38.038368" lon="-1.356584">
        <ele>219.291</ele>
        <time>2017-03-18T15:47:49Z</time>
      </trkpt>
      <trkpt lat="38.038404" lon="-1.356456">
        <ele>219.843</ele>
        <time>2017-03-18T15:47:52Z</time>
      </trkpt>
      <trkpt lat="38.038446" lon="-1.356347">
        <ele>220.048</ele>
        <time>2017-03-18T15:47:55Z</time>
      </trkpt>
      <trkpt lat="38.038489" lon="-1.356232">
        <ele>220.276</ele>
        <time>2017-03-18T15:47:58Z</time>
      </trkpt>
      <trkpt lat="38.038563" lon="-1.356123">
        <ele>220.410</ele>
        <time>2017-03-18T15:48:00Z</time>
      </trkpt>
      <trkpt lat="38.038652" lon="-1.356070">
        <ele>220.526</ele>
        <time>2017-03-18T15:48:04Z</time>
      </trkpt>
      <trkpt lat="38.038768" lon="-1.356085">
        <ele>221.046</ele>
        <time>2017-03-18T15:48:08Z</time>
      </trkpt>
      <trkpt lat="38.038867" lon="-1.356107">
        <ele>221.682</ele>
        <time>2017-03-18T15:48:12Z</time>
      </trkpt>
      <trkpt lat="38.038977" lon="-1.356143">
        <ele>222.143</ele>
        <time>2017-03-18T15:48:16Z</time>
      </trkpt>
      <trkpt lat="38.039077" lon="-1.356196">
        <ele>224.317</ele>
        <time>2017-03-18T15:48:57Z</time>
      </trkpt>
      <trkpt lat="38.039174" lon="-1.356230">
        <ele>225.308</ele>
        <time>2017-03-18T15:49:02Z</time>
      </trkpt>
      <trkpt lat="38.039273" lon="-1.356245">
        <ele>225.869</ele>
        <time>2017-03-18T15:49:06Z</time>
      </trkpt>
      <trkpt lat="38.039362" lon="-1.356262">
        <ele>226.554</ele>
        <time>2017-03-18T15:49:12Z</time>
      </trkpt>
      <trkpt lat="38.039436" lon="-1.356126">
        <ele>231.166</ele>
        <time>2017-03-18T15:49:23Z</time>
      </trkpt>
      <trkpt lat="38.039480" lon="-1.356024">
        <ele>231.551</ele>
        <time>2017-03-18T15:49:26Z</time>
      </trkpt>
      <trkpt lat="38.039533" lon="-1.355902">
        <ele>231.929</ele>
        <time>2017-03-18T15:49:30Z</time>
      </trkpt>
      <trkpt lat="38.039584" lon="-1.355787">
        <ele>232.273</ele>
        <time>2017-03-18T15:49:33Z</time>
      </trkpt>
      <trkpt lat="38.039634" lon="-1.355674">
        <ele>232.569</ele>
        <time>2017-03-18T15:49:36Z</time>
      </trkpt>
      <trkpt lat="38.039686" lon="-1.355563">
        <ele>232.919</ele>
        <time>2017-03-18T15:49:39Z</time>
      </trkpt>
      <trkpt lat="38.039739" lon="-1.355448">
        <ele>236.368</ele>
        <time>2017-03-18T15:49:42Z</time>
      </trkpt>
      <trkpt lat="38.039799" lon="-1.355331">
        <ele>238.242</ele>
        <time>2017-03-18T15:49:45Z</time>
      </trkpt>
      <trkpt lat="38.039858" lon="-1.355220">
        <ele>238.726</ele>
        <time>2017-03-18T15:49:48Z</time>
      </trkpt>
      <trkpt lat="38.039919" lon="-1.355094">
        <ele>239.708</ele>
        <time>2017-03-18T15:49:51Z</time>
      </trkpt>
      <trkpt lat="38.039983" lon="-1.354953">
        <ele>239.737</ele>
        <time>2017-03-18T15:49:55Z</time>
      </trkpt>
      <trkpt lat="38.040046" lon="-1.354816">
        <ele>239.552</ele>
        <time>2017-03-18T15:49:59Z</time>
      </trkpt>
      <trkpt lat="38.040096" lon="-1.354690">
        <ele>239.554</ele>
        <time>2017-03-18T15:50:02Z</time>
      </trkpt>
      <trkpt lat="38.040131" lon="-1.354570">
        <ele>238.969</ele>
        <time>2017-03-18T15:50:05Z</time>
      </trkpt>
      <trkpt lat="38.040188" lon="-1.354436">
        <ele>237.757</ele>
        <time>2017-03-18T15:50:08Z</time>
      </trkpt>
      <trkpt lat="38.040244" lon="-1.354316">
        <ele>237.511</ele>
        <time>2017-03-18T15:50:11Z</time>
      </trkpt>
      <trkpt lat="38.040319" lon="-1.354228">
        <ele>236.657</ele>
        <time>2017-03-18T15:50:14Z</time>
      </trkpt>
      <trkpt lat="38.040394" lon="-1.354123">
        <ele>235.587</ele>
        <time>2017-03-18T15:50:17Z</time>
      </trkpt>
      <trkpt lat="38.040490" lon="-1.354011">
        <ele>236.255</ele>
        <time>2017-03-18T15:50:20Z</time>
      </trkpt>
      <trkpt lat="38.040573" lon="-1.353924">
        <ele>237.307</ele>
        <time>2017-03-18T15:50:22Z</time>
      </trkpt>
      <trkpt lat="38.040670" lon="-1.353836">
        <ele>237.117</ele>
        <time>2017-03-18T15:50:24Z</time>
      </trkpt>
      <trkpt lat="38.040757" lon="-1.353750">
        <ele>237.108</ele>
        <time>2017-03-18T15:50:26Z</time>
      </trkpt>
      <trkpt lat="38.040872" lon="-1.353673">
        <ele>237.156</ele>
        <time>2017-03-18T15:50:29Z</time>
      </trkpt>
      <trkpt lat="38.040958" lon="-1.353598">
        <ele>235.921</ele>
        <time>2017-03-18T15:50:31Z</time>
      </trkpt>
      <trkpt lat="38.041035" lon="-1.353518">
        <ele>234.693</ele>
        <time>2017-03-18T15:50:33Z</time>
      </trkpt>
      <trkpt lat="38.041101" lon="-1.353438">
        <ele>233.938</ele>
        <time>2017-03-18T15:50:35Z</time>
      </trkpt>
      <trkpt lat="38.041210" lon="-1.353387">
        <ele>234.316</ele>
        <time>2017-03-18T15:50:47Z</time>
      </trkpt>
      <trkpt lat="38.041295" lon="-1.353346">
        <ele>234.530</ele>
        <time>2017-03-18T15:50:49Z</time>
      </trkpt>
      <trkpt lat="38.041411" lon="-1.353283">
        <ele>235.666</ele>
        <time>2017-03-18T15:50:52Z</time>
      </trkpt>
      <trkpt lat="38.041507" lon="-1.353228">
        <ele>235.766</ele>
        <time>2017-03-18T15:50:55Z</time>
      </trkpt>
      <trkpt lat="38.041611" lon="-1.353150">
        <ele>235.432</ele>
        <time>2017-03-18T15:50:58Z</time>
      </trkpt>
      <trkpt lat="38.041722" lon="-1.353066">
        <ele>233.992</ele>
        <time>2017-03-18T15:51:01Z</time>
      </trkpt>
      <trkpt lat="38.041884" lon="-1.352993">
        <ele>232.111</ele>
        <time>2017-03-18T15:51:04Z</time>
      </trkpt>
      <trkpt lat="38.041985" lon="-1.352928">
        <ele>233.108</ele>
        <time>2017-03-18T15:51:07Z</time>
      </trkpt>
      <trkpt lat="38.042084" lon="-1.352871">
        <ele>235.344</ele>
        <time>2017-03-18T15:51:10Z</time>
      </trkpt>
      <trkpt lat="38.042170" lon="-1.352817">
        <ele>235.339</ele>
        <time>2017-03-18T15:51:12Z</time>
      </trkpt>
      <trkpt lat="38.042262" lon="-1.352762">
        <ele>234.171</ele>
        <time>2017-03-18T15:51:14Z</time>
      </trkpt>
      <trkpt lat="38.042376" lon="-1.352693">
        <ele>234.316</ele>
        <time>2017-03-18T15:51:17Z</time>
      </trkpt>
      <trkpt lat="38.042503" lon="-1.352605">
        <ele>234.864</ele>
        <time>2017-03-18T15:51:20Z</time>
      </trkpt>
      <trkpt lat="38.042600" lon="-1.352533">
        <ele>233.558</ele>
        <time>2017-03-18T15:51:22Z</time>
      </trkpt>
      <trkpt lat="38.042701" lon="-1.352456">
        <ele>231.864</ele>
        <time>2017-03-18T15:51:24Z</time>
      </trkpt>
      <trkpt lat="38.042794" lon="-1.352379">
        <ele>230.494</ele>
        <time>2017-03-18T15:51:26Z</time>
      </trkpt>
      <trkpt lat="38.042897" lon="-1.352290">
        <ele>229.129</ele>
        <time>2017-03-18T15:51:28Z</time>
      </trkpt>
      <trkpt lat="38.043007" lon="-1.352195">
        <ele>227.100</ele>
        <time>2017-03-18T15:51:30Z</time>
      </trkpt>
      <trkpt lat="38.043114" lon="-1.352097">
        <ele>226.020</ele>
        <time>2017-03-18T15:51:32Z</time>
      </trkpt>
      <trkpt lat="38.043224" lon="-1.351998">
        <ele>225.008</ele>
        <time>2017-03-18T15:51:34Z</time>
      </trkpt>
      <trkpt lat="38.043318" lon="-1.351912">
        <ele>224.063</ele>
        <time>2017-03-18T15:51:36Z</time>
      </trkpt>
      <trkpt lat="38.043414" lon="-1.351828">
        <ele>223.478</ele>
        <time>2017-03-18T15:51:38Z</time>
      </trkpt>
      <trkpt lat="38.043503" lon="-1.351754">
        <ele>223.270</ele>
        <time>2017-03-18T15:51:41Z</time>
      </trkpt>
      <trkpt lat="38.043582" lon="-1.351692">
        <ele>223.235</ele>
        <time>2017-03-18T15:51:43Z</time>
      </trkpt>
      <trkpt lat="38.043659" lon="-1.351628">
        <ele>223.583</ele>
        <time>2017-03-18T15:51:45Z</time>
      </trkpt>
      <trkpt lat="38.043743" lon="-1.351561">
        <ele>223.977</ele>
        <time>2017-03-18T15:51:47Z</time>
      </trkpt>
      <trkpt lat="38.043828" lon="-1.351492">
        <ele>224.423</ele>
        <time>2017-03-18T15:51:49Z</time>
      </trkpt>
      <trkpt lat="38.043916" lon="-1.351420">
        <ele>224.843</ele>
        <time>2017-03-18T15:51:51Z</time>
      </trkpt>
      <trkpt lat="38.044019" lon="-1.351335">
        <ele>224.483</ele>
        <time>2017-03-18T15:51:53Z</time>
      </trkpt>
      <trkpt lat="38.044109" lon="-1.351259">
        <ele>223.825</ele>
        <time>2017-03-18T15:51:55Z</time>
      </trkpt>
      <trkpt lat="38.044207" lon="-1.351178">
        <ele>223.417</ele>
        <time>2017-03-18T15:51:57Z</time>
      </trkpt>
      <trkpt lat="38.044307" lon="-1.351096">
        <ele>222.508</ele>
        <time>2017-03-18T15:51:59Z</time>
      </trkpt>
      <trkpt lat="38.044407" lon="-1.351011">
        <ele>221.689</ele>
        <time>2017-03-18T15:52:00Z</time>
      </trkpt>
      <trkpt lat="38.044495" lon="-1.350938">
        <ele>221.584</ele>
        <time>2017-03-18T15:52:02Z</time>
      </trkpt>
      <trkpt lat="38.044575" lon="-1.350865">
        <ele>221.726</ele>
        <time>2017-03-18T15:52:04Z</time>
      </trkpt>
      <trkpt lat="38.044667" lon="-1.350777">
        <ele>221.811</ele>
        <time>2017-03-18T15:52:06Z</time>
      </trkpt>
      <trkpt lat="38.044747" lon="-1.350691">
        <ele>221.669</ele>
        <time>2017-03-18T15:52:08Z</time>
      </trkpt>
      <trkpt lat="38.044813" lon="-1.350611">
        <ele>221.273</ele>
        <time>2017-03-18T15:52:10Z</time>
      </trkpt>
      <trkpt lat="38.044883" lon="-1.350525">
        <ele>221.389</ele>
        <time>2017-03-18T15:52:12Z</time>
      </trkpt>
      <trkpt lat="38.044987" lon="-1.350403">
        <ele>221.429</ele>
        <time>2017-03-18T15:52:15Z</time>
      </trkpt>
      <trkpt lat="38.045068" lon="-1.350299">
        <ele>220.945</ele>
        <time>2017-03-18T15:52:17Z</time>
      </trkpt>
      <trkpt lat="38.045144" lon="-1.350201">
        <ele>220.447</ele>
        <time>2017-03-18T15:52:19Z</time>
      </trkpt>
      <trkpt lat="38.045219" lon="-1.350104">
        <ele>220.211</ele>
        <time>2017-03-18T15:52:21Z</time>
      </trkpt>
      <trkpt lat="38.045267" lon="-1.350002">
        <ele>220.108</ele>
        <time>2017-03-18T15:52:23Z</time>
      </trkpt>
      <trkpt lat="38.045274" lon="-1.349881">
        <ele>219.755</ele>
        <time>2017-03-18T15:52:25Z</time>
      </trkpt>
      <trkpt lat="38.045199" lon="-1.349743">
        <ele>219.550</ele>
        <time>2017-03-18T15:52:28Z</time>
      </trkpt>
      <trkpt lat="38.045178" lon="-1.349626">
        <ele>219.682</ele>
        <time>2017-03-18T15:52:32Z</time>
      </trkpt>
      <trkpt lat="38.045244" lon="-1.349528">
        <ele>220.017</ele>
        <time>2017-03-18T15:52:38Z</time>
      </trkpt>
      <trkpt lat="38.045319" lon="-1.349414">
        <ele>220.665</ele>
        <time>2017-03-18T15:52:58Z</time>
      </trkpt>
      <trkpt lat="38.045414" lon="-1.349356">
        <ele>220.539</ele>
        <time>2017-03-18T15:53:02Z</time>
      </trkpt>
      <trkpt lat="38.045554" lon="-1.349369">
        <ele>219.335</ele>
        <time>2017-03-18T15:53:05Z</time>
      </trkpt>
      <trkpt lat="38.045662" lon="-1.349329">
        <ele>218.395</ele>
        <time>2017-03-18T15:53:08Z</time>
      </trkpt>
      <trkpt lat="38.045773" lon="-1.349258">
        <ele>217.477</ele>
        <time>2017-03-18T15:53:10Z</time>
      </trkpt>
      <trkpt lat="38.045863" lon="-1.349165">
        <ele>216.961</ele>
        <time>2017-03-18T15:53:12Z</time>
      </trkpt>
      <trkpt lat="38.045947" lon="-1.349052">
        <ele>217.027</ele>
        <time>2017-03-18T15:53:14Z</time>
      </trkpt>
      <trkpt lat="38.046033" lon="-1.348937">
        <ele>216.708</ele>
        <time>2017-03-18T15:53:16Z</time>
      </trkpt>
      <trkpt lat="38.046116" lon="-1.348825">
        <ele>216.548</ele>
        <time>2017-03-18T15:53:18Z</time>
      </trkpt>
      <trkpt lat="38.046205" lon="-1.348707">
        <ele>215.523</ele>
        <time>2017-03-18T15:53:20Z</time>
      </trkpt>
      <trkpt lat="38.046329" lon="-1.348533">
        <ele>214.285</ele>
        <time>2017-03-18T15:53:22Z</time>
      </trkpt>
      <trkpt lat="38.046417" lon="-1.348421">
        <ele>212.730</ele>
        <time>2017-03-18T15:53:24Z</time>
      </trkpt>
      <trkpt lat="38.046509" lon="-1.348307">
        <ele>211.238</ele>
        <time>2017-03-18T15:53:26Z</time>
      </trkpt>
      <trkpt lat="38.046617" lon="-1.348166">
        <ele>210.312</ele>
        <time>2017-03-18T15:53:28Z</time>
      </trkpt>
      <trkpt lat="38.046699" lon="-1.348060">
        <ele>210.378</ele>
        <time>2017-03-18T15:53:30Z</time>
      </trkpt>
      <trkpt lat="38.046769" lon="-1.347965">
        <ele>210.458</ele>
        <time>2017-03-18T15:53:35Z</time>
      </trkpt>
      <trkpt lat="38.046850" lon="-1.347852">
        <ele>210.894</ele>
        <time>2017-03-18T15:53:39Z</time>
      </trkpt>
      <trkpt lat="38.046934" lon="-1.347744">
        <ele>212.557</ele>
        <time>2017-03-18T15:53:42Z</time>
      </trkpt>
      <trkpt lat="38.047007" lon="-1.347644">
        <ele>213.422</ele>
        <time>2017-03-18T15:53:44Z</time>
      </trkpt>
      <trkpt lat="38.047079" lon="-1.347551">
        <ele>214.008</ele>
        <time>2017-03-18T15:53:46Z</time>
      </trkpt>
      <trkpt lat="38.047148" lon="-1.347456">
        <ele>214.580</ele>
        <time>2017-03-18T15:53:48Z</time>
      </trkpt>
      <trkpt lat="38.047220" lon="-1.347353">
        <ele>214.735</ele>
        <time>2017-03-18T15:53:50Z</time>
      </trkpt>
      <trkpt lat="38.047289" lon="-1.347253">
        <ele>214.547</ele>
        <time>2017-03-18T15:53:52Z</time>
      </trkpt>
      <trkpt lat="38.047357" lon="-1.347156">
        <ele>214.122</ele>
        <time>2017-03-18T15:53:54Z</time>
      </trkpt>
      <trkpt lat="38.047446" lon="-1.347029">
        <ele>214.090</ele>
        <time>2017-03-18T15:53:57Z</time>
      </trkpt>
      <trkpt lat="38.047537" lon="-1.346898">
        <ele>214.324</ele>
        <time>2017-03-18T15:54:00Z</time>
      </trkpt>
      <trkpt lat="38.047600" lon="-1.346811">
        <ele>214.730</ele>
        <time>2017-03-18T15:54:02Z</time>
      </trkpt>
      <trkpt lat="38.047673" lon="-1.346715">
        <ele>214.620</ele>
        <time>2017-03-18T15:54:04Z</time>
      </trkpt>
      <trkpt lat="38.047741" lon="-1.346620">
        <ele>214.631</ele>
        <time>2017-03-18T15:54:06Z</time>
      </trkpt>
      <trkpt lat="38.047808" lon="-1.346525">
        <ele>214.961</ele>
        <time>2017-03-18T15:54:08Z</time>
      </trkpt>
      <trkpt lat="38.047875" lon="-1.346430">
        <ele>214.807</ele>
        <time>2017-03-18T15:54:10Z</time>
      </trkpt>
      <trkpt lat="38.047942" lon="-1.346332">
        <ele>214.508</ele>
        <time>2017-03-18T15:54:12Z</time>
      </trkpt>
      <trkpt lat="38.048008" lon="-1.346241">
        <ele>214.634</ele>
        <time>2017-03-18T15:54:14Z</time>
      </trkpt>
      <trkpt lat="38.048072" lon="-1.346153">
        <ele>215.029</ele>
        <time>2017-03-18T15:54:16Z</time>
      </trkpt>
      <trkpt lat="38.048148" lon="-1.346053">
        <ele>215.151</ele>
        <time>2017-03-18T15:54:18Z</time>
      </trkpt>
      <trkpt lat="38.048224" lon="-1.345948">
        <ele>215.036</ele>
        <time>2017-03-18T15:54:20Z</time>
      </trkpt>
      <trkpt lat="38.048299" lon="-1.345841">
        <ele>214.614</ele>
        <time>2017-03-18T15:54:22Z</time>
      </trkpt>
      <trkpt lat="38.048366" lon="-1.345741">
        <ele>214.438</ele>
        <time>2017-03-18T15:54:25Z</time>
      </trkpt>
      <trkpt lat="38.048431" lon="-1.345651">
        <ele>214.224</ele>
        <time>2017-03-18T15:54:27Z</time>
      </trkpt>
      <trkpt lat="38.048498" lon="-1.345554">
        <ele>214.044</ele>
        <time>2017-03-18T15:54:28Z</time>
      </trkpt>
      <trkpt lat="38.048569" lon="-1.345460">
        <ele>213.929</ele>
        <time>2017-03-18T15:54:30Z</time>
      </trkpt>
      <trkpt lat="38.048644" lon="-1.345362">
        <ele>213.600</ele>
        <time>2017-03-18T15:54:32Z</time>
      </trkpt>
      <trkpt lat="38.048717" lon="-1.345265">
        <ele>213.120</ele>
        <time>2017-03-18T15:54:34Z</time>
      </trkpt>
      <trkpt lat="38.048783" lon="-1.345169">
        <ele>212.708</ele>
        <time>2017-03-18T15:54:36Z</time>
      </trkpt>
      <trkpt lat="38.048850" lon="-1.345075">
        <ele>212.573</ele>
        <time>2017-03-18T15:54:38Z</time>
      </trkpt>
      <trkpt lat="38.048916" lon="-1.344978">
        <ele>212.338</ele>
        <time>2017-03-18T15:54:40Z</time>
      </trkpt>
      <trkpt lat="38.048977" lon="-1.344875">
        <ele>212.240</ele>
        <time>2017-03-18T15:54:42Z</time>
      </trkpt>
      <trkpt lat="38.049027" lon="-1.344772">
        <ele>212.675</ele>
        <time>2017-03-18T15:54:44Z</time>
      </trkpt>
      <trkpt lat="38.049072" lon="-1.344672">
        <ele>213.133</ele>
        <time>2017-03-18T15:54:46Z</time>
      </trkpt>
      <trkpt lat="38.049148" lon="-1.344528">
        <ele>213.837</ele>
        <time>2017-03-18T15:54:49Z</time>
      </trkpt>
      <trkpt lat="38.049207" lon="-1.344407">
        <ele>213.873</ele>
        <time>2017-03-18T15:54:51Z</time>
      </trkpt>
      <trkpt lat="38.049262" lon="-1.344283">
        <ele>213.223</ele>
        <time>2017-03-18T15:54:53Z</time>
      </trkpt>
      <trkpt lat="38.049311" lon="-1.344170">
        <ele>212.925</ele>
        <time>2017-03-18T15:54:55Z</time>
      </trkpt>
      <trkpt lat="38.049353" lon="-1.344033">
        <ele>213.626</ele>
        <time>2017-03-18T15:54:58Z</time>
      </trkpt>
      <trkpt lat="38.049386" lon="-1.343907">
        <ele>213.808</ele>
        <time>2017-03-18T15:55:00Z</time>
      </trkpt>
      <trkpt lat="38.049429" lon="-1.343750">
        <ele>213.708</ele>
        <time>2017-03-18T15:55:03Z</time>
      </trkpt>
      <trkpt lat="38.049463" lon="-1.343597">
        <ele>213.483</ele>
        <time>2017-03-18T15:55:06Z</time>
      </trkpt>
      <trkpt lat="38.049491" lon="-1.343434">
        <ele>213.538</ele>
        <time>2017-03-18T15:55:09Z</time>
      </trkpt>
      <trkpt lat="38.049512" lon="-1.343283">
        <ele>213.830</ele>
        <time>2017-03-18T15:55:12Z</time>
      </trkpt>
      <trkpt lat="38.049531" lon="-1.343131">
        <ele>214.375</ele>
        <time>2017-03-18T15:55:15Z</time>
      </trkpt>
      <trkpt lat="38.049550" lon="-1.343007">
        <ele>215.073</ele>
        <time>2017-03-18T15:55:17Z</time>
      </trkpt>
      <trkpt lat="38.049573" lon="-1.342887">
        <ele>215.557</ele>
        <time>2017-03-18T15:55:19Z</time>
      </trkpt>
      <trkpt lat="38.049616" lon="-1.342778">
        <ele>216.283</ele>
        <time>2017-03-18T15:55:22Z</time>
      </trkpt>
      <trkpt lat="38.049705" lon="-1.342700">
        <ele>218.733</ele>
        <time>2017-03-18T15:55:25Z</time>
      </trkpt>
      <trkpt lat="38.049797" lon="-1.342613">
        <ele>218.894</ele>
        <time>2017-03-18T15:55:28Z</time>
      </trkpt>
      <trkpt lat="38.049888" lon="-1.342530">
        <ele>218.857</ele>
        <time>2017-03-18T15:55:31Z</time>
      </trkpt>
      <trkpt lat="38.049970" lon="-1.342453">
        <ele>218.822</ele>
        <time>2017-03-18T15:55:35Z</time>
      </trkpt>
      <trkpt lat="38.050035" lon="-1.342345">
        <ele>218.808</ele>
        <time>2017-03-18T15:55:39Z</time>
      </trkpt>
      <trkpt lat="38.049985" lon="-1.342228">
        <ele>218.960</ele>
        <time>2017-03-18T15:55:43Z</time>
      </trkpt>
      <trkpt lat="38.049896" lon="-1.342188">
        <ele>218.725</ele>
        <time>2017-03-18T15:55:47Z</time>
      </trkpt>
      <trkpt lat="38.049906" lon="-1.342056">
        <ele>218.397</ele>
        <time>2017-03-18T15:55:55Z</time>
      </trkpt>
      <trkpt lat="38.049849" lon="-1.341958">
        <ele>218.242</ele>
        <time>2017-03-18T15:55:59Z</time>
      </trkpt>
      <trkpt lat="38.049859" lon="-1.341808">
        <ele>218.140</ele>
        <time>2017-03-18T15:56:02Z</time>
      </trkpt>
      <trkpt lat="38.049921" lon="-1.341697">
        <ele>217.364</ele>
        <time>2017-03-18T15:56:05Z</time>
      </trkpt>
      <trkpt lat="38.050003" lon="-1.341597">
        <ele>216.340</ele>
        <time>2017-03-18T15:56:08Z</time>
      </trkpt>
      <trkpt lat="38.050105" lon="-1.341500">
        <ele>215.850</ele>
        <time>2017-03-18T15:56:11Z</time>
      </trkpt>
      <trkpt lat="38.050199" lon="-1.341420">
        <ele>215.783</ele>
        <time>2017-03-18T15:56:14Z</time>
      </trkpt>
      <trkpt lat="38.050297" lon="-1.341346">
        <ele>215.525</ele>
        <time>2017-03-18T15:56:17Z</time>
      </trkpt>
      <trkpt lat="38.050398" lon="-1.341282">
        <ele>215.617</ele>
        <time>2017-03-18T15:56:20Z</time>
      </trkpt>
      <trkpt lat="38.050497" lon="-1.341216">
        <ele>215.908</ele>
        <time>2017-03-18T15:56:23Z</time>
      </trkpt>
      <trkpt lat="38.050582" lon="-1.341138">
        <ele>216.169</ele>
        <time>2017-03-18T15:56:26Z</time>
      </trkpt>
      <trkpt lat="38.050613" lon="-1.340999">
        <ele>216.234</ele>
        <time>2017-03-18T15:56:29Z</time>
      </trkpt>
      <trkpt lat="38.050619" lon="-1.340884">
        <ele>216.326</ele>
        <time>2017-03-18T15:56:32Z</time>
      </trkpt>
      <trkpt lat="38.050705" lon="-1.340811">
        <ele>216.671</ele>
        <time>2017-03-18T15:56:36Z</time>
      </trkpt>
      <trkpt lat="38.050814" lon="-1.340778">
        <ele>216.849</ele>
        <time>2017-03-18T15:56:40Z</time>
      </trkpt>
      <trkpt lat="38.050913" lon="-1.340755">
        <ele>217.113</ele>
        <time>2017-03-18T15:56:45Z</time>
      </trkpt>
      <trkpt lat="38.051008" lon="-1.340731">
        <ele>217.469</ele>
        <time>2017-03-18T15:56:48Z</time>
      </trkpt>
      <trkpt lat="38.051101" lon="-1.340709">
        <ele>217.739</ele>
        <time>2017-03-18T15:56:52Z</time>
      </trkpt>
      <trkpt lat="38.051015" lon="-1.340771">
        <ele>219.546</ele>
        <time>2017-03-18T15:57:39Z</time>
      </trkpt>
      <trkpt lat="38.050902" lon="-1.340816">
        <ele>219.588</ele>
        <time>2017-03-18T15:57:43Z</time>
      </trkpt>
      <trkpt lat="38.050807" lon="-1.340838">
        <ele>219.416</ele>
        <time>2017-03-18T15:57:46Z</time>
      </trkpt>
      <trkpt lat="38.050700" lon="-1.340853">
        <ele>219.208</ele>
        <time>2017-03-18T15:57:49Z</time>
      </trkpt>
      <trkpt lat="38.050601" lon="-1.340886">
        <ele>218.775</ele>
        <time>2017-03-18T15:57:52Z</time>
      </trkpt>
      <trkpt lat="38.050504" lon="-1.340914">
        <ele>218.380</ele>
        <time>2017-03-18T15:57:56Z</time>
      </trkpt>
      <trkpt lat="38.050379" lon="-1.340909">
        <ele>217.712</ele>
        <time>2017-03-18T15:58:00Z</time>
      </trkpt>
      <trkpt lat="38.050281" lon="-1.340881">
        <ele>217.647</ele>
        <time>2017-03-18T15:58:03Z</time>
      </trkpt>
      <trkpt lat="38.050170" lon="-1.340832">
        <ele>218.295</ele>
        <time>2017-03-18T15:58:06Z</time>
      </trkpt>
      <trkpt lat="38.050077" lon="-1.340768">
        <ele>218.629</ele>
        <time>2017-03-18T15:58:09Z</time>
      </trkpt>
      <trkpt lat="38.050003" lon="-1.340704">
        <ele>219.425</ele>
        <time>2017-03-18T15:58:12Z</time>
      </trkpt>
      <trkpt lat="38.049910" lon="-1.340632">
        <ele>220.515</ele>
        <time>2017-03-18T15:58:15Z</time>
      </trkpt>
      <trkpt lat="38.049807" lon="-1.340569">
        <ele>223.246</ele>
        <time>2017-03-18T15:58:18Z</time>
      </trkpt>
      <trkpt lat="38.049722" lon="-1.340515">
        <ele>223.288</ele>
        <time>2017-03-18T15:58:21Z</time>
      </trkpt>
      <trkpt lat="38.049651" lon="-1.340436">
        <ele>222.616</ele>
        <time>2017-03-18T15:58:25Z</time>
      </trkpt>
      <trkpt lat="38.049640" lon="-1.340310">
        <ele>222.508</ele>
        <time>2017-03-18T15:58:28Z</time>
      </trkpt>
      <trkpt lat="38.049687" lon="-1.340183">
        <ele>221.815</ele>
        <time>2017-03-18T15:58:31Z</time>
      </trkpt>
      <trkpt lat="38.049743" lon="-1.340050">
        <ele>220.670</ele>
        <time>2017-03-18T15:58:34Z</time>
      </trkpt>
      <trkpt lat="38.049783" lon="-1.339942">
        <ele>220.982</ele>
        <time>2017-03-18T15:58:36Z</time>
      </trkpt>
      <trkpt lat="38.049820" lon="-1.339815">
        <ele>221.927</ele>
        <time>2017-03-18T15:58:38Z</time>
      </trkpt>
      <trkpt lat="38.049869" lon="-1.339660">
        <ele>224.175</ele>
        <time>2017-03-18T15:58:41Z</time>
      </trkpt>
      <trkpt lat="38.049913" lon="-1.339529">
        <ele>226.369</ele>
        <time>2017-03-18T15:58:44Z</time>
      </trkpt>
      <trkpt lat="38.049961" lon="-1.339383">
        <ele>226.765</ele>
        <time>2017-03-18T15:58:47Z</time>
      </trkpt>
      <trkpt lat="38.049978" lon="-1.339270">
        <ele>226.215</ele>
        <time>2017-03-18T15:58:49Z</time>
      </trkpt>
      <trkpt lat="38.050000" lon="-1.339107">
        <ele>225.822</ele>
        <time>2017-03-18T15:58:51Z</time>
      </trkpt>
      <trkpt lat="38.050017" lon="-1.338973">
        <ele>225.662</ele>
        <time>2017-03-18T15:58:54Z</time>
      </trkpt>
      <trkpt lat="38.050047" lon="-1.338857">
        <ele>225.408</ele>
        <time>2017-03-18T15:58:57Z</time>
      </trkpt>
      <trkpt lat="38.050087" lon="-1.338722">
        <ele>225.108</ele>
        <time>2017-03-18T15:59:01Z</time>
      </trkpt>
      <trkpt lat="38.050066" lon="-1.338585">
        <ele>224.943</ele>
        <time>2017-03-18T15:59:07Z</time>
      </trkpt>
      <trkpt lat="38.049989" lon="-1.338509">
        <ele>225.088</ele>
        <time>2017-03-18T15:59:10Z</time>
      </trkpt>
      <trkpt lat="38.049972" lon="-1.338376">
        <ele>225.480</ele>
        <time>2017-03-18T15:59:14Z</time>
      </trkpt>
      <trkpt lat="38.050004" lon="-1.338221">
        <ele>225.715</ele>
        <time>2017-03-18T15:59:18Z</time>
      </trkpt>
      <trkpt lat="38.049996" lon="-1.338092">
        <ele>225.733</ele>
        <time>2017-03-18T15:59:21Z</time>
      </trkpt>
      <trkpt lat="38.049928" lon="-1.338005">
        <ele>225.987</ele>
        <time>2017-03-18T15:59:24Z</time>
      </trkpt>
      <trkpt lat="38.049815" lon="-1.337944">
        <ele>226.413</ele>
        <time>2017-03-18T15:59:27Z</time>
      </trkpt>
      <trkpt lat="38.049696" lon="-1.337880">
        <ele>227.093</ele>
        <time>2017-03-18T15:59:30Z</time>
      </trkpt>
      <trkpt lat="38.049610" lon="-1.337825">
        <ele>226.812</ele>
        <time>2017-03-18T15:59:33Z</time>
      </trkpt>
      <trkpt lat="38.049501" lon="-1.337757">
        <ele>225.932</ele>
        <time>2017-03-18T15:59:36Z</time>
      </trkpt>
      <trkpt lat="38.049389" lon="-1.337696">
        <ele>224.005</ele>
        <time>2017-03-18T15:59:39Z</time>
      </trkpt>
      <trkpt lat="38.049296" lon="-1.337645">
        <ele>223.108</ele>
        <time>2017-03-18T15:59:41Z</time>
      </trkpt>
      <trkpt lat="38.049206" lon="-1.337594">
        <ele>222.542</ele>
        <time>2017-03-18T15:59:43Z</time>
      </trkpt>
      <trkpt lat="38.049119" lon="-1.337544">
        <ele>222.547</ele>
        <time>2017-03-18T15:59:45Z</time>
      </trkpt>
      <trkpt lat="38.049016" lon="-1.337482">
        <ele>222.459</ele>
        <time>2017-03-18T15:59:48Z</time>
      </trkpt>
      <trkpt lat="38.048927" lon="-1.337405">
        <ele>222.484</ele>
        <time>2017-03-18T15:59:54Z</time>
      </trkpt>
      <trkpt lat="38.048847" lon="-1.337291">
        <ele>222.352</ele>
        <time>2017-03-18T15:59:58Z</time>
      </trkpt>
      <trkpt lat="38.048763" lon="-1.337221">
        <ele>222.066</ele>
        <time>2017-03-18T16:00:01Z</time>
      </trkpt>
      <trkpt lat="38.048656" lon="-1.337137">
        <ele>222.022</ele>
        <time>2017-03-18T16:00:04Z</time>
      </trkpt>
      <trkpt lat="38.048564" lon="-1.337076">
        <ele>222.022</ele>
        <time>2017-03-18T16:00:08Z</time>
      </trkpt>
      <trkpt lat="38.048468" lon="-1.337014">
        <ele>221.989</ele>
        <time>2017-03-18T16:00:11Z</time>
      </trkpt>
      <trkpt lat="38.048378" lon="-1.336956">
        <ele>221.006</ele>
        <time>2017-03-18T16:00:13Z</time>
      </trkpt>
      <trkpt lat="38.048290" lon="-1.336896">
        <ele>219.726</ele>
        <time>2017-03-18T16:00:15Z</time>
      </trkpt>
      <trkpt lat="38.048179" lon="-1.336825">
        <ele>217.108</ele>
        <time>2017-03-18T16:00:18Z</time>
      </trkpt>
      <trkpt lat="38.048073" lon="-1.336759">
        <ele>215.249</ele>
        <time>2017-03-18T16:00:21Z</time>
      </trkpt>
      <trkpt lat="38.047975" lon="-1.336754">
        <ele>214.724</ele>
        <time>2017-03-18T16:00:34Z</time>
      </trkpt>
      <trkpt lat="38.047870" lon="-1.336786">
        <ele>215.326</ele>
        <time>2017-03-18T16:00:41Z</time>
      </trkpt>
      <trkpt lat="38.047851" lon="-1.336673">
        <ele>208.051</ele>
        <time>2017-03-18T16:01:02Z</time>
      </trkpt>
      <trkpt lat="38.047821" lon="-1.336564">
        <ele>205.729</ele>
        <time>2017-03-18T16:01:19Z</time>
      </trkpt>
      <trkpt lat="38.047802" lon="-1.336449">
        <ele>205.783</ele>
        <time>2017-03-18T16:01:22Z</time>
      </trkpt>
      <trkpt lat="38.047767" lon="-1.336335">
        <ele>205.889</ele>
        <time>2017-03-18T16:01:24Z</time>
      </trkpt>
      <trkpt lat="38.047735" lon="-1.336194">
        <ele>206.169</ele>
        <time>2017-03-18T16:01:27Z</time>
      </trkpt>
      <trkpt lat="38.047703" lon="-1.336077">
        <ele>206.395</ele>
        <time>2017-03-18T16:01:29Z</time>
      </trkpt>
      <trkpt lat="38.047656" lon="-1.335928">
        <ele>206.349</ele>
        <time>2017-03-18T16:01:32Z</time>
      </trkpt>
      <trkpt lat="38.047619" lon="-1.335816">
        <ele>206.223</ele>
        <time>2017-03-18T16:01:34Z</time>
      </trkpt>
      <trkpt lat="38.047588" lon="-1.335694">
        <ele>205.908</ele>
        <time>2017-03-18T16:01:36Z</time>
      </trkpt>
      <trkpt lat="38.047554" lon="-1.335574">
        <ele>205.270</ele>
        <time>2017-03-18T16:01:38Z</time>
      </trkpt>
      <trkpt lat="38.047516" lon="-1.335439">
        <ele>204.895</ele>
        <time>2017-03-18T16:01:40Z</time>
      </trkpt>
      <trkpt lat="38.047481" lon="-1.335324">
        <ele>204.777</ele>
        <time>2017-03-18T16:01:42Z</time>
      </trkpt>
      <trkpt lat="38.047448" lon="-1.335217">
        <ele>204.722</ele>
        <time>2017-03-18T16:01:44Z</time>
      </trkpt>
      <trkpt lat="38.047402" lon="-1.335094">
        <ele>204.390</ele>
        <time>2017-03-18T16:01:46Z</time>
      </trkpt>
      <trkpt lat="38.047338" lon="-1.334931">
        <ele>204.034</ele>
        <time>2017-03-18T16:01:49Z</time>
      </trkpt>
      <trkpt lat="38.047283" lon="-1.334800">
        <ele>203.960</ele>
        <time>2017-03-18T16:01:51Z</time>
      </trkpt>
      <trkpt lat="38.047231" lon="-1.334695">
        <ele>203.610</ele>
        <time>2017-03-18T16:01:53Z</time>
      </trkpt>
      <trkpt lat="38.047182" lon="-1.334596">
        <ele>203.481</ele>
        <time>2017-03-18T16:01:55Z</time>
      </trkpt>
      <trkpt lat="38.047113" lon="-1.334465">
        <ele>203.961</ele>
        <time>2017-03-18T16:01:58Z</time>
      </trkpt>
      <trkpt lat="38.047036" lon="-1.334341">
        <ele>203.917</ele>
        <time>2017-03-18T16:02:01Z</time>
      </trkpt>
      <trkpt lat="38.046970" lon="-1.334246">
        <ele>203.808</ele>
        <time>2017-03-18T16:02:03Z</time>
      </trkpt>
      <trkpt lat="38.046901" lon="-1.334146">
        <ele>203.839</ele>
        <time>2017-03-18T16:02:05Z</time>
      </trkpt>
      <trkpt lat="38.046835" lon="-1.334052">
        <ele>204.264</ele>
        <time>2017-03-18T16:02:07Z</time>
      </trkpt>
      <trkpt lat="38.046746" lon="-1.333928">
        <ele>204.546</ele>
        <time>2017-03-18T16:02:10Z</time>
      </trkpt>
      <trkpt lat="38.046687" lon="-1.333841">
        <ele>204.811</ele>
        <time>2017-03-18T16:02:12Z</time>
      </trkpt>
      <trkpt lat="38.046614" lon="-1.333749">
        <ele>205.839</ele>
        <time>2017-03-18T16:02:14Z</time>
      </trkpt>
      <trkpt lat="38.046537" lon="-1.333664">
        <ele>207.723</ele>
        <time>2017-03-18T16:02:17Z</time>
      </trkpt>
      <trkpt lat="38.046468" lon="-1.333561">
        <ele>209.149</ele>
        <time>2017-03-18T16:02:19Z</time>
      </trkpt>
      <trkpt lat="38.046389" lon="-1.333472">
        <ele>209.339</ele>
        <time>2017-03-18T16:02:21Z</time>
      </trkpt>
      <trkpt lat="38.046320" lon="-1.333390">
        <ele>209.352</ele>
        <time>2017-03-18T16:02:23Z</time>
      </trkpt>
      <trkpt lat="38.046258" lon="-1.333299">
        <ele>209.353</ele>
        <time>2017-03-18T16:02:25Z</time>
      </trkpt>
      <trkpt lat="38.046200" lon="-1.333201">
        <ele>209.208</ele>
        <time>2017-03-18T16:02:27Z</time>
      </trkpt>
      <trkpt lat="38.046134" lon="-1.333108">
        <ele>209.608</ele>
        <time>2017-03-18T16:02:29Z</time>
      </trkpt>
      <trkpt lat="38.046065" lon="-1.333019">
        <ele>210.786</ele>
        <time>2017-03-18T16:02:31Z</time>
      </trkpt>
      <trkpt lat="38.046001" lon="-1.332936">
        <ele>211.551</ele>
        <time>2017-03-18T16:02:32Z</time>
      </trkpt>
      <trkpt lat="38.045939" lon="-1.332850">
        <ele>212.233</ele>
        <time>2017-03-18T16:02:34Z</time>
      </trkpt>
      <trkpt lat="38.045874" lon="-1.332759">
        <ele>213.338</ele>
        <time>2017-03-18T16:02:36Z</time>
      </trkpt>
      <trkpt lat="38.045811" lon="-1.332665">
        <ele>213.866</ele>
        <time>2017-03-18T16:02:39Z</time>
      </trkpt>
      <trkpt lat="38.045747" lon="-1.332564">
        <ele>214.230</ele>
        <time>2017-03-18T16:02:41Z</time>
      </trkpt>
      <trkpt lat="38.045686" lon="-1.332471">
        <ele>214.056</ele>
        <time>2017-03-18T16:02:43Z</time>
      </trkpt>
      <trkpt lat="38.045624" lon="-1.332388">
        <ele>213.656</ele>
        <time>2017-03-18T16:02:45Z</time>
      </trkpt>
      <trkpt lat="38.045532" lon="-1.332261">
        <ele>211.875</ele>
        <time>2017-03-18T16:02:48Z</time>
      </trkpt>
      <trkpt lat="38.045428" lon="-1.332111">
        <ele>210.128</ele>
        <time>2017-03-18T16:02:50Z</time>
      </trkpt>
      <trkpt lat="38.045371" lon="-1.332016">
        <ele>208.720</ele>
        <time>2017-03-18T16:02:52Z</time>
      </trkpt>
      <trkpt lat="38.045318" lon="-1.331913">
        <ele>207.508</ele>
        <time>2017-03-18T16:02:54Z</time>
      </trkpt>
      <trkpt lat="38.045267" lon="-1.331812">
        <ele>206.668</ele>
        <time>2017-03-18T16:02:56Z</time>
      </trkpt>
      <trkpt lat="38.045213" lon="-1.331704">
        <ele>205.733</ele>
        <time>2017-03-18T16:02:58Z</time>
      </trkpt>
      <trkpt lat="38.045172" lon="-1.331589">
        <ele>205.665</ele>
        <time>2017-03-18T16:03:00Z</time>
      </trkpt>
      <trkpt lat="38.045118" lon="-1.331456">
        <ele>205.670</ele>
        <time>2017-03-18T16:03:03Z</time>
      </trkpt>
      <trkpt lat="38.045070" lon="-1.331306">
        <ele>206.358</ele>
        <time>2017-03-18T16:03:06Z</time>
      </trkpt>
      <trkpt lat="38.045035" lon="-1.331197">
        <ele>207.152</ele>
        <time>2017-03-18T16:03:08Z</time>
      </trkpt>
      <trkpt lat="38.045000" lon="-1.331082">
        <ele>207.518</ele>
        <time>2017-03-18T16:03:10Z</time>
      </trkpt>
      <trkpt lat="38.044965" lon="-1.330924">
        <ele>207.918</ele>
        <time>2017-03-18T16:03:13Z</time>
      </trkpt>
      <trkpt lat="38.044943" lon="-1.330812">
        <ele>208.442</ele>
        <time>2017-03-18T16:03:15Z</time>
      </trkpt>
      <trkpt lat="38.044912" lon="-1.330651">
        <ele>209.222</ele>
        <time>2017-03-18T16:03:18Z</time>
      </trkpt>
      <trkpt lat="38.044905" lon="-1.330533">
        <ele>209.514</ele>
        <time>2017-03-18T16:03:20Z</time>
      </trkpt>
      <trkpt lat="38.044905" lon="-1.330417">
        <ele>209.308</ele>
        <time>2017-03-18T16:03:22Z</time>
      </trkpt>
      <trkpt lat="38.044903" lon="-1.330278">
        <ele>209.385</ele>
        <time>2017-03-18T16:03:24Z</time>
      </trkpt>
      <trkpt lat="38.044894" lon="-1.330154">
        <ele>209.780</ele>
        <time>2017-03-18T16:03:26Z</time>
      </trkpt>
      <trkpt lat="38.044896" lon="-1.330029">
        <ele>209.422</ele>
        <time>2017-03-18T16:03:28Z</time>
      </trkpt>
      <trkpt lat="38.044901" lon="-1.329904">
        <ele>208.487</ele>
        <time>2017-03-18T16:03:30Z</time>
      </trkpt>
      <trkpt lat="38.044902" lon="-1.329781">
        <ele>207.715</ele>
        <time>2017-03-18T16:03:32Z</time>
      </trkpt>
      <trkpt lat="38.044907" lon="-1.329652">
        <ele>207.639</ele>
        <time>2017-03-18T16:03:34Z</time>
      </trkpt>
      <trkpt lat="38.044924" lon="-1.329530">
        <ele>207.925</ele>
        <time>2017-03-18T16:03:36Z</time>
      </trkpt>
      <trkpt lat="38.044933" lon="-1.329403">
        <ele>208.275</ele>
        <time>2017-03-18T16:03:38Z</time>
      </trkpt>
      <trkpt lat="38.044945" lon="-1.329279">
        <ele>208.891</ele>
        <time>2017-03-18T16:03:40Z</time>
      </trkpt>
      <trkpt lat="38.044954" lon="-1.329150">
        <ele>209.481</ele>
        <time>2017-03-18T16:03:42Z</time>
      </trkpt>
      <trkpt lat="38.044970" lon="-1.329031">
        <ele>209.619</ele>
        <time>2017-03-18T16:03:44Z</time>
      </trkpt>
      <trkpt lat="38.045001" lon="-1.328894">
        <ele>208.908</ele>
        <time>2017-03-18T16:03:46Z</time>
      </trkpt>
      <trkpt lat="38.045032" lon="-1.328759">
        <ele>207.470</ele>
        <time>2017-03-18T16:03:48Z</time>
      </trkpt>
      <trkpt lat="38.045053" lon="-1.328639">
        <ele>206.645</ele>
        <time>2017-03-18T16:03:51Z</time>
      </trkpt>
      <trkpt lat="38.045078" lon="-1.328496">
        <ele>205.567</ele>
        <time>2017-03-18T16:03:53Z</time>
      </trkpt>
      <trkpt lat="38.045111" lon="-1.328303">
        <ele>204.562</ele>
        <time>2017-03-18T16:03:55Z</time>
      </trkpt>
      <trkpt lat="38.045146" lon="-1.328176">
        <ele>204.260</ele>
        <time>2017-03-18T16:03:57Z</time>
      </trkpt>
      <trkpt lat="38.045183" lon="-1.328040">
        <ele>203.964</ele>
        <time>2017-03-18T16:03:59Z</time>
      </trkpt>
      <trkpt lat="38.045207" lon="-1.327915">
        <ele>204.090</ele>
        <time>2017-03-18T16:04:01Z</time>
      </trkpt>
      <trkpt lat="38.045218" lon="-1.327793">
        <ele>204.040</ele>
        <time>2017-03-18T16:04:03Z</time>
      </trkpt>
      <trkpt lat="38.045240" lon="-1.327626">
        <ele>204.291</ele>
        <time>2017-03-18T16:04:06Z</time>
      </trkpt>
      <trkpt lat="38.045262" lon="-1.327480">
        <ele>204.881</ele>
        <time>2017-03-18T16:04:09Z</time>
      </trkpt>
      <trkpt lat="38.045289" lon="-1.327267">
        <ele>204.619</ele>
        <time>2017-03-18T16:04:13Z</time>
      </trkpt>
      <trkpt lat="38.045308" lon="-1.327116">
        <ele>204.808</ele>
        <time>2017-03-18T16:04:16Z</time>
      </trkpt>
      <trkpt lat="38.045328" lon="-1.326960">
        <ele>205.320</ele>
        <time>2017-03-18T16:04:19Z</time>
      </trkpt>
      <trkpt lat="38.045342" lon="-1.326832">
        <ele>205.425</ele>
        <time>2017-03-18T16:04:21Z</time>
      </trkpt>
      <trkpt lat="38.045361" lon="-1.326714">
        <ele>205.517</ele>
        <time>2017-03-18T16:04:23Z</time>
      </trkpt>
      <trkpt lat="38.045387" lon="-1.326599">
        <ele>205.262</ele>
        <time>2017-03-18T16:04:25Z</time>
      </trkpt>
      <trkpt lat="38.045414" lon="-1.326466">
        <ele>205.280</ele>
        <time>2017-03-18T16:04:27Z</time>
      </trkpt>
      <trkpt lat="38.045442" lon="-1.326338">
        <ele>205.854</ele>
        <time>2017-03-18T16:04:29Z</time>
      </trkpt>
      <trkpt lat="38.045469" lon="-1.326211">
        <ele>206.640</ele>
        <time>2017-03-18T16:04:31Z</time>
      </trkpt>
      <trkpt lat="38.045489" lon="-1.326090">
        <ele>207.230</ele>
        <time>2017-03-18T16:04:33Z</time>
      </trkpt>
      <trkpt lat="38.045510" lon="-1.325956">
        <ele>207.748</ele>
        <time>2017-03-18T16:04:35Z</time>
      </trkpt>
      <trkpt lat="38.045533" lon="-1.325832">
        <ele>207.361</ele>
        <time>2017-03-18T16:04:37Z</time>
      </trkpt>
      <trkpt lat="38.045554" lon="-1.325712">
        <ele>207.317</ele>
        <time>2017-03-18T16:04:39Z</time>
      </trkpt>
      <trkpt lat="38.045575" lon="-1.325558">
        <ele>208.408</ele>
        <time>2017-03-18T16:04:42Z</time>
      </trkpt>
      <trkpt lat="38.045604" lon="-1.325384">
        <ele>209.855</ele>
        <time>2017-03-18T16:04:45Z</time>
      </trkpt>
      <trkpt lat="38.045630" lon="-1.325246">
        <ele>210.060</ele>
        <time>2017-03-18T16:04:47Z</time>
      </trkpt>
      <trkpt lat="38.045653" lon="-1.325108">
        <ele>209.652</ele>
        <time>2017-03-18T16:04:49Z</time>
      </trkpt>
      <trkpt lat="38.045673" lon="-1.324976">
        <ele>208.947</ele>
        <time>2017-03-18T16:04:51Z</time>
      </trkpt>
      <trkpt lat="38.045691" lon="-1.324840">
        <ele>208.345</ele>
        <time>2017-03-18T16:04:53Z</time>
      </trkpt>
      <trkpt lat="38.045714" lon="-1.324717">
        <ele>207.819</ele>
        <time>2017-03-18T16:04:55Z</time>
      </trkpt>
      <trkpt lat="38.045740" lon="-1.324589">
        <ele>207.595</ele>
        <time>2017-03-18T16:04:57Z</time>
      </trkpt>
      <trkpt lat="38.045763" lon="-1.324464">
        <ele>206.945</ele>
        <time>2017-03-18T16:04:59Z</time>
      </trkpt>
      <trkpt lat="38.045791" lon="-1.324345">
        <ele>207.195</ele>
        <time>2017-03-18T16:05:01Z</time>
      </trkpt>
      <trkpt lat="38.045813" lon="-1.324230">
        <ele>207.649</ele>
        <time>2017-03-18T16:05:03Z</time>
      </trkpt>
      <trkpt lat="38.045835" lon="-1.324118">
        <ele>207.923</ele>
        <time>2017-03-18T16:05:05Z</time>
      </trkpt>
      <trkpt lat="38.045860" lon="-1.324007">
        <ele>208.508</ele>
        <time>2017-03-18T16:05:07Z</time>
      </trkpt>
      <trkpt lat="38.045896" lon="-1.323848">
        <ele>208.510</ele>
        <time>2017-03-18T16:05:11Z</time>
      </trkpt>
      <trkpt lat="38.045922" lon="-1.323703">
        <ele>209.135</ele>
        <time>2017-03-18T16:05:14Z</time>
      </trkpt>
      <trkpt lat="38.045941" lon="-1.323587">
        <ele>209.297</ele>
        <time>2017-03-18T16:05:16Z</time>
      </trkpt>
      <trkpt lat="38.045981" lon="-1.323430">
        <ele>208.182</ele>
        <time>2017-03-18T16:05:18Z</time>
      </trkpt>
      <trkpt lat="38.046007" lon="-1.323273">
        <ele>207.880</ele>
        <time>2017-03-18T16:05:21Z</time>
      </trkpt>
      <trkpt lat="38.046024" lon="-1.323147">
        <ele>207.784</ele>
        <time>2017-03-18T16:05:23Z</time>
      </trkpt>
      <trkpt lat="38.046044" lon="-1.323018">
        <ele>207.110</ele>
        <time>2017-03-18T16:05:25Z</time>
      </trkpt>
      <trkpt lat="38.046063" lon="-1.322902">
        <ele>206.540</ele>
        <time>2017-03-18T16:05:27Z</time>
      </trkpt>
      <trkpt lat="38.046098" lon="-1.322729">
        <ele>206.589</ele>
        <time>2017-03-18T16:05:30Z</time>
      </trkpt>
      <trkpt lat="38.046123" lon="-1.322618">
        <ele>206.906</ele>
        <time>2017-03-18T16:05:32Z</time>
      </trkpt>
      <trkpt lat="38.046148" lon="-1.322503">
        <ele>207.526</ele>
        <time>2017-03-18T16:05:34Z</time>
      </trkpt>
      <trkpt lat="38.046181" lon="-1.322350">
        <ele>207.808</ele>
        <time>2017-03-18T16:05:37Z</time>
      </trkpt>
      <trkpt lat="38.046220" lon="-1.322170">
        <ele>208.139</ele>
        <time>2017-03-18T16:05:40Z</time>
      </trkpt>
      <trkpt lat="38.046258" lon="-1.322040">
        <ele>207.864</ele>
        <time>2017-03-18T16:05:42Z</time>
      </trkpt>
      <trkpt lat="38.046296" lon="-1.321929">
        <ele>207.396</ele>
        <time>2017-03-18T16:05:44Z</time>
      </trkpt>
      <trkpt lat="38.046336" lon="-1.321816">
        <ele>207.171</ele>
        <time>2017-03-18T16:05:46Z</time>
      </trkpt>
      <trkpt lat="38.046380" lon="-1.321702">
        <ele>207.939</ele>
        <time>2017-03-18T16:05:48Z</time>
      </trkpt>
      <trkpt lat="38.046429" lon="-1.321582">
        <ele>207.453</ele>
        <time>2017-03-18T16:05:50Z</time>
      </trkpt>
      <trkpt lat="38.046480" lon="-1.321478">
        <ele>205.569</ele>
        <time>2017-03-18T16:05:52Z</time>
      </trkpt>
      <trkpt lat="38.046529" lon="-1.321353">
        <ele>204.079</ele>
        <time>2017-03-18T16:05:54Z</time>
      </trkpt>
      <trkpt lat="38.046593" lon="-1.321222">
        <ele>202.413</ele>
        <time>2017-03-18T16:05:56Z</time>
      </trkpt>
      <trkpt lat="38.046657" lon="-1.321105">
        <ele>201.043</ele>
        <time>2017-03-18T16:05:58Z</time>
      </trkpt>
      <trkpt lat="38.046713" lon="-1.321000">
        <ele>200.207</ele>
        <time>2017-03-18T16:06:00Z</time>
      </trkpt>
      <trkpt lat="38.046769" lon="-1.320896">
        <ele>199.108</ele>
        <time>2017-03-18T16:06:02Z</time>
      </trkpt>
      <trkpt lat="38.046821" lon="-1.320796">
        <ele>199.022</ele>
        <time>2017-03-18T16:06:04Z</time>
      </trkpt>
      <trkpt lat="38.046894" lon="-1.320659">
        <ele>200.017</ele>
        <time>2017-03-18T16:06:07Z</time>
      </trkpt>
      <trkpt lat="38.046953" lon="-1.320554">
        <ele>200.289</ele>
        <time>2017-03-18T16:06:09Z</time>
      </trkpt>
      <trkpt lat="38.047008" lon="-1.320433">
        <ele>199.824</ele>
        <time>2017-03-18T16:06:11Z</time>
      </trkpt>
      <trkpt lat="38.047063" lon="-1.320336">
        <ele>199.872</ele>
        <time>2017-03-18T16:06:13Z</time>
      </trkpt>
      <trkpt lat="38.047116" lon="-1.320229">
        <ele>200.056</ele>
        <time>2017-03-18T16:06:15Z</time>
      </trkpt>
      <trkpt lat="38.047176" lon="-1.320120">
        <ele>200.172</ele>
        <time>2017-03-18T16:06:17Z</time>
      </trkpt>
      <trkpt lat="38.047235" lon="-1.320011">
        <ele>199.722</ele>
        <time>2017-03-18T16:06:19Z</time>
      </trkpt>
      <trkpt lat="38.047293" lon="-1.319907">
        <ele>199.821</ele>
        <time>2017-03-18T16:06:21Z</time>
      </trkpt>
      <trkpt lat="38.047357" lon="-1.319793">
        <ele>199.941</ele>
        <time>2017-03-18T16:06:23Z</time>
      </trkpt>
      <trkpt lat="38.047417" lon="-1.319684">
        <ele>200.405</ele>
        <time>2017-03-18T16:06:25Z</time>
      </trkpt>
      <trkpt lat="38.047488" lon="-1.319553">
        <ele>199.808</ele>
        <time>2017-03-18T16:06:27Z</time>
      </trkpt>
      <trkpt lat="38.047556" lon="-1.319429">
        <ele>199.253</ele>
        <time>2017-03-18T16:06:29Z</time>
      </trkpt>
      <trkpt lat="38.047621" lon="-1.319310">
        <ele>198.638</ele>
        <time>2017-03-18T16:06:31Z</time>
      </trkpt>
      <trkpt lat="38.047680" lon="-1.319191">
        <ele>197.920</ele>
        <time>2017-03-18T16:06:33Z</time>
      </trkpt>
      <trkpt lat="38.047740" lon="-1.319076">
        <ele>197.435</ele>
        <time>2017-03-18T16:06:35Z</time>
      </trkpt>
      <trkpt lat="38.047798" lon="-1.318967">
        <ele>197.593</ele>
        <time>2017-03-18T16:06:38Z</time>
      </trkpt>
      <trkpt lat="38.047864" lon="-1.318843">
        <ele>197.067</ele>
        <time>2017-03-18T16:06:40Z</time>
      </trkpt>
      <trkpt lat="38.047928" lon="-1.318735">
        <ele>197.243</ele>
        <time>2017-03-18T16:06:42Z</time>
      </trkpt>
      <trkpt lat="38.047990" lon="-1.318619">
        <ele>197.823</ele>
        <time>2017-03-18T16:06:44Z</time>
      </trkpt>
      <trkpt lat="38.048049" lon="-1.318506">
        <ele>198.349</ele>
        <time>2017-03-18T16:06:46Z</time>
      </trkpt>
      <trkpt lat="38.048112" lon="-1.318391">
        <ele>198.302</ele>
        <time>2017-03-18T16:06:47Z</time>
      </trkpt>
      <trkpt lat="38.048175" lon="-1.318277">
        <ele>198.122</ele>
        <time>2017-03-18T16:06:49Z</time>
      </trkpt>
      <trkpt lat="38.048235" lon="-1.318167">
        <ele>198.008</ele>
        <time>2017-03-18T16:06:51Z</time>
      </trkpt>
      <trkpt lat="38.048296" lon="-1.318061">
        <ele>198.085</ele>
        <time>2017-03-18T16:06:53Z</time>
      </trkpt>
      <trkpt lat="38.048361" lon="-1.317948">
        <ele>197.290</ele>
        <time>2017-03-18T16:06:55Z</time>
      </trkpt>
      <trkpt lat="38.048427" lon="-1.317831">
        <ele>195.912</ele>
        <time>2017-03-18T16:06:57Z</time>
      </trkpt>
      <trkpt lat="38.048491" lon="-1.317721">
        <ele>194.697</ele>
        <time>2017-03-18T16:06:59Z</time>
      </trkpt>
      <trkpt lat="38.048548" lon="-1.317617">
        <ele>194.185</ele>
        <time>2017-03-18T16:07:01Z</time>
      </trkpt>
      <trkpt lat="38.048603" lon="-1.317521">
        <ele>194.819</ele>
        <time>2017-03-18T16:07:03Z</time>
      </trkpt>
      <trkpt lat="38.048651" lon="-1.317420">
        <ele>195.875</ele>
        <time>2017-03-18T16:07:05Z</time>
      </trkpt>
      <trkpt lat="38.048711" lon="-1.317318">
        <ele>196.285</ele>
        <time>2017-03-18T16:07:07Z</time>
      </trkpt>
      <trkpt lat="38.048772" lon="-1.317214">
        <ele>196.524</ele>
        <time>2017-03-18T16:07:09Z</time>
      </trkpt>
      <trkpt lat="38.048830" lon="-1.317102">
        <ele>196.404</ele>
        <time>2017-03-18T16:07:11Z</time>
      </trkpt>
      <trkpt lat="38.048889" lon="-1.316993">
        <ele>196.214</ele>
        <time>2017-03-18T16:07:13Z</time>
      </trkpt>
      <trkpt lat="38.048945" lon="-1.316889">
        <ele>196.208</ele>
        <time>2017-03-18T16:07:15Z</time>
      </trkpt>
      <trkpt lat="38.048999" lon="-1.316793">
        <ele>196.463</ele>
        <time>2017-03-18T16:07:17Z</time>
      </trkpt>
      <trkpt lat="38.049053" lon="-1.316685">
        <ele>196.878</ele>
        <time>2017-03-18T16:07:19Z</time>
      </trkpt>
      <trkpt lat="38.049105" lon="-1.316573">
        <ele>196.780</ele>
        <time>2017-03-18T16:07:21Z</time>
      </trkpt>
      <trkpt lat="38.049157" lon="-1.316455">
        <ele>196.065</ele>
        <time>2017-03-18T16:07:23Z</time>
      </trkpt>
      <trkpt lat="38.049205" lon="-1.316346">
        <ele>195.673</ele>
        <time>2017-03-18T16:07:25Z</time>
      </trkpt>
      <trkpt lat="38.049255" lon="-1.316239">
        <ele>195.157</ele>
        <time>2017-03-18T16:07:27Z</time>
      </trkpt>
      <trkpt lat="38.049304" lon="-1.316097">
        <ele>196.473</ele>
        <time>2017-03-18T16:07:30Z</time>
      </trkpt>
      <trkpt lat="38.049353" lon="-1.315961">
        <ele>197.293</ele>
        <time>2017-03-18T16:07:33Z</time>
      </trkpt>
      <trkpt lat="38.049403" lon="-1.315825">
        <ele>196.535</ele>
        <time>2017-03-18T16:07:36Z</time>
      </trkpt>
      <trkpt lat="38.049451" lon="-1.315673">
        <ele>196.186</ele>
        <time>2017-03-18T16:07:39Z</time>
      </trkpt>
      <trkpt lat="38.049503" lon="-1.315517">
        <ele>195.914</ele>
        <time>2017-03-18T16:07:42Z</time>
      </trkpt>
      <trkpt lat="38.049533" lon="-1.315407">
        <ele>195.408</ele>
        <time>2017-03-18T16:07:44Z</time>
      </trkpt>
      <trkpt lat="38.049565" lon="-1.315284">
        <ele>194.794</ele>
        <time>2017-03-18T16:07:46Z</time>
      </trkpt>
      <trkpt lat="38.049602" lon="-1.315131">
        <ele>193.949</ele>
        <time>2017-03-18T16:07:49Z</time>
      </trkpt>
      <trkpt lat="38.049635" lon="-1.314988">
        <ele>194.181</ele>
        <time>2017-03-18T16:07:52Z</time>
      </trkpt>
      <trkpt lat="38.049667" lon="-1.314860">
        <ele>195.576</ele>
        <time>2017-03-18T16:07:55Z</time>
      </trkpt>
      <trkpt lat="38.049696" lon="-1.314742">
        <ele>196.174</ele>
        <time>2017-03-18T16:07:57Z</time>
      </trkpt>
      <trkpt lat="38.049737" lon="-1.314579">
        <ele>196.628</ele>
        <time>2017-03-18T16:08:01Z</time>
      </trkpt>
      <trkpt lat="38.049766" lon="-1.314469">
        <ele>196.754</ele>
        <time>2017-03-18T16:08:03Z</time>
      </trkpt>
      <trkpt lat="38.049798" lon="-1.314348">
        <ele>197.344</ele>
        <time>2017-03-18T16:08:05Z</time>
      </trkpt>
      <trkpt lat="38.049831" lon="-1.314234">
        <ele>198.199</ele>
        <time>2017-03-18T16:08:07Z</time>
      </trkpt>
      <trkpt lat="38.049875" lon="-1.314091">
        <ele>198.707</ele>
        <time>2017-03-18T16:08:09Z</time>
      </trkpt>
      <trkpt lat="38.049915" lon="-1.313938">
        <ele>199.727</ele>
        <time>2017-03-18T16:08:12Z</time>
      </trkpt>
      <trkpt lat="38.049953" lon="-1.313814">
        <ele>200.008</ele>
        <time>2017-03-18T16:08:14Z</time>
      </trkpt>
      <trkpt lat="38.049985" lon="-1.313696">
        <ele>200.310</ele>
        <time>2017-03-18T16:08:16Z</time>
      </trkpt>
      <trkpt lat="38.050012" lon="-1.313583">
        <ele>200.525</ele>
        <time>2017-03-18T16:08:18Z</time>
      </trkpt>
      <trkpt lat="38.050059" lon="-1.313427">
        <ele>200.827</ele>
        <time>2017-03-18T16:08:21Z</time>
      </trkpt>
      <trkpt lat="38.050079" lon="-1.313315">
        <ele>201.132</ele>
        <time>2017-03-18T16:08:23Z</time>
      </trkpt>
      <trkpt lat="38.050100" lon="-1.313194">
        <ele>201.350</ele>
        <time>2017-03-18T16:08:25Z</time>
      </trkpt>
      <trkpt lat="38.050127" lon="-1.313073">
        <ele>201.854</ele>
        <time>2017-03-18T16:08:27Z</time>
      </trkpt>
      <trkpt lat="38.050156" lon="-1.312954">
        <ele>202.450</ele>
        <time>2017-03-18T16:08:29Z</time>
      </trkpt>
      <trkpt lat="38.050193" lon="-1.312800">
        <ele>202.730</ele>
        <time>2017-03-18T16:08:32Z</time>
      </trkpt>
      <trkpt lat="38.050230" lon="-1.312689">
        <ele>202.817</ele>
        <time>2017-03-18T16:08:34Z</time>
      </trkpt>
      <trkpt lat="38.050278" lon="-1.312528">
        <ele>202.887</ele>
        <time>2017-03-18T16:08:37Z</time>
      </trkpt>
      <trkpt lat="38.050323" lon="-1.312369">
        <ele>204.415</ele>
        <time>2017-03-18T16:08:40Z</time>
      </trkpt>
      <trkpt lat="38.050353" lon="-1.312250">
        <ele>206.008</ele>
        <time>2017-03-18T16:08:42Z</time>
      </trkpt>
      <trkpt lat="38.050384" lon="-1.312133">
        <ele>206.922</ele>
        <time>2017-03-18T16:08:44Z</time>
      </trkpt>
      <trkpt lat="38.050428" lon="-1.311978">
        <ele>207.197</ele>
        <time>2017-03-18T16:08:47Z</time>
      </trkpt>
      <trkpt lat="38.050470" lon="-1.311811">
        <ele>207.819</ele>
        <time>2017-03-18T16:08:50Z</time>
      </trkpt>
      <trkpt lat="38.050497" lon="-1.311692">
        <ele>208.344</ele>
        <time>2017-03-18T16:08:52Z</time>
      </trkpt>
      <trkpt lat="38.050528" lon="-1.311581">
        <ele>208.792</ele>
        <time>2017-03-18T16:08:54Z</time>
      </trkpt>
      <trkpt lat="38.050564" lon="-1.311466">
        <ele>209.266</ele>
        <time>2017-03-18T16:08:56Z</time>
      </trkpt>
      <trkpt lat="38.050604" lon="-1.311312">
        <ele>210.012</ele>
        <time>2017-03-18T16:08:59Z</time>
      </trkpt>
      <trkpt lat="38.050641" lon="-1.311186">
        <ele>210.572</ele>
        <time>2017-03-18T16:09:01Z</time>
      </trkpt>
      <trkpt lat="38.050680" lon="-1.311065">
        <ele>210.855</ele>
        <time>2017-03-18T16:09:03Z</time>
      </trkpt>
      <trkpt lat="38.050718" lon="-1.310955">
        <ele>211.207</ele>
        <time>2017-03-18T16:09:05Z</time>
      </trkpt>
      <trkpt lat="38.050754" lon="-1.310838">
        <ele>211.417</ele>
        <time>2017-03-18T16:09:07Z</time>
      </trkpt>
      <trkpt lat="38.050784" lon="-1.310719">
        <ele>211.508</ele>
        <time>2017-03-18T16:09:09Z</time>
      </trkpt>
      <trkpt lat="38.050821" lon="-1.310604">
        <ele>211.276</ele>
        <time>2017-03-18T16:09:11Z</time>
      </trkpt>
      <trkpt lat="38.050858" lon="-1.310479">
        <ele>210.651</ele>
        <time>2017-03-18T16:09:13Z</time>
      </trkpt>
      <trkpt lat="38.050897" lon="-1.310341">
        <ele>210.183</ele>
        <time>2017-03-18T16:09:15Z</time>
      </trkpt>
      <trkpt lat="38.050932" lon="-1.310204">
        <ele>208.728</ele>
        <time>2017-03-18T16:09:17Z</time>
      </trkpt>
      <trkpt lat="38.050966" lon="-1.310077">
        <ele>207.336</ele>
        <time>2017-03-18T16:09:19Z</time>
      </trkpt>
      <trkpt lat="38.050996" lon="-1.309957">
        <ele>206.470</ele>
        <time>2017-03-18T16:09:21Z</time>
      </trkpt>
      <trkpt lat="38.051023" lon="-1.309841">
        <ele>205.646</ele>
        <time>2017-03-18T16:09:23Z</time>
      </trkpt>
      <trkpt lat="38.051047" lon="-1.309728">
        <ele>204.816</ele>
        <time>2017-03-18T16:09:25Z</time>
      </trkpt>
      <trkpt lat="38.051077" lon="-1.309606">
        <ele>203.839</ele>
        <time>2017-03-18T16:09:27Z</time>
      </trkpt>
      <trkpt lat="38.051108" lon="-1.309487">
        <ele>202.801</ele>
        <time>2017-03-18T16:09:29Z</time>
      </trkpt>
      <trkpt lat="38.051133" lon="-1.309361">
        <ele>202.521</ele>
        <time>2017-03-18T16:09:32Z</time>
      </trkpt>
      <trkpt lat="38.051154" lon="-1.309248">
        <ele>202.308</ele>
        <time>2017-03-18T16:09:34Z</time>
      </trkpt>
      <trkpt lat="38.051181" lon="-1.309126">
        <ele>203.454</ele>
        <time>2017-03-18T16:09:37Z</time>
      </trkpt>
      <trkpt lat="38.051216" lon="-1.309017">
        <ele>203.819</ele>
        <time>2017-03-18T16:09:40Z</time>
      </trkpt>
      <trkpt lat="38.051233" lon="-1.308875">
        <ele>206.641</ele>
        <time>2017-03-18T16:09:43Z</time>
      </trkpt>
      <trkpt lat="38.051250" lon="-1.308714">
        <ele>207.466</ele>
        <time>2017-03-18T16:09:45Z</time>
      </trkpt>
      <trkpt lat="38.051280" lon="-1.308579">
        <ele>207.544</ele>
        <time>2017-03-18T16:09:48Z</time>
      </trkpt>
      <trkpt lat="38.051292" lon="-1.308449">
        <ele>207.458</ele>
        <time>2017-03-18T16:09:51Z</time>
      </trkpt>
      <trkpt lat="38.051329" lon="-1.308300">
        <ele>207.454</ele>
        <time>2017-03-18T16:09:55Z</time>
      </trkpt>
      <trkpt lat="38.051350" lon="-1.308169">
        <ele>207.594</ele>
        <time>2017-03-18T16:09:58Z</time>
      </trkpt>
      <trkpt lat="38.051376" lon="-1.308056">
        <ele>207.714</ele>
        <time>2017-03-18T16:10:01Z</time>
      </trkpt>
      <trkpt lat="38.051398" lon="-1.307944">
        <ele>207.954</ele>
        <time>2017-03-18T16:10:04Z</time>
      </trkpt>
      <trkpt lat="38.051413" lon="-1.307802">
        <ele>208.109</ele>
        <time>2017-03-18T16:10:07Z</time>
      </trkpt>
      <trkpt lat="38.051423" lon="-1.307674">
        <ele>208.108</ele>
        <time>2017-03-18T16:10:10Z</time>
      </trkpt>
      <trkpt lat="38.051425" lon="-1.307549">
        <ele>208.212</ele>
        <time>2017-03-18T16:10:13Z</time>
      </trkpt>
      <trkpt lat="38.051462" lon="-1.307420">
        <ele>208.337</ele>
        <time>2017-03-18T16:10:17Z</time>
      </trkpt>
      <trkpt lat="38.051478" lon="-1.307300">
        <ele>208.379</ele>
        <time>2017-03-18T16:10:20Z</time>
      </trkpt>
      <trkpt lat="38.051480" lon="-1.307182">
        <ele>208.274</ele>
        <time>2017-03-18T16:10:24Z</time>
      </trkpt>
      <trkpt lat="38.051494" lon="-1.307065">
        <ele>208.232</ele>
        <time>2017-03-18T16:10:28Z</time>
      </trkpt>
      <trkpt lat="38.051507" lon="-1.306922">
        <ele>208.386</ele>
        <time>2017-03-18T16:10:32Z</time>
      </trkpt>
      <trkpt lat="38.051509" lon="-1.306806">
        <ele>208.232</ele>
        <time>2017-03-18T16:10:35Z</time>
      </trkpt>
      <trkpt lat="38.051510" lon="-1.306672">
        <ele>208.112</ele>
        <time>2017-03-18T16:10:39Z</time>
      </trkpt>
      <trkpt lat="38.051511" lon="-1.306547">
        <ele>208.238</ele>
        <time>2017-03-18T16:10:43Z</time>
      </trkpt>
      <trkpt lat="38.051492" lon="-1.306427">
        <ele>208.270</ele>
        <time>2017-03-18T16:10:47Z</time>
      </trkpt>
      <trkpt lat="38.051497" lon="-1.306311">
        <ele>208.017</ele>
        <time>2017-03-18T16:10:51Z</time>
      </trkpt>
      <trkpt lat="38.051518" lon="-1.306174">
        <ele>207.908</ele>
        <time>2017-03-18T16:10:57Z</time>
      </trkpt>
      <trkpt lat="38.051517" lon="-1.306050">
        <ele>207.894</ele>
        <time>2017-03-18T16:11:00Z</time>
      </trkpt>
      <trkpt lat="38.051519" lon="-1.305922">
        <ele>207.989</ele>
        <time>2017-03-18T16:11:05Z</time>
      </trkpt>
      <trkpt lat="38.051519" lon="-1.305803">
        <ele>208.041</ele>
        <time>2017-03-18T16:11:08Z</time>
      </trkpt>
      <trkpt lat="38.051523" lon="-1.305669">
        <ele>207.976</ele>
        <time>2017-03-18T16:11:12Z</time>
      </trkpt>
      <trkpt lat="38.051530" lon="-1.305540">
        <ele>207.824</ele>
        <time>2017-03-18T16:11:16Z</time>
      </trkpt>
      <trkpt lat="38.051532" lon="-1.305411">
        <ele>207.818</ele>
        <time>2017-03-18T16:11:19Z</time>
      </trkpt>
      <trkpt lat="38.051538" lon="-1.305264">
        <ele>207.824</ele>
        <time>2017-03-18T16:11:22Z</time>
      </trkpt>
      <trkpt lat="38.051542" lon="-1.305129">
        <ele>207.734</ele>
        <time>2017-03-18T16:11:25Z</time>
      </trkpt>
      <trkpt lat="38.051542" lon="-1.304978">
        <ele>207.413</ele>
        <time>2017-03-18T16:11:28Z</time>
      </trkpt>
      <trkpt lat="38.051552" lon="-1.304860">
        <ele>207.243</ele>
        <time>2017-03-18T16:11:31Z</time>
      </trkpt>
      <trkpt lat="38.051561" lon="-1.304728">
        <ele>207.007</ele>
        <time>2017-03-18T16:11:35Z</time>
      </trkpt>
      <trkpt lat="38.051565" lon="-1.304611">
        <ele>206.908</ele>
        <time>2017-03-18T16:11:38Z</time>
      </trkpt>
      <trkpt lat="38.051562" lon="-1.304482">
        <ele>207.052</ele>
        <time>2017-03-18T16:11:42Z</time>
      </trkpt>
      <trkpt lat="38.051572" lon="-1.304362">
        <ele>207.117</ele>
        <time>2017-03-18T16:11:44Z</time>
      </trkpt>
      <trkpt lat="38.051576" lon="-1.304233">
        <ele>207.249</ele>
        <time>2017-03-18T16:11:47Z</time>
      </trkpt>
      <trkpt lat="38.051576" lon="-1.304100">
        <ele>207.424</ele>
        <time>2017-03-18T16:11:50Z</time>
      </trkpt>
      <trkpt lat="38.051579" lon="-1.303981">
        <ele>207.792</ele>
        <time>2017-03-18T16:11:53Z</time>
      </trkpt>
      <trkpt lat="38.051584" lon="-1.303851">
        <ele>208.026</ele>
        <time>2017-03-18T16:11:57Z</time>
      </trkpt>
      <trkpt lat="38.051581" lon="-1.303705">
        <ele>208.272</ele>
        <time>2017-03-18T16:12:01Z</time>
      </trkpt>
      <trkpt lat="38.051587" lon="-1.303567">
        <ele>208.392</ele>
        <time>2017-03-18T16:12:04Z</time>
      </trkpt>
      <trkpt lat="38.051593" lon="-1.303434">
        <ele>208.539</ele>
        <time>2017-03-18T16:12:07Z</time>
      </trkpt>
      <trkpt lat="38.051590" lon="-1.303318">
        <ele>208.601</ele>
        <time>2017-03-18T16:12:10Z</time>
      </trkpt>
      <trkpt lat="38.051596" lon="-1.303192">
        <ele>208.621</ele>
        <time>2017-03-18T16:12:13Z</time>
      </trkpt>
      <trkpt lat="38.051607" lon="-1.303049">
        <ele>208.708</ele>
        <time>2017-03-18T16:12:15Z</time>
      </trkpt>
      <trkpt lat="38.051615" lon="-1.302875">
        <ele>208.654</ele>
        <time>2017-03-18T16:12:20Z</time>
      </trkpt>
      <trkpt lat="38.051605" lon="-1.302754">
        <ele>208.619</ele>
        <time>2017-03-18T16:12:24Z</time>
      </trkpt>
      <trkpt lat="38.051616" lon="-1.302607">
        <ele>208.611</ele>
        <time>2017-03-18T16:12:28Z</time>
      </trkpt>
      <trkpt lat="38.051623" lon="-1.302491">
        <ele>208.696</ele>
        <time>2017-03-18T16:12:32Z</time>
      </trkpt>
      <trkpt lat="38.051637" lon="-1.302342">
        <ele>208.414</ele>
        <time>2017-03-18T16:12:36Z</time>
      </trkpt>
      <trkpt lat="38.051636" lon="-1.302193">
        <ele>208.548</ele>
        <time>2017-03-18T16:12:40Z</time>
      </trkpt>
      <trkpt lat="38.051656" lon="-1.302064">
        <ele>208.554</ele>
        <time>2017-03-18T16:12:43Z</time>
      </trkpt>
      <trkpt lat="38.051692" lon="-1.301924">
        <ele>209.244</ele>
        <time>2017-03-18T16:12:46Z</time>
      </trkpt>
      <trkpt lat="38.051717" lon="-1.301799">
        <ele>209.934</ele>
        <time>2017-03-18T16:12:49Z</time>
      </trkpt>
      <trkpt lat="38.051746" lon="-1.301658">
        <ele>209.855</ele>
        <time>2017-03-18T16:12:52Z</time>
      </trkpt>
      <trkpt lat="38.051777" lon="-1.301512">
        <ele>209.810</ele>
        <time>2017-03-18T16:12:55Z</time>
      </trkpt>
      <trkpt lat="38.051814" lon="-1.301374">
        <ele>209.408</ele>
        <time>2017-03-18T16:12:58Z</time>
      </trkpt>
      <trkpt lat="38.051852" lon="-1.301226">
        <ele>208.734</ele>
        <time>2017-03-18T16:13:01Z</time>
      </trkpt>
      <trkpt lat="38.051905" lon="-1.301077">
        <ele>208.059</ele>
        <time>2017-03-18T16:13:04Z</time>
      </trkpt>
      <trkpt lat="38.051933" lon="-1.300969">
        <ele>207.071</ele>
        <time>2017-03-18T16:13:06Z</time>
      </trkpt>
      <trkpt lat="38.051971" lon="-1.300814">
        <ele>205.556</ele>
        <time>2017-03-18T16:13:09Z</time>
      </trkpt>
      <trkpt lat="38.052014" lon="-1.300686">
        <ele>204.664</ele>
        <time>2017-03-18T16:13:11Z</time>
      </trkpt>
      <trkpt lat="38.052068" lon="-1.300558">
        <ele>203.988</ele>
        <time>2017-03-18T16:13:14Z</time>
      </trkpt>
      <trkpt lat="38.052123" lon="-1.300418">
        <ele>203.424</ele>
        <time>2017-03-18T16:13:17Z</time>
      </trkpt>
      <trkpt lat="38.052178" lon="-1.300271">
        <ele>203.224</ele>
        <time>2017-03-18T16:13:21Z</time>
      </trkpt>
      <trkpt lat="38.052230" lon="-1.300059">
        <ele>203.143</ele>
        <time>2017-03-18T16:13:24Z</time>
      </trkpt>
      <trkpt lat="38.052276" lon="-1.299917">
        <ele>203.064</ele>
        <time>2017-03-18T16:13:27Z</time>
      </trkpt>
      <trkpt lat="38.052336" lon="-1.299780">
        <ele>204.410</ele>
        <time>2017-03-18T16:13:30Z</time>
      </trkpt>
      <trkpt lat="38.052391" lon="-1.299669">
        <ele>207.108</ele>
        <time>2017-03-18T16:13:33Z</time>
      </trkpt>
      <trkpt lat="38.052451" lon="-1.299581">
        <ele>207.445</ele>
        <time>2017-03-18T16:13:35Z</time>
      </trkpt>
      <trkpt lat="38.052511" lon="-1.299491">
        <ele>207.450</ele>
        <time>2017-03-18T16:13:37Z</time>
      </trkpt>
      <trkpt lat="38.052583" lon="-1.299360">
        <ele>207.572</ele>
        <time>2017-03-18T16:13:40Z</time>
      </trkpt>
      <trkpt lat="38.052628" lon="-1.299204">
        <ele>207.227</ele>
        <time>2017-03-18T16:13:43Z</time>
      </trkpt>
      <trkpt lat="38.052682" lon="-1.299051">
        <ele>206.315</ele>
        <time>2017-03-18T16:13:46Z</time>
      </trkpt>
      <trkpt lat="38.052731" lon="-1.298947">
        <ele>206.299</ele>
        <time>2017-03-18T16:13:48Z</time>
      </trkpt>
      <trkpt lat="38.052780" lon="-1.298839">
        <ele>205.675</ele>
        <time>2017-03-18T16:13:50Z</time>
      </trkpt>
      <trkpt lat="38.052827" lon="-1.298734">
        <ele>204.895</ele>
        <time>2017-03-18T16:13:52Z</time>
      </trkpt>
      <trkpt lat="38.052886" lon="-1.298596">
        <ele>204.158</ele>
        <time>2017-03-18T16:13:55Z</time>
      </trkpt>
      <trkpt lat="38.052958" lon="-1.298454">
        <ele>203.452</ele>
        <time>2017-03-18T16:13:58Z</time>
      </trkpt>
      <trkpt lat="38.053007" lon="-1.298355">
        <ele>203.117</ele>
        <time>2017-03-18T16:14:00Z</time>
      </trkpt>
      <trkpt lat="38.053078" lon="-1.298212">
        <ele>202.808</ele>
        <time>2017-03-18T16:14:03Z</time>
      </trkpt>
      <trkpt lat="38.053151" lon="-1.298066">
        <ele>202.476</ele>
        <time>2017-03-18T16:14:06Z</time>
      </trkpt>
      <trkpt lat="38.053207" lon="-1.297959">
        <ele>201.931</ele>
        <time>2017-03-18T16:14:08Z</time>
      </trkpt>
      <trkpt lat="38.053263" lon="-1.297854">
        <ele>201.873</ele>
        <time>2017-03-18T16:14:10Z</time>
      </trkpt>
      <trkpt lat="38.053319" lon="-1.297744">
        <ele>201.618</ele>
        <time>2017-03-18T16:14:12Z</time>
      </trkpt>
      <trkpt lat="38.053371" lon="-1.297628">
        <ele>201.756</ele>
        <time>2017-03-18T16:14:14Z</time>
      </trkpt>
      <trkpt lat="38.053423" lon="-1.297512">
        <ele>201.590</ele>
        <time>2017-03-18T16:14:16Z</time>
      </trkpt>
      <trkpt lat="38.053475" lon="-1.297399">
        <ele>200.886</ele>
        <time>2017-03-18T16:14:18Z</time>
      </trkpt>
      <trkpt lat="38.053522" lon="-1.297296">
        <ele>199.846</ele>
        <time>2017-03-18T16:14:20Z</time>
      </trkpt>
      <trkpt lat="38.053565" lon="-1.297195">
        <ele>198.365</ele>
        <time>2017-03-18T16:14:22Z</time>
      </trkpt>
      <trkpt lat="38.053623" lon="-1.297044">
        <ele>197.368</ele>
        <time>2017-03-18T16:14:25Z</time>
      </trkpt>
      <trkpt lat="38.053685" lon="-1.296904">
        <ele>198.714</ele>
        <time>2017-03-18T16:14:28Z</time>
      </trkpt>
      <trkpt lat="38.053749" lon="-1.296758">
        <ele>200.908</ele>
        <time>2017-03-18T16:14:32Z</time>
      </trkpt>
      <trkpt lat="38.053800" lon="-1.296653">
        <ele>201.387</ele>
        <time>2017-03-18T16:14:34Z</time>
      </trkpt>
      <trkpt lat="38.053850" lon="-1.296551">
        <ele>202.042</ele>
        <time>2017-03-18T16:14:36Z</time>
      </trkpt>
      <trkpt lat="38.053903" lon="-1.296449">
        <ele>202.414</ele>
        <time>2017-03-18T16:14:38Z</time>
      </trkpt>
      <trkpt lat="38.053992" lon="-1.296262">
        <ele>203.019</ele>
        <time>2017-03-18T16:14:41Z</time>
      </trkpt>
      <trkpt lat="38.054036" lon="-1.296156">
        <ele>203.067</ele>
        <time>2017-03-18T16:14:43Z</time>
      </trkpt>
      <trkpt lat="38.054084" lon="-1.296041">
        <ele>202.511</ele>
        <time>2017-03-18T16:14:45Z</time>
      </trkpt>
      <trkpt lat="38.054141" lon="-1.295927">
        <ele>202.097</ele>
        <time>2017-03-18T16:14:47Z</time>
      </trkpt>
      <trkpt lat="38.054197" lon="-1.295811">
        <ele>201.997</ele>
        <time>2017-03-18T16:14:49Z</time>
      </trkpt>
      <trkpt lat="38.054252" lon="-1.295683">
        <ele>201.361</ele>
        <time>2017-03-18T16:14:51Z</time>
      </trkpt>
      <trkpt lat="38.054308" lon="-1.295562">
        <ele>201.021</ele>
        <time>2017-03-18T16:14:53Z</time>
      </trkpt>
      <trkpt lat="38.054356" lon="-1.295458">
        <ele>201.013</ele>
        <time>2017-03-18T16:14:55Z</time>
      </trkpt>
      <trkpt lat="38.054406" lon="-1.295349">
        <ele>200.708</ele>
        <time>2017-03-18T16:14:57Z</time>
      </trkpt>
      <trkpt lat="38.054463" lon="-1.295197">
        <ele>201.067</ele>
        <time>2017-03-18T16:15:00Z</time>
      </trkpt>
      <trkpt lat="38.054510" lon="-1.295096">
        <ele>201.152</ele>
        <time>2017-03-18T16:15:02Z</time>
      </trkpt>
      <trkpt lat="38.054591" lon="-1.294953">
        <ele>201.744</ele>
        <time>2017-03-18T16:15:05Z</time>
      </trkpt>
      <trkpt lat="38.054642" lon="-1.294841">
        <ele>201.249</ele>
        <time>2017-03-18T16:15:07Z</time>
      </trkpt>
      <trkpt lat="38.054686" lon="-1.294740">
        <ele>200.677</ele>
        <time>2017-03-18T16:15:09Z</time>
      </trkpt>
      <trkpt lat="38.054726" lon="-1.294632">
        <ele>201.251</ele>
        <time>2017-03-18T16:15:11Z</time>
      </trkpt>
      <trkpt lat="38.054763" lon="-1.294526">
        <ele>202.377</ele>
        <time>2017-03-18T16:15:13Z</time>
      </trkpt>
      <trkpt lat="38.054810" lon="-1.294416">
        <ele>202.937</ele>
        <time>2017-03-18T16:15:15Z</time>
      </trkpt>
      <trkpt lat="38.054852" lon="-1.294299">
        <ele>203.066</ele>
        <time>2017-03-18T16:15:18Z</time>
      </trkpt>
      <trkpt lat="38.054898" lon="-1.294169">
        <ele>203.029</ele>
        <time>2017-03-18T16:15:20Z</time>
      </trkpt>
      <trkpt lat="38.054942" lon="-1.294039">
        <ele>201.821</ele>
        <time>2017-03-18T16:15:22Z</time>
      </trkpt>
      <trkpt lat="38.054990" lon="-1.293902">
        <ele>200.408</ele>
        <time>2017-03-18T16:15:24Z</time>
      </trkpt>
      <trkpt lat="38.055032" lon="-1.293781">
        <ele>199.847</ele>
        <time>2017-03-18T16:15:26Z</time>
      </trkpt>
      <trkpt lat="38.055059" lon="-1.293664">
        <ele>199.112</ele>
        <time>2017-03-18T16:15:28Z</time>
      </trkpt>
      <trkpt lat="38.055082" lon="-1.293547">
        <ele>198.814</ele>
        <time>2017-03-18T16:15:30Z</time>
      </trkpt>
      <trkpt lat="38.055104" lon="-1.293431">
        <ele>198.379</ele>
        <time>2017-03-18T16:15:32Z</time>
      </trkpt>
      <trkpt lat="38.055121" lon="-1.293309">
        <ele>198.477</ele>
        <time>2017-03-18T16:15:34Z</time>
      </trkpt>
      <trkpt lat="38.055141" lon="-1.293186">
        <ele>198.641</ele>
        <time>2017-03-18T16:15:36Z</time>
      </trkpt>
      <trkpt lat="38.055165" lon="-1.293068">
        <ele>197.397</ele>
        <time>2017-03-18T16:15:38Z</time>
      </trkpt>
      <trkpt lat="38.055183" lon="-1.292913">
        <ele>195.267</ele>
        <time>2017-03-18T16:15:41Z</time>
      </trkpt>
      <trkpt lat="38.055171" lon="-1.292762">
        <ele>196.795</ele>
        <time>2017-03-18T16:15:44Z</time>
      </trkpt>
      <trkpt lat="38.055144" lon="-1.292609">
        <ele>199.249</ele>
        <time>2017-03-18T16:15:47Z</time>
      </trkpt>
      <trkpt lat="38.055137" lon="-1.292493">
        <ele>201.123</ele>
        <time>2017-03-18T16:15:49Z</time>
      </trkpt>
      <trkpt lat="38.055123" lon="-1.292377">
        <ele>202.108</ele>
        <time>2017-03-18T16:15:51Z</time>
      </trkpt>
      <trkpt lat="38.055104" lon="-1.292257">
        <ele>202.530</ele>
        <time>2017-03-18T16:15:53Z</time>
      </trkpt>
      <trkpt lat="38.055073" lon="-1.292120">
        <ele>202.465</ele>
        <time>2017-03-18T16:15:55Z</time>
      </trkpt>
      <trkpt lat="38.055046" lon="-1.291998">
        <ele>202.197</ele>
        <time>2017-03-18T16:15:57Z</time>
      </trkpt>
      <trkpt lat="38.055003" lon="-1.291825">
        <ele>201.292</ele>
        <time>2017-03-18T16:15:59Z</time>
      </trkpt>
      <trkpt lat="38.054958" lon="-1.291685">
        <ele>201.050</ele>
        <time>2017-03-18T16:16:02Z</time>
      </trkpt>
      <trkpt lat="38.054913" lon="-1.291521">
        <ele>202.354</ele>
        <time>2017-03-18T16:16:05Z</time>
      </trkpt>
      <trkpt lat="38.054867" lon="-1.291408">
        <ele>201.880</ele>
        <time>2017-03-18T16:16:07Z</time>
      </trkpt>
      <trkpt lat="38.054815" lon="-1.291280">
        <ele>202.010</ele>
        <time>2017-03-18T16:16:10Z</time>
      </trkpt>
      <trkpt lat="38.054751" lon="-1.291137">
        <ele>202.328</ele>
        <time>2017-03-18T16:16:13Z</time>
      </trkpt>
      <trkpt lat="38.054705" lon="-1.291035">
        <ele>202.389</ele>
        <time>2017-03-18T16:16:15Z</time>
      </trkpt>
      <trkpt lat="38.054657" lon="-1.290936">
        <ele>202.217</ele>
        <time>2017-03-18T16:16:17Z</time>
      </trkpt>
      <trkpt lat="38.054605" lon="-1.290838">
        <ele>202.208</ele>
        <time>2017-03-18T16:16:19Z</time>
      </trkpt>
      <trkpt lat="38.054545" lon="-1.290747">
        <ele>202.153</ele>
        <time>2017-03-18T16:16:21Z</time>
      </trkpt>
      <trkpt lat="38.054477" lon="-1.290646">
        <ele>201.548</ele>
        <time>2017-03-18T16:16:23Z</time>
      </trkpt>
      <trkpt lat="38.054418" lon="-1.290553">
        <ele>200.540</ele>
        <time>2017-03-18T16:16:25Z</time>
      </trkpt>
      <trkpt lat="38.054356" lon="-1.290466">
        <ele>199.965</ele>
        <time>2017-03-18T16:16:27Z</time>
      </trkpt>
      <trkpt lat="38.054291" lon="-1.290374">
        <ele>199.043</ele>
        <time>2017-03-18T16:16:30Z</time>
      </trkpt>
      <trkpt lat="38.054226" lon="-1.290279">
        <ele>199.577</ele>
        <time>2017-03-18T16:16:32Z</time>
      </trkpt>
      <trkpt lat="38.054135" lon="-1.290144">
        <ele>200.393</ele>
        <time>2017-03-18T16:16:35Z</time>
      </trkpt>
      <trkpt lat="38.054076" lon="-1.290046">
        <ele>200.553</ele>
        <time>2017-03-18T16:16:37Z</time>
      </trkpt>
      <trkpt lat="38.054012" lon="-1.289947">
        <ele>200.442</ele>
        <time>2017-03-18T16:16:39Z</time>
      </trkpt>
      <trkpt lat="38.053946" lon="-1.289867">
        <ele>200.122</ele>
        <time>2017-03-18T16:16:41Z</time>
      </trkpt>
      <trkpt lat="38.053858" lon="-1.289746">
        <ele>199.214</ele>
        <time>2017-03-18T16:16:44Z</time>
      </trkpt>
      <trkpt lat="38.053788" lon="-1.289660">
        <ele>199.308</ele>
        <time>2017-03-18T16:16:46Z</time>
      </trkpt>
      <trkpt lat="38.053728" lon="-1.289563">
        <ele>199.535</ele>
        <time>2017-03-18T16:16:48Z</time>
      </trkpt>
      <trkpt lat="38.053670" lon="-1.289475">
        <ele>199.390</ele>
        <time>2017-03-18T16:16:50Z</time>
      </trkpt>
      <trkpt lat="38.053589" lon="-1.289359">
        <ele>199.432</ele>
        <time>2017-03-18T16:16:53Z</time>
      </trkpt>
      <trkpt lat="38.053529" lon="-1.289272">
        <ele>199.837</ele>
        <time>2017-03-18T16:16:55Z</time>
      </trkpt>
      <trkpt lat="38.053470" lon="-1.289182">
        <ele>200.915</ele>
        <time>2017-03-18T16:16:57Z</time>
      </trkpt>
      <trkpt lat="38.053414" lon="-1.289089">
        <ele>201.999</ele>
        <time>2017-03-18T16:16:59Z</time>
      </trkpt>
      <trkpt lat="38.053327" lon="-1.288959">
        <ele>202.845</ele>
        <time>2017-03-18T16:17:02Z</time>
      </trkpt>
      <trkpt lat="38.053244" lon="-1.288837">
        <ele>202.755</ele>
        <time>2017-03-18T16:17:05Z</time>
      </trkpt>
      <trkpt lat="38.053162" lon="-1.288697">
        <ele>202.619</ele>
        <time>2017-03-18T16:17:08Z</time>
      </trkpt>
      <trkpt lat="38.053107" lon="-1.288599">
        <ele>203.209</ele>
        <time>2017-03-18T16:17:10Z</time>
      </trkpt>
      <trkpt lat="38.053027" lon="-1.288466">
        <ele>204.119</ele>
        <time>2017-03-18T16:17:13Z</time>
      </trkpt>
      <trkpt lat="38.052948" lon="-1.288334">
        <ele>204.208</ele>
        <time>2017-03-18T16:17:16Z</time>
      </trkpt>
      <trkpt lat="38.052881" lon="-1.288232">
        <ele>204.082</ele>
        <time>2017-03-18T16:17:18Z</time>
      </trkpt>
      <trkpt lat="38.052809" lon="-1.288131">
        <ele>203.957</ele>
        <time>2017-03-18T16:17:19Z</time>
      </trkpt>
      <trkpt lat="38.052749" lon="-1.288031">
        <ele>203.449</ele>
        <time>2017-03-18T16:17:21Z</time>
      </trkpt>
      <trkpt lat="38.052690" lon="-1.287912">
        <ele>203.074</ele>
        <time>2017-03-18T16:17:23Z</time>
      </trkpt>
      <trkpt lat="38.052636" lon="-1.287803">
        <ele>202.952</ele>
        <time>2017-03-18T16:17:25Z</time>
      </trkpt>
      <trkpt lat="38.052586" lon="-1.287699">
        <ele>202.816</ele>
        <time>2017-03-18T16:17:27Z</time>
      </trkpt>
      <trkpt lat="38.052543" lon="-1.287595">
        <ele>202.552</ele>
        <time>2017-03-18T16:17:29Z</time>
      </trkpt>
      <trkpt lat="38.052503" lon="-1.287486">
        <ele>201.742</ele>
        <time>2017-03-18T16:17:31Z</time>
      </trkpt>
      <trkpt lat="38.052467" lon="-1.287373">
        <ele>201.517</ele>
        <time>2017-03-18T16:17:33Z</time>
      </trkpt>
      <trkpt lat="38.052444" lon="-1.287247">
        <ele>202.187</ele>
        <time>2017-03-18T16:17:35Z</time>
      </trkpt>
      <trkpt lat="38.052420" lon="-1.287122">
        <ele>202.615</ele>
        <time>2017-03-18T16:17:37Z</time>
      </trkpt>
      <trkpt lat="38.052398" lon="-1.286998">
        <ele>202.908</ele>
        <time>2017-03-18T16:17:39Z</time>
      </trkpt>
      <trkpt lat="38.052380" lon="-1.286860">
        <ele>203.132</ele>
        <time>2017-03-18T16:17:41Z</time>
      </trkpt>
      <trkpt lat="38.052357" lon="-1.286715">
        <ele>203.517</ele>
        <time>2017-03-18T16:17:43Z</time>
      </trkpt>
      <trkpt lat="38.052335" lon="-1.286582">
        <ele>203.429</ele>
        <time>2017-03-18T16:17:45Z</time>
      </trkpt>
      <trkpt lat="38.052314" lon="-1.286442">
        <ele>203.414</ele>
        <time>2017-03-18T16:17:47Z</time>
      </trkpt>
      <trkpt lat="38.052300" lon="-1.286321">
        <ele>202.742</ele>
        <time>2017-03-18T16:17:49Z</time>
      </trkpt>
      <trkpt lat="38.052291" lon="-1.286191">
        <ele>202.166</ele>
        <time>2017-03-18T16:17:51Z</time>
      </trkpt>
      <trkpt lat="38.052288" lon="-1.286061">
        <ele>201.932</ele>
        <time>2017-03-18T16:17:53Z</time>
      </trkpt>
      <trkpt lat="38.052294" lon="-1.285892">
        <ele>200.622</ele>
        <time>2017-03-18T16:17:57Z</time>
      </trkpt>
      <trkpt lat="38.052303" lon="-1.285757">
        <ele>200.055</ele>
        <time>2017-03-18T16:17:59Z</time>
      </trkpt>
      <trkpt lat="38.052309" lon="-1.285622">
        <ele>199.707</ele>
        <time>2017-03-18T16:18:01Z</time>
      </trkpt>
      <trkpt lat="38.052312" lon="-1.285479">
        <ele>199.617</ele>
        <time>2017-03-18T16:18:03Z</time>
      </trkpt>
      <trkpt lat="38.052322" lon="-1.285349">
        <ele>200.108</ele>
        <time>2017-03-18T16:18:05Z</time>
      </trkpt>
      <trkpt lat="38.052331" lon="-1.285213">
        <ele>200.896</ele>
        <time>2017-03-18T16:18:07Z</time>
      </trkpt>
      <trkpt lat="38.052342" lon="-1.285072">
        <ele>201.331</ele>
        <time>2017-03-18T16:18:09Z</time>
      </trkpt>
      <trkpt lat="38.052350" lon="-1.284956">
        <ele>201.363</ele>
        <time>2017-03-18T16:18:11Z</time>
      </trkpt>
      <trkpt lat="38.052357" lon="-1.284834">
        <ele>200.728</ele>
        <time>2017-03-18T16:18:13Z</time>
      </trkpt>
      <trkpt lat="38.052367" lon="-1.284694">
        <ele>200.296</ele>
        <time>2017-03-18T16:18:15Z</time>
      </trkpt>
      <trkpt lat="38.052374" lon="-1.284555">
        <ele>200.210</ele>
        <time>2017-03-18T16:18:17Z</time>
      </trkpt>
      <trkpt lat="38.052388" lon="-1.284384">
        <ele>199.966</ele>
        <time>2017-03-18T16:18:20Z</time>
      </trkpt>
      <trkpt lat="38.052391" lon="-1.284265">
        <ele>199.956</ele>
        <time>2017-03-18T16:18:22Z</time>
      </trkpt>
      <trkpt lat="38.052391" lon="-1.284140">
        <ele>199.786</ele>
        <time>2017-03-18T16:18:24Z</time>
      </trkpt>
      <trkpt lat="38.052377" lon="-1.283999">
        <ele>199.760</ele>
        <time>2017-03-18T16:18:27Z</time>
      </trkpt>
      <trkpt lat="38.052343" lon="-1.283873">
        <ele>198.826</ele>
        <time>2017-03-18T16:18:30Z</time>
      </trkpt>
      <trkpt lat="38.052335" lon="-1.283736">
        <ele>198.908</ele>
        <time>2017-03-18T16:18:33Z</time>
      </trkpt>
      <trkpt lat="38.052388" lon="-1.283643">
        <ele>199.189</ele>
        <time>2017-03-18T16:18:35Z</time>
      </trkpt>
      <trkpt lat="38.052439" lon="-1.283529">
        <ele>198.914</ele>
        <time>2017-03-18T16:18:37Z</time>
      </trkpt>
      <trkpt lat="38.052445" lon="-1.283393">
        <ele>198.456</ele>
        <time>2017-03-18T16:18:39Z</time>
      </trkpt>
      <trkpt lat="38.052463" lon="-1.283261">
        <ele>198.761</ele>
        <time>2017-03-18T16:18:41Z</time>
      </trkpt>
      <trkpt lat="38.052478" lon="-1.283143">
        <ele>199.259</ele>
        <time>2017-03-18T16:18:43Z</time>
      </trkpt>
      <trkpt lat="38.052475" lon="-1.282992">
        <ele>200.363</ele>
        <time>2017-03-18T16:18:46Z</time>
      </trkpt>
      <trkpt lat="38.052494" lon="-1.282757">
        <ele>200.349</ele>
        <time>2017-03-18T16:18:49Z</time>
      </trkpt>
      <trkpt lat="38.052498" lon="-1.282624">
        <ele>200.099</ele>
        <time>2017-03-18T16:18:51Z</time>
      </trkpt>
      <trkpt lat="38.052504" lon="-1.282484">
        <ele>199.511</ele>
        <time>2017-03-18T16:18:53Z</time>
      </trkpt>
      <trkpt lat="38.052513" lon="-1.282312">
        <ele>199.121</ele>
        <time>2017-03-18T16:18:56Z</time>
      </trkpt>
      <trkpt lat="38.052532" lon="-1.282139">
        <ele>199.203</ele>
        <time>2017-03-18T16:18:59Z</time>
      </trkpt>
      <trkpt lat="38.052540" lon="-1.282010">
        <ele>199.108</ele>
        <time>2017-03-18T16:19:01Z</time>
      </trkpt>
      <trkpt lat="38.052546" lon="-1.281878">
        <ele>198.622</ele>
        <time>2017-03-18T16:19:03Z</time>
      </trkpt>
      <trkpt lat="38.052549" lon="-1.281753">
        <ele>197.887</ele>
        <time>2017-03-18T16:19:05Z</time>
      </trkpt>
      <trkpt lat="38.052560" lon="-1.281607">
        <ele>197.639</ele>
        <time>2017-03-18T16:19:07Z</time>
      </trkpt>
      <trkpt lat="38.052567" lon="-1.281465">
        <ele>197.764</ele>
        <time>2017-03-18T16:19:09Z</time>
      </trkpt>
      <trkpt lat="38.052571" lon="-1.281339">
        <ele>198.072</ele>
        <time>2017-03-18T16:19:11Z</time>
      </trkpt>
      <trkpt lat="38.052577" lon="-1.281217">
        <ele>198.266</ele>
        <time>2017-03-18T16:19:13Z</time>
      </trkpt>
      <trkpt lat="38.052583" lon="-1.281078">
        <ele>198.662</ele>
        <time>2017-03-18T16:19:16Z</time>
      </trkpt>
      <trkpt lat="38.052589" lon="-1.280942">
        <ele>199.262</ele>
        <time>2017-03-18T16:19:18Z</time>
      </trkpt>
      <trkpt lat="38.052599" lon="-1.280822">
        <ele>199.453</ele>
        <time>2017-03-18T16:19:20Z</time>
      </trkpt>
      <trkpt lat="38.052608" lon="-1.280693">
        <ele>199.204</ele>
        <time>2017-03-18T16:19:22Z</time>
      </trkpt>
      <trkpt lat="38.052622" lon="-1.280571">
        <ele>199.214</ele>
        <time>2017-03-18T16:19:24Z</time>
      </trkpt>
      <trkpt lat="38.052633" lon="-1.280457">
        <ele>198.908</ele>
        <time>2017-03-18T16:19:26Z</time>
      </trkpt>
      <trkpt lat="38.052639" lon="-1.280326">
        <ele>198.426</ele>
        <time>2017-03-18T16:19:28Z</time>
      </trkpt>
      <trkpt lat="38.052642" lon="-1.280185">
        <ele>198.481</ele>
        <time>2017-03-18T16:19:30Z</time>
      </trkpt>
      <trkpt lat="38.052655" lon="-1.280047">
        <ele>198.233</ele>
        <time>2017-03-18T16:19:32Z</time>
      </trkpt>
      <trkpt lat="38.052655" lon="-1.279909">
        <ele>197.318</ele>
        <time>2017-03-18T16:19:34Z</time>
      </trkpt>
      <trkpt lat="38.052657" lon="-1.279772">
        <ele>196.676</ele>
        <time>2017-03-18T16:19:36Z</time>
      </trkpt>
      <trkpt lat="38.052658" lon="-1.279649">
        <ele>196.260</ele>
        <time>2017-03-18T16:19:38Z</time>
      </trkpt>
      <trkpt lat="38.052652" lon="-1.279521">
        <ele>195.956</ele>
        <time>2017-03-18T16:19:40Z</time>
      </trkpt>
      <trkpt lat="38.052635" lon="-1.279378">
        <ele>195.456</ele>
        <time>2017-03-18T16:19:42Z</time>
      </trkpt>
      <trkpt lat="38.052623" lon="-1.279224">
        <ele>194.656</ele>
        <time>2017-03-18T16:19:44Z</time>
      </trkpt>
      <trkpt lat="38.052597" lon="-1.279060">
        <ele>193.759</ele>
        <time>2017-03-18T16:19:46Z</time>
      </trkpt>
      <trkpt lat="38.052567" lon="-1.278909">
        <ele>192.314</ele>
        <time>2017-03-18T16:19:48Z</time>
      </trkpt>
      <trkpt lat="38.052535" lon="-1.278760">
        <ele>191.108</ele>
        <time>2017-03-18T16:19:50Z</time>
      </trkpt>
      <trkpt lat="38.052502" lon="-1.278620">
        <ele>190.046</ele>
        <time>2017-03-18T16:19:52Z</time>
      </trkpt>
      <trkpt lat="38.052468" lon="-1.278489">
        <ele>189.541</ele>
        <time>2017-03-18T16:19:54Z</time>
      </trkpt>
      <trkpt lat="38.052426" lon="-1.278344">
        <ele>189.053</ele>
        <time>2017-03-18T16:19:56Z</time>
      </trkpt>
      <trkpt lat="38.052382" lon="-1.278221">
        <ele>188.838</ele>
        <time>2017-03-18T16:19:58Z</time>
      </trkpt>
      <trkpt lat="38.052345" lon="-1.278114">
        <ele>188.496</ele>
        <time>2017-03-18T16:20:00Z</time>
      </trkpt>
      <trkpt lat="38.052292" lon="-1.277978">
        <ele>188.860</ele>
        <time>2017-03-18T16:20:03Z</time>
      </trkpt>
      <trkpt lat="38.052248" lon="-1.277863">
        <ele>189.956</ele>
        <time>2017-03-18T16:20:04Z</time>
      </trkpt>
      <trkpt lat="38.052199" lon="-1.277748">
        <ele>190.626</ele>
        <time>2017-03-18T16:20:06Z</time>
      </trkpt>
      <trkpt lat="38.052147" lon="-1.277636">
        <ele>191.611</ele>
        <time>2017-03-18T16:20:08Z</time>
      </trkpt>
      <trkpt lat="38.052089" lon="-1.277508">
        <ele>192.221</ele>
        <time>2017-03-18T16:20:10Z</time>
      </trkpt>
      <trkpt lat="38.052034" lon="-1.277392">
        <ele>191.003</ele>
        <time>2017-03-18T16:20:12Z</time>
      </trkpt>
      <trkpt lat="38.051976" lon="-1.277293">
        <ele>189.708</ele>
        <time>2017-03-18T16:20:14Z</time>
      </trkpt>
      <trkpt lat="38.051910" lon="-1.277182">
        <ele>188.732</ele>
        <time>2017-03-18T16:20:16Z</time>
      </trkpt>
      <trkpt lat="38.051845" lon="-1.277091">
        <ele>188.197</ele>
        <time>2017-03-18T16:20:18Z</time>
      </trkpt>
      <trkpt lat="38.051776" lon="-1.277002">
        <ele>187.879</ele>
        <time>2017-03-18T16:20:20Z</time>
      </trkpt>
      <trkpt lat="38.051669" lon="-1.276861">
        <ele>187.574</ele>
        <time>2017-03-18T16:20:23Z</time>
      </trkpt>
      <trkpt lat="38.051604" lon="-1.276772">
        <ele>187.372</ele>
        <time>2017-03-18T16:20:25Z</time>
      </trkpt>
      <trkpt lat="38.051542" lon="-1.276686">
        <ele>187.276</ele>
        <time>2017-03-18T16:20:27Z</time>
      </trkpt>
      <trkpt lat="38.051485" lon="-1.276589">
        <ele>186.722</ele>
        <time>2017-03-18T16:20:30Z</time>
      </trkpt>
      <trkpt lat="38.051416" lon="-1.276432">
        <ele>186.692</ele>
        <time>2017-03-18T16:20:32Z</time>
      </trkpt>
      <trkpt lat="38.051357" lon="-1.276317">
        <ele>186.111</ele>
        <time>2017-03-18T16:20:34Z</time>
      </trkpt>
      <trkpt lat="38.051289" lon="-1.276205">
        <ele>185.021</ele>
        <time>2017-03-18T16:20:36Z</time>
      </trkpt>
      <trkpt lat="38.051218" lon="-1.276090">
        <ele>184.403</ele>
        <time>2017-03-18T16:20:38Z</time>
      </trkpt>
      <trkpt lat="38.051147" lon="-1.275982">
        <ele>184.308</ele>
        <time>2017-03-18T16:20:40Z</time>
      </trkpt>
      <trkpt lat="38.051074" lon="-1.275874">
        <ele>184.952</ele>
        <time>2017-03-18T16:20:42Z</time>
      </trkpt>
      <trkpt lat="38.051004" lon="-1.275776">
        <ele>185.297</ele>
        <time>2017-03-18T16:20:44Z</time>
      </trkpt>
      <trkpt lat="38.050937" lon="-1.275678">
        <ele>185.669</ele>
        <time>2017-03-18T16:20:46Z</time>
      </trkpt>
      <trkpt lat="38.050862" lon="-1.275572">
        <ele>186.054</ele>
        <time>2017-03-18T16:20:48Z</time>
      </trkpt>
      <trkpt lat="38.050781" lon="-1.275452">
        <ele>186.262</ele>
        <time>2017-03-18T16:20:50Z</time>
      </trkpt>
      <trkpt lat="38.050700" lon="-1.275331">
        <ele>186.266</ele>
        <time>2017-03-18T16:20:52Z</time>
      </trkpt>
      <trkpt lat="38.050623" lon="-1.275214">
        <ele>186.072</ele>
        <time>2017-03-18T16:20:54Z</time>
      </trkpt>
      <trkpt lat="38.050553" lon="-1.275098">
        <ele>185.532</ele>
        <time>2017-03-18T16:20:56Z</time>
      </trkpt>
      <trkpt lat="38.050482" lon="-1.274978">
        <ele>185.084</ele>
        <time>2017-03-18T16:20:58Z</time>
      </trkpt>
      <trkpt lat="38.050407" lon="-1.274862">
        <ele>184.407</ele>
        <time>2017-03-18T16:21:00Z</time>
      </trkpt>
      <trkpt lat="38.050319" lon="-1.274734">
        <ele>184.717</ele>
        <time>2017-03-18T16:21:02Z</time>
      </trkpt>
      <trkpt lat="38.050224" lon="-1.274593">
        <ele>186.108</ele>
        <time>2017-03-18T16:21:04Z</time>
      </trkpt>
      <trkpt lat="38.050134" lon="-1.274454">
        <ele>188.059</ele>
        <time>2017-03-18T16:21:06Z</time>
      </trkpt>
      <trkpt lat="38.050059" lon="-1.274335">
        <ele>189.724</ele>
        <time>2017-03-18T16:21:08Z</time>
      </trkpt>
      <trkpt lat="38.049987" lon="-1.274215">
        <ele>190.786</ele>
        <time>2017-03-18T16:21:10Z</time>
      </trkpt>
      <trkpt lat="38.049917" lon="-1.274098">
        <ele>191.051</ele>
        <time>2017-03-18T16:21:12Z</time>
      </trkpt>
      <trkpt lat="38.049838" lon="-1.273962">
        <ele>191.229</ele>
        <time>2017-03-18T16:21:14Z</time>
      </trkpt>
      <trkpt lat="38.049758" lon="-1.273832">
        <ele>190.813</ele>
        <time>2017-03-18T16:21:17Z</time>
      </trkpt>
      <trkpt lat="38.049682" lon="-1.273725">
        <ele>189.379</ele>
        <time>2017-03-18T16:21:19Z</time>
      </trkpt>
      <trkpt lat="38.049594" lon="-1.273599">
        <ele>187.629</ele>
        <time>2017-03-18T16:21:21Z</time>
      </trkpt>
      <trkpt lat="38.049511" lon="-1.273479">
        <ele>186.043</ele>
        <time>2017-03-18T16:21:23Z</time>
      </trkpt>
      <trkpt lat="38.049424" lon="-1.273347">
        <ele>185.064</ele>
        <time>2017-03-18T16:21:25Z</time>
      </trkpt>
      <trkpt lat="38.049329" lon="-1.273196">
        <ele>185.210</ele>
        <time>2017-03-18T16:21:27Z</time>
      </trkpt>
      <trkpt lat="38.049240" lon="-1.273060">
        <ele>185.708</ele>
        <time>2017-03-18T16:21:29Z</time>
      </trkpt>
      <trkpt lat="38.049119" lon="-1.272870">
        <ele>186.025</ele>
        <time>2017-03-18T16:21:31Z</time>
      </trkpt>
      <trkpt lat="38.049043" lon="-1.272749">
        <ele>185.910</ele>
        <time>2017-03-18T16:21:33Z</time>
      </trkpt>
      <trkpt lat="38.048964" lon="-1.272617">
        <ele>186.052</ele>
        <time>2017-03-18T16:21:35Z</time>
      </trkpt>
      <trkpt lat="38.048892" lon="-1.272492">
        <ele>186.147</ele>
        <time>2017-03-18T16:21:37Z</time>
      </trkpt>
      <trkpt lat="38.048818" lon="-1.272376">
        <ele>185.965</ele>
        <time>2017-03-18T16:21:39Z</time>
      </trkpt>
      <trkpt lat="38.048744" lon="-1.272255">
        <ele>185.559</ele>
        <time>2017-03-18T16:21:41Z</time>
      </trkpt>
      <trkpt lat="38.048667" lon="-1.272128">
        <ele>185.595</ele>
        <time>2017-03-18T16:21:43Z</time>
      </trkpt>
      <trkpt lat="38.048600" lon="-1.272003">
        <ele>185.275</ele>
        <time>2017-03-18T16:21:45Z</time>
      </trkpt>
      <trkpt lat="38.048533" lon="-1.271872">
        <ele>184.587</ele>
        <time>2017-03-18T16:21:47Z</time>
      </trkpt>
      <trkpt lat="38.048472" lon="-1.271741">
        <ele>183.942</ele>
        <time>2017-03-18T16:21:49Z</time>
      </trkpt>
      <trkpt lat="38.048412" lon="-1.271590">
        <ele>183.526</ele>
        <time>2017-03-18T16:21:51Z</time>
      </trkpt>
      <trkpt lat="38.048358" lon="-1.271449">
        <ele>183.308</ele>
        <time>2017-03-18T16:21:53Z</time>
      </trkpt>
      <trkpt lat="38.048306" lon="-1.271295">
        <ele>183.459</ele>
        <time>2017-03-18T16:21:55Z</time>
      </trkpt>
      <trkpt lat="38.048258" lon="-1.271136">
        <ele>184.184</ele>
        <time>2017-03-18T16:21:57Z</time>
      </trkpt>
      <trkpt lat="38.048208" lon="-1.270981">
        <ele>184.956</ele>
        <time>2017-03-18T16:21:59Z</time>
      </trkpt>
      <trkpt lat="38.048159" lon="-1.270824">
        <ele>185.621</ele>
        <time>2017-03-18T16:22:01Z</time>
      </trkpt>
      <trkpt lat="38.048118" lon="-1.270674">
        <ele>185.989</ele>
        <time>2017-03-18T16:22:03Z</time>
      </trkpt>
      <trkpt lat="38.048082" lon="-1.270526">
        <ele>186.563</ele>
        <time>2017-03-18T16:22:05Z</time>
      </trkpt>
      <trkpt lat="38.048045" lon="-1.270376">
        <ele>186.979</ele>
        <time>2017-03-18T16:22:07Z</time>
      </trkpt>
      <trkpt lat="38.048010" lon="-1.270231">
        <ele>187.079</ele>
        <time>2017-03-18T16:22:09Z</time>
      </trkpt>
      <trkpt lat="38.047988" lon="-1.270108">
        <ele>186.497</ele>
        <time>2017-03-18T16:22:11Z</time>
      </trkpt>
      <trkpt lat="38.047967" lon="-1.269951">
        <ele>185.623</ele>
        <time>2017-03-18T16:22:13Z</time>
      </trkpt>
      <trkpt lat="38.047948" lon="-1.269817">
        <ele>184.925</ele>
        <time>2017-03-18T16:22:15Z</time>
      </trkpt>
      <trkpt lat="38.047935" lon="-1.269696">
        <ele>183.908</ele>
        <time>2017-03-18T16:22:17Z</time>
      </trkpt>
      <trkpt lat="38.047919" lon="-1.269538">
        <ele>183.660</ele>
        <time>2017-03-18T16:22:19Z</time>
      </trkpt>
      <trkpt lat="38.047906" lon="-1.269371">
        <ele>183.995</ele>
        <time>2017-03-18T16:22:21Z</time>
      </trkpt>
      <trkpt lat="38.047904" lon="-1.269214">
        <ele>184.487</ele>
        <time>2017-03-18T16:22:23Z</time>
      </trkpt>
      <trkpt lat="38.047911" lon="-1.269074">
        <ele>184.532</ele>
        <time>2017-03-18T16:22:25Z</time>
      </trkpt>
      <trkpt lat="38.047920" lon="-1.268943">
        <ele>184.470</ele>
        <time>2017-03-18T16:22:27Z</time>
      </trkpt>
      <trkpt lat="38.047925" lon="-1.268803">
        <ele>184.254</ele>
        <time>2017-03-18T16:22:29Z</time>
      </trkpt>
      <trkpt lat="38.047928" lon="-1.268662">
        <ele>183.610</ele>
        <time>2017-03-18T16:22:31Z</time>
      </trkpt>
      <trkpt lat="38.047926" lon="-1.268512">
        <ele>183.880</ele>
        <time>2017-03-18T16:22:33Z</time>
      </trkpt>
      <trkpt lat="38.047926" lon="-1.268360">
        <ele>184.193</ele>
        <time>2017-03-18T16:22:36Z</time>
      </trkpt>
      <trkpt lat="38.047937" lon="-1.268236">
        <ele>183.665</ele>
        <time>2017-03-18T16:22:38Z</time>
      </trkpt>
      <trkpt lat="38.047953" lon="-1.268079">
        <ele>182.721</ele>
        <time>2017-03-18T16:22:40Z</time>
      </trkpt>
      <trkpt lat="38.047972" lon="-1.267904">
        <ele>181.708</ele>
        <time>2017-03-18T16:22:43Z</time>
      </trkpt>
      <trkpt lat="38.047995" lon="-1.267737">
        <ele>180.850</ele>
        <time>2017-03-18T16:22:45Z</time>
      </trkpt>
      <trkpt lat="38.048018" lon="-1.267571">
        <ele>180.055</ele>
        <time>2017-03-18T16:22:47Z</time>
      </trkpt>
      <trkpt lat="38.048054" lon="-1.267413">
        <ele>179.137</ele>
        <time>2017-03-18T16:22:49Z</time>
      </trkpt>
      <trkpt lat="38.048095" lon="-1.267234">
        <ele>178.462</ele>
        <time>2017-03-18T16:22:51Z</time>
      </trkpt>
      <trkpt lat="38.048134" lon="-1.267045">
        <ele>177.860</ele>
        <time>2017-03-18T16:22:53Z</time>
      </trkpt>
      <trkpt lat="38.048186" lon="-1.266860">
        <ele>177.054</ele>
        <time>2017-03-18T16:22:55Z</time>
      </trkpt>
      <trkpt lat="38.048230" lon="-1.266674">
        <ele>176.720</ele>
        <time>2017-03-18T16:22:57Z</time>
      </trkpt>
      <trkpt lat="38.048270" lon="-1.266479">
        <ele>176.960</ele>
        <time>2017-03-18T16:22:58Z</time>
      </trkpt>
      <trkpt lat="38.048311" lon="-1.266307">
        <ele>176.636</ele>
        <time>2017-03-18T16:23:00Z</time>
      </trkpt>
      <trkpt lat="38.048357" lon="-1.266130">
        <ele>176.217</ele>
        <time>2017-03-18T16:23:02Z</time>
      </trkpt>
      <trkpt lat="38.048404" lon="-1.265944">
        <ele>175.818</ele>
        <time>2017-03-18T16:23:04Z</time>
      </trkpt>
      <trkpt lat="38.048442" lon="-1.265773">
        <ele>175.508</ele>
        <time>2017-03-18T16:23:06Z</time>
      </trkpt>
      <trkpt lat="38.048482" lon="-1.265594">
        <ele>175.184</ele>
        <time>2017-03-18T16:23:08Z</time>
      </trkpt>
      <trkpt lat="38.048525" lon="-1.265424">
        <ele>174.519</ele>
        <time>2017-03-18T16:23:10Z</time>
      </trkpt>
      <trkpt lat="38.048568" lon="-1.265249">
        <ele>173.931</ele>
        <time>2017-03-18T16:23:12Z</time>
      </trkpt>
      <trkpt lat="38.048607" lon="-1.265079">
        <ele>173.326</ele>
        <time>2017-03-18T16:23:14Z</time>
      </trkpt>
      <trkpt lat="38.048646" lon="-1.264905">
        <ele>173.054</ele>
        <time>2017-03-18T16:23:16Z</time>
      </trkpt>
      <trkpt lat="38.048682" lon="-1.264741">
        <ele>173.198</ele>
        <time>2017-03-18T16:23:18Z</time>
      </trkpt>
      <trkpt lat="38.048723" lon="-1.264572">
        <ele>173.254</ele>
        <time>2017-03-18T16:23:20Z</time>
      </trkpt>
      <trkpt lat="38.048762" lon="-1.264405">
        <ele>173.044</ele>
        <time>2017-03-18T16:23:22Z</time>
      </trkpt>
      <trkpt lat="38.048800" lon="-1.264244">
        <ele>172.662</ele>
        <time>2017-03-18T16:23:24Z</time>
      </trkpt>
      <trkpt lat="38.048836" lon="-1.264096">
        <ele>171.883</ele>
        <time>2017-03-18T16:23:26Z</time>
      </trkpt>
      <trkpt lat="38.048870" lon="-1.263956">
        <ele>171.211</ele>
        <time>2017-03-18T16:23:29Z</time>
      </trkpt>
      <trkpt lat="38.048908" lon="-1.263825">
        <ele>170.308</ele>
        <time>2017-03-18T16:23:32Z</time>
      </trkpt>
      <trkpt lat="38.048946" lon="-1.263699">
        <ele>169.667</ele>
        <time>2017-03-18T16:23:34Z</time>
      </trkpt>
      <trkpt lat="38.048994" lon="-1.263553">
        <ele>169.142</ele>
        <time>2017-03-18T16:23:36Z</time>
      </trkpt>
      <trkpt lat="38.049040" lon="-1.263396">
        <ele>169.324</ele>
        <time>2017-03-18T16:23:38Z</time>
      </trkpt>
      <trkpt lat="38.049089" lon="-1.263241">
        <ele>169.859</ele>
        <time>2017-03-18T16:23:40Z</time>
      </trkpt>
      <trkpt lat="38.049131" lon="-1.263079">
        <ele>169.697</ele>
        <time>2017-03-18T16:23:42Z</time>
      </trkpt>
      <trkpt lat="38.049162" lon="-1.262929">
        <ele>168.931</ele>
        <time>2017-03-18T16:23:44Z</time>
      </trkpt>
      <trkpt lat="38.049191" lon="-1.262764">
        <ele>167.927</ele>
        <time>2017-03-18T16:23:46Z</time>
      </trkpt>
      <trkpt lat="38.049225" lon="-1.262603">
        <ele>166.967</ele>
        <time>2017-03-18T16:23:48Z</time>
      </trkpt>
      <trkpt lat="38.049259" lon="-1.262431">
        <ele>165.967</ele>
        <time>2017-03-18T16:23:50Z</time>
      </trkpt>
      <trkpt lat="38.049294" lon="-1.262258">
        <ele>164.881</ele>
        <time>2017-03-18T16:23:52Z</time>
      </trkpt>
      <trkpt lat="38.049329" lon="-1.262077">
        <ele>163.719</ele>
        <time>2017-03-18T16:23:54Z</time>
      </trkpt>
      <trkpt lat="38.049369" lon="-1.261886">
        <ele>162.008</ele>
        <time>2017-03-18T16:23:56Z</time>
      </trkpt>
      <trkpt lat="38.049405" lon="-1.261710">
        <ele>160.447</ele>
        <time>2017-03-18T16:23:58Z</time>
      </trkpt>
      <trkpt lat="38.049439" lon="-1.261536">
        <ele>158.832</ele>
        <time>2017-03-18T16:24:01Z</time>
      </trkpt>
      <trkpt lat="38.049470" lon="-1.261367">
        <ele>157.554</ele>
        <time>2017-03-18T16:24:03Z</time>
      </trkpt>
      <trkpt lat="38.049502" lon="-1.261213">
        <ele>157.029</ele>
        <time>2017-03-18T16:24:05Z</time>
      </trkpt>
      <trkpt lat="38.049541" lon="-1.261067">
        <ele>157.067</ele>
        <time>2017-03-18T16:24:07Z</time>
      </trkpt>
      <trkpt lat="38.049579" lon="-1.260919">
        <ele>157.541</ele>
        <time>2017-03-18T16:24:09Z</time>
      </trkpt>
      <trkpt lat="38.049619" lon="-1.260774">
        <ele>158.537</ele>
        <time>2017-03-18T16:24:11Z</time>
      </trkpt>
      <trkpt lat="38.049656" lon="-1.260617">
        <ele>159.457</ele>
        <time>2017-03-18T16:24:13Z</time>
      </trkpt>
      <trkpt lat="38.049697" lon="-1.260445">
        <ele>160.117</ele>
        <time>2017-03-18T16:24:15Z</time>
      </trkpt>
      <trkpt lat="38.049757" lon="-1.260192">
        <ele>160.687</ele>
        <time>2017-03-18T16:24:17Z</time>
      </trkpt>
      <trkpt lat="38.049796" lon="-1.260027">
        <ele>160.615</ele>
        <time>2017-03-18T16:24:19Z</time>
      </trkpt>
      <trkpt lat="38.049822" lon="-1.259856">
        <ele>160.108</ele>
        <time>2017-03-18T16:24:21Z</time>
      </trkpt>
      <trkpt lat="38.049856" lon="-1.259672">
        <ele>160.382</ele>
        <time>2017-03-18T16:24:23Z</time>
      </trkpt>
      <trkpt lat="38.049885" lon="-1.259527">
        <ele>161.027</ele>
        <time>2017-03-18T16:24:25Z</time>
      </trkpt>
      <trkpt lat="38.049925" lon="-1.259362">
        <ele>161.779</ele>
        <time>2017-03-18T16:24:27Z</time>
      </trkpt>
      <trkpt lat="38.049965" lon="-1.259209">
        <ele>162.374</ele>
        <time>2017-03-18T16:24:29Z</time>
      </trkpt>
      <trkpt lat="38.050003" lon="-1.259078">
        <ele>162.492</ele>
        <time>2017-03-18T16:24:31Z</time>
      </trkpt>
      <trkpt lat="38.050047" lon="-1.258935">
        <ele>161.556</ele>
        <time>2017-03-18T16:24:33Z</time>
      </trkpt>
      <trkpt lat="38.050083" lon="-1.258777">
        <ele>160.552</ele>
        <time>2017-03-18T16:24:35Z</time>
      </trkpt>
      <trkpt lat="38.050119" lon="-1.258604">
        <ele>159.272</ele>
        <time>2017-03-18T16:24:37Z</time>
      </trkpt>
      <trkpt lat="38.050155" lon="-1.258438">
        <ele>158.267</ele>
        <time>2017-03-18T16:24:39Z</time>
      </trkpt>
      <trkpt lat="38.050186" lon="-1.258288">
        <ele>158.081</ele>
        <time>2017-03-18T16:24:41Z</time>
      </trkpt>
      <trkpt lat="38.050210" lon="-1.258133">
        <ele>158.019</ele>
        <time>2017-03-18T16:24:43Z</time>
      </trkpt>
      <trkpt lat="38.050233" lon="-1.257976">
        <ele>157.608</ele>
        <time>2017-03-18T16:24:45Z</time>
      </trkpt>
      <trkpt lat="38.050252" lon="-1.257824">
        <ele>157.177</ele>
        <time>2017-03-18T16:24:47Z</time>
      </trkpt>
      <trkpt lat="38.050261" lon="-1.257656">
        <ele>156.712</ele>
        <time>2017-03-18T16:24:49Z</time>
      </trkpt>
      <trkpt lat="38.050261" lon="-1.257502">
        <ele>156.274</ele>
        <time>2017-03-18T16:24:51Z</time>
      </trkpt>
      <trkpt lat="38.050259" lon="-1.257336">
        <ele>155.729</ele>
        <time>2017-03-18T16:24:53Z</time>
      </trkpt>
      <trkpt lat="38.050252" lon="-1.257166">
        <ele>155.317</ele>
        <time>2017-03-18T16:24:55Z</time>
      </trkpt>
      <trkpt lat="38.050240" lon="-1.257008">
        <ele>155.561</ele>
        <time>2017-03-18T16:24:57Z</time>
      </trkpt>
      <trkpt lat="38.050219" lon="-1.256844">
        <ele>155.757</ele>
        <time>2017-03-18T16:24:59Z</time>
      </trkpt>
      <trkpt lat="38.050191" lon="-1.256681">
        <ele>156.037</ele>
        <time>2017-03-18T16:25:01Z</time>
      </trkpt>
      <trkpt lat="38.050156" lon="-1.256520">
        <ele>155.764</ele>
        <time>2017-03-18T16:25:03Z</time>
      </trkpt>
      <trkpt lat="38.050110" lon="-1.256370">
        <ele>155.206</ele>
        <time>2017-03-18T16:25:05Z</time>
      </trkpt>
      <trkpt lat="38.050059" lon="-1.256213">
        <ele>154.216</ele>
        <time>2017-03-18T16:25:07Z</time>
      </trkpt>
      <trkpt lat="38.050003" lon="-1.256058">
        <ele>152.808</ele>
        <time>2017-03-18T16:25:09Z</time>
      </trkpt>
      <trkpt lat="38.049942" lon="-1.255929">
        <ele>151.977</ele>
        <time>2017-03-18T16:25:11Z</time>
      </trkpt>
      <trkpt lat="38.049871" lon="-1.255796">
        <ele>151.782</ele>
        <time>2017-03-18T16:25:13Z</time>
      </trkpt>
      <trkpt lat="38.049789" lon="-1.255651">
        <ele>152.014</ele>
        <time>2017-03-18T16:25:15Z</time>
      </trkpt>
      <trkpt lat="38.049706" lon="-1.255515">
        <ele>153.099</ele>
        <time>2017-03-18T16:25:17Z</time>
      </trkpt>
      <trkpt lat="38.049623" lon="-1.255379">
        <ele>154.077</ele>
        <time>2017-03-18T16:25:19Z</time>
      </trkpt>
      <trkpt lat="38.049545" lon="-1.255247">
        <ele>155.031</ele>
        <time>2017-03-18T16:25:21Z</time>
      </trkpt>
      <trkpt lat="38.049464" lon="-1.255120">
        <ele>155.537</ele>
        <time>2017-03-18T16:25:23Z</time>
      </trkpt>
      <trkpt lat="38.049371" lon="-1.254992">
        <ele>156.287</ele>
        <time>2017-03-18T16:25:25Z</time>
      </trkpt>
      <trkpt lat="38.049280" lon="-1.254878">
        <ele>156.557</ele>
        <time>2017-03-18T16:25:27Z</time>
      </trkpt>
      <trkpt lat="38.049188" lon="-1.254780">
        <ele>155.700</ele>
        <time>2017-03-18T16:25:29Z</time>
      </trkpt>
      <trkpt lat="38.049090" lon="-1.254701">
        <ele>154.420</ele>
        <time>2017-03-18T16:25:31Z</time>
      </trkpt>
      <trkpt lat="38.049000" lon="-1.254628">
        <ele>153.308</ele>
        <time>2017-03-18T16:25:33Z</time>
      </trkpt>
      <trkpt lat="38.048916" lon="-1.254552">
        <ele>152.446</ele>
        <time>2017-03-18T16:25:35Z</time>
      </trkpt>
      <trkpt lat="38.048836" lon="-1.254471">
        <ele>151.891</ele>
        <time>2017-03-18T16:25:37Z</time>
      </trkpt>
      <trkpt lat="38.048763" lon="-1.254393">
        <ele>151.743</ele>
        <time>2017-03-18T16:25:39Z</time>
      </trkpt>
      <trkpt lat="38.048660" lon="-1.254285">
        <ele>152.148</ele>
        <time>2017-03-18T16:25:42Z</time>
      </trkpt>
      <trkpt lat="38.048565" lon="-1.254200">
        <ele>152.956</ele>
        <time>2017-03-18T16:25:45Z</time>
      </trkpt>
      <trkpt lat="38.048470" lon="-1.254107">
        <ele>153.540</ele>
        <time>2017-03-18T16:25:47Z</time>
      </trkpt>
      <trkpt lat="38.048377" lon="-1.254014">
        <ele>153.196</ele>
        <time>2017-03-18T16:25:49Z</time>
      </trkpt>
      <trkpt lat="38.048286" lon="-1.253927">
        <ele>152.886</ele>
        <time>2017-03-18T16:25:51Z</time>
      </trkpt>
      <trkpt lat="38.048201" lon="-1.253849">
        <ele>152.067</ele>
        <time>2017-03-18T16:25:53Z</time>
      </trkpt>
      <trkpt lat="38.048109" lon="-1.253758">
        <ele>151.381</ele>
        <time>2017-03-18T16:25:55Z</time>
      </trkpt>
      <trkpt lat="38.048018" lon="-1.253669">
        <ele>150.919</ele>
        <time>2017-03-18T16:25:57Z</time>
      </trkpt>
      <trkpt lat="38.047937" lon="-1.253589">
        <ele>150.408</ele>
        <time>2017-03-18T16:25:59Z</time>
      </trkpt>
      <trkpt lat="38.047810" lon="-1.253459">
        <ele>149.477</ele>
        <time>2017-03-18T16:26:01Z</time>
      </trkpt>
      <trkpt lat="38.047725" lon="-1.253376">
        <ele>148.752</ele>
        <time>2017-03-18T16:26:03Z</time>
      </trkpt>
      <trkpt lat="38.047629" lon="-1.253273">
        <ele>148.124</ele>
        <time>2017-03-18T16:26:05Z</time>
      </trkpt>
      <trkpt lat="38.047532" lon="-1.253157">
        <ele>148.199</ele>
        <time>2017-03-18T16:26:07Z</time>
      </trkpt>
      <trkpt lat="38.047453" lon="-1.253035">
        <ele>148.247</ele>
        <time>2017-03-18T16:26:09Z</time>
      </trkpt>
      <trkpt lat="38.047386" lon="-1.252915">
        <ele>148.371</ele>
        <time>2017-03-18T16:26:11Z</time>
      </trkpt>
      <trkpt lat="38.047334" lon="-1.252803">
        <ele>148.447</ele>
        <time>2017-03-18T16:26:13Z</time>
      </trkpt>
      <trkpt lat="38.047277" lon="-1.252673">
        <ele>147.957</ele>
        <time>2017-03-18T16:26:16Z</time>
      </trkpt>
      <trkpt lat="38.047200" lon="-1.252561">
        <ele>147.661</ele>
        <time>2017-03-18T16:26:19Z</time>
      </trkpt>
      <trkpt lat="38.047141" lon="-1.252461">
        <ele>147.621</ele>
        <time>2017-03-18T16:26:22Z</time>
      </trkpt>
      <trkpt lat="38.047112" lon="-1.252345">
        <ele>147.513</ele>
        <time>2017-03-18T16:26:25Z</time>
      </trkpt>
      <trkpt lat="38.047052" lon="-1.252231">
        <ele>147.408</ele>
        <time>2017-03-18T16:26:29Z</time>
      </trkpt>
      <trkpt lat="38.047032" lon="-1.252120">
        <ele>145.597</ele>
        <time>2017-03-18T16:28:57Z</time>
      </trkpt>
      <trkpt lat="38.047005" lon="-1.251972">
        <ele>145.532</ele>
        <time>2017-03-18T16:29:00Z</time>
      </trkpt>
      <trkpt lat="38.046980" lon="-1.251813">
        <ele>147.254</ele>
        <time>2017-03-18T16:29:03Z</time>
      </trkpt>
      <trkpt lat="38.046959" lon="-1.251684">
        <ele>150.589</ele>
        <time>2017-03-18T16:29:06Z</time>
      </trkpt>
      <trkpt lat="38.046941" lon="-1.251535">
        <ele>151.417</ele>
        <time>2017-03-18T16:29:09Z</time>
      </trkpt>
      <trkpt lat="38.046925" lon="-1.251411">
        <ele>151.061</ele>
        <time>2017-03-18T16:29:11Z</time>
      </trkpt>
      <trkpt lat="38.046907" lon="-1.251274">
        <ele>150.417</ele>
        <time>2017-03-18T16:29:13Z</time>
      </trkpt>
      <trkpt lat="38.046887" lon="-1.251135">
        <ele>150.167</ele>
        <time>2017-03-18T16:29:15Z</time>
      </trkpt>
      <trkpt lat="38.046864" lon="-1.250975">
        <ele>149.218</ele>
        <time>2017-03-18T16:29:18Z</time>
      </trkpt>
      <trkpt lat="38.046850" lon="-1.250836">
        <ele>148.598</ele>
        <time>2017-03-18T16:29:20Z</time>
      </trkpt>
      <trkpt lat="38.046846" lon="-1.250693">
        <ele>147.717</ele>
        <time>2017-03-18T16:29:22Z</time>
      </trkpt>
      <trkpt lat="38.046852" lon="-1.250547">
        <ele>145.908</ele>
        <time>2017-03-18T16:29:24Z</time>
      </trkpt>
      <trkpt lat="38.046858" lon="-1.250399">
        <ele>144.222</ele>
        <time>2017-03-18T16:29:26Z</time>
      </trkpt>
      <trkpt lat="38.046870" lon="-1.250256">
        <ele>143.897</ele>
        <time>2017-03-18T16:29:28Z</time>
      </trkpt>
      <trkpt lat="38.046894" lon="-1.250131">
        <ele>143.049</ele>
        <time>2017-03-18T16:29:30Z</time>
      </trkpt>
      <trkpt lat="38.046918" lon="-1.249978">
        <ele>143.084</ele>
        <time>2017-03-18T16:29:32Z</time>
      </trkpt>
      <trkpt lat="38.046940" lon="-1.249834">
        <ele>143.262</ele>
        <time>2017-03-18T16:29:34Z</time>
      </trkpt>
      <trkpt lat="38.046964" lon="-1.249706">
        <ele>143.826</ele>
        <time>2017-03-18T16:29:36Z</time>
      </trkpt>
      <trkpt lat="38.046996" lon="-1.249576">
        <ele>144.372</ele>
        <time>2017-03-18T16:29:38Z</time>
      </trkpt>
      <trkpt lat="38.047037" lon="-1.249447">
        <ele>144.622</ele>
        <time>2017-03-18T16:29:40Z</time>
      </trkpt>
      <trkpt lat="38.047102" lon="-1.249333">
        <ele>144.528</ele>
        <time>2017-03-18T16:29:42Z</time>
      </trkpt>
      <trkpt lat="38.047166" lon="-1.249208">
        <ele>143.389</ele>
        <time>2017-03-18T16:29:44Z</time>
      </trkpt>
      <trkpt lat="38.047219" lon="-1.249078">
        <ele>142.217</ele>
        <time>2017-03-18T16:29:46Z</time>
      </trkpt>
      <trkpt lat="38.047276" lon="-1.248940">
        <ele>141.608</ele>
        <time>2017-03-18T16:29:48Z</time>
      </trkpt>
      <trkpt lat="38.047344" lon="-1.248812">
        <ele>141.583</ele>
        <time>2017-03-18T16:29:50Z</time>
      </trkpt>
      <trkpt lat="38.047409" lon="-1.248703">
        <ele>140.898</ele>
        <time>2017-03-18T16:29:52Z</time>
      </trkpt>
      <trkpt lat="38.047462" lon="-1.248604">
        <ele>139.740</ele>
        <time>2017-03-18T16:29:54Z</time>
      </trkpt>
      <trkpt lat="38.047511" lon="-1.248448">
        <ele>138.865</ele>
        <time>2017-03-18T16:29:58Z</time>
      </trkpt>
      <trkpt lat="38.047572" lon="-1.248303">
        <ele>139.043</ele>
        <time>2017-03-18T16:30:01Z</time>
      </trkpt>
      <trkpt lat="38.047629" lon="-1.248156">
        <ele>139.397</ele>
        <time>2017-03-18T16:30:04Z</time>
      </trkpt>
      <trkpt lat="38.047675" lon="-1.248008">
        <ele>140.723</ele>
        <time>2017-03-18T16:30:07Z</time>
      </trkpt>
      <trkpt lat="38.047722" lon="-1.247900">
        <ele>141.573</ele>
        <time>2017-03-18T16:30:09Z</time>
      </trkpt>
      <trkpt lat="38.047784" lon="-1.247766">
        <ele>142.097</ele>
        <time>2017-03-18T16:30:12Z</time>
      </trkpt>
      <trkpt lat="38.047840" lon="-1.247608">
        <ele>142.223</ele>
        <time>2017-03-18T16:30:15Z</time>
      </trkpt>
      <trkpt lat="38.047910" lon="-1.247466">
        <ele>142.925</ele>
        <time>2017-03-18T16:30:18Z</time>
      </trkpt>
      <trkpt lat="38.047978" lon="-1.247322">
        <ele>143.508</ele>
        <time>2017-03-18T16:30:21Z</time>
      </trkpt>
      <trkpt lat="38.048039" lon="-1.247171">
        <ele>144.440</ele>
        <time>2017-03-18T16:30:24Z</time>
      </trkpt>
      <trkpt lat="38.048082" lon="-1.247070">
        <ele>144.985</ele>
        <time>2017-03-18T16:30:26Z</time>
      </trkpt>
      <trkpt lat="38.048142" lon="-1.246934">
        <ele>145.127</ele>
        <time>2017-03-18T16:30:29Z</time>
      </trkpt>
      <trkpt lat="38.048211" lon="-1.246827">
        <ele>145.072</ele>
        <time>2017-03-18T16:30:37Z</time>
      </trkpt>
      <trkpt lat="38.048269" lon="-1.246693">
        <ele>144.720</ele>
        <time>2017-03-18T16:30:40Z</time>
      </trkpt>
      <trkpt lat="38.048337" lon="-1.246574">
        <ele>144.384</ele>
        <time>2017-03-18T16:30:43Z</time>
      </trkpt>
      <trkpt lat="38.048411" lon="-1.246473">
        <ele>141.490</ele>
        <time>2017-03-18T16:30:46Z</time>
      </trkpt>
      <trkpt lat="38.048499" lon="-1.246358">
        <ele>139.270</ele>
        <time>2017-03-18T16:30:49Z</time>
      </trkpt>
      <trkpt lat="38.048586" lon="-1.246252">
        <ele>138.477</ele>
        <time>2017-03-18T16:30:52Z</time>
      </trkpt>
      <trkpt lat="38.048668" lon="-1.246162">
        <ele>138.561</ele>
        <time>2017-03-18T16:30:56Z</time>
      </trkpt>
      <trkpt lat="38.048751" lon="-1.246080">
        <ele>138.427</ele>
        <time>2017-03-18T16:30:59Z</time>
      </trkpt>
      <trkpt lat="38.048829" lon="-1.245994">
        <ele>138.408</ele>
        <time>2017-03-18T16:31:03Z</time>
      </trkpt>
      <trkpt lat="38.048914" lon="-1.245896">
        <ele>138.798</ele>
        <time>2017-03-18T16:31:07Z</time>
      </trkpt>
      <trkpt lat="38.049029" lon="-1.245874">
        <ele>139.353</ele>
        <time>2017-03-18T16:31:11Z</time>
      </trkpt>
      <trkpt lat="38.049158" lon="-1.245815">
        <ele>140.195</ele>
        <time>2017-03-18T16:31:14Z</time>
      </trkpt>
      <trkpt lat="38.049258" lon="-1.245739">
        <ele>139.410</ele>
        <time>2017-03-18T16:31:17Z</time>
      </trkpt>
      <trkpt lat="38.049334" lon="-1.245674">
        <ele>138.718</ele>
        <time>2017-03-18T16:31:19Z</time>
      </trkpt>
      <trkpt lat="38.049394" lon="-1.245580">
        <ele>138.352</ele>
        <time>2017-03-18T16:31:22Z</time>
      </trkpt>
      <trkpt lat="38.049278" lon="-1.245595">
        <ele>137.428</ele>
        <time>2017-03-18T16:31:35Z</time>
      </trkpt>
      <trkpt lat="38.049175" lon="-1.245644">
        <ele>137.458</ele>
        <time>2017-03-18T16:31:38Z</time>
      </trkpt>
      <trkpt lat="38.049083" lon="-1.245706">
        <ele>137.432</ele>
        <time>2017-03-18T16:31:41Z</time>
      </trkpt>
      <trkpt lat="38.049042" lon="-1.245818">
        <ele>137.592</ele>
        <time>2017-03-18T16:31:44Z</time>
      </trkpt>
      <trkpt lat="38.049109" lon="-1.245913">
        <ele>137.511</ele>
        <time>2017-03-18T16:31:47Z</time>
      </trkpt>
      <trkpt lat="38.049210" lon="-1.245979">
        <ele>138.108</ele>
        <time>2017-03-18T16:31:50Z</time>
      </trkpt>
      <trkpt lat="38.049310" lon="-1.246006">
        <ele>139.244</ele>
        <time>2017-03-18T16:31:53Z</time>
      </trkpt>
      <trkpt lat="38.049403" lon="-1.246042">
        <ele>139.289</ele>
        <time>2017-03-18T16:31:55Z</time>
      </trkpt>
      <trkpt lat="38.049499" lon="-1.246080">
        <ele>137.941</ele>
        <time>2017-03-18T16:31:57Z</time>
      </trkpt>
      <trkpt lat="38.049612" lon="-1.246095">
        <ele>137.536</ele>
        <time>2017-03-18T16:32:00Z</time>
      </trkpt>
      <trkpt lat="38.049740" lon="-1.246109">
        <ele>137.454</ele>
        <time>2017-03-18T16:32:03Z</time>
      </trkpt>
      <trkpt lat="38.049865" lon="-1.246112">
        <ele>137.948</ele>
        <time>2017-03-18T16:32:06Z</time>
      </trkpt>
      <trkpt lat="38.049989" lon="-1.246094">
        <ele>138.554</ele>
        <time>2017-03-18T16:32:09Z</time>
      </trkpt>
      <trkpt lat="38.050087" lon="-1.246102">
        <ele>138.564</ele>
        <time>2017-03-18T16:32:13Z</time>
      </trkpt>
      <trkpt lat="38.050193" lon="-1.246119">
        <ele>137.926</ele>
        <time>2017-03-18T16:32:33Z</time>
      </trkpt>
      <trkpt lat="38.050281" lon="-1.246167">
        <ele>138.747</ele>
        <time>2017-03-18T16:32:38Z</time>
      </trkpt>
      <trkpt lat="38.050414" lon="-1.246136">
        <ele>139.411</ele>
        <time>2017-03-18T16:32:42Z</time>
      </trkpt>
      <trkpt lat="38.050560" lon="-1.246136">
        <ele>141.808</ele>
        <time>2017-03-18T16:32:45Z</time>
      </trkpt>
      <trkpt lat="38.050659" lon="-1.246108">
        <ele>141.853</ele>
        <time>2017-03-18T16:32:48Z</time>
      </trkpt>
      <trkpt lat="38.050773" lon="-1.246078">
        <ele>141.958</ele>
        <time>2017-03-18T16:32:50Z</time>
      </trkpt>
      <trkpt lat="38.050881" lon="-1.246058">
        <ele>141.850</ele>
        <time>2017-03-18T16:32:53Z</time>
      </trkpt>
      <trkpt lat="38.050988" lon="-1.246032">
        <ele>141.525</ele>
        <time>2017-03-18T16:32:56Z</time>
      </trkpt>
      <trkpt lat="38.051094" lon="-1.246010">
        <ele>141.353</ele>
        <time>2017-03-18T16:32:59Z</time>
      </trkpt>
      <trkpt lat="38.051199" lon="-1.246035">
        <ele>141.067</ele>
        <time>2017-03-18T16:33:02Z</time>
      </trkpt>
      <trkpt lat="38.051302" lon="-1.246050">
        <ele>140.813</ele>
        <time>2017-03-18T16:33:05Z</time>
      </trkpt>
      <trkpt lat="38.051418" lon="-1.246079">
        <ele>140.513</ele>
        <time>2017-03-18T16:33:08Z</time>
      </trkpt>
      <trkpt lat="38.051536" lon="-1.246107">
        <ele>140.211</ele>
        <time>2017-03-18T16:33:11Z</time>
      </trkpt>
      <trkpt lat="38.051655" lon="-1.246158">
        <ele>138.221</ele>
        <time>2017-03-18T16:33:14Z</time>
      </trkpt>
      <trkpt lat="38.051763" lon="-1.246195">
        <ele>137.003</ele>
        <time>2017-03-18T16:33:17Z</time>
      </trkpt>
      <trkpt lat="38.051865" lon="-1.246210">
        <ele>137.108</ele>
        <time>2017-03-18T16:33:20Z</time>
      </trkpt>
      <trkpt lat="38.051957" lon="-1.246234">
        <ele>137.122</ele>
        <time>2017-03-18T16:33:24Z</time>
      </trkpt>
      <trkpt lat="38.051943" lon="-1.246073">
        <ele>137.237</ele>
        <time>2017-03-18T16:33:26Z</time>
      </trkpt>
      <trkpt lat="38.051956" lon="-1.245959">
        <ele>137.229</ele>
        <time>2017-03-18T16:33:28Z</time>
      </trkpt>
      <trkpt lat="38.052038" lon="-1.245898">
        <ele>137.454</ele>
        <time>2017-03-18T16:33:32Z</time>
      </trkpt>
      <trkpt lat="38.052134" lon="-1.245910">
        <ele>137.132</ele>
        <time>2017-03-18T16:33:37Z</time>
      </trkpt>
      <trkpt lat="38.052232" lon="-1.245935">
        <ele>136.986</ele>
        <time>2017-03-18T16:33:42Z</time>
      </trkpt>
      <trkpt lat="38.052135" lon="-1.245870">
        <ele>139.042</ele>
        <time>2017-03-18T16:33:58Z</time>
      </trkpt>
      <trkpt lat="38.052037" lon="-1.245837">
        <ele>139.832</ele>
        <time>2017-03-18T16:34:02Z</time>
      </trkpt>
      <trkpt lat="38.051947" lon="-1.245816">
        <ele>140.313</ele>
        <time>2017-03-18T16:34:06Z</time>
      </trkpt>
      <trkpt lat="38.051847" lon="-1.245751">
        <ele>141.943</ele>
        <time>2017-03-18T16:34:11Z</time>
      </trkpt>
      <trkpt lat="38.051751" lon="-1.245712">
        <ele>143.207</ele>
        <time>2017-03-18T16:34:17Z</time>
      </trkpt>
      <trkpt lat="38.051801" lon="-1.245615">
        <ele>144.208</ele>
        <time>2017-03-18T16:34:21Z</time>
      </trkpt>
      <trkpt lat="38.051841" lon="-1.245503">
        <ele>145.362</ele>
        <time>2017-03-18T16:34:25Z</time>
      </trkpt>
      <trkpt lat="38.051871" lon="-1.245372">
        <ele>146.147</ele>
        <time>2017-03-18T16:34:30Z</time>
      </trkpt>
      <trkpt lat="38.051840" lon="-1.245256">
        <ele>146.729</ele>
        <time>2017-03-18T16:34:36Z</time>
      </trkpt>
      <trkpt lat="38.051793" lon="-1.245381">
        <ele>146.364</ele>
        <time>2017-03-18T16:34:49Z</time>
      </trkpt>
      <trkpt lat="38.051889" lon="-1.245374">
        <ele>146.132</ele>
        <time>2017-03-18T16:34:56Z</time>
      </trkpt>
      <trkpt lat="38.052002" lon="-1.245397">
        <ele>145.826</ele>
        <time>2017-03-18T16:35:01Z</time>
      </trkpt>
      <trkpt lat="38.052141" lon="-1.245414">
        <ele>145.722</ele>
        <time>2017-03-18T16:35:04Z</time>
      </trkpt>
      <trkpt lat="38.052255" lon="-1.245421">
        <ele>143.332</ele>
        <time>2017-03-18T16:35:07Z</time>
      </trkpt>
      <trkpt lat="38.052373" lon="-1.245434">
        <ele>138.818</ele>
        <time>2017-03-18T16:35:10Z</time>
      </trkpt>
      <trkpt lat="38.052487" lon="-1.245459">
        <ele>137.398</ele>
        <time>2017-03-18T16:35:13Z</time>
      </trkpt>
      <trkpt lat="38.052590" lon="-1.245492">
        <ele>136.917</ele>
        <time>2017-03-18T16:35:17Z</time>
      </trkpt>
      <trkpt lat="38.052696" lon="-1.245487">
        <ele>136.708</ele>
        <time>2017-03-18T16:35:20Z</time>
      </trkpt>
      <trkpt lat="38.052790" lon="-1.245504">
        <ele>136.832</ele>
        <time>2017-03-18T16:35:23Z</time>
      </trkpt>
      <trkpt lat="38.052903" lon="-1.245527">
        <ele>135.897</ele>
        <time>2017-03-18T16:35:26Z</time>
      </trkpt>
      <trkpt lat="38.053019" lon="-1.245554">
        <ele>133.899</ele>
        <time>2017-03-18T16:35:30Z</time>
      </trkpt>
      <trkpt lat="38.053131" lon="-1.245576">
        <ele>133.854</ele>
        <time>2017-03-18T16:35:33Z</time>
      </trkpt>
      <trkpt lat="38.053239" lon="-1.245597">
        <ele>133.912</ele>
        <time>2017-03-18T16:35:36Z</time>
      </trkpt>
      <trkpt lat="38.053332" lon="-1.245622">
        <ele>134.076</ele>
        <time>2017-03-18T16:35:39Z</time>
      </trkpt>
      <trkpt lat="38.053418" lon="-1.245667">
        <ele>134.062</ele>
        <time>2017-03-18T16:35:41Z</time>
      </trkpt>
      <trkpt lat="38.053525" lon="-1.245711">
        <ele>133.892</ele>
        <time>2017-03-18T16:35:44Z</time>
      </trkpt>
      <trkpt lat="38.053629" lon="-1.245744">
        <ele>133.836</ele>
        <time>2017-03-18T16:35:47Z</time>
      </trkpt>
      <trkpt lat="38.053736" lon="-1.245781">
        <ele>133.517</ele>
        <time>2017-03-18T16:35:50Z</time>
      </trkpt>
      <trkpt lat="38.053818" lon="-1.245832">
        <ele>133.418</ele>
        <time>2017-03-18T16:35:53Z</time>
      </trkpt>
      <trkpt lat="38.053912" lon="-1.245841">
        <ele>133.308</ele>
        <time>2017-03-18T16:35:56Z</time>
      </trkpt>
      <trkpt lat="38.054001" lon="-1.245866">
        <ele>133.334</ele>
        <time>2017-03-18T16:35:59Z</time>
      </trkpt>
      <trkpt lat="38.054111" lon="-1.245901">
        <ele>132.889</ele>
        <time>2017-03-18T16:36:02Z</time>
      </trkpt>
      <trkpt lat="38.054231" lon="-1.245942">
        <ele>133.091</ele>
        <time>2017-03-18T16:36:05Z</time>
      </trkpt>
      <trkpt lat="38.054354" lon="-1.245978">
        <ele>133.476</ele>
        <time>2017-03-18T16:36:08Z</time>
      </trkpt>
      <trkpt lat="38.054467" lon="-1.246014">
        <ele>133.554</ele>
        <time>2017-03-18T16:36:11Z</time>
      </trkpt>
      <trkpt lat="38.054561" lon="-1.246039">
        <ele>133.528</ele>
        <time>2017-03-18T16:36:14Z</time>
      </trkpt>
      <trkpt lat="38.054665" lon="-1.246075">
        <ele>133.214</ele>
        <time>2017-03-18T16:36:17Z</time>
      </trkpt>
      <trkpt lat="38.054775" lon="-1.246124">
        <ele>133.724</ele>
        <time>2017-03-18T16:36:20Z</time>
      </trkpt>
      <trkpt lat="38.054900" lon="-1.246175">
        <ele>134.366</ele>
        <time>2017-03-18T16:36:23Z</time>
      </trkpt>
      <trkpt lat="38.054998" lon="-1.246213">
        <ele>134.729</ele>
        <time>2017-03-18T16:36:26Z</time>
      </trkpt>
      <trkpt lat="38.055111" lon="-1.246247">
        <ele>134.921</ele>
        <time>2017-03-18T16:36:29Z</time>
      </trkpt>
      <trkpt lat="38.055213" lon="-1.246294">
        <ele>134.908</ele>
        <time>2017-03-18T16:36:32Z</time>
      </trkpt>
      <trkpt lat="38.055335" lon="-1.246337">
        <ele>135.257</ele>
        <time>2017-03-18T16:36:35Z</time>
      </trkpt>
      <trkpt lat="38.055435" lon="-1.246363">
        <ele>137.212</ele>
        <time>2017-03-18T16:36:37Z</time>
      </trkpt>
      <trkpt lat="38.055526" lon="-1.246385">
        <ele>139.264</ele>
        <time>2017-03-18T16:36:39Z</time>
      </trkpt>
      <trkpt lat="38.055644" lon="-1.246419">
        <ele>140.599</ele>
        <time>2017-03-18T16:36:42Z</time>
      </trkpt>
      <trkpt lat="38.055736" lon="-1.246449">
        <ele>139.547</ele>
        <time>2017-03-18T16:36:44Z</time>
      </trkpt>
      <trkpt lat="38.055866" lon="-1.246482">
        <ele>137.161</ele>
        <time>2017-03-18T16:36:47Z</time>
      </trkpt>
      <trkpt lat="38.055962" lon="-1.246515">
        <ele>136.887</ele>
        <time>2017-03-18T16:36:49Z</time>
      </trkpt>
      <trkpt lat="38.056069" lon="-1.246565">
        <ele>136.997</ele>
        <time>2017-03-18T16:36:52Z</time>
      </trkpt>
      <trkpt lat="38.056162" lon="-1.246591">
        <ele>136.643</ele>
        <time>2017-03-18T16:36:54Z</time>
      </trkpt>
      <trkpt lat="38.056255" lon="-1.246570">
        <ele>137.264</ele>
        <time>2017-03-18T16:36:56Z</time>
      </trkpt>
      <trkpt lat="38.056366" lon="-1.246541">
        <ele>137.310</ele>
        <time>2017-03-18T16:36:59Z</time>
      </trkpt>
      <trkpt lat="38.056462" lon="-1.246519">
        <ele>137.708</ele>
        <time>2017-03-18T16:37:03Z</time>
      </trkpt>
      <trkpt lat="38.056600" lon="-1.246487">
        <ele>138.165</ele>
        <time>2017-03-18T16:37:06Z</time>
      </trkpt>
      <trkpt lat="38.056692" lon="-1.246463">
        <ele>138.580</ele>
        <time>2017-03-18T16:37:08Z</time>
      </trkpt>
      <trkpt lat="38.056782" lon="-1.246437">
        <ele>138.352</ele>
        <time>2017-03-18T16:37:10Z</time>
      </trkpt>
      <trkpt lat="38.056881" lon="-1.246396">
        <ele>136.867</ele>
        <time>2017-03-18T16:37:12Z</time>
      </trkpt>
      <trkpt lat="38.056970" lon="-1.246354">
        <ele>135.515</ele>
        <time>2017-03-18T16:37:14Z</time>
      </trkpt>
      <trkpt lat="38.057072" lon="-1.246316">
        <ele>133.919</ele>
        <time>2017-03-18T16:37:16Z</time>
      </trkpt>
      <trkpt lat="38.057203" lon="-1.246243">
        <ele>131.955</ele>
        <time>2017-03-18T16:37:18Z</time>
      </trkpt>
      <trkpt lat="38.057292" lon="-1.246195">
        <ele>132.335</ele>
        <time>2017-03-18T16:37:20Z</time>
      </trkpt>
      <trkpt lat="38.057380" lon="-1.246136">
        <ele>132.496</ele>
        <time>2017-03-18T16:37:22Z</time>
      </trkpt>
      <trkpt lat="38.057470" lon="-1.246075">
        <ele>133.331</ele>
        <time>2017-03-18T16:37:24Z</time>
      </trkpt>
      <trkpt lat="38.057570" lon="-1.246005">
        <ele>133.224</ele>
        <time>2017-03-18T16:37:26Z</time>
      </trkpt>
      <trkpt lat="38.057657" lon="-1.245938">
        <ele>133.308</ele>
        <time>2017-03-18T16:37:28Z</time>
      </trkpt>
      <trkpt lat="38.057734" lon="-1.245866">
        <ele>133.440</ele>
        <time>2017-03-18T16:37:30Z</time>
      </trkpt>
      <trkpt lat="38.057810" lon="-1.245793">
        <ele>132.445</ele>
        <time>2017-03-18T16:37:32Z</time>
      </trkpt>
      <trkpt lat="38.057868" lon="-1.245703">
        <ele>132.497</ele>
        <time>2017-03-18T16:37:34Z</time>
      </trkpt>
      <trkpt lat="38.057924" lon="-1.245611">
        <ele>132.482</ele>
        <time>2017-03-18T16:37:36Z</time>
      </trkpt>
      <trkpt lat="38.057985" lon="-1.245517">
        <ele>132.480</ele>
        <time>2017-03-18T16:37:38Z</time>
      </trkpt>
      <trkpt lat="38.058055" lon="-1.245409">
        <ele>131.884</ele>
        <time>2017-03-18T16:37:40Z</time>
      </trkpt>
      <trkpt lat="38.058135" lon="-1.245292">
        <ele>131.750</ele>
        <time>2017-03-18T16:37:42Z</time>
      </trkpt>
      <trkpt lat="38.058206" lon="-1.245182">
        <ele>131.760</ele>
        <time>2017-03-18T16:37:44Z</time>
      </trkpt>
      <trkpt lat="38.058281" lon="-1.245073">
        <ele>131.286</ele>
        <time>2017-03-18T16:37:46Z</time>
      </trkpt>
      <trkpt lat="38.058349" lon="-1.244974">
        <ele>130.660</ele>
        <time>2017-03-18T16:37:48Z</time>
      </trkpt>
      <trkpt lat="38.058409" lon="-1.244858">
        <ele>128.926</ele>
        <time>2017-03-18T16:37:50Z</time>
      </trkpt>
      <trkpt lat="38.058460" lon="-1.244752">
        <ele>127.008</ele>
        <time>2017-03-18T16:37:52Z</time>
      </trkpt>
      <trkpt lat="38.058507" lon="-1.244625">
        <ele>126.589</ele>
        <time>2017-03-18T16:37:54Z</time>
      </trkpt>
      <trkpt lat="38.058551" lon="-1.244505">
        <ele>127.934</ele>
        <time>2017-03-18T16:37:56Z</time>
      </trkpt>
      <trkpt lat="38.058596" lon="-1.244375">
        <ele>129.756</ele>
        <time>2017-03-18T16:37:58Z</time>
      </trkpt>
      <trkpt lat="38.058642" lon="-1.244226">
        <ele>131.521</ele>
        <time>2017-03-18T16:38:00Z</time>
      </trkpt>
      <trkpt lat="38.058684" lon="-1.244077">
        <ele>133.439</ele>
        <time>2017-03-18T16:38:02Z</time>
      </trkpt>
      <trkpt lat="38.058722" lon="-1.243925">
        <ele>134.873</ele>
        <time>2017-03-18T16:38:04Z</time>
      </trkpt>
      <trkpt lat="38.058754" lon="-1.243776">
        <ele>135.849</ele>
        <time>2017-03-18T16:38:06Z</time>
      </trkpt>
      <trkpt lat="38.058782" lon="-1.243636">
        <ele>136.729</ele>
        <time>2017-03-18T16:38:08Z</time>
      </trkpt>
      <trkpt lat="38.058806" lon="-1.243497">
        <ele>137.529</ele>
        <time>2017-03-18T16:38:10Z</time>
      </trkpt>
      <trkpt lat="38.058823" lon="-1.243365">
        <ele>138.500</ele>
        <time>2017-03-18T16:38:12Z</time>
      </trkpt>
      <trkpt lat="38.058837" lon="-1.243240">
        <ele>139.220</ele>
        <time>2017-03-18T16:38:14Z</time>
      </trkpt>
      <trkpt lat="38.058843" lon="-1.243113">
        <ele>139.108</ele>
        <time>2017-03-18T16:38:16Z</time>
      </trkpt>
      <trkpt lat="38.058855" lon="-1.242963">
        <ele>138.833</ele>
        <time>2017-03-18T16:38:19Z</time>
      </trkpt>
      <trkpt lat="38.058867" lon="-1.242803">
        <ele>137.668</ele>
        <time>2017-03-18T16:38:22Z</time>
      </trkpt>
      <trkpt lat="38.058865" lon="-1.242687">
        <ele>136.030</ele>
        <time>2017-03-18T16:38:24Z</time>
      </trkpt>
      <trkpt lat="38.058872" lon="-1.242567">
        <ele>135.095</ele>
        <time>2017-03-18T16:38:26Z</time>
      </trkpt>
      <trkpt lat="38.058884" lon="-1.242443">
        <ele>134.793</ele>
        <time>2017-03-18T16:38:28Z</time>
      </trkpt>
      <trkpt lat="38.058898" lon="-1.242317">
        <ele>135.327</ele>
        <time>2017-03-18T16:38:31Z</time>
      </trkpt>
      <trkpt lat="38.058917" lon="-1.242177">
        <ele>135.213</ele>
        <time>2017-03-18T16:38:33Z</time>
      </trkpt>
      <trkpt lat="38.058934" lon="-1.242036">
        <ele>135.173</ele>
        <time>2017-03-18T16:38:35Z</time>
      </trkpt>
      <trkpt lat="38.058950" lon="-1.241899">
        <ele>135.017</ele>
        <time>2017-03-18T16:38:37Z</time>
      </trkpt>
      <trkpt lat="38.058964" lon="-1.241760">
        <ele>135.387</ele>
        <time>2017-03-18T16:38:39Z</time>
      </trkpt>
      <trkpt lat="38.058976" lon="-1.241631">
        <ele>135.415</ele>
        <time>2017-03-18T16:38:41Z</time>
      </trkpt>
      <trkpt lat="38.058998" lon="-1.241431">
        <ele>135.708</ele>
        <time>2017-03-18T16:38:43Z</time>
      </trkpt>
      <trkpt lat="38.059012" lon="-1.241296">
        <ele>135.912</ele>
        <time>2017-03-18T16:38:45Z</time>
      </trkpt>
      <trkpt lat="38.059022" lon="-1.241161">
        <ele>136.027</ele>
        <time>2017-03-18T16:38:47Z</time>
      </trkpt>
      <trkpt lat="38.059028" lon="-1.241028">
        <ele>136.299</ele>
        <time>2017-03-18T16:38:49Z</time>
      </trkpt>
      <trkpt lat="38.059033" lon="-1.240904">
        <ele>136.344</ele>
        <time>2017-03-18T16:38:51Z</time>
      </trkpt>
      <trkpt lat="38.059039" lon="-1.240769">
        <ele>136.012</ele>
        <time>2017-03-18T16:38:53Z</time>
      </trkpt>
      <trkpt lat="38.059042" lon="-1.240635">
        <ele>135.616</ele>
        <time>2017-03-18T16:38:55Z</time>
      </trkpt>
      <trkpt lat="38.059046" lon="-1.240510">
        <ele>135.062</ele>
        <time>2017-03-18T16:38:57Z</time>
      </trkpt>
      <trkpt lat="38.059055" lon="-1.240372">
        <ele>134.062</ele>
        <time>2017-03-18T16:38:59Z</time>
      </trkpt>
      <trkpt lat="38.059066" lon="-1.240244">
        <ele>133.435</ele>
        <time>2017-03-18T16:39:01Z</time>
      </trkpt>
      <trkpt lat="38.059079" lon="-1.240113">
        <ele>133.086</ele>
        <time>2017-03-18T16:39:03Z</time>
      </trkpt>
      <trkpt lat="38.059095" lon="-1.239972">
        <ele>133.314</ele>
        <time>2017-03-18T16:39:05Z</time>
      </trkpt>
      <trkpt lat="38.059113" lon="-1.239838">
        <ele>133.708</ele>
        <time>2017-03-18T16:39:07Z</time>
      </trkpt>
      <trkpt lat="38.059131" lon="-1.239686">
        <ele>133.994</ele>
        <time>2017-03-18T16:39:09Z</time>
      </trkpt>
      <trkpt lat="38.059150" lon="-1.239549">
        <ele>134.729</ele>
        <time>2017-03-18T16:39:11Z</time>
      </trkpt>
      <trkpt lat="38.059167" lon="-1.239411">
        <ele>135.011</ele>
        <time>2017-03-18T16:39:13Z</time>
      </trkpt>
      <trkpt lat="38.059183" lon="-1.239292">
        <ele>135.566</ele>
        <time>2017-03-18T16:39:15Z</time>
      </trkpt>
      <trkpt lat="38.059201" lon="-1.239172">
        <ele>135.884</ele>
        <time>2017-03-18T16:39:17Z</time>
      </trkpt>
      <trkpt lat="38.059217" lon="-1.239043">
        <ele>136.018</ele>
        <time>2017-03-18T16:39:19Z</time>
      </trkpt>
      <trkpt lat="38.059234" lon="-1.238909">
        <ele>135.824</ele>
        <time>2017-03-18T16:39:21Z</time>
      </trkpt>
      <trkpt lat="38.059256" lon="-1.238774">
        <ele>135.864</ele>
        <time>2017-03-18T16:39:23Z</time>
      </trkpt>
      <trkpt lat="38.059267" lon="-1.238638">
        <ele>136.061</ele>
        <time>2017-03-18T16:39:25Z</time>
      </trkpt>
      <trkpt lat="38.059280" lon="-1.238502">
        <ele>136.221</ele>
        <time>2017-03-18T16:39:27Z</time>
      </trkpt>
      <trkpt lat="38.059298" lon="-1.238369">
        <ele>136.513</ele>
        <time>2017-03-18T16:39:29Z</time>
      </trkpt>
      <trkpt lat="38.059320" lon="-1.238246">
        <ele>136.508</ele>
        <time>2017-03-18T16:39:31Z</time>
      </trkpt>
      <trkpt lat="38.059345" lon="-1.238117">
        <ele>136.447</ele>
        <time>2017-03-18T16:39:33Z</time>
      </trkpt>
      <trkpt lat="38.059372" lon="-1.237974">
        <ele>135.882</ele>
        <time>2017-03-18T16:39:35Z</time>
      </trkpt>
      <trkpt lat="38.059419" lon="-1.237830">
        <ele>134.864</ele>
        <time>2017-03-18T16:39:38Z</time>
      </trkpt>
      <trkpt lat="38.059469" lon="-1.237706">
        <ele>134.259</ele>
        <time>2017-03-18T16:39:41Z</time>
      </trkpt>
      <trkpt lat="38.059512" lon="-1.237581">
        <ele>134.237</ele>
        <time>2017-03-18T16:39:44Z</time>
      </trkpt>
      <trkpt lat="38.059565" lon="-1.237469">
        <ele>133.351</ele>
        <time>2017-03-18T16:39:47Z</time>
      </trkpt>
      <trkpt lat="38.059619" lon="-1.237353">
        <ele>132.647</ele>
        <time>2017-03-18T16:39:50Z</time>
      </trkpt>
      <trkpt lat="38.059674" lon="-1.237218">
        <ele>132.667</ele>
        <time>2017-03-18T16:39:53Z</time>
      </trkpt>
      <trkpt lat="38.059723" lon="-1.237083">
        <ele>132.444</ele>
        <time>2017-03-18T16:39:58Z</time>
      </trkpt>
      <trkpt lat="38.059783" lon="-1.236959">
        <ele>132.205</ele>
        <time>2017-03-18T16:40:02Z</time>
      </trkpt>
      <trkpt lat="38.059831" lon="-1.236862">
        <ele>132.115</ele>
        <time>2017-03-18T16:40:05Z</time>
      </trkpt>
      <trkpt lat="38.059886" lon="-1.236726">
        <ele>131.908</ele>
        <time>2017-03-18T16:40:08Z</time>
      </trkpt>
      <trkpt lat="38.059946" lon="-1.236587">
        <ele>131.765</ele>
        <time>2017-03-18T16:40:12Z</time>
      </trkpt>
      <trkpt lat="38.059999" lon="-1.236471">
        <ele>131.580</ele>
        <time>2017-03-18T16:40:15Z</time>
      </trkpt>
      <trkpt lat="38.060043" lon="-1.236355">
        <ele>131.322</ele>
        <time>2017-03-18T16:40:18Z</time>
      </trkpt>
      <trkpt lat="38.060095" lon="-1.236231">
        <ele>130.547</ele>
        <time>2017-03-18T16:40:21Z</time>
      </trkpt>
      <trkpt lat="38.060154" lon="-1.236086">
        <ele>128.735</ele>
        <time>2017-03-18T16:40:24Z</time>
      </trkpt>
      <trkpt lat="38.060213" lon="-1.235939">
        <ele>127.159</ele>
        <time>2017-03-18T16:40:27Z</time>
      </trkpt>
      <trkpt lat="38.060271" lon="-1.235785">
        <ele>125.995</ele>
        <time>2017-03-18T16:40:30Z</time>
      </trkpt>
      <trkpt lat="38.060312" lon="-1.235677">
        <ele>125.555</ele>
        <time>2017-03-18T16:40:32Z</time>
      </trkpt>
      <trkpt lat="38.060352" lon="-1.235575">
        <ele>125.713</ele>
        <time>2017-03-18T16:40:34Z</time>
      </trkpt>
      <trkpt lat="38.060396" lon="-1.235467">
        <ele>126.643</ele>
        <time>2017-03-18T16:40:36Z</time>
      </trkpt>
      <trkpt lat="38.060439" lon="-1.235361">
        <ele>127.107</ele>
        <time>2017-03-18T16:40:38Z</time>
      </trkpt>
      <trkpt lat="38.060482" lon="-1.235255">
        <ele>126.808</ele>
        <time>2017-03-18T16:40:40Z</time>
      </trkpt>
      <trkpt lat="38.060523" lon="-1.235148">
        <ele>126.762</ele>
        <time>2017-03-18T16:40:42Z</time>
      </trkpt>
      <trkpt lat="38.060558" lon="-1.235035">
        <ele>126.917</ele>
        <time>2017-03-18T16:40:44Z</time>
      </trkpt>
      <trkpt lat="38.060590" lon="-1.234922">
        <ele>127.399</ele>
        <time>2017-03-18T16:40:46Z</time>
      </trkpt>
      <trkpt lat="38.060623" lon="-1.234766">
        <ele>127.784</ele>
        <time>2017-03-18T16:40:49Z</time>
      </trkpt>
      <trkpt lat="38.060648" lon="-1.234652">
        <ele>127.972</ele>
        <time>2017-03-18T16:40:51Z</time>
      </trkpt>
      <trkpt lat="38.060670" lon="-1.234522">
        <ele>127.276</ele>
        <time>2017-03-18T16:40:53Z</time>
      </trkpt>
      <trkpt lat="38.060692" lon="-1.234367">
        <ele>127.882</ele>
        <time>2017-03-18T16:40:56Z</time>
      </trkpt>
      <trkpt lat="38.060704" lon="-1.234253">
        <ele>128.312</ele>
        <time>2017-03-18T16:40:58Z</time>
      </trkpt>
      <trkpt lat="38.060715" lon="-1.234137">
        <ele>129.047</ele>
        <time>2017-03-18T16:41:00Z</time>
      </trkpt>
      <trkpt lat="38.060725" lon="-1.233970">
        <ele>130.029</ele>
        <time>2017-03-18T16:41:03Z</time>
      </trkpt>
      <trkpt lat="38.060725" lon="-1.233844">
        <ele>130.421</ele>
        <time>2017-03-18T16:41:06Z</time>
      </trkpt>
      <trkpt lat="38.060726" lon="-1.233729">
        <ele>131.308</ele>
        <time>2017-03-18T16:41:08Z</time>
      </trkpt>
      <trkpt lat="38.060724" lon="-1.233614">
        <ele>132.045</ele>
        <time>2017-03-18T16:41:10Z</time>
      </trkpt>
      <trkpt lat="38.060710" lon="-1.233447">
        <ele>132.470</ele>
        <time>2017-03-18T16:41:13Z</time>
      </trkpt>
      <trkpt lat="38.060691" lon="-1.233281">
        <ele>133.092</ele>
        <time>2017-03-18T16:41:16Z</time>
      </trkpt>
      <trkpt lat="38.060676" lon="-1.233166">
        <ele>132.697</ele>
        <time>2017-03-18T16:41:18Z</time>
      </trkpt>
      <trkpt lat="38.060655" lon="-1.233040">
        <ele>131.945</ele>
        <time>2017-03-18T16:41:20Z</time>
      </trkpt>
      <trkpt lat="38.060630" lon="-1.232918">
        <ele>131.749</ele>
        <time>2017-03-18T16:41:21Z</time>
      </trkpt>
      <trkpt lat="38.060597" lon="-1.232794">
        <ele>131.655</ele>
        <time>2017-03-18T16:41:23Z</time>
      </trkpt>
      <trkpt lat="38.060566" lon="-1.232670">
        <ele>131.945</ele>
        <time>2017-03-18T16:41:25Z</time>
      </trkpt>
      <trkpt lat="38.060518" lon="-1.232512">
        <ele>132.091</ele>
        <time>2017-03-18T16:41:28Z</time>
      </trkpt>
      <trkpt lat="38.060485" lon="-1.232405">
        <ele>132.081</ele>
        <time>2017-03-18T16:41:30Z</time>
      </trkpt>
      <trkpt lat="38.060433" lon="-1.232264">
        <ele>131.619</ele>
        <time>2017-03-18T16:41:33Z</time>
      </trkpt>
      <trkpt lat="38.060367" lon="-1.232153">
        <ele>128.808</ele>
        <time>2017-03-18T16:41:36Z</time>
      </trkpt>
      <trkpt lat="38.060288" lon="-1.232013">
        <ele>125.810</ele>
        <time>2017-03-18T16:41:39Z</time>
      </trkpt>
      <trkpt lat="38.060225" lon="-1.231891">
        <ele>124.315</ele>
        <time>2017-03-18T16:41:42Z</time>
      </trkpt>
      <trkpt lat="38.060165" lon="-1.231748">
        <ele>123.977</ele>
        <time>2017-03-18T16:41:45Z</time>
      </trkpt>
      <trkpt lat="38.060109" lon="-1.231619">
        <ele>124.142</ele>
        <time>2017-03-18T16:41:48Z</time>
      </trkpt>
      <trkpt lat="38.060064" lon="-1.231515">
        <ele>124.270</ele>
        <time>2017-03-18T16:41:50Z</time>
      </trkpt>
      <trkpt lat="38.060000" lon="-1.231367">
        <ele>124.914</ele>
        <time>2017-03-18T16:41:53Z</time>
      </trkpt>
      <trkpt lat="38.059937" lon="-1.231226">
        <ele>125.010</ele>
        <time>2017-03-18T16:41:56Z</time>
      </trkpt>
      <trkpt lat="38.059875" lon="-1.231084">
        <ele>124.640</ele>
        <time>2017-03-18T16:41:59Z</time>
      </trkpt>
      <trkpt lat="38.059814" lon="-1.230944">
        <ele>124.713</ele>
        <time>2017-03-18T16:42:02Z</time>
      </trkpt>
      <trkpt lat="38.059748" lon="-1.230795">
        <ele>124.443</ele>
        <time>2017-03-18T16:42:05Z</time>
      </trkpt>
      <trkpt lat="38.059674" lon="-1.230642">
        <ele>124.407</ele>
        <time>2017-03-18T16:42:08Z</time>
      </trkpt>
      <trkpt lat="38.059606" lon="-1.230499">
        <ele>124.208</ele>
        <time>2017-03-18T16:42:11Z</time>
      </trkpt>
      <trkpt lat="38.059540" lon="-1.230355">
        <ele>124.192</ele>
        <time>2017-03-18T16:42:14Z</time>
      </trkpt>
      <trkpt lat="38.059479" lon="-1.230206">
        <ele>123.647</ele>
        <time>2017-03-18T16:42:17Z</time>
      </trkpt>
      <trkpt lat="38.059434" lon="-1.230087">
        <ele>124.129</ele>
        <time>2017-03-18T16:42:19Z</time>
      </trkpt>
      <trkpt lat="38.059393" lon="-1.229981">
        <ele>125.024</ele>
        <time>2017-03-18T16:42:21Z</time>
      </trkpt>
      <trkpt lat="38.059337" lon="-1.229844">
        <ele>125.862</ele>
        <time>2017-03-18T16:42:24Z</time>
      </trkpt>
      <trkpt lat="38.059297" lon="-1.229731">
        <ele>126.666</ele>
        <time>2017-03-18T16:42:26Z</time>
      </trkpt>
      <trkpt lat="38.059264" lon="-1.229620">
        <ele>127.382</ele>
        <time>2017-03-18T16:42:28Z</time>
      </trkpt>
      <trkpt lat="38.059218" lon="-1.229476">
        <ele>128.672</ele>
        <time>2017-03-18T16:42:31Z</time>
      </trkpt>
      <trkpt lat="38.059153" lon="-1.229326">
        <ele>128.721</ele>
        <time>2017-03-18T16:42:35Z</time>
      </trkpt>
      <trkpt lat="38.059087" lon="-1.229189">
        <ele>128.141</ele>
        <time>2017-03-18T16:42:38Z</time>
      </trkpt>
      <trkpt lat="38.059012" lon="-1.229047">
        <ele>126.305</ele>
        <time>2017-03-18T16:42:41Z</time>
      </trkpt>
      <trkpt lat="38.058962" lon="-1.228952">
        <ele>125.308</ele>
        <time>2017-03-18T16:42:43Z</time>
      </trkpt>
      <trkpt lat="38.058916" lon="-1.228853">
        <ele>124.853</ele>
        <time>2017-03-18T16:42:45Z</time>
      </trkpt>
      <trkpt lat="38.058856" lon="-1.228708">
        <ele>124.478</ele>
        <time>2017-03-18T16:42:48Z</time>
      </trkpt>
      <trkpt lat="38.058811" lon="-1.228605">
        <ele>124.290</ele>
        <time>2017-03-18T16:42:50Z</time>
      </trkpt>
      <trkpt lat="38.058767" lon="-1.228505">
        <ele>124.165</ele>
        <time>2017-03-18T16:42:51Z</time>
      </trkpt>
      <trkpt lat="38.058684" lon="-1.228318">
        <ele>124.053</ele>
        <time>2017-03-18T16:42:55Z</time>
      </trkpt>
      <trkpt lat="38.058621" lon="-1.228170">
        <ele>124.567</ele>
        <time>2017-03-18T16:42:58Z</time>
      </trkpt>
      <trkpt lat="38.058561" lon="-1.228025">
        <ele>124.663</ele>
        <time>2017-03-18T16:43:01Z</time>
      </trkpt>
      <trkpt lat="38.058498" lon="-1.227890">
        <ele>124.683</ele>
        <time>2017-03-18T16:43:04Z</time>
      </trkpt>
      <trkpt lat="38.058451" lon="-1.227784">
        <ele>124.479</ele>
        <time>2017-03-18T16:43:06Z</time>
      </trkpt>
      <trkpt lat="38.058388" lon="-1.227634">
        <ele>124.405</ele>
        <time>2017-03-18T16:43:09Z</time>
      </trkpt>
      <trkpt lat="38.058320" lon="-1.227485">
        <ele>124.825</ele>
        <time>2017-03-18T16:43:12Z</time>
      </trkpt>
      <trkpt lat="38.058276" lon="-1.227371">
        <ele>125.508</ele>
        <time>2017-03-18T16:43:14Z</time>
      </trkpt>
      <trkpt lat="38.058221" lon="-1.227220">
        <ele>126.898</ele>
        <time>2017-03-18T16:43:17Z</time>
      </trkpt>
      <trkpt lat="38.058162" lon="-1.227083">
        <ele>127.243</ele>
        <time>2017-03-18T16:43:20Z</time>
      </trkpt>
      <trkpt lat="38.058115" lon="-1.226939">
        <ele>127.315</ele>
        <time>2017-03-18T16:43:23Z</time>
      </trkpt>
      <trkpt lat="38.058048" lon="-1.226804">
        <ele>127.340</ele>
        <time>2017-03-18T16:43:26Z</time>
      </trkpt>
      <trkpt lat="38.057990" lon="-1.226660">
        <ele>126.768</ele>
        <time>2017-03-18T16:43:29Z</time>
      </trkpt>
      <trkpt lat="38.057934" lon="-1.226515">
        <ele>126.682</ele>
        <time>2017-03-18T16:43:32Z</time>
      </trkpt>
      <trkpt lat="38.057882" lon="-1.226378">
        <ele>127.048</ele>
        <time>2017-03-18T16:43:35Z</time>
      </trkpt>
      <trkpt lat="38.057831" lon="-1.226247">
        <ele>126.848</ele>
        <time>2017-03-18T16:43:38Z</time>
      </trkpt>
      <trkpt lat="38.057781" lon="-1.226115">
        <ele>127.711</ele>
        <time>2017-03-18T16:43:41Z</time>
      </trkpt>
      <trkpt lat="38.057736" lon="-1.225983">
        <ele>128.721</ele>
        <time>2017-03-18T16:43:44Z</time>
      </trkpt>
      <trkpt lat="38.057688" lon="-1.225830">
        <ele>127.603</ele>
        <time>2017-03-18T16:43:47Z</time>
      </trkpt>
      <trkpt lat="38.057638" lon="-1.225730">
        <ele>126.108</ele>
        <time>2017-03-18T16:43:49Z</time>
      </trkpt>
      <trkpt lat="38.057598" lon="-1.225623">
        <ele>125.152</ele>
        <time>2017-03-18T16:43:51Z</time>
      </trkpt>
      <trkpt lat="38.057538" lon="-1.225483">
        <ele>125.067</ele>
        <time>2017-03-18T16:43:54Z</time>
      </trkpt>
      <trkpt lat="38.057496" lon="-1.225363">
        <ele>125.059</ele>
        <time>2017-03-18T16:43:57Z</time>
      </trkpt>
      <trkpt lat="38.057455" lon="-1.225261">
        <ele>125.144</ele>
        <time>2017-03-18T16:44:01Z</time>
      </trkpt>
      <trkpt lat="38.057402" lon="-1.225142">
        <ele>125.332</ele>
        <time>2017-03-18T16:44:04Z</time>
      </trkpt>
      <trkpt lat="38.057329" lon="-1.224999">
        <ele>126.246</ele>
        <time>2017-03-18T16:44:07Z</time>
      </trkpt>
      <trkpt lat="38.057275" lon="-1.224884">
        <ele>126.062</ele>
        <time>2017-03-18T16:44:09Z</time>
      </trkpt>
      <trkpt lat="38.057226" lon="-1.224769">
        <ele>126.062</ele>
        <time>2017-03-18T16:44:11Z</time>
      </trkpt>
      <trkpt lat="38.057181" lon="-1.224659">
        <ele>125.854</ele>
        <time>2017-03-18T16:44:13Z</time>
      </trkpt>
      <trkpt lat="38.057134" lon="-1.224557">
        <ele>125.656</ele>
        <time>2017-03-18T16:44:15Z</time>
      </trkpt>
      <trkpt lat="38.057074" lon="-1.224403">
        <ele>126.111</ele>
        <time>2017-03-18T16:44:17Z</time>
      </trkpt>
      <trkpt lat="38.057020" lon="-1.224292">
        <ele>126.308</ele>
        <time>2017-03-18T16:44:19Z</time>
      </trkpt>
      <trkpt lat="38.056975" lon="-1.224180">
        <ele>126.866</ele>
        <time>2017-03-18T16:44:21Z</time>
      </trkpt>
      <trkpt lat="38.056926" lon="-1.224074">
        <ele>127.321</ele>
        <time>2017-03-18T16:44:23Z</time>
      </trkpt>
      <trkpt lat="38.056872" lon="-1.223956">
        <ele>127.743</ele>
        <time>2017-03-18T16:44:25Z</time>
      </trkpt>
      <trkpt lat="38.056821" lon="-1.223847">
        <ele>128.078</ele>
        <time>2017-03-18T16:44:27Z</time>
      </trkpt>
      <trkpt lat="38.056773" lon="-1.223734">
        <ele>128.996</ele>
        <time>2017-03-18T16:44:29Z</time>
      </trkpt>
      <trkpt lat="38.056725" lon="-1.223629">
        <ele>129.570</ele>
        <time>2017-03-18T16:44:31Z</time>
      </trkpt>
      <trkpt lat="38.056673" lon="-1.223491">
        <ele>129.996</ele>
        <time>2017-03-18T16:44:34Z</time>
      </trkpt>
      <trkpt lat="38.056626" lon="-1.223391">
        <ele>130.316</ele>
        <time>2017-03-18T16:44:36Z</time>
      </trkpt>
      <trkpt lat="38.056578" lon="-1.223291">
        <ele>130.517</ele>
        <time>2017-03-18T16:44:38Z</time>
      </trkpt>
      <trkpt lat="38.056518" lon="-1.223171">
        <ele>129.887</ele>
        <time>2017-03-18T16:44:41Z</time>
      </trkpt>
      <trkpt lat="38.056449" lon="-1.223045">
        <ele>129.815</ele>
        <time>2017-03-18T16:44:44Z</time>
      </trkpt>
      <trkpt lat="38.056398" lon="-1.222950">
        <ele>130.508</ele>
        <time>2017-03-18T16:44:46Z</time>
      </trkpt>
      <trkpt lat="38.056337" lon="-1.222808">
        <ele>131.262</ele>
        <time>2017-03-18T16:44:49Z</time>
      </trkpt>
      <trkpt lat="38.056278" lon="-1.222662">
        <ele>131.057</ele>
        <time>2017-03-18T16:44:52Z</time>
      </trkpt>
      <trkpt lat="38.056227" lon="-1.222559">
        <ele>130.629</ele>
        <time>2017-03-18T16:44:54Z</time>
      </trkpt>
      <trkpt lat="38.056174" lon="-1.222438">
        <ele>130.464</ele>
        <time>2017-03-18T16:44:56Z</time>
      </trkpt>
      <trkpt lat="38.056114" lon="-1.222285">
        <ele>131.042</ele>
        <time>2017-03-18T16:44:59Z</time>
      </trkpt>
      <trkpt lat="38.056072" lon="-1.222176">
        <ele>129.466</ele>
        <time>2017-03-18T16:45:02Z</time>
      </trkpt>
      <trkpt lat="38.056032" lon="-1.222071">
        <ele>129.232</ele>
        <time>2017-03-18T16:45:04Z</time>
      </trkpt>
      <trkpt lat="38.055967" lon="-1.221931">
        <ele>130.012</ele>
        <time>2017-03-18T16:45:07Z</time>
      </trkpt>
      <trkpt lat="38.055917" lon="-1.221770">
        <ele>129.745</ele>
        <time>2017-03-18T16:45:10Z</time>
      </trkpt>
      <trkpt lat="38.055874" lon="-1.221625">
        <ele>128.347</ele>
        <time>2017-03-18T16:45:13Z</time>
      </trkpt>
      <trkpt lat="38.055818" lon="-1.221478">
        <ele>129.111</ele>
        <time>2017-03-18T16:45:16Z</time>
      </trkpt>
      <trkpt lat="38.055777" lon="-1.221362">
        <ele>129.208</ele>
        <time>2017-03-18T16:45:19Z</time>
      </trkpt>
      <trkpt lat="38.055715" lon="-1.221230">
        <ele>129.155</ele>
        <time>2017-03-18T16:45:23Z</time>
      </trkpt>
      <trkpt lat="38.055689" lon="-1.221117">
        <ele>129.030</ele>
        <time>2017-03-18T16:45:26Z</time>
      </trkpt>
      <trkpt lat="38.055619" lon="-1.221040">
        <ele>128.822</ele>
        <time>2017-03-18T16:45:30Z</time>
      </trkpt>
      <trkpt lat="38.055513" lon="-1.220964">
        <ele>125.637</ele>
        <time>2017-03-18T16:45:46Z</time>
      </trkpt>
      <trkpt lat="38.055473" lon="-1.220828">
        <ele>120.875</ele>
        <time>2017-03-18T16:45:51Z</time>
      </trkpt>
      <trkpt lat="38.055422" lon="-1.220717">
        <ele>115.649</ele>
        <time>2017-03-18T16:45:53Z</time>
      </trkpt>
      <trkpt lat="38.055364" lon="-1.220601">
        <ele>113.965</ele>
        <time>2017-03-18T16:45:56Z</time>
      </trkpt>
      <trkpt lat="38.055299" lon="-1.220479">
        <ele>115.315</ele>
        <time>2017-03-18T16:45:59Z</time>
      </trkpt>
      <trkpt lat="38.055257" lon="-1.220358">
        <ele>116.134</ele>
        <time>2017-03-18T16:46:03Z</time>
      </trkpt>
      <trkpt lat="38.055209" lon="-1.220230">
        <ele>116.755</ele>
        <time>2017-03-18T16:46:06Z</time>
      </trkpt>
      <trkpt lat="38.055153" lon="-1.220079">
        <ele>117.210</ele>
        <time>2017-03-18T16:46:09Z</time>
      </trkpt>
      <trkpt lat="38.055097" lon="-1.219941">
        <ele>119.808</ele>
        <time>2017-03-18T16:46:12Z</time>
      </trkpt>
      <trkpt lat="38.055039" lon="-1.219802">
        <ele>120.274</ele>
        <time>2017-03-18T16:46:15Z</time>
      </trkpt>
      <trkpt lat="38.054990" lon="-1.219695">
        <ele>120.119</ele>
        <time>2017-03-18T16:46:17Z</time>
      </trkpt>
      <trkpt lat="38.054940" lon="-1.219599">
        <ele>118.081</ele>
        <time>2017-03-18T16:46:19Z</time>
      </trkpt>
      <trkpt lat="38.054875" lon="-1.219467">
        <ele>117.026</ele>
        <time>2017-03-18T16:46:22Z</time>
      </trkpt>
      <trkpt lat="38.054790" lon="-1.219347">
        <ele>117.654</ele>
        <time>2017-03-18T16:46:25Z</time>
      </trkpt>
      <trkpt lat="38.054725" lon="-1.219244">
        <ele>117.778</ele>
        <time>2017-03-18T16:46:28Z</time>
      </trkpt>
      <trkpt lat="38.054639" lon="-1.219148">
        <ele>117.954</ele>
        <time>2017-03-18T16:46:31Z</time>
      </trkpt>
      <trkpt lat="38.054572" lon="-1.219003">
        <ele>117.814</ele>
        <time>2017-03-18T16:46:34Z</time>
      </trkpt>
      <trkpt lat="38.054516" lon="-1.218904">
        <ele>119.729</ele>
        <time>2017-03-18T16:46:36Z</time>
      </trkpt>
      <trkpt lat="38.054458" lon="-1.218807">
        <ele>121.500</ele>
        <time>2017-03-18T16:46:38Z</time>
      </trkpt>
      <trkpt lat="38.054371" lon="-1.218695">
        <ele>122.020</ele>
        <time>2017-03-18T16:46:41Z</time>
      </trkpt>
      <trkpt lat="38.054304" lon="-1.218616">
        <ele>121.608</ele>
        <time>2017-03-18T16:46:43Z</time>
      </trkpt>
      <trkpt lat="38.054206" lon="-1.218509">
        <ele>119.343</ele>
        <time>2017-03-18T16:46:46Z</time>
      </trkpt>
      <trkpt lat="38.054099" lon="-1.218407">
        <ele>115.638</ele>
        <time>2017-03-18T16:46:50Z</time>
      </trkpt>
      <trkpt lat="38.054034" lon="-1.218328">
        <ele>114.450</ele>
        <time>2017-03-18T16:46:52Z</time>
      </trkpt>
      <trkpt lat="38.053945" lon="-1.218212">
        <ele>113.355</ele>
        <time>2017-03-18T16:46:55Z</time>
      </trkpt>
      <trkpt lat="38.053826" lon="-1.218073">
        <ele>113.343</ele>
        <time>2017-03-18T16:46:58Z</time>
      </trkpt>
      <trkpt lat="38.053727" lon="-1.217967">
        <ele>115.147</ele>
        <time>2017-03-18T16:47:01Z</time>
      </trkpt>
      <trkpt lat="38.053628" lon="-1.217859">
        <ele>117.983</ele>
        <time>2017-03-18T16:47:04Z</time>
      </trkpt>
      <trkpt lat="38.053536" lon="-1.217751">
        <ele>120.193</ele>
        <time>2017-03-18T16:47:07Z</time>
      </trkpt>
      <trkpt lat="38.053435" lon="-1.217654">
        <ele>121.195</ele>
        <time>2017-03-18T16:47:10Z</time>
      </trkpt>
      <trkpt lat="38.053350" lon="-1.217576">
        <ele>122.549</ele>
        <time>2017-03-18T16:47:12Z</time>
      </trkpt>
      <trkpt lat="38.053272" lon="-1.217501">
        <ele>123.223</ele>
        <time>2017-03-18T16:47:14Z</time>
      </trkpt>
      <trkpt lat="38.053193" lon="-1.217427">
        <ele>123.708</ele>
        <time>2017-03-18T16:47:16Z</time>
      </trkpt>
      <trkpt lat="38.053092" lon="-1.217333">
        <ele>125.320</ele>
        <time>2017-03-18T16:47:19Z</time>
      </trkpt>
      <trkpt lat="38.052978" lon="-1.217210">
        <ele>126.015</ele>
        <time>2017-03-18T16:47:23Z</time>
      </trkpt>
      <trkpt lat="38.052886" lon="-1.217117">
        <ele>125.917</ele>
        <time>2017-03-18T16:47:26Z</time>
      </trkpt>
      <trkpt lat="38.052807" lon="-1.217045">
        <ele>125.782</ele>
        <time>2017-03-18T16:47:29Z</time>
      </trkpt>
      <trkpt lat="38.052724" lon="-1.216959">
        <ele>125.630</ele>
        <time>2017-03-18T16:47:32Z</time>
      </trkpt>
      <trkpt lat="38.052645" lon="-1.216885">
        <ele>125.564</ele>
        <time>2017-03-18T16:47:35Z</time>
      </trkpt>
      <trkpt lat="38.052547" lon="-1.216815">
        <ele>125.250</ele>
        <time>2017-03-18T16:47:39Z</time>
      </trkpt>
      <trkpt lat="38.052463" lon="-1.216748">
        <ele>124.910</ele>
        <time>2017-03-18T16:47:43Z</time>
      </trkpt>
      <trkpt lat="38.052376" lon="-1.216652">
        <ele>124.539</ele>
        <time>2017-03-18T16:47:47Z</time>
      </trkpt>
      <trkpt lat="38.052295" lon="-1.216550">
        <ele>123.901</ele>
        <time>2017-03-18T16:47:51Z</time>
      </trkpt>
      <trkpt lat="38.052217" lon="-1.216483">
        <ele>123.621</ele>
        <time>2017-03-18T16:47:54Z</time>
      </trkpt>
      <trkpt lat="38.052127" lon="-1.216410">
        <ele>123.308</ele>
        <time>2017-03-18T16:47:57Z</time>
      </trkpt>
      <trkpt lat="38.052066" lon="-1.216322">
        <ele>122.794</ele>
        <time>2017-03-18T16:48:00Z</time>
      </trkpt>
      <trkpt lat="38.051992" lon="-1.216234">
        <ele>122.639</ele>
        <time>2017-03-18T16:48:03Z</time>
      </trkpt>
      <trkpt lat="38.051923" lon="-1.216155">
        <ele>122.771</ele>
        <time>2017-03-18T16:48:06Z</time>
      </trkpt>
      <trkpt lat="38.051848" lon="-1.216066">
        <ele>122.716</ele>
        <time>2017-03-18T16:48:09Z</time>
      </trkpt>
      <trkpt lat="38.051758" lon="-1.215978">
        <ele>123.144</ele>
        <time>2017-03-18T16:48:12Z</time>
      </trkpt>
      <trkpt lat="38.051660" lon="-1.215877">
        <ele>122.158</ele>
        <time>2017-03-18T16:48:15Z</time>
      </trkpt>
      <trkpt lat="38.051564" lon="-1.215766">
        <ele>120.414</ele>
        <time>2017-03-18T16:48:19Z</time>
      </trkpt>
      <trkpt lat="38.051470" lon="-1.215646">
        <ele>119.284</ele>
        <time>2017-03-18T16:48:22Z</time>
      </trkpt>
      <trkpt lat="38.051377" lon="-1.215537">
        <ele>118.438</ele>
        <time>2017-03-18T16:48:25Z</time>
      </trkpt>
      <trkpt lat="38.051285" lon="-1.215425">
        <ele>119.070</ele>
        <time>2017-03-18T16:48:28Z</time>
      </trkpt>
      <trkpt lat="38.051195" lon="-1.215313">
        <ele>120.217</ele>
        <time>2017-03-18T16:48:31Z</time>
      </trkpt>
      <trkpt lat="38.051097" lon="-1.215209">
        <ele>121.308</ele>
        <time>2017-03-18T16:48:33Z</time>
      </trkpt>
      <trkpt lat="38.051011" lon="-1.215097">
        <ele>121.084</ele>
        <time>2017-03-18T16:48:36Z</time>
      </trkpt>
      <trkpt lat="38.050917" lon="-1.215001">
        <ele>120.699</ele>
        <time>2017-03-18T16:48:39Z</time>
      </trkpt>
      <trkpt lat="38.050817" lon="-1.214887">
        <ele>121.191</ele>
        <time>2017-03-18T16:48:42Z</time>
      </trkpt>
      <trkpt lat="38.050720" lon="-1.214774">
        <ele>121.846</ele>
        <time>2017-03-18T16:48:45Z</time>
      </trkpt>
      <trkpt lat="38.050630" lon="-1.214664">
        <ele>122.984</ele>
        <time>2017-03-18T16:48:48Z</time>
      </trkpt>
      <trkpt lat="38.050530" lon="-1.214551">
        <ele>122.818</ele>
        <time>2017-03-18T16:48:51Z</time>
      </trkpt>
      <trkpt lat="38.050434" lon="-1.214439">
        <ele>122.254</ele>
        <time>2017-03-18T16:48:54Z</time>
      </trkpt>
      <trkpt lat="38.050336" lon="-1.214328">
        <ele>122.924</ele>
        <time>2017-03-18T16:48:57Z</time>
      </trkpt>
      <trkpt lat="38.050267" lon="-1.214251">
        <ele>123.775</ele>
        <time>2017-03-18T16:48:59Z</time>
      </trkpt>
      <trkpt lat="38.050167" lon="-1.214138">
        <ele>125.128</ele>
        <time>2017-03-18T16:49:02Z</time>
      </trkpt>
      <trkpt lat="38.050096" lon="-1.214063">
        <ele>125.520</ele>
        <time>2017-03-18T16:49:04Z</time>
      </trkpt>
      <trkpt lat="38.049992" lon="-1.213956">
        <ele>125.308</ele>
        <time>2017-03-18T16:49:07Z</time>
      </trkpt>
      <trkpt lat="38.049919" lon="-1.213879">
        <ele>124.928</ele>
        <time>2017-03-18T16:49:09Z</time>
      </trkpt>
      <trkpt lat="38.049851" lon="-1.213802">
        <ele>124.963</ele>
        <time>2017-03-18T16:49:11Z</time>
      </trkpt>
      <trkpt lat="38.049777" lon="-1.213720">
        <ele>124.625</ele>
        <time>2017-03-18T16:49:13Z</time>
      </trkpt>
      <trkpt lat="38.049707" lon="-1.213647">
        <ele>124.330</ele>
        <time>2017-03-18T16:49:15Z</time>
      </trkpt>
      <trkpt lat="38.049629" lon="-1.213569">
        <ele>125.658</ele>
        <time>2017-03-18T16:49:17Z</time>
      </trkpt>
      <trkpt lat="38.049561" lon="-1.213489">
        <ele>127.462</ele>
        <time>2017-03-18T16:49:19Z</time>
      </trkpt>
      <trkpt lat="38.049489" lon="-1.213407">
        <ele>127.378</ele>
        <time>2017-03-18T16:49:21Z</time>
      </trkpt>
      <trkpt lat="38.049394" lon="-1.213305">
        <ele>126.418</ele>
        <time>2017-03-18T16:49:24Z</time>
      </trkpt>
      <trkpt lat="38.049304" lon="-1.213207">
        <ele>125.497</ele>
        <time>2017-03-18T16:49:27Z</time>
      </trkpt>
      <trkpt lat="38.049210" lon="-1.213107">
        <ele>123.623</ele>
        <time>2017-03-18T16:49:30Z</time>
      </trkpt>
      <trkpt lat="38.049120" lon="-1.213002">
        <ele>122.625</ele>
        <time>2017-03-18T16:49:33Z</time>
      </trkpt>
      <trkpt lat="38.049037" lon="-1.212906">
        <ele>122.408</ele>
        <time>2017-03-18T16:49:36Z</time>
      </trkpt>
      <trkpt lat="38.048950" lon="-1.212803">
        <ele>121.950</ele>
        <time>2017-03-18T16:49:39Z</time>
      </trkpt>
      <trkpt lat="38.048851" lon="-1.212689">
        <ele>122.125</ele>
        <time>2017-03-18T16:49:42Z</time>
      </trkpt>
      <trkpt lat="38.048776" lon="-1.212618">
        <ele>122.817</ele>
        <time>2017-03-18T16:49:44Z</time>
      </trkpt>
      <trkpt lat="38.048672" lon="-1.212522">
        <ele>123.582</ele>
        <time>2017-03-18T16:49:47Z</time>
      </trkpt>
      <trkpt lat="38.048588" lon="-1.212425">
        <ele>123.810</ele>
        <time>2017-03-18T16:49:50Z</time>
      </trkpt>
      <trkpt lat="38.048508" lon="-1.212344">
        <ele>124.024</ele>
        <time>2017-03-18T16:49:53Z</time>
      </trkpt>
      <trkpt lat="38.048422" lon="-1.212259">
        <ele>124.470</ele>
        <time>2017-03-18T16:49:58Z</time>
      </trkpt>
      <trkpt lat="38.048319" lon="-1.212252">
        <ele>125.650</ele>
        <time>2017-03-18T16:50:01Z</time>
      </trkpt>
      <trkpt lat="38.048198" lon="-1.212238">
        <ele>128.189</ele>
        <time>2017-03-18T16:50:04Z</time>
      </trkpt>
      <trkpt lat="38.048093" lon="-1.212233">
        <ele>129.906</ele>
        <time>2017-03-18T16:50:07Z</time>
      </trkpt>
      <trkpt lat="38.047998" lon="-1.212212">
        <ele>130.226</ele>
        <time>2017-03-18T16:50:10Z</time>
      </trkpt>
      <trkpt lat="38.047894" lon="-1.212173">
        <ele>133.408</ele>
        <time>2017-03-18T16:50:13Z</time>
      </trkpt>
      <trkpt lat="38.047792" lon="-1.212134">
        <ele>133.949</ele>
        <time>2017-03-18T16:50:15Z</time>
      </trkpt>
      <trkpt lat="38.047680" lon="-1.212067">
        <ele>136.494</ele>
        <time>2017-03-18T16:50:18Z</time>
      </trkpt>
      <trkpt lat="38.047572" lon="-1.211999">
        <ele>135.316</ele>
        <time>2017-03-18T16:50:21Z</time>
      </trkpt>
      <trkpt lat="38.047482" lon="-1.211969">
        <ele>134.431</ele>
        <time>2017-03-18T16:50:23Z</time>
      </trkpt>
      <trkpt lat="38.047403" lon="-1.211915">
        <ele>134.479</ele>
        <time>2017-03-18T16:50:25Z</time>
      </trkpt>
      <trkpt lat="38.047268" lon="-1.211901">
        <ele>132.793</ele>
        <time>2017-03-18T16:50:28Z</time>
      </trkpt>
      <trkpt lat="38.047157" lon="-1.211827">
        <ele>131.659</ele>
        <time>2017-03-18T16:50:31Z</time>
      </trkpt>
      <trkpt lat="38.047048" lon="-1.211772">
        <ele>131.419</ele>
        <time>2017-03-18T16:50:34Z</time>
      </trkpt>
      <trkpt lat="38.046971" lon="-1.211707">
        <ele>130.463</ele>
        <time>2017-03-18T16:50:40Z</time>
      </trkpt>
      <trkpt lat="38.046868" lon="-1.211683">
        <ele>129.344</ele>
        <time>2017-03-18T16:50:46Z</time>
      </trkpt>
      <trkpt lat="38.046785" lon="-1.211728">
        <ele>127.818</ele>
        <time>2017-03-18T16:50:54Z</time>
      </trkpt>
      <trkpt lat="38.046758" lon="-1.211838">
        <ele>128.308</ele>
        <time>2017-03-18T16:54:06Z</time>
      </trkpt>
      <trkpt lat="38.046660" lon="-1.211792">
        <ele>129.747</ele>
        <time>2017-03-18T16:55:06Z</time>
      </trkpt>
      <trkpt lat="38.046554" lon="-1.211735">
        <ele>130.292</ele>
        <time>2017-03-18T16:55:09Z</time>
      </trkpt>
      <trkpt lat="38.046466" lon="-1.211696">
        <ele>130.754</ele>
        <time>2017-03-18T16:55:12Z</time>
      </trkpt>
      <trkpt lat="38.046374" lon="-1.211645">
        <ele>131.189</ele>
        <time>2017-03-18T16:55:16Z</time>
      </trkpt>
      <trkpt lat="38.046299" lon="-1.211554">
        <ele>131.147</ele>
        <time>2017-03-18T16:55:20Z</time>
      </trkpt>
      <trkpt lat="38.046275" lon="-1.211422">
        <ele>130.611</ele>
        <time>2017-03-18T16:55:24Z</time>
      </trkpt>
      <trkpt lat="38.046270" lon="-1.211293">
        <ele>130.167</ele>
        <time>2017-03-18T16:55:28Z</time>
      </trkpt>
      <trkpt lat="38.046200" lon="-1.211220">
        <ele>129.417</ele>
        <time>2017-03-18T16:55:33Z</time>
      </trkpt>
      <trkpt lat="38.046112" lon="-1.211256">
        <ele>127.453</ele>
        <time>2017-03-18T16:56:05Z</time>
      </trkpt>
      <trkpt lat="38.046005" lon="-1.211240">
        <ele>126.404</ele>
        <time>2017-03-18T16:56:10Z</time>
      </trkpt>
      <trkpt lat="38.045911" lon="-1.211222">
        <ele>126.114</ele>
        <time>2017-03-18T16:56:13Z</time>
      </trkpt>
      <trkpt lat="38.045801" lon="-1.211209">
        <ele>126.108</ele>
        <time>2017-03-18T16:56:16Z</time>
      </trkpt>
      <trkpt lat="38.045710" lon="-1.211188">
        <ele>126.246</ele>
        <time>2017-03-18T16:56:19Z</time>
      </trkpt>
      <trkpt lat="38.045600" lon="-1.211170">
        <ele>126.411</ele>
        <time>2017-03-18T16:56:22Z</time>
      </trkpt>
      <trkpt lat="38.045495" lon="-1.211160">
        <ele>126.693</ele>
        <time>2017-03-18T16:56:25Z</time>
      </trkpt>
      <trkpt lat="38.045386" lon="-1.211136">
        <ele>126.928</ele>
        <time>2017-03-18T16:56:29Z</time>
      </trkpt>
      <trkpt lat="38.045293" lon="-1.211134">
        <ele>127.256</ele>
        <time>2017-03-18T16:56:32Z</time>
      </trkpt>
      <trkpt lat="38.045196" lon="-1.211125">
        <ele>127.440</ele>
        <time>2017-03-18T16:56:35Z</time>
      </trkpt>
      <trkpt lat="38.045086" lon="-1.211119">
        <ele>127.566</ele>
        <time>2017-03-18T16:56:38Z</time>
      </trkpt>
      <trkpt lat="38.044980" lon="-1.211108">
        <ele>127.846</ele>
        <time>2017-03-18T16:56:41Z</time>
      </trkpt>
      <trkpt lat="38.044873" lon="-1.211099">
        <ele>128.089</ele>
        <time>2017-03-18T16:56:44Z</time>
      </trkpt>
      <trkpt lat="38.044774" lon="-1.211092">
        <ele>128.206</ele>
        <time>2017-03-18T16:56:47Z</time>
      </trkpt>
      <trkpt lat="38.044674" lon="-1.211086">
        <ele>128.226</ele>
        <time>2017-03-18T16:56:50Z</time>
      </trkpt>
      <trkpt lat="38.044570" lon="-1.211073">
        <ele>128.008</ele>
        <time>2017-03-18T16:56:54Z</time>
      </trkpt>
      <trkpt lat="38.044469" lon="-1.211066">
        <ele>127.929</ele>
        <time>2017-03-18T16:56:59Z</time>
      </trkpt>
      <trkpt lat="38.044366" lon="-1.211070">
        <ele>128.224</ele>
        <time>2017-03-18T16:57:05Z</time>
      </trkpt>
      <trkpt lat="38.044259" lon="-1.211064">
        <ele>128.796</ele>
        <time>2017-03-18T16:57:10Z</time>
      </trkpt>
      <trkpt lat="38.044168" lon="-1.211050">
        <ele>129.081</ele>
        <time>2017-03-18T16:57:13Z</time>
      </trkpt>
      <trkpt lat="38.044060" lon="-1.211039">
        <ele>130.279</ele>
        <time>2017-03-18T16:57:17Z</time>
      </trkpt>
      <trkpt lat="38.043940" lon="-1.211029">
        <ele>131.233</ele>
        <time>2017-03-18T16:57:20Z</time>
      </trkpt>
      <trkpt lat="38.043815" lon="-1.211021">
        <ele>130.869</ele>
        <time>2017-03-18T16:57:23Z</time>
      </trkpt>
      <trkpt lat="38.043686" lon="-1.211015">
        <ele>129.919</ele>
        <time>2017-03-18T16:57:26Z</time>
      </trkpt>
      <trkpt lat="38.043561" lon="-1.211004">
        <ele>129.297</ele>
        <time>2017-03-18T16:57:29Z</time>
      </trkpt>
      <trkpt lat="38.043391" lon="-1.210999">
        <ele>128.223</ele>
        <time>2017-03-18T16:57:32Z</time>
      </trkpt>
      <trkpt lat="38.043261" lon="-1.210993">
        <ele>127.825</ele>
        <time>2017-03-18T16:57:35Z</time>
      </trkpt>
      <trkpt lat="38.043128" lon="-1.210989">
        <ele>127.808</ele>
        <time>2017-03-18T16:57:38Z</time>
      </trkpt>
      <trkpt lat="38.042996" lon="-1.210985">
        <ele>128.130</ele>
        <time>2017-03-18T16:57:41Z</time>
      </trkpt>
      <trkpt lat="38.042903" lon="-1.210984">
        <ele>128.115</ele>
        <time>2017-03-18T16:57:43Z</time>
      </trkpt>
      <trkpt lat="38.042813" lon="-1.210977">
        <ele>128.137</ele>
        <time>2017-03-18T16:57:45Z</time>
      </trkpt>
      <trkpt lat="38.042723" lon="-1.210969">
        <ele>128.142</ele>
        <time>2017-03-18T16:57:47Z</time>
      </trkpt>
      <trkpt lat="38.042631" lon="-1.210966">
        <ele>128.390</ele>
        <time>2017-03-18T16:57:49Z</time>
      </trkpt>
      <trkpt lat="38.042537" lon="-1.210959">
        <ele>128.144</ele>
        <time>2017-03-18T16:57:51Z</time>
      </trkpt>
      <trkpt lat="38.042411" lon="-1.210946">
        <ele>128.570</ele>
        <time>2017-03-18T16:57:54Z</time>
      </trkpt>
      <trkpt lat="38.042304" lon="-1.210932">
        <ele>128.490</ele>
        <time>2017-03-18T16:57:57Z</time>
      </trkpt>
      <trkpt lat="38.042192" lon="-1.210908">
        <ele>127.219</ele>
        <time>2017-03-18T16:58:00Z</time>
      </trkpt>
      <trkpt lat="38.042066" lon="-1.210889">
        <ele>126.609</ele>
        <time>2017-03-18T16:58:03Z</time>
      </trkpt>
      <trkpt lat="38.041961" lon="-1.210883">
        <ele>126.119</ele>
        <time>2017-03-18T16:58:06Z</time>
      </trkpt>
      <trkpt lat="38.041871" lon="-1.210864">
        <ele>126.108</ele>
        <time>2017-03-18T16:58:09Z</time>
      </trkpt>
      <trkpt lat="38.041737" lon="-1.210830">
        <ele>126.182</ele>
        <time>2017-03-18T16:58:12Z</time>
      </trkpt>
      <trkpt lat="38.041643" lon="-1.210815">
        <ele>125.667</ele>
        <time>2017-03-18T16:58:14Z</time>
      </trkpt>
      <trkpt lat="38.041510" lon="-1.210797">
        <ele>125.969</ele>
        <time>2017-03-18T16:58:17Z</time>
      </trkpt>
      <trkpt lat="38.041377" lon="-1.210787">
        <ele>126.874</ele>
        <time>2017-03-18T16:58:20Z</time>
      </trkpt>
      <trkpt lat="38.041249" lon="-1.210776">
        <ele>126.622</ele>
        <time>2017-03-18T16:58:23Z</time>
      </trkpt>
      <trkpt lat="38.041156" lon="-1.210772">
        <ele>126.036</ele>
        <time>2017-03-18T16:58:25Z</time>
      </trkpt>
      <trkpt lat="38.041026" lon="-1.210764">
        <ele>126.592</ele>
        <time>2017-03-18T16:58:28Z</time>
      </trkpt>
      <trkpt lat="38.040935" lon="-1.210760">
        <ele>127.142</ele>
        <time>2017-03-18T16:58:30Z</time>
      </trkpt>
      <trkpt lat="38.040840" lon="-1.210753">
        <ele>128.043</ele>
        <time>2017-03-18T16:58:32Z</time>
      </trkpt>
      <trkpt lat="38.040750" lon="-1.210741">
        <ele>128.864</ele>
        <time>2017-03-18T16:58:34Z</time>
      </trkpt>
      <trkpt lat="38.040619" lon="-1.210738">
        <ele>129.610</ele>
        <time>2017-03-18T16:58:37Z</time>
      </trkpt>
      <trkpt lat="38.040487" lon="-1.210724">
        <ele>130.508</ele>
        <time>2017-03-18T16:58:40Z</time>
      </trkpt>
      <trkpt lat="38.040363" lon="-1.210705">
        <ele>131.485</ele>
        <time>2017-03-18T16:58:44Z</time>
      </trkpt>
      <trkpt lat="38.040231" lon="-1.210691">
        <ele>131.970</ele>
        <time>2017-03-18T16:58:47Z</time>
      </trkpt>
      <trkpt lat="38.040101" lon="-1.210682">
        <ele>131.472</ele>
        <time>2017-03-18T16:58:50Z</time>
      </trkpt>
      <trkpt lat="38.039970" lon="-1.210668">
        <ele>131.827</ele>
        <time>2017-03-18T16:58:52Z</time>
      </trkpt>
      <trkpt lat="38.039838" lon="-1.210654">
        <ele>132.635</ele>
        <time>2017-03-18T16:58:55Z</time>
      </trkpt>
      <trkpt lat="38.039746" lon="-1.210645">
        <ele>132.919</ele>
        <time>2017-03-18T16:58:57Z</time>
      </trkpt>
      <trkpt lat="38.039634" lon="-1.210633">
        <ele>133.665</ele>
        <time>2017-03-18T16:59:00Z</time>
      </trkpt>
      <trkpt lat="38.039502" lon="-1.210626">
        <ele>134.135</ele>
        <time>2017-03-18T16:59:03Z</time>
      </trkpt>
      <trkpt lat="38.039402" lon="-1.210621">
        <ele>133.195</ele>
        <time>2017-03-18T16:59:05Z</time>
      </trkpt>
      <trkpt lat="38.039303" lon="-1.210620">
        <ele>131.249</ele>
        <time>2017-03-18T16:59:07Z</time>
      </trkpt>
      <trkpt lat="38.039208" lon="-1.210620">
        <ele>130.023</ele>
        <time>2017-03-18T16:59:09Z</time>
      </trkpt>
      <trkpt lat="38.039084" lon="-1.210612">
        <ele>128.608</ele>
        <time>2017-03-18T16:59:12Z</time>
      </trkpt>
      <trkpt lat="38.038955" lon="-1.210596">
        <ele>127.340</ele>
        <time>2017-03-18T16:59:15Z</time>
      </trkpt>
      <trkpt lat="38.038822" lon="-1.210594">
        <ele>126.485</ele>
        <time>2017-03-18T16:59:18Z</time>
      </trkpt>
      <trkpt lat="38.038691" lon="-1.210590">
        <ele>126.257</ele>
        <time>2017-03-18T16:59:21Z</time>
      </trkpt>
      <trkpt lat="38.038564" lon="-1.210590">
        <ele>126.442</ele>
        <time>2017-03-18T16:59:24Z</time>
      </trkpt>
      <trkpt lat="38.038435" lon="-1.210598">
        <ele>126.520</ele>
        <time>2017-03-18T16:59:27Z</time>
      </trkpt>
      <trkpt lat="38.038303" lon="-1.210607">
        <ele>126.494</ele>
        <time>2017-03-18T16:59:30Z</time>
      </trkpt>
      <trkpt lat="38.038174" lon="-1.210624">
        <ele>126.330</ele>
        <time>2017-03-18T16:59:33Z</time>
      </trkpt>
      <trkpt lat="38.038049" lon="-1.210641">
        <ele>126.160</ele>
        <time>2017-03-18T16:59:36Z</time>
      </trkpt>
      <trkpt lat="38.037924" lon="-1.210659">
        <ele>126.119</ele>
        <time>2017-03-18T16:59:39Z</time>
      </trkpt>
      <trkpt lat="38.037793" lon="-1.210688">
        <ele>127.109</ele>
        <time>2017-03-18T16:59:42Z</time>
      </trkpt>
      <trkpt lat="38.037668" lon="-1.210727">
        <ele>128.019</ele>
        <time>2017-03-18T16:59:45Z</time>
      </trkpt>
      <trkpt lat="38.037556" lon="-1.210750">
        <ele>129.208</ele>
        <time>2017-03-18T16:59:48Z</time>
      </trkpt>
      <trkpt lat="38.037432" lon="-1.210784">
        <ele>131.492</ele>
        <time>2017-03-18T16:59:51Z</time>
      </trkpt>
      <trkpt lat="38.037344" lon="-1.210808">
        <ele>132.657</ele>
        <time>2017-03-18T16:59:53Z</time>
      </trkpt>
      <trkpt lat="38.037240" lon="-1.210828">
        <ele>133.039</ele>
        <time>2017-03-18T16:59:56Z</time>
      </trkpt>
      <trkpt lat="38.037102" lon="-1.210854">
        <ele>131.154</ele>
        <time>2017-03-18T16:59:59Z</time>
      </trkpt>
      <trkpt lat="38.037012" lon="-1.210879">
        <ele>130.772</ele>
        <time>2017-03-18T17:00:01Z</time>
      </trkpt>
      <trkpt lat="38.036917" lon="-1.210908">
        <ele>130.556</ele>
        <time>2017-03-18T17:00:03Z</time>
      </trkpt>
      <trkpt lat="38.036795" lon="-1.210937">
        <ele>130.792</ele>
        <time>2017-03-18T17:00:06Z</time>
      </trkpt>
      <trkpt lat="38.036680" lon="-1.210960">
        <ele>130.862</ele>
        <time>2017-03-18T17:00:11Z</time>
      </trkpt>
      <trkpt lat="38.036584" lon="-1.210968">
        <ele>130.773</ele>
        <time>2017-03-18T17:00:14Z</time>
      </trkpt>
      <trkpt lat="38.036479" lon="-1.210997">
        <ele>130.685</ele>
        <time>2017-03-18T17:00:18Z</time>
      </trkpt>
      <trkpt lat="38.036359" lon="-1.211038">
        <ele>130.413</ele>
        <time>2017-03-18T17:00:21Z</time>
      </trkpt>
      <trkpt lat="38.036238" lon="-1.211078">
        <ele>130.308</ele>
        <time>2017-03-18T17:00:24Z</time>
      </trkpt>
      <trkpt lat="38.036110" lon="-1.211109">
        <ele>129.778</ele>
        <time>2017-03-18T17:00:27Z</time>
      </trkpt>
      <trkpt lat="38.035988" lon="-1.211145">
        <ele>129.183</ele>
        <time>2017-03-18T17:00:29Z</time>
      </trkpt>
      <trkpt lat="38.035886" lon="-1.211173">
        <ele>128.885</ele>
        <time>2017-03-18T17:00:32Z</time>
      </trkpt>
      <trkpt lat="38.035784" lon="-1.211196">
        <ele>127.390</ele>
        <time>2017-03-18T17:00:35Z</time>
      </trkpt>
      <trkpt lat="38.035671" lon="-1.211221">
        <ele>126.578</ele>
        <time>2017-03-18T17:00:38Z</time>
      </trkpt>
      <trkpt lat="38.035561" lon="-1.211238">
        <ele>126.542</ele>
        <time>2017-03-18T17:00:41Z</time>
      </trkpt>
      <trkpt lat="38.035445" lon="-1.211263">
        <ele>126.478</ele>
        <time>2017-03-18T17:00:44Z</time>
      </trkpt>
      <trkpt lat="38.035344" lon="-1.211284">
        <ele>127.148</ele>
        <time>2017-03-18T17:00:47Z</time>
      </trkpt>
      <trkpt lat="38.035249" lon="-1.211322">
        <ele>128.277</ele>
        <time>2017-03-18T17:00:50Z</time>
      </trkpt>
      <trkpt lat="38.035132" lon="-1.211342">
        <ele>128.661</ele>
        <time>2017-03-18T17:00:54Z</time>
      </trkpt>
      <trkpt lat="38.035009" lon="-1.211351">
        <ele>129.227</ele>
        <time>2017-03-18T17:00:58Z</time>
      </trkpt>
      <trkpt lat="38.034916" lon="-1.211350">
        <ele>129.508</ele>
        <time>2017-03-18T17:01:01Z</time>
      </trkpt>
      <trkpt lat="38.034807" lon="-1.211354">
        <ele>129.758</ele>
        <time>2017-03-18T17:01:04Z</time>
      </trkpt>
      <trkpt lat="38.034702" lon="-1.211355">
        <ele>130.713</ele>
        <time>2017-03-18T17:01:07Z</time>
      </trkpt>
      <trkpt lat="38.034586" lon="-1.211352">
        <ele>132.155</ele>
        <time>2017-03-18T17:01:10Z</time>
      </trkpt>
      <trkpt lat="38.034467" lon="-1.211349">
        <ele>133.080</ele>
        <time>2017-03-18T17:01:13Z</time>
      </trkpt>
      <trkpt lat="38.034343" lon="-1.211329">
        <ele>132.438</ele>
        <time>2017-03-18T17:01:16Z</time>
      </trkpt>
      <trkpt lat="38.034240" lon="-1.211285">
        <ele>132.112</ele>
        <time>2017-03-18T17:01:19Z</time>
      </trkpt>
      <trkpt lat="38.034140" lon="-1.211232">
        <ele>131.638</ele>
        <time>2017-03-18T17:01:22Z</time>
      </trkpt>
      <trkpt lat="38.034043" lon="-1.211180">
        <ele>131.068</ele>
        <time>2017-03-18T17:01:25Z</time>
      </trkpt>
      <trkpt lat="38.033937" lon="-1.211136">
        <ele>130.499</ele>
        <time>2017-03-18T17:01:28Z</time>
      </trkpt>
      <trkpt lat="38.033832" lon="-1.211086">
        <ele>129.807</ele>
        <time>2017-03-18T17:01:31Z</time>
      </trkpt>
      <trkpt lat="38.033730" lon="-1.211030">
        <ele>127.227</ele>
        <time>2017-03-18T17:01:34Z</time>
      </trkpt>
      <trkpt lat="38.033619" lon="-1.210968">
        <ele>124.608</ele>
        <time>2017-03-18T17:01:37Z</time>
      </trkpt>
      <trkpt lat="38.033509" lon="-1.210894">
        <ele>122.540</ele>
        <time>2017-03-18T17:01:40Z</time>
      </trkpt>
      <trkpt lat="38.033403" lon="-1.210813">
        <ele>121.875</ele>
        <time>2017-03-18T17:01:44Z</time>
      </trkpt>
      <trkpt lat="38.033310" lon="-1.210742">
        <ele>122.367</ele>
        <time>2017-03-18T17:01:47Z</time>
      </trkpt>
      <trkpt lat="38.033208" lon="-1.210652">
        <ele>122.042</ele>
        <time>2017-03-18T17:01:49Z</time>
      </trkpt>
      <trkpt lat="38.033111" lon="-1.210577">
        <ele>122.090</ele>
        <time>2017-03-18T17:01:52Z</time>
      </trkpt>
      <trkpt lat="38.033016" lon="-1.210493">
        <ele>121.874</ele>
        <time>2017-03-18T17:01:55Z</time>
      </trkpt>
      <trkpt lat="38.032920" lon="-1.210408">
        <ele>120.610</ele>
        <time>2017-03-18T17:01:58Z</time>
      </trkpt>
      <trkpt lat="38.032827" lon="-1.210331">
        <ele>121.280</ele>
        <time>2017-03-18T17:02:01Z</time>
      </trkpt>
      <trkpt lat="38.032728" lon="-1.210265">
        <ele>121.596</ele>
        <time>2017-03-18T17:02:04Z</time>
      </trkpt>
      <trkpt lat="38.032626" lon="-1.210214">
        <ele>121.731</ele>
        <time>2017-03-18T17:02:07Z</time>
      </trkpt>
      <trkpt lat="38.032516" lon="-1.210160">
        <ele>123.024</ele>
        <time>2017-03-18T17:02:10Z</time>
      </trkpt>
      <trkpt lat="38.032409" lon="-1.210089">
        <ele>122.808</ele>
        <time>2017-03-18T17:02:13Z</time>
      </trkpt>
      <trkpt lat="38.032294" lon="-1.210010">
        <ele>121.850</ele>
        <time>2017-03-18T17:02:16Z</time>
      </trkpt>
      <trkpt lat="38.032195" lon="-1.209931">
        <ele>123.365</ele>
        <time>2017-03-18T17:02:19Z</time>
      </trkpt>
      <trkpt lat="38.032083" lon="-1.209847">
        <ele>124.747</ele>
        <time>2017-03-18T17:02:22Z</time>
      </trkpt>
      <trkpt lat="38.031972" lon="-1.209765">
        <ele>124.832</ele>
        <time>2017-03-18T17:02:25Z</time>
      </trkpt>
      <trkpt lat="38.031862" lon="-1.209683">
        <ele>124.530</ele>
        <time>2017-03-18T17:02:28Z</time>
      </trkpt>
      <trkpt lat="38.031756" lon="-1.209609">
        <ele>124.564</ele>
        <time>2017-03-18T17:02:31Z</time>
      </trkpt>
      <trkpt lat="38.031650" lon="-1.209536">
        <ele>124.280</ele>
        <time>2017-03-18T17:02:34Z</time>
      </trkpt>
      <trkpt lat="38.031538" lon="-1.209448">
        <ele>123.180</ele>
        <time>2017-03-18T17:02:37Z</time>
      </trkpt>
      <trkpt lat="38.031433" lon="-1.209372">
        <ele>123.035</ele>
        <time>2017-03-18T17:02:40Z</time>
      </trkpt>
      <trkpt lat="38.031315" lon="-1.209293">
        <ele>123.386</ele>
        <time>2017-03-18T17:02:43Z</time>
      </trkpt>
      <trkpt lat="38.031237" lon="-1.209235">
        <ele>123.914</ele>
        <time>2017-03-18T17:02:45Z</time>
      </trkpt>
      <trkpt lat="38.031124" lon="-1.209149">
        <ele>123.908</ele>
        <time>2017-03-18T17:02:48Z</time>
      </trkpt>
      <trkpt lat="38.031013" lon="-1.209061">
        <ele>123.554</ele>
        <time>2017-03-18T17:02:51Z</time>
      </trkpt>
      <trkpt lat="38.030904" lon="-1.208973">
        <ele>123.159</ele>
        <time>2017-03-18T17:02:54Z</time>
      </trkpt>
      <trkpt lat="38.030792" lon="-1.208887">
        <ele>121.351</ele>
        <time>2017-03-18T17:02:57Z</time>
      </trkpt>
      <trkpt lat="38.030674" lon="-1.208823">
        <ele>119.026</ele>
        <time>2017-03-18T17:03:01Z</time>
      </trkpt>
      <trkpt lat="38.030558" lon="-1.208785">
        <ele>117.834</ele>
        <time>2017-03-18T17:03:04Z</time>
      </trkpt>
      <trkpt lat="38.030441" lon="-1.208746">
        <ele>119.658</ele>
        <time>2017-03-18T17:03:07Z</time>
      </trkpt>
      <trkpt lat="38.030312" lon="-1.208719">
        <ele>121.944</ele>
        <time>2017-03-18T17:03:10Z</time>
      </trkpt>
      <trkpt lat="38.030183" lon="-1.208692">
        <ele>122.844</ele>
        <time>2017-03-18T17:03:13Z</time>
      </trkpt>
      <trkpt lat="38.030034" lon="-1.208670">
        <ele>122.912</ele>
        <time>2017-03-18T17:03:16Z</time>
      </trkpt>
      <trkpt lat="38.029930" lon="-1.208635">
        <ele>123.032</ele>
        <time>2017-03-18T17:03:19Z</time>
      </trkpt>
      <trkpt lat="38.029839" lon="-1.208619">
        <ele>123.305</ele>
        <time>2017-03-18T17:03:22Z</time>
      </trkpt>
      <trkpt lat="38.029728" lon="-1.208593">
        <ele>123.708</ele>
        <time>2017-03-18T17:03:26Z</time>
      </trkpt>
      <trkpt lat="38.029625" lon="-1.208566">
        <ele>124.152</ele>
        <time>2017-03-18T17:03:30Z</time>
      </trkpt>
      <trkpt lat="38.029522" lon="-1.208536">
        <ele>124.477</ele>
        <time>2017-03-18T17:03:34Z</time>
      </trkpt>
      <trkpt lat="38.029419" lon="-1.208501">
        <ele>124.849</ele>
        <time>2017-03-18T17:03:37Z</time>
      </trkpt>
      <trkpt lat="38.029325" lon="-1.208473">
        <ele>125.014</ele>
        <time>2017-03-18T17:03:40Z</time>
      </trkpt>
      <trkpt lat="38.029229" lon="-1.208453">
        <ele>125.232</ele>
        <time>2017-03-18T17:03:44Z</time>
      </trkpt>
      <trkpt lat="38.029137" lon="-1.208422">
        <ele>125.136</ele>
        <time>2017-03-18T17:03:47Z</time>
      </trkpt>
      <trkpt lat="38.029022" lon="-1.208386">
        <ele>124.992</ele>
        <time>2017-03-18T17:03:50Z</time>
      </trkpt>
      <trkpt lat="38.028913" lon="-1.208365">
        <ele>124.842</ele>
        <time>2017-03-18T17:03:53Z</time>
      </trkpt>
      <trkpt lat="38.028810" lon="-1.208342">
        <ele>124.878</ele>
        <time>2017-03-18T17:03:56Z</time>
      </trkpt>
      <trkpt lat="38.028699" lon="-1.208314">
        <ele>124.733</ele>
        <time>2017-03-18T17:04:00Z</time>
      </trkpt>
      <trkpt lat="38.028601" lon="-1.208286">
        <ele>124.626</ele>
        <time>2017-03-18T17:04:03Z</time>
      </trkpt>
      <trkpt lat="38.028492" lon="-1.208267">
        <ele>124.708</ele>
        <time>2017-03-18T17:04:06Z</time>
      </trkpt>
      <trkpt lat="38.028384" lon="-1.208248">
        <ele>124.858</ele>
        <time>2017-03-18T17:04:09Z</time>
      </trkpt>
      <trkpt lat="38.028267" lon="-1.208206">
        <ele>125.053</ele>
        <time>2017-03-18T17:04:13Z</time>
      </trkpt>
      <trkpt lat="38.028173" lon="-1.208180">
        <ele>125.235</ele>
        <time>2017-03-18T17:04:16Z</time>
      </trkpt>
      <trkpt lat="38.028055" lon="-1.208151">
        <ele>126.550</ele>
        <time>2017-03-18T17:04:19Z</time>
      </trkpt>
      <trkpt lat="38.027954" lon="-1.208119">
        <ele>126.588</ele>
        <time>2017-03-18T17:04:22Z</time>
      </trkpt>
      <trkpt lat="38.027839" lon="-1.208070">
        <ele>126.582</ele>
        <time>2017-03-18T17:04:26Z</time>
      </trkpt>
      <trkpt lat="38.027729" lon="-1.208014">
        <ele>126.668</ele>
        <time>2017-03-18T17:04:29Z</time>
      </trkpt>
      <trkpt lat="38.027605" lon="-1.207941">
        <ele>126.728</ele>
        <time>2017-03-18T17:04:33Z</time>
      </trkpt>
      <trkpt lat="38.027520" lon="-1.207886">
        <ele>127.084</ele>
        <time>2017-03-18T17:04:36Z</time>
      </trkpt>
      <trkpt lat="38.027426" lon="-1.207824">
        <ele>127.807</ele>
        <time>2017-03-18T17:04:39Z</time>
      </trkpt>
      <trkpt lat="38.027342" lon="-1.207769">
        <ele>127.917</ele>
        <time>2017-03-18T17:04:42Z</time>
      </trkpt>
      <trkpt lat="38.027251" lon="-1.207697">
        <ele>127.908</ele>
        <time>2017-03-18T17:04:45Z</time>
      </trkpt>
      <trkpt lat="38.027163" lon="-1.207617">
        <ele>127.859</ele>
        <time>2017-03-18T17:04:48Z</time>
      </trkpt>
      <trkpt lat="38.027075" lon="-1.207536">
        <ele>126.784</ele>
        <time>2017-03-18T17:04:51Z</time>
      </trkpt>
      <trkpt lat="38.026987" lon="-1.207446">
        <ele>125.126</ele>
        <time>2017-03-18T17:04:54Z</time>
      </trkpt>
      <trkpt lat="38.026905" lon="-1.207344">
        <ele>123.991</ele>
        <time>2017-03-18T17:04:57Z</time>
      </trkpt>
      <trkpt lat="38.026826" lon="-1.207241">
        <ele>123.559</ele>
        <time>2017-03-18T17:05:00Z</time>
      </trkpt>
      <trkpt lat="38.026742" lon="-1.207125">
        <ele>123.463</ele>
        <time>2017-03-18T17:05:03Z</time>
      </trkpt>
      <trkpt lat="38.026672" lon="-1.207025">
        <ele>123.459</ele>
        <time>2017-03-18T17:05:06Z</time>
      </trkpt>
      <trkpt lat="38.026604" lon="-1.206917">
        <ele>123.439</ele>
        <time>2017-03-18T17:05:09Z</time>
      </trkpt>
      <trkpt lat="38.026534" lon="-1.206815">
        <ele>123.484</ele>
        <time>2017-03-18T17:05:12Z</time>
      </trkpt>
      <trkpt lat="38.026486" lon="-1.206705">
        <ele>123.407</ele>
        <time>2017-03-18T17:05:15Z</time>
      </trkpt>
      <trkpt lat="38.026443" lon="-1.206601">
        <ele>123.417</ele>
        <time>2017-03-18T17:05:18Z</time>
      </trkpt>
      <trkpt lat="38.025409" lon="-1.204724">
        <ele>122.608</ele>
        <time>2017-03-18T17:06:08Z</time>
      </trkpt>
      <trkpt lat="38.025330" lon="-1.204635">
        <ele>124.649</ele>
        <time>2017-03-18T17:06:10Z</time>
      </trkpt>
      <trkpt lat="38.025253" lon="-1.204548">
        <ele>126.874</ele>
        <time>2017-03-18T17:06:12Z</time>
      </trkpt>
      <trkpt lat="38.025209" lon="-1.204426">
        <ele>127.576</ele>
        <time>2017-03-18T17:06:15Z</time>
      </trkpt>
      <trkpt lat="38.025143" lon="-1.204315">
        <ele>128.041</ele>
        <time>2017-03-18T17:06:18Z</time>
      </trkpt>
      <trkpt lat="38.025073" lon="-1.204199">
        <ele>128.869</ele>
        <time>2017-03-18T17:06:21Z</time>
      </trkpt>
      <trkpt lat="38.025019" lon="-1.204077">
        <ele>129.033</ele>
        <time>2017-03-18T17:06:24Z</time>
      </trkpt>
      <trkpt lat="38.024957" lon="-1.203961">
        <ele>128.599</ele>
        <time>2017-03-18T17:06:27Z</time>
      </trkpt>
      <trkpt lat="38.024899" lon="-1.203859">
        <ele>128.429</ele>
        <time>2017-03-18T17:06:30Z</time>
      </trkpt>
      <trkpt lat="38.024839" lon="-1.203737">
        <ele>128.239</ele>
        <time>2017-03-18T17:06:34Z</time>
      </trkpt>
      <trkpt lat="38.024785" lon="-1.203639">
        <ele>128.201</ele>
        <time>2017-03-18T17:06:37Z</time>
      </trkpt>
      <trkpt lat="38.024723" lon="-1.203535">
        <ele>128.321</ele>
        <time>2017-03-18T17:06:41Z</time>
      </trkpt>
      <trkpt lat="38.024656" lon="-1.203428">
        <ele>128.408</ele>
        <time>2017-03-18T17:06:44Z</time>
      </trkpt>
      <trkpt lat="38.024597" lon="-1.203321">
        <ele>128.474</ele>
        <time>2017-03-18T17:06:47Z</time>
      </trkpt>
      <trkpt lat="38.024533" lon="-1.203206">
        <ele>128.499</ele>
        <time>2017-03-18T17:06:50Z</time>
      </trkpt>
      <trkpt lat="38.024468" lon="-1.203097">
        <ele>128.551</ele>
        <time>2017-03-18T17:06:53Z</time>
      </trkpt>
      <trkpt lat="38.024404" lon="-1.202997">
        <ele>128.756</ele>
        <time>2017-03-18T17:06:55Z</time>
      </trkpt>
      <trkpt lat="38.024345" lon="-1.202884">
        <ele>128.994</ele>
        <time>2017-03-18T17:06:57Z</time>
      </trkpt>
      <trkpt lat="38.024278" lon="-1.202778">
        <ele>129.138</ele>
        <time>2017-03-18T17:07:00Z</time>
      </trkpt>
      <trkpt lat="38.024217" lon="-1.202663">
        <ele>129.254</ele>
        <time>2017-03-18T17:07:04Z</time>
      </trkpt>
      <trkpt lat="38.024163" lon="-1.202556">
        <ele>129.364</ele>
        <time>2017-03-18T17:07:07Z</time>
      </trkpt>
      <trkpt lat="38.024100" lon="-1.202445">
        <ele>129.418</ele>
        <time>2017-03-18T17:07:10Z</time>
      </trkpt>
      <trkpt lat="38.024023" lon="-1.202342">
        <ele>129.798</ele>
        <time>2017-03-18T17:07:13Z</time>
      </trkpt>
      <trkpt lat="38.023975" lon="-1.202245">
        <ele>129.717</ele>
        <time>2017-03-18T17:07:16Z</time>
      </trkpt>
      <trkpt lat="38.023914" lon="-1.202135">
        <ele>129.908</ele>
        <time>2017-03-18T17:07:20Z</time>
      </trkpt>
      <trkpt lat="38.023852" lon="-1.202019">
        <ele>130.782</ele>
        <time>2017-03-18T17:07:26Z</time>
      </trkpt>
      <trkpt lat="38.023789" lon="-1.201903">
        <ele>131.177</ele>
        <time>2017-03-18T17:07:30Z</time>
      </trkpt>
      <trkpt lat="38.023712" lon="-1.201798">
        <ele>131.659</ele>
        <time>2017-03-18T17:07:34Z</time>
      </trkpt>
      <trkpt lat="38.023653" lon="-1.201681">
        <ele>131.834</ele>
        <time>2017-03-18T17:07:38Z</time>
      </trkpt>
      <trkpt lat="38.023585" lon="-1.201564">
        <ele>131.632</ele>
        <time>2017-03-18T17:07:42Z</time>
      </trkpt>
      <trkpt lat="38.023521" lon="-1.201445">
        <ele>131.226</ele>
        <time>2017-03-18T17:07:46Z</time>
      </trkpt>
      <trkpt lat="38.023451" lon="-1.201333">
        <ele>131.112</ele>
        <time>2017-03-18T17:07:50Z</time>
      </trkpt>
      <trkpt lat="38.023388" lon="-1.201223">
        <ele>131.092</ele>
        <time>2017-03-18T17:07:54Z</time>
      </trkpt>
      <trkpt lat="38.023342" lon="-1.201124">
        <ele>131.022</ele>
        <time>2017-03-18T17:07:57Z</time>
      </trkpt>
      <trkpt lat="38.023279" lon="-1.201011">
        <ele>131.262</ele>
        <time>2017-03-18T17:08:01Z</time>
      </trkpt>
      <trkpt lat="38.023207" lon="-1.200925">
        <ele>131.508</ele>
        <time>2017-03-18T17:08:04Z</time>
      </trkpt>
      <trkpt lat="38.023147" lon="-1.200814">
        <ele>131.608</ele>
        <time>2017-03-18T17:08:07Z</time>
      </trkpt>
      <trkpt lat="38.023092" lon="-1.200716">
        <ele>131.693</ele>
        <time>2017-03-18T17:08:10Z</time>
      </trkpt>
      <trkpt lat="38.023038" lon="-1.200621">
        <ele>131.658</ele>
        <time>2017-03-18T17:08:13Z</time>
      </trkpt>
      <trkpt lat="38.022980" lon="-1.200496">
        <ele>131.730</ele>
        <time>2017-03-18T17:08:17Z</time>
      </trkpt>
      <trkpt lat="38.022921" lon="-1.200359">
        <ele>132.075</ele>
        <time>2017-03-18T17:08:20Z</time>
      </trkpt>
      <trkpt lat="38.022880" lon="-1.200239">
        <ele>132.293</ele>
        <time>2017-03-18T17:08:23Z</time>
      </trkpt>
      <trkpt lat="38.022850" lon="-1.200128">
        <ele>132.337</ele>
        <time>2017-03-18T17:08:26Z</time>
      </trkpt>
      <trkpt lat="38.022810" lon="-1.199997">
        <ele>132.563</ele>
        <time>2017-03-18T17:08:30Z</time>
      </trkpt>
      <trkpt lat="38.022763" lon="-1.199858">
        <ele>132.923</ele>
        <time>2017-03-18T17:08:34Z</time>
      </trkpt>
      <trkpt lat="38.022726" lon="-1.199718">
        <ele>133.356</ele>
        <time>2017-03-18T17:08:38Z</time>
      </trkpt>
      <trkpt lat="38.022687" lon="-1.199581">
        <ele>133.759</ele>
        <time>2017-03-18T17:08:42Z</time>
      </trkpt>
      <trkpt lat="38.022661" lon="-1.199468">
        <ele>134.014</ele>
        <time>2017-03-18T17:08:45Z</time>
      </trkpt>
      <trkpt lat="38.022640" lon="-1.199353">
        <ele>134.308</ele>
        <time>2017-03-18T17:08:48Z</time>
      </trkpt>
      <trkpt lat="38.022623" lon="-1.199206">
        <ele>134.756</ele>
        <time>2017-03-18T17:08:52Z</time>
      </trkpt>
      <trkpt lat="38.022604" lon="-1.199067">
        <ele>135.261</ele>
        <time>2017-03-18T17:08:56Z</time>
      </trkpt>
      <trkpt lat="38.022605" lon="-1.198949">
        <ele>135.693</ele>
        <time>2017-03-18T17:08:59Z</time>
      </trkpt>
      <trkpt lat="38.022614" lon="-1.198823">
        <ele>135.968</ele>
        <time>2017-03-18T17:09:02Z</time>
      </trkpt>
      <trkpt lat="38.022627" lon="-1.198674">
        <ele>136.676</ele>
        <time>2017-03-18T17:09:07Z</time>
      </trkpt>
      <trkpt lat="38.022633" lon="-1.198543">
        <ele>137.280</ele>
        <time>2017-03-18T17:09:10Z</time>
      </trkpt>
      <trkpt lat="38.022624" lon="-1.198415">
        <ele>137.976</ele>
        <time>2017-03-18T17:09:13Z</time>
      </trkpt>
      <trkpt lat="38.022619" lon="-1.198269">
        <ele>138.616</ele>
        <time>2017-03-18T17:09:17Z</time>
      </trkpt>
      <trkpt lat="38.022638" lon="-1.198135">
        <ele>138.949</ele>
        <time>2017-03-18T17:09:20Z</time>
      </trkpt>
      <trkpt lat="38.022658" lon="-1.198015">
        <ele>139.102</ele>
        <time>2017-03-18T17:09:23Z</time>
      </trkpt>
      <trkpt lat="38.022661" lon="-1.197897">
        <ele>139.222</ele>
        <time>2017-03-18T17:09:26Z</time>
      </trkpt>
      <trkpt lat="38.022690" lon="-1.197775">
        <ele>139.308</ele>
        <time>2017-03-18T17:09:29Z</time>
      </trkpt>
      <trkpt lat="38.022713" lon="-1.197646">
        <ele>139.265</ele>
        <time>2017-03-18T17:09:33Z</time>
      </trkpt>
      <trkpt lat="38.022732" lon="-1.197511">
        <ele>139.340</ele>
        <time>2017-03-18T17:09:37Z</time>
      </trkpt>
      <trkpt lat="38.022752" lon="-1.197391">
        <ele>139.312</ele>
        <time>2017-03-18T17:09:41Z</time>
      </trkpt>
      <trkpt lat="38.022781" lon="-1.197235">
        <ele>139.487</ele>
        <time>2017-03-18T17:09:45Z</time>
      </trkpt>
      <trkpt lat="38.022797" lon="-1.197092">
        <ele>139.545</ele>
        <time>2017-03-18T17:09:50Z</time>
      </trkpt>
      <trkpt lat="38.022807" lon="-1.196948">
        <ele>140.029</ele>
        <time>2017-03-18T17:09:54Z</time>
      </trkpt>
      <trkpt lat="38.022825" lon="-1.196808">
        <ele>140.655</ele>
        <time>2017-03-18T17:09:58Z</time>
      </trkpt>
      <trkpt lat="38.022837" lon="-1.196663">
        <ele>141.365</ele>
        <time>2017-03-18T17:10:02Z</time>
      </trkpt>
      <trkpt lat="38.022846" lon="-1.196518">
        <ele>141.818</ele>
        <time>2017-03-18T17:10:06Z</time>
      </trkpt>
      <trkpt lat="38.022859" lon="-1.196404">
        <ele>142.098</ele>
        <time>2017-03-18T17:10:10Z</time>
      </trkpt>
      <trkpt lat="38.022876" lon="-1.196287">
        <ele>142.317</ele>
        <time>2017-03-18T17:10:13Z</time>
      </trkpt>
      <trkpt lat="38.022892" lon="-1.196171">
        <ele>142.508</ele>
        <time>2017-03-18T17:10:16Z</time>
      </trkpt>
      <trkpt lat="38.022913" lon="-1.196052">
        <ele>142.852</ele>
        <time>2017-03-18T17:10:19Z</time>
      </trkpt>
      <trkpt lat="38.022932" lon="-1.195935">
        <ele>143.077</ele>
        <time>2017-03-18T17:10:22Z</time>
      </trkpt>
      <trkpt lat="38.022948" lon="-1.195810">
        <ele>143.219</ele>
        <time>2017-03-18T17:10:25Z</time>
      </trkpt>
      <trkpt lat="38.022974" lon="-1.195695">
        <ele>143.484</ele>
        <time>2017-03-18T17:10:28Z</time>
      </trkpt>
      <trkpt lat="38.022988" lon="-1.195570">
        <ele>143.632</ele>
        <time>2017-03-18T17:10:31Z</time>
      </trkpt>
      <trkpt lat="38.023005" lon="-1.195444">
        <ele>143.746</ele>
        <time>2017-03-18T17:10:34Z</time>
      </trkpt>
      <trkpt lat="38.023017" lon="-1.195327">
        <ele>143.982</ele>
        <time>2017-03-18T17:10:37Z</time>
      </trkpt>
      <trkpt lat="38.023019" lon="-1.195199">
        <ele>144.292</ele>
        <time>2017-03-18T17:10:40Z</time>
      </trkpt>
      <trkpt lat="38.023022" lon="-1.195083">
        <ele>144.519</ele>
        <time>2017-03-18T17:10:43Z</time>
      </trkpt>
      <trkpt lat="38.023018" lon="-1.194954">
        <ele>144.809</ele>
        <time>2017-03-18T17:10:47Z</time>
      </trkpt>
      <trkpt lat="38.023008" lon="-1.194811">
        <ele>145.019</ele>
        <time>2017-03-18T17:10:51Z</time>
      </trkpt>
      <trkpt lat="38.022995" lon="-1.194691">
        <ele>145.208</ele>
        <time>2017-03-18T17:10:55Z</time>
      </trkpt>
      <trkpt lat="38.022975" lon="-1.194528">
        <ele>145.542</ele>
        <time>2017-03-18T17:10:59Z</time>
      </trkpt>
      <trkpt lat="38.022960" lon="-1.194361">
        <ele>145.987</ele>
        <time>2017-03-18T17:11:04Z</time>
      </trkpt>
      <trkpt lat="38.022935" lon="-1.194223">
        <ele>146.179</ele>
        <time>2017-03-18T17:11:08Z</time>
      </trkpt>
      <trkpt lat="38.022915" lon="-1.194111">
        <ele>146.384</ele>
        <time>2017-03-18T17:11:11Z</time>
      </trkpt>
      <trkpt lat="38.022888" lon="-1.193972">
        <ele>146.522</ele>
        <time>2017-03-18T17:11:15Z</time>
      </trkpt>
      <trkpt lat="38.022845" lon="-1.193838">
        <ele>146.676</ele>
        <time>2017-03-18T17:11:19Z</time>
      </trkpt>
      <trkpt lat="38.022819" lon="-1.193729">
        <ele>146.662</ele>
        <time>2017-03-18T17:11:22Z</time>
      </trkpt>
      <trkpt lat="38.022792" lon="-1.193584">
        <ele>146.632</ele>
        <time>2017-03-18T17:11:26Z</time>
      </trkpt>
      <trkpt lat="38.022765" lon="-1.193449">
        <ele>146.713</ele>
        <time>2017-03-18T17:11:30Z</time>
      </trkpt>
      <trkpt lat="38.022737" lon="-1.193303">
        <ele>147.043</ele>
        <time>2017-03-18T17:11:34Z</time>
      </trkpt>
      <trkpt lat="38.022717" lon="-1.193188">
        <ele>147.207</ele>
        <time>2017-03-18T17:11:37Z</time>
      </trkpt>
      <trkpt lat="38.022697" lon="-1.193061">
        <ele>147.508</ele>
        <time>2017-03-18T17:11:40Z</time>
      </trkpt>
      <trkpt lat="38.022669" lon="-1.192945">
        <ele>147.822</ele>
        <time>2017-03-18T17:11:43Z</time>
      </trkpt>
      <trkpt lat="38.022638" lon="-1.192825">
        <ele>148.057</ele>
        <time>2017-03-18T17:11:47Z</time>
      </trkpt>
      <trkpt lat="38.022608" lon="-1.192709">
        <ele>148.369</ele>
        <time>2017-03-18T17:11:50Z</time>
      </trkpt>
      <trkpt lat="38.022590" lon="-1.192593">
        <ele>148.564</ele>
        <time>2017-03-18T17:11:53Z</time>
      </trkpt>
      <trkpt lat="38.022566" lon="-1.192480">
        <ele>148.732</ele>
        <time>2017-03-18T17:11:56Z</time>
      </trkpt>
      <trkpt lat="38.022540" lon="-1.192325">
        <ele>149.016</ele>
        <time>2017-03-18T17:11:59Z</time>
      </trkpt>
      <trkpt lat="38.022507" lon="-1.192201">
        <ele>149.242</ele>
        <time>2017-03-18T17:12:03Z</time>
      </trkpt>
      <trkpt lat="38.022480" lon="-1.192078">
        <ele>149.542</ele>
        <time>2017-03-18T17:12:05Z</time>
      </trkpt>
      <trkpt lat="38.022445" lon="-1.191902">
        <ele>149.787</ele>
        <time>2017-03-18T17:12:09Z</time>
      </trkpt>
      <trkpt lat="38.022421" lon="-1.191779">
        <ele>149.842</ele>
        <time>2017-03-18T17:12:12Z</time>
      </trkpt>
      <trkpt lat="38.022398" lon="-1.191629">
        <ele>150.026</ele>
        <time>2017-03-18T17:12:16Z</time>
      </trkpt>
      <trkpt lat="38.022373" lon="-1.191515">
        <ele>150.208</ele>
        <time>2017-03-18T17:12:19Z</time>
      </trkpt>
      <trkpt lat="38.022347" lon="-1.191362">
        <ele>150.499</ele>
        <time>2017-03-18T17:12:23Z</time>
      </trkpt>
      <trkpt lat="38.022328" lon="-1.191237">
        <ele>150.684</ele>
        <time>2017-03-18T17:12:26Z</time>
      </trkpt>
      <trkpt lat="38.022308" lon="-1.191114">
        <ele>150.836</ele>
        <time>2017-03-18T17:12:30Z</time>
      </trkpt>
      <trkpt lat="38.022283" lon="-1.190989">
        <ele>151.031</ele>
        <time>2017-03-18T17:12:33Z</time>
      </trkpt>
      <trkpt lat="38.022260" lon="-1.190862">
        <ele>151.299</ele>
        <time>2017-03-18T17:12:36Z</time>
      </trkpt>
      <trkpt lat="38.022234" lon="-1.190729">
        <ele>151.313</ele>
        <time>2017-03-18T17:12:39Z</time>
      </trkpt>
      <trkpt lat="38.022206" lon="-1.190599">
        <ele>151.489</ele>
        <time>2017-03-18T17:12:42Z</time>
      </trkpt>
      <trkpt lat="38.022185" lon="-1.190467">
        <ele>151.589</ele>
        <time>2017-03-18T17:12:45Z</time>
      </trkpt>
      <trkpt lat="38.022161" lon="-1.190333">
        <ele>151.718</ele>
        <time>2017-03-18T17:12:48Z</time>
      </trkpt>
      <trkpt lat="38.022149" lon="-1.190207">
        <ele>151.898</ele>
        <time>2017-03-18T17:12:51Z</time>
      </trkpt>
      <trkpt lat="38.022127" lon="-1.190092">
        <ele>151.917</ele>
        <time>2017-03-18T17:12:54Z</time>
      </trkpt>
      <trkpt lat="38.022099" lon="-1.189977">
        <ele>151.908</ele>
        <time>2017-03-18T17:12:57Z</time>
      </trkpt>
      <trkpt lat="38.022068" lon="-1.189852">
        <ele>152.052</ele>
        <time>2017-03-18T17:13:00Z</time>
      </trkpt>
      <trkpt lat="38.022046" lon="-1.189731">
        <ele>152.147</ele>
        <time>2017-03-18T17:13:03Z</time>
      </trkpt>
      <trkpt lat="38.022025" lon="-1.189603">
        <ele>152.379</ele>
        <time>2017-03-18T17:13:06Z</time>
      </trkpt>
      <trkpt lat="38.022006" lon="-1.189487">
        <ele>152.414</ele>
        <time>2017-03-18T17:13:09Z</time>
      </trkpt>
      <trkpt lat="38.021987" lon="-1.189340">
        <ele>152.422</ele>
        <time>2017-03-18T17:13:13Z</time>
      </trkpt>
      <trkpt lat="38.021953" lon="-1.189199">
        <ele>152.596</ele>
        <time>2017-03-18T17:13:17Z</time>
      </trkpt>
      <trkpt lat="38.021927" lon="-1.189079">
        <ele>152.662</ele>
        <time>2017-03-18T17:13:20Z</time>
      </trkpt>
      <trkpt lat="38.021891" lon="-1.188911">
        <ele>152.882</ele>
        <time>2017-03-18T17:13:23Z</time>
      </trkpt>
      <trkpt lat="38.021849" lon="-1.188795">
        <ele>153.054</ele>
        <time>2017-03-18T17:13:26Z</time>
      </trkpt>
      <trkpt lat="38.021808" lon="-1.188683">
        <ele>153.356</ele>
        <time>2017-03-18T17:13:29Z</time>
      </trkpt>
      <trkpt lat="38.021771" lon="-1.188565">
        <ele>153.711</ele>
        <time>2017-03-18T17:13:32Z</time>
      </trkpt>
      <trkpt lat="38.021736" lon="-1.188459">
        <ele>154.008</ele>
        <time>2017-03-18T17:13:35Z</time>
      </trkpt>
      <trkpt lat="38.021696" lon="-1.188344">
        <ele>154.386</ele>
        <time>2017-03-18T17:13:38Z</time>
      </trkpt>
      <trkpt lat="38.021653" lon="-1.188231">
        <ele>154.511</ele>
        <time>2017-03-18T17:13:41Z</time>
      </trkpt>
      <trkpt lat="38.021611" lon="-1.188111">
        <ele>154.743</ele>
        <time>2017-03-18T17:13:44Z</time>
      </trkpt>
      <trkpt lat="38.021569" lon="-1.187999">
        <ele>154.878</ele>
        <time>2017-03-18T17:13:47Z</time>
      </trkpt>
      <trkpt lat="38.021516" lon="-1.187900">
        <ele>155.176</ele>
        <time>2017-03-18T17:13:50Z</time>
      </trkpt>
      <trkpt lat="38.021467" lon="-1.187796">
        <ele>155.560</ele>
        <time>2017-03-18T17:13:53Z</time>
      </trkpt>
      <trkpt lat="38.021420" lon="-1.187687">
        <ele>155.966</ele>
        <time>2017-03-18T17:13:56Z</time>
      </trkpt>
      <trkpt lat="38.021367" lon="-1.187581">
        <ele>156.356</ele>
        <time>2017-03-18T17:13:59Z</time>
      </trkpt>
      <trkpt lat="38.021314" lon="-1.187488">
        <ele>156.754</ele>
        <time>2017-03-18T17:14:03Z</time>
      </trkpt>
      <trkpt lat="38.021256" lon="-1.187392">
        <ele>157.156</ele>
        <time>2017-03-18T17:14:06Z</time>
      </trkpt>
      <trkpt lat="38.021202" lon="-1.187283">
        <ele>157.411</ele>
        <time>2017-03-18T17:14:09Z</time>
      </trkpt>
      <trkpt lat="38.021136" lon="-1.187173">
        <ele>157.608</ele>
        <time>2017-03-18T17:14:12Z</time>
      </trkpt>
      <trkpt lat="38.021067" lon="-1.187073">
        <ele>157.846</ele>
        <time>2017-03-18T17:14:15Z</time>
      </trkpt>
      <trkpt lat="38.021004" lon="-1.186983">
        <ele>157.941</ele>
        <time>2017-03-18T17:14:18Z</time>
      </trkpt>
      <trkpt lat="38.020917" lon="-1.186876">
        <ele>158.283</ele>
        <time>2017-03-18T17:14:22Z</time>
      </trkpt>
      <trkpt lat="38.020851" lon="-1.186786">
        <ele>158.428</ele>
        <time>2017-03-18T17:14:25Z</time>
      </trkpt>
      <trkpt lat="38.020781" lon="-1.186691">
        <ele>158.546</ele>
        <time>2017-03-18T17:14:28Z</time>
      </trkpt>
      <trkpt lat="38.020712" lon="-1.186595">
        <ele>158.510</ele>
        <time>2017-03-18T17:14:31Z</time>
      </trkpt>
      <trkpt lat="38.020633" lon="-1.186501">
        <ele>158.676</ele>
        <time>2017-03-18T17:14:34Z</time>
      </trkpt>
      <trkpt lat="38.020563" lon="-1.186420">
        <ele>158.536</ele>
        <time>2017-03-18T17:14:37Z</time>
      </trkpt>
      <trkpt lat="38.020489" lon="-1.186334">
        <ele>158.393</ele>
        <time>2017-03-18T17:14:40Z</time>
      </trkpt>
      <trkpt lat="38.020414" lon="-1.186252">
        <ele>158.365</ele>
        <time>2017-03-18T17:14:42Z</time>
      </trkpt>
      <trkpt lat="38.020337" lon="-1.186178">
        <ele>158.421</ele>
        <time>2017-03-18T17:14:45Z</time>
      </trkpt>
      <trkpt lat="38.020255" lon="-1.186094">
        <ele>158.508</ele>
        <time>2017-03-18T17:14:48Z</time>
      </trkpt>
      <trkpt lat="38.020173" lon="-1.186020">
        <ele>158.710</ele>
        <time>2017-03-18T17:14:51Z</time>
      </trkpt>
      <trkpt lat="38.020087" lon="-1.185950">
        <ele>159.085</ele>
        <time>2017-03-18T17:14:54Z</time>
      </trkpt>
      <trkpt lat="38.020004" lon="-1.185871">
        <ele>159.367</ele>
        <time>2017-03-18T17:14:57Z</time>
      </trkpt>
      <trkpt lat="38.019923" lon="-1.185797">
        <ele>159.542</ele>
        <time>2017-03-18T17:15:00Z</time>
      </trkpt>
      <trkpt lat="38.019839" lon="-1.185715">
        <ele>159.840</ele>
        <time>2017-03-18T17:15:03Z</time>
      </trkpt>
      <trkpt lat="38.019755" lon="-1.185637">
        <ele>160.184</ele>
        <time>2017-03-18T17:15:06Z</time>
      </trkpt>
      <trkpt lat="38.019673" lon="-1.185564">
        <ele>160.360</ele>
        <time>2017-03-18T17:15:09Z</time>
      </trkpt>
      <trkpt lat="38.019592" lon="-1.185485">
        <ele>160.660</ele>
        <time>2017-03-18T17:15:12Z</time>
      </trkpt>
      <trkpt lat="38.019513" lon="-1.185409">
        <ele>160.951</ele>
        <time>2017-03-18T17:15:16Z</time>
      </trkpt>
      <trkpt lat="38.019435" lon="-1.185331">
        <ele>161.201</ele>
        <time>2017-03-18T17:15:19Z</time>
      </trkpt>
      <trkpt lat="38.019348" lon="-1.185256">
        <ele>161.611</ele>
        <time>2017-03-18T17:15:22Z</time>
      </trkpt>
      <trkpt lat="38.019257" lon="-1.185182">
        <ele>162.108</ele>
        <time>2017-03-18T17:15:25Z</time>
      </trkpt>
      <trkpt lat="38.019167" lon="-1.185113">
        <ele>163.546</ele>
        <time>2017-03-18T17:15:28Z</time>
      </trkpt>
      <trkpt lat="38.019072" lon="-1.185032">
        <ele>164.191</ele>
        <time>2017-03-18T17:15:31Z</time>
      </trkpt>
      <trkpt lat="38.018978" lon="-1.184949">
        <ele>165.863</ele>
        <time>2017-03-18T17:15:34Z</time>
      </trkpt>
      <trkpt lat="38.018882" lon="-1.184857">
        <ele>166.418</ele>
        <time>2017-03-18T17:15:38Z</time>
      </trkpt>
      <trkpt lat="38.018783" lon="-1.184781">
        <ele>166.416</ele>
        <time>2017-03-18T17:15:41Z</time>
      </trkpt>
      <trkpt lat="38.018707" lon="-1.184703">
        <ele>166.460</ele>
        <time>2017-03-18T17:15:44Z</time>
      </trkpt>
      <trkpt lat="38.018624" lon="-1.184629">
        <ele>166.416</ele>
        <time>2017-03-18T17:15:46Z</time>
      </trkpt>
      <trkpt lat="38.018545" lon="-1.184545">
        <ele>166.676</ele>
        <time>2017-03-18T17:15:49Z</time>
      </trkpt>
      <trkpt lat="38.018458" lon="-1.184467">
        <ele>166.842</ele>
        <time>2017-03-18T17:15:52Z</time>
      </trkpt>
      <trkpt lat="38.018370" lon="-1.184386">
        <ele>167.522</ele>
        <time>2017-03-18T17:15:55Z</time>
      </trkpt>
      <trkpt lat="38.018280" lon="-1.184308">
        <ele>167.614</ele>
        <time>2017-03-18T17:15:58Z</time>
      </trkpt>
      <trkpt lat="38.018190" lon="-1.184223">
        <ele>167.608</ele>
        <time>2017-03-18T17:16:01Z</time>
      </trkpt>
      <trkpt lat="38.018104" lon="-1.184148">
        <ele>167.415</ele>
        <time>2017-03-18T17:16:04Z</time>
      </trkpt>
      <trkpt lat="38.018024" lon="-1.184068">
        <ele>166.550</ele>
        <time>2017-03-18T17:16:07Z</time>
      </trkpt>
      <trkpt lat="38.017945" lon="-1.183989">
        <ele>166.372</ele>
        <time>2017-03-18T17:16:10Z</time>
      </trkpt>
      <trkpt lat="38.017871" lon="-1.183923">
        <ele>166.127</ele>
        <time>2017-03-18T17:16:13Z</time>
      </trkpt>
      <trkpt lat="38.017783" lon="-1.183845">
        <ele>166.045</ele>
        <time>2017-03-18T17:16:16Z</time>
      </trkpt>
      <trkpt lat="38.017710" lon="-1.183777">
        <ele>165.739</ele>
        <time>2017-03-18T17:16:19Z</time>
      </trkpt>
      <trkpt lat="38.017637" lon="-1.183689">
        <ele>165.575</ele>
        <time>2017-03-18T17:16:22Z</time>
      </trkpt>
      <trkpt lat="38.017554" lon="-1.183610">
        <ele>165.595</ele>
        <time>2017-03-18T17:16:25Z</time>
      </trkpt>
      <trkpt lat="38.017471" lon="-1.183520">
        <ele>165.465</ele>
        <time>2017-03-18T17:16:28Z</time>
      </trkpt>
      <trkpt lat="38.017384" lon="-1.183433">
        <ele>165.268</ele>
        <time>2017-03-18T17:16:31Z</time>
      </trkpt>
      <trkpt lat="38.017294" lon="-1.183348">
        <ele>164.514</ele>
        <time>2017-03-18T17:16:34Z</time>
      </trkpt>
      <trkpt lat="38.017209" lon="-1.183264">
        <ele>164.108</ele>
        <time>2017-03-18T17:16:37Z</time>
      </trkpt>
      <trkpt lat="38.017124" lon="-1.183178">
        <ele>164.187</ele>
        <time>2017-03-18T17:16:40Z</time>
      </trkpt>
      <trkpt lat="38.017031" lon="-1.183099">
        <ele>164.092</ele>
        <time>2017-03-18T17:16:43Z</time>
      </trkpt>
      <trkpt lat="38.016930" lon="-1.183016">
        <ele>163.984</ele>
        <time>2017-03-18T17:16:46Z</time>
      </trkpt>
      <trkpt lat="38.016835" lon="-1.182931">
        <ele>163.889</ele>
        <time>2017-03-18T17:16:49Z</time>
      </trkpt>
      <trkpt lat="38.016748" lon="-1.182840">
        <ele>163.917</ele>
        <time>2017-03-18T17:16:52Z</time>
      </trkpt>
      <trkpt lat="38.016654" lon="-1.182755">
        <ele>163.861</ele>
        <time>2017-03-18T17:16:55Z</time>
      </trkpt>
      <trkpt lat="38.016573" lon="-1.182670">
        <ele>163.927</ele>
        <time>2017-03-18T17:16:59Z</time>
      </trkpt>
      <trkpt lat="38.016492" lon="-1.182595">
        <ele>164.017</ele>
        <time>2017-03-18T17:17:02Z</time>
      </trkpt>
      <trkpt lat="38.016401" lon="-1.182505">
        <ele>165.566</ele>
        <time>2017-03-18T17:17:05Z</time>
      </trkpt>
      <trkpt lat="38.016312" lon="-1.182417">
        <ele>167.329</ele>
        <time>2017-03-18T17:17:08Z</time>
      </trkpt>
      <trkpt lat="38.016217" lon="-1.182331">
        <ele>170.121</ele>
        <time>2017-03-18T17:17:11Z</time>
      </trkpt>
      <trkpt lat="38.016128" lon="-1.182242">
        <ele>171.508</ele>
        <time>2017-03-18T17:17:14Z</time>
      </trkpt>
      <trkpt lat="38.016040" lon="-1.182145">
        <ele>171.887</ele>
        <time>2017-03-18T17:17:16Z</time>
      </trkpt>
      <trkpt lat="38.015947" lon="-1.182048">
        <ele>170.622</ele>
        <time>2017-03-18T17:17:19Z</time>
      </trkpt>
      <trkpt lat="38.015868" lon="-1.181944">
        <ele>169.294</ele>
        <time>2017-03-18T17:17:22Z</time>
      </trkpt>
      <trkpt lat="38.015789" lon="-1.181831">
        <ele>168.989</ele>
        <time>2017-03-18T17:17:25Z</time>
      </trkpt>
      <trkpt lat="38.015715" lon="-1.181719">
        <ele>168.837</ele>
        <time>2017-03-18T17:17:28Z</time>
      </trkpt>
      <trkpt lat="38.015632" lon="-1.181609">
        <ele>168.871</ele>
        <time>2017-03-18T17:17:31Z</time>
      </trkpt>
      <trkpt lat="38.015556" lon="-1.181506">
        <ele>169.347</ele>
        <time>2017-03-18T17:17:34Z</time>
      </trkpt>
      <trkpt lat="38.015485" lon="-1.181402">
        <ele>169.897</ele>
        <time>2017-03-18T17:17:37Z</time>
      </trkpt>
      <trkpt lat="38.015411" lon="-1.181274">
        <ele>169.353</ele>
        <time>2017-03-18T17:17:40Z</time>
      </trkpt>
      <trkpt lat="38.015341" lon="-1.181140">
        <ele>168.604</ele>
        <time>2017-03-18T17:17:43Z</time>
      </trkpt>
      <trkpt lat="38.015282" lon="-1.180994">
        <ele>168.714</ele>
        <time>2017-03-18T17:17:46Z</time>
      </trkpt>
      <trkpt lat="38.015238" lon="-1.180877">
        <ele>168.908</ele>
        <time>2017-03-18T17:17:48Z</time>
      </trkpt>
      <trkpt lat="38.015191" lon="-1.180771">
        <ele>168.916</ele>
        <time>2017-03-18T17:17:50Z</time>
      </trkpt>
      <trkpt lat="38.015156" lon="-1.180661">
        <ele>168.761</ele>
        <time>2017-03-18T17:17:52Z</time>
      </trkpt>
      <trkpt lat="38.015126" lon="-1.180550">
        <ele>168.513</ele>
        <time>2017-03-18T17:17:54Z</time>
      </trkpt>
      <trkpt lat="38.015097" lon="-1.180439">
        <ele>168.398</ele>
        <time>2017-03-18T17:17:56Z</time>
      </trkpt>
      <trkpt lat="38.015063" lon="-1.180333">
        <ele>168.436</ele>
        <time>2017-03-18T17:17:58Z</time>
      </trkpt>
      <trkpt lat="38.015017" lon="-1.180176">
        <ele>169.650</ele>
        <time>2017-03-18T17:18:01Z</time>
      </trkpt>
      <trkpt lat="38.014987" lon="-1.180067">
        <ele>170.316</ele>
        <time>2017-03-18T17:18:03Z</time>
      </trkpt>
      <trkpt lat="38.014959" lon="-1.179950">
        <ele>170.626</ele>
        <time>2017-03-18T17:18:05Z</time>
      </trkpt>
      <trkpt lat="38.014937" lon="-1.179828">
        <ele>170.329</ele>
        <time>2017-03-18T17:18:07Z</time>
      </trkpt>
      <trkpt lat="38.014912" lon="-1.179709">
        <ele>169.800</ele>
        <time>2017-03-18T17:18:10Z</time>
      </trkpt>
      <trkpt lat="38.014895" lon="-1.179597">
        <ele>169.420</ele>
        <time>2017-03-18T17:18:12Z</time>
      </trkpt>
      <trkpt lat="38.014878" lon="-1.179469">
        <ele>169.308</ele>
        <time>2017-03-18T17:18:14Z</time>
      </trkpt>
      <trkpt lat="38.014863" lon="-1.179339">
        <ele>169.413</ele>
        <time>2017-03-18T17:18:16Z</time>
      </trkpt>
      <trkpt lat="38.014851" lon="-1.179209">
        <ele>169.148</ele>
        <time>2017-03-18T17:18:18Z</time>
      </trkpt>
      <trkpt lat="38.014841" lon="-1.179081">
        <ele>168.980</ele>
        <time>2017-03-18T17:18:20Z</time>
      </trkpt>
      <trkpt lat="38.014836" lon="-1.178951">
        <ele>169.055</ele>
        <time>2017-03-18T17:18:22Z</time>
      </trkpt>
      <trkpt lat="38.014836" lon="-1.178817">
        <ele>168.923</ele>
        <time>2017-03-18T17:18:24Z</time>
      </trkpt>
      <trkpt lat="38.014840" lon="-1.178692">
        <ele>168.847</ele>
        <time>2017-03-18T17:18:26Z</time>
      </trkpt>
      <trkpt lat="38.014848" lon="-1.178562">
        <ele>168.743</ele>
        <time>2017-03-18T17:18:28Z</time>
      </trkpt>
      <trkpt lat="38.014855" lon="-1.178442">
        <ele>168.673</ele>
        <time>2017-03-18T17:18:30Z</time>
      </trkpt>
      <trkpt lat="38.014866" lon="-1.178313">
        <ele>168.676</ele>
        <time>2017-03-18T17:18:31Z</time>
      </trkpt>
      <trkpt lat="38.014874" lon="-1.178182">
        <ele>168.590</ele>
        <time>2017-03-18T17:18:33Z</time>
      </trkpt>
      <trkpt lat="38.014879" lon="-1.178059">
        <ele>169.019</ele>
        <time>2017-03-18T17:18:35Z</time>
      </trkpt>
      <trkpt lat="38.014891" lon="-1.177940">
        <ele>169.608</ele>
        <time>2017-03-18T17:18:37Z</time>
      </trkpt>
      <trkpt lat="38.014901" lon="-1.177806">
        <ele>169.598</ele>
        <time>2017-03-18T17:18:41Z</time>
      </trkpt>
      <trkpt lat="38.014913" lon="-1.177687">
        <ele>161.813</ele>
        <time>2017-03-18T17:19:37Z</time>
      </trkpt>
      <trkpt lat="38.014947" lon="-1.177540">
        <ele>159.365</ele>
        <time>2017-03-18T17:19:40Z</time>
      </trkpt>
      <trkpt lat="38.014968" lon="-1.177420">
        <ele>158.290</ele>
        <time>2017-03-18T17:19:42Z</time>
      </trkpt>
      <trkpt lat="38.015003" lon="-1.177294">
        <ele>157.818</ele>
        <time>2017-03-18T17:19:44Z</time>
      </trkpt>
      <trkpt lat="38.015042" lon="-1.177166">
        <ele>157.872</ele>
        <time>2017-03-18T17:19:46Z</time>
      </trkpt>
      <trkpt lat="38.015084" lon="-1.177033">
        <ele>157.928</ele>
        <time>2017-03-18T17:19:49Z</time>
      </trkpt>
      <trkpt lat="38.015130" lon="-1.176905">
        <ele>158.138</ele>
        <time>2017-03-18T17:19:50Z</time>
      </trkpt>
      <trkpt lat="38.015179" lon="-1.176780">
        <ele>158.381</ele>
        <time>2017-03-18T17:19:52Z</time>
      </trkpt>
      <trkpt lat="38.015231" lon="-1.176655">
        <ele>158.261</ele>
        <time>2017-03-18T17:19:54Z</time>
      </trkpt>
      <trkpt lat="38.015281" lon="-1.176536">
        <ele>158.317</ele>
        <time>2017-03-18T17:19:56Z</time>
      </trkpt>
      <trkpt lat="38.015331" lon="-1.176411">
        <ele>158.808</ele>
        <time>2017-03-18T17:19:58Z</time>
      </trkpt>
      <trkpt lat="38.015380" lon="-1.176286">
        <ele>159.299</ele>
        <time>2017-03-18T17:20:00Z</time>
      </trkpt>
      <trkpt lat="38.015435" lon="-1.176163">
        <ele>159.354</ele>
        <time>2017-03-18T17:20:02Z</time>
      </trkpt>
      <trkpt lat="38.015488" lon="-1.176048">
        <ele>159.686</ele>
        <time>2017-03-18T17:20:04Z</time>
      </trkpt>
      <trkpt lat="38.015544" lon="-1.175930">
        <ele>159.761</ele>
        <time>2017-03-18T17:20:06Z</time>
      </trkpt>
      <trkpt lat="38.015597" lon="-1.175816">
        <ele>160.059</ele>
        <time>2017-03-18T17:20:08Z</time>
      </trkpt>
      <trkpt lat="38.015656" lon="-1.175694">
        <ele>160.183</ele>
        <time>2017-03-18T17:20:10Z</time>
      </trkpt>
      <trkpt lat="38.015712" lon="-1.175564">
        <ele>159.829</ele>
        <time>2017-03-18T17:20:12Z</time>
      </trkpt>
      <trkpt lat="38.015765" lon="-1.175440">
        <ele>159.469</ele>
        <time>2017-03-18T17:20:14Z</time>
      </trkpt>
      <trkpt lat="38.015824" lon="-1.175314">
        <ele>159.258</ele>
        <time>2017-03-18T17:20:16Z</time>
      </trkpt>
      <trkpt lat="38.015875" lon="-1.175196">
        <ele>159.352</ele>
        <time>2017-03-18T17:20:18Z</time>
      </trkpt>
      <trkpt lat="38.015923" lon="-1.175087">
        <ele>159.517</ele>
        <time>2017-03-18T17:20:20Z</time>
      </trkpt>
      <trkpt lat="38.015990" lon="-1.174942">
        <ele>159.408</ele>
        <time>2017-03-18T17:20:23Z</time>
      </trkpt>
      <trkpt lat="38.016038" lon="-1.174844">
        <ele>159.286</ele>
        <time>2017-03-18T17:20:25Z</time>
      </trkpt>
      <trkpt lat="38.016090" lon="-1.174738">
        <ele>159.191</ele>
        <time>2017-03-18T17:20:28Z</time>
      </trkpt>
      <trkpt lat="38.016143" lon="-1.174617">
        <ele>159.153</ele>
        <time>2017-03-18T17:20:30Z</time>
      </trkpt>
      <trkpt lat="38.016200" lon="-1.174498">
        <ele>159.118</ele>
        <time>2017-03-18T17:20:32Z</time>
      </trkpt>
      <trkpt lat="38.016270" lon="-1.174375">
        <ele>159.386</ele>
        <time>2017-03-18T17:20:34Z</time>
      </trkpt>
      <trkpt lat="38.016333" lon="-1.174261">
        <ele>159.410</ele>
        <time>2017-03-18T17:20:36Z</time>
      </trkpt>
      <trkpt lat="38.016397" lon="-1.174153">
        <ele>159.286</ele>
        <time>2017-03-18T17:20:38Z</time>
      </trkpt>
      <trkpt lat="38.016468" lon="-1.174040">
        <ele>159.156</ele>
        <time>2017-03-18T17:20:40Z</time>
      </trkpt>
      <trkpt lat="38.016546" lon="-1.173930">
        <ele>159.422</ele>
        <time>2017-03-18T17:20:42Z</time>
      </trkpt>
      <trkpt lat="38.016633" lon="-1.173815">
        <ele>159.462</ele>
        <time>2017-03-18T17:20:44Z</time>
      </trkpt>
      <trkpt lat="38.016723" lon="-1.173704">
        <ele>159.108</ele>
        <time>2017-03-18T17:20:46Z</time>
      </trkpt>
      <trkpt lat="38.016815" lon="-1.173600">
        <ele>158.808</ele>
        <time>2017-03-18T17:20:48Z</time>
      </trkpt>
      <trkpt lat="38.016910" lon="-1.173500">
        <ele>158.513</ele>
        <time>2017-03-18T17:20:50Z</time>
      </trkpt>
      <trkpt lat="38.017006" lon="-1.173397">
        <ele>158.058</ele>
        <time>2017-03-18T17:20:52Z</time>
      </trkpt>
      <trkpt lat="38.017106" lon="-1.173297">
        <ele>157.050</ele>
        <time>2017-03-18T17:20:54Z</time>
      </trkpt>
      <trkpt lat="38.017206" lon="-1.173214">
        <ele>156.015</ele>
        <time>2017-03-18T17:20:55Z</time>
      </trkpt>
      <trkpt lat="38.017301" lon="-1.173145">
        <ele>155.743</ele>
        <time>2017-03-18T17:20:57Z</time>
      </trkpt>
      <trkpt lat="38.017397" lon="-1.173075">
        <ele>155.947</ele>
        <time>2017-03-18T17:20:59Z</time>
      </trkpt>
      <trkpt lat="38.017502" lon="-1.173007">
        <ele>156.263</ele>
        <time>2017-03-18T17:21:01Z</time>
      </trkpt>
      <trkpt lat="38.017612" lon="-1.172949">
        <ele>156.593</ele>
        <time>2017-03-18T17:21:03Z</time>
      </trkpt>
      <trkpt lat="38.017746" lon="-1.172879">
        <ele>156.023</ele>
        <time>2017-03-18T17:21:05Z</time>
      </trkpt>
      <trkpt lat="38.017874" lon="-1.172820">
        <ele>155.783</ele>
        <time>2017-03-18T17:21:07Z</time>
      </trkpt>
      <trkpt lat="38.017999" lon="-1.172753">
        <ele>156.011</ele>
        <time>2017-03-18T17:21:09Z</time>
      </trkpt>
      <trkpt lat="38.018134" lon="-1.172689">
        <ele>156.208</ele>
        <time>2017-03-18T17:21:11Z</time>
      </trkpt>
      <trkpt lat="38.018261" lon="-1.172639">
        <ele>155.743</ele>
        <time>2017-03-18T17:21:13Z</time>
      </trkpt>
      <trkpt lat="38.018384" lon="-1.172596">
        <ele>155.138</ele>
        <time>2017-03-18T17:21:15Z</time>
      </trkpt>
      <trkpt lat="38.018505" lon="-1.172560">
        <ele>154.620</ele>
        <time>2017-03-18T17:21:17Z</time>
      </trkpt>
      <trkpt lat="38.018635" lon="-1.172527">
        <ele>154.115</ele>
        <time>2017-03-18T17:21:19Z</time>
      </trkpt>
      <trkpt lat="38.018758" lon="-1.172491">
        <ele>153.453</ele>
        <time>2017-03-18T17:21:21Z</time>
      </trkpt>
      <trkpt lat="38.018866" lon="-1.172462">
        <ele>153.047</ele>
        <time>2017-03-18T17:21:23Z</time>
      </trkpt>
      <trkpt lat="38.018992" lon="-1.172427">
        <ele>153.133</ele>
        <time>2017-03-18T17:21:25Z</time>
      </trkpt>
      <trkpt lat="38.019112" lon="-1.172390">
        <ele>153.313</ele>
        <time>2017-03-18T17:21:27Z</time>
      </trkpt>
      <trkpt lat="38.019230" lon="-1.172356">
        <ele>153.097</ele>
        <time>2017-03-18T17:21:29Z</time>
      </trkpt>
      <trkpt lat="38.019353" lon="-1.172317">
        <ele>152.623</ele>
        <time>2017-03-18T17:21:31Z</time>
      </trkpt>
      <trkpt lat="38.019475" lon="-1.172277">
        <ele>152.325</ele>
        <time>2017-03-18T17:21:33Z</time>
      </trkpt>
      <trkpt lat="38.019592" lon="-1.172242">
        <ele>152.008</ele>
        <time>2017-03-18T17:21:35Z</time>
      </trkpt>
      <trkpt lat="38.019712" lon="-1.172202">
        <ele>151.860</ele>
        <time>2017-03-18T17:21:37Z</time>
      </trkpt>
      <trkpt lat="38.019835" lon="-1.172172">
        <ele>152.015</ele>
        <time>2017-03-18T17:21:39Z</time>
      </trkpt>
      <trkpt lat="38.019956" lon="-1.172141">
        <ele>152.327</ele>
        <time>2017-03-18T17:21:41Z</time>
      </trkpt>
      <trkpt lat="38.020075" lon="-1.172102">
        <ele>152.622</ele>
        <time>2017-03-18T17:21:43Z</time>
      </trkpt>
      <trkpt lat="38.020189" lon="-1.172062">
        <ele>152.690</ele>
        <time>2017-03-18T17:21:45Z</time>
      </trkpt>
      <trkpt lat="38.020299" lon="-1.172015">
        <ele>152.434</ele>
        <time>2017-03-18T17:21:48Z</time>
      </trkpt>
      <trkpt lat="38.020399" lon="-1.171959">
        <ele>152.040</ele>
        <time>2017-03-18T17:21:50Z</time>
      </trkpt>
      <trkpt lat="38.020496" lon="-1.171896">
        <ele>151.860</ele>
        <time>2017-03-18T17:21:53Z</time>
      </trkpt>
      <trkpt lat="38.020583" lon="-1.171823">
        <ele>151.761</ele>
        <time>2017-03-18T17:21:58Z</time>
      </trkpt>
      <trkpt lat="38.020632" lon="-1.171718">
        <ele>151.821</ele>
        <time>2017-03-18T17:22:01Z</time>
      </trkpt>
      <trkpt lat="38.020633" lon="-1.171591">
        <ele>151.813</ele>
        <time>2017-03-18T17:22:04Z</time>
      </trkpt>
      <trkpt lat="38.020725" lon="-1.171537">
        <ele>152.208</ele>
        <time>2017-03-18T17:22:07Z</time>
      </trkpt>
      <trkpt lat="38.020814" lon="-1.171492">
        <ele>152.557</ele>
        <time>2017-03-18T17:22:09Z</time>
      </trkpt>
      <trkpt lat="38.020895" lon="-1.171438">
        <ele>152.612</ele>
        <time>2017-03-18T17:22:12Z</time>
      </trkpt>
      <trkpt lat="38.020969" lon="-1.171373">
        <ele>152.754</ele>
        <time>2017-03-18T17:22:15Z</time>
      </trkpt>
      <trkpt lat="38.021062" lon="-1.171321">
        <ele>153.039</ele>
        <time>2017-03-18T17:22:18Z</time>
      </trkpt>
      <trkpt lat="38.021168" lon="-1.171265">
        <ele>153.237</ele>
        <time>2017-03-18T17:22:21Z</time>
      </trkpt>
      <trkpt lat="38.021279" lon="-1.171244">
        <ele>153.481</ele>
        <time>2017-03-18T17:22:25Z</time>
      </trkpt>
      <trkpt lat="38.021384" lon="-1.171245">
        <ele>153.637</ele>
        <time>2017-03-18T17:22:29Z</time>
      </trkpt>
      <trkpt lat="38.021477" lon="-1.171230">
        <ele>153.877</ele>
        <time>2017-03-18T17:22:33Z</time>
      </trkpt>
      <trkpt lat="38.021555" lon="-1.171132">
        <ele>154.197</ele>
        <time>2017-03-18T17:22:37Z</time>
      </trkpt>
      <trkpt lat="38.021652" lon="-1.171057">
        <ele>154.223</ele>
        <time>2017-03-18T17:22:42Z</time>
      </trkpt>
      <trkpt lat="38.021728" lon="-1.170973">
        <ele>154.225</ele>
        <time>2017-03-18T17:22:46Z</time>
      </trkpt>
      <trkpt lat="38.021807" lon="-1.170884">
        <ele>154.508</ele>
        <time>2017-03-18T17:22:52Z</time>
      </trkpt>
      <trkpt lat="38.021877" lon="-1.170804">
        <ele>154.850</ele>
        <time>2017-03-18T17:22:56Z</time>
      </trkpt>
      <trkpt lat="38.021949" lon="-1.170713">
        <ele>155.615</ele>
        <time>2017-03-18T17:23:02Z</time>
      </trkpt>
      <trkpt lat="38.022002" lon="-1.170613">
        <ele>156.237</ele>
        <time>2017-03-18T17:23:07Z</time>
      </trkpt>
      <trkpt lat="38.022049" lon="-1.170470">
        <ele>156.762</ele>
        <time>2017-03-18T17:23:11Z</time>
      </trkpt>
      <trkpt lat="38.022132" lon="-1.170389">
        <ele>157.170</ele>
        <time>2017-03-18T17:23:14Z</time>
      </trkpt>
      <trkpt lat="38.022180" lon="-1.170263">
        <ele>157.814</ele>
        <time>2017-03-18T17:23:18Z</time>
      </trkpt>
      <trkpt lat="38.022237" lon="-1.170119">
        <ele>158.960</ele>
        <time>2017-03-18T17:23:22Z</time>
      </trkpt>
      <trkpt lat="38.022242" lon="-1.169986">
        <ele>159.280</ele>
        <time>2017-03-18T17:23:25Z</time>
      </trkpt>
      <trkpt lat="38.022246" lon="-1.169871">
        <ele>159.182</ele>
        <time>2017-03-18T17:23:27Z</time>
      </trkpt>
      <trkpt lat="38.022253" lon="-1.169755">
        <ele>158.943</ele>
        <time>2017-03-18T17:23:29Z</time>
      </trkpt>
      <trkpt lat="38.022315" lon="-1.169669">
        <ele>158.417</ele>
        <time>2017-03-18T17:23:33Z</time>
      </trkpt>
      <trkpt lat="38.022425" lon="-1.169707">
        <ele>157.808</ele>
        <time>2017-03-18T17:23:37Z</time>
      </trkpt>
      <trkpt lat="38.022506" lon="-1.169615">
        <ele>155.239</ele>
        <time>2017-03-18T17:23:42Z</time>
      </trkpt>
      <trkpt lat="38.022500" lon="-1.169422">
        <ele>155.294</ele>
        <time>2017-03-18T17:23:44Z</time>
      </trkpt>
      <trkpt lat="38.022504" lon="-1.169282">
        <ele>155.286</ele>
        <time>2017-03-18T17:23:46Z</time>
      </trkpt>
      <trkpt lat="38.022522" lon="-1.169110">
        <ele>155.511</ele>
        <time>2017-03-18T17:23:49Z</time>
      </trkpt>
      <trkpt lat="38.022505" lon="-1.168969">
        <ele>155.819</ele>
        <time>2017-03-18T17:23:51Z</time>
      </trkpt>
      <trkpt lat="38.022489" lon="-1.168815">
        <ele>156.083</ele>
        <time>2017-03-18T17:23:54Z</time>
      </trkpt>
      <trkpt lat="38.022498" lon="-1.168679">
        <ele>155.979</ele>
        <time>2017-03-18T17:23:57Z</time>
      </trkpt>
      <trkpt lat="38.022502" lon="-1.168563">
        <ele>155.859</ele>
        <time>2017-03-18T17:24:01Z</time>
      </trkpt>
      <trkpt lat="38.022475" lon="-1.168454">
        <ele>154.552</ele>
        <time>2017-03-18T17:26:45Z</time>
      </trkpt>
      <trkpt lat="38.022375" lon="-1.168424">
        <ele>154.553</ele>
        <time>2017-03-18T17:26:48Z</time>
      </trkpt>
      <trkpt lat="38.022270" lon="-1.168394">
        <ele>154.708</ele>
        <time>2017-03-18T17:26:52Z</time>
      </trkpt>
      <trkpt lat="38.022158" lon="-1.168381">
        <ele>155.108</ele>
        <time>2017-03-18T17:26:56Z</time>
      </trkpt>
      <trkpt lat="38.022055" lon="-1.168375">
        <ele>155.536</ele>
        <time>2017-03-18T17:27:00Z</time>
      </trkpt>
      <trkpt lat="38.021924" lon="-1.168391">
        <ele>155.841</ele>
        <time>2017-03-18T17:27:05Z</time>
      </trkpt>
      <trkpt lat="38.021878" lon="-1.168513">
        <ele>156.193</ele>
        <time>2017-03-18T17:27:09Z</time>
      </trkpt>
      <trkpt lat="38.021801" lon="-1.168615">
        <ele>155.928</ele>
        <time>2017-03-18T17:27:13Z</time>
      </trkpt>
      <trkpt lat="38.021687" lon="-1.168632">
        <ele>155.656</ele>
        <time>2017-03-18T17:27:17Z</time>
      </trkpt>
      <trkpt lat="38.021645" lon="-1.168496">
        <ele>154.950</ele>
        <time>2017-03-18T17:27:23Z</time>
      </trkpt>
      <trkpt lat="38.021627" lon="-1.168356">
        <ele>154.616</ele>
        <time>2017-03-18T17:27:26Z</time>
      </trkpt>
      <trkpt lat="38.021589" lon="-1.168203">
        <ele>151.686</ele>
        <time>2017-03-18T17:27:29Z</time>
      </trkpt>
      <trkpt lat="38.021557" lon="-1.168054">
        <ele>149.954</ele>
        <time>2017-03-18T17:27:32Z</time>
      </trkpt>
      <trkpt lat="38.021527" lon="-1.167913">
        <ele>148.656</ele>
        <time>2017-03-18T17:27:35Z</time>
      </trkpt>
      <trkpt lat="38.021494" lon="-1.167769">
        <ele>148.111</ele>
        <time>2017-03-18T17:27:38Z</time>
      </trkpt>
      <trkpt lat="38.021455" lon="-1.167611">
        <ele>148.008</ele>
        <time>2017-03-18T17:27:41Z</time>
      </trkpt>
      <trkpt lat="38.021406" lon="-1.167449">
        <ele>147.926</ele>
        <time>2017-03-18T17:27:44Z</time>
      </trkpt>
      <trkpt lat="38.021363" lon="-1.167335">
        <ele>147.661</ele>
        <time>2017-03-18T17:27:46Z</time>
      </trkpt>
      <trkpt lat="38.021315" lon="-1.167219">
        <ele>147.513</ele>
        <time>2017-03-18T17:27:48Z</time>
      </trkpt>
      <trkpt lat="38.021250" lon="-1.167104">
        <ele>147.598</ele>
        <time>2017-03-18T17:27:50Z</time>
      </trkpt>
      <trkpt lat="38.021176" lon="-1.166989">
        <ele>147.296</ele>
        <time>2017-03-18T17:27:52Z</time>
      </trkpt>
      <trkpt lat="38.021103" lon="-1.166892">
        <ele>146.710</ele>
        <time>2017-03-18T17:27:54Z</time>
      </trkpt>
      <trkpt lat="38.021024" lon="-1.166807">
        <ele>145.866</ele>
        <time>2017-03-18T17:27:56Z</time>
      </trkpt>
      <trkpt lat="38.020926" lon="-1.166721">
        <ele>145.916</ele>
        <time>2017-03-18T17:27:58Z</time>
      </trkpt>
      <trkpt lat="38.020811" lon="-1.166639">
        <ele>146.443</ele>
        <time>2017-03-18T17:28:00Z</time>
      </trkpt>
      <trkpt lat="38.020680" lon="-1.166569">
        <ele>146.364</ele>
        <time>2017-03-18T17:28:02Z</time>
      </trkpt>
      <trkpt lat="38.020555" lon="-1.166515">
        <ele>145.810</ele>
        <time>2017-03-18T17:28:04Z</time>
      </trkpt>
      <trkpt lat="38.020431" lon="-1.166481">
        <ele>145.908</ele>
        <time>2017-03-18T17:28:07Z</time>
      </trkpt>
      <trkpt lat="38.020310" lon="-1.166452">
        <ele>146.885</ele>
        <time>2017-03-18T17:28:09Z</time>
      </trkpt>
      <trkpt lat="38.020190" lon="-1.166441">
        <ele>147.180</ele>
        <time>2017-03-18T17:28:11Z</time>
      </trkpt>
      <trkpt lat="38.020073" lon="-1.166437">
        <ele>146.692</ele>
        <time>2017-03-18T17:28:13Z</time>
      </trkpt>
      <trkpt lat="38.019956" lon="-1.166446">
        <ele>145.877</ele>
        <time>2017-03-18T17:28:15Z</time>
      </trkpt>
      <trkpt lat="38.019853" lon="-1.166455">
        <ele>145.355</ele>
        <time>2017-03-18T17:28:17Z</time>
      </trkpt>
      <trkpt lat="38.019747" lon="-1.166476">
        <ele>145.239</ele>
        <time>2017-03-18T17:28:19Z</time>
      </trkpt>
      <trkpt lat="38.019650" lon="-1.166506">
        <ele>145.295</ele>
        <time>2017-03-18T17:28:21Z</time>
      </trkpt>
      <trkpt lat="38.019559" lon="-1.166542">
        <ele>145.585</ele>
        <time>2017-03-18T17:28:23Z</time>
      </trkpt>
      <trkpt lat="38.019474" lon="-1.166600">
        <ele>146.179</ele>
        <time>2017-03-18T17:28:25Z</time>
      </trkpt>
      <trkpt lat="38.019336" lon="-1.166725">
        <ele>145.405</ele>
        <time>2017-03-18T17:28:27Z</time>
      </trkpt>
      <trkpt lat="38.019225" lon="-1.166742">
        <ele>144.325</ele>
        <time>2017-03-18T17:28:29Z</time>
      </trkpt>
      <trkpt lat="38.019118" lon="-1.166720">
        <ele>143.208</ele>
        <time>2017-03-18T17:28:31Z</time>
      </trkpt>
      <trkpt lat="38.019004" lon="-1.166694">
        <ele>142.368</ele>
        <time>2017-03-18T17:28:33Z</time>
      </trkpt>
      <trkpt lat="38.018888" lon="-1.166684">
        <ele>141.393</ele>
        <time>2017-03-18T17:28:35Z</time>
      </trkpt>
      <trkpt lat="38.018763" lon="-1.166710">
        <ele>140.715</ele>
        <time>2017-03-18T17:28:37Z</time>
      </trkpt>
      <trkpt lat="38.018633" lon="-1.166728">
        <ele>140.860</ele>
        <time>2017-03-18T17:28:39Z</time>
      </trkpt>
      <trkpt lat="38.018503" lon="-1.166750">
        <ele>141.658</ele>
        <time>2017-03-18T17:28:41Z</time>
      </trkpt>
      <trkpt lat="38.018376" lon="-1.166776">
        <ele>142.252</ele>
        <time>2017-03-18T17:28:43Z</time>
      </trkpt>
      <trkpt lat="38.018251" lon="-1.166806">
        <ele>142.788</ele>
        <time>2017-03-18T17:28:45Z</time>
      </trkpt>
      <trkpt lat="38.018127" lon="-1.166832">
        <ele>143.298</ele>
        <time>2017-03-18T17:28:47Z</time>
      </trkpt>
      <trkpt lat="38.018011" lon="-1.166860">
        <ele>142.998</ele>
        <time>2017-03-18T17:28:49Z</time>
      </trkpt>
      <trkpt lat="38.017901" lon="-1.166888">
        <ele>141.615</ele>
        <time>2017-03-18T17:28:51Z</time>
      </trkpt>
      <trkpt lat="38.017800" lon="-1.166915">
        <ele>140.926</ele>
        <time>2017-03-18T17:28:53Z</time>
      </trkpt>
      <trkpt lat="38.017710" lon="-1.166937">
        <ele>142.008</ele>
        <time>2017-03-18T17:28:55Z</time>
      </trkpt>
      <trkpt lat="38.017596" lon="-1.166940">
        <ele>145.640</ele>
        <time>2017-03-18T17:28:58Z</time>
      </trkpt>
      <trkpt lat="38.017501" lon="-1.166965">
        <ele>146.665</ele>
        <time>2017-03-18T17:29:01Z</time>
      </trkpt>
      <trkpt lat="38.017403" lon="-1.166985">
        <ele>146.777</ele>
        <time>2017-03-18T17:29:04Z</time>
      </trkpt>
      <trkpt lat="38.017322" lon="-1.167040">
        <ele>146.542</ele>
        <time>2017-03-18T17:29:06Z</time>
      </trkpt>
      <trkpt lat="38.017218" lon="-1.167063">
        <ele>145.490</ele>
        <time>2017-03-18T17:29:09Z</time>
      </trkpt>
      <trkpt lat="38.017107" lon="-1.167088">
        <ele>145.114</ele>
        <time>2017-03-18T17:29:12Z</time>
      </trkpt>
      <trkpt lat="38.016993" lon="-1.167114">
        <ele>144.380</ele>
        <time>2017-03-18T17:29:15Z</time>
      </trkpt>
      <trkpt lat="38.016876" lon="-1.167133">
        <ele>145.370</ele>
        <time>2017-03-18T17:29:18Z</time>
      </trkpt>
      <trkpt lat="38.016753" lon="-1.167159">
        <ele>147.145</ele>
        <time>2017-03-18T17:29:21Z</time>
      </trkpt>
      <trkpt lat="38.016640" lon="-1.167181">
        <ele>146.947</ele>
        <time>2017-03-18T17:29:25Z</time>
      </trkpt>
      <trkpt lat="38.016523" lon="-1.167213">
        <ele>146.211</ele>
        <time>2017-03-18T17:29:28Z</time>
      </trkpt>
      <trkpt lat="38.016412" lon="-1.167244">
        <ele>145.908</ele>
        <time>2017-03-18T17:29:31Z</time>
      </trkpt>
      <trkpt lat="38.016293" lon="-1.167275">
        <ele>145.575</ele>
        <time>2017-03-18T17:29:34Z</time>
      </trkpt>
      <trkpt lat="38.016162" lon="-1.167310">
        <ele>145.150</ele>
        <time>2017-03-18T17:29:37Z</time>
      </trkpt>
      <trkpt lat="38.016073" lon="-1.167335">
        <ele>144.592</ele>
        <time>2017-03-18T17:29:39Z</time>
      </trkpt>
      <trkpt lat="38.015977" lon="-1.167365">
        <ele>143.297</ele>
        <time>2017-03-18T17:29:41Z</time>
      </trkpt>
      <trkpt lat="38.015888" lon="-1.167392">
        <ele>141.365</ele>
        <time>2017-03-18T17:29:43Z</time>
      </trkpt>
      <trkpt lat="38.015791" lon="-1.167418">
        <ele>139.379</ele>
        <time>2017-03-18T17:29:45Z</time>
      </trkpt>
      <trkpt lat="38.015683" lon="-1.167447">
        <ele>138.015</ele>
        <time>2017-03-18T17:29:47Z</time>
      </trkpt>
      <trkpt lat="38.015569" lon="-1.167479">
        <ele>137.285</ele>
        <time>2017-03-18T17:29:49Z</time>
      </trkpt>
      <trkpt lat="38.015467" lon="-1.167536">
        <ele>136.927</ele>
        <time>2017-03-18T17:29:51Z</time>
      </trkpt>
      <trkpt lat="38.015388" lon="-1.167621">
        <ele>137.468</ele>
        <time>2017-03-18T17:29:53Z</time>
      </trkpt>
      <trkpt lat="38.015293" lon="-1.167704">
        <ele>137.714</ele>
        <time>2017-03-18T17:29:55Z</time>
      </trkpt>
      <trkpt lat="38.015180" lon="-1.167652">
        <ele>137.608</ele>
        <time>2017-03-18T17:29:58Z</time>
      </trkpt>
      <trkpt lat="38.015087" lon="-1.167635">
        <ele>137.693</ele>
        <time>2017-03-18T17:30:00Z</time>
      </trkpt>
      <trkpt lat="38.014987" lon="-1.167643">
        <ele>137.618</ele>
        <time>2017-03-18T17:30:02Z</time>
      </trkpt>
      <trkpt lat="38.014887" lon="-1.167662">
        <ele>137.520</ele>
        <time>2017-03-18T17:30:04Z</time>
      </trkpt>
      <trkpt lat="38.014791" lon="-1.167680">
        <ele>137.615</ele>
        <time>2017-03-18T17:30:06Z</time>
      </trkpt>
      <trkpt lat="38.014696" lon="-1.167698">
        <ele>138.013</ele>
        <time>2017-03-18T17:30:08Z</time>
      </trkpt>
      <trkpt lat="38.014606" lon="-1.167720">
        <ele>138.537</ele>
        <time>2017-03-18T17:30:10Z</time>
      </trkpt>
      <trkpt lat="38.014509" lon="-1.167742">
        <ele>139.093</ele>
        <time>2017-03-18T17:30:12Z</time>
      </trkpt>
      <trkpt lat="38.014414" lon="-1.167762">
        <ele>139.463</ele>
        <time>2017-03-18T17:30:14Z</time>
      </trkpt>
      <trkpt lat="38.014325" lon="-1.167784">
        <ele>139.773</ele>
        <time>2017-03-18T17:30:16Z</time>
      </trkpt>
      <trkpt lat="38.014192" lon="-1.167809">
        <ele>140.385</ele>
        <time>2017-03-18T17:30:19Z</time>
      </trkpt>
      <trkpt lat="38.014072" lon="-1.167840">
        <ele>140.113</ele>
        <time>2017-03-18T17:30:22Z</time>
      </trkpt>
      <trkpt lat="38.013957" lon="-1.167865">
        <ele>139.308</ele>
        <time>2017-03-18T17:30:25Z</time>
      </trkpt>
      <trkpt lat="38.013824" lon="-1.167891">
        <ele>138.768</ele>
        <time>2017-03-18T17:30:28Z</time>
      </trkpt>
      <trkpt lat="38.013731" lon="-1.167914">
        <ele>138.583</ele>
        <time>2017-03-18T17:30:30Z</time>
      </trkpt>
      <trkpt lat="38.013639" lon="-1.167940">
        <ele>138.455</ele>
        <time>2017-03-18T17:30:32Z</time>
      </trkpt>
      <trkpt lat="38.013550" lon="-1.167969">
        <ele>138.870</ele>
        <time>2017-03-18T17:30:34Z</time>
      </trkpt>
      <trkpt lat="38.013459" lon="-1.167995">
        <ele>139.448</ele>
        <time>2017-03-18T17:30:36Z</time>
      </trkpt>
      <trkpt lat="38.013367" lon="-1.168024">
        <ele>140.172</ele>
        <time>2017-03-18T17:30:38Z</time>
      </trkpt>
      <trkpt lat="38.013272" lon="-1.168054">
        <ele>140.978</ele>
        <time>2017-03-18T17:30:40Z</time>
      </trkpt>
      <trkpt lat="38.013184" lon="-1.168086">
        <ele>141.628</ele>
        <time>2017-03-18T17:30:42Z</time>
      </trkpt>
      <trkpt lat="38.013103" lon="-1.168140">
        <ele>142.255</ele>
        <time>2017-03-18T17:30:45Z</time>
      </trkpt>
      <trkpt lat="38.012994" lon="-1.168231">
        <ele>141.907</ele>
        <time>2017-03-18T17:30:48Z</time>
      </trkpt>
      <trkpt lat="38.012896" lon="-1.168342">
        <ele>141.017</ele>
        <time>2017-03-18T17:30:51Z</time>
      </trkpt>
      <trkpt lat="38.012818" lon="-1.168472">
        <ele>139.608</ele>
        <time>2017-03-18T17:30:54Z</time>
      </trkpt>
      <trkpt lat="38.012774" lon="-1.168622">
        <ele>138.656</ele>
        <time>2017-03-18T17:30:57Z</time>
      </trkpt>
      <trkpt lat="38.012773" lon="-1.168740">
        <ele>138.341</ele>
        <time>2017-03-18T17:30:59Z</time>
      </trkpt>
      <trkpt lat="38.012792" lon="-1.168895">
        <ele>137.693</ele>
        <time>2017-03-18T17:31:02Z</time>
      </trkpt>
      <trkpt lat="38.012758" lon="-1.169031">
        <ele>136.738</ele>
        <time>2017-03-18T17:31:05Z</time>
      </trkpt>
      <trkpt lat="38.012709" lon="-1.169138">
        <ele>136.186</ele>
        <time>2017-03-18T17:31:10Z</time>
      </trkpt>
      <trkpt lat="38.012785" lon="-1.169057">
        <ele>134.550</ele>
        <time>2017-03-18T17:33:45Z</time>
      </trkpt>
      <trkpt lat="38.012847" lon="-1.168958">
        <ele>134.886</ele>
        <time>2017-03-18T17:33:49Z</time>
      </trkpt>
      <trkpt lat="38.012816" lon="-1.168816">
        <ele>135.516</ele>
        <time>2017-03-18T17:33:52Z</time>
      </trkpt>
      <trkpt lat="38.012802" lon="-1.168683">
        <ele>135.492</ele>
        <time>2017-03-18T17:33:55Z</time>
      </trkpt>
      <trkpt lat="38.012716" lon="-1.168591">
        <ele>135.173</ele>
        <time>2017-03-18T17:33:58Z</time>
      </trkpt>
      <trkpt lat="38.012620" lon="-1.168525">
        <ele>134.420</ele>
        <time>2017-03-18T17:34:02Z</time>
      </trkpt>
      <trkpt lat="38.012506" lon="-1.168565">
        <ele>134.008</ele>
        <time>2017-03-18T17:34:06Z</time>
      </trkpt>
      <trkpt lat="38.012415" lon="-1.168617">
        <ele>134.130</ele>
        <time>2017-03-18T17:34:10Z</time>
      </trkpt>
      <trkpt lat="38.012322" lon="-1.168674">
        <ele>134.055</ele>
        <time>2017-03-18T17:34:15Z</time>
      </trkpt>
      <trkpt lat="38.012228" lon="-1.168668">
        <ele>134.087</ele>
        <time>2017-03-18T17:34:19Z</time>
      </trkpt>
      <trkpt lat="38.012147" lon="-1.168720">
        <ele>134.172</ele>
        <time>2017-03-18T17:34:33Z</time>
      </trkpt>
      <trkpt lat="38.012050" lon="-1.168671">
        <ele>134.720</ele>
        <time>2017-03-18T17:35:14Z</time>
      </trkpt>
      <trkpt lat="38.011965" lon="-1.168608">
        <ele>134.364</ele>
        <time>2017-03-18T17:35:21Z</time>
      </trkpt>
      <trkpt lat="38.011912" lon="-1.168502">
        <ele>134.570</ele>
        <time>2017-03-18T17:35:29Z</time>
      </trkpt>
      <trkpt lat="38.011896" lon="-1.168390">
        <ele>134.930</ele>
        <time>2017-03-18T17:35:35Z</time>
      </trkpt>
      <trkpt lat="38.011788" lon="-1.168366">
        <ele>135.021</ele>
        <time>2017-03-18T17:35:40Z</time>
      </trkpt>
      <trkpt lat="38.011693" lon="-1.168358">
        <ele>135.241</ele>
        <time>2017-03-18T17:35:47Z</time>
      </trkpt>
      <trkpt lat="38.011628" lon="-1.168257">
        <ele>135.705</ele>
        <time>2017-03-18T17:36:20Z</time>
      </trkpt>
      <trkpt lat="38.011612" lon="-1.168137">
        <ele>135.808</ele>
        <time>2017-03-18T17:36:23Z</time>
      </trkpt>
      <trkpt lat="38.011600" lon="-1.168023">
        <ele>136.053</ele>
        <time>2017-03-18T17:36:26Z</time>
      </trkpt>
      <trkpt lat="38.011593" lon="-1.167905">
        <ele>136.118</ele>
        <time>2017-03-18T17:36:29Z</time>
      </trkpt>
      <trkpt lat="38.011587" lon="-1.167789">
        <ele>136.280</ele>
        <time>2017-03-18T17:36:32Z</time>
      </trkpt>
      <trkpt lat="38.011580" lon="-1.167658">
        <ele>136.285</ele>
        <time>2017-03-18T17:36:35Z</time>
      </trkpt>
      <trkpt lat="38.011565" lon="-1.167503">
        <ele>135.243</ele>
        <time>2017-03-18T17:36:38Z</time>
      </trkpt>
      <trkpt lat="38.011548" lon="-1.167340">
        <ele>133.657</ele>
        <time>2017-03-18T17:36:41Z</time>
      </trkpt>
      <trkpt lat="38.011532" lon="-1.167177">
        <ele>132.693</ele>
        <time>2017-03-18T17:36:44Z</time>
      </trkpt>
      <trkpt lat="38.011514" lon="-1.167057">
        <ele>131.883</ele>
        <time>2017-03-18T17:36:46Z</time>
      </trkpt>
      <trkpt lat="38.011500" lon="-1.166937">
        <ele>131.165</ele>
        <time>2017-03-18T17:36:48Z</time>
      </trkpt>
      <trkpt lat="38.011487" lon="-1.166819">
        <ele>130.468</ele>
        <time>2017-03-18T17:36:50Z</time>
      </trkpt>
      <trkpt lat="38.011574" lon="-1.166744">
        <ele>130.014</ele>
        <time>2017-03-18T17:36:53Z</time>
      </trkpt>
      <trkpt lat="38.011656" lon="-1.166825">
        <ele>129.908</ele>
        <time>2017-03-18T17:36:58Z</time>
      </trkpt>
      <trkpt lat="38.011719" lon="-1.166935">
        <ele>130.077</ele>
        <time>2017-03-18T17:37:02Z</time>
      </trkpt>
      <trkpt lat="38.011822" lon="-1.166987">
        <ele>130.522</ele>
        <time>2017-03-18T17:37:06Z</time>
      </trkpt>
      <trkpt lat="38.011918" lon="-1.166989">
        <ele>131.094</ele>
        <time>2017-03-18T17:37:09Z</time>
      </trkpt>
      <trkpt lat="38.012042" lon="-1.166945">
        <ele>135.499</ele>
        <time>2017-03-18T17:37:12Z</time>
      </trkpt>
      <trkpt lat="38.012119" lon="-1.166877">
        <ele>136.967</ele>
        <time>2017-03-18T17:37:14Z</time>
      </trkpt>
      <trkpt lat="38.012209" lon="-1.166823">
        <ele>137.711</ele>
        <time>2017-03-18T17:37:16Z</time>
      </trkpt>
      <trkpt lat="38.012313" lon="-1.166800">
        <ele>137.767</ele>
        <time>2017-03-18T17:37:18Z</time>
      </trkpt>
      <trkpt lat="38.012413" lon="-1.166791">
        <ele>137.687</ele>
        <time>2017-03-18T17:37:19Z</time>
      </trkpt>
      <trkpt lat="38.012458" lon="-1.166659">
        <ele>137.561</ele>
        <time>2017-03-18T17:37:22Z</time>
      </trkpt>
      <trkpt lat="38.012424" lon="-1.166526">
        <ele>137.221</ele>
        <time>2017-03-18T17:37:25Z</time>
      </trkpt>
      <trkpt lat="38.012383" lon="-1.166416">
        <ele>136.613</ele>
        <time>2017-03-18T17:37:29Z</time>
      </trkpt>
      <trkpt lat="38.012268" lon="-1.166405">
        <ele>135.908</ele>
        <time>2017-03-18T17:37:33Z</time>
      </trkpt>
      <trkpt lat="38.012170" lon="-1.166314">
        <ele>133.957</ele>
        <time>2017-03-18T17:37:37Z</time>
      </trkpt>
      <trkpt lat="38.012163" lon="-1.166180">
        <ele>132.862</ele>
        <time>2017-03-18T17:37:40Z</time>
      </trkpt>
      <trkpt lat="38.012204" lon="-1.166062">
        <ele>132.284</ele>
        <time>2017-03-18T17:37:45Z</time>
      </trkpt>
      <trkpt lat="38.012125" lon="-1.165973">
        <ele>129.869</ele>
        <time>2017-03-18T17:38:01Z</time>
      </trkpt>
      <trkpt lat="38.012052" lon="-1.165902">
        <ele>129.127</ele>
        <time>2017-03-18T17:38:05Z</time>
      </trkpt>
      <trkpt lat="38.011962" lon="-1.165954">
        <ele>128.861</ele>
        <time>2017-03-18T17:38:09Z</time>
      </trkpt>
      <trkpt lat="38.011878" lon="-1.166016">
        <ele>129.137</ele>
        <time>2017-03-18T17:38:14Z</time>
      </trkpt>
      <trkpt lat="38.011776" lon="-1.166066">
        <ele>129.657</ele>
        <time>2017-03-18T17:38:18Z</time>
      </trkpt>
      <trkpt lat="38.011682" lon="-1.166122">
        <ele>130.029</ele>
        <time>2017-03-18T17:38:22Z</time>
      </trkpt>
      <trkpt lat="38.011583" lon="-1.166152">
        <ele>130.200</ele>
        <time>2017-03-18T17:38:26Z</time>
      </trkpt>
      <trkpt lat="38.011474" lon="-1.166176">
        <ele>130.220</ele>
        <time>2017-03-18T17:38:29Z</time>
      </trkpt>
      <trkpt lat="38.011369" lon="-1.166180">
        <ele>130.308</ele>
        <time>2017-03-18T17:38:33Z</time>
      </trkpt>
      <trkpt lat="38.011267" lon="-1.166167">
        <ele>130.353</ele>
        <time>2017-03-18T17:38:37Z</time>
      </trkpt>
      <trkpt lat="38.011172" lon="-1.166143">
        <ele>130.548</ele>
        <time>2017-03-18T17:38:41Z</time>
      </trkpt>
      <trkpt lat="38.011088" lon="-1.166098">
        <ele>130.710</ele>
        <time>2017-03-18T17:38:45Z</time>
      </trkpt>
      <trkpt lat="38.010978" lon="-1.166043">
        <ele>130.955</ele>
        <time>2017-03-18T17:38:49Z</time>
      </trkpt>
      <trkpt lat="38.010887" lon="-1.165997">
        <ele>131.053</ele>
        <time>2017-03-18T17:38:52Z</time>
      </trkpt>
      <trkpt lat="38.010793" lon="-1.165956">
        <ele>131.147</ele>
        <time>2017-03-18T17:38:55Z</time>
      </trkpt>
      <trkpt lat="38.010688" lon="-1.165908">
        <ele>131.253</ele>
        <time>2017-03-18T17:38:58Z</time>
      </trkpt>
      <trkpt lat="38.010592" lon="-1.165863">
        <ele>131.493</ele>
        <time>2017-03-18T17:39:01Z</time>
      </trkpt>
      <trkpt lat="38.010505" lon="-1.165827">
        <ele>131.855</ele>
        <time>2017-03-18T17:39:04Z</time>
      </trkpt>
      <trkpt lat="38.010395" lon="-1.165775">
        <ele>132.107</ele>
        <time>2017-03-18T17:39:08Z</time>
      </trkpt>
      <trkpt lat="38.010285" lon="-1.165716">
        <ele>133.317</ele>
        <time>2017-03-18T17:39:11Z</time>
      </trkpt>
      <trkpt lat="38.010176" lon="-1.165664">
        <ele>134.108</ele>
        <time>2017-03-18T17:39:14Z</time>
      </trkpt>
      <trkpt lat="38.010056" lon="-1.165609">
        <ele>133.876</ele>
        <time>2017-03-18T17:39:17Z</time>
      </trkpt>
      <trkpt lat="38.009941" lon="-1.165553">
        <ele>133.751</ele>
        <time>2017-03-18T17:39:20Z</time>
      </trkpt>
      <trkpt lat="38.009826" lon="-1.165497">
        <ele>133.773</ele>
        <time>2017-03-18T17:39:24Z</time>
      </trkpt>
      <trkpt lat="38.009720" lon="-1.165446">
        <ele>133.368</ele>
        <time>2017-03-18T17:39:27Z</time>
      </trkpt>
      <trkpt lat="38.009623" lon="-1.165404">
        <ele>130.586</ele>
        <time>2017-03-18T17:39:30Z</time>
      </trkpt>
      <trkpt lat="38.009498" lon="-1.165354">
        <ele>128.440</ele>
        <time>2017-03-18T17:39:33Z</time>
      </trkpt>
      <trkpt lat="38.009379" lon="-1.165313">
        <ele>128.446</ele>
        <time>2017-03-18T17:39:36Z</time>
      </trkpt>
      <trkpt lat="38.009256" lon="-1.165276">
        <ele>128.986</ele>
        <time>2017-03-18T17:39:39Z</time>
      </trkpt>
      <trkpt lat="38.009138" lon="-1.165254">
        <ele>128.927</ele>
        <time>2017-03-18T17:39:42Z</time>
      </trkpt>
      <trkpt lat="38.009014" lon="-1.165238">
        <ele>128.968</ele>
        <time>2017-03-18T17:39:45Z</time>
      </trkpt>
      <trkpt lat="38.008883" lon="-1.165224">
        <ele>129.014</ele>
        <time>2017-03-18T17:39:47Z</time>
      </trkpt>
      <trkpt lat="38.008788" lon="-1.165216">
        <ele>129.508</ele>
        <time>2017-03-18T17:39:49Z</time>
      </trkpt>
      <trkpt lat="38.008654" lon="-1.165216">
        <ele>130.173</ele>
        <time>2017-03-18T17:39:52Z</time>
      </trkpt>
      <trkpt lat="38.008557" lon="-1.165222">
        <ele>130.388</ele>
        <time>2017-03-18T17:39:54Z</time>
      </trkpt>
      <trkpt lat="38.008457" lon="-1.165226">
        <ele>130.180</ele>
        <time>2017-03-18T17:39:56Z</time>
      </trkpt>
      <trkpt lat="38.008352" lon="-1.165243">
        <ele>129.735</ele>
        <time>2017-03-18T17:39:58Z</time>
      </trkpt>
      <trkpt lat="38.008240" lon="-1.165264">
        <ele>129.343</ele>
        <time>2017-03-18T17:40:00Z</time>
      </trkpt>
      <trkpt lat="38.008124" lon="-1.165284">
        <ele>128.877</ele>
        <time>2017-03-18T17:40:02Z</time>
      </trkpt>
      <trkpt lat="38.008009" lon="-1.165326">
        <ele>128.443</ele>
        <time>2017-03-18T17:40:04Z</time>
      </trkpt>
      <trkpt lat="38.007886" lon="-1.165363">
        <ele>127.873</ele>
        <time>2017-03-18T17:40:06Z</time>
      </trkpt>
      <trkpt lat="38.007758" lon="-1.165421">
        <ele>127.093</ele>
        <time>2017-03-18T17:40:08Z</time>
      </trkpt>
      <trkpt lat="38.007623" lon="-1.165485">
        <ele>126.465</ele>
        <time>2017-03-18T17:40:10Z</time>
      </trkpt>
      <trkpt lat="38.007485" lon="-1.165560">
        <ele>125.921</ele>
        <time>2017-03-18T17:40:12Z</time>
      </trkpt>
      <trkpt lat="38.007347" lon="-1.165650">
        <ele>125.008</ele>
        <time>2017-03-18T17:40:14Z</time>
      </trkpt>
      <trkpt lat="38.007204" lon="-1.165752">
        <ele>123.180</ele>
        <time>2017-03-18T17:40:16Z</time>
      </trkpt>
      <trkpt lat="38.007062" lon="-1.165860">
        <ele>120.985</ele>
        <time>2017-03-18T17:40:18Z</time>
      </trkpt>
      <trkpt lat="38.006917" lon="-1.165973">
        <ele>118.957</ele>
        <time>2017-03-18T17:40:20Z</time>
      </trkpt>
      <trkpt lat="38.006772" lon="-1.166092">
        <ele>117.462</ele>
        <time>2017-03-18T17:40:22Z</time>
      </trkpt>
      <trkpt lat="38.006638" lon="-1.166211">
        <ele>116.550</ele>
        <time>2017-03-18T17:40:24Z</time>
      </trkpt>
      <trkpt lat="38.006519" lon="-1.166320">
        <ele>115.714</ele>
        <time>2017-03-18T17:40:26Z</time>
      </trkpt>
      <trkpt lat="38.006422" lon="-1.166420">
        <ele>115.460</ele>
        <time>2017-03-18T17:40:28Z</time>
      </trkpt>
      <trkpt lat="38.006348" lon="-1.166500">
        <ele>116.120</ele>
        <time>2017-03-18T17:40:30Z</time>
      </trkpt>
      <trkpt lat="38.006280" lon="-1.166577">
        <ele>116.925</ele>
        <time>2017-03-18T17:40:32Z</time>
      </trkpt>
      <trkpt lat="38.006191" lon="-1.166682">
        <ele>117.626</ele>
        <time>2017-03-18T17:40:35Z</time>
      </trkpt>
      <trkpt lat="38.006114" lon="-1.166778">
        <ele>117.708</ele>
        <time>2017-03-18T17:40:38Z</time>
      </trkpt>
      <trkpt lat="38.006042" lon="-1.166856">
        <ele>118.008</ele>
        <time>2017-03-18T17:40:41Z</time>
      </trkpt>
      <trkpt lat="38.005955" lon="-1.166960">
        <ele>118.633</ele>
        <time>2017-03-18T17:40:45Z</time>
      </trkpt>
      <trkpt lat="38.005885" lon="-1.167051">
        <ele>119.198</ele>
        <time>2017-03-18T17:40:49Z</time>
      </trkpt>
      <trkpt lat="38.005818" lon="-1.167137">
        <ele>119.620</ele>
        <time>2017-03-18T17:40:52Z</time>
      </trkpt>
      <trkpt lat="38.005746" lon="-1.167237">
        <ele>122.755</ele>
        <time>2017-03-18T17:40:55Z</time>
      </trkpt>
      <trkpt lat="38.005684" lon="-1.167321">
        <ele>123.183</ele>
        <time>2017-03-18T17:40:58Z</time>
      </trkpt>
      <trkpt lat="38.005623" lon="-1.167416">
        <ele>123.517</ele>
        <time>2017-03-18T17:41:01Z</time>
      </trkpt>
      <trkpt lat="38.005558" lon="-1.167515">
        <ele>124.093</ele>
        <time>2017-03-18T17:41:04Z</time>
      </trkpt>
      <trkpt lat="38.005489" lon="-1.167637">
        <ele>124.693</ele>
        <time>2017-03-18T17:41:07Z</time>
      </trkpt>
      <trkpt lat="38.005433" lon="-1.167754">
        <ele>125.256</ele>
        <time>2017-03-18T17:41:11Z</time>
      </trkpt>
      <trkpt lat="38.005379" lon="-1.167861">
        <ele>125.859</ele>
        <time>2017-03-18T17:41:15Z</time>
      </trkpt>
      <trkpt lat="38.005321" lon="-1.167966">
        <ele>126.214</ele>
        <time>2017-03-18T17:41:19Z</time>
      </trkpt>
      <trkpt lat="38.005271" lon="-1.168068">
        <ele>126.308</ele>
        <time>2017-03-18T17:41:22Z</time>
      </trkpt>
      <trkpt lat="38.005214" lon="-1.168177">
        <ele>126.366</ele>
        <time>2017-03-18T17:41:25Z</time>
      </trkpt>
      <trkpt lat="38.005144" lon="-1.168300">
        <ele>126.541</ele>
        <time>2017-03-18T17:41:28Z</time>
      </trkpt>
      <trkpt lat="38.005090" lon="-1.168392">
        <ele>126.883</ele>
        <time>2017-03-18T17:41:30Z</time>
      </trkpt>
      <trkpt lat="38.005030" lon="-1.168502">
        <ele>126.968</ele>
        <time>2017-03-18T17:41:32Z</time>
      </trkpt>
      <trkpt lat="38.004965" lon="-1.168626">
        <ele>126.596</ele>
        <time>2017-03-18T17:41:34Z</time>
      </trkpt>
      <trkpt lat="38.004892" lon="-1.168762">
        <ele>125.390</ele>
        <time>2017-03-18T17:41:36Z</time>
      </trkpt>
      <trkpt lat="38.004825" lon="-1.168896">
        <ele>124.166</ele>
        <time>2017-03-18T17:41:38Z</time>
      </trkpt>
      <trkpt lat="38.004764" lon="-1.169009">
        <ele>123.226</ele>
        <time>2017-03-18T17:41:40Z</time>
      </trkpt>
      <trkpt lat="38.004709" lon="-1.169108">
        <ele>122.485</ele>
        <time>2017-03-18T17:41:42Z</time>
      </trkpt>
      <trkpt lat="38.004655" lon="-1.169210">
        <ele>121.789</ele>
        <time>2017-03-18T17:41:44Z</time>
      </trkpt>
      <trkpt lat="38.004588" lon="-1.169326">
        <ele>120.917</ele>
        <time>2017-03-18T17:41:46Z</time>
      </trkpt>
      <trkpt lat="38.004520" lon="-1.169444">
        <ele>120.008</ele>
        <time>2017-03-18T17:41:48Z</time>
      </trkpt>
      <trkpt lat="38.004451" lon="-1.169568">
        <ele>119.139</ele>
        <time>2017-03-18T17:41:50Z</time>
      </trkpt>
      <trkpt lat="38.004382" lon="-1.169692">
        <ele>118.294</ele>
        <time>2017-03-18T17:41:52Z</time>
      </trkpt>
      <trkpt lat="38.004317" lon="-1.169817">
        <ele>117.586</ele>
        <time>2017-03-18T17:41:54Z</time>
      </trkpt>
      <trkpt lat="38.004249" lon="-1.169946">
        <ele>116.731</ele>
        <time>2017-03-18T17:41:56Z</time>
      </trkpt>
      <trkpt lat="38.004183" lon="-1.170067">
        <ele>116.249</ele>
        <time>2017-03-18T17:41:59Z</time>
      </trkpt>
      <trkpt lat="38.004118" lon="-1.170188">
        <ele>115.983</ele>
        <time>2017-03-18T17:42:01Z</time>
      </trkpt>
      <trkpt lat="38.004055" lon="-1.170301">
        <ele>116.039</ele>
        <time>2017-03-18T17:42:03Z</time>
      </trkpt>
      <trkpt lat="38.003995" lon="-1.170406">
        <ele>117.089</ele>
        <time>2017-03-18T17:42:05Z</time>
      </trkpt>
      <trkpt lat="38.003936" lon="-1.170500">
        <ele>117.884</ele>
        <time>2017-03-18T17:42:07Z</time>
      </trkpt>
      <trkpt lat="38.003883" lon="-1.170605">
        <ele>117.107</ele>
        <time>2017-03-18T17:42:09Z</time>
      </trkpt>
      <trkpt lat="38.003830" lon="-1.170717">
        <ele>115.417</ele>
        <time>2017-03-18T17:42:11Z</time>
      </trkpt>
      <trkpt lat="38.003784" lon="-1.170824">
        <ele>113.508</ele>
        <time>2017-03-18T17:42:13Z</time>
      </trkpt>
      <trkpt lat="38.003741" lon="-1.170926">
        <ele>112.189</ele>
        <time>2017-03-18T17:42:15Z</time>
      </trkpt>
      <trkpt lat="38.003682" lon="-1.171061">
        <ele>111.454</ele>
        <time>2017-03-18T17:42:17Z</time>
      </trkpt>
      <trkpt lat="38.003624" lon="-1.171189">
        <ele>112.156</ele>
        <time>2017-03-18T17:42:20Z</time>
      </trkpt>
      <trkpt lat="38.003567" lon="-1.171322">
        <ele>112.781</ele>
        <time>2017-03-18T17:42:23Z</time>
      </trkpt>
      <trkpt lat="38.003506" lon="-1.171459">
        <ele>112.779</ele>
        <time>2017-03-18T17:42:26Z</time>
      </trkpt>
      <trkpt lat="38.003448" lon="-1.171600">
        <ele>112.383</ele>
        <time>2017-03-18T17:42:29Z</time>
      </trkpt>
      <trkpt lat="38.003397" lon="-1.171745">
        <ele>111.299</ele>
        <time>2017-03-18T17:42:32Z</time>
      </trkpt>
      <trkpt lat="38.003348" lon="-1.171884">
        <ele>110.389</ele>
        <time>2017-03-18T17:42:35Z</time>
      </trkpt>
      <trkpt lat="38.003294" lon="-1.172030">
        <ele>109.639</ele>
        <time>2017-03-18T17:42:38Z</time>
      </trkpt>
      <trkpt lat="38.003243" lon="-1.172173">
        <ele>109.301</ele>
        <time>2017-03-18T17:42:41Z</time>
      </trkpt>
      <trkpt lat="38.003190" lon="-1.172317">
        <ele>109.521</ele>
        <time>2017-03-18T17:42:44Z</time>
      </trkpt>
      <trkpt lat="38.003146" lon="-1.172462">
        <ele>110.408</ele>
        <time>2017-03-18T17:42:47Z</time>
      </trkpt>
      <trkpt lat="38.003106" lon="-1.172607">
        <ele>111.064</ele>
        <time>2017-03-18T17:42:50Z</time>
      </trkpt>
      <trkpt lat="38.003069" lon="-1.172747">
        <ele>112.969</ele>
        <time>2017-03-18T17:42:53Z</time>
      </trkpt>
      <trkpt lat="38.003018" lon="-1.172906">
        <ele>115.371</ele>
        <time>2017-03-18T17:42:56Z</time>
      </trkpt>
      <trkpt lat="38.002985" lon="-1.173018">
        <ele>115.966</ele>
        <time>2017-03-18T17:42:58Z</time>
      </trkpt>
      <trkpt lat="38.002950" lon="-1.173134">
        <ele>116.194</ele>
        <time>2017-03-18T17:43:00Z</time>
      </trkpt>
      <trkpt lat="38.002917" lon="-1.173262">
        <ele>116.118</ele>
        <time>2017-03-18T17:43:03Z</time>
      </trkpt>
      <trkpt lat="38.002857" lon="-1.173398">
        <ele>116.114</ele>
        <time>2017-03-18T17:43:18Z</time>
      </trkpt>
      <trkpt lat="38.002760" lon="-1.173409">
        <ele>116.394</ele>
        <time>2017-03-18T17:43:20Z</time>
      </trkpt>
      <trkpt lat="38.002653" lon="-1.173387">
        <ele>115.246</ele>
        <time>2017-03-18T17:43:23Z</time>
      </trkpt>
      <trkpt lat="38.002583" lon="-1.173511">
        <ele>114.988</ele>
        <time>2017-03-18T17:43:26Z</time>
      </trkpt>
      <trkpt lat="38.002521" lon="-1.173634">
        <ele>115.516</ele>
        <time>2017-03-18T17:43:29Z</time>
      </trkpt>
      <trkpt lat="38.002421" lon="-1.173736">
        <ele>117.608</ele>
        <time>2017-03-18T17:43:32Z</time>
      </trkpt>
      <trkpt lat="38.002305" lon="-1.173769">
        <ele>118.985</ele>
        <time>2017-03-18T17:43:35Z</time>
      </trkpt>
      <trkpt lat="38.002179" lon="-1.173714">
        <ele>119.840</ele>
        <time>2017-03-18T17:43:38Z</time>
      </trkpt>
      <trkpt lat="38.002104" lon="-1.173646">
        <ele>119.742</ele>
        <time>2017-03-18T17:43:40Z</time>
      </trkpt>
      <trkpt lat="38.002000" lon="-1.173581">
        <ele>114.437</ele>
        <time>2017-03-18T17:43:42Z</time>
      </trkpt>
      <trkpt lat="38.001917" lon="-1.173519">
        <ele>111.295</ele>
        <time>2017-03-18T17:43:44Z</time>
      </trkpt>
      <trkpt lat="38.001832" lon="-1.173446">
        <ele>108.969</ele>
        <time>2017-03-18T17:43:46Z</time>
      </trkpt>
      <trkpt lat="38.001743" lon="-1.173362">
        <ele>107.815</ele>
        <time>2017-03-18T17:43:48Z</time>
      </trkpt>
      <trkpt lat="38.001671" lon="-1.173253">
        <ele>107.445</ele>
        <time>2017-03-18T17:43:50Z</time>
      </trkpt>
      <trkpt lat="38.001652" lon="-1.173111">
        <ele>107.246</ele>
        <time>2017-03-18T17:43:52Z</time>
      </trkpt>
      <trkpt lat="38.001649" lon="-1.172974">
        <ele>107.288</ele>
        <time>2017-03-18T17:43:54Z</time>
      </trkpt>
      <trkpt lat="38.001643" lon="-1.172833">
        <ele>107.316</ele>
        <time>2017-03-18T17:43:56Z</time>
      </trkpt>
      <trkpt lat="38.001630" lon="-1.172689">
        <ele>107.608</ele>
        <time>2017-03-18T17:43:58Z</time>
      </trkpt>
      <trkpt lat="38.001613" lon="-1.172538">
        <ele>107.265</ele>
        <time>2017-03-18T17:44:00Z</time>
      </trkpt>
      <trkpt lat="38.001601" lon="-1.172394">
        <ele>106.820</ele>
        <time>2017-03-18T17:44:02Z</time>
      </trkpt>
      <trkpt lat="38.001594" lon="-1.172249">
        <ele>106.212</ele>
        <time>2017-03-18T17:44:04Z</time>
      </trkpt>
      <trkpt lat="38.001584" lon="-1.172105">
        <ele>105.857</ele>
        <time>2017-03-18T17:44:06Z</time>
      </trkpt>
      <trkpt lat="38.001572" lon="-1.171961">
        <ele>105.535</ele>
        <time>2017-03-18T17:44:08Z</time>
      </trkpt>
      <trkpt lat="38.001560" lon="-1.171821">
        <ele>105.479</ele>
        <time>2017-03-18T17:44:10Z</time>
      </trkpt>
      <trkpt lat="38.001542" lon="-1.171684">
        <ele>105.335</ele>
        <time>2017-03-18T17:44:12Z</time>
      </trkpt>
      <trkpt lat="38.001520" lon="-1.171550">
        <ele>105.035</ele>
        <time>2017-03-18T17:44:14Z</time>
      </trkpt>
      <trkpt lat="38.001501" lon="-1.171422">
        <ele>104.954</ele>
        <time>2017-03-18T17:44:16Z</time>
      </trkpt>
      <trkpt lat="38.001491" lon="-1.171298">
        <ele>104.756</ele>
        <time>2017-03-18T17:44:18Z</time>
      </trkpt>
      <trkpt lat="38.001483" lon="-1.171174">
        <ele>104.611</ele>
        <time>2017-03-18T17:44:20Z</time>
      </trkpt>
      <trkpt lat="38.001472" lon="-1.171051">
        <ele>104.508</ele>
        <time>2017-03-18T17:44:22Z</time>
      </trkpt>
      <trkpt lat="38.001460" lon="-1.170936">
        <ele>104.366</ele>
        <time>2017-03-18T17:44:24Z</time>
      </trkpt>
      <trkpt lat="38.001451" lon="-1.170821">
        <ele>104.181</ele>
        <time>2017-03-18T17:44:26Z</time>
      </trkpt>
      <trkpt lat="38.001463" lon="-1.170705">
        <ele>104.073</ele>
        <time>2017-03-18T17:44:28Z</time>
      </trkpt>
      <trkpt lat="38.001484" lon="-1.170587">
        <ele>104.128</ele>
        <time>2017-03-18T17:44:30Z</time>
      </trkpt>
      <trkpt lat="38.001507" lon="-1.170472">
        <ele>104.516</ele>
        <time>2017-03-18T17:44:32Z</time>
      </trkpt>
      <trkpt lat="38.001529" lon="-1.170354">
        <ele>104.820</ele>
        <time>2017-03-18T17:44:34Z</time>
      </trkpt>
      <trkpt lat="38.001555" lon="-1.170215">
        <ele>104.826</ele>
        <time>2017-03-18T17:44:38Z</time>
      </trkpt>
      <trkpt lat="38.001582" lon="-1.170073">
        <ele>104.996</ele>
        <time>2017-03-18T17:44:41Z</time>
      </trkpt>
      <trkpt lat="38.001613" lon="-1.169937">
        <ele>105.246</ele>
        <time>2017-03-18T17:44:44Z</time>
      </trkpt>
      <trkpt lat="38.001647" lon="-1.169784">
        <ele>106.188</ele>
        <time>2017-03-18T17:44:47Z</time>
      </trkpt>
      <trkpt lat="38.001680" lon="-1.169635">
        <ele>106.916</ele>
        <time>2017-03-18T17:44:50Z</time>
      </trkpt>
      <trkpt lat="38.001711" lon="-1.169491">
        <ele>107.508</ele>
        <time>2017-03-18T17:44:52Z</time>
      </trkpt>
      <trkpt lat="38.001743" lon="-1.169345">
        <ele>108.465</ele>
        <time>2017-03-18T17:44:55Z</time>
      </trkpt>
      <trkpt lat="38.001780" lon="-1.169191">
        <ele>109.380</ele>
        <time>2017-03-18T17:44:58Z</time>
      </trkpt>
      <trkpt lat="38.001816" lon="-1.169048">
        <ele>110.152</ele>
        <time>2017-03-18T17:45:01Z</time>
      </trkpt>
      <trkpt lat="38.001850" lon="-1.168906">
        <ele>110.337</ele>
        <time>2017-03-18T17:45:04Z</time>
      </trkpt>
      <trkpt lat="38.001879" lon="-1.168742">
        <ele>109.665</ele>
        <time>2017-03-18T17:45:07Z</time>
      </trkpt>
      <trkpt lat="38.001886" lon="-1.168628">
        <ele>108.779</ele>
        <time>2017-03-18T17:45:09Z</time>
      </trkpt>
      <trkpt lat="38.001877" lon="-1.168466">
        <ele>107.585</ele>
        <time>2017-03-18T17:45:12Z</time>
      </trkpt>
      <trkpt lat="38.001854" lon="-1.168320">
        <ele>106.145</ele>
        <time>2017-03-18T17:45:15Z</time>
      </trkpt>
      <trkpt lat="38.001798" lon="-1.168193">
        <ele>105.655</ele>
        <time>2017-03-18T17:45:18Z</time>
      </trkpt>
      <trkpt lat="38.001716" lon="-1.168102">
        <ele>105.507</ele>
        <time>2017-03-18T17:45:23Z</time>
      </trkpt>
      <trkpt lat="38.001638" lon="-1.168026">
        <ele>105.317</ele>
        <time>2017-03-18T17:45:27Z</time>
      </trkpt>
      <trkpt lat="38.001558" lon="-1.167969">
        <ele>105.208</ele>
        <time>2017-03-18T17:45:30Z</time>
      </trkpt>
      <trkpt lat="38.001474" lon="-1.167900">
        <ele>105.146</ele>
        <time>2017-03-18T17:45:33Z</time>
      </trkpt>
      <trkpt lat="38.001371" lon="-1.167849">
        <ele>104.791</ele>
        <time>2017-03-18T17:45:36Z</time>
      </trkpt>
      <trkpt lat="38.001268" lon="-1.167788">
        <ele>105.393</ele>
        <time>2017-03-18T17:45:39Z</time>
      </trkpt>
      <trkpt lat="38.001159" lon="-1.167721">
        <ele>106.518</ele>
        <time>2017-03-18T17:45:42Z</time>
      </trkpt>
      <trkpt lat="38.001050" lon="-1.167665">
        <ele>107.126</ele>
        <time>2017-03-18T17:45:46Z</time>
      </trkpt>
      <trkpt lat="38.000962" lon="-1.167631">
        <ele>107.270</ele>
        <time>2017-03-18T17:45:49Z</time>
      </trkpt>
      <trkpt lat="38.001072" lon="-1.167677">
        <ele>107.336</ele>
        <time>2017-03-18T17:46:02Z</time>
      </trkpt>
      <trkpt lat="38.001156" lon="-1.167729">
        <ele>107.246</ele>
        <time>2017-03-18T17:46:05Z</time>
      </trkpt>
      <trkpt lat="38.001244" lon="-1.167781">
        <ele>107.273</ele>
        <time>2017-03-18T17:46:08Z</time>
      </trkpt>
      <trkpt lat="38.001337" lon="-1.167840">
        <ele>107.285</ele>
        <time>2017-03-18T17:46:10Z</time>
      </trkpt>
      <trkpt lat="38.001425" lon="-1.167896">
        <ele>107.113</ele>
        <time>2017-03-18T17:46:13Z</time>
      </trkpt>
      <trkpt lat="38.001516" lon="-1.167954">
        <ele>107.108</ele>
        <time>2017-03-18T17:46:16Z</time>
      </trkpt>
      <trkpt lat="38.001592" lon="-1.168040">
        <ele>107.068</ele>
        <time>2017-03-18T17:46:20Z</time>
      </trkpt>
      <trkpt lat="38.001681" lon="-1.168069">
        <ele>106.953</ele>
        <time>2017-03-18T17:46:27Z</time>
      </trkpt>
      <trkpt lat="38.001782" lon="-1.168015">
        <ele>107.055</ele>
        <time>2017-03-18T17:46:30Z</time>
      </trkpt>
      <trkpt lat="38.001881" lon="-1.167962">
        <ele>107.150</ele>
        <time>2017-03-18T17:46:33Z</time>
      </trkpt>
      <trkpt lat="38.001994" lon="-1.167894">
        <ele>108.528</ele>
        <time>2017-03-18T17:46:36Z</time>
      </trkpt>
      <trkpt lat="38.002092" lon="-1.167855">
        <ele>109.592</ele>
        <time>2017-03-18T17:46:38Z</time>
      </trkpt>
      <trkpt lat="38.002186" lon="-1.167805">
        <ele>109.898</ele>
        <time>2017-03-18T17:46:40Z</time>
      </trkpt>
      <trkpt lat="38.002272" lon="-1.167754">
        <ele>110.118</ele>
        <time>2017-03-18T17:46:42Z</time>
      </trkpt>
      <trkpt lat="38.002363" lon="-1.167701">
        <ele>111.428</ele>
        <time>2017-03-18T17:46:45Z</time>
      </trkpt>
      <trkpt lat="38.002469" lon="-1.167624">
        <ele>113.089</ele>
        <time>2017-03-18T17:46:48Z</time>
      </trkpt>
      <trkpt lat="38.002552" lon="-1.167567">
        <ele>113.917</ele>
        <time>2017-03-18T17:46:50Z</time>
      </trkpt>
      <trkpt lat="38.002636" lon="-1.167502">
        <ele>114.308</ele>
        <time>2017-03-18T17:46:52Z</time>
      </trkpt>
      <trkpt lat="38.002717" lon="-1.167443">
        <ele>114.463</ele>
        <time>2017-03-18T17:46:54Z</time>
      </trkpt>
      <trkpt lat="38.002798" lon="-1.167382">
        <ele>114.428</ele>
        <time>2017-03-18T17:46:56Z</time>
      </trkpt>
      <trkpt lat="38.002910" lon="-1.167301">
        <ele>114.610</ele>
        <time>2017-03-18T17:46:59Z</time>
      </trkpt>
      <trkpt lat="38.003016" lon="-1.167222">
        <ele>115.075</ele>
        <time>2017-03-18T17:47:03Z</time>
      </trkpt>
      <trkpt lat="38.003122" lon="-1.167139">
        <ele>115.663</ele>
        <time>2017-03-18T17:47:06Z</time>
      </trkpt>
      <trkpt lat="38.003214" lon="-1.167026">
        <ele>114.757</ele>
        <time>2017-03-18T17:47:09Z</time>
      </trkpt>
      <trkpt lat="38.003283" lon="-1.166892">
        <ele>111.933</ele>
        <time>2017-03-18T17:47:12Z</time>
      </trkpt>
      <trkpt lat="38.003358" lon="-1.166754">
        <ele>109.083</ele>
        <time>2017-03-18T17:47:15Z</time>
      </trkpt>
      <trkpt lat="38.003429" lon="-1.166613">
        <ele>106.552</ele>
        <time>2017-03-18T17:47:18Z</time>
      </trkpt>
      <trkpt lat="38.003499" lon="-1.166475">
        <ele>105.153</ele>
        <time>2017-03-18T17:47:21Z</time>
      </trkpt>
      <trkpt lat="38.003566" lon="-1.166335">
        <ele>105.508</ele>
        <time>2017-03-18T17:47:24Z</time>
      </trkpt>
      <trkpt lat="38.003643" lon="-1.166215">
        <ele>107.208</ele>
        <time>2017-03-18T17:47:27Z</time>
      </trkpt>
      <trkpt lat="38.003718" lon="-1.166081">
        <ele>108.236</ele>
        <time>2017-03-18T17:47:29Z</time>
      </trkpt>
      <trkpt lat="38.003789" lon="-1.165947">
        <ele>107.721</ele>
        <time>2017-03-18T17:47:32Z</time>
      </trkpt>
      <trkpt lat="38.003851" lon="-1.165813">
        <ele>107.653</ele>
        <time>2017-03-18T17:47:35Z</time>
      </trkpt>
      <trkpt lat="38.003913" lon="-1.165674">
        <ele>108.288</ele>
        <time>2017-03-18T17:47:38Z</time>
      </trkpt>
      <trkpt lat="38.004001" lon="-1.165558">
        <ele>109.136</ele>
        <time>2017-03-18T17:47:41Z</time>
      </trkpt>
      <trkpt lat="38.004052" lon="-1.165461">
        <ele>109.460</ele>
        <time>2017-03-18T17:47:43Z</time>
      </trkpt>
      <trkpt lat="38.004070" lon="-1.165337">
        <ele>108.726</ele>
        <time>2017-03-18T17:47:45Z</time>
      </trkpt>
      <trkpt lat="38.004017" lon="-1.165225">
        <ele>107.246</ele>
        <time>2017-03-18T17:47:47Z</time>
      </trkpt>
      <trkpt lat="38.003937" lon="-1.165131">
        <ele>106.299</ele>
        <time>2017-03-18T17:47:49Z</time>
      </trkpt>
      <trkpt lat="38.003856" lon="-1.165033">
        <ele>105.407</ele>
        <time>2017-03-18T17:47:51Z</time>
      </trkpt>
      <trkpt lat="38.003781" lon="-1.164929">
        <ele>104.827</ele>
        <time>2017-03-18T17:47:53Z</time>
      </trkpt>
      <trkpt lat="38.003706" lon="-1.164821">
        <ele>104.208</ele>
        <time>2017-03-18T17:47:55Z</time>
      </trkpt>
      <trkpt lat="38.003626" lon="-1.164716">
        <ele>103.860</ele>
        <time>2017-03-18T17:47:57Z</time>
      </trkpt>
      <trkpt lat="38.003545" lon="-1.164612">
        <ele>103.575</ele>
        <time>2017-03-18T17:47:59Z</time>
      </trkpt>
      <trkpt lat="38.003465" lon="-1.164504">
        <ele>103.767</ele>
        <time>2017-03-18T17:48:01Z</time>
      </trkpt>
      <trkpt lat="38.003387" lon="-1.164393">
        <ele>103.832</ele>
        <time>2017-03-18T17:48:03Z</time>
      </trkpt>
      <trkpt lat="38.003312" lon="-1.164282">
        <ele>103.140</ele>
        <time>2017-03-18T17:48:05Z</time>
      </trkpt>
      <trkpt lat="38.003235" lon="-1.164171">
        <ele>102.514</ele>
        <time>2017-03-18T17:48:07Z</time>
      </trkpt>
      <trkpt lat="38.003160" lon="-1.164057">
        <ele>101.850</ele>
        <time>2017-03-18T17:48:09Z</time>
      </trkpt>
      <trkpt lat="38.003085" lon="-1.163945">
        <ele>101.390</ele>
        <time>2017-03-18T17:48:11Z</time>
      </trkpt>
      <trkpt lat="38.003013" lon="-1.163839">
        <ele>100.997</ele>
        <time>2017-03-18T17:48:13Z</time>
      </trkpt>
      <trkpt lat="38.002942" lon="-1.163729">
        <ele>100.523</ele>
        <time>2017-03-18T17:48:15Z</time>
      </trkpt>
      <trkpt lat="38.002871" lon="-1.163612">
        <ele>100.225</ele>
        <time>2017-03-18T17:48:17Z</time>
      </trkpt>
      <trkpt lat="38.002799" lon="-1.163492">
        <ele>100.008</ele>
        <time>2017-03-18T17:48:19Z</time>
      </trkpt>
      <trkpt lat="38.002723" lon="-1.163358">
        <ele>99.850</ele>
        <time>2017-03-18T17:48:21Z</time>
      </trkpt>
      <trkpt lat="38.002647" lon="-1.163211">
        <ele>99.515</ele>
        <time>2017-03-18T17:48:23Z</time>
      </trkpt>
      <trkpt lat="38.002570" lon="-1.163064">
        <ele>99.227</ele>
        <time>2017-03-18T17:48:26Z</time>
      </trkpt>
      <trkpt lat="38.002500" lon="-1.162926">
        <ele>99.022</ele>
        <time>2017-03-18T17:48:28Z</time>
      </trkpt>
      <trkpt lat="38.002438" lon="-1.162793">
        <ele>99.180</ele>
        <time>2017-03-18T17:48:30Z</time>
      </trkpt>
      <trkpt lat="38.002379" lon="-1.162664">
        <ele>99.284</ele>
        <time>2017-03-18T17:48:32Z</time>
      </trkpt>
      <trkpt lat="38.002319" lon="-1.162527">
        <ele>99.420</ele>
        <time>2017-03-18T17:48:34Z</time>
      </trkpt>
      <trkpt lat="38.002259" lon="-1.162396">
        <ele>99.360</ele>
        <time>2017-03-18T17:48:36Z</time>
      </trkpt>
      <trkpt lat="38.002199" lon="-1.162259">
        <ele>99.284</ele>
        <time>2017-03-18T17:48:38Z</time>
      </trkpt>
      <trkpt lat="38.002146" lon="-1.162131">
        <ele>99.007</ele>
        <time>2017-03-18T17:48:40Z</time>
      </trkpt>
      <trkpt lat="38.002088" lon="-1.161993">
        <ele>98.917</ele>
        <time>2017-03-18T17:48:42Z</time>
      </trkpt>
      <trkpt lat="38.002037" lon="-1.161870">
        <ele>98.908</ele>
        <time>2017-03-18T17:48:44Z</time>
      </trkpt>
      <trkpt lat="38.001988" lon="-1.161742">
        <ele>98.719</ele>
        <time>2017-03-18T17:48:46Z</time>
      </trkpt>
      <trkpt lat="38.001946" lon="-1.161608">
        <ele>98.514</ele>
        <time>2017-03-18T17:48:48Z</time>
      </trkpt>
      <trkpt lat="38.001885" lon="-1.161408">
        <ele>98.386</ele>
        <time>2017-03-18T17:48:50Z</time>
      </trkpt>
      <trkpt lat="38.001816" lon="-1.161201">
        <ele>97.631</ele>
        <time>2017-03-18T17:48:53Z</time>
      </trkpt>
      <trkpt lat="38.001772" lon="-1.161071">
        <ele>97.099</ele>
        <time>2017-03-18T17:48:55Z</time>
      </trkpt>
      <trkpt lat="38.001730" lon="-1.160943">
        <ele>96.533</ele>
        <time>2017-03-18T17:48:57Z</time>
      </trkpt>
      <trkpt lat="38.001683" lon="-1.160813">
        <ele>96.229</ele>
        <time>2017-03-18T17:48:59Z</time>
      </trkpt>
      <trkpt lat="38.001635" lon="-1.160682">
        <ele>96.169</ele>
        <time>2017-03-18T17:49:01Z</time>
      </trkpt>
      <trkpt lat="38.001589" lon="-1.160545">
        <ele>95.884</ele>
        <time>2017-03-18T17:49:03Z</time>
      </trkpt>
      <trkpt lat="38.001549" lon="-1.160412">
        <ele>95.807</ele>
        <time>2017-03-18T17:49:05Z</time>
      </trkpt>
      <trkpt lat="38.001508" lon="-1.160269">
        <ele>95.717</ele>
        <time>2017-03-18T17:49:07Z</time>
      </trkpt>
      <trkpt lat="38.001468" lon="-1.160123">
        <ele>95.608</ele>
        <time>2017-03-18T17:49:09Z</time>
      </trkpt>
      <trkpt lat="38.001426" lon="-1.159966">
        <ele>95.969</ele>
        <time>2017-03-18T17:49:11Z</time>
      </trkpt>
      <trkpt lat="38.001389" lon="-1.159827">
        <ele>95.614</ele>
        <time>2017-03-18T17:49:13Z</time>
      </trkpt>
      <trkpt lat="38.001356" lon="-1.159673">
        <ele>94.116</ele>
        <time>2017-03-18T17:49:15Z</time>
      </trkpt>
      <trkpt lat="38.001318" lon="-1.159516">
        <ele>92.761</ele>
        <time>2017-03-18T17:49:17Z</time>
      </trkpt>
      <trkpt lat="38.001275" lon="-1.159375">
        <ele>91.899</ele>
        <time>2017-03-18T17:49:19Z</time>
      </trkpt>
      <trkpt lat="38.001229" lon="-1.159226">
        <ele>91.773</ele>
        <time>2017-03-18T17:49:21Z</time>
      </trkpt>
      <trkpt lat="38.001193" lon="-1.159094">
        <ele>91.189</ele>
        <time>2017-03-18T17:49:23Z</time>
      </trkpt>
      <trkpt lat="38.001155" lon="-1.158955">
        <ele>90.059</ele>
        <time>2017-03-18T17:49:25Z</time>
      </trkpt>
      <trkpt lat="38.001115" lon="-1.158801">
        <ele>89.343</ele>
        <time>2017-03-18T17:49:27Z</time>
      </trkpt>
      <trkpt lat="38.001082" lon="-1.158661">
        <ele>88.564</ele>
        <time>2017-03-18T17:49:29Z</time>
      </trkpt>
      <trkpt lat="38.001050" lon="-1.158525">
        <ele>87.810</ele>
        <time>2017-03-18T17:49:31Z</time>
      </trkpt>
      <trkpt lat="38.001014" lon="-1.158377">
        <ele>87.508</ele>
        <time>2017-03-18T17:49:33Z</time>
      </trkpt>
      <trkpt lat="38.000973" lon="-1.158234">
        <ele>87.425</ele>
        <time>2017-03-18T17:49:35Z</time>
      </trkpt>
      <trkpt lat="38.000930" lon="-1.158087">
        <ele>87.120</ele>
        <time>2017-03-18T17:49:37Z</time>
      </trkpt>
      <trkpt lat="38.000888" lon="-1.157942">
        <ele>86.932</ele>
        <time>2017-03-18T17:49:39Z</time>
      </trkpt>
      <trkpt lat="38.000847" lon="-1.157794">
        <ele>87.237</ele>
        <time>2017-03-18T17:49:41Z</time>
      </trkpt>
      <trkpt lat="38.000817" lon="-1.157676">
        <ele>87.075</ele>
        <time>2017-03-18T17:49:43Z</time>
      </trkpt>
      <trkpt lat="38.000791" lon="-1.157557">
        <ele>86.659</ele>
        <time>2017-03-18T17:49:46Z</time>
      </trkpt>
      <trkpt lat="38.000764" lon="-1.157435">
        <ele>86.515</ele>
        <time>2017-03-18T17:49:49Z</time>
      </trkpt>
      <trkpt lat="38.000726" lon="-1.157315">
        <ele>86.535</ele>
        <time>2017-03-18T17:49:52Z</time>
      </trkpt>
      <trkpt lat="38.000681" lon="-1.157187">
        <ele>86.482</ele>
        <time>2017-03-18T17:49:57Z</time>
      </trkpt>
      <trkpt lat="38.000716" lon="-1.157073">
        <ele>86.843</ele>
        <time>2017-03-18T17:50:01Z</time>
      </trkpt>
      <trkpt lat="38.000810" lon="-1.157011">
        <ele>87.617</ele>
        <time>2017-03-18T17:50:03Z</time>
      </trkpt>
      <trkpt lat="38.000999" lon="-1.156631">
        <ele>86.708</ele>
        <time>2017-03-18T17:50:09Z</time>
      </trkpt>
      <trkpt lat="38.001038" lon="-1.156519">
        <ele>87.299</ele>
        <time>2017-03-18T17:50:11Z</time>
      </trkpt>
      <trkpt lat="38.001028" lon="-1.156398">
        <ele>89.164</ele>
        <time>2017-03-18T17:50:13Z</time>
      </trkpt>
      <trkpt lat="38.001059" lon="-1.156215">
        <ele>89.476</ele>
        <time>2017-03-18T17:50:15Z</time>
      </trkpt>
      <trkpt lat="38.001095" lon="-1.156089">
        <ele>89.281</ele>
        <time>2017-03-18T17:50:17Z</time>
      </trkpt>
      <trkpt lat="38.001130" lon="-1.155981">
        <ele>90.389</ele>
        <time>2017-03-18T17:50:19Z</time>
      </trkpt>
      <trkpt lat="38.001169" lon="-1.155871">
        <ele>90.713</ele>
        <time>2017-03-18T17:50:21Z</time>
      </trkpt>
      <trkpt lat="38.001218" lon="-1.155751">
        <ele>90.889</ele>
        <time>2017-03-18T17:50:23Z</time>
      </trkpt>
      <trkpt lat="38.001270" lon="-1.155636">
        <ele>91.129</ele>
        <time>2017-03-18T17:50:25Z</time>
      </trkpt>
      <trkpt lat="38.001323" lon="-1.155533">
        <ele>91.651</ele>
        <time>2017-03-18T17:50:27Z</time>
      </trkpt>
      <trkpt lat="38.001371" lon="-1.155427">
        <ele>91.801</ele>
        <time>2017-03-18T17:50:29Z</time>
      </trkpt>
      <trkpt lat="38.001422" lon="-1.155324">
        <ele>91.211</ele>
        <time>2017-03-18T17:50:31Z</time>
      </trkpt>
      <trkpt lat="38.001468" lon="-1.155222">
        <ele>90.608</ele>
        <time>2017-03-18T17:50:33Z</time>
      </trkpt>
      <trkpt lat="38.001516" lon="-1.155099">
        <ele>90.216</ele>
        <time>2017-03-18T17:50:35Z</time>
      </trkpt>
      <trkpt lat="38.001563" lon="-1.154971">
        <ele>90.161</ele>
        <time>2017-03-18T17:50:37Z</time>
      </trkpt>
      <trkpt lat="38.001596" lon="-1.154840">
        <ele>90.443</ele>
        <time>2017-03-18T17:50:39Z</time>
      </trkpt>
      <trkpt lat="38.001630" lon="-1.154709">
        <ele>90.538</ele>
        <time>2017-03-18T17:50:41Z</time>
      </trkpt>
      <trkpt lat="38.001666" lon="-1.154582">
        <ele>90.766</ele>
        <time>2017-03-18T17:50:43Z</time>
      </trkpt>
      <trkpt lat="38.001703" lon="-1.154457">
        <ele>90.930</ele>
        <time>2017-03-18T17:50:45Z</time>
      </trkpt>
      <trkpt lat="38.001739" lon="-1.154340">
        <ele>91.026</ele>
        <time>2017-03-18T17:50:47Z</time>
      </trkpt>
      <trkpt lat="38.001778" lon="-1.154231">
        <ele>91.266</ele>
        <time>2017-03-18T17:50:49Z</time>
      </trkpt>
      <trkpt lat="38.001807" lon="-1.154114">
        <ele>91.113</ele>
        <time>2017-03-18T17:50:51Z</time>
      </trkpt>
      <trkpt lat="38.001832" lon="-1.153992">
        <ele>91.143</ele>
        <time>2017-03-18T17:50:53Z</time>
      </trkpt>
      <trkpt lat="38.001855" lon="-1.153869">
        <ele>91.507</ele>
        <time>2017-03-18T17:50:55Z</time>
      </trkpt>
      <trkpt lat="38.001874" lon="-1.153742">
        <ele>91.908</ele>
        <time>2017-03-18T17:50:57Z</time>
      </trkpt>
      <trkpt lat="38.001898" lon="-1.153621">
        <ele>92.492</ele>
        <time>2017-03-18T17:50:59Z</time>
      </trkpt>
      <trkpt lat="38.001916" lon="-1.153502">
        <ele>93.027</ele>
        <time>2017-03-18T17:51:01Z</time>
      </trkpt>
      <trkpt lat="38.001931" lon="-1.153371">
        <ele>93.779</ele>
        <time>2017-03-18T17:51:03Z</time>
      </trkpt>
      <trkpt lat="38.001949" lon="-1.153239">
        <ele>94.194</ele>
        <time>2017-03-18T17:51:05Z</time>
      </trkpt>
      <trkpt lat="38.001964" lon="-1.153105">
        <ele>93.972</ele>
        <time>2017-03-18T17:51:07Z</time>
      </trkpt>
      <trkpt lat="38.001970" lon="-1.152991">
        <ele>93.556</ele>
        <time>2017-03-18T17:51:09Z</time>
      </trkpt>
      <trkpt lat="38.001978" lon="-1.152867">
        <ele>92.832</ele>
        <time>2017-03-18T17:51:11Z</time>
      </trkpt>
      <trkpt lat="38.001981" lon="-1.152745">
        <ele>91.972</ele>
        <time>2017-03-18T17:51:13Z</time>
      </trkpt>
      <trkpt lat="38.001995" lon="-1.152606">
        <ele>90.776</ele>
        <time>2017-03-18T17:51:15Z</time>
      </trkpt>
      <trkpt lat="38.002005" lon="-1.152481">
        <ele>89.990</ele>
        <time>2017-03-18T17:51:17Z</time>
      </trkpt>
      <trkpt lat="38.002009" lon="-1.152356">
        <ele>89.719</ele>
        <time>2017-03-18T17:51:20Z</time>
      </trkpt>
      <trkpt lat="38.002013" lon="-1.152232">
        <ele>90.008</ele>
        <time>2017-03-18T17:51:22Z</time>
      </trkpt>
      <trkpt lat="38.002021" lon="-1.152109">
        <ele>90.158</ele>
        <time>2017-03-18T17:51:24Z</time>
      </trkpt>
      <trkpt lat="38.002033" lon="-1.151982">
        <ele>90.023</ele>
        <time>2017-03-18T17:51:26Z</time>
      </trkpt>
      <trkpt lat="38.002050" lon="-1.151858">
        <ele>89.925</ele>
        <time>2017-03-18T17:51:28Z</time>
      </trkpt>
      <trkpt lat="38.002069" lon="-1.151731">
        <ele>90.280</ele>
        <time>2017-03-18T17:51:30Z</time>
      </trkpt>
      <trkpt lat="38.002101" lon="-1.151573">
        <ele>92.448</ele>
        <time>2017-03-18T17:51:33Z</time>
      </trkpt>
      <trkpt lat="38.002124" lon="-1.151444">
        <ele>94.232</ele>
        <time>2017-03-18T17:51:35Z</time>
      </trkpt>
      <trkpt lat="38.002149" lon="-1.151314">
        <ele>94.518</ele>
        <time>2017-03-18T17:51:37Z</time>
      </trkpt>
      <trkpt lat="38.002174" lon="-1.151179">
        <ele>93.748</ele>
        <time>2017-03-18T17:51:39Z</time>
      </trkpt>
      <trkpt lat="38.002195" lon="-1.151041">
        <ele>92.785</ele>
        <time>2017-03-18T17:51:41Z</time>
      </trkpt>
      <trkpt lat="38.002213" lon="-1.150915">
        <ele>91.989</ele>
        <time>2017-03-18T17:51:43Z</time>
      </trkpt>
      <trkpt lat="38.002228" lon="-1.150795">
        <ele>91.417</ele>
        <time>2017-03-18T17:51:45Z</time>
      </trkpt>
      <trkpt lat="38.002255" lon="-1.150590">
        <ele>91.308</ele>
        <time>2017-03-18T17:51:47Z</time>
      </trkpt>
      <trkpt lat="38.002270" lon="-1.150447">
        <ele>91.219</ele>
        <time>2017-03-18T17:51:49Z</time>
      </trkpt>
      <trkpt lat="38.002288" lon="-1.150317">
        <ele>90.924</ele>
        <time>2017-03-18T17:51:51Z</time>
      </trkpt>
      <trkpt lat="38.002308" lon="-1.150189">
        <ele>90.716</ele>
        <time>2017-03-18T17:51:53Z</time>
      </trkpt>
      <trkpt lat="38.002338" lon="-1.149999">
        <ele>90.281</ele>
        <time>2017-03-18T17:51:56Z</time>
      </trkpt>
      <trkpt lat="38.002353" lon="-1.149855">
        <ele>89.719</ele>
        <time>2017-03-18T17:51:58Z</time>
      </trkpt>
      <trkpt lat="38.002379" lon="-1.149727">
        <ele>88.723</ele>
        <time>2017-03-18T17:52:00Z</time>
      </trkpt>
      <trkpt lat="38.002403" lon="-1.149588">
        <ele>88.229</ele>
        <time>2017-03-18T17:52:02Z</time>
      </trkpt>
      <trkpt lat="38.002425" lon="-1.149465">
        <ele>88.349</ele>
        <time>2017-03-18T17:52:04Z</time>
      </trkpt>
      <trkpt lat="38.002445" lon="-1.149340">
        <ele>88.452</ele>
        <time>2017-03-18T17:52:06Z</time>
      </trkpt>
      <trkpt lat="38.002460" lon="-1.149211">
        <ele>88.453</ele>
        <time>2017-03-18T17:52:08Z</time>
      </trkpt>
      <trkpt lat="38.002470" lon="-1.149087">
        <ele>88.108</ele>
        <time>2017-03-18T17:52:10Z</time>
      </trkpt>
      <trkpt lat="38.002472" lon="-1.148927">
        <ele>88.008</ele>
        <time>2017-03-18T17:52:13Z</time>
      </trkpt>
      <trkpt lat="38.002409" lon="-1.148839">
        <ele>88.076</ele>
        <time>2017-03-18T17:52:16Z</time>
      </trkpt>
      <trkpt lat="38.002320" lon="-1.148808">
        <ele>88.321</ele>
        <time>2017-03-18T17:52:20Z</time>
      </trkpt>
      <trkpt lat="38.002205" lon="-1.148809">
        <ele>88.733</ele>
        <time>2017-03-18T17:52:25Z</time>
      </trkpt>
      <trkpt lat="38.002096" lon="-1.148788">
        <ele>88.918</ele>
        <time>2017-03-18T17:52:29Z</time>
      </trkpt>
      <trkpt lat="38.002002" lon="-1.148756">
        <ele>89.586</ele>
        <time>2017-03-18T17:53:10Z</time>
      </trkpt>
      <trkpt lat="38.001907" lon="-1.148669">
        <ele>90.130</ele>
        <time>2017-03-18T17:53:13Z</time>
      </trkpt>
      <trkpt lat="38.001863" lon="-1.148503">
        <ele>91.136</ele>
        <time>2017-03-18T17:53:15Z</time>
      </trkpt>
      <trkpt lat="38.001859" lon="-1.148376">
        <ele>92.266</ele>
        <time>2017-03-18T17:53:17Z</time>
      </trkpt>
      <trkpt lat="38.001873" lon="-1.148216">
        <ele>93.624</ele>
        <time>2017-03-18T17:53:20Z</time>
      </trkpt>
      <trkpt lat="38.001840" lon="-1.148057">
        <ele>93.304</ele>
        <time>2017-03-18T17:53:23Z</time>
      </trkpt>
      <trkpt lat="38.001771" lon="-1.147944">
        <ele>93.214</ele>
        <time>2017-03-18T17:53:25Z</time>
      </trkpt>
      <trkpt lat="38.001708" lon="-1.147836">
        <ele>93.008</ele>
        <time>2017-03-18T17:53:27Z</time>
      </trkpt>
      <trkpt lat="38.001670" lon="-1.147726">
        <ele>92.213</ele>
        <time>2017-03-18T17:53:29Z</time>
      </trkpt>
      <trkpt lat="38.001623" lon="-1.147610">
        <ele>91.388</ele>
        <time>2017-03-18T17:53:31Z</time>
      </trkpt>
      <trkpt lat="38.001568" lon="-1.147497">
        <ele>90.640</ele>
        <time>2017-03-18T17:53:33Z</time>
      </trkpt>
      <trkpt lat="38.001511" lon="-1.147388">
        <ele>90.185</ele>
        <time>2017-03-18T17:53:35Z</time>
      </trkpt>
      <trkpt lat="38.001448" lon="-1.147282">
        <ele>89.713</ele>
        <time>2017-03-18T17:53:37Z</time>
      </trkpt>
      <trkpt lat="38.001373" lon="-1.147190">
        <ele>89.817</ele>
        <time>2017-03-18T17:53:39Z</time>
      </trkpt>
      <trkpt lat="38.001308" lon="-1.147105">
        <ele>89.983</ele>
        <time>2017-03-18T17:53:41Z</time>
      </trkpt>
      <trkpt lat="38.001269" lon="-1.146955">
        <ele>89.073</ele>
        <time>2017-03-18T17:53:44Z</time>
      </trkpt>
      <trkpt lat="38.001231" lon="-1.146842">
        <ele>88.429</ele>
        <time>2017-03-18T17:53:46Z</time>
      </trkpt>
      <trkpt lat="38.001172" lon="-1.146733">
        <ele>88.800</ele>
        <time>2017-03-18T17:53:48Z</time>
      </trkpt>
      <trkpt lat="38.001119" lon="-1.146630">
        <ele>88.920</ele>
        <time>2017-03-18T17:53:50Z</time>
      </trkpt>
      <trkpt lat="38.001069" lon="-1.146527">
        <ele>89.108</ele>
        <time>2017-03-18T17:53:52Z</time>
      </trkpt>
      <trkpt lat="38.000995" lon="-1.146416">
        <ele>89.893</ele>
        <time>2017-03-18T17:53:54Z</time>
      </trkpt>
      <trkpt lat="38.000928" lon="-1.146310">
        <ele>90.778</ele>
        <time>2017-03-18T17:53:56Z</time>
      </trkpt>
      <trkpt lat="38.000868" lon="-1.146209">
        <ele>91.550</ele>
        <time>2017-03-18T17:53:58Z</time>
      </trkpt>
      <trkpt lat="38.000802" lon="-1.146102">
        <ele>91.785</ele>
        <time>2017-03-18T17:54:00Z</time>
      </trkpt>
      <trkpt lat="38.000739" lon="-1.145994">
        <ele>91.373</ele>
        <time>2017-03-18T17:54:02Z</time>
      </trkpt>
      <trkpt lat="38.000676" lon="-1.145883">
        <ele>90.887</ele>
        <time>2017-03-18T17:54:04Z</time>
      </trkpt>
      <trkpt lat="38.000620" lon="-1.145781">
        <ele>90.753</ele>
        <time>2017-03-18T17:54:06Z</time>
      </trkpt>
      <trkpt lat="38.000564" lon="-1.145680">
        <ele>90.643</ele>
        <time>2017-03-18T17:54:08Z</time>
      </trkpt>
      <trkpt lat="38.000505" lon="-1.145575">
        <ele>90.968</ele>
        <time>2017-03-18T17:54:10Z</time>
      </trkpt>
      <trkpt lat="38.000443" lon="-1.145446">
        <ele>91.342</ele>
        <time>2017-03-18T17:54:14Z</time>
      </trkpt>
      <trkpt lat="38.000381" lon="-1.145329">
        <ele>91.426</ele>
        <time>2017-03-18T17:54:17Z</time>
      </trkpt>
      <trkpt lat="38.000327" lon="-1.145220">
        <ele>91.508</ele>
        <time>2017-03-18T17:54:20Z</time>
      </trkpt>
      <trkpt lat="38.000280" lon="-1.145111">
        <ele>91.957</ele>
        <time>2017-03-18T17:54:23Z</time>
      </trkpt>
      <trkpt lat="38.000234" lon="-1.145010">
        <ele>92.112</ele>
        <time>2017-03-18T17:54:26Z</time>
      </trkpt>
      <trkpt lat="38.000188" lon="-1.144908">
        <ele>92.364</ele>
        <time>2017-03-18T17:54:30Z</time>
      </trkpt>
      <trkpt lat="38.000119" lon="-1.144832">
        <ele>92.739</ele>
        <time>2017-03-18T17:54:33Z</time>
      </trkpt>
      <trkpt lat="38.000148" lon="-1.144704">
        <ele>91.077</ele>
        <time>2017-03-18T17:58:37Z</time>
      </trkpt>
      <trkpt lat="38.000091" lon="-1.144581">
        <ele>90.951</ele>
        <time>2017-03-18T17:58:40Z</time>
      </trkpt>
      <trkpt lat="38.000030" lon="-1.144478">
        <ele>90.817</ele>
        <time>2017-03-18T17:58:43Z</time>
      </trkpt>
      <trkpt lat="37.999957" lon="-1.144360">
        <ele>90.737</ele>
        <time>2017-03-18T17:58:45Z</time>
      </trkpt>
      <trkpt lat="37.999876" lon="-1.144236">
        <ele>90.691</ele>
        <time>2017-03-18T17:58:48Z</time>
      </trkpt>
      <trkpt lat="37.999804" lon="-1.144136">
        <ele>90.781</ele>
        <time>2017-03-18T17:58:51Z</time>
      </trkpt>
      <trkpt lat="37.999741" lon="-1.144045">
        <ele>90.819</ele>
        <time>2017-03-18T17:58:54Z</time>
      </trkpt>
      <trkpt lat="37.999692" lon="-1.143949">
        <ele>91.008</ele>
        <time>2017-03-18T17:58:58Z</time>
      </trkpt>
      <trkpt lat="37.999638" lon="-1.143848">
        <ele>91.270</ele>
        <time>2017-03-18T17:59:02Z</time>
      </trkpt>
      <trkpt lat="37.999571" lon="-1.143719">
        <ele>91.715</ele>
        <time>2017-03-18T17:59:05Z</time>
      </trkpt>
      <trkpt lat="37.999520" lon="-1.143616">
        <ele>92.347</ele>
        <time>2017-03-18T17:59:08Z</time>
      </trkpt>
      <trkpt lat="37.999441" lon="-1.143508">
        <ele>93.262</ele>
        <time>2017-03-18T17:59:12Z</time>
      </trkpt>
      <trkpt lat="37.999341" lon="-1.143448">
        <ele>93.630</ele>
        <time>2017-03-18T17:59:15Z</time>
      </trkpt>
      <trkpt lat="37.999248" lon="-1.143385">
        <ele>94.544</ele>
        <time>2017-03-18T17:59:24Z</time>
      </trkpt>
      <trkpt lat="37.999186" lon="-1.143297">
        <ele>94.650</ele>
        <time>2017-03-18T17:59:28Z</time>
      </trkpt>
      <trkpt lat="37.999126" lon="-1.143167">
        <ele>94.450</ele>
        <time>2017-03-18T17:59:32Z</time>
      </trkpt>
      <trkpt lat="37.999051" lon="-1.143093">
        <ele>94.349</ele>
        <time>2017-03-18T17:59:34Z</time>
      </trkpt>
      <trkpt lat="37.998934" lon="-1.143035">
        <ele>94.202</ele>
        <time>2017-03-18T17:59:37Z</time>
      </trkpt>
      <trkpt lat="37.998851" lon="-1.142988">
        <ele>94.122</ele>
        <time>2017-03-18T17:59:41Z</time>
      </trkpt>
      <trkpt lat="37.998910" lon="-1.143076">
        <ele>93.508</ele>
        <time>2017-03-18T18:00:03Z</time>
      </trkpt>
      <trkpt lat="37.998900" lon="-1.142945">
        <ele>97.585</ele>
        <time>2017-03-18T18:00:58Z</time>
      </trkpt>
      <trkpt lat="37.998976" lon="-1.142847">
        <ele>98.790</ele>
        <time>2017-03-18T18:01:03Z</time>
      </trkpt>
      <trkpt lat="37.999003" lon="-1.142730">
        <ele>99.112</ele>
        <time>2017-03-18T18:01:06Z</time>
      </trkpt>
      <trkpt lat="37.998966" lon="-1.142585">
        <ele>99.357</ele>
        <time>2017-03-18T18:01:09Z</time>
      </trkpt>
      <trkpt lat="37.998925" lon="-1.142472">
        <ele>99.185</ele>
        <time>2017-03-18T18:01:12Z</time>
      </trkpt>
      <trkpt lat="37.998881" lon="-1.142358">
        <ele>97.189</ele>
        <time>2017-03-18T18:01:45Z</time>
      </trkpt>
      <trkpt lat="37.998810" lon="-1.142220">
        <ele>96.665</ele>
        <time>2017-03-18T18:01:49Z</time>
      </trkpt>
      <trkpt lat="37.998769" lon="-1.142107">
        <ele>96.225</ele>
        <time>2017-03-18T18:01:52Z</time>
      </trkpt>
      <trkpt lat="37.998723" lon="-1.141992">
        <ele>95.945</ele>
        <time>2017-03-18T18:01:55Z</time>
      </trkpt>
      <trkpt lat="37.998683" lon="-1.141884">
        <ele>95.847</ele>
        <time>2017-03-18T18:01:58Z</time>
      </trkpt>
      <trkpt lat="37.998628" lon="-1.141774">
        <ele>95.811</ele>
        <time>2017-03-18T18:02:01Z</time>
      </trkpt>
      <trkpt lat="37.998560" lon="-1.141665">
        <ele>95.608</ele>
        <time>2017-03-18T18:02:04Z</time>
      </trkpt>
      <trkpt lat="37.998502" lon="-1.141543">
        <ele>94.985</ele>
        <time>2017-03-18T18:02:07Z</time>
      </trkpt>
      <trkpt lat="37.998448" lon="-1.141396">
        <ele>92.720</ele>
        <time>2017-03-18T18:02:10Z</time>
      </trkpt>
      <trkpt lat="37.998407" lon="-1.141292">
        <ele>92.342</ele>
        <time>2017-03-18T18:02:12Z</time>
      </trkpt>
      <trkpt lat="37.998351" lon="-1.141169">
        <ele>91.817</ele>
        <time>2017-03-18T18:02:14Z</time>
      </trkpt>
      <trkpt lat="37.998288" lon="-1.141028">
        <ele>91.675</ele>
        <time>2017-03-18T18:02:17Z</time>
      </trkpt>
      <trkpt lat="37.998237" lon="-1.140912">
        <ele>91.599</ele>
        <time>2017-03-18T18:02:19Z</time>
      </trkpt>
      <trkpt lat="37.998177" lon="-1.140801">
        <ele>91.775</ele>
        <time>2017-03-18T18:02:22Z</time>
      </trkpt>
      <trkpt lat="37.998116" lon="-1.140697">
        <ele>92.385</ele>
        <time>2017-03-18T18:02:25Z</time>
      </trkpt>
      <trkpt lat="37.998064" lon="-1.140578">
        <ele>92.693</ele>
        <time>2017-03-18T18:02:28Z</time>
      </trkpt>
      <trkpt lat="37.998003" lon="-1.140480">
        <ele>92.865</ele>
        <time>2017-03-18T18:02:30Z</time>
      </trkpt>
      <trkpt lat="37.997934" lon="-1.140402">
        <ele>93.321</ele>
        <time>2017-03-18T18:02:35Z</time>
      </trkpt>
      <trkpt lat="37.997869" lon="-1.140308">
        <ele>93.508</ele>
        <time>2017-03-18T18:02:39Z</time>
      </trkpt>
      <trkpt lat="37.997819" lon="-1.140200">
        <ele>93.560</ele>
        <time>2017-03-18T18:02:42Z</time>
      </trkpt>
      <trkpt lat="37.997798" lon="-1.140078">
        <ele>93.165</ele>
        <time>2017-03-18T18:02:45Z</time>
      </trkpt>
      <trkpt lat="37.997776" lon="-1.139906">
        <ele>92.997</ele>
        <time>2017-03-18T18:02:48Z</time>
      </trkpt>
      <trkpt lat="37.997744" lon="-1.139784">
        <ele>92.762</ele>
        <time>2017-03-18T18:02:50Z</time>
      </trkpt>
      <trkpt lat="37.997680" lon="-1.139620">
        <ele>90.660</ele>
        <time>2017-03-18T18:02:54Z</time>
      </trkpt>
      <trkpt lat="37.997626" lon="-1.139484">
        <ele>91.354</ele>
        <time>2017-03-18T18:02:57Z</time>
      </trkpt>
      <trkpt lat="37.997565" lon="-1.139342">
        <ele>92.430</ele>
        <time>2017-03-18T18:03:00Z</time>
      </trkpt>
      <trkpt lat="37.997510" lon="-1.139211">
        <ele>93.090</ele>
        <time>2017-03-18T18:03:03Z</time>
      </trkpt>
      <trkpt lat="37.997445" lon="-1.139115">
        <ele>93.144</ele>
        <time>2017-03-18T18:03:06Z</time>
      </trkpt>
      <trkpt lat="37.997385" lon="-1.139005">
        <ele>93.405</ele>
        <time>2017-03-18T18:03:09Z</time>
      </trkpt>
      <trkpt lat="37.997339" lon="-1.138863">
        <ele>92.615</ele>
        <time>2017-03-18T18:03:12Z</time>
      </trkpt>
      <trkpt lat="37.997273" lon="-1.138728">
        <ele>91.608</ele>
        <time>2017-03-18T18:03:14Z</time>
      </trkpt>
      <trkpt lat="37.997205" lon="-1.138592">
        <ele>91.765</ele>
        <time>2017-03-18T18:03:17Z</time>
      </trkpt>
      <trkpt lat="37.997153" lon="-1.138459">
        <ele>91.920</ele>
        <time>2017-03-18T18:03:20Z</time>
      </trkpt>
      <trkpt lat="37.997119" lon="-1.138327">
        <ele>91.952</ele>
        <time>2017-03-18T18:03:23Z</time>
      </trkpt>
      <trkpt lat="37.997076" lon="-1.138216">
        <ele>91.967</ele>
        <time>2017-03-18T18:03:25Z</time>
      </trkpt>
      <trkpt lat="37.997012" lon="-1.138086">
        <ele>92.135</ele>
        <time>2017-03-18T18:03:28Z</time>
      </trkpt>
      <trkpt lat="37.996948" lon="-1.137960">
        <ele>92.669</ele>
        <time>2017-03-18T18:03:31Z</time>
      </trkpt>
      <trkpt lat="37.996898" lon="-1.137829">
        <ele>93.725</ele>
        <time>2017-03-18T18:03:34Z</time>
      </trkpt>
      <trkpt lat="37.996848" lon="-1.137694">
        <ele>94.125</ele>
        <time>2017-03-18T18:03:37Z</time>
      </trkpt>
      <trkpt lat="37.996805" lon="-1.137557">
        <ele>94.169</ele>
        <time>2017-03-18T18:03:40Z</time>
      </trkpt>
      <trkpt lat="37.996771" lon="-1.137418">
        <ele>94.004</ele>
        <time>2017-03-18T18:03:43Z</time>
      </trkpt>
      <trkpt lat="37.996741" lon="-1.137286">
        <ele>93.824</ele>
        <time>2017-03-18T18:03:46Z</time>
      </trkpt>
      <trkpt lat="37.996713" lon="-1.137159">
        <ele>93.608</ele>
        <time>2017-03-18T18:03:49Z</time>
      </trkpt>
      <trkpt lat="37.996676" lon="-1.136993">
        <ele>93.597</ele>
        <time>2017-03-18T18:03:52Z</time>
      </trkpt>
      <trkpt lat="37.996645" lon="-1.136857">
        <ele>93.392</ele>
        <time>2017-03-18T18:03:55Z</time>
      </trkpt>
      <trkpt lat="37.996611" lon="-1.136710">
        <ele>93.054</ele>
        <time>2017-03-18T18:03:58Z</time>
      </trkpt>
      <trkpt lat="37.996578" lon="-1.136595">
        <ele>92.519</ele>
        <time>2017-03-18T18:04:03Z</time>
      </trkpt>
      <trkpt lat="37.996594" lon="-1.136479">
        <ele>93.027</ele>
        <time>2017-03-18T18:04:43Z</time>
      </trkpt>
      <trkpt lat="37.996585" lon="-1.136355">
        <ele>93.191</ele>
        <time>2017-03-18T18:04:46Z</time>
      </trkpt>
      <trkpt lat="37.996545" lon="-1.136214">
        <ele>93.167</ele>
        <time>2017-03-18T18:04:48Z</time>
      </trkpt>
      <trkpt lat="37.996514" lon="-1.136099">
        <ele>93.237</ele>
        <time>2017-03-18T18:04:52Z</time>
      </trkpt>
      <trkpt lat="37.996493" lon="-1.135944">
        <ele>93.397</ele>
        <time>2017-03-18T18:04:56Z</time>
      </trkpt>
      <trkpt lat="37.996474" lon="-1.135802">
        <ele>93.323</ele>
        <time>2017-03-18T18:04:59Z</time>
      </trkpt>
      <trkpt lat="37.996447" lon="-1.135641">
        <ele>93.225</ele>
        <time>2017-03-18T18:05:02Z</time>
      </trkpt>
      <trkpt lat="37.996420" lon="-1.135517">
        <ele>93.208</ele>
        <time>2017-03-18T18:05:05Z</time>
      </trkpt>
      <trkpt lat="37.996378" lon="-1.135375">
        <ele>92.860</ele>
        <time>2017-03-18T18:05:08Z</time>
      </trkpt>
      <trkpt lat="37.996332" lon="-1.135242">
        <ele>91.985</ele>
        <time>2017-03-18T18:05:11Z</time>
      </trkpt>
      <trkpt lat="37.996276" lon="-1.135122">
        <ele>92.087</ele>
        <time>2017-03-18T18:05:15Z</time>
      </trkpt>
      <trkpt lat="37.996177" lon="-1.135043">
        <ele>92.292</ele>
        <time>2017-03-18T18:05:20Z</time>
      </trkpt>
      <trkpt lat="37.996066" lon="-1.134998">
        <ele>92.080</ele>
        <time>2017-03-18T18:05:23Z</time>
      </trkpt>
      <trkpt lat="37.995956" lon="-1.134941">
        <ele>91.764</ele>
        <time>2017-03-18T18:05:27Z</time>
      </trkpt>
      <trkpt lat="37.995860" lon="-1.134899">
        <ele>91.530</ele>
        <time>2017-03-18T18:05:30Z</time>
      </trkpt>
      <trkpt lat="37.995749" lon="-1.134855">
        <ele>90.960</ele>
        <time>2017-03-18T18:05:33Z</time>
      </trkpt>
      <trkpt lat="37.995664" lon="-1.134815">
        <ele>91.066</ele>
        <time>2017-03-18T18:05:36Z</time>
      </trkpt>
      <trkpt lat="37.995522" lon="-1.134787">
        <ele>91.129</ele>
        <time>2017-03-18T18:05:39Z</time>
      </trkpt>
      <trkpt lat="37.995444" lon="-1.134885">
        <ele>91.021</ele>
        <time>2017-03-18T18:05:41Z</time>
      </trkpt>
      <trkpt lat="37.995412" lon="-1.135013">
        <ele>91.008</ele>
        <time>2017-03-18T18:05:44Z</time>
      </trkpt>
      <trkpt lat="37.995370" lon="-1.135157">
        <ele>91.527</ele>
        <time>2017-03-18T18:05:47Z</time>
      </trkpt>
      <trkpt lat="37.995254" lon="-1.135165">
        <ele>91.772</ele>
        <time>2017-03-18T18:05:51Z</time>
      </trkpt>
      <trkpt lat="37.995150" lon="-1.135157">
        <ele>91.994</ele>
        <time>2017-03-18T18:05:54Z</time>
      </trkpt>
      <trkpt lat="37.995026" lon="-1.135138">
        <ele>92.859</ele>
        <time>2017-03-18T18:05:57Z</time>
      </trkpt>
      <trkpt lat="37.994909" lon="-1.135107">
        <ele>93.727</ele>
        <time>2017-03-18T18:06:00Z</time>
      </trkpt>
      <trkpt lat="37.994813" lon="-1.135079">
        <ele>94.571</ele>
        <time>2017-03-18T18:06:02Z</time>
      </trkpt>
      <trkpt lat="37.994722" lon="-1.135056">
        <ele>95.797</ele>
        <time>2017-03-18T18:06:04Z</time>
      </trkpt>
      <trkpt lat="37.994602" lon="-1.135025">
        <ele>96.277</ele>
        <time>2017-03-18T18:06:07Z</time>
      </trkpt>
      <trkpt lat="37.994484" lon="-1.135006">
        <ele>94.869</ele>
        <time>2017-03-18T18:06:10Z</time>
      </trkpt>
      <trkpt lat="37.994386" lon="-1.134981">
        <ele>94.604</ele>
        <time>2017-03-18T18:06:12Z</time>
      </trkpt>
      <trkpt lat="37.994334" lon="-1.134863">
        <ele>94.524</ele>
        <time>2017-03-18T18:06:19Z</time>
      </trkpt>
      <trkpt lat="37.994360" lon="-1.134733">
        <ele>95.708</ele>
        <time>2017-03-18T18:06:22Z</time>
      </trkpt>
      <trkpt lat="37.994406" lon="-1.134590">
        <ele>95.997</ele>
        <time>2017-03-18T18:06:25Z</time>
      </trkpt>
      <trkpt lat="37.994432" lon="-1.134437">
        <ele>95.952</ele>
        <time>2017-03-18T18:06:28Z</time>
      </trkpt>
      <trkpt lat="37.994469" lon="-1.134283">
        <ele>95.564</ele>
        <time>2017-03-18T18:06:31Z</time>
      </trkpt>
      <trkpt lat="37.994498" lon="-1.134144">
        <ele>95.479</ele>
        <time>2017-03-18T18:06:34Z</time>
      </trkpt>
      <trkpt lat="37.994518" lon="-1.134012">
        <ele>95.597</ele>
        <time>2017-03-18T18:06:38Z</time>
      </trkpt>
      <trkpt lat="37.994548" lon="-1.133885">
        <ele>95.691</ele>
        <time>2017-03-18T18:06:43Z</time>
      </trkpt>
      <trkpt lat="37.994567" lon="-1.133722">
        <ele>95.357</ele>
        <time>2017-03-18T18:06:46Z</time>
      </trkpt>
      <trkpt lat="37.994498" lon="-1.133630">
        <ele>94.847</ele>
        <time>2017-03-18T18:06:50Z</time>
      </trkpt>
      <trkpt lat="37.994435" lon="-1.133531">
        <ele>94.224</ele>
        <time>2017-03-18T18:06:57Z</time>
      </trkpt>
      <trkpt lat="37.994360" lon="-1.133414">
        <ele>93.804</ele>
        <time>2017-03-18T18:07:01Z</time>
      </trkpt>
      <trkpt lat="37.994269" lon="-1.133333">
        <ele>93.914</ele>
        <time>2017-03-18T18:07:03Z</time>
      </trkpt>
      <trkpt lat="37.994179" lon="-1.133318">
        <ele>94.008</ele>
        <time>2017-03-18T18:07:05Z</time>
      </trkpt>
      <trkpt lat="37.994087" lon="-1.133293">
        <ele>94.143</ele>
        <time>2017-03-18T18:07:07Z</time>
      </trkpt>
      <trkpt lat="37.993969" lon="-1.133251">
        <ele>96.298</ele>
        <time>2017-03-18T18:07:09Z</time>
      </trkpt>
      <trkpt lat="37.993872" lon="-1.133225">
        <ele>99.140</ele>
        <time>2017-03-18T18:07:11Z</time>
      </trkpt>
      <trkpt lat="37.993777" lon="-1.133184">
        <ele>101.915</ele>
        <time>2017-03-18T18:07:14Z</time>
      </trkpt>
      <trkpt lat="37.993650" lon="-1.133141">
        <ele>108.233</ele>
        <time>2017-03-18T18:07:17Z</time>
      </trkpt>
      <trkpt lat="37.993563" lon="-1.133098">
        <ele>108.557</ele>
        <time>2017-03-18T18:07:19Z</time>
      </trkpt>
      <trkpt lat="37.993433" lon="-1.133063">
        <ele>110.523</ele>
        <time>2017-03-18T18:07:22Z</time>
      </trkpt>
      <trkpt lat="37.993318" lon="-1.133032">
        <ele>108.953</ele>
        <time>2017-03-18T18:07:25Z</time>
      </trkpt>
      <trkpt lat="37.993161" lon="-1.132970">
        <ele>103.917</ele>
        <time>2017-03-18T18:07:27Z</time>
      </trkpt>
      <trkpt lat="37.993061" lon="-1.132884">
        <ele>101.287</ele>
        <time>2017-03-18T18:07:30Z</time>
      </trkpt>
      <trkpt lat="37.992945" lon="-1.132835">
        <ele>99.415</ele>
        <time>2017-03-18T18:07:33Z</time>
      </trkpt>
      <trkpt lat="37.992857" lon="-1.132804">
        <ele>98.308</ele>
        <time>2017-03-18T18:07:35Z</time>
      </trkpt>
      <trkpt lat="37.992764" lon="-1.132760">
        <ele>98.042</ele>
        <time>2017-03-18T18:07:37Z</time>
      </trkpt>
      <trkpt lat="37.992665" lon="-1.132724">
        <ele>98.477</ele>
        <time>2017-03-18T18:07:39Z</time>
      </trkpt>
      <trkpt lat="37.992575" lon="-1.132687">
        <ele>98.499</ele>
        <time>2017-03-18T18:07:41Z</time>
      </trkpt>
      <trkpt lat="37.992444" lon="-1.132648">
        <ele>98.454</ele>
        <time>2017-03-18T18:07:44Z</time>
      </trkpt>
      <trkpt lat="37.992346" lon="-1.132616">
        <ele>98.232</ele>
        <time>2017-03-18T18:07:46Z</time>
      </trkpt>
      <trkpt lat="37.992257" lon="-1.132596">
        <ele>98.336</ele>
        <time>2017-03-18T18:07:48Z</time>
      </trkpt>
      <trkpt lat="37.992131" lon="-1.132552">
        <ele>99.222</ele>
        <time>2017-03-18T18:07:51Z</time>
      </trkpt>
      <trkpt lat="37.992039" lon="-1.132536">
        <ele>99.692</ele>
        <time>2017-03-18T18:07:56Z</time>
      </trkpt>
      <trkpt lat="37.991970" lon="-1.132632">
        <ele>100.118</ele>
        <time>2017-03-18T18:08:00Z</time>
      </trkpt>
      <trkpt lat="37.991928" lon="-1.132740">
        <ele>100.298</ele>
        <time>2017-03-18T18:08:45Z</time>
      </trkpt>
      <trkpt lat="37.991871" lon="-1.132838">
        <ele>99.217</ele>
        <time>2017-03-18T18:08:53Z</time>
      </trkpt>
      <trkpt lat="37.991813" lon="-1.132929">
        <ele>98.508</ele>
        <time>2017-03-18T18:08:56Z</time>
      </trkpt>
      <trkpt lat="37.991715" lon="-1.132999">
        <ele>98.052</ele>
        <time>2017-03-18T18:08:58Z</time>
      </trkpt>
      <trkpt lat="37.991616" lon="-1.133038">
        <ele>97.967</ele>
        <time>2017-03-18T18:09:01Z</time>
      </trkpt>
      <trkpt lat="37.991557" lon="-1.133128">
        <ele>97.699</ele>
        <time>2017-03-18T18:09:07Z</time>
      </trkpt>
      <trkpt lat="37.991477" lon="-1.133042">
        <ele>96.874</ele>
        <time>2017-03-18T18:09:20Z</time>
      </trkpt>
      <trkpt lat="37.991385" lon="-1.132939">
        <ele>96.462</ele>
        <time>2017-03-18T18:09:22Z</time>
      </trkpt>
      <trkpt lat="37.991304" lon="-1.132861">
        <ele>96.286</ele>
        <time>2017-03-18T18:09:25Z</time>
      </trkpt>
      <trkpt lat="37.991297" lon="-1.133046">
        <ele>98.862</ele>
        <time>2017-03-18T18:09:34Z</time>
      </trkpt>
      <trkpt lat="37.991261" lon="-1.133173">
        <ele>98.512</ele>
        <time>2017-03-18T18:09:38Z</time>
      </trkpt>
      <trkpt lat="37.991184" lon="-1.133257">
        <ele>97.965</ele>
        <time>2017-03-18T18:09:43Z</time>
      </trkpt>
      <trkpt lat="37.991084" lon="-1.133401">
        <ele>97.368</ele>
        <time>2017-03-18T18:09:48Z</time>
      </trkpt>
      <trkpt lat="37.991050" lon="-1.133532">
        <ele>97.114</ele>
        <time>2017-03-18T18:09:52Z</time>
      </trkpt>
      <trkpt lat="37.991018" lon="-1.133640">
        <ele>97.108</ele>
        <time>2017-03-18T18:09:56Z</time>
      </trkpt>
      <trkpt lat="37.990969" lon="-1.133748">
        <ele>97.437</ele>
        <time>2017-03-18T18:10:00Z</time>
      </trkpt>
      <trkpt lat="37.990936" lon="-1.133878">
        <ele>97.182</ele>
        <time>2017-03-18T18:10:05Z</time>
      </trkpt>
      <trkpt lat="37.990890" lon="-1.133995">
        <ele>97.084</ele>
        <time>2017-03-18T18:10:09Z</time>
      </trkpt>
      <trkpt lat="37.990810" lon="-1.134065">
        <ele>97.069</ele>
        <time>2017-03-18T18:10:12Z</time>
      </trkpt>
      <trkpt lat="37.990696" lon="-1.134086">
        <ele>97.317</ele>
        <time>2017-03-18T18:10:15Z</time>
      </trkpt>
      <trkpt lat="37.990579" lon="-1.134118">
        <ele>97.971</ele>
        <time>2017-03-18T18:10:18Z</time>
      </trkpt>
      <trkpt lat="37.990478" lon="-1.134151">
        <ele>102.037</ele>
        <time>2017-03-18T18:10:29Z</time>
      </trkpt>
      <trkpt lat="37.990386" lon="-1.134185">
        <ele>103.317</ele>
        <time>2017-03-18T18:10:35Z</time>
      </trkpt>
      <trkpt lat="37.990288" lon="-1.134239">
        <ele>103.955</ele>
        <time>2017-03-18T18:10:40Z</time>
      </trkpt>
      <trkpt lat="37.990357" lon="-1.134166">
        <ele>106.607</ele>
        <time>2017-03-18T18:10:49Z</time>
      </trkpt>
      <trkpt lat="37.990370" lon="-1.134049">
        <ele>106.917</ele>
        <time>2017-03-18T18:10:52Z</time>
      </trkpt>
      <trkpt lat="37.990369" lon="-1.133909">
        <ele>107.108</ele>
        <time>2017-03-18T18:10:56Z</time>
      </trkpt>
      <trkpt lat="37.990341" lon="-1.133792">
        <ele>107.656</ele>
        <time>2017-03-18T18:11:00Z</time>
      </trkpt>
      <trkpt lat="37.990293" lon="-1.133693">
        <ele>109.831</ele>
        <time>2017-03-18T18:11:07Z</time>
      </trkpt>
      <trkpt lat="37.990231" lon="-1.133604">
        <ele>110.113</ele>
        <time>2017-03-18T18:11:11Z</time>
      </trkpt>
      <trkpt lat="37.990178" lon="-1.133495">
        <ele>109.358</ele>
        <time>2017-03-18T18:11:15Z</time>
      </trkpt>
      <trkpt lat="37.990127" lon="-1.133401">
        <ele>106.566</ele>
        <time>2017-03-18T18:11:28Z</time>
      </trkpt>
      <trkpt lat="37.990013" lon="-1.133310">
        <ele>106.350</ele>
        <time>2017-03-18T18:11:35Z</time>
      </trkpt>
      <trkpt lat="37.989919" lon="-1.133233">
        <ele>106.616</ele>
        <time>2017-03-18T18:11:39Z</time>
      </trkpt>
      <trkpt lat="37.989848" lon="-1.133159">
        <ele>106.716</ele>
        <time>2017-03-18T18:11:42Z</time>
      </trkpt>
      <trkpt lat="37.989766" lon="-1.133058">
        <ele>106.378</ele>
        <time>2017-03-18T18:11:45Z</time>
      </trkpt>
      <trkpt lat="37.989695" lon="-1.132971">
        <ele>106.233</ele>
        <time>2017-03-18T18:11:48Z</time>
      </trkpt>
      <trkpt lat="37.989641" lon="-1.132862">
        <ele>106.326</ele>
        <time>2017-03-18T18:11:52Z</time>
      </trkpt>
      <trkpt lat="37.989578" lon="-1.132752">
        <ele>107.208</ele>
        <time>2017-03-18T18:12:00Z</time>
      </trkpt>
      <trkpt lat="37.989500" lon="-1.132692">
        <ele>108.698</ele>
        <time>2017-03-18T18:12:04Z</time>
      </trkpt>
      <trkpt lat="37.989405" lon="-1.132672">
        <ele>109.663</ele>
        <time>2017-03-18T18:12:42Z</time>
      </trkpt>
      <trkpt lat="37.989308" lon="-1.132626">
        <ele>111.335</ele>
        <time>2017-03-18T18:13:07Z</time>
      </trkpt>
      <trkpt lat="37.989265" lon="-1.132481">
        <ele>111.450</ele>
        <time>2017-03-18T18:13:10Z</time>
      </trkpt>
      <trkpt lat="37.989208" lon="-1.132336">
        <ele>111.158</ele>
        <time>2017-03-18T18:13:13Z</time>
      </trkpt>
      <trkpt lat="37.989128" lon="-1.132215">
        <ele>110.822</ele>
        <time>2017-03-18T18:13:16Z</time>
      </trkpt>
      <trkpt lat="37.989018" lon="-1.132175">
        <ele>111.478</ele>
        <time>2017-03-18T18:13:20Z</time>
      </trkpt>
      <trkpt lat="37.988927" lon="-1.132165">
        <ele>112.298</ele>
        <time>2017-03-18T18:13:23Z</time>
      </trkpt>
      <trkpt lat="37.988820" lon="-1.132139">
        <ele>113.681</ele>
        <time>2017-03-18T18:13:26Z</time>
      </trkpt>
      <trkpt lat="37.988707" lon="-1.132157">
        <ele>126.761</ele>
        <time>2017-03-18T18:13:59Z</time>
      </trkpt>
      <trkpt lat="37.988615" lon="-1.132154">
        <ele>138.317</ele>
        <time>2017-03-18T18:14:01Z</time>
      </trkpt>
      <trkpt lat="37.988480" lon="-1.132150">
        <ele>153.308</ele>
        <time>2017-03-18T18:14:03Z</time>
      </trkpt>
      <trkpt lat="37.988386" lon="-1.132181">
        <ele>162.989</ele>
        <time>2017-03-18T18:14:05Z</time>
      </trkpt>
      <trkpt lat="37.988274" lon="-1.132179">
        <ele>168.924</ele>
        <time>2017-03-18T18:14:07Z</time>
      </trkpt>
      <trkpt lat="37.988182" lon="-1.132190">
        <ele>171.996</ele>
        <time>2017-03-18T18:14:09Z</time>
      </trkpt>
      <trkpt lat="37.988063" lon="-1.132195">
        <ele>172.921</ele>
        <time>2017-03-18T18:14:11Z</time>
      </trkpt>
      <trkpt lat="37.987924" lon="-1.132176">
        <ele>171.239</ele>
        <time>2017-03-18T18:14:13Z</time>
      </trkpt>
      <trkpt lat="37.987818" lon="-1.132168">
        <ele>165.783</ele>
        <time>2017-03-18T18:14:15Z</time>
      </trkpt>
      <trkpt lat="37.987703" lon="-1.132126">
        <ele>155.659</ele>
        <time>2017-03-18T18:14:17Z</time>
      </trkpt>
      <trkpt lat="37.987598" lon="-1.132109">
        <ele>149.959</ele>
        <time>2017-03-18T18:14:20Z</time>
      </trkpt>
      <trkpt lat="37.987489" lon="-1.132100">
        <ele>146.811</ele>
        <time>2017-03-18T18:14:22Z</time>
      </trkpt>
      <trkpt lat="37.987376" lon="-1.132117">
        <ele>144.721</ele>
        <time>2017-03-18T18:14:24Z</time>
      </trkpt>
      <trkpt lat="37.987253" lon="-1.132148">
        <ele>142.903</ele>
        <time>2017-03-18T18:14:26Z</time>
      </trkpt>
      <trkpt lat="37.987153" lon="-1.132151">
        <ele>141.408</ele>
        <time>2017-03-18T18:14:28Z</time>
      </trkpt>
      <trkpt lat="37.987041" lon="-1.132120">
        <ele>141.282</ele>
        <time>2017-03-18T18:14:31Z</time>
      </trkpt>
      <trkpt lat="37.986907" lon="-1.132094">
        <ele>142.297</ele>
        <time>2017-03-18T18:14:34Z</time>
      </trkpt>
      <trkpt lat="37.986792" lon="-1.132115">
        <ele>143.819</ele>
        <time>2017-03-18T18:14:36Z</time>
      </trkpt>
      <trkpt lat="37.986665" lon="-1.132124">
        <ele>146.614</ele>
        <time>2017-03-18T18:14:37Z</time>
      </trkpt>
      <trkpt lat="37.986553" lon="-1.132139">
        <ele>148.642</ele>
        <time>2017-03-18T18:14:39Z</time>
      </trkpt>
      <trkpt lat="37.986450" lon="-1.132148">
        <ele>149.156</ele>
        <time>2017-03-18T18:14:41Z</time>
      </trkpt>
      <trkpt lat="37.986358" lon="-1.132119">
        <ele>142.712</ele>
        <time>2017-03-18T18:14:43Z</time>
      </trkpt>
      <trkpt lat="37.986254" lon="-1.132100">
        <ele>136.812</ele>
        <time>2017-03-18T18:14:45Z</time>
      </trkpt>
      <trkpt lat="37.986156" lon="-1.132075">
        <ele>131.016</ele>
        <time>2017-03-18T18:14:47Z</time>
      </trkpt>
      <trkpt lat="37.986047" lon="-1.132080">
        <ele>125.176</ele>
        <time>2017-03-18T18:14:49Z</time>
      </trkpt>
      <trkpt lat="37.985935" lon="-1.132081">
        <ele>120.613</ele>
        <time>2017-03-18T18:14:51Z</time>
      </trkpt>
      <trkpt lat="37.985832" lon="-1.132068">
        <ele>118.108</ele>
        <time>2017-03-18T18:14:53Z</time>
      </trkpt>
      <trkpt lat="37.985716" lon="-1.132048">
        <ele>117.112</ele>
        <time>2017-03-18T18:14:55Z</time>
      </trkpt>
      <trkpt lat="37.985605" lon="-1.132026">
        <ele>117.737</ele>
        <time>2017-03-18T18:14:57Z</time>
      </trkpt>
      <trkpt lat="37.985483" lon="-1.131995">
        <ele>118.979</ele>
        <time>2017-03-18T18:14:59Z</time>
      </trkpt>
      <trkpt lat="37.985388" lon="-1.131961">
        <ele>120.824</ele>
        <time>2017-03-18T18:15:01Z</time>
      </trkpt>
      <trkpt lat="37.985289" lon="-1.131928">
        <ele>122.232</ele>
        <time>2017-03-18T18:15:03Z</time>
      </trkpt>
      <trkpt lat="37.985200" lon="-1.131888">
        <ele>121.376</ele>
        <time>2017-03-18T18:15:05Z</time>
      </trkpt>
      <trkpt lat="37.985101" lon="-1.131857">
        <ele>118.462</ele>
        <time>2017-03-18T18:15:07Z</time>
      </trkpt>
      <trkpt lat="37.984967" lon="-1.131821">
        <ele>116.372</ele>
        <time>2017-03-18T18:15:10Z</time>
      </trkpt>
      <trkpt lat="37.984874" lon="-1.131812">
        <ele>116.067</ele>
        <time>2017-03-18T18:15:12Z</time>
      </trkpt>
      <trkpt lat="37.984766" lon="-1.131804">
        <ele>117.281</ele>
        <time>2017-03-18T18:15:14Z</time>
      </trkpt>
      <trkpt lat="37.984654" lon="-1.131767">
        <ele>119.119</ele>
        <time>2017-03-18T18:15:16Z</time>
      </trkpt>
      <trkpt lat="37.984545" lon="-1.131721">
        <ele>120.808</ele>
        <time>2017-03-18T18:15:18Z</time>
      </trkpt>
      <trkpt lat="37.984407" lon="-1.131682">
        <ele>121.657</ele>
        <time>2017-03-18T18:15:20Z</time>
      </trkpt>
      <trkpt lat="37.984290" lon="-1.131674">
        <ele>121.262</ele>
        <time>2017-03-18T18:15:22Z</time>
      </trkpt>
      <trkpt lat="37.984179" lon="-1.131678">
        <ele>121.624</ele>
        <time>2017-03-18T18:15:24Z</time>
      </trkpt>
      <trkpt lat="37.984070" lon="-1.131675">
        <ele>123.659</ele>
        <time>2017-03-18T18:15:26Z</time>
      </trkpt>
      <trkpt lat="37.983957" lon="-1.131686">
        <ele>125.137</ele>
        <time>2017-03-18T18:15:30Z</time>
      </trkpt>
      <trkpt lat="37.983841" lon="-1.131712">
        <ele>125.541</ele>
        <time>2017-03-18T18:15:34Z</time>
      </trkpt>
      <trkpt lat="37.983633" lon="-1.131705">
        <ele>128.017</ele>
        <time>2017-03-18T18:15:44Z</time>
      </trkpt>
      <trkpt lat="37.983573" lon="-1.131577">
        <ele>128.537</ele>
        <time>2017-03-18T18:15:47Z</time>
      </trkpt>
      <trkpt lat="37.983494" lon="-1.131486">
        <ele>128.261</ele>
        <time>2017-03-18T18:15:54Z</time>
      </trkpt>
      <trkpt lat="37.983414" lon="-1.131404">
        <ele>128.121</ele>
        <time>2017-03-18T18:15:58Z</time>
      </trkpt>
      <trkpt lat="37.983377" lon="-1.131281">
        <ele>127.013</ele>
        <time>2017-03-18T18:16:01Z</time>
      </trkpt>
      <trkpt lat="37.983356" lon="-1.131135">
        <ele>125.408</ele>
        <time>2017-03-18T18:16:04Z</time>
      </trkpt>
      <trkpt lat="37.983334" lon="-1.131015">
        <ele>123.857</ele>
        <time>2017-03-18T18:16:07Z</time>
      </trkpt>
      <trkpt lat="37.983293" lon="-1.130905">
        <ele>122.352</ele>
        <time>2017-03-18T18:16:10Z</time>
      </trkpt>
      <trkpt lat="37.983241" lon="-1.130764">
        <ele>119.494</ele>
        <time>2017-03-18T18:16:16Z</time>
      </trkpt>
      <trkpt lat="37.983204" lon="-1.130633">
        <ele>118.159</ele>
        <time>2017-03-18T18:16:19Z</time>
      </trkpt>
      <trkpt lat="37.983170" lon="-1.130525">
        <ele>116.997</ele>
        <time>2017-03-18T18:16:22Z</time>
      </trkpt>
      <trkpt lat="37.983128" lon="-1.130415">
        <ele>115.311</ele>
        <time>2017-03-18T18:16:26Z</time>
      </trkpt>
      <trkpt lat="37.983084" lon="-1.130302">
        <ele>114.117</ele>
        <time>2017-03-18T18:16:30Z</time>
      </trkpt>
      <trkpt lat="37.983069" lon="-1.130182">
        <ele>113.137</ele>
        <time>2017-03-18T18:16:33Z</time>
      </trkpt>
      <trkpt lat="37.983038" lon="-1.130038">
        <ele>109.075</ele>
        <time>2017-03-18T18:16:36Z</time>
      </trkpt>
      <trkpt lat="37.983009" lon="-1.129903">
        <ele>108.328</ele>
        <time>2017-03-18T18:16:39Z</time>
      </trkpt>
      <trkpt lat="37.982983" lon="-1.129763">
        <ele>107.620</ele>
        <time>2017-03-18T18:16:43Z</time>
      </trkpt>
      <trkpt lat="37.982972" lon="-1.129644">
        <ele>107.308</ele>
        <time>2017-03-18T18:16:48Z</time>
      </trkpt>
      <trkpt lat="37.982992" lon="-1.129512">
        <ele>107.218</ele>
        <time>2017-03-18T18:16:55Z</time>
      </trkpt>
      <trkpt lat="37.982951" lon="-1.129384">
        <ele>107.613</ele>
        <time>2017-03-18T18:16:59Z</time>
      </trkpt>
      <trkpt lat="37.982985" lon="-1.129244">
        <ele>108.595</ele>
        <time>2017-03-18T18:17:03Z</time>
      </trkpt>
      <trkpt lat="37.982942" lon="-1.129107">
        <ele>110.510</ele>
        <time>2017-03-18T18:17:06Z</time>
      </trkpt>
      <trkpt lat="37.982884" lon="-1.128985">
        <ele>111.858</ele>
        <time>2017-03-18T18:17:09Z</time>
      </trkpt>
      <trkpt lat="37.982833" lon="-1.128868">
        <ele>111.892</ele>
        <time>2017-03-18T18:17:11Z</time>
      </trkpt>
      <trkpt lat="37.982796" lon="-1.128741">
        <ele>111.768</ele>
        <time>2017-03-18T18:17:14Z</time>
      </trkpt>
      <trkpt lat="37.982745" lon="-1.128591">
        <ele>110.318</ele>
        <time>2017-03-18T18:17:17Z</time>
      </trkpt>
      <trkpt lat="37.982698" lon="-1.128460">
        <ele>109.145</ele>
        <time>2017-03-18T18:17:20Z</time>
      </trkpt>
      <trkpt lat="37.982662" lon="-1.128353">
        <ele>106.847</ele>
        <time>2017-03-18T18:17:22Z</time>
      </trkpt>
      <trkpt lat="37.982610" lon="-1.128208">
        <ele>106.511</ele>
        <time>2017-03-18T18:17:25Z</time>
      </trkpt>
      <trkpt lat="37.982577" lon="-1.128074">
        <ele>106.008</ele>
        <time>2017-03-18T18:17:29Z</time>
      </trkpt>
      <trkpt lat="37.982581" lon="-1.127954">
        <ele>105.885</ele>
        <time>2017-03-18T18:17:32Z</time>
      </trkpt>
      <trkpt lat="37.982531" lon="-1.127847">
        <ele>105.520</ele>
        <time>2017-03-18T18:17:36Z</time>
      </trkpt>
      <trkpt lat="37.982535" lon="-1.127708">
        <ele>104.992</ele>
        <time>2017-03-18T18:17:39Z</time>
      </trkpt>
      <trkpt lat="37.982509" lon="-1.127550">
        <ele>104.247</ele>
        <time>2017-03-18T18:17:48Z</time>
      </trkpt>
      <trkpt lat="37.982422" lon="-1.127468">
        <ele>104.175</ele>
        <time>2017-03-18T18:17:50Z</time>
      </trkpt>
      <trkpt lat="37.982345" lon="-1.127385">
        <ele>103.179</ele>
        <time>2017-03-18T18:17:54Z</time>
      </trkpt>
      <trkpt lat="37.982312" lon="-1.127273">
        <ele>101.755</ele>
        <time>2017-03-18T18:17:58Z</time>
      </trkpt>
      <trkpt lat="37.982262" lon="-1.127169">
        <ele>100.995</ele>
        <time>2017-03-18T18:18:01Z</time>
      </trkpt>
      <trkpt lat="37.982210" lon="-1.127044">
        <ele>99.022</ele>
        <time>2017-03-18T18:18:05Z</time>
      </trkpt>
      <trkpt lat="37.982149" lon="-1.126948">
        <ele>98.462</ele>
        <time>2017-03-18T18:18:08Z</time>
      </trkpt>
      <trkpt lat="37.982078" lon="-1.126867">
        <ele>97.908</ele>
        <time>2017-03-18T18:18:11Z</time>
      </trkpt>
      <trkpt lat="37.981988" lon="-1.126781">
        <ele>97.508</ele>
        <time>2017-03-18T18:18:15Z</time>
      </trkpt>
      <trkpt lat="37.981907" lon="-1.126712">
        <ele>97.463</ele>
        <time>2017-03-18T18:18:18Z</time>
      </trkpt>
      <trkpt lat="37.981807" lon="-1.126682">
        <ele>97.428</ele>
        <time>2017-03-18T18:18:22Z</time>
      </trkpt>
      <trkpt lat="37.981690" lon="-1.126648">
        <ele>97.490</ele>
        <time>2017-03-18T18:18:26Z</time>
      </trkpt>
      <trkpt lat="37.981597" lon="-1.126588">
        <ele>97.495</ele>
        <time>2017-03-18T18:18:30Z</time>
      </trkpt>
      <trkpt lat="37.981512" lon="-1.126476">
        <ele>97.663</ele>
        <time>2017-03-18T18:18:33Z</time>
      </trkpt>
      <trkpt lat="37.981477" lon="-1.126364">
        <ele>97.967</ele>
        <time>2017-03-18T18:18:36Z</time>
      </trkpt>
      <trkpt lat="37.981427" lon="-1.126248">
        <ele>98.063</ele>
        <time>2017-03-18T18:18:39Z</time>
      </trkpt>
      <trkpt lat="37.981377" lon="-1.126125">
        <ele>98.453</ele>
        <time>2017-03-18T18:18:42Z</time>
      </trkpt>
      <trkpt lat="37.981343" lon="-1.125987">
        <ele>98.794</ele>
        <time>2017-03-18T18:18:45Z</time>
      </trkpt>
      <trkpt lat="37.981296" lon="-1.125857">
        <ele>98.957</ele>
        <time>2017-03-18T18:18:48Z</time>
      </trkpt>
      <trkpt lat="37.981276" lon="-1.125711">
        <ele>98.022</ele>
        <time>2017-03-18T18:18:51Z</time>
      </trkpt>
      <trkpt lat="37.981248" lon="-1.125545">
        <ele>98.408</ele>
        <time>2017-03-18T18:18:54Z</time>
      </trkpt>
      <trkpt lat="37.981231" lon="-1.125432">
        <ele>98.780</ele>
        <time>2017-03-18T18:18:56Z</time>
      </trkpt>
      <trkpt lat="37.981223" lon="-1.125281">
        <ele>99.165</ele>
        <time>2017-03-18T18:18:59Z</time>
      </trkpt>
      <trkpt lat="37.981245" lon="-1.125139">
        <ele>99.347</ele>
        <time>2017-03-18T18:19:02Z</time>
      </trkpt>
      <trkpt lat="37.981265" lon="-1.124977">
        <ele>100.232</ele>
        <time>2017-03-18T18:19:05Z</time>
      </trkpt>
      <trkpt lat="37.981273" lon="-1.124837">
        <ele>100.890</ele>
        <time>2017-03-18T18:19:07Z</time>
      </trkpt>
      <trkpt lat="37.981277" lon="-1.124702">
        <ele>100.384</ele>
        <time>2017-03-18T18:19:09Z</time>
      </trkpt>
      <trkpt lat="37.981302" lon="-1.124554">
        <ele>99.240</ele>
        <time>2017-03-18T18:19:12Z</time>
      </trkpt>
      <trkpt lat="37.981311" lon="-1.124387">
        <ele>98.970</ele>
        <time>2017-03-18T18:19:15Z</time>
      </trkpt>
      <trkpt lat="37.981320" lon="-1.124273">
        <ele>98.633</ele>
        <time>2017-03-18T18:19:17Z</time>
      </trkpt>
      <trkpt lat="37.981328" lon="-1.124151">
        <ele>98.323</ele>
        <time>2017-03-18T18:19:19Z</time>
      </trkpt>
      <trkpt lat="37.981342" lon="-1.124036">
        <ele>98.115</ele>
        <time>2017-03-18T18:19:21Z</time>
      </trkpt>
      <trkpt lat="37.981366" lon="-1.123879">
        <ele>98.908</ele>
        <time>2017-03-18T18:19:25Z</time>
      </trkpt>
      <trkpt lat="37.981388" lon="-1.123728">
        <ele>100.654</ele>
        <time>2017-03-18T18:19:28Z</time>
      </trkpt>
      <trkpt lat="37.981399" lon="-1.123611">
        <ele>100.099</ele>
        <time>2017-03-18T18:19:30Z</time>
      </trkpt>
      <trkpt lat="37.981428" lon="-1.123477">
        <ele>97.541</ele>
        <time>2017-03-18T18:19:32Z</time>
      </trkpt>
      <trkpt lat="37.981443" lon="-1.123353">
        <ele>96.276</ele>
        <time>2017-03-18T18:19:34Z</time>
      </trkpt>
      <trkpt lat="37.981468" lon="-1.123227">
        <ele>96.924</ele>
        <time>2017-03-18T18:19:37Z</time>
      </trkpt>
      <trkpt lat="37.981493" lon="-1.123066">
        <ele>97.548</ele>
        <time>2017-03-18T18:19:40Z</time>
      </trkpt>
      <trkpt lat="37.981512" lon="-1.122942">
        <ele>97.684</ele>
        <time>2017-03-18T18:19:42Z</time>
      </trkpt>
      <trkpt lat="37.981544" lon="-1.122811">
        <ele>97.534</ele>
        <time>2017-03-18T18:19:45Z</time>
      </trkpt>
      <trkpt lat="37.981579" lon="-1.122687">
        <ele>97.118</ele>
        <time>2017-03-18T18:19:49Z</time>
      </trkpt>
      <trkpt lat="37.981602" lon="-1.122565">
        <ele>97.698</ele>
        <time>2017-03-18T18:19:56Z</time>
      </trkpt>
      <trkpt lat="37.981667" lon="-1.122461">
        <ele>98.717</ele>
        <time>2017-03-18T18:20:01Z</time>
      </trkpt>
      <trkpt lat="37.981707" lon="-1.122349">
        <ele>99.508</ele>
        <time>2017-03-18T18:20:04Z</time>
      </trkpt>
      <trkpt lat="37.981763" lon="-1.122259">
        <ele>100.352</ele>
        <time>2017-03-18T18:20:07Z</time>
      </trkpt>
      <trkpt lat="37.981805" lon="-1.122130">
        <ele>102.037</ele>
        <time>2017-03-18T18:20:12Z</time>
      </trkpt>
      <trkpt lat="37.981833" lon="-1.121936">
        <ele>106.939</ele>
        <time>2017-03-18T18:20:15Z</time>
      </trkpt>
      <trkpt lat="37.981820" lon="-1.121790">
        <ele>106.794</ele>
        <time>2017-03-18T18:20:17Z</time>
      </trkpt>
      <trkpt lat="37.981846" lon="-1.121668">
        <ele>106.192</ele>
        <time>2017-03-18T18:20:20Z</time>
      </trkpt>
      <trkpt lat="37.981854" lon="-1.121493">
        <ele>101.976</ele>
        <time>2017-03-18T18:20:23Z</time>
      </trkpt>
      <trkpt lat="37.981840" lon="-1.121341">
        <ele>101.292</ele>
        <time>2017-03-18T18:20:26Z</time>
      </trkpt>
      <trkpt lat="37.981871" lon="-1.121209">
        <ele>95.822</ele>
        <time>2017-03-18T18:20:29Z</time>
      </trkpt>
      <trkpt lat="37.981872" lon="-1.121051">
        <ele>92.442</ele>
        <time>2017-03-18T18:20:33Z</time>
      </trkpt>
      <trkpt lat="37.981902" lon="-1.120904">
        <ele>92.122</ele>
        <time>2017-03-18T18:20:36Z</time>
      </trkpt>
      <trkpt lat="37.981924" lon="-1.120746">
        <ele>91.914</ele>
        <time>2017-03-18T18:20:39Z</time>
      </trkpt>
      <trkpt lat="37.981942" lon="-1.120628">
        <ele>91.808</ele>
        <time>2017-03-18T18:20:41Z</time>
      </trkpt>
      <trkpt lat="37.981955" lon="-1.120509">
        <ele>91.345</ele>
        <time>2017-03-18T18:20:43Z</time>
      </trkpt>
      <trkpt lat="37.981970" lon="-1.120394">
        <ele>91.120</ele>
        <time>2017-03-18T18:20:45Z</time>
      </trkpt>
      <trkpt lat="37.981996" lon="-1.120227">
        <ele>92.262</ele>
        <time>2017-03-18T18:20:47Z</time>
      </trkpt>
      <trkpt lat="37.982015" lon="-1.120115">
        <ele>92.777</ele>
        <time>2017-03-18T18:20:49Z</time>
      </trkpt>
      <trkpt lat="37.982035" lon="-1.120003">
        <ele>93.165</ele>
        <time>2017-03-18T18:20:51Z</time>
      </trkpt>
      <trkpt lat="37.982065" lon="-1.119848">
        <ele>92.549</ele>
        <time>2017-03-18T18:20:54Z</time>
      </trkpt>
      <trkpt lat="37.982097" lon="-1.119697">
        <ele>89.585</ele>
        <time>2017-03-18T18:20:57Z</time>
      </trkpt>
      <trkpt lat="37.982160" lon="-1.119513">
        <ele>89.325</ele>
        <time>2017-03-18T18:21:01Z</time>
      </trkpt>
      <trkpt lat="37.982189" lon="-1.119382">
        <ele>89.299</ele>
        <time>2017-03-18T18:21:04Z</time>
      </trkpt>
      <trkpt lat="37.982191" lon="-1.119259">
        <ele>89.307</ele>
        <time>2017-03-18T18:21:06Z</time>
      </trkpt>
      <trkpt lat="37.982200" lon="-1.119117">
        <ele>90.027</ele>
        <time>2017-03-18T18:21:08Z</time>
      </trkpt>
      <trkpt lat="37.982209" lon="-1.119003">
        <ele>91.308</ele>
        <time>2017-03-18T18:21:10Z</time>
      </trkpt>
      <trkpt lat="37.982224" lon="-1.118862">
        <ele>92.250</ele>
        <time>2017-03-18T18:21:12Z</time>
      </trkpt>
      <trkpt lat="37.982237" lon="-1.118723">
        <ele>92.775</ele>
        <time>2017-03-18T18:21:15Z</time>
      </trkpt>
      <trkpt lat="37.982246" lon="-1.118594">
        <ele>92.757</ele>
        <time>2017-03-18T18:21:18Z</time>
      </trkpt>
      <trkpt lat="37.982266" lon="-1.118475">
        <ele>93.082</ele>
        <time>2017-03-18T18:21:21Z</time>
      </trkpt>
      <trkpt lat="37.982293" lon="-1.118361">
        <ele>93.460</ele>
        <time>2017-03-18T18:21:24Z</time>
      </trkpt>
      <trkpt lat="37.982311" lon="-1.118233">
        <ele>94.354</ele>
        <time>2017-03-18T18:21:27Z</time>
      </trkpt>
      <trkpt lat="37.982327" lon="-1.118107">
        <ele>94.350</ele>
        <time>2017-03-18T18:21:29Z</time>
      </trkpt>
      <trkpt lat="37.982339" lon="-1.117933">
        <ele>92.840</ele>
        <time>2017-03-18T18:21:32Z</time>
      </trkpt>
      <trkpt lat="37.982354" lon="-1.117809">
        <ele>92.689</ele>
        <time>2017-03-18T18:21:34Z</time>
      </trkpt>
      <trkpt lat="37.982372" lon="-1.117685">
        <ele>91.906</ele>
        <time>2017-03-18T18:21:36Z</time>
      </trkpt>
      <trkpt lat="37.982385" lon="-1.117566">
        <ele>91.926</ele>
        <time>2017-03-18T18:21:38Z</time>
      </trkpt>
      <trkpt lat="37.982394" lon="-1.117448">
        <ele>91.708</ele>
        <time>2017-03-18T18:21:40Z</time>
      </trkpt>
      <trkpt lat="37.982410" lon="-1.117330">
        <ele>90.899</ele>
        <time>2017-03-18T18:21:42Z</time>
      </trkpt>
      <trkpt lat="37.982426" lon="-1.117206">
        <ele>90.374</ele>
        <time>2017-03-18T18:21:44Z</time>
      </trkpt>
      <trkpt lat="37.982447" lon="-1.117081">
        <ele>89.616</ele>
        <time>2017-03-18T18:21:46Z</time>
      </trkpt>
      <trkpt lat="37.982463" lon="-1.116954">
        <ele>88.951</ele>
        <time>2017-03-18T18:21:48Z</time>
      </trkpt>
      <trkpt lat="37.982481" lon="-1.116828">
        <ele>88.999</ele>
        <time>2017-03-18T18:21:50Z</time>
      </trkpt>
      <trkpt lat="37.982497" lon="-1.116709">
        <ele>88.993</ele>
        <time>2017-03-18T18:21:52Z</time>
      </trkpt>
      <trkpt lat="37.982515" lon="-1.116584">
        <ele>88.679</ele>
        <time>2017-03-18T18:21:55Z</time>
      </trkpt>
      <trkpt lat="37.982529" lon="-1.116453">
        <ele>88.559</ele>
        <time>2017-03-18T18:21:57Z</time>
      </trkpt>
      <trkpt lat="37.982547" lon="-1.116323">
        <ele>87.837</ele>
        <time>2017-03-18T18:21:59Z</time>
      </trkpt>
      <trkpt lat="37.982568" lon="-1.116199">
        <ele>87.449</ele>
        <time>2017-03-18T18:22:01Z</time>
      </trkpt>
      <trkpt lat="37.982578" lon="-1.116079">
        <ele>87.013</ele>
        <time>2017-03-18T18:22:03Z</time>
      </trkpt>
      <trkpt lat="37.982590" lon="-1.115961">
        <ele>87.008</ele>
        <time>2017-03-18T18:22:05Z</time>
      </trkpt>
      <trkpt lat="37.982602" lon="-1.115840">
        <ele>87.284</ele>
        <time>2017-03-18T18:22:07Z</time>
      </trkpt>
      <trkpt lat="37.982620" lon="-1.115719">
        <ele>86.699</ele>
        <time>2017-03-18T18:22:09Z</time>
      </trkpt>
      <trkpt lat="37.982640" lon="-1.115598">
        <ele>86.031</ele>
        <time>2017-03-18T18:22:11Z</time>
      </trkpt>
      <trkpt lat="37.982656" lon="-1.115474">
        <ele>85.696</ele>
        <time>2017-03-18T18:22:12Z</time>
      </trkpt>
      <trkpt lat="37.982672" lon="-1.115349">
        <ele>85.694</ele>
        <time>2017-03-18T18:22:14Z</time>
      </trkpt>
      <trkpt lat="37.982686" lon="-1.115230">
        <ele>85.528</ele>
        <time>2017-03-18T18:22:16Z</time>
      </trkpt>
      <trkpt lat="37.982711" lon="-1.115070">
        <ele>86.444</ele>
        <time>2017-03-18T18:22:19Z</time>
      </trkpt>
      <trkpt lat="37.982736" lon="-1.114920">
        <ele>87.124</ele>
        <time>2017-03-18T18:22:22Z</time>
      </trkpt>
      <trkpt lat="37.982755" lon="-1.114795">
        <ele>87.612</ele>
        <time>2017-03-18T18:22:25Z</time>
      </trkpt>
      <trkpt lat="37.982783" lon="-1.114674">
        <ele>88.032</ele>
        <time>2017-03-18T18:22:28Z</time>
      </trkpt>
      <trkpt lat="37.982774" lon="-1.114523">
        <ele>88.105</ele>
        <time>2017-03-18T18:22:31Z</time>
      </trkpt>
      <trkpt lat="37.982807" lon="-1.114408">
        <ele>88.108</ele>
        <time>2017-03-18T18:22:39Z</time>
      </trkpt>
      <trkpt lat="37.982840" lon="-1.114269">
        <ele>88.862</ele>
        <time>2017-03-18T18:22:44Z</time>
      </trkpt>
      <trkpt lat="37.982857" lon="-1.114129">
        <ele>90.417</ele>
        <time>2017-03-18T18:22:47Z</time>
      </trkpt>
      <trkpt lat="37.982875" lon="-1.113988">
        <ele>91.679</ele>
        <time>2017-03-18T18:22:49Z</time>
      </trkpt>
      <trkpt lat="37.982881" lon="-1.113796">
        <ele>92.074</ele>
        <time>2017-03-18T18:22:52Z</time>
      </trkpt>
      <trkpt lat="37.982881" lon="-1.113677">
        <ele>92.412</ele>
        <time>2017-03-18T18:22:54Z</time>
      </trkpt>
      <trkpt lat="37.982890" lon="-1.113563">
        <ele>91.836</ele>
        <time>2017-03-18T18:22:56Z</time>
      </trkpt>
      <trkpt lat="37.982889" lon="-1.113431">
        <ele>90.212</ele>
        <time>2017-03-18T18:22:58Z</time>
      </trkpt>
      <trkpt lat="37.982905" lon="-1.113314">
        <ele>88.772</ele>
        <time>2017-03-18T18:23:00Z</time>
      </trkpt>
      <trkpt lat="37.982927" lon="-1.113189">
        <ele>87.782</ele>
        <time>2017-03-18T18:23:03Z</time>
      </trkpt>
      <trkpt lat="37.982940" lon="-1.113050">
        <ele>86.543</ele>
        <time>2017-03-18T18:23:05Z</time>
      </trkpt>
      <trkpt lat="37.982957" lon="-1.112918">
        <ele>85.917</ele>
        <time>2017-03-18T18:23:07Z</time>
      </trkpt>
      <trkpt lat="37.982975" lon="-1.112777">
        <ele>86.208</ele>
        <time>2017-03-18T18:23:09Z</time>
      </trkpt>
      <trkpt lat="37.982992" lon="-1.112632">
        <ele>86.559</ele>
        <time>2017-03-18T18:23:11Z</time>
      </trkpt>
      <trkpt lat="37.983007" lon="-1.112486">
        <ele>87.274</ele>
        <time>2017-03-18T18:23:13Z</time>
      </trkpt>
      <trkpt lat="37.983024" lon="-1.112344">
        <ele>87.126</ele>
        <time>2017-03-18T18:23:15Z</time>
      </trkpt>
      <trkpt lat="37.983035" lon="-1.112200">
        <ele>86.721</ele>
        <time>2017-03-18T18:23:17Z</time>
      </trkpt>
      <trkpt lat="37.983045" lon="-1.112066">
        <ele>86.449</ele>
        <time>2017-03-18T18:23:19Z</time>
      </trkpt>
      <trkpt lat="37.983042" lon="-1.111932">
        <ele>87.033</ele>
        <time>2017-03-18T18:23:21Z</time>
      </trkpt>
      <trkpt lat="37.983026" lon="-1.111732">
        <ele>88.139</ele>
        <time>2017-03-18T18:23:23Z</time>
      </trkpt>
      <trkpt lat="37.983005" lon="-1.111607">
        <ele>89.029</ele>
        <time>2017-03-18T18:23:25Z</time>
      </trkpt>
      <trkpt lat="37.982997" lon="-1.111481">
        <ele>90.485</ele>
        <time>2017-03-18T18:23:27Z</time>
      </trkpt>
      <trkpt lat="37.983005" lon="-1.111353">
        <ele>91.789</ele>
        <time>2017-03-18T18:23:29Z</time>
      </trkpt>
      <trkpt lat="37.983016" lon="-1.111222">
        <ele>91.717</ele>
        <time>2017-03-18T18:23:31Z</time>
      </trkpt>
      <trkpt lat="37.983032" lon="-1.111093">
        <ele>91.808</ele>
        <time>2017-03-18T18:23:33Z</time>
      </trkpt>
      <trkpt lat="37.983047" lon="-1.110962">
        <ele>92.189</ele>
        <time>2017-03-18T18:23:35Z</time>
      </trkpt>
      <trkpt lat="37.983060" lon="-1.110833">
        <ele>92.314</ele>
        <time>2017-03-18T18:23:37Z</time>
      </trkpt>
      <trkpt lat="37.983072" lon="-1.110702">
        <ele>91.776</ele>
        <time>2017-03-18T18:23:39Z</time>
      </trkpt>
      <trkpt lat="37.983089" lon="-1.110566">
        <ele>91.261</ele>
        <time>2017-03-18T18:23:41Z</time>
      </trkpt>
      <trkpt lat="37.983106" lon="-1.110433">
        <ele>90.559</ele>
        <time>2017-03-18T18:23:43Z</time>
      </trkpt>
      <trkpt lat="37.983122" lon="-1.110303">
        <ele>90.353</ele>
        <time>2017-03-18T18:23:45Z</time>
      </trkpt>
      <trkpt lat="37.983138" lon="-1.110178">
        <ele>90.369</ele>
        <time>2017-03-18T18:23:47Z</time>
      </trkpt>
      <trkpt lat="37.983153" lon="-1.110057">
        <ele>90.159</ele>
        <time>2017-03-18T18:23:49Z</time>
      </trkpt>
      <trkpt lat="37.983161" lon="-1.109932">
        <ele>89.519</ele>
        <time>2017-03-18T18:23:51Z</time>
      </trkpt>
      <trkpt lat="37.983162" lon="-1.109807">
        <ele>89.209</ele>
        <time>2017-03-18T18:23:53Z</time>
      </trkpt>
      <trkpt lat="37.983161" lon="-1.109685">
        <ele>89.519</ele>
        <time>2017-03-18T18:23:55Z</time>
      </trkpt>
      <trkpt lat="37.983166" lon="-1.109565">
        <ele>90.508</ele>
        <time>2017-03-18T18:23:57Z</time>
      </trkpt>
      <trkpt lat="37.983179" lon="-1.109449">
        <ele>91.032</ele>
        <time>2017-03-18T18:23:59Z</time>
      </trkpt>
      <trkpt lat="37.983189" lon="-1.109329">
        <ele>91.037</ele>
        <time>2017-03-18T18:24:01Z</time>
      </trkpt>
      <trkpt lat="37.983199" lon="-1.109211">
        <ele>91.129</ele>
        <time>2017-03-18T18:24:03Z</time>
      </trkpt>
      <trkpt lat="37.983213" lon="-1.109094">
        <ele>91.434</ele>
        <time>2017-03-18T18:24:05Z</time>
      </trkpt>
      <trkpt lat="37.983225" lon="-1.108978">
        <ele>91.332</ele>
        <time>2017-03-18T18:24:07Z</time>
      </trkpt>
      <trkpt lat="37.983234" lon="-1.108862">
        <ele>91.076</ele>
        <time>2017-03-18T18:24:09Z</time>
      </trkpt>
      <trkpt lat="37.983253" lon="-1.108737">
        <ele>91.162</ele>
        <time>2017-03-18T18:24:11Z</time>
      </trkpt>
      <trkpt lat="37.983283" lon="-1.108610">
        <ele>90.852</ele>
        <time>2017-03-18T18:24:13Z</time>
      </trkpt>
      <trkpt lat="37.983307" lon="-1.108497">
        <ele>90.799</ele>
        <time>2017-03-18T18:24:15Z</time>
      </trkpt>
      <trkpt lat="37.983333" lon="-1.108374">
        <ele>89.507</ele>
        <time>2017-03-18T18:24:17Z</time>
      </trkpt>
      <trkpt lat="37.983378" lon="-1.108228">
        <ele>90.127</ele>
        <time>2017-03-18T18:24:20Z</time>
      </trkpt>
      <trkpt lat="37.983448" lon="-1.108088">
        <ele>92.708</ele>
        <time>2017-03-18T18:24:24Z</time>
      </trkpt>
      <trkpt lat="37.983519" lon="-1.107980">
        <ele>93.790</ele>
        <time>2017-03-18T18:24:26Z</time>
      </trkpt>
      <trkpt lat="37.983575" lon="-1.107845">
        <ele>94.735</ele>
        <time>2017-03-18T18:24:28Z</time>
      </trkpt>
      <trkpt lat="37.983608" lon="-1.107715">
        <ele>95.977</ele>
        <time>2017-03-18T18:24:30Z</time>
      </trkpt>
      <trkpt lat="37.983716" lon="-1.107331">
        <ele>95.542</ele>
        <time>2017-03-18T18:24:36Z</time>
      </trkpt>
      <trkpt lat="37.983725" lon="-1.107205">
        <ele>95.470</ele>
        <time>2017-03-18T18:24:38Z</time>
      </trkpt>
      <trkpt lat="37.983731" lon="-1.107072">
        <ele>94.344</ele>
        <time>2017-03-18T18:24:40Z</time>
      </trkpt>
      <trkpt lat="37.983766" lon="-1.106887">
        <ele>93.680</ele>
        <time>2017-03-18T18:24:42Z</time>
      </trkpt>
      <trkpt lat="37.983806" lon="-1.106736">
        <ele>94.170</ele>
        <time>2017-03-18T18:24:45Z</time>
      </trkpt>
      <trkpt lat="37.983864" lon="-1.106589">
        <ele>94.517</ele>
        <time>2017-03-18T18:24:48Z</time>
      </trkpt>
      <trkpt lat="37.983919" lon="-1.106493">
        <ele>96.087</ele>
        <time>2017-03-18T18:24:50Z</time>
      </trkpt>
      <trkpt lat="37.983969" lon="-1.106377">
        <ele>97.815</ele>
        <time>2017-03-18T18:24:52Z</time>
      </trkpt>
      <trkpt lat="37.984014" lon="-1.106240">
        <ele>97.908</ele>
        <time>2017-03-18T18:24:54Z</time>
      </trkpt>
      <trkpt lat="37.984066" lon="-1.106099">
        <ele>96.562</ele>
        <time>2017-03-18T18:24:56Z</time>
      </trkpt>
      <trkpt lat="37.984091" lon="-1.105977">
        <ele>96.677</ele>
        <time>2017-03-18T18:24:58Z</time>
      </trkpt>
      <trkpt lat="37.984121" lon="-1.105860">
        <ele>96.849</ele>
        <time>2017-03-18T18:25:00Z</time>
      </trkpt>
      <trkpt lat="37.984150" lon="-1.105742">
        <ele>96.064</ele>
        <time>2017-03-18T18:25:02Z</time>
      </trkpt>
      <trkpt lat="37.984184" lon="-1.105567">
        <ele>94.822</ele>
        <time>2017-03-18T18:25:05Z</time>
      </trkpt>
      <trkpt lat="37.984226" lon="-1.105452">
        <ele>93.276</ele>
        <time>2017-03-18T18:25:07Z</time>
      </trkpt>
      <trkpt lat="37.984267" lon="-1.105287">
        <ele>92.382</ele>
        <time>2017-03-18T18:25:10Z</time>
      </trkpt>
      <trkpt lat="37.984309" lon="-1.105155">
        <ele>92.882</ele>
        <time>2017-03-18T18:25:12Z</time>
      </trkpt>
      <trkpt lat="37.984349" lon="-1.105026">
        <ele>93.337</ele>
        <time>2017-03-18T18:25:14Z</time>
      </trkpt>
      <trkpt lat="37.984394" lon="-1.104909">
        <ele>93.549</ele>
        <time>2017-03-18T18:25:16Z</time>
      </trkpt>
      <trkpt lat="37.984440" lon="-1.104799">
        <ele>94.013</ele>
        <time>2017-03-18T18:25:18Z</time>
      </trkpt>
      <trkpt lat="37.984489" lon="-1.104678">
        <ele>93.908</ele>
        <time>2017-03-18T18:25:20Z</time>
      </trkpt>
      <trkpt lat="37.984534" lon="-1.104554">
        <ele>93.314</ele>
        <time>2017-03-18T18:25:22Z</time>
      </trkpt>
      <trkpt lat="37.984581" lon="-1.104432">
        <ele>92.719</ele>
        <time>2017-03-18T18:25:24Z</time>
      </trkpt>
      <trkpt lat="37.984628" lon="-1.104310">
        <ele>92.371</ele>
        <time>2017-03-18T18:25:26Z</time>
      </trkpt>
      <trkpt lat="37.984673" lon="-1.104195">
        <ele>92.486</ele>
        <time>2017-03-18T18:25:28Z</time>
      </trkpt>
      <trkpt lat="37.984721" lon="-1.104068">
        <ele>91.684</ele>
        <time>2017-03-18T18:25:30Z</time>
      </trkpt>
      <trkpt lat="37.984771" lon="-1.103953">
        <ele>90.578</ele>
        <time>2017-03-18T18:25:32Z</time>
      </trkpt>
      <trkpt lat="37.984838" lon="-1.103836">
        <ele>88.964</ele>
        <time>2017-03-18T18:25:34Z</time>
      </trkpt>
      <trkpt lat="37.984913" lon="-1.103720">
        <ele>86.774</ele>
        <time>2017-03-18T18:25:36Z</time>
      </trkpt>
      <trkpt lat="37.984985" lon="-1.103623">
        <ele>85.166</ele>
        <time>2017-03-18T18:25:38Z</time>
      </trkpt>
      <trkpt lat="37.985050" lon="-1.103538">
        <ele>84.329</ele>
        <time>2017-03-18T18:25:40Z</time>
      </trkpt>
      <trkpt lat="37.985104" lon="-1.103443">
        <ele>84.321</ele>
        <time>2017-03-18T18:25:42Z</time>
      </trkpt>
      <trkpt lat="37.985170" lon="-1.103350">
        <ele>84.108</ele>
        <time>2017-03-18T18:25:44Z</time>
      </trkpt>
      <trkpt lat="37.985247" lon="-1.103258">
        <ele>83.817</ele>
        <time>2017-03-18T18:25:46Z</time>
      </trkpt>
      <trkpt lat="37.985319" lon="-1.103174">
        <ele>84.462</ele>
        <time>2017-03-18T18:25:48Z</time>
      </trkpt>
      <trkpt lat="37.985385" lon="-1.103089">
        <ele>86.414</ele>
        <time>2017-03-18T18:25:50Z</time>
      </trkpt>
      <trkpt lat="37.985465" lon="-1.102998">
        <ele>88.529</ele>
        <time>2017-03-18T18:25:53Z</time>
      </trkpt>
      <trkpt lat="37.985544" lon="-1.102910">
        <ele>90.667</ele>
        <time>2017-03-18T18:25:55Z</time>
      </trkpt>
      <trkpt lat="37.985618" lon="-1.102824">
        <ele>93.471</ele>
        <time>2017-03-18T18:25:57Z</time>
      </trkpt>
      <trkpt lat="37.985687" lon="-1.102723">
        <ele>95.877</ele>
        <time>2017-03-18T18:25:59Z</time>
      </trkpt>
      <trkpt lat="37.985755" lon="-1.102629">
        <ele>97.487</ele>
        <time>2017-03-18T18:26:01Z</time>
      </trkpt>
      <trkpt lat="37.985833" lon="-1.102526">
        <ele>97.362</ele>
        <time>2017-03-18T18:26:03Z</time>
      </trkpt>
      <trkpt lat="37.985904" lon="-1.102429">
        <ele>96.683</ele>
        <time>2017-03-18T18:26:05Z</time>
      </trkpt>
      <trkpt lat="37.985979" lon="-1.102338">
        <ele>95.311</ele>
        <time>2017-03-18T18:26:07Z</time>
      </trkpt>
      <trkpt lat="37.986101" lon="-1.102134">
        <ele>95.608</ele>
        <time>2017-03-18T18:26:10Z</time>
      </trkpt>
      <trkpt lat="37.986178" lon="-1.102000">
        <ele>94.547</ele>
        <time>2017-03-18T18:26:13Z</time>
      </trkpt>
      <trkpt lat="37.986245" lon="-1.101875">
        <ele>96.812</ele>
        <time>2017-03-18T18:26:16Z</time>
      </trkpt>
      <trkpt lat="37.986310" lon="-1.101731">
        <ele>100.294</ele>
        <time>2017-03-18T18:26:19Z</time>
      </trkpt>
      <trkpt lat="37.986380" lon="-1.101556">
        <ele>100.119</ele>
        <time>2017-03-18T18:26:22Z</time>
      </trkpt>
      <trkpt lat="37.986415" lon="-1.101446">
        <ele>99.827</ele>
        <time>2017-03-18T18:26:24Z</time>
      </trkpt>
      <trkpt lat="37.986441" lon="-1.101323">
        <ele>98.791</ele>
        <time>2017-03-18T18:26:26Z</time>
      </trkpt>
      <trkpt lat="37.986458" lon="-1.101203">
        <ele>97.597</ele>
        <time>2017-03-18T18:26:28Z</time>
      </trkpt>
      <trkpt lat="37.986480" lon="-1.101062">
        <ele>96.077</ele>
        <time>2017-03-18T18:26:30Z</time>
      </trkpt>
      <trkpt lat="37.986496" lon="-1.100921">
        <ele>94.081</ele>
        <time>2017-03-18T18:26:32Z</time>
      </trkpt>
      <trkpt lat="37.986506" lon="-1.100807">
        <ele>92.361</ele>
        <time>2017-03-18T18:26:34Z</time>
      </trkpt>
      <trkpt lat="37.986511" lon="-1.100630">
        <ele>91.117</ele>
        <time>2017-03-18T18:26:37Z</time>
      </trkpt>
      <trkpt lat="37.986517" lon="-1.100515">
        <ele>90.708</ele>
        <time>2017-03-18T18:26:39Z</time>
      </trkpt>
      <trkpt lat="37.986521" lon="-1.100395">
        <ele>90.989</ele>
        <time>2017-03-18T18:26:41Z</time>
      </trkpt>
      <trkpt lat="37.986524" lon="-1.100280">
        <ele>91.384</ele>
        <time>2017-03-18T18:26:43Z</time>
      </trkpt>
      <trkpt lat="37.986521" lon="-1.100112">
        <ele>91.036</ele>
        <time>2017-03-18T18:26:46Z</time>
      </trkpt>
      <trkpt lat="37.986503" lon="-1.099959">
        <ele>90.991</ele>
        <time>2017-03-18T18:26:49Z</time>
      </trkpt>
      <trkpt lat="37.986484" lon="-1.099817">
        <ele>91.469</ele>
        <time>2017-03-18T18:26:52Z</time>
      </trkpt>
      <trkpt lat="37.986467" lon="-1.099685">
        <ele>90.833</ele>
        <time>2017-03-18T18:26:55Z</time>
      </trkpt>
      <trkpt lat="37.986448" lon="-1.099533">
        <ele>90.559</ele>
        <time>2017-03-18T18:26:58Z</time>
      </trkpt>
      <trkpt lat="37.986420" lon="-1.099366">
        <ele>90.259</ele>
        <time>2017-03-18T18:27:01Z</time>
      </trkpt>
      <trkpt lat="37.986409" lon="-1.099208">
        <ele>90.587</ele>
        <time>2017-03-18T18:27:04Z</time>
      </trkpt>
      <trkpt lat="37.986413" lon="-1.099091">
        <ele>90.742</ele>
        <time>2017-03-18T18:27:06Z</time>
      </trkpt>
      <trkpt lat="37.986415" lon="-1.098937">
        <ele>90.626</ele>
        <time>2017-03-18T18:27:09Z</time>
      </trkpt>
      <trkpt lat="37.986416" lon="-1.098823">
        <ele>91.008</ele>
        <time>2017-03-18T18:27:11Z</time>
      </trkpt>
      <trkpt lat="37.986424" lon="-1.098692">
        <ele>91.459</ele>
        <time>2017-03-18T18:27:14Z</time>
      </trkpt>
      <trkpt lat="37.986428" lon="-1.098532">
        <ele>91.514</ele>
        <time>2017-03-18T18:27:17Z</time>
      </trkpt>
      <trkpt lat="37.986421" lon="-1.098384">
        <ele>91.626</ele>
        <time>2017-03-18T18:27:20Z</time>
      </trkpt>
      <trkpt lat="37.986412" lon="-1.098216">
        <ele>91.211</ele>
        <time>2017-03-18T18:27:24Z</time>
      </trkpt>
      <trkpt lat="37.986397" lon="-1.098094">
        <ele>91.449</ele>
        <time>2017-03-18T18:27:26Z</time>
      </trkpt>
      <trkpt lat="37.986385" lon="-1.097937">
        <ele>91.373</ele>
        <time>2017-03-18T18:27:29Z</time>
      </trkpt>
      <trkpt lat="37.986398" lon="-1.097773">
        <ele>91.619</ele>
        <time>2017-03-18T18:27:32Z</time>
      </trkpt>
      <trkpt lat="37.986412" lon="-1.097624">
        <ele>91.399</ele>
        <time>2017-03-18T18:27:34Z</time>
      </trkpt>
      <trkpt lat="37.986419" lon="-1.097495">
        <ele>91.493</ele>
        <time>2017-03-18T18:27:36Z</time>
      </trkpt>
      <trkpt lat="37.986426" lon="-1.097370">
        <ele>91.565</ele>
        <time>2017-03-18T18:27:38Z</time>
      </trkpt>
      <trkpt lat="37.986444" lon="-1.097249">
        <ele>91.021</ele>
        <time>2017-03-18T18:27:40Z</time>
      </trkpt>
      <trkpt lat="37.986458" lon="-1.097125">
        <ele>91.208</ele>
        <time>2017-03-18T18:27:42Z</time>
      </trkpt>
      <trkpt lat="37.986495" lon="-1.096962">
        <ele>91.370</ele>
        <time>2017-03-18T18:27:45Z</time>
      </trkpt>
      <trkpt lat="37.986541" lon="-1.096809">
        <ele>92.415</ele>
        <time>2017-03-18T18:27:48Z</time>
      </trkpt>
      <trkpt lat="37.986609" lon="-1.096587">
        <ele>92.237</ele>
        <time>2017-03-18T18:27:51Z</time>
      </trkpt>
      <trkpt lat="37.986649" lon="-1.096408">
        <ele>91.072</ele>
        <time>2017-03-18T18:27:54Z</time>
      </trkpt>
      <trkpt lat="37.986668" lon="-1.096284">
        <ele>90.840</ele>
        <time>2017-03-18T18:27:56Z</time>
      </trkpt>
      <trkpt lat="37.986685" lon="-1.096171">
        <ele>92.254</ele>
        <time>2017-03-18T18:27:58Z</time>
      </trkpt>
      <trkpt lat="37.986714" lon="-1.096036">
        <ele>92.060</ele>
        <time>2017-03-18T18:28:00Z</time>
      </trkpt>
      <trkpt lat="37.986738" lon="-1.095920">
        <ele>91.030</ele>
        <time>2017-03-18T18:28:02Z</time>
      </trkpt>
      <trkpt lat="37.986763" lon="-1.095808">
        <ele>90.721</ele>
        <time>2017-03-18T18:28:04Z</time>
      </trkpt>
      <trkpt lat="37.986791" lon="-1.095698">
        <ele>89.941</ele>
        <time>2017-03-18T18:28:06Z</time>
      </trkpt>
      <trkpt lat="37.986816" lon="-1.095574">
        <ele>89.005</ele>
        <time>2017-03-18T18:28:08Z</time>
      </trkpt>
      <trkpt lat="37.986846" lon="-1.095461">
        <ele>88.608</ele>
        <time>2017-03-18T18:28:10Z</time>
      </trkpt>
      <trkpt lat="37.986881" lon="-1.095355">
        <ele>88.483</ele>
        <time>2017-03-18T18:28:12Z</time>
      </trkpt>
      <trkpt lat="37.986919" lon="-1.095236">
        <ele>88.078</ele>
        <time>2017-03-18T18:28:14Z</time>
      </trkpt>
      <trkpt lat="37.986951" lon="-1.095113">
        <ele>88.180</ele>
        <time>2017-03-18T18:28:16Z</time>
      </trkpt>
      <trkpt lat="37.986995" lon="-1.094946">
        <ele>89.635</ele>
        <time>2017-03-18T18:28:19Z</time>
      </trkpt>
      <trkpt lat="37.987036" lon="-1.094823">
        <ele>90.093</ele>
        <time>2017-03-18T18:28:21Z</time>
      </trkpt>
      <trkpt lat="37.987073" lon="-1.094707">
        <ele>90.787</ele>
        <time>2017-03-18T18:28:23Z</time>
      </trkpt>
      <trkpt lat="37.987108" lon="-1.094599">
        <ele>91.333</ele>
        <time>2017-03-18T18:28:25Z</time>
      </trkpt>
      <trkpt lat="37.987145" lon="-1.094479">
        <ele>90.963</ele>
        <time>2017-03-18T18:28:27Z</time>
      </trkpt>
      <trkpt lat="37.987182" lon="-1.094351">
        <ele>90.428</ele>
        <time>2017-03-18T18:28:29Z</time>
      </trkpt>
      <trkpt lat="37.987219" lon="-1.094229">
        <ele>90.189</ele>
        <time>2017-03-18T18:28:31Z</time>
      </trkpt>
      <trkpt lat="37.987257" lon="-1.094124">
        <ele>90.117</ele>
        <time>2017-03-18T18:28:33Z</time>
      </trkpt>
      <trkpt lat="37.987312" lon="-1.093959">
        <ele>89.808</ele>
        <time>2017-03-18T18:28:36Z</time>
      </trkpt>
      <trkpt lat="37.987355" lon="-1.093831">
        <ele>88.233</ele>
        <time>2017-03-18T18:28:38Z</time>
      </trkpt>
      <trkpt lat="37.987389" lon="-1.093710">
        <ele>87.498</ele>
        <time>2017-03-18T18:28:40Z</time>
      </trkpt>
      <trkpt lat="37.987414" lon="-1.093589">
        <ele>86.960</ele>
        <time>2017-03-18T18:28:42Z</time>
      </trkpt>
      <trkpt lat="37.987441" lon="-1.093469">
        <ele>86.455</ele>
        <time>2017-03-18T18:28:44Z</time>
      </trkpt>
      <trkpt lat="37.987474" lon="-1.093331">
        <ele>85.383</ele>
        <time>2017-03-18T18:28:46Z</time>
      </trkpt>
      <trkpt lat="37.987498" lon="-1.093213">
        <ele>85.247</ele>
        <time>2017-03-18T18:28:49Z</time>
      </trkpt>
      <trkpt lat="37.987524" lon="-1.093094">
        <ele>85.653</ele>
        <time>2017-03-18T18:28:51Z</time>
      </trkpt>
      <trkpt lat="37.987551" lon="-1.092977">
        <ele>86.533</ele>
        <time>2017-03-18T18:28:53Z</time>
      </trkpt>
      <trkpt lat="37.987580" lon="-1.092842">
        <ele>86.338</ele>
        <time>2017-03-18T18:28:55Z</time>
      </trkpt>
      <trkpt lat="37.987615" lon="-1.092712">
        <ele>85.270</ele>
        <time>2017-03-18T18:28:57Z</time>
      </trkpt>
      <trkpt lat="37.987649" lon="-1.092586">
        <ele>85.217</ele>
        <time>2017-03-18T18:28:59Z</time>
      </trkpt>
      <trkpt lat="37.987677" lon="-1.092460">
        <ele>85.708</ele>
        <time>2017-03-18T18:29:01Z</time>
      </trkpt>
      <trkpt lat="37.987712" lon="-1.092325">
        <ele>86.364</ele>
        <time>2017-03-18T18:29:03Z</time>
      </trkpt>
      <trkpt lat="37.987744" lon="-1.092197">
        <ele>86.149</ele>
        <time>2017-03-18T18:29:05Z</time>
      </trkpt>
      <trkpt lat="37.987810" lon="-1.091993">
        <ele>84.811</ele>
        <time>2017-03-18T18:29:07Z</time>
      </trkpt>
      <trkpt lat="37.987877" lon="-1.091796">
        <ele>83.966</ele>
        <time>2017-03-18T18:29:10Z</time>
      </trkpt>
      <trkpt lat="37.987925" lon="-1.091681">
        <ele>83.444</ele>
        <time>2017-03-18T18:29:12Z</time>
      </trkpt>
      <trkpt lat="37.987985" lon="-1.091578">
        <ele>83.488</ele>
        <time>2017-03-18T18:29:14Z</time>
      </trkpt>
      <trkpt lat="37.988053" lon="-1.091483">
        <ele>83.964</ele>
        <time>2017-03-18T18:29:16Z</time>
      </trkpt>
      <trkpt lat="37.988125" lon="-1.091373">
        <ele>85.114</ele>
        <time>2017-03-18T18:29:18Z</time>
      </trkpt>
      <trkpt lat="37.988207" lon="-1.091266">
        <ele>87.374</ele>
        <time>2017-03-18T18:29:20Z</time>
      </trkpt>
      <trkpt lat="37.988286" lon="-1.091151">
        <ele>87.756</ele>
        <time>2017-03-18T18:29:22Z</time>
      </trkpt>
      <trkpt lat="37.988357" lon="-1.091044">
        <ele>87.321</ele>
        <time>2017-03-18T18:29:24Z</time>
      </trkpt>
      <trkpt lat="37.988426" lon="-1.090950">
        <ele>88.008</ele>
        <time>2017-03-18T18:29:26Z</time>
      </trkpt>
      <trkpt lat="37.988501" lon="-1.090851">
        <ele>89.178</ele>
        <time>2017-03-18T18:29:28Z</time>
      </trkpt>
      <trkpt lat="37.988583" lon="-1.090769">
        <ele>90.433</ele>
        <time>2017-03-18T18:29:30Z</time>
      </trkpt>
      <trkpt lat="37.988673" lon="-1.090682">
        <ele>91.945</ele>
        <time>2017-03-18T18:29:32Z</time>
      </trkpt>
      <trkpt lat="37.988762" lon="-1.090589">
        <ele>92.790</ele>
        <time>2017-03-18T18:29:34Z</time>
      </trkpt>
      <trkpt lat="37.988862" lon="-1.090501">
        <ele>92.728</ele>
        <time>2017-03-18T18:29:36Z</time>
      </trkpt>
      <trkpt lat="37.988959" lon="-1.090418">
        <ele>93.432</ele>
        <time>2017-03-18T18:29:38Z</time>
      </trkpt>
      <trkpt lat="37.989049" lon="-1.090339">
        <ele>94.668</ele>
        <time>2017-03-18T18:29:40Z</time>
      </trkpt>
      <trkpt lat="37.989140" lon="-1.090267">
        <ele>96.148</ele>
        <time>2017-03-18T18:29:42Z</time>
      </trkpt>
      <trkpt lat="37.989230" lon="-1.090190">
        <ele>98.166</ele>
        <time>2017-03-18T18:29:44Z</time>
      </trkpt>
      <trkpt lat="37.989325" lon="-1.090111">
        <ele>99.829</ele>
        <time>2017-03-18T18:29:46Z</time>
      </trkpt>
      <trkpt lat="37.989425" lon="-1.090027">
        <ele>101.021</ele>
        <time>2017-03-18T18:29:48Z</time>
      </trkpt>
      <trkpt lat="37.989518" lon="-1.089950">
        <ele>102.508</ele>
        <time>2017-03-18T18:29:50Z</time>
      </trkpt>
      <trkpt lat="37.989627" lon="-1.089866">
        <ele>103.477</ele>
        <time>2017-03-18T18:29:52Z</time>
      </trkpt>
      <trkpt lat="37.989736" lon="-1.089775">
        <ele>103.332</ele>
        <time>2017-03-18T18:29:54Z</time>
      </trkpt>
      <trkpt lat="37.989843" lon="-1.089678">
        <ele>102.444</ele>
        <time>2017-03-18T18:29:56Z</time>
      </trkpt>
      <trkpt lat="37.989934" lon="-1.089590">
        <ele>102.399</ele>
        <time>2017-03-18T18:29:58Z</time>
      </trkpt>
      <trkpt lat="37.990027" lon="-1.089499">
        <ele>103.667</ele>
        <time>2017-03-18T18:30:00Z</time>
      </trkpt>
      <trkpt lat="37.990111" lon="-1.089409">
        <ele>105.981</ele>
        <time>2017-03-18T18:30:02Z</time>
      </trkpt>
      <trkpt lat="37.990195" lon="-1.089313">
        <ele>108.177</ele>
        <time>2017-03-18T18:30:04Z</time>
      </trkpt>
      <trkpt lat="37.990281" lon="-1.089218">
        <ele>110.677</ele>
        <time>2017-03-18T18:30:06Z</time>
      </trkpt>
      <trkpt lat="37.990368" lon="-1.089121">
        <ele>112.525</ele>
        <time>2017-03-18T18:30:09Z</time>
      </trkpt>
      <trkpt lat="37.990460" lon="-1.089017">
        <ele>113.126</ele>
        <time>2017-03-18T18:30:11Z</time>
      </trkpt>
      <trkpt lat="37.990552" lon="-1.088913">
        <ele>113.508</ele>
        <time>2017-03-18T18:30:13Z</time>
      </trkpt>
      <trkpt lat="37.990636" lon="-1.088798">
        <ele>112.208</ele>
        <time>2017-03-18T18:30:15Z</time>
      </trkpt>
      <trkpt lat="37.990717" lon="-1.088672">
        <ele>110.573</ele>
        <time>2017-03-18T18:30:17Z</time>
      </trkpt>
      <trkpt lat="37.990807" lon="-1.088534">
        <ele>106.788</ele>
        <time>2017-03-18T18:30:19Z</time>
      </trkpt>
      <trkpt lat="37.990897" lon="-1.088410">
        <ele>103.580</ele>
        <time>2017-03-18T18:30:21Z</time>
      </trkpt>
      <trkpt lat="37.990981" lon="-1.088292">
        <ele>101.165</ele>
        <time>2017-03-18T18:30:23Z</time>
      </trkpt>
      <trkpt lat="37.991055" lon="-1.088176">
        <ele>101.083</ele>
        <time>2017-03-18T18:30:25Z</time>
      </trkpt>
      <trkpt lat="37.991131" lon="-1.088062">
        <ele>100.937</ele>
        <time>2017-03-18T18:30:27Z</time>
      </trkpt>
      <trkpt lat="37.991205" lon="-1.087955">
        <ele>100.453</ele>
        <time>2017-03-18T18:30:29Z</time>
      </trkpt>
      <trkpt lat="37.991278" lon="-1.087856">
        <ele>99.863</ele>
        <time>2017-03-18T18:30:30Z</time>
      </trkpt>
      <trkpt lat="37.991346" lon="-1.087762">
        <ele>99.777</ele>
        <time>2017-03-18T18:30:32Z</time>
      </trkpt>
      <trkpt lat="37.991410" lon="-1.087673">
        <ele>99.561</ele>
        <time>2017-03-18T18:30:34Z</time>
      </trkpt>
      <trkpt lat="37.991486" lon="-1.087575">
        <ele>98.027</ele>
        <time>2017-03-18T18:30:36Z</time>
      </trkpt>
      <trkpt lat="37.991561" lon="-1.087492">
        <ele>96.208</ele>
        <time>2017-03-18T18:30:38Z</time>
      </trkpt>
      <trkpt lat="37.991652" lon="-1.087394">
        <ele>94.878</ele>
        <time>2017-03-18T18:30:41Z</time>
      </trkpt>
      <trkpt lat="37.991735" lon="-1.087299">
        <ele>95.173</ele>
        <time>2017-03-18T18:30:44Z</time>
      </trkpt>
      <trkpt lat="37.991823" lon="-1.087188">
        <ele>96.055</ele>
        <time>2017-03-18T18:30:47Z</time>
      </trkpt>
      <trkpt lat="37.991916" lon="-1.087070">
        <ele>99.610</ele>
        <time>2017-03-18T18:30:50Z</time>
      </trkpt>
      <trkpt lat="37.991993" lon="-1.086986">
        <ele>99.828</ele>
        <time>2017-03-18T18:30:52Z</time>
      </trkpt>
      <trkpt lat="37.992067" lon="-1.086909">
        <ele>99.532</ele>
        <time>2017-03-18T18:30:54Z</time>
      </trkpt>
      <trkpt lat="37.992159" lon="-1.086824">
        <ele>98.048</ele>
        <time>2017-03-18T18:30:56Z</time>
      </trkpt>
      <trkpt lat="37.992258" lon="-1.086751">
        <ele>96.058</ele>
        <time>2017-03-18T18:30:58Z</time>
      </trkpt>
      <trkpt lat="37.992367" lon="-1.086681">
        <ele>93.871</ele>
        <time>2017-03-18T18:31:00Z</time>
      </trkpt>
      <trkpt lat="37.992473" lon="-1.086615">
        <ele>91.341</ele>
        <time>2017-03-18T18:31:02Z</time>
      </trkpt>
      <trkpt lat="37.992561" lon="-1.086556">
        <ele>91.215</ele>
        <time>2017-03-18T18:31:04Z</time>
      </trkpt>
      <trkpt lat="37.992676" lon="-1.086465">
        <ele>94.708</ele>
        <time>2017-03-18T18:31:07Z</time>
      </trkpt>
      <trkpt lat="37.992778" lon="-1.086395">
        <ele>96.328</ele>
        <time>2017-03-18T18:31:09Z</time>
      </trkpt>
      <trkpt lat="37.992879" lon="-1.086334">
        <ele>97.723</ele>
        <time>2017-03-18T18:31:11Z</time>
      </trkpt>
      <trkpt lat="37.992980" lon="-1.086277">
        <ele>98.585</ele>
        <time>2017-03-18T18:31:13Z</time>
      </trkpt>
      <trkpt lat="37.993087" lon="-1.086222">
        <ele>99.090</ele>
        <time>2017-03-18T18:31:15Z</time>
      </trkpt>
      <trkpt lat="37.993200" lon="-1.086165">
        <ele>99.158</ele>
        <time>2017-03-18T18:31:17Z</time>
      </trkpt>
      <trkpt lat="37.993323" lon="-1.086113">
        <ele>97.222</ele>
        <time>2017-03-18T18:31:19Z</time>
      </trkpt>
      <trkpt lat="37.993439" lon="-1.086074">
        <ele>94.948</ele>
        <time>2017-03-18T18:31:21Z</time>
      </trkpt>
      <trkpt lat="37.993555" lon="-1.086029">
        <ele>92.348</ele>
        <time>2017-03-18T18:31:23Z</time>
      </trkpt>
      <trkpt lat="37.993669" lon="-1.085977">
        <ele>89.317</ele>
        <time>2017-03-18T18:31:25Z</time>
      </trkpt>
      <trkpt lat="37.993776" lon="-1.085925">
        <ele>86.887</ele>
        <time>2017-03-18T18:31:27Z</time>
      </trkpt>
      <trkpt lat="37.993873" lon="-1.085874">
        <ele>86.215</ele>
        <time>2017-03-18T18:31:29Z</time>
      </trkpt>
      <trkpt lat="37.993966" lon="-1.085826">
        <ele>87.708</ele>
        <time>2017-03-18T18:31:31Z</time>
      </trkpt>
      <trkpt lat="37.994078" lon="-1.085771">
        <ele>89.012</ele>
        <time>2017-03-18T18:31:33Z</time>
      </trkpt>
      <trkpt lat="37.994175" lon="-1.085718">
        <ele>90.417</ele>
        <time>2017-03-18T18:31:35Z</time>
      </trkpt>
      <trkpt lat="37.994266" lon="-1.085660">
        <ele>91.559</ele>
        <time>2017-03-18T18:31:37Z</time>
      </trkpt>
      <trkpt lat="37.994356" lon="-1.085603">
        <ele>92.664</ele>
        <time>2017-03-18T18:31:39Z</time>
      </trkpt>
      <trkpt lat="37.994456" lon="-1.085531">
        <ele>93.522</ele>
        <time>2017-03-18T18:31:41Z</time>
      </trkpt>
      <trkpt lat="37.994565" lon="-1.085420">
        <ele>97.766</ele>
        <time>2017-03-18T18:31:45Z</time>
      </trkpt>
      <trkpt lat="37.994651" lon="-1.085315">
        <ele>99.232</ele>
        <time>2017-03-18T18:31:47Z</time>
      </trkpt>
      <trkpt lat="37.994730" lon="-1.085199">
        <ele>98.462</ele>
        <time>2017-03-18T18:31:49Z</time>
      </trkpt>
      <trkpt lat="37.994802" lon="-1.085078">
        <ele>96.657</ele>
        <time>2017-03-18T18:31:51Z</time>
      </trkpt>
      <trkpt lat="37.994860" lon="-1.084953">
        <ele>94.100</ele>
        <time>2017-03-18T18:31:53Z</time>
      </trkpt>
      <trkpt lat="37.994913" lon="-1.084838">
        <ele>91.820</ele>
        <time>2017-03-18T18:31:55Z</time>
      </trkpt>
      <trkpt lat="37.994962" lon="-1.084713">
        <ele>89.308</ele>
        <time>2017-03-18T18:31:57Z</time>
      </trkpt>
      <trkpt lat="37.995000" lon="-1.084581">
        <ele>87.936</ele>
        <time>2017-03-18T18:31:59Z</time>
      </trkpt>
      <trkpt lat="37.995027" lon="-1.084442">
        <ele>87.781</ele>
        <time>2017-03-18T18:32:01Z</time>
      </trkpt>
      <trkpt lat="37.995046" lon="-1.084308">
        <ele>88.513</ele>
        <time>2017-03-18T18:32:03Z</time>
      </trkpt>
      <trkpt lat="37.995059" lon="-1.084172">
        <ele>89.338</ele>
        <time>2017-03-18T18:32:05Z</time>
      </trkpt>
      <trkpt lat="37.995080" lon="-1.084035">
        <ele>89.846</ele>
        <time>2017-03-18T18:32:07Z</time>
      </trkpt>
      <trkpt lat="37.995100" lon="-1.083902">
        <ele>89.960</ele>
        <time>2017-03-18T18:32:09Z</time>
      </trkpt>
      <trkpt lat="37.995121" lon="-1.083779">
        <ele>89.716</ele>
        <time>2017-03-18T18:32:10Z</time>
      </trkpt>
      <trkpt lat="37.995143" lon="-1.083666">
        <ele>89.026</ele>
        <time>2017-03-18T18:32:12Z</time>
      </trkpt>
      <trkpt lat="37.995175" lon="-1.083519">
        <ele>88.095</ele>
        <time>2017-03-18T18:32:15Z</time>
      </trkpt>
      <trkpt lat="37.995188" lon="-1.083370">
        <ele>87.149</ele>
        <time>2017-03-18T18:32:18Z</time>
      </trkpt>
      <trkpt lat="37.995192" lon="-1.083229">
        <ele>87.123</ele>
        <time>2017-03-18T18:32:21Z</time>
      </trkpt>
      <trkpt lat="37.995189" lon="-1.083089">
        <ele>87.708</ele>
        <time>2017-03-18T18:32:24Z</time>
      </trkpt>
      <trkpt lat="37.995179" lon="-1.082945">
        <ele>88.250</ele>
        <time>2017-03-18T18:32:27Z</time>
      </trkpt>
      <trkpt lat="37.995166" lon="-1.082806">
        <ele>88.485</ele>
        <time>2017-03-18T18:32:30Z</time>
      </trkpt>
      <trkpt lat="37.995163" lon="-1.082667">
        <ele>87.377</ele>
        <time>2017-03-18T18:32:33Z</time>
      </trkpt>
      <trkpt lat="37.995155" lon="-1.082504">
        <ele>86.232</ele>
        <time>2017-03-18T18:32:36Z</time>
      </trkpt>
      <trkpt lat="37.995139" lon="-1.082392">
        <ele>85.350</ele>
        <time>2017-03-18T18:32:38Z</time>
      </trkpt>
      <trkpt lat="37.995118" lon="-1.082278">
        <ele>84.724</ele>
        <time>2017-03-18T18:32:40Z</time>
      </trkpt>
      <trkpt lat="37.995089" lon="-1.082155">
        <ele>85.050</ele>
        <time>2017-03-18T18:32:42Z</time>
      </trkpt>
      <trkpt lat="37.995053" lon="-1.082042">
        <ele>85.490</ele>
        <time>2017-03-18T18:32:44Z</time>
      </trkpt>
      <trkpt lat="37.995011" lon="-1.081922">
        <ele>85.734</ele>
        <time>2017-03-18T18:32:46Z</time>
      </trkpt>
      <trkpt lat="37.994963" lon="-1.081807">
        <ele>86.355</ele>
        <time>2017-03-18T18:32:48Z</time>
      </trkpt>
      <trkpt lat="37.994910" lon="-1.081697">
        <ele>86.210</ele>
        <time>2017-03-18T18:32:50Z</time>
      </trkpt>
      <trkpt lat="37.994853" lon="-1.081578">
        <ele>86.108</ele>
        <time>2017-03-18T18:32:52Z</time>
      </trkpt>
      <trkpt lat="37.994789" lon="-1.081463">
        <ele>86.224</ele>
        <time>2017-03-18T18:32:54Z</time>
      </trkpt>
      <trkpt lat="37.994736" lon="-1.081365">
        <ele>86.279</ele>
        <time>2017-03-18T18:32:56Z</time>
      </trkpt>
      <trkpt lat="37.994685" lon="-1.081271">
        <ele>86.071</ele>
        <time>2017-03-18T18:32:58Z</time>
      </trkpt>
      <trkpt lat="37.994627" lon="-1.081180">
        <ele>85.766</ele>
        <time>2017-03-18T18:33:00Z</time>
      </trkpt>
      <trkpt lat="37.994542" lon="-1.081062">
        <ele>85.924</ele>
        <time>2017-03-18T18:33:03Z</time>
      </trkpt>
      <trkpt lat="37.994477" lon="-1.080971">
        <ele>86.428</ele>
        <time>2017-03-18T18:33:05Z</time>
      </trkpt>
      <trkpt lat="37.994415" lon="-1.080877">
        <ele>86.134</ele>
        <time>2017-03-18T18:33:07Z</time>
      </trkpt>
      <trkpt lat="37.994364" lon="-1.080779">
        <ele>86.054</ele>
        <time>2017-03-18T18:33:09Z</time>
      </trkpt>
      <trkpt lat="37.994306" lon="-1.080684">
        <ele>86.689</ele>
        <time>2017-03-18T18:33:12Z</time>
      </trkpt>
      <trkpt lat="37.994227" lon="-1.080558">
        <ele>85.606</ele>
        <time>2017-03-18T18:33:15Z</time>
      </trkpt>
      <trkpt lat="37.994155" lon="-1.080471">
        <ele>85.126</ele>
        <time>2017-03-18T18:33:17Z</time>
      </trkpt>
      <trkpt lat="37.994076" lon="-1.080378">
        <ele>85.008</ele>
        <time>2017-03-18T18:33:19Z</time>
      </trkpt>
      <trkpt lat="37.993986" lon="-1.080296">
        <ele>85.719</ele>
        <time>2017-03-18T18:33:21Z</time>
      </trkpt>
      <trkpt lat="37.993897" lon="-1.080225">
        <ele>86.514</ele>
        <time>2017-03-18T18:33:23Z</time>
      </trkpt>
      <trkpt lat="37.993807" lon="-1.080163">
        <ele>87.136</ele>
        <time>2017-03-18T18:33:25Z</time>
      </trkpt>
      <trkpt lat="37.993722" lon="-1.080113">
        <ele>87.431</ele>
        <time>2017-03-18T18:33:27Z</time>
      </trkpt>
      <trkpt lat="37.993636" lon="-1.080070">
        <ele>87.639</ele>
        <time>2017-03-18T18:33:29Z</time>
      </trkpt>
      <trkpt lat="37.993546" lon="-1.080021">
        <ele>87.923</ele>
        <time>2017-03-18T18:33:31Z</time>
      </trkpt>
      <trkpt lat="37.993457" lon="-1.079973">
        <ele>88.719</ele>
        <time>2017-03-18T18:33:33Z</time>
      </trkpt>
      <trkpt lat="37.993372" lon="-1.079923">
        <ele>88.989</ele>
        <time>2017-03-18T18:33:35Z</time>
      </trkpt>
      <trkpt lat="37.993280" lon="-1.079873">
        <ele>88.772</ele>
        <time>2017-03-18T18:33:36Z</time>
      </trkpt>
      <trkpt lat="37.993186" lon="-1.079819">
        <ele>89.013</ele>
        <time>2017-03-18T18:33:38Z</time>
      </trkpt>
      <trkpt lat="37.993102" lon="-1.079763">
        <ele>89.414</ele>
        <time>2017-03-18T18:33:40Z</time>
      </trkpt>
      <trkpt lat="37.993019" lon="-1.079700">
        <ele>89.508</ele>
        <time>2017-03-18T18:33:42Z</time>
      </trkpt>
      <trkpt lat="37.992941" lon="-1.079628">
        <ele>89.618</ele>
        <time>2017-03-18T18:33:44Z</time>
      </trkpt>
      <trkpt lat="37.992874" lon="-1.079549">
        <ele>89.643</ele>
        <time>2017-03-18T18:33:46Z</time>
      </trkpt>
      <trkpt lat="37.992769" lon="-1.079395">
        <ele>89.335</ele>
        <time>2017-03-18T18:33:49Z</time>
      </trkpt>
      <trkpt lat="37.992724" lon="-1.079266">
        <ele>88.460</ele>
        <time>2017-03-18T18:33:52Z</time>
      </trkpt>
      <trkpt lat="37.992668" lon="-1.079114">
        <ele>88.118</ele>
        <time>2017-03-18T18:33:55Z</time>
      </trkpt>
      <trkpt lat="37.992610" lon="-1.078993">
        <ele>88.432</ele>
        <time>2017-03-18T18:33:58Z</time>
      </trkpt>
      <trkpt lat="37.992604" lon="-1.078875">
        <ele>88.548</ele>
        <time>2017-03-18T18:34:02Z</time>
      </trkpt>
      <trkpt lat="37.992590" lon="-1.078722">
        <ele>87.648</ele>
        <time>2017-03-18T18:34:05Z</time>
      </trkpt>
      <trkpt lat="37.992571" lon="-1.078599">
        <ele>86.337</ele>
        <time>2017-03-18T18:34:07Z</time>
      </trkpt>
      <trkpt lat="37.992543" lon="-1.078469">
        <ele>85.449</ele>
        <time>2017-03-18T18:34:09Z</time>
      </trkpt>
      <trkpt lat="37.992498" lon="-1.078337">
        <ele>84.713</ele>
        <time>2017-03-18T18:34:11Z</time>
      </trkpt>
      <trkpt lat="37.992455" lon="-1.078213">
        <ele>84.408</ele>
        <time>2017-03-18T18:34:13Z</time>
      </trkpt>
      <trkpt lat="37.992422" lon="-1.078106">
        <ele>84.144</ele>
        <time>2017-03-18T18:34:15Z</time>
      </trkpt>
      <trkpt lat="37.992384" lon="-1.077979">
        <ele>84.259</ele>
        <time>2017-03-18T18:34:18Z</time>
      </trkpt>
      <trkpt lat="37.992332" lon="-1.077841">
        <ele>84.651</ele>
        <time>2017-03-18T18:34:21Z</time>
      </trkpt>
      <trkpt lat="37.992271" lon="-1.077700">
        <ele>84.886</ele>
        <time>2017-03-18T18:34:24Z</time>
      </trkpt>
      <trkpt lat="37.992213" lon="-1.077563">
        <ele>84.944</ele>
        <time>2017-03-18T18:34:27Z</time>
      </trkpt>
      <trkpt lat="37.992144" lon="-1.077446">
        <ele>85.098</ele>
        <time>2017-03-18T18:34:30Z</time>
      </trkpt>
      <trkpt lat="37.992064" lon="-1.077354">
        <ele>85.054</ele>
        <time>2017-03-18T18:34:33Z</time>
      </trkpt>
      <trkpt lat="37.991967" lon="-1.077246">
        <ele>85.164</ele>
        <time>2017-03-18T18:34:37Z</time>
      </trkpt>
      <trkpt lat="37.991879" lon="-1.077158">
        <ele>85.291</ele>
        <time>2017-03-18T18:34:41Z</time>
      </trkpt>
      <trkpt lat="37.991790" lon="-1.077076">
        <ele>85.581</ele>
        <time>2017-03-18T18:34:44Z</time>
      </trkpt>
      <trkpt lat="37.991710" lon="-1.076987">
        <ele>85.519</ele>
        <time>2017-03-18T18:34:47Z</time>
      </trkpt>
      <trkpt lat="37.991772" lon="-1.077094">
        <ele>87.908</ele>
        <time>2017-03-18T18:36:20Z</time>
      </trkpt>
      <trkpt lat="37.991719" lon="-1.077002">
        <ele>86.970</ele>
        <time>2017-03-18T18:37:28Z</time>
      </trkpt>
      <trkpt lat="37.991711" lon="-1.076882">
        <ele>87.175</ele>
        <time>2017-03-18T18:38:58Z</time>
      </trkpt>
      <trkpt lat="37.991664" lon="-1.076997">
        <ele>86.947</ele>
        <time>2017-03-18T18:41:14Z</time>
      </trkpt>
      <trkpt lat="37.991632" lon="-1.076880">
        <ele>87.052</ele>
        <time>2017-03-18T18:43:54Z</time>
      </trkpt>
      <trkpt lat="37.991535" lon="-1.076778">
        <ele>87.530</ele>
        <time>2017-03-18T18:43:58Z</time>
      </trkpt>
      <trkpt lat="37.991436" lon="-1.076685">
        <ele>87.784</ele>
        <time>2017-03-18T18:44:02Z</time>
      </trkpt>
      <trkpt lat="37.991341" lon="-1.076605">
        <ele>87.770</ele>
        <time>2017-03-18T18:44:05Z</time>
      </trkpt>
      <trkpt lat="37.991241" lon="-1.076519">
        <ele>88.420</ele>
        <time>2017-03-18T18:44:08Z</time>
      </trkpt>
      <trkpt lat="37.991132" lon="-1.076426">
        <ele>90.566</ele>
        <time>2017-03-18T18:44:11Z</time>
      </trkpt>
      <trkpt lat="37.991041" lon="-1.076324">
        <ele>91.929</ele>
        <time>2017-03-18T18:44:14Z</time>
      </trkpt>
      <trkpt lat="37.990968" lon="-1.076196">
        <ele>91.921</ele>
        <time>2017-03-18T18:44:17Z</time>
      </trkpt>
      <trkpt lat="37.990922" lon="-1.076097">
        <ele>92.708</ele>
        <time>2017-03-18T18:44:19Z</time>
      </trkpt>
      <trkpt lat="37.990862" lon="-1.075896">
        <ele>93.677</ele>
        <time>2017-03-18T18:44:22Z</time>
      </trkpt>
      <trkpt lat="37.990838" lon="-1.075780">
        <ele>93.862</ele>
        <time>2017-03-18T18:44:24Z</time>
      </trkpt>
      <trkpt lat="37.990821" lon="-1.075662">
        <ele>94.214</ele>
        <time>2017-03-18T18:44:26Z</time>
      </trkpt>
      <trkpt lat="37.990819" lon="-1.075545">
        <ele>94.769</ele>
        <time>2017-03-18T18:44:28Z</time>
      </trkpt>
      <trkpt lat="37.990822" lon="-1.075426">
        <ele>95.467</ele>
        <time>2017-03-18T18:44:30Z</time>
      </trkpt>
      <trkpt lat="37.990838" lon="-1.075304">
        <ele>96.011</ele>
        <time>2017-03-18T18:44:32Z</time>
      </trkpt>
      <trkpt lat="37.990858" lon="-1.075177">
        <ele>96.677</ele>
        <time>2017-03-18T18:44:34Z</time>
      </trkpt>
      <trkpt lat="37.990886" lon="-1.075055">
        <ele>97.067</ele>
        <time>2017-03-18T18:44:36Z</time>
      </trkpt>
      <trkpt lat="37.990917" lon="-1.074929">
        <ele>97.455</ele>
        <time>2017-03-18T18:44:38Z</time>
      </trkpt>
      <trkpt lat="37.990950" lon="-1.074809">
        <ele>97.807</ele>
        <time>2017-03-18T18:44:40Z</time>
      </trkpt>
      <trkpt lat="37.990981" lon="-1.074698">
        <ele>98.217</ele>
        <time>2017-03-18T18:44:42Z</time>
      </trkpt>
      <trkpt lat="37.991017" lon="-1.074588">
        <ele>98.708</ele>
        <time>2017-03-18T18:44:44Z</time>
      </trkpt>
      <trkpt lat="37.991058" lon="-1.074484">
        <ele>99.336</ele>
        <time>2017-03-18T18:44:46Z</time>
      </trkpt>
      <trkpt lat="37.991099" lon="-1.074381">
        <ele>100.021</ele>
        <time>2017-03-18T18:44:48Z</time>
      </trkpt>
      <trkpt lat="37.991144" lon="-1.074275">
        <ele>100.853</ele>
        <time>2017-03-18T18:44:50Z</time>
      </trkpt>
      <trkpt lat="37.991189" lon="-1.074174">
        <ele>101.038</ele>
        <time>2017-03-18T18:44:52Z</time>
      </trkpt>
      <trkpt lat="37.991242" lon="-1.074056">
        <ele>101.276</ele>
        <time>2017-03-18T18:44:54Z</time>
      </trkpt>
      <trkpt lat="37.991298" lon="-1.073947">
        <ele>101.430</ele>
        <time>2017-03-18T18:44:56Z</time>
      </trkpt>
      <trkpt lat="37.991366" lon="-1.073819">
        <ele>100.696</ele>
        <time>2017-03-18T18:44:58Z</time>
      </trkpt>
      <trkpt lat="37.991442" lon="-1.073694">
        <ele>98.826</ele>
        <time>2017-03-18T18:45:00Z</time>
      </trkpt>
      <trkpt lat="37.991521" lon="-1.073580">
        <ele>96.843</ele>
        <time>2017-03-18T18:45:02Z</time>
      </trkpt>
      <trkpt lat="37.991600" lon="-1.073477">
        <ele>95.564</ele>
        <time>2017-03-18T18:45:04Z</time>
      </trkpt>
      <trkpt lat="37.991679" lon="-1.073386">
        <ele>94.710</ele>
        <time>2017-03-18T18:45:06Z</time>
      </trkpt>
      <trkpt lat="37.991761" lon="-1.073296">
        <ele>93.308</ele>
        <time>2017-03-18T18:45:08Z</time>
      </trkpt>
      <trkpt lat="37.991844" lon="-1.073208">
        <ele>92.245</ele>
        <time>2017-03-18T18:45:10Z</time>
      </trkpt>
      <trkpt lat="37.991928" lon="-1.073114">
        <ele>90.310</ele>
        <time>2017-03-18T18:45:12Z</time>
      </trkpt>
      <trkpt lat="37.992013" lon="-1.073025">
        <ele>88.852</ele>
        <time>2017-03-18T18:45:14Z</time>
      </trkpt>
      <trkpt lat="37.992097" lon="-1.072944">
        <ele>87.177</ele>
        <time>2017-03-18T18:45:16Z</time>
      </trkpt>
      <trkpt lat="37.992183" lon="-1.072867">
        <ele>86.175</ele>
        <time>2017-03-18T18:45:19Z</time>
      </trkpt>
      <trkpt lat="37.992265" lon="-1.072796">
        <ele>85.699</ele>
        <time>2017-03-18T18:45:21Z</time>
      </trkpt>
      <trkpt lat="37.992352" lon="-1.072716">
        <ele>85.675</ele>
        <time>2017-03-18T18:45:23Z</time>
      </trkpt>
      <trkpt lat="37.992440" lon="-1.072640">
        <ele>86.165</ele>
        <time>2017-03-18T18:45:25Z</time>
      </trkpt>
      <trkpt lat="37.992532" lon="-1.072564">
        <ele>86.099</ele>
        <time>2017-03-18T18:45:27Z</time>
      </trkpt>
      <trkpt lat="37.992623" lon="-1.072487">
        <ele>85.107</ele>
        <time>2017-03-18T18:45:29Z</time>
      </trkpt>
      <trkpt lat="37.992716" lon="-1.072403">
        <ele>83.827</ele>
        <time>2017-03-18T18:45:31Z</time>
      </trkpt>
      <trkpt lat="37.992807" lon="-1.072324">
        <ele>83.208</ele>
        <time>2017-03-18T18:45:33Z</time>
      </trkpt>
      <trkpt lat="37.992897" lon="-1.072245">
        <ele>82.540</ele>
        <time>2017-03-18T18:45:35Z</time>
      </trkpt>
      <trkpt lat="37.992991" lon="-1.072166">
        <ele>82.045</ele>
        <time>2017-03-18T18:45:37Z</time>
      </trkpt>
      <trkpt lat="37.993132" lon="-1.072037">
        <ele>80.947</ele>
        <time>2017-03-18T18:45:39Z</time>
      </trkpt>
      <trkpt lat="37.993226" lon="-1.071951">
        <ele>80.432</ele>
        <time>2017-03-18T18:45:41Z</time>
      </trkpt>
      <trkpt lat="37.993313" lon="-1.071860">
        <ele>80.540</ele>
        <time>2017-03-18T18:45:43Z</time>
      </trkpt>
      <trkpt lat="37.993398" lon="-1.071762">
        <ele>81.354</ele>
        <time>2017-03-18T18:45:45Z</time>
      </trkpt>
      <trkpt lat="37.993485" lon="-1.071661">
        <ele>82.250</ele>
        <time>2017-03-18T18:45:47Z</time>
      </trkpt>
      <trkpt lat="37.993563" lon="-1.071554">
        <ele>82.570</ele>
        <time>2017-03-18T18:45:49Z</time>
      </trkpt>
      <trkpt lat="37.993643" lon="-1.071442">
        <ele>83.298</ele>
        <time>2017-03-18T18:45:51Z</time>
      </trkpt>
      <trkpt lat="37.993715" lon="-1.071336">
        <ele>84.815</ele>
        <time>2017-03-18T18:45:53Z</time>
      </trkpt>
      <trkpt lat="37.993787" lon="-1.071226">
        <ele>86.026</ele>
        <time>2017-03-18T18:45:55Z</time>
      </trkpt>
      <trkpt lat="37.993853" lon="-1.071120">
        <ele>87.208</ele>
        <time>2017-03-18T18:45:57Z</time>
      </trkpt>
      <trkpt lat="37.993924" lon="-1.071009">
        <ele>88.230</ele>
        <time>2017-03-18T18:45:59Z</time>
      </trkpt>
      <trkpt lat="37.993992" lon="-1.070887">
        <ele>88.995</ele>
        <time>2017-03-18T18:46:01Z</time>
      </trkpt>
      <trkpt lat="37.994057" lon="-1.070769">
        <ele>89.347</ele>
        <time>2017-03-18T18:46:03Z</time>
      </trkpt>
      <trkpt lat="37.994119" lon="-1.070629">
        <ele>89.232</ele>
        <time>2017-03-18T18:46:05Z</time>
      </trkpt>
      <trkpt lat="37.994170" lon="-1.070492">
        <ele>89.140</ele>
        <time>2017-03-18T18:46:07Z</time>
      </trkpt>
      <trkpt lat="37.994206" lon="-1.070359">
        <ele>89.324</ele>
        <time>2017-03-18T18:46:09Z</time>
      </trkpt>
      <trkpt lat="37.994247" lon="-1.070230">
        <ele>89.580</ele>
        <time>2017-03-18T18:46:11Z</time>
      </trkpt>
      <trkpt lat="37.994281" lon="-1.070107">
        <ele>89.750</ele>
        <time>2017-03-18T18:46:13Z</time>
      </trkpt>
      <trkpt lat="37.994317" lon="-1.069970">
        <ele>90.538</ele>
        <time>2017-03-18T18:46:15Z</time>
      </trkpt>
      <trkpt lat="37.994359" lon="-1.069824">
        <ele>90.570</ele>
        <time>2017-03-18T18:46:17Z</time>
      </trkpt>
      <trkpt lat="37.994394" lon="-1.069694">
        <ele>90.817</ele>
        <time>2017-03-18T18:46:19Z</time>
      </trkpt>
      <trkpt lat="37.994436" lon="-1.069558">
        <ele>91.608</ele>
        <time>2017-03-18T18:46:21Z</time>
      </trkpt>
      <trkpt lat="37.994470" lon="-1.069433">
        <ele>91.924</ele>
        <time>2017-03-18T18:46:23Z</time>
      </trkpt>
      <trkpt lat="37.994502" lon="-1.069305">
        <ele>92.639</ele>
        <time>2017-03-18T18:46:25Z</time>
      </trkpt>
      <trkpt lat="37.994536" lon="-1.069173">
        <ele>93.521</ele>
        <time>2017-03-18T18:46:27Z</time>
      </trkpt>
      <trkpt lat="37.994582" lon="-1.069049">
        <ele>94.056</ele>
        <time>2017-03-18T18:46:30Z</time>
      </trkpt>
      <trkpt lat="37.994634" lon="-1.068916">
        <ele>94.784</ele>
        <time>2017-03-18T18:46:32Z</time>
      </trkpt>
      <trkpt lat="37.994688" lon="-1.068789">
        <ele>95.118</ele>
        <time>2017-03-18T18:46:34Z</time>
      </trkpt>
      <trkpt lat="37.994754" lon="-1.068674">
        <ele>96.024</ele>
        <time>2017-03-18T18:46:36Z</time>
      </trkpt>
      <trkpt lat="37.994820" lon="-1.068553">
        <ele>96.934</ele>
        <time>2017-03-18T18:46:38Z</time>
      </trkpt>
      <trkpt lat="37.994887" lon="-1.068436">
        <ele>99.343</ele>
        <time>2017-03-18T18:46:40Z</time>
      </trkpt>
      <trkpt lat="37.994953" lon="-1.068329">
        <ele>103.164</ele>
        <time>2017-03-18T18:46:42Z</time>
      </trkpt>
      <trkpt lat="37.995022" lon="-1.068224">
        <ele>107.010</ele>
        <time>2017-03-18T18:46:44Z</time>
      </trkpt>
      <trkpt lat="37.995101" lon="-1.068105">
        <ele>109.008</ele>
        <time>2017-03-18T18:46:46Z</time>
      </trkpt>
      <trkpt lat="37.995183" lon="-1.067978">
        <ele>108.325</ele>
        <time>2017-03-18T18:46:48Z</time>
      </trkpt>
      <trkpt lat="37.995245" lon="-1.067857">
        <ele>106.330</ele>
        <time>2017-03-18T18:46:49Z</time>
      </trkpt>
      <trkpt lat="37.995280" lon="-1.067672">
        <ele>102.582</ele>
        <time>2017-03-18T18:46:52Z</time>
      </trkpt>
      <trkpt lat="37.995316" lon="-1.067548">
        <ele>99.827</ele>
        <time>2017-03-18T18:46:54Z</time>
      </trkpt>
      <trkpt lat="37.995358" lon="-1.067420">
        <ele>98.035</ele>
        <time>2017-03-18T18:46:56Z</time>
      </trkpt>
      <trkpt lat="37.995390" lon="-1.067286">
        <ele>96.749</ele>
        <time>2017-03-18T18:46:58Z</time>
      </trkpt>
      <trkpt lat="37.995418" lon="-1.067147">
        <ele>96.055</ele>
        <time>2017-03-18T18:47:00Z</time>
      </trkpt>
      <trkpt lat="37.995443" lon="-1.066992">
        <ele>95.335</ele>
        <time>2017-03-18T18:47:02Z</time>
      </trkpt>
      <trkpt lat="37.995467" lon="-1.066860">
        <ele>94.651</ele>
        <time>2017-03-18T18:47:04Z</time>
      </trkpt>
      <trkpt lat="37.995486" lon="-1.066726">
        <ele>94.001</ele>
        <time>2017-03-18T18:47:06Z</time>
      </trkpt>
      <trkpt lat="37.995500" lon="-1.066566">
        <ele>93.411</ele>
        <time>2017-03-18T18:47:08Z</time>
      </trkpt>
      <trkpt lat="37.995519" lon="-1.066422">
        <ele>93.008</ele>
        <time>2017-03-18T18:47:10Z</time>
      </trkpt>
      <trkpt lat="37.995537" lon="-1.066270">
        <ele>93.286</ele>
        <time>2017-03-18T18:47:12Z</time>
      </trkpt>
      <trkpt lat="37.995563" lon="-1.066144">
        <ele>93.221</ele>
        <time>2017-03-18T18:47:14Z</time>
      </trkpt>
      <trkpt lat="37.995607" lon="-1.066017">
        <ele>92.753</ele>
        <time>2017-03-18T18:47:16Z</time>
      </trkpt>
      <trkpt lat="37.995676" lon="-1.065883">
        <ele>92.298</ele>
        <time>2017-03-18T18:47:18Z</time>
      </trkpt>
      <trkpt lat="37.995761" lon="-1.065764">
        <ele>91.126</ele>
        <time>2017-03-18T18:47:20Z</time>
      </trkpt>
      <trkpt lat="37.995856" lon="-1.065657">
        <ele>90.250</ele>
        <time>2017-03-18T18:47:22Z</time>
      </trkpt>
      <trkpt lat="37.995959" lon="-1.065578">
        <ele>89.226</ele>
        <time>2017-03-18T18:47:24Z</time>
      </trkpt>
      <trkpt lat="37.996068" lon="-1.065512">
        <ele>87.756</ele>
        <time>2017-03-18T18:47:26Z</time>
      </trkpt>
      <trkpt lat="37.996185" lon="-1.065448">
        <ele>86.756</ele>
        <time>2017-03-18T18:47:28Z</time>
      </trkpt>
      <trkpt lat="37.996301" lon="-1.065385">
        <ele>85.659</ele>
        <time>2017-03-18T18:47:30Z</time>
      </trkpt>
      <trkpt lat="37.996409" lon="-1.065330">
        <ele>84.214</ele>
        <time>2017-03-18T18:47:32Z</time>
      </trkpt>
      <trkpt lat="37.996513" lon="-1.065288">
        <ele>83.208</ele>
        <time>2017-03-18T18:47:34Z</time>
      </trkpt>
      <trkpt lat="37.996605" lon="-1.065252">
        <ele>83.466</ele>
        <time>2017-03-18T18:47:37Z</time>
      </trkpt>
      <trkpt lat="37.996697" lon="-1.065222">
        <ele>83.641</ele>
        <time>2017-03-18T18:47:39Z</time>
      </trkpt>
      <trkpt lat="37.996797" lon="-1.065180">
        <ele>83.783</ele>
        <time>2017-03-18T18:47:41Z</time>
      </trkpt>
      <trkpt lat="37.996894" lon="-1.065134">
        <ele>83.118</ele>
        <time>2017-03-18T18:47:43Z</time>
      </trkpt>
      <trkpt lat="37.996994" lon="-1.065086">
        <ele>81.726</ele>
        <time>2017-03-18T18:47:45Z</time>
      </trkpt>
      <trkpt lat="37.997077" lon="-1.065040">
        <ele>80.750</ele>
        <time>2017-03-18T18:47:47Z</time>
      </trkpt>
      <trkpt lat="37.997229" lon="-1.064949">
        <ele>79.926</ele>
        <time>2017-03-18T18:47:50Z</time>
      </trkpt>
      <trkpt lat="37.997339" lon="-1.064862">
        <ele>79.786</ele>
        <time>2017-03-18T18:47:53Z</time>
      </trkpt>
      <trkpt lat="37.997436" lon="-1.064771">
        <ele>79.751</ele>
        <time>2017-03-18T18:47:56Z</time>
      </trkpt>
      <trkpt lat="37.997521" lon="-1.064677">
        <ele>79.901</ele>
        <time>2017-03-18T18:47:59Z</time>
      </trkpt>
      <trkpt lat="37.997605" lon="-1.064574">
        <ele>81.611</ele>
        <time>2017-03-18T18:48:02Z</time>
      </trkpt>
      <trkpt lat="37.997666" lon="-1.064478">
        <ele>82.408</ele>
        <time>2017-03-18T18:48:04Z</time>
      </trkpt>
      <trkpt lat="37.997722" lon="-1.064383">
        <ele>83.116</ele>
        <time>2017-03-18T18:48:06Z</time>
      </trkpt>
      <trkpt lat="37.997772" lon="-1.064283">
        <ele>84.431</ele>
        <time>2017-03-18T18:48:08Z</time>
      </trkpt>
      <trkpt lat="37.997822" lon="-1.064186">
        <ele>86.733</ele>
        <time>2017-03-18T18:48:10Z</time>
      </trkpt>
      <trkpt lat="37.997878" lon="-1.064088">
        <ele>87.868</ele>
        <time>2017-03-18T18:48:12Z</time>
      </trkpt>
      <trkpt lat="37.997925" lon="-1.063987">
        <ele>87.636</ele>
        <time>2017-03-18T18:48:14Z</time>
      </trkpt>
      <trkpt lat="37.997988" lon="-1.063872">
        <ele>88.130</ele>
        <time>2017-03-18T18:48:17Z</time>
      </trkpt>
      <trkpt lat="37.998047" lon="-1.063771">
        <ele>90.056</ele>
        <time>2017-03-18T18:48:20Z</time>
      </trkpt>
      <trkpt lat="37.998119" lon="-1.063647">
        <ele>91.886</ele>
        <time>2017-03-18T18:48:23Z</time>
      </trkpt>
      <trkpt lat="37.998199" lon="-1.063501">
        <ele>92.789</ele>
        <time>2017-03-18T18:48:26Z</time>
      </trkpt>
      <trkpt lat="37.998253" lon="-1.063396">
        <ele>93.006</ele>
        <time>2017-03-18T18:48:28Z</time>
      </trkpt>
      <trkpt lat="37.998310" lon="-1.063282">
        <ele>92.326</ele>
        <time>2017-03-18T18:48:30Z</time>
      </trkpt>
      <trkpt lat="37.998365" lon="-1.063164">
        <ele>91.508</ele>
        <time>2017-03-18T18:48:32Z</time>
      </trkpt>
      <trkpt lat="37.998413" lon="-1.063045">
        <ele>90.489</ele>
        <time>2017-03-18T18:48:34Z</time>
      </trkpt>
      <trkpt lat="37.998453" lon="-1.062932">
        <ele>89.164</ele>
        <time>2017-03-18T18:48:37Z</time>
      </trkpt>
      <trkpt lat="37.998483" lon="-1.062817">
        <ele>88.296</ele>
        <time>2017-03-18T18:48:39Z</time>
      </trkpt>
      <trkpt lat="37.998504" lon="-1.062679">
        <ele>86.891</ele>
        <time>2017-03-18T18:48:42Z</time>
      </trkpt>
      <trkpt lat="37.998526" lon="-1.062530">
        <ele>86.569</ele>
        <time>2017-03-18T18:48:45Z</time>
      </trkpt>
      <trkpt lat="37.998535" lon="-1.062405">
        <ele>86.763</ele>
        <time>2017-03-18T18:48:48Z</time>
      </trkpt>
      <trkpt lat="37.998560" lon="-1.062269">
        <ele>87.139</ele>
        <time>2017-03-18T18:48:52Z</time>
      </trkpt>
      <trkpt lat="37.998587" lon="-1.062091">
        <ele>87.339</ele>
        <time>2017-03-18T18:48:55Z</time>
      </trkpt>
      <trkpt lat="37.998587" lon="-1.061959">
        <ele>87.721</ele>
        <time>2017-03-18T18:48:59Z</time>
      </trkpt>
      <trkpt lat="37.998589" lon="-1.061843">
        <ele>88.441</ele>
        <time>2017-03-18T18:49:13Z</time>
      </trkpt>
      <trkpt lat="37.998566" lon="-1.061719">
        <ele>88.005</ele>
        <time>2017-03-18T18:50:07Z</time>
      </trkpt>
      <trkpt lat="37.998568" lon="-1.061566">
        <ele>89.008</ele>
        <time>2017-03-18T18:50:12Z</time>
      </trkpt>
      <trkpt lat="37.998570" lon="-1.061438">
        <ele>89.943</ele>
        <time>2017-03-18T18:50:16Z</time>
      </trkpt>
      <trkpt lat="37.998564" lon="-1.061290">
        <ele>90.468</ele>
        <time>2017-03-18T18:50:20Z</time>
      </trkpt>
      <trkpt lat="37.998566" lon="-1.061127">
        <ele>90.980</ele>
        <time>2017-03-18T18:50:23Z</time>
      </trkpt>
      <trkpt lat="37.998563" lon="-1.060954">
        <ele>91.135</ele>
        <time>2017-03-18T18:50:26Z</time>
      </trkpt>
      <trkpt lat="37.998560" lon="-1.060835">
        <ele>90.313</ele>
        <time>2017-03-18T18:50:28Z</time>
      </trkpt>
      <trkpt lat="37.998555" lon="-1.060670">
        <ele>89.847</ele>
        <time>2017-03-18T18:50:31Z</time>
      </trkpt>
      <trkpt lat="37.998547" lon="-1.060511">
        <ele>89.823</ele>
        <time>2017-03-18T18:50:34Z</time>
      </trkpt>
      <trkpt lat="37.998543" lon="-1.060362">
        <ele>90.783</ele>
        <time>2017-03-18T18:50:37Z</time>
      </trkpt>
      <trkpt lat="37.998537" lon="-1.060198">
        <ele>91.826</ele>
        <time>2017-03-18T18:50:40Z</time>
      </trkpt>
      <trkpt lat="37.998547" lon="-1.060035">
        <ele>93.147</ele>
        <time>2017-03-18T18:50:43Z</time>
      </trkpt>
      <trkpt lat="37.998562" lon="-1.059903">
        <ele>92.811</ele>
        <time>2017-03-18T18:50:45Z</time>
      </trkpt>
      <trkpt lat="37.998587" lon="-1.059779">
        <ele>92.308</ele>
        <time>2017-03-18T18:50:47Z</time>
      </trkpt>
      <trkpt lat="37.998614" lon="-1.059649">
        <ele>91.643</ele>
        <time>2017-03-18T18:50:49Z</time>
      </trkpt>
      <trkpt lat="37.998651" lon="-1.059537">
        <ele>91.268</ele>
        <time>2017-03-18T18:50:52Z</time>
      </trkpt>
      <trkpt lat="37.998693" lon="-1.059423">
        <ele>91.060</ele>
        <time>2017-03-18T18:50:54Z</time>
      </trkpt>
      <trkpt lat="37.998743" lon="-1.059302">
        <ele>90.685</ele>
        <time>2017-03-18T18:50:56Z</time>
      </trkpt>
      <trkpt lat="37.998797" lon="-1.059184">
        <ele>89.973</ele>
        <time>2017-03-18T18:50:58Z</time>
      </trkpt>
      <trkpt lat="37.998862" lon="-1.059073">
        <ele>89.857</ele>
        <time>2017-03-18T18:51:00Z</time>
      </trkpt>
      <trkpt lat="37.998941" lon="-1.058971">
        <ele>90.153</ele>
        <time>2017-03-18T18:51:02Z</time>
      </trkpt>
      <trkpt lat="37.999031" lon="-1.058870">
        <ele>89.643</ele>
        <time>2017-03-18T18:51:04Z</time>
      </trkpt>
      <trkpt lat="37.999118" lon="-1.058782">
        <ele>88.785</ele>
        <time>2017-03-18T18:51:06Z</time>
      </trkpt>
      <trkpt lat="37.999202" lon="-1.058695">
        <ele>87.889</ele>
        <time>2017-03-18T18:51:08Z</time>
      </trkpt>
      <trkpt lat="37.999282" lon="-1.058614">
        <ele>87.217</ele>
        <time>2017-03-18T18:51:10Z</time>
      </trkpt>
      <trkpt lat="37.999373" lon="-1.058530">
        <ele>86.608</ele>
        <time>2017-03-18T18:51:11Z</time>
      </trkpt>
      <trkpt lat="37.999459" lon="-1.058467">
        <ele>86.189</ele>
        <time>2017-03-18T18:51:13Z</time>
      </trkpt>
      <trkpt lat="37.999546" lon="-1.058396">
        <ele>86.474</ele>
        <time>2017-03-18T18:51:15Z</time>
      </trkpt>
      <trkpt lat="37.999629" lon="-1.058329">
        <ele>87.276</ele>
        <time>2017-03-18T18:51:17Z</time>
      </trkpt>
      <trkpt lat="37.999706" lon="-1.058257">
        <ele>87.711</ele>
        <time>2017-03-18T18:51:19Z</time>
      </trkpt>
      <trkpt lat="37.999791" lon="-1.058202">
        <ele>87.039</ele>
        <time>2017-03-18T18:51:21Z</time>
      </trkpt>
      <trkpt lat="37.999882" lon="-1.058142">
        <ele>86.533</ele>
        <time>2017-03-18T18:51:23Z</time>
      </trkpt>
      <trkpt lat="37.999963" lon="-1.058066">
        <ele>85.419</ele>
        <time>2017-03-18T18:51:25Z</time>
      </trkpt>
      <trkpt lat="38.000039" lon="-1.057981">
        <ele>85.299</ele>
        <time>2017-03-18T18:51:27Z</time>
      </trkpt>
      <trkpt lat="38.000120" lon="-1.057893">
        <ele>85.594</ele>
        <time>2017-03-18T18:51:29Z</time>
      </trkpt>
      <trkpt lat="38.000217" lon="-1.057805">
        <ele>85.857</ele>
        <time>2017-03-18T18:51:31Z</time>
      </trkpt>
      <trkpt lat="38.000307" lon="-1.057730">
        <ele>85.922</ele>
        <time>2017-03-18T18:51:33Z</time>
      </trkpt>
      <trkpt lat="38.000385" lon="-1.057655">
        <ele>86.208</ele>
        <time>2017-03-18T18:51:35Z</time>
      </trkpt>
      <trkpt lat="38.000472" lon="-1.057561">
        <ele>86.570</ele>
        <time>2017-03-18T18:51:37Z</time>
      </trkpt>
      <trkpt lat="38.000558" lon="-1.057473">
        <ele>86.745</ele>
        <time>2017-03-18T18:51:39Z</time>
      </trkpt>
      <trkpt lat="38.000634" lon="-1.057400">
        <ele>86.747</ele>
        <time>2017-03-18T18:51:41Z</time>
      </trkpt>
      <trkpt lat="38.000702" lon="-1.057323">
        <ele>86.882</ele>
        <time>2017-03-18T18:51:43Z</time>
      </trkpt>
      <trkpt lat="38.000792" lon="-1.057239">
        <ele>87.490</ele>
        <time>2017-03-18T18:51:45Z</time>
      </trkpt>
      <trkpt lat="38.000881" lon="-1.057151">
        <ele>88.994</ele>
        <time>2017-03-18T18:51:47Z</time>
      </trkpt>
      <trkpt lat="38.000976" lon="-1.057064">
        <ele>90.240</ele>
        <time>2017-03-18T18:51:49Z</time>
      </trkpt>
      <trkpt lat="38.001077" lon="-1.056970">
        <ele>90.680</ele>
        <time>2017-03-18T18:51:51Z</time>
      </trkpt>
      <trkpt lat="38.001175" lon="-1.056877">
        <ele>90.131</ele>
        <time>2017-03-18T18:51:53Z</time>
      </trkpt>
      <trkpt lat="38.001273" lon="-1.056787">
        <ele>89.261</ele>
        <time>2017-03-18T18:51:55Z</time>
      </trkpt>
      <trkpt lat="38.001365" lon="-1.056720">
        <ele>88.407</ele>
        <time>2017-03-18T18:51:57Z</time>
      </trkpt>
      <trkpt lat="38.001469" lon="-1.056637">
        <ele>87.508</ele>
        <time>2017-03-18T18:51:59Z</time>
      </trkpt>
      <trkpt lat="38.001567" lon="-1.056540">
        <ele>87.174</ele>
        <time>2017-03-18T18:52:01Z</time>
      </trkpt>
      <trkpt lat="38.001664" lon="-1.056444">
        <ele>87.019</ele>
        <time>2017-03-18T18:52:04Z</time>
      </trkpt>
      <trkpt lat="38.001760" lon="-1.056349">
        <ele>86.891</ele>
        <time>2017-03-18T18:52:06Z</time>
      </trkpt>
      <trkpt lat="38.001857" lon="-1.056248">
        <ele>86.456</ele>
        <time>2017-03-18T18:52:08Z</time>
      </trkpt>
      <trkpt lat="38.001949" lon="-1.056161">
        <ele>86.594</ele>
        <time>2017-03-18T18:52:10Z</time>
      </trkpt>
      <trkpt lat="38.002033" lon="-1.056078">
        <ele>86.728</ele>
        <time>2017-03-18T18:52:12Z</time>
      </trkpt>
      <trkpt lat="38.002114" lon="-1.055994">
        <ele>86.964</ele>
        <time>2017-03-18T18:52:14Z</time>
      </trkpt>
      <trkpt lat="38.002212" lon="-1.055891">
        <ele>86.844</ele>
        <time>2017-03-18T18:52:16Z</time>
      </trkpt>
      <trkpt lat="38.002308" lon="-1.055814">
        <ele>86.024</ele>
        <time>2017-03-18T18:52:18Z</time>
      </trkpt>
      <trkpt lat="38.002402" lon="-1.055729">
        <ele>85.004</ele>
        <time>2017-03-18T18:52:20Z</time>
      </trkpt>
      <trkpt lat="38.002495" lon="-1.055643">
        <ele>83.814</ele>
        <time>2017-03-18T18:52:22Z</time>
      </trkpt>
      <trkpt lat="38.002592" lon="-1.055564">
        <ele>83.208</ele>
        <time>2017-03-18T18:52:24Z</time>
      </trkpt>
      <trkpt lat="38.002688" lon="-1.055475">
        <ele>83.253</ele>
        <time>2017-03-18T18:52:26Z</time>
      </trkpt>
      <trkpt lat="38.002795" lon="-1.055400">
        <ele>83.598</ele>
        <time>2017-03-18T18:52:28Z</time>
      </trkpt>
      <trkpt lat="38.002904" lon="-1.055311">
        <ele>83.870</ele>
        <time>2017-03-18T18:52:29Z</time>
      </trkpt>
      <trkpt lat="38.003016" lon="-1.055230">
        <ele>83.725</ele>
        <time>2017-03-18T18:52:31Z</time>
      </trkpt>
      <trkpt lat="38.003131" lon="-1.055163">
        <ele>83.323</ele>
        <time>2017-03-18T18:52:33Z</time>
      </trkpt>
      <trkpt lat="38.003247" lon="-1.055110">
        <ele>83.467</ele>
        <time>2017-03-18T18:52:35Z</time>
      </trkpt>
      <trkpt lat="38.003367" lon="-1.055060">
        <ele>83.673</ele>
        <time>2017-03-18T18:52:37Z</time>
      </trkpt>
      <trkpt lat="38.003541" lon="-1.054986">
        <ele>83.983</ele>
        <time>2017-03-18T18:52:40Z</time>
      </trkpt>
      <trkpt lat="38.003659" lon="-1.054936">
        <ele>84.188</ele>
        <time>2017-03-18T18:52:42Z</time>
      </trkpt>
      <trkpt lat="38.003763" lon="-1.054884">
        <ele>85.424</ele>
        <time>2017-03-18T18:52:44Z</time>
      </trkpt>
      <trkpt lat="38.003860" lon="-1.054829">
        <ele>86.726</ele>
        <time>2017-03-18T18:52:46Z</time>
      </trkpt>
      <trkpt lat="38.003955" lon="-1.054780">
        <ele>87.708</ele>
        <time>2017-03-18T18:52:48Z</time>
      </trkpt>
      <trkpt lat="38.004063" lon="-1.054709">
        <ele>89.529</ele>
        <time>2017-03-18T18:52:50Z</time>
      </trkpt>
      <trkpt lat="38.004165" lon="-1.054639">
        <ele>91.784</ele>
        <time>2017-03-18T18:52:52Z</time>
      </trkpt>
      <trkpt lat="38.004272" lon="-1.054556">
        <ele>92.876</ele>
        <time>2017-03-18T18:52:54Z</time>
      </trkpt>
      <trkpt lat="38.004375" lon="-1.054469">
        <ele>93.591</ele>
        <time>2017-03-18T18:52:56Z</time>
      </trkpt>
      <trkpt lat="38.004464" lon="-1.054390">
        <ele>93.029</ele>
        <time>2017-03-18T18:52:58Z</time>
      </trkpt>
      <trkpt lat="38.004556" lon="-1.054276">
        <ele>91.583</ele>
        <time>2017-03-18T18:53:00Z</time>
      </trkpt>
      <trkpt lat="38.004643" lon="-1.054155">
        <ele>90.049</ele>
        <time>2017-03-18T18:53:02Z</time>
      </trkpt>
      <trkpt lat="38.004724" lon="-1.054043">
        <ele>89.219</ele>
        <time>2017-03-18T18:53:04Z</time>
      </trkpt>
      <trkpt lat="38.004816" lon="-1.053914">
        <ele>88.068</ele>
        <time>2017-03-18T18:53:06Z</time>
      </trkpt>
      <trkpt lat="38.004904" lon="-1.053765">
        <ele>87.142</ele>
        <time>2017-03-18T18:53:08Z</time>
      </trkpt>
      <trkpt lat="38.004974" lon="-1.053622">
        <ele>86.526</ele>
        <time>2017-03-18T18:53:10Z</time>
      </trkpt>
      <trkpt lat="38.005029" lon="-1.053486">
        <ele>86.308</ele>
        <time>2017-03-18T18:53:12Z</time>
      </trkpt>
      <trkpt lat="38.005081" lon="-1.053341">
        <ele>85.977</ele>
        <time>2017-03-18T18:53:14Z</time>
      </trkpt>
      <trkpt lat="38.005125" lon="-1.053192">
        <ele>85.412</ele>
        <time>2017-03-18T18:53:16Z</time>
      </trkpt>
      <trkpt lat="38.005162" lon="-1.053048">
        <ele>84.664</ele>
        <time>2017-03-18T18:53:18Z</time>
      </trkpt>
      <trkpt lat="38.005201" lon="-1.052897">
        <ele>84.519</ele>
        <time>2017-03-18T18:53:21Z</time>
      </trkpt>
      <trkpt lat="38.005236" lon="-1.052755">
        <ele>84.167</ele>
        <time>2017-03-18T18:53:23Z</time>
      </trkpt>
      <trkpt lat="38.005255" lon="-1.052618">
        <ele>83.681</ele>
        <time>2017-03-18T18:53:25Z</time>
      </trkpt>
      <trkpt lat="38.005263" lon="-1.052471">
        <ele>83.317</ele>
        <time>2017-03-18T18:53:27Z</time>
      </trkpt>
      <trkpt lat="38.005268" lon="-1.052311">
        <ele>83.367</ele>
        <time>2017-03-18T18:53:29Z</time>
      </trkpt>
      <trkpt lat="38.005268" lon="-1.052148">
        <ele>83.113</ele>
        <time>2017-03-18T18:53:31Z</time>
      </trkpt>
      <trkpt lat="38.005273" lon="-1.051993">
        <ele>83.143</ele>
        <time>2017-03-18T18:53:33Z</time>
      </trkpt>
      <trkpt lat="38.005269" lon="-1.051830">
        <ele>82.407</ele>
        <time>2017-03-18T18:53:35Z</time>
      </trkpt>
      <trkpt lat="38.005262" lon="-1.051666">
        <ele>81.808</ele>
        <time>2017-03-18T18:53:37Z</time>
      </trkpt>
      <trkpt lat="38.005258" lon="-1.051511">
        <ele>81.422</ele>
        <time>2017-03-18T18:53:39Z</time>
      </trkpt>
      <trkpt lat="38.005265" lon="-1.051356">
        <ele>80.397</ele>
        <time>2017-03-18T18:53:41Z</time>
      </trkpt>
      <trkpt lat="38.005277" lon="-1.051122">
        <ele>79.549</ele>
        <time>2017-03-18T18:53:43Z</time>
      </trkpt>
      <trkpt lat="38.005287" lon="-1.050965">
        <ele>79.014</ele>
        <time>2017-03-18T18:53:45Z</time>
      </trkpt>
      <trkpt lat="38.005299" lon="-1.050800">
        <ele>78.982</ele>
        <time>2017-03-18T18:53:47Z</time>
      </trkpt>
      <trkpt lat="38.005308" lon="-1.050631">
        <ele>78.856</ele>
        <time>2017-03-18T18:53:49Z</time>
      </trkpt>
      <trkpt lat="38.005325" lon="-1.050472">
        <ele>79.322</ele>
        <time>2017-03-18T18:53:51Z</time>
      </trkpt>
      <trkpt lat="38.005352" lon="-1.050315">
        <ele>79.512</ele>
        <time>2017-03-18T18:53:53Z</time>
      </trkpt>
      <trkpt lat="38.005378" lon="-1.050151">
        <ele>79.547</ele>
        <time>2017-03-18T18:53:55Z</time>
      </trkpt>
      <trkpt lat="38.005416" lon="-1.049994">
        <ele>80.129</ele>
        <time>2017-03-18T18:53:57Z</time>
      </trkpt>
      <trkpt lat="38.005461" lon="-1.049841">
        <ele>80.821</ele>
        <time>2017-03-18T18:53:59Z</time>
      </trkpt>
      <trkpt lat="38.005511" lon="-1.049693">
        <ele>81.408</ele>
        <time>2017-03-18T18:54:01Z</time>
      </trkpt>
      <trkpt lat="38.005562" lon="-1.049552">
        <ele>81.635</ele>
        <time>2017-03-18T18:54:03Z</time>
      </trkpt>
      <trkpt lat="38.005626" lon="-1.049409">
        <ele>81.750</ele>
        <time>2017-03-18T18:54:05Z</time>
      </trkpt>
      <trkpt lat="38.005709" lon="-1.049289">
        <ele>81.792</ele>
        <time>2017-03-18T18:54:07Z</time>
      </trkpt>
      <trkpt lat="38.005792" lon="-1.049171">
        <ele>82.067</ele>
        <time>2017-03-18T18:54:09Z</time>
      </trkpt>
      <trkpt lat="38.005893" lon="-1.049055">
        <ele>82.335</ele>
        <time>2017-03-18T18:54:12Z</time>
      </trkpt>
      <trkpt lat="38.005991" lon="-1.048966">
        <ele>82.669</ele>
        <time>2017-03-18T18:54:14Z</time>
      </trkpt>
      <trkpt lat="38.006091" lon="-1.048896">
        <ele>82.645</ele>
        <time>2017-03-18T18:54:16Z</time>
      </trkpt>
      <trkpt lat="38.006204" lon="-1.048843">
        <ele>82.835</ele>
        <time>2017-03-18T18:54:18Z</time>
      </trkpt>
      <trkpt lat="38.006298" lon="-1.048813">
        <ele>82.977</ele>
        <time>2017-03-18T18:54:20Z</time>
      </trkpt>
      <trkpt lat="38.006395" lon="-1.048806">
        <ele>82.761</ele>
        <time>2017-03-18T18:54:22Z</time>
      </trkpt>
      <trkpt lat="38.006506" lon="-1.048813">
        <ele>83.427</ele>
        <time>2017-03-18T18:54:24Z</time>
      </trkpt>
      <trkpt lat="38.006616" lon="-1.048820">
        <ele>83.808</ele>
        <time>2017-03-18T18:54:26Z</time>
      </trkpt>
      <trkpt lat="38.006727" lon="-1.048830">
        <ele>83.648</ele>
        <time>2017-03-18T18:54:28Z</time>
      </trkpt>
      <trkpt lat="38.006837" lon="-1.048852">
        <ele>82.883</ele>
        <time>2017-03-18T18:54:30Z</time>
      </trkpt>
      <trkpt lat="38.006946" lon="-1.048879">
        <ele>82.715</ele>
        <time>2017-03-18T18:54:32Z</time>
      </trkpt>
      <trkpt lat="38.007053" lon="-1.048896">
        <ele>83.140</ele>
        <time>2017-03-18T18:54:33Z</time>
      </trkpt>
      <trkpt lat="38.007205" lon="-1.048917">
        <ele>85.248</ele>
        <time>2017-03-18T18:54:36Z</time>
      </trkpt>
      <trkpt lat="38.007358" lon="-1.048930">
        <ele>88.622</ele>
        <time>2017-03-18T18:54:39Z</time>
      </trkpt>
      <trkpt lat="38.007477" lon="-1.048933">
        <ele>90.578</ele>
        <time>2017-03-18T18:54:41Z</time>
      </trkpt>
      <trkpt lat="38.007610" lon="-1.048927">
        <ele>91.038</ele>
        <time>2017-03-18T18:54:43Z</time>
      </trkpt>
      <trkpt lat="38.007743" lon="-1.048916">
        <ele>89.995</ele>
        <time>2017-03-18T18:54:45Z</time>
      </trkpt>
      <trkpt lat="38.007864" lon="-1.048892">
        <ele>88.849</ele>
        <time>2017-03-18T18:54:47Z</time>
      </trkpt>
      <trkpt lat="38.007986" lon="-1.048859">
        <ele>88.423</ele>
        <time>2017-03-18T18:54:49Z</time>
      </trkpt>
      <trkpt lat="38.008105" lon="-1.048814">
        <ele>88.208</ele>
        <time>2017-03-18T18:54:51Z</time>
      </trkpt>
      <trkpt lat="38.008219" lon="-1.048760">
        <ele>88.180</ele>
        <time>2017-03-18T18:54:53Z</time>
      </trkpt>
      <trkpt lat="38.008337" lon="-1.048704">
        <ele>88.125</ele>
        <time>2017-03-18T18:54:55Z</time>
      </trkpt>
      <trkpt lat="38.008443" lon="-1.048640">
        <ele>88.757</ele>
        <time>2017-03-18T18:54:57Z</time>
      </trkpt>
      <trkpt lat="38.008548" lon="-1.048566">
        <ele>89.972</ele>
        <time>2017-03-18T18:54:59Z</time>
      </trkpt>
      <trkpt lat="38.008649" lon="-1.048479">
        <ele>90.680</ele>
        <time>2017-03-18T18:55:01Z</time>
      </trkpt>
      <trkpt lat="38.008751" lon="-1.048377">
        <ele>90.684</ele>
        <time>2017-03-18T18:55:03Z</time>
      </trkpt>
      <trkpt lat="38.008850" lon="-1.048264">
        <ele>90.050</ele>
        <time>2017-03-18T18:55:05Z</time>
      </trkpt>
      <trkpt lat="38.008930" lon="-1.048150">
        <ele>89.410</ele>
        <time>2017-03-18T18:55:07Z</time>
      </trkpt>
      <trkpt lat="38.008998" lon="-1.048031">
        <ele>88.977</ele>
        <time>2017-03-18T18:55:09Z</time>
      </trkpt>
      <trkpt lat="38.009057" lon="-1.047918">
        <ele>88.261</ele>
        <time>2017-03-18T18:55:11Z</time>
      </trkpt>
      <trkpt lat="38.009108" lon="-1.047801">
        <ele>87.827</ele>
        <time>2017-03-18T18:55:13Z</time>
      </trkpt>
      <trkpt lat="38.009153" lon="-1.047678">
        <ele>86.808</ele>
        <time>2017-03-18T18:55:15Z</time>
      </trkpt>
      <trkpt lat="38.009208" lon="-1.047542">
        <ele>85.178</ele>
        <time>2017-03-18T18:55:17Z</time>
      </trkpt>
      <trkpt lat="38.009280" lon="-1.047436">
        <ele>83.913</ele>
        <time>2017-03-18T18:55:19Z</time>
      </trkpt>
      <trkpt lat="38.009346" lon="-1.047331">
        <ele>83.625</ele>
        <time>2017-03-18T18:55:21Z</time>
      </trkpt>
      <trkpt lat="38.009425" lon="-1.047200">
        <ele>84.460</ele>
        <time>2017-03-18T18:55:24Z</time>
      </trkpt>
      <trkpt lat="38.009502" lon="-1.047073">
        <ele>84.988</ele>
        <time>2017-03-18T18:55:26Z</time>
      </trkpt>
      <trkpt lat="38.009591" lon="-1.046944">
        <ele>85.052</ele>
        <time>2017-03-18T18:55:29Z</time>
      </trkpt>
      <trkpt lat="38.009688" lon="-1.046853">
        <ele>84.388</ele>
        <time>2017-03-18T18:55:31Z</time>
      </trkpt>
      <trkpt lat="38.009788" lon="-1.046779">
        <ele>83.428</ele>
        <time>2017-03-18T18:55:33Z</time>
      </trkpt>
      <trkpt lat="38.009887" lon="-1.046697">
        <ele>82.467</ele>
        <time>2017-03-18T18:55:35Z</time>
      </trkpt>
      <trkpt lat="38.009976" lon="-1.046614">
        <ele>81.581</ele>
        <time>2017-03-18T18:55:37Z</time>
      </trkpt>
      <trkpt lat="38.010062" lon="-1.046537">
        <ele>80.019</ele>
        <time>2017-03-18T18:55:39Z</time>
      </trkpt>
      <trkpt lat="38.010152" lon="-1.046459">
        <ele>79.608</ele>
        <time>2017-03-18T18:55:41Z</time>
      </trkpt>
      <trkpt lat="38.010252" lon="-1.046374">
        <ele>79.737</ele>
        <time>2017-03-18T18:55:43Z</time>
      </trkpt>
      <trkpt lat="38.010385" lon="-1.046260">
        <ele>80.492</ele>
        <time>2017-03-18T18:55:45Z</time>
      </trkpt>
      <trkpt lat="38.010518" lon="-1.046144">
        <ele>82.884</ele>
        <time>2017-03-18T18:55:48Z</time>
      </trkpt>
      <trkpt lat="38.010618" lon="-1.046052">
        <ele>84.089</ele>
        <time>2017-03-18T18:55:50Z</time>
      </trkpt>
      <trkpt lat="38.010711" lon="-1.045966">
        <ele>84.817</ele>
        <time>2017-03-18T18:55:52Z</time>
      </trkpt>
      <trkpt lat="38.010801" lon="-1.045884">
        <ele>84.961</ele>
        <time>2017-03-18T18:55:54Z</time>
      </trkpt>
      <trkpt lat="38.010889" lon="-1.045818">
        <ele>85.057</ele>
        <time>2017-03-18T18:55:56Z</time>
      </trkpt>
      <trkpt lat="38.010994" lon="-1.045742">
        <ele>85.247</ele>
        <time>2017-03-18T18:55:58Z</time>
      </trkpt>
      <trkpt lat="38.011085" lon="-1.045665">
        <ele>85.153</ele>
        <time>2017-03-18T18:56:00Z</time>
      </trkpt>
      <trkpt lat="38.011165" lon="-1.045591">
        <ele>85.004</ele>
        <time>2017-03-18T18:56:02Z</time>
      </trkpt>
      <trkpt lat="38.011258" lon="-1.045501">
        <ele>84.914</ele>
        <time>2017-03-18T18:56:04Z</time>
      </trkpt>
      <trkpt lat="38.011358" lon="-1.045412">
        <ele>84.408</ele>
        <time>2017-03-18T18:56:06Z</time>
      </trkpt>
      <trkpt lat="38.011460" lon="-1.045321">
        <ele>83.786</ele>
        <time>2017-03-18T18:56:08Z</time>
      </trkpt>
      <trkpt lat="38.011562" lon="-1.045224">
        <ele>82.891</ele>
        <time>2017-03-18T18:56:10Z</time>
      </trkpt>
      <trkpt lat="38.011655" lon="-1.045130">
        <ele>82.523</ele>
        <time>2017-03-18T18:56:12Z</time>
      </trkpt>
      <trkpt lat="38.011741" lon="-1.045044">
        <ele>82.618</ele>
        <time>2017-03-18T18:56:14Z</time>
      </trkpt>
      <trkpt lat="38.011835" lon="-1.044954">
        <ele>82.066</ele>
        <time>2017-03-18T18:56:16Z</time>
      </trkpt>
      <trkpt lat="38.011923" lon="-1.044869">
        <ele>81.430</ele>
        <time>2017-03-18T18:56:18Z</time>
      </trkpt>
      <trkpt lat="38.012012" lon="-1.044784">
        <ele>81.376</ele>
        <time>2017-03-18T18:56:20Z</time>
      </trkpt>
      <trkpt lat="38.012100" lon="-1.044707">
        <ele>81.226</ele>
        <time>2017-03-18T18:56:22Z</time>
      </trkpt>
      <trkpt lat="38.012183" lon="-1.044640">
        <ele>81.034</ele>
        <time>2017-03-18T18:56:24Z</time>
      </trkpt>
      <trkpt lat="38.012267" lon="-1.044575">
        <ele>80.655</ele>
        <time>2017-03-18T18:56:26Z</time>
      </trkpt>
      <trkpt lat="38.012353" lon="-1.044512">
        <ele>80.610</ele>
        <time>2017-03-18T18:56:28Z</time>
      </trkpt>
      <trkpt lat="38.012443" lon="-1.044453">
        <ele>80.608</ele>
        <time>2017-03-18T18:56:30Z</time>
      </trkpt>
      <trkpt lat="38.012533" lon="-1.044388">
        <ele>80.624</ele>
        <time>2017-03-18T18:56:32Z</time>
      </trkpt>
      <trkpt lat="38.012645" lon="-1.044325">
        <ele>81.269</ele>
        <time>2017-03-18T18:56:35Z</time>
      </trkpt>
      <trkpt lat="38.012746" lon="-1.044256">
        <ele>81.641</ele>
        <time>2017-03-18T18:56:38Z</time>
      </trkpt>
      <trkpt lat="38.012829" lon="-1.044184">
        <ele>82.156</ele>
        <time>2017-03-18T18:56:40Z</time>
      </trkpt>
      <trkpt lat="38.012919" lon="-1.044096">
        <ele>82.114</ele>
        <time>2017-03-18T18:56:42Z</time>
      </trkpt>
      <trkpt lat="38.013010" lon="-1.044003">
        <ele>82.368</ele>
        <time>2017-03-18T18:56:44Z</time>
      </trkpt>
      <trkpt lat="38.013100" lon="-1.043910">
        <ele>82.174</ele>
        <time>2017-03-18T18:56:47Z</time>
      </trkpt>
      <trkpt lat="38.013191" lon="-1.043817">
        <ele>81.874</ele>
        <time>2017-03-18T18:56:49Z</time>
      </trkpt>
      <trkpt lat="38.013280" lon="-1.043731">
        <ele>81.773</ele>
        <time>2017-03-18T18:56:51Z</time>
      </trkpt>
      <trkpt lat="38.013361" lon="-1.043642">
        <ele>82.585</ele>
        <time>2017-03-18T18:56:53Z</time>
      </trkpt>
      <trkpt lat="38.013451" lon="-1.043552">
        <ele>83.313</ele>
        <time>2017-03-18T18:56:55Z</time>
      </trkpt>
      <trkpt lat="38.013541" lon="-1.043469">
        <ele>83.608</ele>
        <time>2017-03-18T18:56:57Z</time>
      </trkpt>
      <trkpt lat="38.013626" lon="-1.043390">
        <ele>83.648</ele>
        <time>2017-03-18T18:56:59Z</time>
      </trkpt>
      <trkpt lat="38.013708" lon="-1.043319">
        <ele>83.333</ele>
        <time>2017-03-18T18:57:01Z</time>
      </trkpt>
      <trkpt lat="38.013839" lon="-1.043196">
        <ele>81.845</ele>
        <time>2017-03-18T18:57:03Z</time>
      </trkpt>
      <trkpt lat="38.013923" lon="-1.043121">
        <ele>81.120</ele>
        <time>2017-03-18T18:57:05Z</time>
      </trkpt>
      <trkpt lat="38.014008" lon="-1.043061">
        <ele>81.388</ele>
        <time>2017-03-18T18:57:07Z</time>
      </trkpt>
      <trkpt lat="38.014091" lon="-1.043002">
        <ele>81.892</ele>
        <time>2017-03-18T18:57:09Z</time>
      </trkpt>
      <trkpt lat="38.014178" lon="-1.042927">
        <ele>82.658</ele>
        <time>2017-03-18T18:57:11Z</time>
      </trkpt>
      <trkpt lat="38.014298" lon="-1.042840">
        <ele>83.798</ele>
        <time>2017-03-18T18:57:14Z</time>
      </trkpt>
      <trkpt lat="38.014382" lon="-1.042769">
        <ele>83.929</ele>
        <time>2017-03-18T18:57:16Z</time>
      </trkpt>
      <trkpt lat="38.014487" lon="-1.042678">
        <ele>84.500</ele>
        <time>2017-03-18T18:57:18Z</time>
      </trkpt>
      <trkpt lat="38.014585" lon="-1.042592">
        <ele>86.020</ele>
        <time>2017-03-18T18:57:20Z</time>
      </trkpt>
      <trkpt lat="38.014674" lon="-1.042509">
        <ele>86.708</ele>
        <time>2017-03-18T18:57:22Z</time>
      </trkpt>
      <trkpt lat="38.014752" lon="-1.042439">
        <ele>87.173</ele>
        <time>2017-03-18T18:57:24Z</time>
      </trkpt>
      <trkpt lat="38.014843" lon="-1.042357">
        <ele>87.458</ele>
        <time>2017-03-18T18:57:26Z</time>
      </trkpt>
      <trkpt lat="38.014940" lon="-1.042262">
        <ele>87.360</ele>
        <time>2017-03-18T18:57:28Z</time>
      </trkpt>
      <trkpt lat="38.015039" lon="-1.042177">
        <ele>87.195</ele>
        <time>2017-03-18T18:57:30Z</time>
      </trkpt>
      <trkpt lat="38.015125" lon="-1.042091">
        <ele>86.473</ele>
        <time>2017-03-18T18:57:32Z</time>
      </trkpt>
      <trkpt lat="38.015203" lon="-1.042013">
        <ele>85.527</ele>
        <time>2017-03-18T18:57:34Z</time>
      </trkpt>
      <trkpt lat="38.015287" lon="-1.041929">
        <ele>85.633</ele>
        <time>2017-03-18T18:57:36Z</time>
      </trkpt>
      <trkpt lat="38.015377" lon="-1.041838">
        <ele>85.813</ele>
        <time>2017-03-18T18:57:38Z</time>
      </trkpt>
      <trkpt lat="38.015464" lon="-1.041755">
        <ele>85.464</ele>
        <time>2017-03-18T18:57:40Z</time>
      </trkpt>
      <trkpt lat="38.015556" lon="-1.041674">
        <ele>84.906</ele>
        <time>2017-03-18T18:57:42Z</time>
      </trkpt>
      <trkpt lat="38.015652" lon="-1.041595">
        <ele>84.616</ele>
        <time>2017-03-18T18:57:44Z</time>
      </trkpt>
      <trkpt lat="38.015749" lon="-1.041517">
        <ele>84.608</ele>
        <time>2017-03-18T18:57:46Z</time>
      </trkpt>
      <trkpt lat="38.015847" lon="-1.041438">
        <ele>83.987</ele>
        <time>2017-03-18T18:57:48Z</time>
      </trkpt>
      <trkpt lat="38.015941" lon="-1.041368">
        <ele>82.932</ele>
        <time>2017-03-18T18:57:50Z</time>
      </trkpt>
      <trkpt lat="38.016049" lon="-1.041294">
        <ele>81.284</ele>
        <time>2017-03-18T18:57:52Z</time>
      </trkpt>
      <trkpt lat="38.016157" lon="-1.041214">
        <ele>79.419</ele>
        <time>2017-03-18T18:57:54Z</time>
      </trkpt>
      <trkpt lat="38.016266" lon="-1.041137">
        <ele>78.097</ele>
        <time>2017-03-18T18:57:56Z</time>
      </trkpt>
      <trkpt lat="38.016360" lon="-1.041075">
        <ele>77.241</ele>
        <time>2017-03-18T18:57:58Z</time>
      </trkpt>
      <trkpt lat="38.016455" lon="-1.041019">
        <ele>77.927</ele>
        <time>2017-03-18T18:58:01Z</time>
      </trkpt>
      <trkpt lat="38.016547" lon="-1.040976">
        <ele>78.847</ele>
        <time>2017-03-18T18:58:02Z</time>
      </trkpt>
      <trkpt lat="38.016638" lon="-1.040925">
        <ele>80.733</ele>
        <time>2017-03-18T18:58:05Z</time>
      </trkpt>
      <trkpt lat="38.016738" lon="-1.040869">
        <ele>82.923</ele>
        <time>2017-03-18T18:58:07Z</time>
      </trkpt>
      <trkpt lat="38.016835" lon="-1.040820">
        <ele>85.615</ele>
        <time>2017-03-18T18:58:09Z</time>
      </trkpt>
      <trkpt lat="38.016950" lon="-1.040763">
        <ele>86.708</ele>
        <time>2017-03-18T18:58:12Z</time>
      </trkpt>
      <trkpt lat="38.017079" lon="-1.040682">
        <ele>88.224</ele>
        <time>2017-03-18T18:58:15Z</time>
      </trkpt>
      <trkpt lat="38.017184" lon="-1.040593">
        <ele>87.049</ele>
        <time>2017-03-18T18:58:17Z</time>
      </trkpt>
      <trkpt lat="38.017283" lon="-1.040511">
        <ele>85.891</ele>
        <time>2017-03-18T18:58:19Z</time>
      </trkpt>
      <trkpt lat="38.017384" lon="-1.040433">
        <ele>84.916</ele>
        <time>2017-03-18T18:58:21Z</time>
      </trkpt>
      <trkpt lat="38.017523" lon="-1.040332">
        <ele>84.114</ele>
        <time>2017-03-18T18:58:23Z</time>
      </trkpt>
      <trkpt lat="38.017620" lon="-1.040273">
        <ele>84.248</ele>
        <time>2017-03-18T18:58:25Z</time>
      </trkpt>
      <trkpt lat="38.017714" lon="-1.040224">
        <ele>83.974</ele>
        <time>2017-03-18T18:58:27Z</time>
      </trkpt>
      <trkpt lat="38.017816" lon="-1.040168">
        <ele>83.484</ele>
        <time>2017-03-18T18:58:29Z</time>
      </trkpt>
      <trkpt lat="38.017920" lon="-1.040112">
        <ele>82.437</ele>
        <time>2017-03-18T18:58:31Z</time>
      </trkpt>
      <trkpt lat="38.018020" lon="-1.040062">
        <ele>81.649</ele>
        <time>2017-03-18T18:58:33Z</time>
      </trkpt>
      <trkpt lat="38.018131" lon="-1.040009">
        <ele>81.113</ele>
        <time>2017-03-18T18:58:35Z</time>
      </trkpt>
      <trkpt lat="38.018234" lon="-1.039952">
        <ele>81.108</ele>
        <time>2017-03-18T18:58:37Z</time>
      </trkpt>
      <trkpt lat="38.018328" lon="-1.039894">
        <ele>81.224</ele>
        <time>2017-03-18T18:58:39Z</time>
      </trkpt>
      <trkpt lat="38.018426" lon="-1.039844">
        <ele>81.949</ele>
        <time>2017-03-18T18:58:41Z</time>
      </trkpt>
      <trkpt lat="38.018537" lon="-1.039796">
        <ele>82.281</ele>
        <time>2017-03-18T18:58:43Z</time>
      </trkpt>
      <trkpt lat="38.018642" lon="-1.039751">
        <ele>82.786</ele>
        <time>2017-03-18T18:58:45Z</time>
      </trkpt>
      <trkpt lat="38.018743" lon="-1.039710">
        <ele>83.234</ele>
        <time>2017-03-18T18:58:47Z</time>
      </trkpt>
      <trkpt lat="38.018862" lon="-1.039657">
        <ele>82.988</ele>
        <time>2017-03-18T18:58:49Z</time>
      </trkpt>
      <trkpt lat="38.018967" lon="-1.039611">
        <ele>82.594</ele>
        <time>2017-03-18T18:58:51Z</time>
      </trkpt>
      <trkpt lat="38.019071" lon="-1.039567">
        <ele>82.184</ele>
        <time>2017-03-18T18:58:53Z</time>
      </trkpt>
      <trkpt lat="38.019175" lon="-1.039530">
        <ele>82.272</ele>
        <time>2017-03-18T18:58:55Z</time>
      </trkpt>
      <trkpt lat="38.019277" lon="-1.039500">
        <ele>82.513</ele>
        <time>2017-03-18T18:58:57Z</time>
      </trkpt>
      <trkpt lat="38.019371" lon="-1.039471">
        <ele>82.614</ele>
        <time>2017-03-18T18:58:59Z</time>
      </trkpt>
      <trkpt lat="38.019476" lon="-1.039435">
        <ele>83.408</ele>
        <time>2017-03-18T18:59:01Z</time>
      </trkpt>
      <trkpt lat="38.019590" lon="-1.039405">
        <ele>83.858</ele>
        <time>2017-03-18T18:59:03Z</time>
      </trkpt>
      <trkpt lat="38.019697" lon="-1.039375">
        <ele>84.183</ele>
        <time>2017-03-18T18:59:05Z</time>
      </trkpt>
      <trkpt lat="38.019794" lon="-1.039346">
        <ele>85.295</ele>
        <time>2017-03-18T18:59:07Z</time>
      </trkpt>
      <trkpt lat="38.019909" lon="-1.039345">
        <ele>86.730</ele>
        <time>2017-03-18T18:59:09Z</time>
      </trkpt>
      <trkpt lat="38.020048" lon="-1.039320">
        <ele>86.178</ele>
        <time>2017-03-18T18:59:11Z</time>
      </trkpt>
      <trkpt lat="38.020176" lon="-1.039291">
        <ele>85.012</ele>
        <time>2017-03-18T18:59:13Z</time>
      </trkpt>
      <trkpt lat="38.020276" lon="-1.039266">
        <ele>84.718</ele>
        <time>2017-03-18T18:59:15Z</time>
      </trkpt>
      <trkpt lat="38.020382" lon="-1.039246">
        <ele>85.958</ele>
        <time>2017-03-18T18:59:17Z</time>
      </trkpt>
      <trkpt lat="38.020504" lon="-1.039220">
        <ele>86.231</ele>
        <time>2017-03-18T18:59:19Z</time>
      </trkpt>
      <trkpt lat="38.020626" lon="-1.039199">
        <ele>85.161</ele>
        <time>2017-03-18T18:59:22Z</time>
      </trkpt>
      <trkpt lat="38.020751" lon="-1.039182">
        <ele>83.307</ele>
        <time>2017-03-18T18:59:24Z</time>
      </trkpt>
      <trkpt lat="38.020870" lon="-1.039161">
        <ele>81.408</ele>
        <time>2017-03-18T18:59:26Z</time>
      </trkpt>
      <trkpt lat="38.020986" lon="-1.039143">
        <ele>81.044</ele>
        <time>2017-03-18T18:59:28Z</time>
      </trkpt>
      <trkpt lat="38.021108" lon="-1.039134">
        <ele>80.439</ele>
        <time>2017-03-18T18:59:30Z</time>
      </trkpt>
      <trkpt lat="38.021228" lon="-1.039117">
        <ele>79.981</ele>
        <time>2017-03-18T18:59:32Z</time>
      </trkpt>
      <trkpt lat="38.021341" lon="-1.039097">
        <ele>80.296</ele>
        <time>2017-03-18T18:59:34Z</time>
      </trkpt>
      <trkpt lat="38.021455" lon="-1.039081">
        <ele>81.534</ele>
        <time>2017-03-18T18:59:36Z</time>
      </trkpt>
      <trkpt lat="38.021568" lon="-1.039068">
        <ele>83.018</ele>
        <time>2017-03-18T18:59:37Z</time>
      </trkpt>
      <trkpt lat="38.021690" lon="-1.039053">
        <ele>84.114</ele>
        <time>2017-03-18T18:59:39Z</time>
      </trkpt>
      <trkpt lat="38.021809" lon="-1.039039">
        <ele>84.754</ele>
        <time>2017-03-18T18:59:41Z</time>
      </trkpt>
      <trkpt lat="38.021923" lon="-1.039021">
        <ele>85.486</ele>
        <time>2017-03-18T18:59:43Z</time>
      </trkpt>
      <trkpt lat="38.022041" lon="-1.039000">
        <ele>85.960</ele>
        <time>2017-03-18T18:59:45Z</time>
      </trkpt>
      <trkpt lat="38.022148" lon="-1.038976">
        <ele>86.526</ele>
        <time>2017-03-18T18:59:47Z</time>
      </trkpt>
      <trkpt lat="38.022262" lon="-1.038951">
        <ele>86.808</ele>
        <time>2017-03-18T18:59:49Z</time>
      </trkpt>
      <trkpt lat="38.022354" lon="-1.038943">
        <ele>86.389</ele>
        <time>2017-03-18T18:59:51Z</time>
      </trkpt>
      <trkpt lat="38.022451" lon="-1.038935">
        <ele>87.274</ele>
        <time>2017-03-18T18:59:53Z</time>
      </trkpt>
      <trkpt lat="38.022551" lon="-1.038918">
        <ele>88.386</ele>
        <time>2017-03-18T18:59:55Z</time>
      </trkpt>
      <trkpt lat="38.022683" lon="-1.038892">
        <ele>91.981</ele>
        <time>2017-03-18T18:59:58Z</time>
      </trkpt>
      <trkpt lat="38.022794" lon="-1.038858">
        <ele>92.869</ele>
        <time>2017-03-18T19:00:00Z</time>
      </trkpt>
      <trkpt lat="38.022914" lon="-1.038819">
        <ele>91.463</ele>
        <time>2017-03-18T19:00:02Z</time>
      </trkpt>
      <trkpt lat="38.023030" lon="-1.038778">
        <ele>89.919</ele>
        <time>2017-03-18T19:00:04Z</time>
      </trkpt>
      <trkpt lat="38.023149" lon="-1.038740">
        <ele>88.069</ele>
        <time>2017-03-18T19:00:06Z</time>
      </trkpt>
      <trkpt lat="38.023262" lon="-1.038711">
        <ele>86.227</ele>
        <time>2017-03-18T19:00:08Z</time>
      </trkpt>
      <trkpt lat="38.023358" lon="-1.038690">
        <ele>85.968</ele>
        <time>2017-03-18T19:00:11Z</time>
      </trkpt>
      <trkpt lat="38.023449" lon="-1.038672">
        <ele>86.014</ele>
        <time>2017-03-18T19:00:13Z</time>
      </trkpt>
      <trkpt lat="38.023542" lon="-1.038665">
        <ele>86.808</ele>
        <time>2017-03-18T19:00:15Z</time>
      </trkpt>
      <trkpt lat="38.023635" lon="-1.038666">
        <ele>87.153</ele>
        <time>2017-03-18T19:00:17Z</time>
      </trkpt>
      <trkpt lat="38.023739" lon="-1.038669">
        <ele>87.168</ele>
        <time>2017-03-18T19:00:20Z</time>
      </trkpt>
      <trkpt lat="38.023864" lon="-1.038610">
        <ele>87.240</ele>
        <time>2017-03-18T19:00:24Z</time>
      </trkpt>
      <trkpt lat="38.023968" lon="-1.038572">
        <ele>86.525</ele>
        <time>2017-03-18T19:00:26Z</time>
      </trkpt>
      <trkpt lat="38.024082" lon="-1.038535">
        <ele>85.863</ele>
        <time>2017-03-18T19:00:28Z</time>
      </trkpt>
      <trkpt lat="38.024206" lon="-1.038502">
        <ele>85.587</ele>
        <time>2017-03-18T19:00:29Z</time>
      </trkpt>
      <trkpt lat="38.024326" lon="-1.038475">
        <ele>85.033</ele>
        <time>2017-03-18T19:00:31Z</time>
      </trkpt>
      <trkpt lat="38.024433" lon="-1.038450">
        <ele>84.913</ele>
        <time>2017-03-18T19:00:33Z</time>
      </trkpt>
      <trkpt lat="38.024537" lon="-1.038422">
        <ele>85.771</ele>
        <time>2017-03-18T19:00:35Z</time>
      </trkpt>
      <trkpt lat="38.024645" lon="-1.038394">
        <ele>86.641</ele>
        <time>2017-03-18T19:00:37Z</time>
      </trkpt>
      <trkpt lat="38.024759" lon="-1.038371">
        <ele>87.315</ele>
        <time>2017-03-18T19:00:39Z</time>
      </trkpt>
      <trkpt lat="38.024884" lon="-1.038357">
        <ele>87.908</ele>
        <time>2017-03-18T19:00:41Z</time>
      </trkpt>
      <trkpt lat="38.025021" lon="-1.038365">
        <ele>90.498</ele>
        <time>2017-03-18T19:00:44Z</time>
      </trkpt>
      <trkpt lat="38.025162" lon="-1.038369">
        <ele>93.973</ele>
        <time>2017-03-18T19:00:47Z</time>
      </trkpt>
      <trkpt lat="38.025290" lon="-1.038344">
        <ele>95.535</ele>
        <time>2017-03-18T19:00:49Z</time>
      </trkpt>
      <trkpt lat="38.025419" lon="-1.038288">
        <ele>94.750</ele>
        <time>2017-03-18T19:00:51Z</time>
      </trkpt>
      <trkpt lat="38.025539" lon="-1.038218">
        <ele>91.918</ele>
        <time>2017-03-18T19:00:53Z</time>
      </trkpt>
      <trkpt lat="38.025660" lon="-1.038128">
        <ele>89.352</ele>
        <time>2017-03-18T19:00:55Z</time>
      </trkpt>
      <trkpt lat="38.025757" lon="-1.038014">
        <ele>86.738</ele>
        <time>2017-03-18T19:00:57Z</time>
      </trkpt>
      <trkpt lat="38.025835" lon="-1.037913">
        <ele>85.028</ele>
        <time>2017-03-18T19:00:59Z</time>
      </trkpt>
      <trkpt lat="38.025903" lon="-1.037806">
        <ele>84.196</ele>
        <time>2017-03-18T19:01:01Z</time>
      </trkpt>
      <trkpt lat="38.025971" lon="-1.037682">
        <ele>84.331</ele>
        <time>2017-03-18T19:01:03Z</time>
      </trkpt>
      <trkpt lat="38.026041" lon="-1.037542">
        <ele>84.024</ele>
        <time>2017-03-18T19:01:05Z</time>
      </trkpt>
      <trkpt lat="38.026105" lon="-1.037400">
        <ele>83.308</ele>
        <time>2017-03-18T19:01:07Z</time>
      </trkpt>
      <trkpt lat="38.026156" lon="-1.037270">
        <ele>82.190</ele>
        <time>2017-03-18T19:01:09Z</time>
      </trkpt>
      <trkpt lat="38.026198" lon="-1.037157">
        <ele>81.165</ele>
        <time>2017-03-18T19:01:11Z</time>
      </trkpt>
      <trkpt lat="38.026242" lon="-1.037045">
        <ele>80.927</ele>
        <time>2017-03-18T19:01:13Z</time>
      </trkpt>
      <trkpt lat="38.026297" lon="-1.036909">
        <ele>81.032</ele>
        <time>2017-03-18T19:01:15Z</time>
      </trkpt>
      <trkpt lat="38.026343" lon="-1.036786">
        <ele>81.060</ele>
        <time>2017-03-18T19:01:17Z</time>
      </trkpt>
      <trkpt lat="38.026395" lon="-1.036644">
        <ele>80.664</ele>
        <time>2017-03-18T19:01:19Z</time>
      </trkpt>
      <trkpt lat="38.026453" lon="-1.036485">
        <ele>79.920</ele>
        <time>2017-03-18T19:01:21Z</time>
      </trkpt>
      <trkpt lat="38.026509" lon="-1.036345">
        <ele>78.630</ele>
        <time>2017-03-18T19:01:23Z</time>
      </trkpt>
      <trkpt lat="38.026560" lon="-1.036197">
        <ele>77.641</ele>
        <time>2017-03-18T19:01:25Z</time>
      </trkpt>
      <trkpt lat="38.026606" lon="-1.036053">
        <ele>77.081</ele>
        <time>2017-03-18T19:01:28Z</time>
      </trkpt>
      <trkpt lat="38.026650" lon="-1.035911">
        <ele>76.809</ele>
        <time>2017-03-18T19:01:30Z</time>
      </trkpt>
      <trkpt lat="38.026692" lon="-1.035773">
        <ele>77.008</ele>
        <time>2017-03-18T19:01:32Z</time>
      </trkpt>
      <trkpt lat="38.026733" lon="-1.035648">
        <ele>76.835</ele>
        <time>2017-03-18T19:01:34Z</time>
      </trkpt>
      <trkpt lat="38.026777" lon="-1.035512">
        <ele>76.670</ele>
        <time>2017-03-18T19:01:36Z</time>
      </trkpt>
      <trkpt lat="38.026826" lon="-1.035377">
        <ele>77.692</ele>
        <time>2017-03-18T19:01:38Z</time>
      </trkpt>
      <trkpt lat="38.026871" lon="-1.035266">
        <ele>78.937</ele>
        <time>2017-03-18T19:01:40Z</time>
      </trkpt>
      <trkpt lat="38.026917" lon="-1.035153">
        <ele>80.295</ele>
        <time>2017-03-18T19:01:42Z</time>
      </trkpt>
      <trkpt lat="38.026963" lon="-1.035038">
        <ele>81.329</ele>
        <time>2017-03-18T19:01:44Z</time>
      </trkpt>
      <trkpt lat="38.027014" lon="-1.034903">
        <ele>82.035</ele>
        <time>2017-03-18T19:01:46Z</time>
      </trkpt>
      <trkpt lat="38.027064" lon="-1.034778">
        <ele>82.285</ele>
        <time>2017-03-18T19:01:48Z</time>
      </trkpt>
      <trkpt lat="38.027109" lon="-1.034672">
        <ele>81.869</ele>
        <time>2017-03-18T19:01:49Z</time>
      </trkpt>
      <trkpt lat="38.027165" lon="-1.034518">
        <ele>81.404</ele>
        <time>2017-03-18T19:01:52Z</time>
      </trkpt>
      <trkpt lat="38.027199" lon="-1.034370">
        <ele>80.824</ele>
        <time>2017-03-18T19:01:55Z</time>
      </trkpt>
      <trkpt lat="38.027243" lon="-1.034213">
        <ele>81.408</ele>
        <time>2017-03-18T19:01:58Z</time>
      </trkpt>
      <trkpt lat="38.027278" lon="-1.034105">
        <ele>81.967</ele>
        <time>2017-03-18T19:02:00Z</time>
      </trkpt>
      <trkpt lat="38.027317" lon="-1.033993">
        <ele>82.442</ele>
        <time>2017-03-18T19:02:02Z</time>
      </trkpt>
      <trkpt lat="38.027364" lon="-1.033864">
        <ele>82.724</ele>
        <time>2017-03-18T19:02:04Z</time>
      </trkpt>
      <trkpt lat="38.027413" lon="-1.033721">
        <ele>82.899</ele>
        <time>2017-03-18T19:02:06Z</time>
      </trkpt>
      <trkpt lat="38.027457" lon="-1.033597">
        <ele>82.997</ele>
        <time>2017-03-18T19:02:08Z</time>
      </trkpt>
      <trkpt lat="38.027497" lon="-1.033470">
        <ele>83.041</ele>
        <time>2017-03-18T19:02:10Z</time>
      </trkpt>
      <trkpt lat="38.027536" lon="-1.033338">
        <ele>82.447</ele>
        <time>2017-03-18T19:02:12Z</time>
      </trkpt>
      <trkpt lat="38.027580" lon="-1.033195">
        <ele>82.137</ele>
        <time>2017-03-18T19:02:14Z</time>
      </trkpt>
      <trkpt lat="38.027626" lon="-1.033054">
        <ele>82.352</ele>
        <time>2017-03-18T19:02:16Z</time>
      </trkpt>
      <trkpt lat="38.027664" lon="-1.032932">
        <ele>82.753</ele>
        <time>2017-03-18T19:02:18Z</time>
      </trkpt>
      <trkpt lat="38.027715" lon="-1.032795">
        <ele>83.408</ele>
        <time>2017-03-18T19:02:20Z</time>
      </trkpt>
      <trkpt lat="38.027767" lon="-1.032663">
        <ele>83.708</ele>
        <time>2017-03-18T19:02:22Z</time>
      </trkpt>
      <trkpt lat="38.027811" lon="-1.032545">
        <ele>83.196</ele>
        <time>2017-03-18T19:02:24Z</time>
      </trkpt>
      <trkpt lat="38.027851" lon="-1.032419">
        <ele>82.261</ele>
        <time>2017-03-18T19:02:26Z</time>
      </trkpt>
      <trkpt lat="38.027896" lon="-1.032277">
        <ele>81.483</ele>
        <time>2017-03-18T19:02:28Z</time>
      </trkpt>
      <trkpt lat="38.027943" lon="-1.032135">
        <ele>80.758</ele>
        <time>2017-03-18T19:02:30Z</time>
      </trkpt>
      <trkpt lat="38.027994" lon="-1.031997">
        <ele>80.116</ele>
        <time>2017-03-18T19:02:32Z</time>
      </trkpt>
      <trkpt lat="38.028041" lon="-1.031859">
        <ele>79.790</ele>
        <time>2017-03-18T19:02:34Z</time>
      </trkpt>
      <trkpt lat="38.028081" lon="-1.031713">
        <ele>79.526</ele>
        <time>2017-03-18T19:02:36Z</time>
      </trkpt>
      <trkpt lat="38.028116" lon="-1.031578">
        <ele>79.326</ele>
        <time>2017-03-18T19:02:38Z</time>
      </trkpt>
      <trkpt lat="38.028152" lon="-1.031440">
        <ele>79.191</ele>
        <time>2017-03-18T19:02:40Z</time>
      </trkpt>
      <trkpt lat="38.028192" lon="-1.031304">
        <ele>79.281</ele>
        <time>2017-03-18T19:02:42Z</time>
      </trkpt>
      <trkpt lat="38.028239" lon="-1.031182">
        <ele>79.519</ele>
        <time>2017-03-18T19:02:44Z</time>
      </trkpt>
      <trkpt lat="38.028289" lon="-1.031066">
        <ele>80.208</ele>
        <time>2017-03-18T19:02:46Z</time>
      </trkpt>
      <trkpt lat="38.028342" lon="-1.030959">
        <ele>82.050</ele>
        <time>2017-03-18T19:02:48Z</time>
      </trkpt>
      <trkpt lat="38.028391" lon="-1.030833">
        <ele>83.965</ele>
        <time>2017-03-18T19:02:50Z</time>
      </trkpt>
      <trkpt lat="38.028437" lon="-1.030685">
        <ele>85.237</ele>
        <time>2017-03-18T19:02:53Z</time>
      </trkpt>
      <trkpt lat="38.028479" lon="-1.030536">
        <ele>85.192</ele>
        <time>2017-03-18T19:02:55Z</time>
      </trkpt>
      <trkpt lat="38.028525" lon="-1.030376">
        <ele>84.450</ele>
        <time>2017-03-18T19:02:57Z</time>
      </trkpt>
      <trkpt lat="38.028574" lon="-1.030250">
        <ele>84.064</ele>
        <time>2017-03-18T19:02:59Z</time>
      </trkpt>
      <trkpt lat="38.028629" lon="-1.030145">
        <ele>83.630</ele>
        <time>2017-03-18T19:03:01Z</time>
      </trkpt>
      <trkpt lat="38.028701" lon="-1.030037">
        <ele>84.110</ele>
        <time>2017-03-18T19:03:04Z</time>
      </trkpt>
      <trkpt lat="38.028754" lon="-1.029891">
        <ele>86.568</ele>
        <time>2017-03-18T19:03:07Z</time>
      </trkpt>
      <trkpt lat="38.028793" lon="-1.029745">
        <ele>88.142</ele>
        <time>2017-03-18T19:03:09Z</time>
      </trkpt>
      <trkpt lat="38.028832" lon="-1.029596">
        <ele>88.626</ele>
        <time>2017-03-18T19:03:11Z</time>
      </trkpt>
      <trkpt lat="38.028877" lon="-1.029451">
        <ele>88.608</ele>
        <time>2017-03-18T19:03:13Z</time>
      </trkpt>
      <trkpt lat="38.028929" lon="-1.029309">
        <ele>87.817</ele>
        <time>2017-03-18T19:03:14Z</time>
      </trkpt>
      <trkpt lat="38.028996" lon="-1.029105">
        <ele>86.592</ele>
        <time>2017-03-18T19:03:17Z</time>
      </trkpt>
      <trkpt lat="38.029046" lon="-1.028970">
        <ele>85.274</ele>
        <time>2017-03-18T19:03:19Z</time>
      </trkpt>
      <trkpt lat="38.029100" lon="-1.028810">
        <ele>83.679</ele>
        <time>2017-03-18T19:03:21Z</time>
      </trkpt>
      <trkpt lat="38.029148" lon="-1.028657">
        <ele>82.487</ele>
        <time>2017-03-18T19:03:23Z</time>
      </trkpt>
      <trkpt lat="38.029196" lon="-1.028514">
        <ele>81.661</ele>
        <time>2017-03-18T19:03:25Z</time>
      </trkpt>
      <trkpt lat="38.029242" lon="-1.028387">
        <ele>81.427</ele>
        <time>2017-03-18T19:03:27Z</time>
      </trkpt>
      <trkpt lat="38.029310" lon="-1.028175">
        <ele>80.677</ele>
        <time>2017-03-18T19:03:30Z</time>
      </trkpt>
      <trkpt lat="38.029361" lon="-1.028025">
        <ele>80.272</ele>
        <time>2017-03-18T19:03:32Z</time>
      </trkpt>
      <trkpt lat="38.029415" lon="-1.027889">
        <ele>80.013</ele>
        <time>2017-03-18T19:03:34Z</time>
      </trkpt>
      <trkpt lat="38.029473" lon="-1.027771">
        <ele>79.814</ele>
        <time>2017-03-18T19:03:36Z</time>
      </trkpt>
      <trkpt lat="38.029538" lon="-1.027661">
        <ele>79.808</ele>
        <time>2017-03-18T19:03:38Z</time>
      </trkpt>
      <trkpt lat="38.029614" lon="-1.027560">
        <ele>80.288</ele>
        <time>2017-03-18T19:03:40Z</time>
      </trkpt>
      <trkpt lat="38.029694" lon="-1.027469">
        <ele>80.753</ele>
        <time>2017-03-18T19:03:42Z</time>
      </trkpt>
      <trkpt lat="38.029788" lon="-1.027381">
        <ele>81.385</ele>
        <time>2017-03-18T19:03:44Z</time>
      </trkpt>
      <trkpt lat="38.029876" lon="-1.027303">
        <ele>82.030</ele>
        <time>2017-03-18T19:03:46Z</time>
      </trkpt>
      <trkpt lat="38.029958" lon="-1.027231">
        <ele>82.878</ele>
        <time>2017-03-18T19:03:48Z</time>
      </trkpt>
      <trkpt lat="38.030053" lon="-1.027152">
        <ele>83.362</ele>
        <time>2017-03-18T19:03:50Z</time>
      </trkpt>
      <trkpt lat="38.030151" lon="-1.027076">
        <ele>83.328</ele>
        <time>2017-03-18T19:03:52Z</time>
      </trkpt>
      <trkpt lat="38.030252" lon="-1.027004">
        <ele>83.138</ele>
        <time>2017-03-18T19:03:54Z</time>
      </trkpt>
      <trkpt lat="38.030348" lon="-1.026937">
        <ele>83.221</ele>
        <time>2017-03-18T19:03:56Z</time>
      </trkpt>
      <trkpt lat="38.030443" lon="-1.026871">
        <ele>83.541</ele>
        <time>2017-03-18T19:03:58Z</time>
      </trkpt>
      <trkpt lat="38.030546" lon="-1.026798">
        <ele>83.505</ele>
        <time>2017-03-18T19:04:00Z</time>
      </trkpt>
      <trkpt lat="38.030644" lon="-1.026733">
        <ele>83.408</ele>
        <time>2017-03-18T19:04:02Z</time>
      </trkpt>
      <trkpt lat="38.030749" lon="-1.026664">
        <ele>83.753</ele>
        <time>2017-03-18T19:04:04Z</time>
      </trkpt>
      <trkpt lat="38.030861" lon="-1.026584">
        <ele>83.888</ele>
        <time>2017-03-18T19:04:06Z</time>
      </trkpt>
      <trkpt lat="38.030960" lon="-1.026507">
        <ele>83.180</ele>
        <time>2017-03-18T19:04:08Z</time>
      </trkpt>
      <trkpt lat="38.031065" lon="-1.026427">
        <ele>81.875</ele>
        <time>2017-03-18T19:04:11Z</time>
      </trkpt>
      <trkpt lat="38.031165" lon="-1.026359">
        <ele>81.163</ele>
        <time>2017-03-18T19:04:13Z</time>
      </trkpt>
      <trkpt lat="38.031264" lon="-1.026292">
        <ele>80.727</ele>
        <time>2017-03-18T19:04:15Z</time>
      </trkpt>
      <trkpt lat="38.031365" lon="-1.026226">
        <ele>80.713</ele>
        <time>2017-03-18T19:04:17Z</time>
      </trkpt>
      <trkpt lat="38.031447" lon="-1.026176">
        <ele>81.053</ele>
        <time>2017-03-18T19:04:19Z</time>
      </trkpt>
      <trkpt lat="38.031542" lon="-1.026126">
        <ele>81.989</ele>
        <time>2017-03-18T19:04:21Z</time>
      </trkpt>
      <trkpt lat="38.031642" lon="-1.026052">
        <ele>82.406</ele>
        <time>2017-03-18T19:04:23Z</time>
      </trkpt>
      <trkpt lat="38.031742" lon="-1.025971">
        <ele>82.526</ele>
        <time>2017-03-18T19:04:25Z</time>
      </trkpt>
      <trkpt lat="38.031839" lon="-1.025884">
        <ele>82.008</ele>
        <time>2017-03-18T19:04:27Z</time>
      </trkpt>
      <trkpt lat="38.031933" lon="-1.025795">
        <ele>81.319</ele>
        <time>2017-03-18T19:04:29Z</time>
      </trkpt>
      <trkpt lat="38.032016" lon="-1.025704">
        <ele>81.014</ele>
        <time>2017-03-18T19:04:30Z</time>
      </trkpt>
      <trkpt lat="38.032088" lon="-1.025613">
        <ele>80.956</ele>
        <time>2017-03-18T19:04:32Z</time>
      </trkpt>
      <trkpt lat="38.032178" lon="-1.025489">
        <ele>80.771</ele>
        <time>2017-03-18T19:04:35Z</time>
      </trkpt>
      <trkpt lat="38.032238" lon="-1.025396">
        <ele>80.649</ele>
        <time>2017-03-18T19:04:37Z</time>
      </trkpt>
      <trkpt lat="38.032323" lon="-1.025271">
        <ele>80.683</ele>
        <time>2017-03-18T19:04:40Z</time>
      </trkpt>
      <trkpt lat="38.032388" lon="-1.025176">
        <ele>81.129</ele>
        <time>2017-03-18T19:04:42Z</time>
      </trkpt>
      <trkpt lat="38.032444" lon="-1.025040">
        <ele>81.369</ele>
        <time>2017-03-18T19:04:44Z</time>
      </trkpt>
      <trkpt lat="38.032474" lon="-1.024929">
        <ele>81.379</ele>
        <time>2017-03-18T19:04:46Z</time>
      </trkpt>
      <trkpt lat="38.032512" lon="-1.024807">
        <ele>82.005</ele>
        <time>2017-03-18T19:04:48Z</time>
      </trkpt>
      <trkpt lat="38.032541" lon="-1.024690">
        <ele>82.725</ele>
        <time>2017-03-18T19:04:50Z</time>
      </trkpt>
      <trkpt lat="38.032563" lon="-1.024569">
        <ele>83.208</ele>
        <time>2017-03-18T19:04:52Z</time>
      </trkpt>
      <trkpt lat="38.032577" lon="-1.024436">
        <ele>83.368</ele>
        <time>2017-03-18T19:04:54Z</time>
      </trkpt>
      <trkpt lat="38.032578" lon="-1.024304">
        <ele>83.083</ele>
        <time>2017-03-18T19:04:56Z</time>
      </trkpt>
      <trkpt lat="38.032573" lon="-1.024173">
        <ele>82.365</ele>
        <time>2017-03-18T19:04:58Z</time>
      </trkpt>
      <trkpt lat="38.032559" lon="-1.024054">
        <ele>81.510</ele>
        <time>2017-03-18T19:05:00Z</time>
      </trkpt>
      <trkpt lat="38.032536" lon="-1.023924">
        <ele>81.238</ele>
        <time>2017-03-18T19:05:02Z</time>
      </trkpt>
      <trkpt lat="38.032498" lon="-1.023758">
        <ele>80.942</ele>
        <time>2017-03-18T19:05:05Z</time>
      </trkpt>
      <trkpt lat="38.032458" lon="-1.023636">
        <ele>80.798</ele>
        <time>2017-03-18T19:05:07Z</time>
      </trkpt>
      <trkpt lat="38.032412" lon="-1.023511">
        <ele>80.358</ele>
        <time>2017-03-18T19:05:09Z</time>
      </trkpt>
      <trkpt lat="38.032361" lon="-1.023391">
        <ele>80.385</ele>
        <time>2017-03-18T19:05:11Z</time>
      </trkpt>
      <trkpt lat="38.032311" lon="-1.023259">
        <ele>81.389</ele>
        <time>2017-03-18T19:05:13Z</time>
      </trkpt>
      <trkpt lat="38.032262" lon="-1.023128">
        <ele>82.317</ele>
        <time>2017-03-18T19:05:15Z</time>
      </trkpt>
      <trkpt lat="38.032217" lon="-1.023001">
        <ele>82.808</ele>
        <time>2017-03-18T19:05:17Z</time>
      </trkpt>
      <trkpt lat="38.032179" lon="-1.022871">
        <ele>83.369</ele>
        <time>2017-03-18T19:05:19Z</time>
      </trkpt>
      <trkpt lat="38.032148" lon="-1.022756">
        <ele>82.814</ele>
        <time>2017-03-18T19:05:21Z</time>
      </trkpt>
      <trkpt lat="38.032104" lon="-1.022626">
        <ele>82.596</ele>
        <time>2017-03-18T19:05:23Z</time>
      </trkpt>
      <trkpt lat="38.032053" lon="-1.022500">
        <ele>82.981</ele>
        <time>2017-03-18T19:05:25Z</time>
      </trkpt>
      <trkpt lat="38.031997" lon="-1.022368">
        <ele>84.049</ele>
        <time>2017-03-18T19:05:27Z</time>
      </trkpt>
      <trkpt lat="38.031950" lon="-1.022265">
        <ele>86.353</ele>
        <time>2017-03-18T19:05:30Z</time>
      </trkpt>
      <trkpt lat="38.031900" lon="-1.022101">
        <ele>88.859</ele>
        <time>2017-03-18T19:05:33Z</time>
      </trkpt>
      <trkpt lat="38.031855" lon="-1.021953">
        <ele>87.079</ele>
        <time>2017-03-18T19:05:36Z</time>
      </trkpt>
      <trkpt lat="38.031831" lon="-1.021836">
        <ele>85.314</ele>
        <time>2017-03-18T19:05:38Z</time>
      </trkpt>
      <trkpt lat="38.031798" lon="-1.021714">
        <ele>83.954</ele>
        <time>2017-03-18T19:05:40Z</time>
      </trkpt>
      <trkpt lat="38.031773" lon="-1.021579">
        <ele>83.209</ele>
        <time>2017-03-18T19:05:42Z</time>
      </trkpt>
      <trkpt lat="38.031767" lon="-1.021448">
        <ele>82.508</ele>
        <time>2017-03-18T19:05:44Z</time>
      </trkpt>
      <trkpt lat="38.031769" lon="-1.021301">
        <ele>82.612</ele>
        <time>2017-03-18T19:05:46Z</time>
      </trkpt>
      <trkpt lat="38.031785" lon="-1.021152">
        <ele>83.437</ele>
        <time>2017-03-18T19:05:48Z</time>
      </trkpt>
      <trkpt lat="38.031816" lon="-1.021033">
        <ele>83.669</ele>
        <time>2017-03-18T19:05:50Z</time>
      </trkpt>
      <trkpt lat="38.031878" lon="-1.020919">
        <ele>82.464</ele>
        <time>2017-03-18T19:05:52Z</time>
      </trkpt>
      <trkpt lat="38.031984" lon="-1.020749">
        <ele>82.032</ele>
        <time>2017-03-18T19:05:54Z</time>
      </trkpt>
      <trkpt lat="38.032051" lon="-1.020643">
        <ele>81.456</ele>
        <time>2017-03-18T19:05:57Z</time>
      </trkpt>
      <trkpt lat="38.032132" lon="-1.020556">
        <ele>80.942</ele>
        <time>2017-03-18T19:05:58Z</time>
      </trkpt>
      <trkpt lat="38.032215" lon="-1.020465">
        <ele>81.112</ele>
        <time>2017-03-18T19:06:00Z</time>
      </trkpt>
      <trkpt lat="38.032304" lon="-1.020376">
        <ele>81.134</ele>
        <time>2017-03-18T19:06:02Z</time>
      </trkpt>
      <trkpt lat="38.032386" lon="-1.020292">
        <ele>80.955</ele>
        <time>2017-03-18T19:06:04Z</time>
      </trkpt>
      <trkpt lat="38.032480" lon="-1.020206">
        <ele>80.510</ele>
        <time>2017-03-18T19:06:06Z</time>
      </trkpt>
      <trkpt lat="38.032572" lon="-1.020118">
        <ele>79.908</ele>
        <time>2017-03-18T19:06:08Z</time>
      </trkpt>
      <trkpt lat="38.032661" lon="-1.020031">
        <ele>79.774</ele>
        <time>2017-03-18T19:06:10Z</time>
      </trkpt>
      <trkpt lat="38.032738" lon="-1.019953">
        <ele>80.189</ele>
        <time>2017-03-18T19:06:12Z</time>
      </trkpt>
      <trkpt lat="38.032818" lon="-1.019872">
        <ele>80.641</ele>
        <time>2017-03-18T19:06:14Z</time>
      </trkpt>
      <trkpt lat="38.032905" lon="-1.019776">
        <ele>81.626</ele>
        <time>2017-03-18T19:06:16Z</time>
      </trkpt>
      <trkpt lat="38.033004" lon="-1.019676">
        <ele>81.364</ele>
        <time>2017-03-18T19:06:18Z</time>
      </trkpt>
      <trkpt lat="38.033091" lon="-1.019585">
        <ele>81.128</ele>
        <time>2017-03-18T19:06:20Z</time>
      </trkpt>
      <trkpt lat="38.033174" lon="-1.019493">
        <ele>81.144</ele>
        <time>2017-03-18T19:06:22Z</time>
      </trkpt>
      <trkpt lat="38.033259" lon="-1.019394">
        <ele>81.044</ele>
        <time>2017-03-18T19:06:24Z</time>
      </trkpt>
      <trkpt lat="38.033342" lon="-1.019298">
        <ele>81.066</ele>
        <time>2017-03-18T19:06:26Z</time>
      </trkpt>
      <trkpt lat="38.033424" lon="-1.019193">
        <ele>80.729</ele>
        <time>2017-03-18T19:06:28Z</time>
      </trkpt>
      <trkpt lat="38.033495" lon="-1.019086">
        <ele>80.921</ele>
        <time>2017-03-18T19:06:30Z</time>
      </trkpt>
      <trkpt lat="38.033558" lon="-1.018998">
        <ele>81.208</ele>
        <time>2017-03-18T19:06:32Z</time>
      </trkpt>
      <trkpt lat="38.033645" lon="-1.018884">
        <ele>81.367</ele>
        <time>2017-03-18T19:06:34Z</time>
      </trkpt>
      <trkpt lat="38.033725" lon="-1.018759">
        <ele>80.782</ele>
        <time>2017-03-18T19:06:36Z</time>
      </trkpt>
      <trkpt lat="38.033791" lon="-1.018640">
        <ele>80.424</ele>
        <time>2017-03-18T19:06:38Z</time>
      </trkpt>
      <trkpt lat="38.033860" lon="-1.018514">
        <ele>80.119</ele>
        <time>2017-03-18T19:06:40Z</time>
      </trkpt>
      <trkpt lat="38.033929" lon="-1.018395">
        <ele>79.737</ele>
        <time>2017-03-18T19:06:42Z</time>
      </trkpt>
      <trkpt lat="38.033987" lon="-1.018286">
        <ele>79.321</ele>
        <time>2017-03-18T19:06:44Z</time>
      </trkpt>
      <trkpt lat="38.034058" lon="-1.018139">
        <ele>80.167</ele>
        <time>2017-03-18T19:06:47Z</time>
      </trkpt>
      <trkpt lat="38.034122" lon="-1.018002">
        <ele>81.157</ele>
        <time>2017-03-18T19:06:49Z</time>
      </trkpt>
      <trkpt lat="38.034181" lon="-1.017865">
        <ele>81.538</ele>
        <time>2017-03-18T19:06:51Z</time>
      </trkpt>
      <trkpt lat="38.034235" lon="-1.017738">
        <ele>81.070</ele>
        <time>2017-03-18T19:06:53Z</time>
      </trkpt>
      <trkpt lat="38.034281" lon="-1.017619">
        <ele>80.617</ele>
        <time>2017-03-18T19:06:56Z</time>
      </trkpt>
      <trkpt lat="38.034322" lon="-1.017509">
        <ele>80.908</ele>
        <time>2017-03-18T19:06:58Z</time>
      </trkpt>
      <trkpt lat="38.034368" lon="-1.017384">
        <ele>82.154</ele>
        <time>2017-03-18T19:07:00Z</time>
      </trkpt>
      <trkpt lat="38.034405" lon="-1.017264">
        <ele>83.559</ele>
        <time>2017-03-18T19:07:02Z</time>
      </trkpt>
      <trkpt lat="38.034447" lon="-1.017132">
        <ele>84.171</ele>
        <time>2017-03-18T19:07:04Z</time>
      </trkpt>
      <trkpt lat="38.034499" lon="-1.016980">
        <ele>84.426</ele>
        <time>2017-03-18T19:07:06Z</time>
      </trkpt>
      <trkpt lat="38.034534" lon="-1.016859">
        <ele>84.154</ele>
        <time>2017-03-18T19:07:08Z</time>
      </trkpt>
      <trkpt lat="38.034564" lon="-1.016729">
        <ele>84.348</ele>
        <time>2017-03-18T19:07:10Z</time>
      </trkpt>
      <trkpt lat="38.034596" lon="-1.016594">
        <ele>84.234</ele>
        <time>2017-03-18T19:07:12Z</time>
      </trkpt>
      <trkpt lat="38.034625" lon="-1.016467">
        <ele>84.824</ele>
        <time>2017-03-18T19:07:14Z</time>
      </trkpt>
      <trkpt lat="38.034631" lon="-1.016350">
        <ele>85.746</ele>
        <time>2017-03-18T19:07:16Z</time>
      </trkpt>
      <trkpt lat="38.034659" lon="-1.016118">
        <ele>85.988</ele>
        <time>2017-03-18T19:07:18Z</time>
      </trkpt>
      <trkpt lat="38.034677" lon="-1.015944">
        <ele>85.116</ele>
        <time>2017-03-18T19:07:20Z</time>
      </trkpt>
      <trkpt lat="38.034692" lon="-1.015776">
        <ele>84.808</ele>
        <time>2017-03-18T19:07:22Z</time>
      </trkpt>
      <trkpt lat="38.034726" lon="-1.015611">
        <ele>84.495</ele>
        <time>2017-03-18T19:07:24Z</time>
      </trkpt>
      <trkpt lat="38.034771" lon="-1.015459">
        <ele>83.150</ele>
        <time>2017-03-18T19:07:26Z</time>
      </trkpt>
      <trkpt lat="38.034816" lon="-1.015320">
        <ele>82.042</ele>
        <time>2017-03-18T19:07:28Z</time>
      </trkpt>
      <trkpt lat="38.034859" lon="-1.015180">
        <ele>81.147</ele>
        <time>2017-03-18T19:07:30Z</time>
      </trkpt>
      <trkpt lat="38.034902" lon="-1.015044">
        <ele>80.395</ele>
        <time>2017-03-18T19:07:32Z</time>
      </trkpt>
      <trkpt lat="38.034944" lon="-1.014915">
        <ele>79.979</ele>
        <time>2017-03-18T19:07:34Z</time>
      </trkpt>
      <trkpt lat="38.034998" lon="-1.014799">
        <ele>79.525</ele>
        <time>2017-03-18T19:07:36Z</time>
      </trkpt>
      <trkpt lat="38.035056" lon="-1.014676">
        <ele>79.235</ele>
        <time>2017-03-18T19:07:38Z</time>
      </trkpt>
      <trkpt lat="38.035114" lon="-1.014556">
        <ele>79.667</ele>
        <time>2017-03-18T19:07:40Z</time>
      </trkpt>
      <trkpt lat="38.035180" lon="-1.014435">
        <ele>79.681</ele>
        <time>2017-03-18T19:07:42Z</time>
      </trkpt>
      <trkpt lat="38.035243" lon="-1.014335">
        <ele>79.619</ele>
        <time>2017-03-18T19:07:44Z</time>
      </trkpt>
      <trkpt lat="38.035311" lon="-1.014244">
        <ele>81.108</ele>
        <time>2017-03-18T19:07:46Z</time>
      </trkpt>
      <trkpt lat="38.035415" lon="-1.014144">
        <ele>84.427</ele>
        <time>2017-03-18T19:07:49Z</time>
      </trkpt>
      <trkpt lat="38.035510" lon="-1.014064">
        <ele>89.072</ele>
        <time>2017-03-18T19:07:52Z</time>
      </trkpt>
      <trkpt lat="38.035591" lon="-1.014012">
        <ele>90.784</ele>
        <time>2017-03-18T19:07:54Z</time>
      </trkpt>
      <trkpt lat="38.035670" lon="-1.013952">
        <ele>91.799</ele>
        <time>2017-03-18T19:07:56Z</time>
      </trkpt>
      <trkpt lat="38.035761" lon="-1.013879">
        <ele>91.537</ele>
        <time>2017-03-18T19:07:58Z</time>
      </trkpt>
      <trkpt lat="38.035840" lon="-1.013814">
        <ele>91.281</ele>
        <time>2017-03-18T19:08:00Z</time>
      </trkpt>
      <trkpt lat="38.035962" lon="-1.013755">
        <ele>92.597</ele>
        <time>2017-03-18T19:08:03Z</time>
      </trkpt>
      <trkpt lat="38.036072" lon="-1.013707">
        <ele>92.097</ele>
        <time>2017-03-18T19:08:05Z</time>
      </trkpt>
      <trkpt lat="38.036175" lon="-1.013656">
        <ele>91.493</ele>
        <time>2017-03-18T19:08:07Z</time>
      </trkpt>
      <trkpt lat="38.036276" lon="-1.013601">
        <ele>90.365</ele>
        <time>2017-03-18T19:08:09Z</time>
      </trkpt>
      <trkpt lat="38.036370" lon="-1.013550">
        <ele>89.621</ele>
        <time>2017-03-18T19:08:11Z</time>
      </trkpt>
      <trkpt lat="38.036462" lon="-1.013504">
        <ele>89.208</ele>
        <time>2017-03-18T19:08:13Z</time>
      </trkpt>
      <trkpt lat="38.036554" lon="-1.013460">
        <ele>88.920</ele>
        <time>2017-03-18T19:08:15Z</time>
      </trkpt>
      <trkpt lat="38.036646" lon="-1.013416">
        <ele>88.615</ele>
        <time>2017-03-18T19:08:17Z</time>
      </trkpt>
      <trkpt lat="38.036753" lon="-1.013364">
        <ele>87.977</ele>
        <time>2017-03-18T19:08:19Z</time>
      </trkpt>
      <trkpt lat="38.036860" lon="-1.013316">
        <ele>86.452</ele>
        <time>2017-03-18T19:08:21Z</time>
      </trkpt>
      <trkpt lat="38.036949" lon="-1.013276">
        <ele>85.690</ele>
        <time>2017-03-18T19:08:23Z</time>
      </trkpt>
      <trkpt lat="38.037066" lon="-1.013218">
        <ele>86.334</ele>
        <time>2017-03-18T19:08:27Z</time>
      </trkpt>
      <trkpt lat="38.037178" lon="-1.013160">
        <ele>86.110</ele>
        <time>2017-03-18T19:08:30Z</time>
      </trkpt>
      <trkpt lat="38.037273" lon="-1.013111">
        <ele>85.460</ele>
        <time>2017-03-18T19:08:32Z</time>
      </trkpt>
      <trkpt lat="38.037382" lon="-1.013052">
        <ele>83.996</ele>
        <time>2017-03-18T19:08:34Z</time>
      </trkpt>
      <trkpt lat="38.037491" lon="-1.012991">
        <ele>82.331</ele>
        <time>2017-03-18T19:08:36Z</time>
      </trkpt>
      <trkpt lat="38.037587" lon="-1.012937">
        <ele>81.324</ele>
        <time>2017-03-18T19:08:38Z</time>
      </trkpt>
      <trkpt lat="38.037681" lon="-1.012885">
        <ele>80.808</ele>
        <time>2017-03-18T19:08:40Z</time>
      </trkpt>
      <trkpt lat="38.037781" lon="-1.012839">
        <ele>80.070</ele>
        <time>2017-03-18T19:08:42Z</time>
      </trkpt>
      <trkpt lat="38.037916" lon="-1.012810">
        <ele>78.975</ele>
        <time>2017-03-18T19:08:45Z</time>
      </trkpt>
      <trkpt lat="38.038029" lon="-1.012809">
        <ele>78.667</ele>
        <time>2017-03-18T19:08:47Z</time>
      </trkpt>
      <trkpt lat="38.038117" lon="-1.012738">
        <ele>78.942</ele>
        <time>2017-03-18T19:08:48Z</time>
      </trkpt>
      <trkpt lat="38.038228" lon="-1.012610">
        <ele>79.150</ele>
        <time>2017-03-18T19:08:51Z</time>
      </trkpt>
      <trkpt lat="38.038334" lon="-1.012527">
        <ele>79.314</ele>
        <time>2017-03-18T19:08:54Z</time>
      </trkpt>
      <trkpt lat="38.038448" lon="-1.012466">
        <ele>80.680</ele>
        <time>2017-03-18T19:08:57Z</time>
      </trkpt>
      <trkpt lat="38.038559" lon="-1.012391">
        <ele>81.690</ele>
        <time>2017-03-18T19:09:00Z</time>
      </trkpt>
      <trkpt lat="38.038651" lon="-1.012307">
        <ele>83.627</ele>
        <time>2017-03-18T19:09:03Z</time>
      </trkpt>
      <trkpt lat="38.038761" lon="-1.012216">
        <ele>84.468</ele>
        <time>2017-03-18T19:09:06Z</time>
      </trkpt>
      <trkpt lat="38.038872" lon="-1.012115">
        <ele>85.514</ele>
        <time>2017-03-18T19:09:09Z</time>
      </trkpt>
      <trkpt lat="38.038966" lon="-1.012016">
        <ele>86.608</ele>
        <time>2017-03-18T19:09:12Z</time>
      </trkpt>
      <trkpt lat="38.039076" lon="-1.011932">
        <ele>86.023</ele>
        <time>2017-03-18T19:09:15Z</time>
      </trkpt>
      <trkpt lat="38.039173" lon="-1.011861">
        <ele>86.448</ele>
        <time>2017-03-18T19:09:18Z</time>
      </trkpt>
      <trkpt lat="38.039281" lon="-1.011780">
        <ele>87.760</ele>
        <time>2017-03-18T19:09:21Z</time>
      </trkpt>
      <trkpt lat="38.039384" lon="-1.011679">
        <ele>88.835</ele>
        <time>2017-03-18T19:09:24Z</time>
      </trkpt>
      <trkpt lat="38.039470" lon="-1.011598">
        <ele>89.013</ele>
        <time>2017-03-18T19:09:27Z</time>
      </trkpt>
      <trkpt lat="38.039549" lon="-1.011527">
        <ele>89.287</ele>
        <time>2017-03-18T19:09:30Z</time>
      </trkpt>
      <trkpt lat="38.039629" lon="-1.011447">
        <ele>89.823</ele>
        <time>2017-03-18T19:09:35Z</time>
      </trkpt>
      <trkpt lat="38.039687" lon="-1.011359">
        <ele>90.673</ele>
        <time>2017-03-18T19:09:39Z</time>
      </trkpt>
      <trkpt lat="38.039749" lon="-1.011221">
        <ele>91.118</ele>
        <time>2017-03-18T19:09:45Z</time>
      </trkpt>
      <trkpt lat="38.039863" lon="-1.011135">
        <ele>91.198</ele>
        <time>2017-03-18T19:09:49Z</time>
      </trkpt>
      <trkpt lat="38.039966" lon="-1.011043">
        <ele>90.817</ele>
        <time>2017-03-18T19:09:52Z</time>
      </trkpt>
      <trkpt lat="38.040066" lon="-1.010950">
        <ele>90.208</ele>
        <time>2017-03-18T19:09:55Z</time>
      </trkpt>
      <trkpt lat="38.040169" lon="-1.010909">
        <ele>89.462</ele>
        <time>2017-03-18T19:09:58Z</time>
      </trkpt>
      <trkpt lat="38.040305" lon="-1.010914">
        <ele>86.287</ele>
        <time>2017-03-18T19:10:00Z</time>
      </trkpt>
      <trkpt lat="38.040436" lon="-1.010944">
        <ele>80.229</ele>
        <time>2017-03-18T19:10:03Z</time>
      </trkpt>
      <trkpt lat="38.040529" lon="-1.010954">
        <ele>80.244</ele>
        <time>2017-03-18T19:10:06Z</time>
      </trkpt>
      <trkpt lat="38.040631" lon="-1.010977">
        <ele>80.822</ele>
        <time>2017-03-18T19:10:09Z</time>
      </trkpt>
      <trkpt lat="38.040733" lon="-1.010976">
        <ele>81.796</ele>
        <time>2017-03-18T19:10:12Z</time>
      </trkpt>
      <trkpt lat="38.040847" lon="-1.010961">
        <ele>90.732</ele>
        <time>2017-03-18T19:10:15Z</time>
      </trkpt>
      <trkpt lat="38.040960" lon="-1.010950">
        <ele>97.342</ele>
        <time>2017-03-18T19:10:18Z</time>
      </trkpt>
      <trkpt lat="38.041054" lon="-1.010926">
        <ele>99.344</ele>
        <time>2017-03-18T19:10:20Z</time>
      </trkpt>
      <trkpt lat="38.041151" lon="-1.010895">
        <ele>99.705</ele>
        <time>2017-03-18T19:10:22Z</time>
      </trkpt>
      <trkpt lat="38.041252" lon="-1.010868">
        <ele>98.915</ele>
        <time>2017-03-18T19:10:24Z</time>
      </trkpt>
      <trkpt lat="38.041348" lon="-1.010839">
        <ele>97.608</ele>
        <time>2017-03-18T19:10:26Z</time>
      </trkpt>
      <trkpt lat="38.041478" lon="-1.010802">
        <ele>96.245</ele>
        <time>2017-03-18T19:10:29Z</time>
      </trkpt>
      <trkpt lat="38.041572" lon="-1.010781">
        <ele>95.650</ele>
        <time>2017-03-18T19:10:31Z</time>
      </trkpt>
      <trkpt lat="38.041704" lon="-1.010758">
        <ele>95.572</ele>
        <time>2017-03-18T19:10:34Z</time>
      </trkpt>
      <trkpt lat="38.041830" lon="-1.010723">
        <ele>96.077</ele>
        <time>2017-03-18T19:10:37Z</time>
      </trkpt>
      <trkpt lat="38.041919" lon="-1.010699">
        <ele>96.575</ele>
        <time>2017-03-18T19:10:39Z</time>
      </trkpt>
      <trkpt lat="38.042020" lon="-1.010675">
        <ele>96.439</ele>
        <time>2017-03-18T19:10:41Z</time>
      </trkpt>
      <trkpt lat="38.042120" lon="-1.010646">
        <ele>95.745</ele>
        <time>2017-03-18T19:10:43Z</time>
      </trkpt>
      <trkpt lat="38.042226" lon="-1.010612">
        <ele>94.765</ele>
        <time>2017-03-18T19:10:45Z</time>
      </trkpt>
      <trkpt lat="38.042324" lon="-1.010574">
        <ele>93.429</ele>
        <time>2017-03-18T19:10:47Z</time>
      </trkpt>
      <trkpt lat="38.042424" lon="-1.010536">
        <ele>92.100</ele>
        <time>2017-03-18T19:10:49Z</time>
      </trkpt>
      <trkpt lat="38.042526" lon="-1.010488">
        <ele>90.320</ele>
        <time>2017-03-18T19:10:51Z</time>
      </trkpt>
      <trkpt lat="38.042622" lon="-1.010434">
        <ele>88.608</ele>
        <time>2017-03-18T19:10:53Z</time>
      </trkpt>
      <trkpt lat="38.042716" lon="-1.010382">
        <ele>87.473</ele>
        <time>2017-03-18T19:10:55Z</time>
      </trkpt>
      <trkpt lat="38.042812" lon="-1.010333">
        <ele>86.428</ele>
        <time>2017-03-18T19:10:58Z</time>
      </trkpt>
      <trkpt lat="38.042909" lon="-1.010285">
        <ele>85.380</ele>
        <time>2017-03-18T19:11:00Z</time>
      </trkpt>
      <trkpt lat="38.043009" lon="-1.010241">
        <ele>84.145</ele>
        <time>2017-03-18T19:11:02Z</time>
      </trkpt>
      <trkpt lat="38.043099" lon="-1.010207">
        <ele>83.443</ele>
        <time>2017-03-18T19:11:04Z</time>
      </trkpt>
      <trkpt lat="38.043233" lon="-1.010167">
        <ele>83.857</ele>
        <time>2017-03-18T19:11:07Z</time>
      </trkpt>
      <trkpt lat="38.043329" lon="-1.010128">
        <ele>84.053</ele>
        <time>2017-03-18T19:11:09Z</time>
      </trkpt>
      <trkpt lat="38.043423" lon="-1.010085">
        <ele>84.273</ele>
        <time>2017-03-18T19:11:11Z</time>
      </trkpt>
      <trkpt lat="38.043514" lon="-1.010038">
        <ele>84.495</ele>
        <time>2017-03-18T19:11:13Z</time>
      </trkpt>
      <trkpt lat="38.043597" lon="-1.009992">
        <ele>85.049</ele>
        <time>2017-03-18T19:11:15Z</time>
      </trkpt>
      <trkpt lat="38.043684" lon="-1.009950">
        <ele>85.623</ele>
        <time>2017-03-18T19:11:17Z</time>
      </trkpt>
      <trkpt lat="38.043770" lon="-1.009906">
        <ele>86.208</ele>
        <time>2017-03-18T19:11:19Z</time>
      </trkpt>
      <trkpt lat="38.043908" lon="-1.009831">
        <ele>86.930</ele>
        <time>2017-03-18T19:11:21Z</time>
      </trkpt>
      <trkpt lat="38.044008" lon="-1.009771">
        <ele>86.755</ele>
        <time>2017-03-18T19:11:23Z</time>
      </trkpt>
      <trkpt lat="38.044108" lon="-1.009703">
        <ele>85.877</ele>
        <time>2017-03-18T19:11:25Z</time>
      </trkpt>
      <trkpt lat="38.044205" lon="-1.009629">
        <ele>84.892</ele>
        <time>2017-03-18T19:11:27Z</time>
      </trkpt>
      <trkpt lat="38.044304" lon="-1.009557">
        <ele>83.920</ele>
        <time>2017-03-18T19:11:29Z</time>
      </trkpt>
      <trkpt lat="38.044404" lon="-1.009490">
        <ele>82.314</ele>
        <time>2017-03-18T19:11:31Z</time>
      </trkpt>
      <trkpt lat="38.044489" lon="-1.009424">
        <ele>80.880</ele>
        <time>2017-03-18T19:11:33Z</time>
      </trkpt>
      <trkpt lat="38.044579" lon="-1.009354">
        <ele>79.030</ele>
        <time>2017-03-18T19:11:35Z</time>
      </trkpt>
      <trkpt lat="38.044656" lon="-1.009289">
        <ele>77.791</ele>
        <time>2017-03-18T19:11:37Z</time>
      </trkpt>
      <trkpt lat="38.044765" lon="-1.009190">
        <ele>77.281</ele>
        <time>2017-03-18T19:11:40Z</time>
      </trkpt>
      <trkpt lat="38.044846" lon="-1.009115">
        <ele>76.319</ele>
        <time>2017-03-18T19:11:42Z</time>
      </trkpt>
      <trkpt lat="38.044921" lon="-1.009041">
        <ele>76.608</ele>
        <time>2017-03-18T19:11:45Z</time>
      </trkpt>
      <trkpt lat="38.044992" lon="-1.008959">
        <ele>79.130</ele>
        <time>2017-03-18T19:11:48Z</time>
      </trkpt>
      <trkpt lat="38.045090" lon="-1.008849">
        <ele>82.285</ele>
        <time>2017-03-18T19:11:51Z</time>
      </trkpt>
      <trkpt lat="38.045183" lon="-1.008711">
        <ele>84.387</ele>
        <time>2017-03-18T19:11:54Z</time>
      </trkpt>
      <trkpt lat="38.045254" lon="-1.008598">
        <ele>84.412</ele>
        <time>2017-03-18T19:11:56Z</time>
      </trkpt>
      <trkpt lat="38.045309" lon="-1.008491">
        <ele>83.590</ele>
        <time>2017-03-18T19:11:58Z</time>
      </trkpt>
      <trkpt lat="38.045366" lon="-1.008381">
        <ele>82.564</ele>
        <time>2017-03-18T19:12:00Z</time>
      </trkpt>
      <trkpt lat="38.045425" lon="-1.008264">
        <ele>81.760</ele>
        <time>2017-03-18T19:12:02Z</time>
      </trkpt>
      <trkpt lat="38.045500" lon="-1.008137">
        <ele>81.030</ele>
        <time>2017-03-18T19:12:05Z</time>
      </trkpt>
      <trkpt lat="38.045589" lon="-1.008031">
        <ele>82.298</ele>
        <time>2017-03-18T19:12:08Z</time>
      </trkpt>
      <trkpt lat="38.045690" lon="-1.007925">
        <ele>84.315</ele>
        <time>2017-03-18T19:12:11Z</time>
      </trkpt>
      <trkpt lat="38.045786" lon="-1.007815">
        <ele>87.126</ele>
        <time>2017-03-18T19:12:14Z</time>
      </trkpt>
      <trkpt lat="38.045864" lon="-1.007736">
        <ele>88.408</ele>
        <time>2017-03-18T19:12:16Z</time>
      </trkpt>
      <trkpt lat="38.045943" lon="-1.007664">
        <ele>89.680</ele>
        <time>2017-03-18T19:12:18Z</time>
      </trkpt>
      <trkpt lat="38.046023" lon="-1.007595">
        <ele>90.685</ele>
        <time>2017-03-18T19:12:21Z</time>
      </trkpt>
      <trkpt lat="38.046098" lon="-1.007532">
        <ele>91.947</ele>
        <time>2017-03-18T19:12:23Z</time>
      </trkpt>
      <trkpt lat="38.046189" lon="-1.007454">
        <ele>92.452</ele>
        <time>2017-03-18T19:12:25Z</time>
      </trkpt>
      <trkpt lat="38.046281" lon="-1.007381">
        <ele>91.790</ele>
        <time>2017-03-18T19:12:27Z</time>
      </trkpt>
      <trkpt lat="38.046363" lon="-1.007321">
        <ele>90.814</ele>
        <time>2017-03-18T19:12:29Z</time>
      </trkpt>
      <trkpt lat="38.046477" lon="-1.007314">
        <ele>90.390</ele>
        <time>2017-03-18T19:12:32Z</time>
      </trkpt>
      <trkpt lat="38.046585" lon="-1.007361">
        <ele>88.690</ele>
        <time>2017-03-18T19:12:35Z</time>
      </trkpt>
      <trkpt lat="38.046678" lon="-1.007407">
        <ele>86.571</ele>
        <time>2017-03-18T19:12:37Z</time>
      </trkpt>
      <trkpt lat="38.046779" lon="-1.007456">
        <ele>83.641</ele>
        <time>2017-03-18T19:12:39Z</time>
      </trkpt>
      <trkpt lat="38.046916" lon="-1.007514">
        <ele>81.915</ele>
        <time>2017-03-18T19:12:42Z</time>
      </trkpt>
      <trkpt lat="38.046985" lon="-1.007433">
        <ele>81.808</ele>
        <time>2017-03-18T19:12:58Z</time>
      </trkpt>
      <trkpt lat="38.047071" lon="-1.007337">
        <ele>82.638</ele>
        <time>2017-03-18T19:13:02Z</time>
      </trkpt>
      <trkpt lat="38.047152" lon="-1.007266">
        <ele>84.863</ele>
        <time>2017-03-18T19:13:04Z</time>
      </trkpt>
      <trkpt lat="38.047229" lon="-1.007190">
        <ele>85.845</ele>
        <time>2017-03-18T19:13:06Z</time>
      </trkpt>
      <trkpt lat="38.047342" lon="-1.007114">
        <ele>86.330</ele>
        <time>2017-03-18T19:13:09Z</time>
      </trkpt>
      <trkpt lat="38.047467" lon="-1.007049">
        <ele>85.438</ele>
        <time>2017-03-18T19:13:12Z</time>
      </trkpt>
      <trkpt lat="38.047552" lon="-1.007003">
        <ele>84.862</ele>
        <time>2017-03-18T19:13:14Z</time>
      </trkpt>
      <trkpt lat="38.047667" lon="-1.006949">
        <ele>84.638</ele>
        <time>2017-03-18T19:13:17Z</time>
      </trkpt>
      <trkpt lat="38.047784" lon="-1.006879">
        <ele>84.038</ele>
        <time>2017-03-18T19:13:20Z</time>
      </trkpt>
      <trkpt lat="38.047900" lon="-1.006818">
        <ele>83.627</ele>
        <time>2017-03-18T19:13:23Z</time>
      </trkpt>
      <trkpt lat="38.048023" lon="-1.006754">
        <ele>82.668</ele>
        <time>2017-03-18T19:13:26Z</time>
      </trkpt>
      <trkpt lat="38.048118" lon="-1.006689">
        <ele>82.514</ele>
        <time>2017-03-18T19:13:29Z</time>
      </trkpt>
      <trkpt lat="38.048203" lon="-1.006645">
        <ele>82.708</ele>
        <time>2017-03-18T19:13:34Z</time>
      </trkpt>
      <trkpt lat="38.048328" lon="-1.006605">
        <ele>83.353</ele>
        <time>2017-03-18T19:13:39Z</time>
      </trkpt>
      <trkpt lat="38.048431" lon="-1.006530">
        <ele>83.518</ele>
        <time>2017-03-18T19:13:42Z</time>
      </trkpt>
      <trkpt lat="38.048544" lon="-1.006468">
        <ele>83.940</ele>
        <time>2017-03-18T19:13:45Z</time>
      </trkpt>
      <trkpt lat="38.048665" lon="-1.006403">
        <ele>84.015</ele>
        <time>2017-03-18T19:13:49Z</time>
      </trkpt>
      <trkpt lat="38.048782" lon="-1.006349">
        <ele>83.813</ele>
        <time>2017-03-18T19:13:51Z</time>
      </trkpt>
      <trkpt lat="38.048874" lon="-1.006301">
        <ele>83.467</ele>
        <time>2017-03-18T19:13:53Z</time>
      </trkpt>
      <trkpt lat="38.048963" lon="-1.006249">
        <ele>82.993</ele>
        <time>2017-03-18T19:13:55Z</time>
      </trkpt>
      <trkpt lat="38.049048" lon="-1.006189">
        <ele>82.573</ele>
        <time>2017-03-18T19:13:57Z</time>
      </trkpt>
      <trkpt lat="38.049135" lon="-1.006119">
        <ele>81.453</ele>
        <time>2017-03-18T19:13:59Z</time>
      </trkpt>
      <trkpt lat="38.049217" lon="-1.006042">
        <ele>80.904</ele>
        <time>2017-03-18T19:14:01Z</time>
      </trkpt>
      <trkpt lat="38.049290" lon="-1.005969">
        <ele>81.614</ele>
        <time>2017-03-18T19:14:02Z</time>
      </trkpt>
      <trkpt lat="38.049403" lon="-1.005853">
        <ele>83.308</ele>
        <time>2017-03-18T19:14:05Z</time>
      </trkpt>
      <trkpt lat="38.049473" lon="-1.005779">
        <ele>84.246</ele>
        <time>2017-03-18T19:14:07Z</time>
      </trkpt>
      <trkpt lat="38.049550" lon="-1.005698">
        <ele>84.151</ele>
        <time>2017-03-18T19:14:09Z</time>
      </trkpt>
      <trkpt lat="38.049637" lon="-1.005588">
        <ele>83.153</ele>
        <time>2017-03-18T19:14:12Z</time>
      </trkpt>
      <trkpt lat="38.049717" lon="-1.005463">
        <ele>83.258</ele>
        <time>2017-03-18T19:14:15Z</time>
      </trkpt>
      <trkpt lat="38.049789" lon="-1.005335">
        <ele>85.016</ele>
        <time>2017-03-18T19:14:18Z</time>
      </trkpt>
      <trkpt lat="38.049837" lon="-1.005234">
        <ele>86.160</ele>
        <time>2017-03-18T19:14:20Z</time>
      </trkpt>
      <trkpt lat="38.049897" lon="-1.005113">
        <ele>88.276</ele>
        <time>2017-03-18T19:14:23Z</time>
      </trkpt>
      <trkpt lat="38.049983" lon="-1.005024">
        <ele>91.226</ele>
        <time>2017-03-18T19:14:26Z</time>
      </trkpt>
      <trkpt lat="38.050059" lon="-1.004953">
        <ele>92.032</ele>
        <time>2017-03-18T19:14:28Z</time>
      </trkpt>
      <trkpt lat="38.050139" lon="-1.004854">
        <ele>91.892</ele>
        <time>2017-03-18T19:14:31Z</time>
      </trkpt>
      <trkpt lat="38.050216" lon="-1.004770">
        <ele>90.911</ele>
        <time>2017-03-18T19:14:33Z</time>
      </trkpt>
      <trkpt lat="38.050298" lon="-1.004693">
        <ele>89.208</ele>
        <time>2017-03-18T19:14:35Z</time>
      </trkpt>
      <trkpt lat="38.050385" lon="-1.004637">
        <ele>87.834</ele>
        <time>2017-03-18T19:14:37Z</time>
      </trkpt>
      <trkpt lat="38.050497" lon="-1.004548">
        <ele>86.819</ele>
        <time>2017-03-18T19:14:40Z</time>
      </trkpt>
      <trkpt lat="38.050611" lon="-1.004456">
        <ele>86.851</ele>
        <time>2017-03-18T19:14:43Z</time>
      </trkpt>
      <trkpt lat="38.050716" lon="-1.004379">
        <ele>86.686</ele>
        <time>2017-03-18T19:14:46Z</time>
      </trkpt>
      <trkpt lat="38.050840" lon="-1.004323">
        <ele>86.284</ele>
        <time>2017-03-18T19:14:49Z</time>
      </trkpt>
      <trkpt lat="38.050923" lon="-1.004263">
        <ele>85.998</ele>
        <time>2017-03-18T19:14:52Z</time>
      </trkpt>
      <trkpt lat="38.051005" lon="-1.004214">
        <ele>85.374</ele>
        <time>2017-03-18T19:14:54Z</time>
      </trkpt>
      <trkpt lat="38.051130" lon="-1.004143">
        <ele>84.194</ele>
        <time>2017-03-18T19:14:57Z</time>
      </trkpt>
      <trkpt lat="38.051216" lon="-1.004086">
        <ele>82.882</ele>
        <time>2017-03-18T19:14:59Z</time>
      </trkpt>
      <trkpt lat="38.051309" lon="-1.004042">
        <ele>81.643</ele>
        <time>2017-03-18T19:15:01Z</time>
      </trkpt>
      <trkpt lat="38.051407" lon="-1.003993">
        <ele>80.517</ele>
        <time>2017-03-18T19:15:03Z</time>
      </trkpt>
      <trkpt lat="38.051501" lon="-1.003960">
        <ele>79.708</ele>
        <time>2017-03-18T19:15:05Z</time>
      </trkpt>
      <trkpt lat="38.051604" lon="-1.003928">
        <ele>78.839</ele>
        <time>2017-03-18T19:15:06Z</time>
      </trkpt>
      <trkpt lat="38.051725" lon="-1.003891">
        <ele>79.534</ele>
        <time>2017-03-18T19:15:09Z</time>
      </trkpt>
      <trkpt lat="38.051847" lon="-1.003840">
        <ele>79.656</ele>
        <time>2017-03-18T19:15:12Z</time>
      </trkpt>
      <trkpt lat="38.051942" lon="-1.003819">
        <ele>78.691</ele>
        <time>2017-03-18T19:15:14Z</time>
      </trkpt>
      <trkpt lat="38.052049" lon="-1.003800">
        <ele>79.659</ele>
        <time>2017-03-18T19:15:16Z</time>
      </trkpt>
      <trkpt lat="38.052145" lon="-1.003780">
        <ele>81.123</ele>
        <time>2017-03-18T19:15:18Z</time>
      </trkpt>
      <trkpt lat="38.052243" lon="-1.003763">
        <ele>81.779</ele>
        <time>2017-03-18T19:15:20Z</time>
      </trkpt>
      <trkpt lat="38.052349" lon="-1.003748">
        <ele>81.439</ele>
        <time>2017-03-18T19:15:22Z</time>
      </trkpt>
      <trkpt lat="38.052448" lon="-1.003742">
        <ele>81.584</ele>
        <time>2017-03-18T19:15:24Z</time>
      </trkpt>
      <trkpt lat="38.052555" lon="-1.003733">
        <ele>80.707</ele>
        <time>2017-03-18T19:15:26Z</time>
      </trkpt>
      <trkpt lat="38.052678" lon="-1.003726">
        <ele>81.017</ele>
        <time>2017-03-18T19:15:29Z</time>
      </trkpt>
      <trkpt lat="38.052797" lon="-1.003728">
        <ele>82.208</ele>
        <time>2017-03-18T19:15:32Z</time>
      </trkpt>
      <trkpt lat="38.052909" lon="-1.003725">
        <ele>82.329</ele>
        <time>2017-03-18T19:15:35Z</time>
      </trkpt>
      <trkpt lat="38.053015" lon="-1.003701">
        <ele>82.344</ele>
        <time>2017-03-18T19:15:38Z</time>
      </trkpt>
      <trkpt lat="38.053135" lon="-1.003673">
        <ele>83.276</ele>
        <time>2017-03-18T19:15:41Z</time>
      </trkpt>
      <trkpt lat="38.053262" lon="-1.003650">
        <ele>84.471</ele>
        <time>2017-03-18T19:15:44Z</time>
      </trkpt>
      <trkpt lat="38.053353" lon="-1.003626">
        <ele>85.749</ele>
        <time>2017-03-18T19:15:46Z</time>
      </trkpt>
      <trkpt lat="38.053465" lon="-1.003612">
        <ele>85.313</ele>
        <time>2017-03-18T19:15:48Z</time>
      </trkpt>
      <trkpt lat="38.053565" lon="-1.003591">
        <ele>85.889</ele>
        <time>2017-03-18T19:15:50Z</time>
      </trkpt>
      <trkpt lat="38.053667" lon="-1.003570">
        <ele>86.829</ele>
        <time>2017-03-18T19:15:52Z</time>
      </trkpt>
      <trkpt lat="38.053779" lon="-1.003550">
        <ele>87.436</ele>
        <time>2017-03-18T19:15:54Z</time>
      </trkpt>
      <trkpt lat="38.053887" lon="-1.003535">
        <ele>87.817</ele>
        <time>2017-03-18T19:15:56Z</time>
      </trkpt>
      <trkpt lat="38.053998" lon="-1.003522">
        <ele>87.018</ele>
        <time>2017-03-18T19:15:58Z</time>
      </trkpt>
      <trkpt lat="38.054098" lon="-1.003514">
        <ele>86.408</ele>
        <time>2017-03-18T19:16:01Z</time>
      </trkpt>
      <trkpt lat="38.054204" lon="-1.003506">
        <ele>85.214</ele>
        <time>2017-03-18T19:16:03Z</time>
      </trkpt>
      <trkpt lat="38.054311" lon="-1.003497">
        <ele>84.339</ele>
        <time>2017-03-18T19:16:05Z</time>
      </trkpt>
      <trkpt lat="38.054417" lon="-1.003494">
        <ele>83.481</ele>
        <time>2017-03-18T19:16:07Z</time>
      </trkpt>
      <trkpt lat="38.054509" lon="-1.003486">
        <ele>82.226</ele>
        <time>2017-03-18T19:16:09Z</time>
      </trkpt>
      <trkpt lat="38.054612" lon="-1.003468">
        <ele>81.814</ele>
        <time>2017-03-18T19:16:11Z</time>
      </trkpt>
      <trkpt lat="38.054708" lon="-1.003450">
        <ele>82.448</ele>
        <time>2017-03-18T19:16:13Z</time>
      </trkpt>
      <trkpt lat="38.054807" lon="-1.003441">
        <ele>82.534</ele>
        <time>2017-03-18T19:16:15Z</time>
      </trkpt>
      <trkpt lat="38.054899" lon="-1.003432">
        <ele>82.294</ele>
        <time>2017-03-18T19:16:17Z</time>
      </trkpt>
      <trkpt lat="38.054992" lon="-1.003417">
        <ele>81.761</ele>
        <time>2017-03-18T19:16:19Z</time>
      </trkpt>
      <trkpt lat="38.055092" lon="-1.003406">
        <ele>81.021</ele>
        <time>2017-03-18T19:16:20Z</time>
      </trkpt>
      <trkpt lat="38.055191" lon="-1.003396">
        <ele>80.513</ele>
        <time>2017-03-18T19:16:22Z</time>
      </trkpt>
      <trkpt lat="38.055287" lon="-1.003385">
        <ele>80.108</ele>
        <time>2017-03-18T19:16:24Z</time>
      </trkpt>
      <trkpt lat="38.055401" lon="-1.003363">
        <ele>79.177</ele>
        <time>2017-03-18T19:16:26Z</time>
      </trkpt>
      <trkpt lat="38.055509" lon="-1.003340">
        <ele>78.672</ele>
        <time>2017-03-18T19:16:28Z</time>
      </trkpt>
      <trkpt lat="38.055621" lon="-1.003316">
        <ele>77.914</ele>
        <time>2017-03-18T19:16:30Z</time>
      </trkpt>
      <trkpt lat="38.055717" lon="-1.003286">
        <ele>77.539</ele>
        <time>2017-03-18T19:16:32Z</time>
      </trkpt>
      <trkpt lat="38.055808" lon="-1.003263">
        <ele>78.087</ele>
        <time>2017-03-18T19:16:34Z</time>
      </trkpt>
      <trkpt lat="38.055919" lon="-1.003248">
        <ele>78.441</ele>
        <time>2017-03-18T19:16:36Z</time>
      </trkpt>
      <trkpt lat="38.056013" lon="-1.003230">
        <ele>78.967</ele>
        <time>2017-03-18T19:16:38Z</time>
      </trkpt>
      <trkpt lat="38.056136" lon="-1.003199">
        <ele>80.467</ele>
        <time>2017-03-18T19:16:41Z</time>
      </trkpt>
      <trkpt lat="38.056268" lon="-1.003154">
        <ele>81.225</ele>
        <time>2017-03-18T19:16:44Z</time>
      </trkpt>
      <trkpt lat="38.056364" lon="-1.003117">
        <ele>81.826</ele>
        <time>2017-03-18T19:16:46Z</time>
      </trkpt>
      <trkpt lat="38.056469" lon="-1.003077">
        <ele>82.308</ele>
        <time>2017-03-18T19:16:48Z</time>
      </trkpt>
      <trkpt lat="38.056575" lon="-1.003035">
        <ele>82.408</ele>
        <time>2017-03-18T19:16:50Z</time>
      </trkpt>
      <trkpt lat="38.056670" lon="-1.002996">
        <ele>82.193</ele>
        <time>2017-03-18T19:16:52Z</time>
      </trkpt>
      <trkpt lat="38.056761" lon="-1.002959">
        <ele>81.218</ele>
        <time>2017-03-18T19:16:54Z</time>
      </trkpt>
      <trkpt lat="38.056847" lon="-1.002920">
        <ele>80.320</ele>
        <time>2017-03-18T19:16:56Z</time>
      </trkpt>
      <trkpt lat="38.056942" lon="-1.002877">
        <ele>80.185</ele>
        <time>2017-03-18T19:16:58Z</time>
      </trkpt>
      <trkpt lat="38.057036" lon="-1.002824">
        <ele>80.263</ele>
        <time>2017-03-18T19:17:00Z</time>
      </trkpt>
      <trkpt lat="38.057123" lon="-1.002767">
        <ele>80.897</ele>
        <time>2017-03-18T19:17:02Z</time>
      </trkpt>
      <trkpt lat="38.057241" lon="-1.002698">
        <ele>82.453</ele>
        <time>2017-03-18T19:17:05Z</time>
      </trkpt>
      <trkpt lat="38.057333" lon="-1.002627">
        <ele>82.223</ele>
        <time>2017-03-18T19:17:07Z</time>
      </trkpt>
      <trkpt lat="38.057419" lon="-1.002560">
        <ele>81.749</ele>
        <time>2017-03-18T19:17:09Z</time>
      </trkpt>
      <trkpt lat="38.057505" lon="-1.002490">
        <ele>81.702</ele>
        <time>2017-03-18T19:17:11Z</time>
      </trkpt>
      <trkpt lat="38.057592" lon="-1.002414">
        <ele>81.422</ele>
        <time>2017-03-18T19:17:13Z</time>
      </trkpt>
      <trkpt lat="38.057670" lon="-1.002341">
        <ele>81.308</ele>
        <time>2017-03-18T19:17:15Z</time>
      </trkpt>
      <trkpt lat="38.057753" lon="-1.002262">
        <ele>80.915</ele>
        <time>2017-03-18T19:17:17Z</time>
      </trkpt>
      <trkpt lat="38.057840" lon="-1.002175">
        <ele>80.160</ele>
        <time>2017-03-18T19:17:19Z</time>
      </trkpt>
      <trkpt lat="38.057922" lon="-1.002088">
        <ele>79.232</ele>
        <time>2017-03-18T19:17:21Z</time>
      </trkpt>
      <trkpt lat="38.058016" lon="-1.001995">
        <ele>78.967</ele>
        <time>2017-03-18T19:17:25Z</time>
      </trkpt>
      <trkpt lat="38.058106" lon="-1.001897">
        <ele>78.765</ele>
        <time>2017-03-18T19:17:28Z</time>
      </trkpt>
      <trkpt lat="38.058209" lon="-1.001783">
        <ele>78.429</ele>
        <time>2017-03-18T19:17:31Z</time>
      </trkpt>
      <trkpt lat="38.058277" lon="-1.001692">
        <ele>78.115</ele>
        <time>2017-03-18T19:17:33Z</time>
      </trkpt>
      <trkpt lat="38.058372" lon="-1.001577">
        <ele>78.725</ele>
        <time>2017-03-18T19:17:36Z</time>
      </trkpt>
      <trkpt lat="38.058457" lon="-1.001460">
        <ele>79.976</ele>
        <time>2017-03-18T19:17:39Z</time>
      </trkpt>
      <trkpt lat="38.058549" lon="-1.001337">
        <ele>81.790</ele>
        <time>2017-03-18T19:17:41Z</time>
      </trkpt>
      <trkpt lat="38.058640" lon="-1.001213">
        <ele>83.619</ele>
        <time>2017-03-18T19:17:44Z</time>
      </trkpt>
      <trkpt lat="38.058698" lon="-1.001124">
        <ele>84.308</ele>
        <time>2017-03-18T19:17:46Z</time>
      </trkpt>
      <trkpt lat="38.058754" lon="-1.001031">
        <ele>85.598</ele>
        <time>2017-03-18T19:17:48Z</time>
      </trkpt>
      <trkpt lat="38.058815" lon="-1.000923">
        <ele>85.973</ele>
        <time>2017-03-18T19:17:50Z</time>
      </trkpt>
      <trkpt lat="38.058871" lon="-1.000815">
        <ele>86.155</ele>
        <time>2017-03-18T19:17:52Z</time>
      </trkpt>
      <trkpt lat="38.058927" lon="-1.000703">
        <ele>86.050</ele>
        <time>2017-03-18T19:17:54Z</time>
      </trkpt>
      <trkpt lat="38.058987" lon="-1.000590">
        <ele>85.888</ele>
        <time>2017-03-18T19:17:56Z</time>
      </trkpt>
      <trkpt lat="38.059041" lon="-1.000476">
        <ele>85.592</ele>
        <time>2017-03-18T19:17:58Z</time>
      </trkpt>
      <trkpt lat="38.059098" lon="-1.000353">
        <ele>85.678</ele>
        <time>2017-03-18T19:18:00Z</time>
      </trkpt>
      <trkpt lat="38.059158" lon="-1.000236">
        <ele>85.728</ele>
        <time>2017-03-18T19:18:02Z</time>
      </trkpt>
      <trkpt lat="38.059214" lon="-1.000120">
        <ele>85.924</ele>
        <time>2017-03-18T19:18:04Z</time>
      </trkpt>
      <trkpt lat="38.059290" lon="-0.999941">
        <ele>85.604</ele>
        <time>2017-03-18T19:18:07Z</time>
      </trkpt>
      <trkpt lat="38.059343" lon="-0.999829">
        <ele>85.714</ele>
        <time>2017-03-18T19:18:09Z</time>
      </trkpt>
      <trkpt lat="38.059394" lon="-0.999724">
        <ele>85.708</ele>
        <time>2017-03-18T19:18:11Z</time>
      </trkpt>
      <trkpt lat="38.059449" lon="-0.999632">
        <ele>86.723</ele>
        <time>2017-03-18T19:18:13Z</time>
      </trkpt>
      <trkpt lat="38.059506" lon="-0.999534">
        <ele>87.838</ele>
        <time>2017-03-18T19:18:15Z</time>
      </trkpt>
      <trkpt lat="38.059559" lon="-0.999423">
        <ele>87.910</ele>
        <time>2017-03-18T19:18:17Z</time>
      </trkpt>
      <trkpt lat="38.059604" lon="-0.999314">
        <ele>88.015</ele>
        <time>2017-03-18T19:18:19Z</time>
      </trkpt>
      <trkpt lat="38.059649" lon="-0.999205">
        <ele>88.143</ele>
        <time>2017-03-18T19:18:21Z</time>
      </trkpt>
      <trkpt lat="38.059696" lon="-0.999107">
        <ele>88.477</ele>
        <time>2017-03-18T19:18:23Z</time>
      </trkpt>
      <trkpt lat="38.059748" lon="-0.998997">
        <ele>88.393</ele>
        <time>2017-03-18T19:18:25Z</time>
      </trkpt>
      <trkpt lat="38.059796" lon="-0.998892">
        <ele>88.693</ele>
        <time>2017-03-18T19:18:27Z</time>
      </trkpt>
      <trkpt lat="38.059855" lon="-0.998768">
        <ele>88.979</ele>
        <time>2017-03-18T19:18:29Z</time>
      </trkpt>
      <trkpt lat="38.059903" lon="-0.998654">
        <ele>89.005</ele>
        <time>2017-03-18T19:18:31Z</time>
      </trkpt>
      <trkpt lat="38.059958" lon="-0.998540">
        <ele>88.725</ele>
        <time>2017-03-18T19:18:33Z</time>
      </trkpt>
      <trkpt lat="38.060012" lon="-0.998416">
        <ele>88.408</ele>
        <time>2017-03-18T19:18:35Z</time>
      </trkpt>
      <trkpt lat="38.060065" lon="-0.998304">
        <ele>88.448</ele>
        <time>2017-03-18T19:18:37Z</time>
      </trkpt>
      <trkpt lat="38.060124" lon="-0.998197">
        <ele>88.813</ele>
        <time>2017-03-18T19:18:39Z</time>
      </trkpt>
      <trkpt lat="38.060179" lon="-0.998089">
        <ele>89.435</ele>
        <time>2017-03-18T19:18:41Z</time>
      </trkpt>
      <trkpt lat="38.060245" lon="-0.997976">
        <ele>89.390</ele>
        <time>2017-03-18T19:18:44Z</time>
      </trkpt>
      <trkpt lat="38.060310" lon="-0.997879">
        <ele>88.918</ele>
        <time>2017-03-18T19:18:46Z</time>
      </trkpt>
      <trkpt lat="38.060391" lon="-0.997788">
        <ele>88.982</ele>
        <time>2017-03-18T19:18:48Z</time>
      </trkpt>
      <trkpt lat="38.060473" lon="-0.997709">
        <ele>88.658</ele>
        <time>2017-03-18T19:18:50Z</time>
      </trkpt>
      <trkpt lat="38.060559" lon="-0.997624">
        <ele>88.178</ele>
        <time>2017-03-18T19:18:52Z</time>
      </trkpt>
      <trkpt lat="38.060660" lon="-0.997522">
        <ele>86.575</ele>
        <time>2017-03-18T19:18:54Z</time>
      </trkpt>
      <trkpt lat="38.060770" lon="-0.997427">
        <ele>84.628</ele>
        <time>2017-03-18T19:18:56Z</time>
      </trkpt>
      <trkpt lat="38.060856" lon="-0.997363">
        <ele>84.120</ele>
        <time>2017-03-18T19:18:58Z</time>
      </trkpt>
      <trkpt lat="38.060940" lon="-0.997301">
        <ele>84.008</ele>
        <time>2017-03-18T19:18:59Z</time>
      </trkpt>
      <trkpt lat="38.061023" lon="-0.997247">
        <ele>84.118</ele>
        <time>2017-03-18T19:19:01Z</time>
      </trkpt>
      <trkpt lat="38.061145" lon="-0.997169">
        <ele>84.163</ele>
        <time>2017-03-18T19:19:04Z</time>
      </trkpt>
      <trkpt lat="38.061233" lon="-0.997112">
        <ele>84.115</ele>
        <time>2017-03-18T19:19:06Z</time>
      </trkpt>
      <trkpt lat="38.061334" lon="-0.997058">
        <ele>83.690</ele>
        <time>2017-03-18T19:19:08Z</time>
      </trkpt>
      <trkpt lat="38.061433" lon="-0.997007">
        <ele>83.278</ele>
        <time>2017-03-18T19:19:10Z</time>
      </trkpt>
      <trkpt lat="38.061521" lon="-0.996969">
        <ele>83.342</ele>
        <time>2017-03-18T19:19:12Z</time>
      </trkpt>
      <trkpt lat="38.061615" lon="-0.996946">
        <ele>82.848</ele>
        <time>2017-03-18T19:19:14Z</time>
      </trkpt>
      <trkpt lat="38.061717" lon="-0.996918">
        <ele>82.138</ele>
        <time>2017-03-18T19:19:16Z</time>
      </trkpt>
      <trkpt lat="38.061816" lon="-0.996897">
        <ele>81.063</ele>
        <time>2017-03-18T19:19:18Z</time>
      </trkpt>
      <trkpt lat="38.061915" lon="-0.996890">
        <ele>80.344</ele>
        <time>2017-03-18T19:19:20Z</time>
      </trkpt>
      <trkpt lat="38.062008" lon="-0.996876">
        <ele>79.718</ele>
        <time>2017-03-18T19:19:22Z</time>
      </trkpt>
      <trkpt lat="38.062113" lon="-0.996868">
        <ele>78.708</ele>
        <time>2017-03-18T19:19:24Z</time>
      </trkpt>
      <trkpt lat="38.062221" lon="-0.996864">
        <ele>77.987</ele>
        <time>2017-03-18T19:19:26Z</time>
      </trkpt>
      <trkpt lat="38.062314" lon="-0.996866">
        <ele>77.652</ele>
        <time>2017-03-18T19:19:28Z</time>
      </trkpt>
      <trkpt lat="38.062408" lon="-0.996870">
        <ele>77.654</ele>
        <time>2017-03-18T19:19:30Z</time>
      </trkpt>
      <trkpt lat="38.062563" lon="-0.996871">
        <ele>77.149</ele>
        <time>2017-03-18T19:19:33Z</time>
      </trkpt>
      <trkpt lat="38.062680" lon="-0.996873">
        <ele>76.627</ele>
        <time>2017-03-18T19:19:36Z</time>
      </trkpt>
      <trkpt lat="38.062795" lon="-0.996878">
        <ele>76.731</ele>
        <time>2017-03-18T19:19:39Z</time>
      </trkpt>
      <trkpt lat="38.062885" lon="-0.996891">
        <ele>77.177</ele>
        <time>2017-03-18T19:19:43Z</time>
      </trkpt>
      <trkpt lat="38.062988" lon="-0.996903">
        <ele>77.677</ele>
        <time>2017-03-18T19:19:46Z</time>
      </trkpt>
      <trkpt lat="38.063095" lon="-0.996868">
        <ele>78.636</ele>
        <time>2017-03-18T19:19:52Z</time>
      </trkpt>
      <trkpt lat="38.063174" lon="-0.996807">
        <ele>77.817</ele>
        <time>2017-03-18T19:20:03Z</time>
      </trkpt>
      <trkpt lat="38.063295" lon="-0.996808">
        <ele>77.618</ele>
        <time>2017-03-18T19:20:07Z</time>
      </trkpt>
      <trkpt lat="38.063423" lon="-0.996807">
        <ele>76.808</ele>
        <time>2017-03-18T19:20:10Z</time>
      </trkpt>
      <trkpt lat="38.063536" lon="-0.996802">
        <ele>77.184</ele>
        <time>2017-03-18T19:20:13Z</time>
      </trkpt>
      <trkpt lat="38.063661" lon="-0.996789">
        <ele>77.139</ele>
        <time>2017-03-18T19:20:16Z</time>
      </trkpt>
      <trkpt lat="38.063767" lon="-0.996766">
        <ele>77.191</ele>
        <time>2017-03-18T19:20:19Z</time>
      </trkpt>
      <trkpt lat="38.063882" lon="-0.996734">
        <ele>77.836</ele>
        <time>2017-03-18T19:20:22Z</time>
      </trkpt>
      <trkpt lat="38.063971" lon="-0.996705">
        <ele>77.584</ele>
        <time>2017-03-18T19:20:24Z</time>
      </trkpt>
      <trkpt lat="38.064062" lon="-0.996675">
        <ele>77.248</ele>
        <time>2017-03-18T19:20:26Z</time>
      </trkpt>
      <trkpt lat="38.064163" lon="-0.996639">
        <ele>76.654</ele>
        <time>2017-03-18T19:20:28Z</time>
      </trkpt>
      <trkpt lat="38.064258" lon="-0.996598">
        <ele>76.294</ele>
        <time>2017-03-18T19:20:30Z</time>
      </trkpt>
      <trkpt lat="38.064351" lon="-0.996554">
        <ele>76.152</ele>
        <time>2017-03-18T19:20:32Z</time>
      </trkpt>
      <trkpt lat="38.064476" lon="-0.996484">
        <ele>76.853</ele>
        <time>2017-03-18T19:20:35Z</time>
      </trkpt>
      <trkpt lat="38.064575" lon="-0.996428">
        <ele>76.208</ele>
        <time>2017-03-18T19:20:37Z</time>
      </trkpt>
      <trkpt lat="38.064661" lon="-0.996369">
        <ele>75.508</ele>
        <time>2017-03-18T19:20:39Z</time>
      </trkpt>
      <trkpt lat="38.064776" lon="-0.996299">
        <ele>75.616</ele>
        <time>2017-03-18T19:20:42Z</time>
      </trkpt>
      <trkpt lat="38.064886" lon="-0.996250">
        <ele>75.711</ele>
        <time>2017-03-18T19:20:45Z</time>
      </trkpt>
      <trkpt lat="38.064973" lon="-0.996181">
        <ele>77.073</ele>
        <time>2017-03-18T19:20:48Z</time>
      </trkpt>
      <trkpt lat="38.065051" lon="-0.996112">
        <ele>79.238</ele>
        <time>2017-03-18T19:20:51Z</time>
      </trkpt>
      <trkpt lat="38.065137" lon="-0.996011">
        <ele>80.046</ele>
        <time>2017-03-18T19:20:54Z</time>
      </trkpt>
      <trkpt lat="38.065233" lon="-0.995905">
        <ele>80.320</ele>
        <time>2017-03-18T19:20:57Z</time>
      </trkpt>
      <trkpt lat="38.065315" lon="-0.995793">
        <ele>80.716</ele>
        <time>2017-03-18T19:21:00Z</time>
      </trkpt>
      <trkpt lat="38.065385" lon="-0.995706">
        <ele>81.466</ele>
        <time>2017-03-18T19:21:03Z</time>
      </trkpt>
      <trkpt lat="38.065466" lon="-0.995594">
        <ele>82.186</ele>
        <time>2017-03-18T19:21:06Z</time>
      </trkpt>
      <trkpt lat="38.065533" lon="-0.995476">
        <ele>83.360</ele>
        <time>2017-03-18T19:21:09Z</time>
      </trkpt>
      <trkpt lat="38.065608" lon="-0.995368">
        <ele>85.326</ele>
        <time>2017-03-18T19:21:12Z</time>
      </trkpt>
      <trkpt lat="38.065657" lon="-0.995271">
        <ele>86.208</ele>
        <time>2017-03-18T19:21:15Z</time>
      </trkpt>
      <trkpt lat="38.065715" lon="-0.995161">
        <ele>85.929</ele>
        <time>2017-03-18T19:21:17Z</time>
      </trkpt>
      <trkpt lat="38.065768" lon="-0.995055">
        <ele>85.014</ele>
        <time>2017-03-18T19:21:19Z</time>
      </trkpt>
      <trkpt lat="38.065825" lon="-0.994920">
        <ele>85.486</ele>
        <time>2017-03-18T19:21:22Z</time>
      </trkpt>
      <trkpt lat="38.065897" lon="-0.994784">
        <ele>85.951</ele>
        <time>2017-03-18T19:21:25Z</time>
      </trkpt>
      <trkpt lat="38.065960" lon="-0.994661">
        <ele>85.869</ele>
        <time>2017-03-18T19:21:28Z</time>
      </trkpt>
      <trkpt lat="38.066027" lon="-0.994538">
        <ele>84.133</ele>
        <time>2017-03-18T19:21:30Z</time>
      </trkpt>
      <trkpt lat="38.066078" lon="-0.994419">
        <ele>84.699</ele>
        <time>2017-03-18T19:21:33Z</time>
      </trkpt>
      <trkpt lat="38.066140" lon="-0.994287">
        <ele>85.479</ele>
        <time>2017-03-18T19:21:36Z</time>
      </trkpt>
      <trkpt lat="38.066202" lon="-0.994151">
        <ele>86.196</ele>
        <time>2017-03-18T19:21:39Z</time>
      </trkpt>
      <trkpt lat="38.066260" lon="-0.994029">
        <ele>88.131</ele>
        <time>2017-03-18T19:21:42Z</time>
      </trkpt>
      <trkpt lat="38.066322" lon="-0.993899">
        <ele>89.524</ele>
        <time>2017-03-18T19:21:45Z</time>
      </trkpt>
      <trkpt lat="38.066364" lon="-0.993797">
        <ele>91.008</ele>
        <time>2017-03-18T19:21:47Z</time>
      </trkpt>
      <trkpt lat="38.066409" lon="-0.993694">
        <ele>92.630</ele>
        <time>2017-03-18T19:21:49Z</time>
      </trkpt>
      <trkpt lat="38.066469" lon="-0.993546">
        <ele>91.575</ele>
        <time>2017-03-18T19:21:52Z</time>
      </trkpt>
      <trkpt lat="38.066520" lon="-0.993438">
        <ele>90.627</ele>
        <time>2017-03-18T19:21:54Z</time>
      </trkpt>
      <trkpt lat="38.066585" lon="-0.993306">
        <ele>90.932</ele>
        <time>2017-03-18T19:21:57Z</time>
      </trkpt>
      <trkpt lat="38.066640" lon="-0.993195">
        <ele>91.080</ele>
        <time>2017-03-18T19:21:59Z</time>
      </trkpt>
      <trkpt lat="38.066704" lon="-0.993084">
        <ele>90.234</ele>
        <time>2017-03-18T19:22:01Z</time>
      </trkpt>
      <trkpt lat="38.066756" lon="-0.992986">
        <ele>89.590</ele>
        <time>2017-03-18T19:22:03Z</time>
      </trkpt>
      <trkpt lat="38.066808" lon="-0.992874">
        <ele>88.040</ele>
        <time>2017-03-18T19:22:05Z</time>
      </trkpt>
      <trkpt lat="38.066862" lon="-0.992751">
        <ele>87.873</ele>
        <time>2017-03-18T19:22:08Z</time>
      </trkpt>
      <trkpt lat="38.066909" lon="-0.992619">
        <ele>87.585</ele>
        <time>2017-03-18T19:22:14Z</time>
      </trkpt>
      <trkpt lat="38.066963" lon="-0.992516">
        <ele>87.513</ele>
        <time>2017-03-18T19:22:17Z</time>
      </trkpt>
      <trkpt lat="38.067018" lon="-0.992404">
        <ele>87.708</ele>
        <time>2017-03-18T19:22:21Z</time>
      </trkpt>
      <trkpt lat="38.067066" lon="-0.992294">
        <ele>87.918</ele>
        <time>2017-03-18T19:22:25Z</time>
      </trkpt>
      <trkpt lat="38.067125" lon="-0.992173">
        <ele>88.183</ele>
        <time>2017-03-18T19:22:28Z</time>
      </trkpt>
      <trkpt lat="38.067171" lon="-0.992055">
        <ele>88.875</ele>
        <time>2017-03-18T19:22:31Z</time>
      </trkpt>
      <trkpt lat="38.067231" lon="-0.991916">
        <ele>89.440</ele>
        <time>2017-03-18T19:22:34Z</time>
      </trkpt>
      <trkpt lat="38.067328" lon="-0.991708">
        <ele>91.228</ele>
        <time>2017-03-18T19:22:37Z</time>
      </trkpt>
      <trkpt lat="38.067379" lon="-0.991598">
        <ele>91.952</ele>
        <time>2017-03-18T19:22:39Z</time>
      </trkpt>
      <trkpt lat="38.067427" lon="-0.991482">
        <ele>92.698</ele>
        <time>2017-03-18T19:22:41Z</time>
      </trkpt>
      <trkpt lat="38.067476" lon="-0.991369">
        <ele>92.618</ele>
        <time>2017-03-18T19:22:43Z</time>
      </trkpt>
      <trkpt lat="38.067532" lon="-0.991275">
        <ele>93.024</ele>
        <time>2017-03-18T19:22:45Z</time>
      </trkpt>
      <trkpt lat="38.067592" lon="-0.991145">
        <ele>92.704</ele>
        <time>2017-03-18T19:22:47Z</time>
      </trkpt>
      <trkpt lat="38.067650" lon="-0.991012">
        <ele>91.314</ele>
        <time>2017-03-18T19:22:49Z</time>
      </trkpt>
      <trkpt lat="38.067702" lon="-0.990879">
        <ele>89.208</ele>
        <time>2017-03-18T19:22:51Z</time>
      </trkpt>
      <trkpt lat="38.067748" lon="-0.990776">
        <ele>88.263</ele>
        <time>2017-03-18T19:22:53Z</time>
      </trkpt>
      <trkpt lat="38.067805" lon="-0.990642">
        <ele>86.958</ele>
        <time>2017-03-18T19:22:56Z</time>
      </trkpt>
      <trkpt lat="38.067857" lon="-0.990533">
        <ele>87.060</ele>
        <time>2017-03-18T19:23:00Z</time>
      </trkpt>
      <trkpt lat="38.067907" lon="-0.990406">
        <ele>87.025</ele>
        <time>2017-03-18T19:23:03Z</time>
      </trkpt>
      <trkpt lat="38.067966" lon="-0.990284">
        <ele>87.283</ele>
        <time>2017-03-18T19:23:06Z</time>
      </trkpt>
      <trkpt lat="38.068024" lon="-0.990163">
        <ele>87.247</ele>
        <time>2017-03-18T19:23:08Z</time>
      </trkpt>
      <trkpt lat="38.068082" lon="-0.990034">
        <ele>85.983</ele>
        <time>2017-03-18T19:23:10Z</time>
      </trkpt>
      <trkpt lat="38.068134" lon="-0.989919">
        <ele>85.173</ele>
        <time>2017-03-18T19:23:12Z</time>
      </trkpt>
      <trkpt lat="38.068183" lon="-0.989810">
        <ele>84.554</ele>
        <time>2017-03-18T19:23:14Z</time>
      </trkpt>
      <trkpt lat="38.068249" lon="-0.989661">
        <ele>83.956</ele>
        <time>2017-03-18T19:23:17Z</time>
      </trkpt>
      <trkpt lat="38.068305" lon="-0.989549">
        <ele>83.811</ele>
        <time>2017-03-18T19:23:20Z</time>
      </trkpt>
      <trkpt lat="38.068371" lon="-0.989410">
        <ele>84.608</ele>
        <time>2017-03-18T19:23:23Z</time>
      </trkpt>
      <trkpt lat="38.068446" lon="-0.989265">
        <ele>84.466</ele>
        <time>2017-03-18T19:23:26Z</time>
      </trkpt>
      <trkpt lat="38.068493" lon="-0.989150">
        <ele>83.331</ele>
        <time>2017-03-18T19:23:28Z</time>
      </trkpt>
      <trkpt lat="38.068541" lon="-0.989053">
        <ele>83.133</ele>
        <time>2017-03-18T19:23:30Z</time>
      </trkpt>
      <trkpt lat="38.068586" lon="-0.988951">
        <ele>83.178</ele>
        <time>2017-03-18T19:23:33Z</time>
      </trkpt>
      <trkpt lat="38.068660" lon="-0.988804">
        <ele>82.416</ele>
        <time>2017-03-18T19:23:36Z</time>
      </trkpt>
      <trkpt lat="38.068725" lon="-0.988687">
        <ele>82.410</ele>
        <time>2017-03-18T19:23:39Z</time>
      </trkpt>
      <trkpt lat="38.068800" lon="-0.988553">
        <ele>83.096</ele>
        <time>2017-03-18T19:23:42Z</time>
      </trkpt>
      <trkpt lat="38.068894" lon="-0.988421">
        <ele>83.496</ele>
        <time>2017-03-18T19:23:45Z</time>
      </trkpt>
      <trkpt lat="38.068959" lon="-0.988330">
        <ele>82.998</ele>
        <time>2017-03-18T19:23:47Z</time>
      </trkpt>
      <trkpt lat="38.069050" lon="-0.988211">
        <ele>83.215</ele>
        <time>2017-03-18T19:23:49Z</time>
      </trkpt>
      <trkpt lat="38.069119" lon="-0.988124">
        <ele>83.526</ele>
        <time>2017-03-18T19:23:51Z</time>
      </trkpt>
      <trkpt lat="38.069199" lon="-0.988033">
        <ele>82.808</ele>
        <time>2017-03-18T19:23:53Z</time>
      </trkpt>
      <trkpt lat="38.069275" lon="-0.987949">
        <ele>82.370</ele>
        <time>2017-03-18T19:23:55Z</time>
      </trkpt>
      <trkpt lat="38.069381" lon="-0.987840">
        <ele>82.445</ele>
        <time>2017-03-18T19:23:58Z</time>
      </trkpt>
      <trkpt lat="38.069464" lon="-0.987746">
        <ele>81.737</ele>
        <time>2017-03-18T19:24:00Z</time>
      </trkpt>
      <trkpt lat="38.069538" lon="-0.987666">
        <ele>81.662</ele>
        <time>2017-03-18T19:24:02Z</time>
      </trkpt>
      <trkpt lat="38.069614" lon="-0.987585">
        <ele>81.510</ele>
        <time>2017-03-18T19:24:04Z</time>
      </trkpt>
      <trkpt lat="38.069688" lon="-0.987512">
        <ele>82.014</ele>
        <time>2017-03-18T19:24:06Z</time>
      </trkpt>
      <trkpt lat="38.069762" lon="-0.987438">
        <ele>82.560</ele>
        <time>2017-03-18T19:24:08Z</time>
      </trkpt>
      <trkpt lat="38.069843" lon="-0.987357">
        <ele>82.150</ele>
        <time>2017-03-18T19:24:10Z</time>
      </trkpt>
      <trkpt lat="38.069920" lon="-0.987278">
        <ele>81.687</ele>
        <time>2017-03-18T19:24:12Z</time>
      </trkpt>
      <trkpt lat="38.069995" lon="-0.987195">
        <ele>81.242</ele>
        <time>2017-03-18T19:24:14Z</time>
      </trkpt>
      <trkpt lat="38.070065" lon="-0.987120">
        <ele>81.526</ele>
        <time>2017-03-18T19:24:16Z</time>
      </trkpt>
      <trkpt lat="38.070161" lon="-0.987007">
        <ele>81.608</ele>
        <time>2017-03-18T19:24:19Z</time>
      </trkpt>
      <trkpt lat="38.070246" lon="-0.986883">
        <ele>82.129</ele>
        <time>2017-03-18T19:24:22Z</time>
      </trkpt>
      <trkpt lat="38.070339" lon="-0.986775">
        <ele>83.424</ele>
        <time>2017-03-18T19:24:25Z</time>
      </trkpt>
      <trkpt lat="38.070399" lon="-0.986673">
        <ele>83.786</ele>
        <time>2017-03-18T19:24:27Z</time>
      </trkpt>
      <trkpt lat="38.070479" lon="-0.986542">
        <ele>84.551</ele>
        <time>2017-03-18T19:24:30Z</time>
      </trkpt>
      <trkpt lat="38.070541" lon="-0.986446">
        <ele>84.989</ele>
        <time>2017-03-18T19:24:32Z</time>
      </trkpt>
      <trkpt lat="38.070603" lon="-0.986347">
        <ele>84.513</ele>
        <time>2017-03-18T19:24:34Z</time>
      </trkpt>
      <trkpt lat="38.070656" lon="-0.986240">
        <ele>83.599</ele>
        <time>2017-03-18T19:24:36Z</time>
      </trkpt>
      <trkpt lat="38.070703" lon="-0.986118">
        <ele>83.649</ele>
        <time>2017-03-18T19:24:39Z</time>
      </trkpt>
      <trkpt lat="38.070768" lon="-0.985977">
        <ele>83.956</ele>
        <time>2017-03-18T19:24:42Z</time>
      </trkpt>
      <trkpt lat="38.070816" lon="-0.985860">
        <ele>83.959</ele>
        <time>2017-03-18T19:24:44Z</time>
      </trkpt>
      <trkpt lat="38.070856" lon="-0.985704">
        <ele>84.114</ele>
        <time>2017-03-18T19:24:47Z</time>
      </trkpt>
      <trkpt lat="38.070900" lon="-0.985558">
        <ele>85.208</ele>
        <time>2017-03-18T19:24:50Z</time>
      </trkpt>
      <trkpt lat="38.070926" lon="-0.985448">
        <ele>85.736</ele>
        <time>2017-03-18T19:24:52Z</time>
      </trkpt>
      <trkpt lat="38.070966" lon="-0.985298">
        <ele>84.851</ele>
        <time>2017-03-18T19:24:55Z</time>
      </trkpt>
      <trkpt lat="38.070998" lon="-0.985142">
        <ele>83.843</ele>
        <time>2017-03-18T19:24:59Z</time>
      </trkpt>
      <trkpt lat="38.071017" lon="-0.985015">
        <ele>83.358</ele>
        <time>2017-03-18T19:25:01Z</time>
      </trkpt>
      <trkpt lat="38.071031" lon="-0.984845">
        <ele>82.886</ele>
        <time>2017-03-18T19:25:03Z</time>
      </trkpt>
      <trkpt lat="38.071033" lon="-0.984693">
        <ele>82.690</ele>
        <time>2017-03-18T19:25:06Z</time>
      </trkpt>
      <trkpt lat="38.071038" lon="-0.984573">
        <ele>81.646</ele>
        <time>2017-03-18T19:25:08Z</time>
      </trkpt>
      <trkpt lat="38.071040" lon="-0.984427">
        <ele>80.856</ele>
        <time>2017-03-18T19:25:10Z</time>
      </trkpt>
      <trkpt lat="38.071032" lon="-0.984282">
        <ele>80.499</ele>
        <time>2017-03-18T19:25:14Z</time>
      </trkpt>
      <trkpt lat="38.071027" lon="-0.984149">
        <ele>80.007</ele>
        <time>2017-03-18T19:25:17Z</time>
      </trkpt>
      <trkpt lat="38.071018" lon="-0.983981">
        <ele>79.827</ele>
        <time>2017-03-18T19:25:20Z</time>
      </trkpt>
      <trkpt lat="38.071019" lon="-0.983846">
        <ele>79.708</ele>
        <time>2017-03-18T19:25:23Z</time>
      </trkpt>
      <trkpt lat="38.071023" lon="-0.983692">
        <ele>79.580</ele>
        <time>2017-03-18T19:25:26Z</time>
      </trkpt>
      <trkpt lat="38.071015" lon="-0.983551">
        <ele>79.475</ele>
        <time>2017-03-18T19:25:29Z</time>
      </trkpt>
      <trkpt lat="38.071008" lon="-0.983388">
        <ele>79.497</ele>
        <time>2017-03-18T19:25:33Z</time>
      </trkpt>
      <trkpt lat="38.071027" lon="-0.983237">
        <ele>78.972</ele>
        <time>2017-03-18T19:25:36Z</time>
      </trkpt>
      <trkpt lat="38.071039" lon="-0.983104">
        <ele>78.990</ele>
        <time>2017-03-18T19:25:38Z</time>
      </trkpt>
      <trkpt lat="38.071028" lon="-0.982986">
        <ele>79.724</ele>
        <time>2017-03-18T19:25:40Z</time>
      </trkpt>
      <trkpt lat="38.071024" lon="-0.982839">
        <ele>80.270</ele>
        <time>2017-03-18T19:25:43Z</time>
      </trkpt>
      <trkpt lat="38.071037" lon="-0.982649">
        <ele>81.860</ele>
        <time>2017-03-18T19:25:46Z</time>
      </trkpt>
      <trkpt lat="38.071054" lon="-0.982484">
        <ele>82.819</ele>
        <time>2017-03-18T19:25:49Z</time>
      </trkpt>
      <trkpt lat="38.071069" lon="-0.982355">
        <ele>84.109</ele>
        <time>2017-03-18T19:25:51Z</time>
      </trkpt>
      <trkpt lat="38.071098" lon="-0.982230">
        <ele>85.019</ele>
        <time>2017-03-18T19:25:53Z</time>
      </trkpt>
      <trkpt lat="38.071125" lon="-0.982087">
        <ele>85.908</ele>
        <time>2017-03-18T19:25:55Z</time>
      </trkpt>
      <trkpt lat="38.071161" lon="-0.981928">
        <ele>87.322</ele>
        <time>2017-03-18T19:25:58Z</time>
      </trkpt>
      <trkpt lat="38.071202" lon="-0.981774">
        <ele>88.167</ele>
        <time>2017-03-18T19:26:00Z</time>
      </trkpt>
      <trkpt lat="38.071234" lon="-0.981664">
        <ele>88.549</ele>
        <time>2017-03-18T19:26:02Z</time>
      </trkpt>
      <trkpt lat="38.071288" lon="-0.981514">
        <ele>88.794</ele>
        <time>2017-03-18T19:26:05Z</time>
      </trkpt>
      <trkpt lat="38.071332" lon="-0.981394">
        <ele>88.852</ele>
        <time>2017-03-18T19:26:08Z</time>
      </trkpt>
      <trkpt lat="38.071400" lon="-0.981254">
        <ele>88.516</ele>
        <time>2017-03-18T19:26:10Z</time>
      </trkpt>
      <trkpt lat="38.071455" lon="-0.981146">
        <ele>87.932</ele>
        <time>2017-03-18T19:26:12Z</time>
      </trkpt>
      <trkpt lat="38.071524" lon="-0.981014">
        <ele>87.242</ele>
        <time>2017-03-18T19:26:14Z</time>
      </trkpt>
      <trkpt lat="38.071586" lon="-0.980905">
        <ele>86.286</ele>
        <time>2017-03-18T19:26:16Z</time>
      </trkpt>
      <trkpt lat="38.071660" lon="-0.980787">
        <ele>85.560</ele>
        <time>2017-03-18T19:26:18Z</time>
      </trkpt>
      <trkpt lat="38.071728" lon="-0.980684">
        <ele>84.826</ele>
        <time>2017-03-18T19:26:20Z</time>
      </trkpt>
      <trkpt lat="38.071807" lon="-0.980583">
        <ele>85.108</ele>
        <time>2017-03-18T19:26:23Z</time>
      </trkpt>
      <trkpt lat="38.071894" lon="-0.980486">
        <ele>85.569</ele>
        <time>2017-03-18T19:26:25Z</time>
      </trkpt>
      <trkpt lat="38.071984" lon="-0.980383">
        <ele>85.734</ele>
        <time>2017-03-18T19:26:28Z</time>
      </trkpt>
      <trkpt lat="38.072082" lon="-0.980294">
        <ele>86.436</ele>
        <time>2017-03-18T19:26:31Z</time>
      </trkpt>
      <trkpt lat="38.072170" lon="-0.980215">
        <ele>88.661</ele>
        <time>2017-03-18T19:26:34Z</time>
      </trkpt>
      <trkpt lat="38.072285" lon="-0.980118">
        <ele>90.429</ele>
        <time>2017-03-18T19:26:37Z</time>
      </trkpt>
      <trkpt lat="38.072377" lon="-0.980023">
        <ele>89.673</ele>
        <time>2017-03-18T19:26:39Z</time>
      </trkpt>
      <trkpt lat="38.072473" lon="-0.979927">
        <ele>87.489</ele>
        <time>2017-03-18T19:26:41Z</time>
      </trkpt>
      <trkpt lat="38.072553" lon="-0.979849">
        <ele>85.549</ele>
        <time>2017-03-18T19:26:43Z</time>
      </trkpt>
      <trkpt lat="38.072661" lon="-0.979735">
        <ele>83.248</ele>
        <time>2017-03-18T19:26:46Z</time>
      </trkpt>
      <trkpt lat="38.072733" lon="-0.979661">
        <ele>81.961</ele>
        <time>2017-03-18T19:26:48Z</time>
      </trkpt>
      <trkpt lat="38.072828" lon="-0.979554">
        <ele>81.017</ele>
        <time>2017-03-18T19:26:51Z</time>
      </trkpt>
      <trkpt lat="38.072900" lon="-0.979458">
        <ele>81.708</ele>
        <time>2017-03-18T19:26:54Z</time>
      </trkpt>
      <trkpt lat="38.072986" lon="-0.979335">
        <ele>83.295</ele>
        <time>2017-03-18T19:26:57Z</time>
      </trkpt>
      <trkpt lat="38.073051" lon="-0.979240">
        <ele>83.450</ele>
        <time>2017-03-18T19:26:59Z</time>
      </trkpt>
      <trkpt lat="38.073114" lon="-0.979150">
        <ele>83.512</ele>
        <time>2017-03-18T19:27:01Z</time>
      </trkpt>
      <trkpt lat="38.073193" lon="-0.979017">
        <ele>84.197</ele>
        <time>2017-03-18T19:27:04Z</time>
      </trkpt>
      <trkpt lat="38.073275" lon="-0.978881">
        <ele>84.295</ele>
        <time>2017-03-18T19:27:07Z</time>
      </trkpt>
      <trkpt lat="38.073337" lon="-0.978760">
        <ele>83.829</ele>
        <time>2017-03-18T19:27:09Z</time>
      </trkpt>
      <trkpt lat="38.073390" lon="-0.978656">
        <ele>83.825</ele>
        <time>2017-03-18T19:27:11Z</time>
      </trkpt>
      <trkpt lat="38.073441" lon="-0.978552">
        <ele>83.575</ele>
        <time>2017-03-18T19:27:13Z</time>
      </trkpt>
      <trkpt lat="38.073490" lon="-0.978447">
        <ele>83.554</ele>
        <time>2017-03-18T19:27:15Z</time>
      </trkpt>
      <trkpt lat="38.073554" lon="-0.978310">
        <ele>84.656</ele>
        <time>2017-03-18T19:27:18Z</time>
      </trkpt>
      <trkpt lat="38.073621" lon="-0.978188">
        <ele>84.511</ele>
        <time>2017-03-18T19:27:20Z</time>
      </trkpt>
      <trkpt lat="38.073685" lon="-0.978039">
        <ele>83.608</ele>
        <time>2017-03-18T19:27:22Z</time>
      </trkpt>
      <trkpt lat="38.073726" lon="-0.977938">
        <ele>82.376</ele>
        <time>2017-03-18T19:27:24Z</time>
      </trkpt>
      <trkpt lat="38.073776" lon="-0.977800">
        <ele>81.961</ele>
        <time>2017-03-18T19:27:27Z</time>
      </trkpt>
      <trkpt lat="38.073833" lon="-0.977676">
        <ele>83.213</ele>
        <time>2017-03-18T19:27:31Z</time>
      </trkpt>
      <trkpt lat="38.073881" lon="-0.977578">
        <ele>84.948</ele>
        <time>2017-03-18T19:27:34Z</time>
      </trkpt>
      <trkpt lat="38.073950" lon="-0.977442">
        <ele>86.496</ele>
        <time>2017-03-18T19:27:37Z</time>
      </trkpt>
      <trkpt lat="38.074012" lon="-0.977316">
        <ele>86.140</ele>
        <time>2017-03-18T19:27:39Z</time>
      </trkpt>
      <trkpt lat="38.074082" lon="-0.977182">
        <ele>85.466</ele>
        <time>2017-03-18T19:27:42Z</time>
      </trkpt>
      <trkpt lat="38.074143" lon="-0.977062">
        <ele>86.056</ele>
        <time>2017-03-18T19:27:45Z</time>
      </trkpt>
      <trkpt lat="38.074222" lon="-0.976935">
        <ele>86.534</ele>
        <time>2017-03-18T19:27:48Z</time>
      </trkpt>
      <trkpt lat="38.074318" lon="-0.976747">
        <ele>85.655</ele>
        <time>2017-03-18T19:27:50Z</time>
      </trkpt>
      <trkpt lat="38.074376" lon="-0.976647">
        <ele>84.310</ele>
        <time>2017-03-18T19:27:52Z</time>
      </trkpt>
      <trkpt lat="38.074432" lon="-0.976556">
        <ele>83.608</ele>
        <time>2017-03-18T19:27:54Z</time>
      </trkpt>
      <trkpt lat="38.074510" lon="-0.976419">
        <ele>83.254</ele>
        <time>2017-03-18T19:27:57Z</time>
      </trkpt>
      <trkpt lat="38.074583" lon="-0.976310">
        <ele>82.789</ele>
        <time>2017-03-18T19:27:59Z</time>
      </trkpt>
      <trkpt lat="38.074642" lon="-0.976204">
        <ele>81.491</ele>
        <time>2017-03-18T19:28:01Z</time>
      </trkpt>
      <trkpt lat="38.074729" lon="-0.976052">
        <ele>78.376</ele>
        <time>2017-03-18T19:28:04Z</time>
      </trkpt>
      <trkpt lat="38.074777" lon="-0.975937">
        <ele>76.074</ele>
        <time>2017-03-18T19:28:06Z</time>
      </trkpt>
      <trkpt lat="38.074822" lon="-0.975828">
        <ele>74.678</ele>
        <time>2017-03-18T19:28:08Z</time>
      </trkpt>
      <trkpt lat="38.074877" lon="-0.975701">
        <ele>75.224</ele>
        <time>2017-03-18T19:28:11Z</time>
      </trkpt>
      <trkpt lat="38.074922" lon="-0.975581">
        <ele>76.374</ele>
        <time>2017-03-18T19:28:13Z</time>
      </trkpt>
      <trkpt lat="38.074968" lon="-0.975417">
        <ele>76.688</ele>
        <time>2017-03-18T19:28:15Z</time>
      </trkpt>
      <trkpt lat="38.075006" lon="-0.975267">
        <ele>75.124</ele>
        <time>2017-03-18T19:28:18Z</time>
      </trkpt>
      <trkpt lat="38.075052" lon="-0.975130">
        <ele>74.326</ele>
        <time>2017-03-18T19:28:21Z</time>
      </trkpt>
      <trkpt lat="38.075079" lon="-0.975006">
        <ele>74.908</ele>
        <time>2017-03-18T19:28:25Z</time>
      </trkpt>
      <trkpt lat="38.075101" lon="-0.974888">
        <ele>76.469</ele>
        <time>2017-03-18T19:28:29Z</time>
      </trkpt>
      <trkpt lat="38.075113" lon="-0.974739">
        <ele>78.044</ele>
        <time>2017-03-18T19:28:33Z</time>
      </trkpt>
      <trkpt lat="38.075110" lon="-0.974569">
        <ele>78.836</ele>
        <time>2017-03-18T19:28:36Z</time>
      </trkpt>
      <trkpt lat="38.075106" lon="-0.974434">
        <ele>79.051</ele>
        <time>2017-03-18T19:28:38Z</time>
      </trkpt>
      <trkpt lat="38.075104" lon="-0.974272">
        <ele>78.369</ele>
        <time>2017-03-18T19:28:41Z</time>
      </trkpt>
      <trkpt lat="38.075090" lon="-0.974112">
        <ele>77.683</ele>
        <time>2017-03-18T19:28:44Z</time>
      </trkpt>
      <trkpt lat="38.075101" lon="-0.973953">
        <ele>79.289</ele>
        <time>2017-03-18T19:28:47Z</time>
      </trkpt>
      <trkpt lat="38.075112" lon="-0.973817">
        <ele>80.039</ele>
        <time>2017-03-18T19:28:50Z</time>
      </trkpt>
      <trkpt lat="38.075122" lon="-0.973685">
        <ele>79.952</ele>
        <time>2017-03-18T19:28:52Z</time>
      </trkpt>
      <trkpt lat="38.075126" lon="-0.973552">
        <ele>79.453</ele>
        <time>2017-03-18T19:28:54Z</time>
      </trkpt>
      <trkpt lat="38.075130" lon="-0.973390">
        <ele>80.408</ele>
        <time>2017-03-18T19:28:57Z</time>
      </trkpt>
      <trkpt lat="38.075152" lon="-0.973253">
        <ele>80.908</ele>
        <time>2017-03-18T19:29:00Z</time>
      </trkpt>
      <trkpt lat="38.075172" lon="-0.973103">
        <ele>80.756</ele>
        <time>2017-03-18T19:29:03Z</time>
      </trkpt>
      <trkpt lat="38.075203" lon="-0.972994">
        <ele>82.721</ele>
        <time>2017-03-18T19:29:05Z</time>
      </trkpt>
      <trkpt lat="38.075234" lon="-0.972837">
        <ele>83.883</ele>
        <time>2017-03-18T19:29:07Z</time>
      </trkpt>
      <trkpt lat="38.075281" lon="-0.972692">
        <ele>84.538</ele>
        <time>2017-03-18T19:29:09Z</time>
      </trkpt>
      <trkpt lat="38.075327" lon="-0.972515">
        <ele>84.596</ele>
        <time>2017-03-18T19:29:12Z</time>
      </trkpt>
      <trkpt lat="38.075370" lon="-0.972399">
        <ele>84.560</ele>
        <time>2017-03-18T19:29:13Z</time>
      </trkpt>
      <trkpt lat="38.075422" lon="-0.972273">
        <ele>84.666</ele>
        <time>2017-03-18T19:29:16Z</time>
      </trkpt>
      <trkpt lat="38.075493" lon="-0.972134">
        <ele>84.726</ele>
        <time>2017-03-18T19:29:18Z</time>
      </trkpt>
      <trkpt lat="38.075552" lon="-0.972035">
        <ele>84.819</ele>
        <time>2017-03-18T19:29:20Z</time>
      </trkpt>
      <trkpt lat="38.075605" lon="-0.971939">
        <ele>85.009</ele>
        <time>2017-03-18T19:29:23Z</time>
      </trkpt>
      <trkpt lat="38.075656" lon="-0.971837">
        <ele>85.119</ele>
        <time>2017-03-18T19:29:26Z</time>
      </trkpt>
      <trkpt lat="38.075718" lon="-0.971737">
        <ele>85.308</ele>
        <time>2017-03-18T19:29:29Z</time>
      </trkpt>
      <trkpt lat="38.075795" lon="-0.971652">
        <ele>85.392</ele>
        <time>2017-03-18T19:29:32Z</time>
      </trkpt>
      <trkpt lat="38.075867" lon="-0.971571">
        <ele>85.587</ele>
        <time>2017-03-18T19:29:35Z</time>
      </trkpt>
      <trkpt lat="38.075948" lon="-0.971513">
        <ele>85.819</ele>
        <time>2017-03-18T19:29:38Z</time>
      </trkpt>
      <trkpt lat="38.076031" lon="-0.971452">
        <ele>86.134</ele>
        <time>2017-03-18T19:29:41Z</time>
      </trkpt>
      <trkpt lat="38.076120" lon="-0.971429">
        <ele>85.952</ele>
        <time>2017-03-18T19:29:43Z</time>
      </trkpt>
      <trkpt lat="38.076227" lon="-0.971355">
        <ele>84.986</ele>
        <time>2017-03-18T19:29:45Z</time>
      </trkpt>
      <trkpt lat="38.076334" lon="-0.971303">
        <ele>84.262</ele>
        <time>2017-03-18T19:29:48Z</time>
      </trkpt>
      <trkpt lat="38.076424" lon="-0.971373">
        <ele>83.172</ele>
        <time>2017-03-18T19:29:53Z</time>
      </trkpt>
      <trkpt lat="38.076497" lon="-0.971460">
        <ele>83.159</ele>
        <time>2017-03-18T19:29:56Z</time>
      </trkpt>
      <trkpt lat="38.076588" lon="-0.971434">
        <ele>83.103</ele>
        <time>2017-03-18T19:29:59Z</time>
      </trkpt>
      <trkpt lat="38.076588" lon="-0.971319">
        <ele>82.923</ele>
        <time>2017-03-18T19:30:05Z</time>
      </trkpt>
      <trkpt lat="38.076634" lon="-0.971219">
        <ele>83.008</ele>
        <time>2017-03-18T19:30:09Z</time>
      </trkpt>
      <trkpt lat="38.076711" lon="-0.971133">
        <ele>84.766</ele>
        <time>2017-03-18T19:30:11Z</time>
      </trkpt>
      <trkpt lat="38.076801" lon="-0.971057">
        <ele>85.891</ele>
        <time>2017-03-18T19:30:13Z</time>
      </trkpt>
      <trkpt lat="38.076858" lon="-0.970938">
        <ele>86.253</ele>
        <time>2017-03-18T19:30:15Z</time>
      </trkpt>
      <trkpt lat="38.076842" lon="-0.970822">
        <ele>86.218</ele>
        <time>2017-03-18T19:30:17Z</time>
      </trkpt>
      <trkpt lat="38.076834" lon="-0.970663">
        <ele>85.836</ele>
        <time>2017-03-18T19:30:20Z</time>
      </trkpt>
      <trkpt lat="38.076890" lon="-0.970516">
        <ele>85.140</ele>
        <time>2017-03-18T19:30:23Z</time>
      </trkpt>
      <trkpt lat="38.076975" lon="-0.970408">
        <ele>84.426</ele>
        <time>2017-03-18T19:30:26Z</time>
      </trkpt>
      <trkpt lat="38.077061" lon="-0.970335">
        <ele>84.216</ele>
        <time>2017-03-18T19:30:29Z</time>
      </trkpt>
      <trkpt lat="38.077143" lon="-0.970269">
        <ele>83.418</ele>
        <time>2017-03-18T19:30:31Z</time>
      </trkpt>
      <trkpt lat="38.077224" lon="-0.970189">
        <ele>82.198</ele>
        <time>2017-03-18T19:30:34Z</time>
      </trkpt>
      <trkpt lat="38.077330" lon="-0.970073">
        <ele>81.717</ele>
        <time>2017-03-18T19:30:37Z</time>
      </trkpt>
      <trkpt lat="38.077407" lon="-0.969995">
        <ele>82.008</ele>
        <time>2017-03-18T19:30:39Z</time>
      </trkpt>
      <trkpt lat="38.077483" lon="-0.969922">
        <ele>82.212</ele>
        <time>2017-03-18T19:30:41Z</time>
      </trkpt>
      <trkpt lat="38.077570" lon="-0.969844">
        <ele>81.997</ele>
        <time>2017-03-18T19:30:43Z</time>
      </trkpt>
      <trkpt lat="38.077647" lon="-0.969770">
        <ele>81.579</ele>
        <time>2017-03-18T19:30:45Z</time>
      </trkpt>
      <trkpt lat="38.077751" lon="-0.969682">
        <ele>81.954</ele>
        <time>2017-03-18T19:30:48Z</time>
      </trkpt>
      <trkpt lat="38.077821" lon="-0.969606">
        <ele>82.232</ele>
        <time>2017-03-18T19:30:50Z</time>
      </trkpt>
      <trkpt lat="38.077894" lon="-0.969538">
        <ele>82.316</ele>
        <time>2017-03-18T19:30:52Z</time>
      </trkpt>
      <trkpt lat="38.078007" lon="-0.969432">
        <ele>82.332</ele>
        <time>2017-03-18T19:30:54Z</time>
      </trkpt>
      <trkpt lat="38.078090" lon="-0.969363">
        <ele>81.962</ele>
        <time>2017-03-18T19:30:57Z</time>
      </trkpt>
      <trkpt lat="38.078198" lon="-0.969264">
        <ele>81.556</ele>
        <time>2017-03-18T19:30:59Z</time>
      </trkpt>
      <trkpt lat="38.078308" lon="-0.969170">
        <ele>81.859</ele>
        <time>2017-03-18T19:31:02Z</time>
      </trkpt>
      <trkpt lat="38.078401" lon="-0.969085">
        <ele>81.814</ele>
        <time>2017-03-18T19:31:05Z</time>
      </trkpt>
      <trkpt lat="38.078493" lon="-0.968998">
        <ele>82.108</ele>
        <time>2017-03-18T19:31:08Z</time>
      </trkpt>
      <trkpt lat="38.078597" lon="-0.968885">
        <ele>82.416</ele>
        <time>2017-03-18T19:31:11Z</time>
      </trkpt>
      <trkpt lat="38.078674" lon="-0.968806">
        <ele>81.691</ele>
        <time>2017-03-18T19:31:13Z</time>
      </trkpt>
      <trkpt lat="38.078751" lon="-0.968735">
        <ele>80.733</ele>
        <time>2017-03-18T19:31:15Z</time>
      </trkpt>
      <trkpt lat="38.078825" lon="-0.968665">
        <ele>80.188</ele>
        <time>2017-03-18T19:31:17Z</time>
      </trkpt>
      <trkpt lat="38.078905" lon="-0.968601">
        <ele>79.536</ele>
        <time>2017-03-18T19:31:19Z</time>
      </trkpt>
      <trkpt lat="38.079016" lon="-0.968513">
        <ele>78.620</ele>
        <time>2017-03-18T19:31:22Z</time>
      </trkpt>
      <trkpt lat="38.079093" lon="-0.968448">
        <ele>77.716</ele>
        <time>2017-03-18T19:31:24Z</time>
      </trkpt>
      <trkpt lat="38.079239" lon="-0.968345">
        <ele>77.886</ele>
        <time>2017-03-18T19:31:28Z</time>
      </trkpt>
      <trkpt lat="38.079317" lon="-0.968287">
        <ele>77.947</ele>
        <time>2017-03-18T19:31:30Z</time>
      </trkpt>
      <trkpt lat="38.079403" lon="-0.968222">
        <ele>77.529</ele>
        <time>2017-03-18T19:31:32Z</time>
      </trkpt>
      <trkpt lat="38.079479" lon="-0.968154">
        <ele>77.221</ele>
        <time>2017-03-18T19:31:34Z</time>
      </trkpt>
      <trkpt lat="38.079560" lon="-0.968100">
        <ele>77.308</ele>
        <time>2017-03-18T19:31:36Z</time>
      </trkpt>
      <trkpt lat="38.079647" lon="-0.968042">
        <ele>77.595</ele>
        <time>2017-03-18T19:31:38Z</time>
      </trkpt>
      <trkpt lat="38.079732" lon="-0.967987">
        <ele>77.530</ele>
        <time>2017-03-18T19:31:40Z</time>
      </trkpt>
      <trkpt lat="38.079846" lon="-0.967896">
        <ele>77.892</ele>
        <time>2017-03-18T19:31:43Z</time>
      </trkpt>
      <trkpt lat="38.079945" lon="-0.967823">
        <ele>77.287</ele>
        <time>2017-03-18T19:31:45Z</time>
      </trkpt>
      <trkpt lat="38.080035" lon="-0.967763">
        <ele>76.695</ele>
        <time>2017-03-18T19:31:47Z</time>
      </trkpt>
      <trkpt lat="38.080114" lon="-0.967709">
        <ele>76.639</ele>
        <time>2017-03-18T19:31:49Z</time>
      </trkpt>
      <trkpt lat="38.080200" lon="-0.967645">
        <ele>76.535</ele>
        <time>2017-03-18T19:31:51Z</time>
      </trkpt>
      <trkpt lat="38.080313" lon="-0.967573">
        <ele>76.185</ele>
        <time>2017-03-18T19:31:54Z</time>
      </trkpt>
      <trkpt lat="38.080395" lon="-0.967513">
        <ele>75.757</ele>
        <time>2017-03-18T19:31:56Z</time>
      </trkpt>
      <trkpt lat="38.080481" lon="-0.967450">
        <ele>75.100</ele>
        <time>2017-03-18T19:31:58Z</time>
      </trkpt>
      <trkpt lat="38.080563" lon="-0.967377">
        <ele>74.320</ele>
        <time>2017-03-18T19:32:00Z</time>
      </trkpt>
      <trkpt lat="38.080655" lon="-0.967317">
        <ele>73.408</ele>
        <time>2017-03-18T19:32:02Z</time>
      </trkpt>
      <trkpt lat="38.080738" lon="-0.967256">
        <ele>72.856</ele>
        <time>2017-03-18T19:32:04Z</time>
      </trkpt>
      <trkpt lat="38.080832" lon="-0.967196">
        <ele>72.451</ele>
        <time>2017-03-18T19:32:06Z</time>
      </trkpt>
      <trkpt lat="38.080946" lon="-0.967129">
        <ele>74.173</ele>
        <time>2017-03-18T19:32:10Z</time>
      </trkpt>
      <trkpt lat="38.081055" lon="-0.967065">
        <ele>75.328</ele>
        <time>2017-03-18T19:32:13Z</time>
      </trkpt>
      <trkpt lat="38.081136" lon="-0.966995">
        <ele>76.376</ele>
        <time>2017-03-18T19:32:15Z</time>
      </trkpt>
      <trkpt lat="38.081228" lon="-0.966929">
        <ele>77.440</ele>
        <time>2017-03-18T19:32:17Z</time>
      </trkpt>
      <trkpt lat="38.081337" lon="-0.966852">
        <ele>77.136</ele>
        <time>2017-03-18T19:32:19Z</time>
      </trkpt>
      <trkpt lat="38.081438" lon="-0.966779">
        <ele>76.426</ele>
        <time>2017-03-18T19:32:21Z</time>
      </trkpt>
      <trkpt lat="38.081532" lon="-0.966714">
        <ele>76.136</ele>
        <time>2017-03-18T19:32:23Z</time>
      </trkpt>
      <trkpt lat="38.081617" lon="-0.966650">
        <ele>76.217</ele>
        <time>2017-03-18T19:32:25Z</time>
      </trkpt>
      <trkpt lat="38.081694" lon="-0.966587">
        <ele>76.918</ele>
        <time>2017-03-18T19:32:27Z</time>
      </trkpt>
      <trkpt lat="38.081781" lon="-0.966519">
        <ele>77.208</ele>
        <time>2017-03-18T19:32:29Z</time>
      </trkpt>
      <trkpt lat="38.081871" lon="-0.966439">
        <ele>76.664</ele>
        <time>2017-03-18T19:32:30Z</time>
      </trkpt>
      <trkpt lat="38.081995" lon="-0.966322">
        <ele>75.539</ele>
        <time>2017-03-18T19:32:33Z</time>
      </trkpt>
      <trkpt lat="38.082085" lon="-0.966231">
        <ele>74.471</ele>
        <time>2017-03-18T19:32:35Z</time>
      </trkpt>
      <trkpt lat="38.082163" lon="-0.966155">
        <ele>73.796</ele>
        <time>2017-03-18T19:32:37Z</time>
      </trkpt>
      <trkpt lat="38.082234" lon="-0.966080">
        <ele>73.684</ele>
        <time>2017-03-18T19:32:39Z</time>
      </trkpt>
      <trkpt lat="38.082320" lon="-0.965983">
        <ele>74.498</ele>
        <time>2017-03-18T19:32:42Z</time>
      </trkpt>
      <trkpt lat="38.082411" lon="-0.965874">
        <ele>74.984</ele>
        <time>2017-03-18T19:32:45Z</time>
      </trkpt>
      <trkpt lat="38.082498" lon="-0.965767">
        <ele>74.994</ele>
        <time>2017-03-18T19:32:49Z</time>
      </trkpt>
      <trkpt lat="38.082565" lon="-0.965688">
        <ele>75.451</ele>
        <time>2017-03-18T19:32:54Z</time>
      </trkpt>
      <trkpt lat="38.082599" lon="-0.965581">
        <ele>76.401</ele>
        <time>2017-03-18T19:33:06Z</time>
      </trkpt>
      <trkpt lat="38.082679" lon="-0.965490">
        <ele>81.011</ele>
        <time>2017-03-18T19:33:58Z</time>
      </trkpt>
      <trkpt lat="38.082756" lon="-0.965427">
        <ele>81.908</ele>
        <time>2017-03-18T19:34:02Z</time>
      </trkpt>
      <trkpt lat="38.082842" lon="-0.965349">
        <ele>82.846</ele>
        <time>2017-03-18T19:34:06Z</time>
      </trkpt>
      <trkpt lat="38.082917" lon="-0.965259">
        <ele>83.791</ele>
        <time>2017-03-18T19:34:11Z</time>
      </trkpt>
      <trkpt lat="38.082989" lon="-0.965141">
        <ele>84.313</ele>
        <time>2017-03-18T19:34:15Z</time>
      </trkpt>
      <trkpt lat="38.083051" lon="-0.965028">
        <ele>84.558</ele>
        <time>2017-03-18T19:34:18Z</time>
      </trkpt>
      <trkpt lat="38.083109" lon="-0.964932">
        <ele>84.566</ele>
        <time>2017-03-18T19:34:21Z</time>
      </trkpt>
      <trkpt lat="38.083169" lon="-0.964823">
        <ele>84.520</ele>
        <time>2017-03-18T19:34:26Z</time>
      </trkpt>
      <trkpt lat="38.083217" lon="-0.964718">
        <ele>84.766</ele>
        <time>2017-03-18T19:34:30Z</time>
      </trkpt>
      <trkpt lat="38.083272" lon="-0.964592">
        <ele>84.786</ele>
        <time>2017-03-18T19:34:32Z</time>
      </trkpt>
      <trkpt lat="38.083326" lon="-0.964463">
        <ele>84.638</ele>
        <time>2017-03-18T19:34:35Z</time>
      </trkpt>
      <trkpt lat="38.083381" lon="-0.964328">
        <ele>85.270</ele>
        <time>2017-03-18T19:34:38Z</time>
      </trkpt>
      <trkpt lat="38.083439" lon="-0.964149">
        <ele>84.817</ele>
        <time>2017-03-18T19:34:41Z</time>
      </trkpt>
      <trkpt lat="38.083470" lon="-0.964041">
        <ele>83.908</ele>
        <time>2017-03-18T19:34:43Z</time>
      </trkpt>
      <trkpt lat="38.083509" lon="-0.963916">
        <ele>83.364</ele>
        <time>2017-03-18T19:34:45Z</time>
      </trkpt>
      <trkpt lat="38.083543" lon="-0.963793">
        <ele>83.139</ele>
        <time>2017-03-18T19:34:47Z</time>
      </trkpt>
      <trkpt lat="38.083579" lon="-0.963678">
        <ele>82.161</ele>
        <time>2017-03-18T19:34:49Z</time>
      </trkpt>
      <trkpt lat="38.083616" lon="-0.963563">
        <ele>81.696</ele>
        <time>2017-03-18T19:34:51Z</time>
      </trkpt>
      <trkpt lat="38.083667" lon="-0.963405">
        <ele>81.414</ele>
        <time>2017-03-18T19:34:54Z</time>
      </trkpt>
      <trkpt lat="38.083709" lon="-0.963271">
        <ele>81.288</ele>
        <time>2017-03-18T19:34:56Z</time>
      </trkpt>
      <trkpt lat="38.083755" lon="-0.963124">
        <ele>81.224</ele>
        <time>2017-03-18T19:34:59Z</time>
      </trkpt>
      <trkpt lat="38.083790" lon="-0.963004">
        <ele>80.944</ele>
        <time>2017-03-18T19:35:01Z</time>
      </trkpt>
      <trkpt lat="38.083829" lon="-0.962869">
        <ele>81.284</ele>
        <time>2017-03-18T19:35:03Z</time>
      </trkpt>
      <trkpt lat="38.083869" lon="-0.962738">
        <ele>81.007</ele>
        <time>2017-03-18T19:35:05Z</time>
      </trkpt>
      <trkpt lat="38.083909" lon="-0.962605">
        <ele>80.817</ele>
        <time>2017-03-18T19:35:07Z</time>
      </trkpt>
      <trkpt lat="38.083946" lon="-0.962484">
        <ele>79.908</ele>
        <time>2017-03-18T19:35:09Z</time>
      </trkpt>
      <trkpt lat="38.083990" lon="-0.962369">
        <ele>79.619</ele>
        <time>2017-03-18T19:35:11Z</time>
      </trkpt>
      <trkpt lat="38.084050" lon="-0.962244">
        <ele>79.884</ele>
        <time>2017-03-18T19:35:13Z</time>
      </trkpt>
      <trkpt lat="38.084111" lon="-0.962138">
        <ele>80.236</ele>
        <time>2017-03-18T19:35:15Z</time>
      </trkpt>
      <trkpt lat="38.084186" lon="-0.962003">
        <ele>80.111</ele>
        <time>2017-03-18T19:35:17Z</time>
      </trkpt>
      <trkpt lat="38.084257" lon="-0.961886">
        <ele>79.979</ele>
        <time>2017-03-18T19:35:19Z</time>
      </trkpt>
      <trkpt lat="38.084341" lon="-0.961768">
        <ele>78.973</ele>
        <time>2017-03-18T19:35:21Z</time>
      </trkpt>
      <trkpt lat="38.084444" lon="-0.961652">
        <ele>77.519</ele>
        <time>2017-03-18T19:35:23Z</time>
      </trkpt>
      <trkpt lat="38.084525" lon="-0.961556">
        <ele>76.259</ele>
        <time>2017-03-18T19:35:24Z</time>
      </trkpt>
      <trkpt lat="38.084602" lon="-0.961469">
        <ele>75.553</ele>
        <time>2017-03-18T19:35:27Z</time>
      </trkpt>
      <trkpt lat="38.084674" lon="-0.961381">
        <ele>74.904</ele>
        <time>2017-03-18T19:35:28Z</time>
      </trkpt>
      <trkpt lat="38.084771" lon="-0.961281">
        <ele>75.314</ele>
        <time>2017-03-18T19:35:31Z</time>
      </trkpt>
      <trkpt lat="38.084848" lon="-0.961211">
        <ele>75.708</ele>
        <time>2017-03-18T19:35:33Z</time>
      </trkpt>
      <trkpt lat="38.084926" lon="-0.961138">
        <ele>76.056</ele>
        <time>2017-03-18T19:35:35Z</time>
      </trkpt>
      <trkpt lat="38.085008" lon="-0.961075">
        <ele>76.371</ele>
        <time>2017-03-18T19:35:37Z</time>
      </trkpt>
      <trkpt lat="38.085092" lon="-0.961023">
        <ele>76.563</ele>
        <time>2017-03-18T19:35:39Z</time>
      </trkpt>
      <trkpt lat="38.085175" lon="-0.960969">
        <ele>76.468</ele>
        <time>2017-03-18T19:35:41Z</time>
      </trkpt>
      <trkpt lat="38.085291" lon="-0.960893">
        <ele>76.856</ele>
        <time>2017-03-18T19:35:44Z</time>
      </trkpt>
      <trkpt lat="38.085378" lon="-0.960843">
        <ele>77.610</ele>
        <time>2017-03-18T19:35:46Z</time>
      </trkpt>
      <trkpt lat="38.085468" lon="-0.960794">
        <ele>77.816</ele>
        <time>2017-03-18T19:35:48Z</time>
      </trkpt>
      <trkpt lat="38.085550" lon="-0.960727">
        <ele>77.546</ele>
        <time>2017-03-18T19:35:50Z</time>
      </trkpt>
      <trkpt lat="38.085635" lon="-0.960682">
        <ele>77.265</ele>
        <time>2017-03-18T19:35:52Z</time>
      </trkpt>
      <trkpt lat="38.085730" lon="-0.960619">
        <ele>76.568</ele>
        <time>2017-03-18T19:35:54Z</time>
      </trkpt>
      <trkpt lat="38.085813" lon="-0.960573">
        <ele>76.514</ele>
        <time>2017-03-18T19:35:56Z</time>
      </trkpt>
      <trkpt lat="38.085901" lon="-0.960501">
        <ele>76.408</ele>
        <time>2017-03-18T19:35:58Z</time>
      </trkpt>
      <trkpt lat="38.085982" lon="-0.960451">
        <ele>76.737</ele>
        <time>2017-03-18T19:36:00Z</time>
      </trkpt>
      <trkpt lat="38.086099" lon="-0.960359">
        <ele>77.122</ele>
        <time>2017-03-18T19:36:03Z</time>
      </trkpt>
      <trkpt lat="38.086175" lon="-0.960285">
        <ele>77.614</ele>
        <time>2017-03-18T19:36:05Z</time>
      </trkpt>
      <trkpt lat="38.086292" lon="-0.960177">
        <ele>78.779</ele>
        <time>2017-03-18T19:36:08Z</time>
      </trkpt>
      <trkpt lat="38.086385" lon="-0.960076">
        <ele>77.987</ele>
        <time>2017-03-18T19:36:10Z</time>
      </trkpt>
      <trkpt lat="38.086483" lon="-0.959987">
        <ele>76.711</ele>
        <time>2017-03-18T19:36:12Z</time>
      </trkpt>
      <trkpt lat="38.086570" lon="-0.959881">
        <ele>76.087</ele>
        <time>2017-03-18T19:36:14Z</time>
      </trkpt>
      <trkpt lat="38.086649" lon="-0.959766">
        <ele>75.137</ele>
        <time>2017-03-18T19:36:16Z</time>
      </trkpt>
      <trkpt lat="38.086726" lon="-0.959655">
        <ele>74.178</ele>
        <time>2017-03-18T19:36:18Z</time>
      </trkpt>
      <trkpt lat="38.086789" lon="-0.959556">
        <ele>73.733</ele>
        <time>2017-03-18T19:36:20Z</time>
      </trkpt>
      <trkpt lat="38.086847" lon="-0.959445">
        <ele>73.426</ele>
        <time>2017-03-18T19:36:22Z</time>
      </trkpt>
      <trkpt lat="38.086904" lon="-0.959353">
        <ele>73.608</ele>
        <time>2017-03-18T19:36:24Z</time>
      </trkpt>
      <trkpt lat="38.086979" lon="-0.959210">
        <ele>74.628</ele>
        <time>2017-03-18T19:36:27Z</time>
      </trkpt>
      <trkpt lat="38.087026" lon="-0.959102">
        <ele>75.323</ele>
        <time>2017-03-18T19:36:30Z</time>
      </trkpt>
      <trkpt lat="38.087077" lon="-0.958991">
        <ele>76.115</ele>
        <time>2017-03-18T19:36:32Z</time>
      </trkpt>
      <trkpt lat="38.087139" lon="-0.958849">
        <ele>76.670</ele>
        <time>2017-03-18T19:36:35Z</time>
      </trkpt>
      <trkpt lat="38.087187" lon="-0.958719">
        <ele>76.748</ele>
        <time>2017-03-18T19:36:37Z</time>
      </trkpt>
      <trkpt lat="38.087232" lon="-0.958583">
        <ele>76.912</ele>
        <time>2017-03-18T19:36:39Z</time>
      </trkpt>
      <trkpt lat="38.087282" lon="-0.958402">
        <ele>76.928</ele>
        <time>2017-03-18T19:36:41Z</time>
      </trkpt>
      <trkpt lat="38.087313" lon="-0.958234">
        <ele>76.538</ele>
        <time>2017-03-18T19:36:44Z</time>
      </trkpt>
      <trkpt lat="38.087354" lon="-0.958021">
        <ele>77.286</ele>
        <time>2017-03-18T19:36:48Z</time>
      </trkpt>
      <trkpt lat="38.087384" lon="-0.957888">
        <ele>78.160</ele>
        <time>2017-03-18T19:36:51Z</time>
      </trkpt>
      <trkpt lat="38.087388" lon="-0.957739">
        <ele>78.226</ele>
        <time>2017-03-18T19:36:54Z</time>
      </trkpt>
      <trkpt lat="38.087396" lon="-0.957616">
        <ele>77.008</ele>
        <time>2017-03-18T19:36:56Z</time>
      </trkpt>
      <trkpt lat="38.087387" lon="-0.957469">
        <ele>76.199</ele>
        <time>2017-03-18T19:36:59Z</time>
      </trkpt>
      <trkpt lat="38.087376" lon="-0.957326">
        <ele>75.014</ele>
        <time>2017-03-18T19:37:02Z</time>
      </trkpt>
      <trkpt lat="38.087364" lon="-0.957200">
        <ele>74.236</ele>
        <time>2017-03-18T19:37:04Z</time>
      </trkpt>
      <trkpt lat="38.087322" lon="-0.957058">
        <ele>73.761</ele>
        <time>2017-03-18T19:37:06Z</time>
      </trkpt>
      <trkpt lat="38.087305" lon="-0.956916">
        <ele>71.579</ele>
        <time>2017-03-18T19:37:08Z</time>
      </trkpt>
      <trkpt lat="38.087279" lon="-0.956783">
        <ele>69.293</ele>
        <time>2017-03-18T19:37:10Z</time>
      </trkpt>
      <trkpt lat="38.087251" lon="-0.956661">
        <ele>67.699</ele>
        <time>2017-03-18T19:37:12Z</time>
      </trkpt>
      <trkpt lat="38.087222" lon="-0.956530">
        <ele>65.759</ele>
        <time>2017-03-18T19:37:14Z</time>
      </trkpt>
      <trkpt lat="38.087202" lon="-0.956413">
        <ele>64.978</ele>
        <time>2017-03-18T19:37:16Z</time>
      </trkpt>
      <trkpt lat="38.087176" lon="-0.956269">
        <ele>65.333</ele>
        <time>2017-03-18T19:37:18Z</time>
      </trkpt>
      <trkpt lat="38.087152" lon="-0.956144">
        <ele>66.526</ele>
        <time>2017-03-18T19:37:20Z</time>
      </trkpt>
      <trkpt lat="38.087106" lon="-0.955988">
        <ele>67.308</ele>
        <time>2017-03-18T19:37:23Z</time>
      </trkpt>
      <trkpt lat="38.087074" lon="-0.955868">
        <ele>68.898</ele>
        <time>2017-03-18T19:37:25Z</time>
      </trkpt>
      <trkpt lat="38.087022" lon="-0.955706">
        <ele>70.683</ele>
        <time>2017-03-18T19:37:28Z</time>
      </trkpt>
      <trkpt lat="38.087000" lon="-0.955550">
        <ele>71.495</ele>
        <time>2017-03-18T19:37:31Z</time>
      </trkpt>
      <trkpt lat="38.086981" lon="-0.955433">
        <ele>71.580</ele>
        <time>2017-03-18T19:37:35Z</time>
      </trkpt>
      <trkpt lat="38.086942" lon="-0.955327">
        <ele>71.838</ele>
        <time>2017-03-18T19:37:40Z</time>
      </trkpt>
      <trkpt lat="38.086879" lon="-0.955210">
        <ele>71.792</ele>
        <time>2017-03-18T19:37:44Z</time>
      </trkpt>
      <trkpt lat="38.086817" lon="-0.955077">
        <ele>69.688</ele>
        <time>2017-03-18T19:37:47Z</time>
      </trkpt>
      <trkpt lat="38.086761" lon="-0.954953">
        <ele>69.618</ele>
        <time>2017-03-18T19:37:50Z</time>
      </trkpt>
      <trkpt lat="38.086704" lon="-0.954838">
        <ele>70.169</ele>
        <time>2017-03-18T19:37:53Z</time>
      </trkpt>
      <trkpt lat="38.086655" lon="-0.954727">
        <ele>70.504</ele>
        <time>2017-03-18T19:37:56Z</time>
      </trkpt>
      <trkpt lat="38.086608" lon="-0.954615">
        <ele>70.724</ele>
        <time>2017-03-18T19:37:58Z</time>
      </trkpt>
      <trkpt lat="38.086553" lon="-0.954499">
        <ele>72.008</ele>
        <time>2017-03-18T19:38:01Z</time>
      </trkpt>
      <trkpt lat="38.086484" lon="-0.954377">
        <ele>72.937</ele>
        <time>2017-03-18T19:38:04Z</time>
      </trkpt>
      <trkpt lat="38.086422" lon="-0.954251">
        <ele>73.632</ele>
        <time>2017-03-18T19:38:07Z</time>
      </trkpt>
      <trkpt lat="38.086371" lon="-0.954130">
        <ele>73.754</ele>
        <time>2017-03-18T19:38:10Z</time>
      </trkpt>
      <trkpt lat="38.086311" lon="-0.953999">
        <ele>74.829</ele>
        <time>2017-03-18T19:38:13Z</time>
      </trkpt>
      <trkpt lat="38.086261" lon="-0.953903">
        <ele>74.987</ele>
        <time>2017-03-18T19:38:15Z</time>
      </trkpt>
      <trkpt lat="38.086197" lon="-0.953764">
        <ele>74.731</ele>
        <time>2017-03-18T19:38:18Z</time>
      </trkpt>
      <trkpt lat="38.086139" lon="-0.953638">
        <ele>74.347</ele>
        <time>2017-03-18T19:38:21Z</time>
      </trkpt>
      <trkpt lat="38.086070" lon="-0.953503">
        <ele>75.667</ele>
        <time>2017-03-18T19:38:24Z</time>
      </trkpt>
      <trkpt lat="38.086009" lon="-0.953398">
        <ele>75.834</ele>
        <time>2017-03-18T19:38:26Z</time>
      </trkpt>
      <trkpt lat="38.085954" lon="-0.953296">
        <ele>74.755</ele>
        <time>2017-03-18T19:38:28Z</time>
      </trkpt>
      <trkpt lat="38.085894" lon="-0.953198">
        <ele>73.010</ele>
        <time>2017-03-18T19:38:30Z</time>
      </trkpt>
      <trkpt lat="38.085814" lon="-0.953079">
        <ele>70.108</ele>
        <time>2017-03-18T19:38:33Z</time>
      </trkpt>
      <trkpt lat="38.085757" lon="-0.952988">
        <ele>69.964</ele>
        <time>2017-03-18T19:38:35Z</time>
      </trkpt>
      <trkpt lat="38.085691" lon="-0.952884">
        <ele>69.799</ele>
        <time>2017-03-18T19:38:39Z</time>
      </trkpt>
      <trkpt lat="38.085633" lon="-0.952772">
        <ele>69.891</ele>
        <time>2017-03-18T19:38:45Z</time>
      </trkpt>
      <trkpt lat="38.085553" lon="-0.952673">
        <ele>70.156</ele>
        <time>2017-03-18T19:38:50Z</time>
      </trkpt>
      <trkpt lat="38.085474" lon="-0.952578">
        <ele>70.684</ele>
        <time>2017-03-18T19:38:53Z</time>
      </trkpt>
      <trkpt lat="38.085463" lon="-0.952457">
        <ele>71.568</ele>
        <time>2017-03-18T19:39:05Z</time>
      </trkpt>
      <trkpt lat="38.085512" lon="-0.952348">
        <ele>71.714</ele>
        <time>2017-03-18T19:39:09Z</time>
      </trkpt>
      <trkpt lat="38.085537" lon="-0.952238">
        <ele>72.184</ele>
        <time>2017-03-18T19:39:13Z</time>
      </trkpt>
      <trkpt lat="38.085514" lon="-0.952125">
        <ele>73.063</ele>
        <time>2017-03-18T19:39:19Z</time>
      </trkpt>
      <trkpt lat="38.085453" lon="-0.952024">
        <ele>74.244</ele>
        <time>2017-03-18T19:39:27Z</time>
      </trkpt>
      <trkpt lat="38.085407" lon="-0.951870">
        <ele>74.718</ele>
        <time>2017-03-18T19:39:36Z</time>
      </trkpt>
      <trkpt lat="38.085416" lon="-0.951742">
        <ele>75.108</ele>
        <time>2017-03-18T19:39:39Z</time>
      </trkpt>
      <trkpt lat="38.085422" lon="-0.951589">
        <ele>75.847</ele>
        <time>2017-03-18T19:39:42Z</time>
      </trkpt>
      <trkpt lat="38.085425" lon="-0.951475">
        <ele>75.832</ele>
        <time>2017-03-18T19:39:44Z</time>
      </trkpt>
      <trkpt lat="38.085419" lon="-0.951333">
        <ele>75.854</ele>
        <time>2017-03-18T19:39:47Z</time>
      </trkpt>
      <trkpt lat="38.085423" lon="-0.951216">
        <ele>75.889</ele>
        <time>2017-03-18T19:39:50Z</time>
      </trkpt>
      <trkpt lat="38.085434" lon="-0.951038">
        <ele>75.977</ele>
        <time>2017-03-18T19:39:53Z</time>
      </trkpt>
      <trkpt lat="38.085437" lon="-0.950904">
        <ele>76.161</ele>
        <time>2017-03-18T19:39:57Z</time>
      </trkpt>
      <trkpt lat="38.085506" lon="-0.950807">
        <ele>76.347</ele>
        <time>2017-03-18T19:40:03Z</time>
      </trkpt>
      <trkpt lat="38.085612" lon="-0.950769">
        <ele>76.857</ele>
        <time>2017-03-18T19:40:06Z</time>
      </trkpt>
      <trkpt lat="38.085667" lon="-0.950639">
        <ele>77.331</ele>
        <time>2017-03-18T19:40:12Z</time>
      </trkpt>
      <trkpt lat="38.085663" lon="-0.950469">
        <ele>78.061</ele>
        <time>2017-03-18T19:40:17Z</time>
      </trkpt>
      <trkpt lat="38.085645" lon="-0.950354">
        <ele>78.807</ele>
        <time>2017-03-18T19:40:21Z</time>
      </trkpt>
      <trkpt lat="38.085599" lon="-0.950244">
        <ele>79.308</ele>
        <time>2017-03-18T19:40:27Z</time>
      </trkpt>
      <trkpt lat="38.085507" lon="-0.950167">
        <ele>79.224</ele>
        <time>2017-03-18T19:40:30Z</time>
      </trkpt>
      <trkpt lat="38.085422" lon="-0.950051">
        <ele>79.279</ele>
        <time>2017-03-18T19:40:33Z</time>
      </trkpt>
      <trkpt lat="38.085408" lon="-0.949929">
        <ele>79.251</ele>
        <time>2017-03-18T19:40:35Z</time>
      </trkpt>
      <trkpt lat="38.085409" lon="-0.949806">
        <ele>79.356</ele>
        <time>2017-03-18T19:40:38Z</time>
      </trkpt>
      <trkpt lat="38.085412" lon="-0.949689">
        <ele>79.474</ele>
        <time>2017-03-18T19:40:41Z</time>
      </trkpt>
      <trkpt lat="38.085394" lon="-0.949558">
        <ele>79.858</ele>
        <time>2017-03-18T19:40:44Z</time>
      </trkpt>
      <trkpt lat="38.085364" lon="-0.949442">
        <ele>80.134</ele>
        <time>2017-03-18T19:40:46Z</time>
      </trkpt>
      <trkpt lat="38.085332" lon="-0.949331">
        <ele>80.464</ele>
        <time>2017-03-18T19:40:48Z</time>
      </trkpt>
      <trkpt lat="38.085339" lon="-0.949196">
        <ele>81.143</ele>
        <time>2017-03-18T19:40:54Z</time>
      </trkpt>
      <trkpt lat="38.085329" lon="-0.949033">
        <ele>81.564</ele>
        <time>2017-03-18T19:40:56Z</time>
      </trkpt>
      <trkpt lat="38.085318" lon="-0.948857">
        <ele>82.010</ele>
        <time>2017-03-18T19:40:58Z</time>
      </trkpt>
      <trkpt lat="38.085314" lon="-0.948703">
        <ele>82.508</ele>
        <time>2017-03-18T19:41:00Z</time>
      </trkpt>
      <trkpt lat="38.085310" lon="-0.948583">
        <ele>83.335</ele>
        <time>2017-03-18T19:41:05Z</time>
      </trkpt>
      <trkpt lat="38.085284" lon="-0.948436">
        <ele>83.780</ele>
        <time>2017-03-18T19:41:08Z</time>
      </trkpt>
      <trkpt lat="38.085326" lon="-0.948227">
        <ele>85.052</ele>
        <time>2017-03-18T19:41:34Z</time>
      </trkpt>
      <trkpt lat="38.085388" lon="-0.948089">
        <ele>84.927</ele>
        <time>2017-03-18T19:41:36Z</time>
      </trkpt>
      <trkpt lat="38.085458" lon="-0.947937">
        <ele>85.045</ele>
        <time>2017-03-18T19:41:38Z</time>
      </trkpt>
      <trkpt lat="38.085482" lon="-0.947809">
        <ele>84.989</ele>
        <time>2017-03-18T19:41:40Z</time>
      </trkpt>
      <trkpt lat="38.085522" lon="-0.947616">
        <ele>84.915</ele>
        <time>2017-03-18T19:41:42Z</time>
      </trkpt>
      <trkpt lat="38.085547" lon="-0.947455">
        <ele>84.955</ele>
        <time>2017-03-18T19:41:44Z</time>
      </trkpt>
      <trkpt lat="38.085591" lon="-0.947220">
        <ele>85.282</ele>
        <time>2017-03-18T19:41:49Z</time>
      </trkpt>
      <trkpt lat="38.085621" lon="-0.947069">
        <ele>85.643</ele>
        <time>2017-03-18T19:41:52Z</time>
      </trkpt>
      <trkpt lat="38.085649" lon="-0.946936">
        <ele>85.817</ele>
        <time>2017-03-18T19:41:55Z</time>
      </trkpt>
      <trkpt lat="38.085530" lon="-0.946890">
        <ele>86.008</ele>
        <time>2017-03-18T19:42:01Z</time>
      </trkpt>
      <trkpt lat="38.085526" lon="-0.946753">
        <ele>86.139</ele>
        <time>2017-03-18T19:42:03Z</time>
      </trkpt>
      <trkpt lat="38.085534" lon="-0.946618">
        <ele>86.224</ele>
        <time>2017-03-18T19:42:07Z</time>
      </trkpt>
      <trkpt lat="38.085552" lon="-0.946504">
        <ele>86.496</ele>
        <time>2017-03-18T19:42:11Z</time>
      </trkpt>
      <trkpt lat="38.085581" lon="-0.946186">
        <ele>86.621</ele>
        <time>2017-03-18T19:42:20Z</time>
      </trkpt>
      <trkpt lat="38.085593" lon="-0.946045">
        <ele>86.439</ele>
        <time>2017-03-18T19:42:26Z</time>
      </trkpt>
      <trkpt lat="38.085661" lon="-0.945918">
        <ele>86.493</ele>
        <time>2017-03-18T19:42:30Z</time>
      </trkpt>
      <trkpt lat="38.085744" lon="-0.945738">
        <ele>86.399</ele>
        <time>2017-03-18T19:42:32Z</time>
      </trkpt>
      <trkpt lat="38.085834" lon="-0.945612">
        <ele>86.469</ele>
        <time>2017-03-18T19:42:34Z</time>
      </trkpt>
      <trkpt lat="38.085891" lon="-0.945513">
        <ele>86.699</ele>
        <time>2017-03-18T19:42:36Z</time>
      </trkpt>
      <trkpt lat="38.085998" lon="-0.945348">
        <ele>87.007</ele>
        <time>2017-03-18T19:42:38Z</time>
      </trkpt>
      <trkpt lat="38.085956" lon="-0.945238">
        <ele>86.627</ele>
        <time>2017-03-18T19:42:44Z</time>
      </trkpt>
      <trkpt lat="38.085885" lon="-0.945153">
        <ele>86.008</ele>
        <time>2017-03-18T19:42:48Z</time>
      </trkpt>
      <trkpt lat="38.085792" lon="-0.945127">
        <ele>84.120</ele>
        <time>2017-03-18T19:42:57Z</time>
      </trkpt>
      <trkpt lat="38.085711" lon="-0.945188">
        <ele>82.875</ele>
        <time>2017-03-18T19:43:01Z</time>
      </trkpt>
      <trkpt lat="38.085585" lon="-0.945170">
        <ele>82.177</ele>
        <time>2017-03-18T19:43:04Z</time>
      </trkpt>
      <trkpt lat="38.085495" lon="-0.945147">
        <ele>81.792</ele>
        <time>2017-03-18T19:43:08Z</time>
      </trkpt>
      <trkpt lat="38.085405" lon="-0.945144">
        <ele>82.020</ele>
        <time>2017-03-18T19:43:12Z</time>
      </trkpt>
      <trkpt lat="38.085312" lon="-0.945224">
        <ele>82.334</ele>
        <time>2017-03-18T19:43:18Z</time>
      </trkpt>
      <trkpt lat="38.085193" lon="-0.945262">
        <ele>82.530</ele>
        <time>2017-03-18T19:43:22Z</time>
      </trkpt>
      <trkpt lat="38.083237" lon="-0.945726">
        <ele>38.664</ele>
        <time>2021-05-05T09:00:48Z</time>
      </trkpt>
      <trkpt lat="38.083223" lon="-0.945781">
        <ele>38.906</ele>
        <time>2021-05-05T09:01:25Z</time>
      </trkpt>
      <trkpt lat="38.083175" lon="-0.945799">
        <ele>38.816</ele>
        <time>2021-05-05T09:01:54Z</time>
      </trkpt>
      <trkpt lat="38.083200" lon="-0.945730">
        <ele>38.808</ele>
        <time>2021-05-05T09:02:15Z</time>
      </trkpt>
      <trkpt lat="38.083206" lon="-0.945659">
        <ele>38.823</ele>
        <time>2021-05-05T09:02:19Z</time>
      </trkpt>
      <trkpt lat="38.083200" lon="-0.945600">
        <ele>38.868</ele>
        <time>2021-05-05T09:02:32Z</time>
      </trkpt>
      <trkpt lat="38.083207" lon="-0.945524">
        <ele>38.898</ele>
        <time>2021-05-05T09:02:47Z</time>
      </trkpt>
      <trkpt lat="38.083281" lon="-0.945416">
        <ele>38.821</ele>
        <time>2021-05-05T09:02:49Z</time>
      </trkpt>
      <trkpt lat="38.083282" lon="-0.945474">
        <ele>38.951</ele>
        <time>2021-05-05T09:02:52Z</time>
      </trkpt>
      <trkpt lat="38.083327" lon="-0.945480">
        <ele>39.093</ele>
        <time>2021-05-05T09:02:58Z</time>
      </trkpt>
      <trkpt lat="38.083368" lon="-0.945455">
        <ele>39.060</ele>
        <time>2021-05-05T09:03:00Z</time>
      </trkpt>
      <trkpt lat="38.083456" lon="-0.945379">
        <ele>39.065</ele>
        <time>2021-05-05T09:03:02Z</time>
      </trkpt>
      <trkpt lat="38.083525" lon="-0.945320">
        <ele>39.061</ele>
        <time>2021-05-05T09:03:04Z</time>
      </trkpt>
      <trkpt lat="38.083586" lon="-0.945289">
        <ele>39.021</ele>
        <time>2021-05-05T09:03:07Z</time>
      </trkpt>
      <trkpt lat="38.083660" lon="-0.945182">
        <ele>39.013</ele>
        <time>2021-05-05T09:03:09Z</time>
      </trkpt>
      <trkpt lat="38.083705" lon="-0.945160">
        <ele>38.908</ele>
        <time>2021-05-05T09:03:17Z</time>
      </trkpt>
      <trkpt lat="38.083754" lon="-0.945160">
        <ele>38.873</ele>
        <time>2021-05-05T09:03:21Z</time>
      </trkpt>
      <trkpt lat="38.083799" lon="-0.945145">
        <ele>38.818</ele>
        <time>2021-05-05T09:03:25Z</time>
      </trkpt>
      <trkpt lat="38.083860" lon="-0.945094">
        <ele>38.898</ele>
        <time>2021-05-05T09:03:28Z</time>
      </trkpt>
      <trkpt lat="38.083907" lon="-0.945060">
        <ele>38.751</ele>
        <time>2021-05-05T09:03:38Z</time>
      </trkpt>
      <trkpt lat="38.083956" lon="-0.945041">
        <ele>38.691</ele>
        <time>2021-05-05T09:03:42Z</time>
      </trkpt>
      <trkpt lat="38.084004" lon="-0.945022">
        <ele>38.693</ele>
        <time>2021-05-05T09:03:46Z</time>
      </trkpt>
      <trkpt lat="38.084056" lon="-0.945018">
        <ele>38.790</ele>
        <time>2021-05-05T09:03:51Z</time>
      </trkpt>
      <trkpt lat="38.084114" lon="-0.945000">
        <ele>38.785</ele>
        <time>2021-05-05T09:03:56Z</time>
      </trkpt>
      <trkpt lat="38.084162" lon="-0.944984">
        <ele>38.789</ele>
        <time>2021-05-05T09:03:59Z</time>
      </trkpt>
      <trkpt lat="38.084205" lon="-0.944964">
        <ele>38.706</ele>
        <time>2021-05-05T09:04:02Z</time>
      </trkpt>
      <trkpt lat="38.084245" lon="-0.944928">
        <ele>38.726</ele>
        <time>2021-05-05T09:04:08Z</time>
      </trkpt>
      <trkpt lat="38.084291" lon="-0.944893">
        <ele>38.708</ele>
        <time>2021-05-05T09:04:13Z</time>
      </trkpt>
      <trkpt lat="38.084337" lon="-0.944852">
        <ele>38.785</ele>
        <time>2021-05-05T09:04:17Z</time>
      </trkpt>
      <trkpt lat="38.084382" lon="-0.944821">
        <ele>38.810</ele>
        <time>2021-05-05T09:04:22Z</time>
      </trkpt>
      <trkpt lat="38.084424" lon="-0.944777">
        <ele>38.940</ele>
        <time>2021-05-05T09:04:26Z</time>
      </trkpt>
      <trkpt lat="38.084469" lon="-0.944775">
        <ele>39.073</ele>
        <time>2021-05-05T09:04:30Z</time>
      </trkpt>
      <trkpt lat="38.084524" lon="-0.944782">
        <ele>39.143</ele>
        <time>2021-05-05T09:04:35Z</time>
      </trkpt>
      <trkpt lat="38.084583" lon="-0.944787">
        <ele>39.155</ele>
        <time>2021-05-05T09:04:40Z</time>
      </trkpt>
      <trkpt lat="38.084626" lon="-0.944804">
        <ele>39.152</ele>
        <time>2021-05-05T09:04:44Z</time>
      </trkpt>
      <trkpt lat="38.084671" lon="-0.944822">
        <ele>39.147</ele>
        <time>2021-05-05T09:04:48Z</time>
      </trkpt>
      <trkpt lat="38.084733" lon="-0.944824">
        <ele>39.166</ele>
        <time>2021-05-05T09:04:51Z</time>
      </trkpt>
      <trkpt lat="38.084780" lon="-0.944817">
        <ele>39.329</ele>
        <time>2021-05-05T09:05:01Z</time>
      </trkpt>
      <trkpt lat="38.084823" lon="-0.944796">
        <ele>39.521</ele>
        <time>2021-05-05T09:05:08Z</time>
      </trkpt>
      <trkpt lat="38.084857" lon="-0.944755">
        <ele>39.708</ele>
        <time>2021-05-05T09:05:35Z</time>
      </trkpt>
      <trkpt lat="38.084861" lon="-0.944690">
        <ele>39.723</ele>
        <time>2021-05-05T09:05:42Z</time>
      </trkpt>
      <trkpt lat="38.084862" lon="-0.944626">
        <ele>39.728</ele>
        <time>2021-05-05T09:05:46Z</time>
      </trkpt>
      <trkpt lat="38.084866" lon="-0.944566">
        <ele>39.618</ele>
        <time>2021-05-05T09:05:53Z</time>
      </trkpt>
      <trkpt lat="38.084829" lon="-0.944509">
        <ele>39.711</ele>
        <time>2021-05-05T09:05:57Z</time>
      </trkpt>
      <trkpt lat="38.084787" lon="-0.944471">
        <ele>39.861</ele>
        <time>2021-05-05T09:06:03Z</time>
      </trkpt>
      <trkpt lat="38.084715" lon="-0.944412">
        <ele>39.823</ele>
        <time>2021-05-05T09:06:10Z</time>
      </trkpt>
      <trkpt lat="38.084665" lon="-0.944391">
        <ele>39.790</ele>
        <time>2021-05-05T09:06:13Z</time>
      </trkpt>
      <trkpt lat="38.084574" lon="-0.944425">
        <ele>39.615</ele>
        <time>2021-05-05T09:06:16Z</time>
      </trkpt>
      <trkpt lat="38.084531" lon="-0.944446">
        <ele>39.693</ele>
        <time>2021-05-05T09:06:18Z</time>
      </trkpt>
      <trkpt lat="38.084482" lon="-0.944461">
        <ele>39.665</ele>
        <time>2021-05-05T09:06:22Z</time>
      </trkpt>
      <trkpt lat="38.084429" lon="-0.944473">
        <ele>39.621</ele>
        <time>2021-05-05T09:06:25Z</time>
      </trkpt>
      <trkpt lat="38.084454" lon="-0.944409">
        <ele>39.608</ele>
        <time>2021-05-05T09:06:28Z</time>
      </trkpt>
      <trkpt lat="38.084480" lon="-0.944332">
        <ele>39.676</ele>
        <time>2021-05-05T09:06:32Z</time>
      </trkpt>
      <trkpt lat="38.084471" lon="-0.944267">
        <ele>39.631</ele>
        <time>2021-05-05T09:06:42Z</time>
      </trkpt>
      <trkpt lat="38.084452" lon="-0.944203">
        <ele>39.591</ele>
        <time>2021-05-05T09:06:48Z</time>
      </trkpt>
      <trkpt lat="38.084466" lon="-0.944098">
        <ele>39.514</ele>
        <time>2021-05-05T09:06:50Z</time>
      </trkpt>
      <trkpt lat="38.084486" lon="-0.944024">
        <ele>39.564</ele>
        <time>2021-05-05T09:06:51Z</time>
      </trkpt>
      <trkpt lat="38.084500" lon="-0.943953">
        <ele>39.516</ele>
        <time>2021-05-05T09:06:52Z</time>
      </trkpt>
      <trkpt lat="38.084524" lon="-0.943849">
        <ele>39.553</ele>
        <time>2021-05-05T09:06:53Z</time>
      </trkpt>
      <trkpt lat="38.084477" lon="-0.943652">
        <ele>39.418</ele>
        <time>2021-05-05T09:06:55Z</time>
      </trkpt>
      <trkpt lat="38.084443" lon="-0.943573">
        <ele>39.419</ele>
        <time>2021-05-05T09:06:56Z</time>
      </trkpt>
      <trkpt lat="38.084423" lon="-0.943517">
        <ele>39.409</ele>
        <time>2021-05-05T09:06:58Z</time>
      </trkpt>
      <trkpt lat="38.084406" lon="-0.943446">
        <ele>39.419</ele>
        <time>2021-05-05T09:07:00Z</time>
      </trkpt>
      <trkpt lat="38.084377" lon="-0.943367">
        <ele>39.408</ele>
        <time>2021-05-05T09:07:03Z</time>
      </trkpt>
      <trkpt lat="38.084313" lon="-0.943332">
        <ele>39.458</ele>
        <time>2021-05-05T09:07:04Z</time>
      </trkpt>
      <trkpt lat="38.084253" lon="-0.943287">
        <ele>39.453</ele>
        <time>2021-05-05T09:07:07Z</time>
      </trkpt>
      <trkpt lat="38.084219" lon="-0.943233">
        <ele>39.453</ele>
        <time>2021-05-05T09:07:08Z</time>
      </trkpt>
      <trkpt lat="38.084182" lon="-0.943186">
        <ele>39.466</ele>
        <time>2021-05-05T09:07:11Z</time>
      </trkpt>
      <trkpt lat="38.084159" lon="-0.943128">
        <ele>39.426</ele>
        <time>2021-05-05T09:07:14Z</time>
      </trkpt>
      <trkpt lat="38.084157" lon="-0.943065">
        <ele>39.498</ele>
        <time>2021-05-05T09:07:19Z</time>
      </trkpt>
      <trkpt lat="38.084149" lon="-0.943003">
        <ele>39.495</ele>
        <time>2021-05-05T09:07:23Z</time>
      </trkpt>
      <trkpt lat="38.084152" lon="-0.942938">
        <ele>39.280</ele>
        <time>2021-05-05T09:07:27Z</time>
      </trkpt>
      <trkpt lat="38.084169" lon="-0.942872">
        <ele>39.187</ele>
        <time>2021-05-05T09:07:32Z</time>
      </trkpt>
      <trkpt lat="38.084177" lon="-0.942810">
        <ele>38.942</ele>
        <time>2021-05-05T09:07:35Z</time>
      </trkpt>
      <trkpt lat="38.084194" lon="-0.942753">
        <ele>38.826</ele>
        <time>2021-05-05T09:07:40Z</time>
      </trkpt>
      <trkpt lat="38.084224" lon="-0.942684">
        <ele>38.808</ele>
        <time>2021-05-05T09:07:45Z</time>
      </trkpt>
      <trkpt lat="38.084254" lon="-0.942630">
        <ele>38.815</ele>
        <time>2021-05-05T09:07:49Z</time>
      </trkpt>
      <trkpt lat="38.084283" lon="-0.942583">
        <ele>38.840</ele>
        <time>2021-05-05T09:07:53Z</time>
      </trkpt>
      <trkpt lat="38.084303" lon="-0.942529">
        <ele>38.820</ele>
        <time>2021-05-05T09:07:57Z</time>
      </trkpt>
      <trkpt lat="38.084346" lon="-0.942507">
        <ele>38.833</ele>
        <time>2021-05-05T09:08:02Z</time>
      </trkpt>
      <trkpt lat="38.084391" lon="-0.942514">
        <ele>38.833</ele>
        <time>2021-05-05T09:08:11Z</time>
      </trkpt>
      <trkpt lat="38.084404" lon="-0.942459">
        <ele>38.845</ele>
        <time>2021-05-05T09:08:19Z</time>
      </trkpt>
      <trkpt lat="38.084393" lon="-0.942399">
        <ele>38.832</ele>
        <time>2021-05-05T09:08:33Z</time>
      </trkpt>
      <trkpt lat="38.084351" lon="-0.942375">
        <ele>38.857</ele>
        <time>2021-05-05T09:08:39Z</time>
      </trkpt>
      <trkpt lat="38.084304" lon="-0.942352">
        <ele>38.838</ele>
        <time>2021-05-05T09:08:42Z</time>
      </trkpt>
      <trkpt lat="38.084248" lon="-0.942321">
        <ele>38.870</ele>
        <time>2021-05-05T09:08:46Z</time>
      </trkpt>
      <trkpt lat="38.084206" lon="-0.942290">
        <ele>38.817</ele>
        <time>2021-05-05T09:08:49Z</time>
      </trkpt>
      <trkpt lat="38.084160" lon="-0.942237">
        <ele>38.808</ele>
        <time>2021-05-05T09:08:52Z</time>
      </trkpt>
      <trkpt lat="38.084118" lon="-0.942198">
        <ele>38.890</ele>
        <time>2021-05-05T09:08:58Z</time>
      </trkpt>
      <trkpt lat="38.084076" lon="-0.942168">
        <ele>38.855</ele>
        <time>2021-05-05T09:09:03Z</time>
      </trkpt>
      <trkpt lat="38.084048" lon="-0.942122">
        <ele>38.895</ele>
        <time>2021-05-05T09:09:12Z</time>
      </trkpt>
      <trkpt lat="38.084069" lon="-0.942071">
        <ele>38.848</ele>
        <time>2021-05-05T09:09:20Z</time>
      </trkpt>
      <trkpt lat="38.084125" lon="-0.942112">
        <ele>38.878</ele>
        <time>2021-05-05T09:09:25Z</time>
      </trkpt>
      <trkpt lat="38.084186" lon="-0.942095">
        <ele>38.860</ele>
        <time>2021-05-05T09:09:27Z</time>
      </trkpt>
      <trkpt lat="38.084241" lon="-0.942090">
        <ele>38.887</ele>
        <time>2021-05-05T09:09:28Z</time>
      </trkpt>
      <trkpt lat="38.084300" lon="-0.942048">
        <ele>38.822</ele>
        <time>2021-05-05T09:09:32Z</time>
      </trkpt>
      <trkpt lat="38.084350" lon="-0.941998">
        <ele>38.895</ele>
        <time>2021-05-05T09:09:34Z</time>
      </trkpt>
      <trkpt lat="38.084392" lon="-0.941950">
        <ele>38.849</ele>
        <time>2021-05-05T09:09:36Z</time>
      </trkpt>
      <trkpt lat="38.084429" lon="-0.941916">
        <ele>38.823</ele>
        <time>2021-05-05T09:09:39Z</time>
      </trkpt>
      <trkpt lat="38.084466" lon="-0.941871">
        <ele>38.808</ele>
        <time>2021-05-05T09:09:41Z</time>
      </trkpt>
      <trkpt lat="38.084497" lon="-0.941825">
        <ele>38.826</ele>
        <time>2021-05-05T09:09:44Z</time>
      </trkpt>
      <trkpt lat="38.084534" lon="-0.941763">
        <ele>38.851</ele>
        <time>2021-05-05T09:09:47Z</time>
      </trkpt>
      <trkpt lat="38.084568" lon="-0.941701">
        <ele>38.811</ele>
        <time>2021-05-05T09:09:51Z</time>
      </trkpt>
      <trkpt lat="38.084603" lon="-0.941653">
        <ele>38.864</ele>
        <time>2021-05-05T09:09:53Z</time>
      </trkpt>
      <trkpt lat="38.084628" lon="-0.941578">
        <ele>38.854</ele>
        <time>2021-05-05T09:09:56Z</time>
      </trkpt>
      <trkpt lat="38.084636" lon="-0.941517">
        <ele>38.856</ele>
        <time>2021-05-05T09:09:59Z</time>
      </trkpt>
      <trkpt lat="38.084639" lon="-0.941447">
        <ele>38.843</ele>
        <time>2021-05-05T09:10:02Z</time>
      </trkpt>
      <trkpt lat="38.084637" lon="-0.941381">
        <ele>38.848</ele>
        <time>2021-05-05T09:10:06Z</time>
      </trkpt>
      <trkpt lat="38.084641" lon="-0.941316">
        <ele>38.861</ele>
        <time>2021-05-05T09:10:09Z</time>
      </trkpt>
      <trkpt lat="38.084650" lon="-0.941242">
        <ele>38.821</ele>
        <time>2021-05-05T09:10:11Z</time>
      </trkpt>
      <trkpt lat="38.084653" lon="-0.941160">
        <ele>38.813</ele>
        <time>2021-05-05T09:10:14Z</time>
      </trkpt>
      <trkpt lat="38.084650" lon="-0.941075">
        <ele>38.808</ele>
        <time>2021-05-05T09:10:17Z</time>
      </trkpt>
      <trkpt lat="38.084648" lon="-0.940985">
        <ele>38.893</ele>
        <time>2021-05-05T09:10:20Z</time>
      </trkpt>
      <trkpt lat="38.084641" lon="-0.940892">
        <ele>38.898</ele>
        <time>2021-05-05T09:10:23Z</time>
      </trkpt>
      <trkpt lat="38.084639" lon="-0.940831">
        <ele>38.878</ele>
        <time>2021-05-05T09:10:25Z</time>
      </trkpt>
      <trkpt lat="38.084646" lon="-0.940769">
        <ele>38.881</ele>
        <time>2021-05-05T09:10:27Z</time>
      </trkpt>
      <trkpt lat="38.084653" lon="-0.940673">
        <ele>38.911</ele>
        <time>2021-05-05T09:10:30Z</time>
      </trkpt>
      <trkpt lat="38.084643" lon="-0.940574">
        <ele>39.163</ele>
        <time>2021-05-05T09:10:32Z</time>
      </trkpt>
      <trkpt lat="38.084644" lon="-0.940516">
        <ele>39.010</ele>
        <time>2021-05-05T09:10:34Z</time>
      </trkpt>
      <trkpt lat="38.084640" lon="-0.940452">
        <ele>38.785</ele>
        <time>2021-05-05T09:10:36Z</time>
      </trkpt>
      <trkpt lat="38.084612" lon="-0.940401">
        <ele>38.741</ele>
        <time>2021-05-05T09:10:39Z</time>
      </trkpt>
      <trkpt lat="38.084561" lon="-0.940380">
        <ele>37.881</ele>
        <time>2021-05-05T09:10:41Z</time>
      </trkpt>
      <trkpt lat="38.084515" lon="-0.940392">
        <ele>36.909</ele>
        <time>2021-05-05T09:10:45Z</time>
      </trkpt>
      <trkpt lat="38.084475" lon="-0.940330">
        <ele>36.308</ele>
        <time>2021-05-05T09:10:48Z</time>
      </trkpt>
      <trkpt lat="38.084450" lon="-0.940267">
        <ele>36.671</ele>
        <time>2021-05-05T09:10:50Z</time>
      </trkpt>
      <trkpt lat="38.084442" lon="-0.940206">
        <ele>36.026</ele>
        <time>2021-05-05T09:10:52Z</time>
      </trkpt>
      <trkpt lat="38.084423" lon="-0.940122">
        <ele>34.916</ele>
        <time>2021-05-05T09:10:55Z</time>
      </trkpt>
      <trkpt lat="38.084421" lon="-0.940046">
        <ele>34.039</ele>
        <time>2021-05-05T09:10:58Z</time>
      </trkpt>
      <trkpt lat="38.084455" lon="-0.939979">
        <ele>34.189</ele>
        <time>2021-05-05T09:11:02Z</time>
      </trkpt>
      <trkpt lat="38.084448" lon="-0.939905">
        <ele>34.131</ele>
        <time>2021-05-05T09:11:04Z</time>
      </trkpt>
      <trkpt lat="38.084451" lon="-0.939826">
        <ele>34.188</ele>
        <time>2021-05-05T09:11:06Z</time>
      </trkpt>
      <trkpt lat="38.084442" lon="-0.939764">
        <ele>34.613</ele>
        <time>2021-05-05T09:11:09Z</time>
      </trkpt>
      <trkpt lat="38.084435" lon="-0.939701">
        <ele>35.081</ele>
        <time>2021-05-05T09:11:10Z</time>
      </trkpt>
      <trkpt lat="38.084425" lon="-0.939610">
        <ele>35.561</ele>
        <time>2021-05-05T09:11:13Z</time>
      </trkpt>
      <trkpt lat="38.084418" lon="-0.939546">
        <ele>35.717</ele>
        <time>2021-05-05T09:11:14Z</time>
      </trkpt>
      <trkpt lat="38.084408" lon="-0.939480">
        <ele>36.308</ele>
        <time>2021-05-05T09:11:17Z</time>
      </trkpt>
      <trkpt lat="38.084385" lon="-0.939430">
        <ele>36.585</ele>
        <time>2021-05-05T09:11:21Z</time>
      </trkpt>
      <trkpt lat="38.084341" lon="-0.939469">
        <ele>36.790</ele>
        <time>2021-05-05T09:11:26Z</time>
      </trkpt>
      <trkpt lat="38.084292" lon="-0.939497">
        <ele>37.450</ele>
        <time>2021-05-05T09:11:30Z</time>
      </trkpt>
      <trkpt lat="38.084239" lon="-0.939507">
        <ele>37.833</ele>
        <time>2021-05-05T09:11:33Z</time>
      </trkpt>
      <trkpt lat="38.084194" lon="-0.939525">
        <ele>38.013</ele>
        <time>2021-05-05T09:11:35Z</time>
      </trkpt>
      <trkpt lat="38.084127" lon="-0.939524">
        <ele>38.225</ele>
        <time>2021-05-05T09:11:38Z</time>
      </trkpt>
      <trkpt lat="38.084079" lon="-0.939526">
        <ele>38.372</ele>
        <time>2021-05-05T09:11:40Z</time>
      </trkpt>
      <trkpt lat="38.084030" lon="-0.939533">
        <ele>38.417</ele>
        <time>2021-05-05T09:11:42Z</time>
      </trkpt>
      <trkpt lat="38.083969" lon="-0.939540">
        <ele>38.429</ele>
        <time>2021-05-05T09:11:45Z</time>
      </trkpt>
      <trkpt lat="38.083924" lon="-0.939548">
        <ele>38.400</ele>
        <time>2021-05-05T09:11:47Z</time>
      </trkpt>
      <trkpt lat="38.083868" lon="-0.939554">
        <ele>38.420</ele>
        <time>2021-05-05T09:11:49Z</time>
      </trkpt>
      <trkpt lat="38.083811" lon="-0.939556">
        <ele>38.408</ele>
        <time>2021-05-05T09:11:50Z</time>
      </trkpt>
      <trkpt lat="38.083763" lon="-0.939563">
        <ele>38.489</ele>
        <time>2021-05-05T09:11:52Z</time>
      </trkpt>
      <trkpt lat="38.083709" lon="-0.939567">
        <ele>38.494</ele>
        <time>2021-05-05T09:11:54Z</time>
      </trkpt>
      <trkpt lat="38.083649" lon="-0.939580">
        <ele>38.454</ele>
        <time>2021-05-05T09:11:56Z</time>
      </trkpt>
      <trkpt lat="38.083586" lon="-0.939584">
        <ele>38.457</ele>
        <time>2021-05-05T09:11:58Z</time>
      </trkpt>
      <trkpt lat="38.083529" lon="-0.939600">
        <ele>38.457</ele>
        <time>2021-05-05T09:12:00Z</time>
      </trkpt>
      <trkpt lat="38.083473" lon="-0.939616">
        <ele>38.449</ele>
        <time>2021-05-05T09:12:02Z</time>
      </trkpt>
      <trkpt lat="38.083420" lon="-0.939622">
        <ele>38.476</ele>
        <time>2021-05-05T09:12:04Z</time>
      </trkpt>
      <trkpt lat="38.083355" lon="-0.939640">
        <ele>38.441</ele>
        <time>2021-05-05T09:12:06Z</time>
      </trkpt>
      <trkpt lat="38.083290" lon="-0.939651">
        <ele>38.458</ele>
        <time>2021-05-05T09:12:09Z</time>
      </trkpt>
      <trkpt lat="38.083242" lon="-0.939644">
        <ele>38.452</ele>
        <time>2021-05-05T09:12:12Z</time>
      </trkpt>
      <trkpt lat="38.083161" lon="-0.939627">
        <ele>38.417</ele>
        <time>2021-05-05T09:12:15Z</time>
      </trkpt>
      <trkpt lat="38.083109" lon="-0.939582">
        <ele>38.408</ele>
        <time>2021-05-05T09:12:17Z</time>
      </trkpt>
      <trkpt lat="38.083078" lon="-0.939510">
        <ele>38.442</ele>
        <time>2021-05-05T09:12:19Z</time>
      </trkpt>
      <trkpt lat="38.083073" lon="-0.939434">
        <ele>38.467</ele>
        <time>2021-05-05T09:12:21Z</time>
      </trkpt>
      <trkpt lat="38.083073" lon="-0.939360">
        <ele>38.497</ele>
        <time>2021-05-05T09:12:22Z</time>
      </trkpt>
      <trkpt lat="38.083074" lon="-0.939297">
        <ele>38.410</ele>
        <time>2021-05-05T09:12:24Z</time>
      </trkpt>
      <trkpt lat="38.083062" lon="-0.939211">
        <ele>38.470</ele>
        <time>2021-05-05T09:12:25Z</time>
      </trkpt>
      <trkpt lat="38.083042" lon="-0.939156">
        <ele>38.482</ele>
        <time>2021-05-05T09:12:27Z</time>
      </trkpt>
      <trkpt lat="38.083024" lon="-0.939087">
        <ele>40.369</ele>
        <time>2021-05-05T09:12:29Z</time>
      </trkpt>
      <trkpt lat="38.082999" lon="-0.939013">
        <ele>41.264</ele>
        <time>2021-05-05T09:12:30Z</time>
      </trkpt>
      <trkpt lat="38.082970" lon="-0.938929">
        <ele>41.461</ele>
        <time>2021-05-05T09:12:33Z</time>
      </trkpt>
      <trkpt lat="38.082947" lon="-0.938867">
        <ele>40.721</ele>
        <time>2021-05-05T09:12:34Z</time>
      </trkpt>
      <trkpt lat="38.082934" lon="-0.938810">
        <ele>40.213</ele>
        <time>2021-05-05T09:12:36Z</time>
      </trkpt>
      <trkpt lat="38.082920" lon="-0.938754">
        <ele>40.108</ele>
        <time>2021-05-05T09:12:37Z</time>
      </trkpt>
      <trkpt lat="38.082905" lon="-0.938700">
        <ele>39.353</ele>
        <time>2021-05-05T09:12:39Z</time>
      </trkpt>
      <trkpt lat="38.082882" lon="-0.938620">
        <ele>38.548</ele>
        <time>2021-05-05T09:12:41Z</time>
      </trkpt>
      <trkpt lat="38.082862" lon="-0.938536">
        <ele>37.868</ele>
        <time>2021-05-05T09:12:43Z</time>
      </trkpt>
      <trkpt lat="38.082846" lon="-0.938480">
        <ele>37.781</ele>
        <time>2021-05-05T09:12:45Z</time>
      </trkpt>
      <trkpt lat="38.082814" lon="-0.938403">
        <ele>37.351</ele>
        <time>2021-05-05T09:12:48Z</time>
      </trkpt>
      <trkpt lat="38.082785" lon="-0.938336">
        <ele>37.453</ele>
        <time>2021-05-05T09:12:49Z</time>
      </trkpt>
      <trkpt lat="38.082757" lon="-0.938248">
        <ele>37.450</ele>
        <time>2021-05-05T09:12:52Z</time>
      </trkpt>
      <trkpt lat="38.082724" lon="-0.938178">
        <ele>37.685</ele>
        <time>2021-05-05T09:12:54Z</time>
      </trkpt>
      <trkpt lat="38.082693" lon="-0.938128">
        <ele>37.588</ele>
        <time>2021-05-05T09:12:56Z</time>
      </trkpt>
      <trkpt lat="38.082647" lon="-0.938077">
        <ele>37.524</ele>
        <time>2021-05-05T09:12:58Z</time>
      </trkpt>
      <trkpt lat="38.082594" lon="-0.938049">
        <ele>37.526</ele>
        <time>2021-05-05T09:13:00Z</time>
      </trkpt>
      <trkpt lat="38.082538" lon="-0.938028">
        <ele>37.608</ele>
        <time>2021-05-05T09:13:03Z</time>
      </trkpt>
      <trkpt lat="38.082485" lon="-0.938024">
        <ele>37.315</ele>
        <time>2021-05-05T09:13:04Z</time>
      </trkpt>
      <trkpt lat="38.082430" lon="-0.938020">
        <ele>37.570</ele>
        <time>2021-05-05T09:13:06Z</time>
      </trkpt>
      <trkpt lat="38.082369" lon="-0.938001">
        <ele>37.740</ele>
        <time>2021-05-05T09:13:09Z</time>
      </trkpt>
      <trkpt lat="38.082322" lon="-0.938009">
        <ele>38.873</ele>
        <time>2021-05-05T09:13:18Z</time>
      </trkpt>
      <trkpt lat="38.082279" lon="-0.938039">
        <ele>39.773</ele>
        <time>2021-05-05T09:13:33Z</time>
      </trkpt>
      <trkpt lat="38.082225" lon="-0.938021">
        <ele>39.245</ele>
        <time>2021-05-05T09:14:00Z</time>
      </trkpt>
      <trkpt lat="38.082196" lon="-0.937974">
        <ele>39.452</ele>
        <time>2021-05-05T09:14:15Z</time>
      </trkpt>
      <trkpt lat="38.082211" lon="-0.937893">
        <ele>39.597</ele>
        <time>2021-05-05T09:14:18Z</time>
      </trkpt>
      <trkpt lat="38.082251" lon="-0.937834">
        <ele>40.872</ele>
        <time>2021-05-05T09:15:25Z</time>
      </trkpt>
      <trkpt lat="38.082277" lon="-0.937786">
        <ele>41.513</ele>
        <time>2021-05-05T09:15:27Z</time>
      </trkpt>
      <trkpt lat="38.082312" lon="-0.937741">
        <ele>41.914</ele>
        <time>2021-05-05T09:15:29Z</time>
      </trkpt>
      <trkpt lat="38.082350" lon="-0.937707">
        <ele>42.208</ele>
        <time>2021-05-05T09:15:30Z</time>
      </trkpt>
      <trkpt lat="38.082383" lon="-0.937666">
        <ele>42.484</ele>
        <time>2021-05-05T09:15:31Z</time>
      </trkpt>
      <trkpt lat="38.082418" lon="-0.937627">
        <ele>42.579</ele>
        <time>2021-05-05T09:15:33Z</time>
      </trkpt>
      <trkpt lat="38.082466" lon="-0.937571">
        <ele>42.529</ele>
        <time>2021-05-05T09:15:34Z</time>
      </trkpt>
      <trkpt lat="38.082519" lon="-0.937514">
        <ele>42.582</ele>
        <time>2021-05-05T09:15:36Z</time>
      </trkpt>
      <trkpt lat="38.082560" lon="-0.937467">
        <ele>42.592</ele>
        <time>2021-05-05T09:15:38Z</time>
      </trkpt>
      <trkpt lat="38.082612" lon="-0.937400">
        <ele>42.594</ele>
        <time>2021-05-05T09:15:39Z</time>
      </trkpt>
      <trkpt lat="38.082674" lon="-0.937318">
        <ele>42.541</ele>
        <time>2021-05-05T09:15:42Z</time>
      </trkpt>
      <trkpt lat="38.082729" lon="-0.937243">
        <ele>42.596</ele>
        <time>2021-05-05T09:15:43Z</time>
      </trkpt>
      <trkpt lat="38.082760" lon="-0.937191">
        <ele>42.594</ele>
        <time>2021-05-05T09:15:45Z</time>
      </trkpt>
      <trkpt lat="38.082801" lon="-0.937137">
        <ele>42.557</ele>
        <time>2021-05-05T09:15:46Z</time>
      </trkpt>
      <trkpt lat="38.082849" lon="-0.937067">
        <ele>42.522</ele>
        <time>2021-05-05T09:15:48Z</time>
      </trkpt>
      <trkpt lat="38.082883" lon="-0.937017">
        <ele>42.508</ele>
        <time>2021-05-05T09:15:49Z</time>
      </trkpt>
      <trkpt lat="38.082931" lon="-0.936950">
        <ele>42.596</ele>
        <time>2021-05-05T09:15:51Z</time>
      </trkpt>
      <trkpt lat="38.082979" lon="-0.936885">
        <ele>42.581</ele>
        <time>2021-05-05T09:15:53Z</time>
      </trkpt>
      <trkpt lat="38.083016" lon="-0.936828">
        <ele>42.581</ele>
        <time>2021-05-05T09:15:55Z</time>
      </trkpt>
      <trkpt lat="38.083061" lon="-0.936761">
        <ele>42.584</ele>
        <time>2021-05-05T09:15:57Z</time>
      </trkpt>
      <trkpt lat="38.083108" lon="-0.936688">
        <ele>42.544</ele>
        <time>2021-05-05T09:15:59Z</time>
      </trkpt>
      <trkpt lat="38.083155" lon="-0.936623">
        <ele>42.536</ele>
        <time>2021-05-05T09:16:01Z</time>
      </trkpt>
      <trkpt lat="38.083196" lon="-0.936562">
        <ele>42.543</ele>
        <time>2021-05-05T09:16:03Z</time>
      </trkpt>
      <trkpt lat="38.083243" lon="-0.936499">
        <ele>42.588</ele>
        <time>2021-05-05T09:16:06Z</time>
      </trkpt>
      <trkpt lat="38.083276" lon="-0.936454">
        <ele>42.583</ele>
        <time>2021-05-05T09:16:09Z</time>
      </trkpt>
      <trkpt lat="38.083301" lon="-0.936517">
        <ele>41.325</ele>
        <time>2021-05-05T09:16:52Z</time>
      </trkpt>
      <trkpt lat="38.083294" lon="-0.936599">
        <ele>40.517</ele>
        <time>2021-05-05T09:16:54Z</time>
      </trkpt>
      <trkpt lat="38.083249" lon="-0.936659">
        <ele>40.008</ele>
        <time>2021-05-05T09:16:56Z</time>
      </trkpt>
      <trkpt lat="38.083277" lon="-0.936716">
        <ele>39.865</ele>
        <time>2021-05-05T09:16:57Z</time>
      </trkpt>
      <trkpt lat="38.083223" lon="-0.936763">
        <ele>39.710</ele>
        <time>2021-05-05T09:16:58Z</time>
      </trkpt>
      <trkpt lat="38.083141" lon="-0.936831">
        <ele>39.630</ele>
        <time>2021-05-05T09:17:00Z</time>
      </trkpt>
      <trkpt lat="38.083095" lon="-0.936882">
        <ele>39.583</ele>
        <time>2021-05-05T09:17:01Z</time>
      </trkpt>
      <trkpt lat="38.083053" lon="-0.936935">
        <ele>39.543</ele>
        <time>2021-05-05T09:17:03Z</time>
      </trkpt>
      <trkpt lat="38.083014" lon="-0.936988">
        <ele>39.565</ele>
        <time>2021-05-05T09:17:04Z</time>
      </trkpt>
      <trkpt lat="38.082979" lon="-0.937034">
        <ele>39.582</ele>
        <time>2021-05-05T09:17:05Z</time>
      </trkpt>
      <trkpt lat="38.082916" lon="-0.937132">
        <ele>39.547</ele>
        <time>2021-05-05T09:17:08Z</time>
      </trkpt>
      <trkpt lat="38.082866" lon="-0.937213">
        <ele>39.584</ele>
        <time>2021-05-05T09:17:10Z</time>
      </trkpt>
      <trkpt lat="38.082840" lon="-0.937273">
        <ele>39.507</ele>
        <time>2021-05-05T09:17:11Z</time>
      </trkpt>
      <trkpt lat="38.082800" lon="-0.937328">
        <ele>39.517</ele>
        <time>2021-05-05T09:17:12Z</time>
      </trkpt>
      <trkpt lat="38.082754" lon="-0.937397">
        <ele>39.508</ele>
        <time>2021-05-05T09:17:14Z</time>
      </trkpt>
      <trkpt lat="38.082711" lon="-0.937447">
        <ele>39.585</ele>
        <time>2021-05-05T09:17:15Z</time>
      </trkpt>
      <trkpt lat="38.082657" lon="-0.937511">
        <ele>39.520</ele>
        <time>2021-05-05T09:17:17Z</time>
      </trkpt>
      <trkpt lat="38.082608" lon="-0.937575">
        <ele>39.510</ele>
        <time>2021-05-05T09:17:19Z</time>
      </trkpt>
      <trkpt lat="38.082535" lon="-0.937662">
        <ele>39.513</ele>
        <time>2021-05-05T09:17:22Z</time>
      </trkpt>
      <trkpt lat="38.082488" lon="-0.937720">
        <ele>39.563</ele>
        <time>2021-05-05T09:17:23Z</time>
      </trkpt>
      <trkpt lat="38.082450" lon="-0.937757">
        <ele>39.585</ele>
        <time>2021-05-05T09:17:24Z</time>
      </trkpt>
      <trkpt lat="38.082386" lon="-0.937837">
        <ele>39.512</ele>
        <time>2021-05-05T09:17:26Z</time>
      </trkpt>
      <trkpt lat="38.082355" lon="-0.937878">
        <ele>39.527</ele>
        <time>2021-05-05T09:17:27Z</time>
      </trkpt>
      <trkpt lat="38.082291" lon="-0.937967">
        <ele>39.561</ele>
        <time>2021-05-05T09:17:29Z</time>
      </trkpt>
      <trkpt lat="38.082235" lon="-0.938041">
        <ele>39.521</ele>
        <time>2021-05-05T09:17:32Z</time>
      </trkpt>
      <trkpt lat="38.082192" lon="-0.938086">
        <ele>39.513</ele>
        <time>2021-05-05T09:17:33Z</time>
      </trkpt>
      <trkpt lat="38.082154" lon="-0.938125">
        <ele>39.508</ele>
        <time>2021-05-05T09:17:35Z</time>
      </trkpt>
      <trkpt lat="38.082099" lon="-0.938199">
        <ele>39.553</ele>
        <time>2021-05-05T09:17:37Z</time>
      </trkpt>
      <trkpt lat="38.082054" lon="-0.938261">
        <ele>39.518</ele>
        <time>2021-05-05T09:17:39Z</time>
      </trkpt>
      <trkpt lat="38.082015" lon="-0.938314">
        <ele>39.598</ele>
        <time>2021-05-05T09:17:40Z</time>
      </trkpt>
      <trkpt lat="38.081964" lon="-0.938391">
        <ele>39.521</ele>
        <time>2021-05-05T09:17:42Z</time>
      </trkpt>
      <trkpt lat="38.081923" lon="-0.938452">
        <ele>39.551</ele>
        <time>2021-05-05T09:17:44Z</time>
      </trkpt>
      <trkpt lat="38.081885" lon="-0.938516">
        <ele>39.533</ele>
        <time>2021-05-05T09:17:45Z</time>
      </trkpt>
      <trkpt lat="38.081851" lon="-0.938566">
        <ele>39.580</ele>
        <time>2021-05-05T09:17:48Z</time>
      </trkpt>
      <trkpt lat="38.081891" lon="-0.938612">
        <ele>39.545</ele>
        <time>2021-05-05T09:17:55Z</time>
      </trkpt>
      <trkpt lat="38.081941" lon="-0.938645">
        <ele>37.833</ele>
        <time>2021-05-05T09:17:58Z</time>
      </trkpt>
      <trkpt lat="38.081985" lon="-0.938674">
        <ele>36.923</ele>
        <time>2021-05-05T09:18:01Z</time>
      </trkpt>
      <trkpt lat="38.082027" lon="-0.938707">
        <ele>35.615</ele>
        <time>2021-05-05T09:18:03Z</time>
      </trkpt>
      <trkpt lat="38.082061" lon="-0.938747">
        <ele>35.708</ele>
        <time>2021-05-05T09:18:05Z</time>
      </trkpt>
      <trkpt lat="38.082072" lon="-0.938818">
        <ele>35.970</ele>
        <time>2021-05-05T09:18:07Z</time>
      </trkpt>
      <trkpt lat="38.082092" lon="-0.938880">
        <ele>36.265</ele>
        <time>2021-05-05T09:18:10Z</time>
      </trkpt>
      <trkpt lat="38.082125" lon="-0.938935">
        <ele>36.425</ele>
        <time>2021-05-05T09:18:14Z</time>
      </trkpt>
      <trkpt lat="38.082172" lon="-0.938978">
        <ele>36.928</ele>
        <time>2021-05-05T09:18:17Z</time>
      </trkpt>
      <trkpt lat="38.082216" lon="-0.939062">
        <ele>37.848</ele>
        <time>2021-05-05T09:18:19Z</time>
      </trkpt>
      <trkpt lat="38.082226" lon="-0.939127">
        <ele>38.350</ele>
        <time>2021-05-05T09:18:21Z</time>
      </trkpt>
      <trkpt lat="38.082247" lon="-0.939178">
        <ele>38.467</ele>
        <time>2021-05-05T09:18:24Z</time>
      </trkpt>
      <trkpt lat="38.082236" lon="-0.939113">
        <ele>38.612</ele>
        <time>2021-05-05T09:18:27Z</time>
      </trkpt>
      <trkpt lat="38.082222" lon="-0.939045">
        <ele>38.799</ele>
        <time>2021-05-05T09:18:30Z</time>
      </trkpt>
      <trkpt lat="38.082212" lon="-0.938984">
        <ele>39.007</ele>
        <time>2021-05-05T09:18:33Z</time>
      </trkpt>
      <trkpt lat="38.082201" lon="-0.938924">
        <ele>39.527</ele>
        <time>2021-05-05T09:18:35Z</time>
      </trkpt>
      <trkpt lat="38.082196" lon="-0.938865">
        <ele>39.808</ele>
        <time>2021-05-05T09:18:37Z</time>
      </trkpt>
      <trkpt lat="38.082193" lon="-0.938808">
        <ele>40.986</ele>
        <time>2021-05-05T09:18:39Z</time>
      </trkpt>
      <trkpt lat="38.082180" lon="-0.938744">
        <ele>42.531</ele>
        <time>2021-05-05T09:18:41Z</time>
      </trkpt>
      <trkpt lat="38.082169" lon="-0.938659">
        <ele>43.921</ele>
        <time>2021-05-05T09:18:44Z</time>
      </trkpt>
      <trkpt lat="38.082157" lon="-0.938578">
        <ele>44.624</ele>
        <time>2021-05-05T09:18:47Z</time>
      </trkpt>
      <trkpt lat="38.082144" lon="-0.938517">
        <ele>45.594</ele>
        <time>2021-05-05T09:18:49Z</time>
      </trkpt>
      <trkpt lat="38.082126" lon="-0.938437">
        <ele>46.356</ele>
        <time>2021-05-05T09:18:52Z</time>
      </trkpt>
      <trkpt lat="38.082114" lon="-0.938362">
        <ele>47.343</ele>
        <time>2021-05-05T09:18:55Z</time>
      </trkpt>
      <trkpt lat="38.082107" lon="-0.938283">
        <ele>47.948</ele>
        <time>2021-05-05T09:18:58Z</time>
      </trkpt>
      <trkpt lat="38.082086" lon="-0.938232">
        <ele>47.929</ele>
        <time>2021-05-05T09:19:01Z</time>
      </trkpt>
      <trkpt lat="38.082055" lon="-0.938169">
        <ele>47.700</ele>
        <time>2021-05-05T09:19:04Z</time>
      </trkpt>
      <trkpt lat="38.082016" lon="-0.938092">
        <ele>47.320</ele>
        <time>2021-05-05T09:19:07Z</time>
      </trkpt>
      <trkpt lat="38.081988" lon="-0.938046">
        <ele>47.208</ele>
        <time>2021-05-05T09:19:08Z</time>
      </trkpt>
      <trkpt lat="38.081950" lon="-0.937993">
        <ele>47.029</ele>
        <time>2021-05-05T09:19:11Z</time>
      </trkpt>
      <trkpt lat="38.081913" lon="-0.937943">
        <ele>46.394</ele>
        <time>2021-05-05T09:19:14Z</time>
      </trkpt>
      <trkpt lat="38.081885" lon="-0.937896">
        <ele>45.874</ele>
        <time>2021-05-05T09:19:15Z</time>
      </trkpt>
      <trkpt lat="38.081842" lon="-0.937823">
        <ele>45.257</ele>
        <time>2021-05-05T09:19:18Z</time>
      </trkpt>
      <trkpt lat="38.081814" lon="-0.937771">
        <ele>45.197</ele>
        <time>2021-05-05T09:19:19Z</time>
      </trkpt>
      <trkpt lat="38.081781" lon="-0.937712">
        <ele>44.789</ele>
        <time>2021-05-05T09:19:20Z</time>
      </trkpt>
      <trkpt lat="38.081753" lon="-0.937663">
        <ele>44.286</ele>
        <time>2021-05-05T09:19:22Z</time>
      </trkpt>
      <trkpt lat="38.081710" lon="-0.937588">
        <ele>42.941</ele>
        <time>2021-05-05T09:19:24Z</time>
      </trkpt>
      <trkpt lat="38.081666" lon="-0.937515">
        <ele>42.532</ele>
        <time>2021-05-05T09:19:26Z</time>
      </trkpt>
      <trkpt lat="38.081640" lon="-0.937465">
        <ele>42.292</ele>
        <time>2021-05-05T09:19:27Z</time>
      </trkpt>
      <trkpt lat="38.081613" lon="-0.937417">
        <ele>41.311</ele>
        <time>2021-05-05T09:19:28Z</time>
      </trkpt>
      <trkpt lat="38.081583" lon="-0.937366">
        <ele>40.808</ele>
        <time>2021-05-05T09:19:30Z</time>
      </trkpt>
      <trkpt lat="38.081555" lon="-0.937320">
        <ele>40.030</ele>
        <time>2021-05-05T09:19:31Z</time>
      </trkpt>
      <trkpt lat="38.081525" lon="-0.937277">
        <ele>39.875</ele>
        <time>2021-05-05T09:19:32Z</time>
      </trkpt>
      <trkpt lat="38.081478" lon="-0.937214">
        <ele>39.885</ele>
        <time>2021-05-05T09:19:34Z</time>
      </trkpt>
      <trkpt lat="38.081434" lon="-0.937135">
        <ele>40.358</ele>
        <time>2021-05-05T09:19:37Z</time>
      </trkpt>
      <trkpt lat="38.081413" lon="-0.937078">
        <ele>40.548</ele>
        <time>2021-05-05T09:19:38Z</time>
      </trkpt>
      <trkpt lat="38.081381" lon="-0.936992">
        <ele>40.930</ele>
        <time>2021-05-05T09:19:41Z</time>
      </trkpt>
      <trkpt lat="38.081392" lon="-0.936934">
        <ele>40.757</ele>
        <time>2021-05-05T09:19:47Z</time>
      </trkpt>
      <trkpt lat="38.081443" lon="-0.936968">
        <ele>40.542</ele>
        <time>2021-05-05T09:19:51Z</time>
      </trkpt>
      <trkpt lat="38.081462" lon="-0.937049">
        <ele>40.433</ele>
        <time>2021-05-05T09:19:55Z</time>
      </trkpt>
      <trkpt lat="38.081479" lon="-0.937129">
        <ele>40.323</ele>
        <time>2021-05-05T09:19:58Z</time>
      </trkpt>
      <trkpt lat="38.081506" lon="-0.937181">
        <ele>40.215</ele>
        <time>2021-05-05T09:20:00Z</time>
      </trkpt>
      <trkpt lat="38.081539" lon="-0.937242">
        <ele>40.208</ele>
        <time>2021-05-05T09:20:02Z</time>
      </trkpt>
      <trkpt lat="38.081569" lon="-0.937289">
        <ele>40.210</ele>
        <time>2021-05-05T09:20:03Z</time>
      </trkpt>
      <trkpt lat="38.081600" lon="-0.937336">
        <ele>40.225</ele>
        <time>2021-05-05T09:20:05Z</time>
      </trkpt>
      <trkpt lat="38.081634" lon="-0.937381">
        <ele>40.215</ele>
        <time>2021-05-05T09:20:07Z</time>
      </trkpt>
      <trkpt lat="38.081683" lon="-0.937427">
        <ele>40.248</ele>
        <time>2021-05-05T09:20:10Z</time>
      </trkpt>
      <trkpt lat="38.081739" lon="-0.937431">
        <ele>40.248</ele>
        <time>2021-05-05T09:20:12Z</time>
      </trkpt>
      <trkpt lat="38.081795" lon="-0.937430">
        <ele>40.260</ele>
        <time>2021-05-05T09:20:14Z</time>
      </trkpt>
      <trkpt lat="38.081847" lon="-0.937429">
        <ele>40.297</ele>
        <time>2021-05-05T09:20:15Z</time>
      </trkpt>
      <trkpt lat="38.081911" lon="-0.937412">
        <ele>40.242</ele>
        <time>2021-05-05T09:20:18Z</time>
      </trkpt>
      <trkpt lat="38.081973" lon="-0.937401">
        <ele>40.252</ele>
        <time>2021-05-05T09:20:20Z</time>
      </trkpt>
      <trkpt lat="38.082021" lon="-0.937384">
        <ele>40.253</ele>
        <time>2021-05-05T09:20:22Z</time>
      </trkpt>
      <trkpt lat="38.082081" lon="-0.937371">
        <ele>40.208</ele>
        <time>2021-05-05T09:20:23Z</time>
      </trkpt>
      <trkpt lat="38.082134" lon="-0.937370">
        <ele>40.208</ele>
        <time>2021-05-05T09:20:26Z</time>
      </trkpt>
      <trkpt lat="38.082193" lon="-0.937355">
        <ele>40.242</ele>
        <time>2021-05-05T09:20:29Z</time>
      </trkpt>
      <trkpt lat="38.082225" lon="-0.937295">
        <ele>40.267</ele>
        <time>2021-05-05T09:20:31Z</time>
      </trkpt>
      <trkpt lat="38.082220" lon="-0.937215">
        <ele>40.257</ele>
        <time>2021-05-05T09:20:34Z</time>
      </trkpt>
      <trkpt lat="38.082204" lon="-0.937137">
        <ele>40.240</ele>
        <time>2021-05-05T09:20:36Z</time>
      </trkpt>
      <trkpt lat="38.082185" lon="-0.937084">
        <ele>40.240</ele>
        <time>2021-05-05T09:20:38Z</time>
      </trkpt>
      <trkpt lat="38.082169" lon="-0.937020">
        <ele>40.232</ele>
        <time>2021-05-05T09:20:40Z</time>
      </trkpt>
      <trkpt lat="38.082143" lon="-0.936954">
        <ele>40.269</ele>
        <time>2021-05-05T09:20:42Z</time>
      </trkpt>
      <trkpt lat="38.082129" lon="-0.936888">
        <ele>40.234</ele>
        <time>2021-05-05T09:20:44Z</time>
      </trkpt>
      <trkpt lat="38.082112" lon="-0.936811">
        <ele>40.285</ele>
        <time>2021-05-05T09:20:46Z</time>
      </trkpt>
      <trkpt lat="38.082095" lon="-0.936732">
        <ele>40.189</ele>
        <time>2021-05-05T09:20:48Z</time>
      </trkpt>
      <trkpt lat="38.082079" lon="-0.936653">
        <ele>39.917</ele>
        <time>2021-05-05T09:20:50Z</time>
      </trkpt>
      <trkpt lat="38.082059" lon="-0.936586">
        <ele>39.808</ele>
        <time>2021-05-05T09:20:51Z</time>
      </trkpt>
      <trkpt lat="38.082026" lon="-0.936510">
        <ele>39.735</ele>
        <time>2021-05-05T09:20:54Z</time>
      </trkpt>
      <trkpt lat="38.082000" lon="-0.936447">
        <ele>39.650</ele>
        <time>2021-05-05T09:20:56Z</time>
      </trkpt>
      <trkpt lat="38.081982" lon="-0.936355">
        <ele>39.560</ele>
        <time>2021-05-05T09:20:58Z</time>
      </trkpt>
      <trkpt lat="38.081969" lon="-0.936270">
        <ele>39.453</ele>
        <time>2021-05-05T09:21:01Z</time>
      </trkpt>
      <trkpt lat="38.081957" lon="-0.936204">
        <ele>39.063</ele>
        <time>2021-05-05T09:21:03Z</time>
      </trkpt>
      <trkpt lat="38.081940" lon="-0.936120">
        <ele>38.815</ele>
        <time>2021-05-05T09:21:05Z</time>
      </trkpt>
      <trkpt lat="38.081924" lon="-0.936049">
        <ele>38.612</ele>
        <time>2021-05-05T09:21:06Z</time>
      </trkpt>
      <trkpt lat="38.081911" lon="-0.935993">
        <ele>38.527</ele>
        <time>2021-05-05T09:21:08Z</time>
      </trkpt>
      <trkpt lat="38.081892" lon="-0.935905">
        <ele>38.457</ele>
        <time>2021-05-05T09:21:10Z</time>
      </trkpt>
      <trkpt lat="38.081876" lon="-0.935846">
        <ele>38.200</ele>
        <time>2021-05-05T09:21:11Z</time>
      </trkpt>
      <trkpt lat="38.081857" lon="-0.935788">
        <ele>38.220</ele>
        <time>2021-05-05T09:21:12Z</time>
      </trkpt>
      <trkpt lat="38.081836" lon="-0.935714">
        <ele>38.308</ele>
        <time>2021-05-05T09:21:14Z</time>
      </trkpt>
      <trkpt lat="38.081820" lon="-0.935653">
        <ele>38.042</ele>
        <time>2021-05-05T09:21:15Z</time>
      </trkpt>
      <trkpt lat="38.081794" lon="-0.935573">
        <ele>38.287</ele>
        <time>2021-05-05T09:21:17Z</time>
      </trkpt>
      <trkpt lat="38.081778" lon="-0.935500">
        <ele>38.317</ele>
        <time>2021-05-05T09:21:19Z</time>
      </trkpt>
      <trkpt lat="38.081753" lon="-0.935428">
        <ele>38.540</ele>
        <time>2021-05-05T09:21:20Z</time>
      </trkpt>
      <trkpt lat="38.081739" lon="-0.935367">
        <ele>38.370</ele>
        <time>2021-05-05T09:21:22Z</time>
      </trkpt>
      <trkpt lat="38.081715" lon="-0.935300">
        <ele>38.422</ele>
        <time>2021-05-05T09:21:23Z</time>
      </trkpt>
      <trkpt lat="38.081699" lon="-0.935246">
        <ele>38.599</ele>
        <time>2021-05-05T09:21:24Z</time>
      </trkpt>
      <trkpt lat="38.081681" lon="-0.935173">
        <ele>38.584</ele>
        <time>2021-05-05T09:21:26Z</time>
      </trkpt>
      <trkpt lat="38.081654" lon="-0.935092">
        <ele>38.523</ele>
        <time>2021-05-05T09:21:28Z</time>
      </trkpt>
      <trkpt lat="38.081623" lon="-0.935002">
        <ele>38.983</ele>
        <time>2021-05-05T09:21:30Z</time>
      </trkpt>
      <trkpt lat="38.081595" lon="-0.934920">
        <ele>38.811</ele>
        <time>2021-05-05T09:21:32Z</time>
      </trkpt>
      <trkpt lat="38.081573" lon="-0.934834">
        <ele>38.808</ele>
        <time>2021-05-05T09:21:35Z</time>
      </trkpt>
      <trkpt lat="38.081551" lon="-0.934767">
        <ele>38.639</ele>
        <time>2021-05-05T09:21:36Z</time>
      </trkpt>
      <trkpt lat="38.081529" lon="-0.934685">
        <ele>39.044</ele>
        <time>2021-05-05T09:21:38Z</time>
      </trkpt>
      <trkpt lat="38.081510" lon="-0.934619">
        <ele>38.854</ele>
        <time>2021-05-05T09:21:40Z</time>
      </trkpt>
      <trkpt lat="38.081480" lon="-0.934531">
        <ele>38.717</ele>
        <time>2021-05-05T09:21:42Z</time>
      </trkpt>
      <trkpt lat="38.081465" lon="-0.934459">
        <ele>38.737</ele>
        <time>2021-05-05T09:21:44Z</time>
      </trkpt>
      <trkpt lat="38.081466" lon="-0.934398">
        <ele>38.749</ele>
        <time>2021-05-05T09:21:46Z</time>
      </trkpt>
      <trkpt lat="38.081468" lon="-0.934312">
        <ele>38.526</ele>
        <time>2021-05-05T09:21:48Z</time>
      </trkpt>
      <trkpt lat="38.081470" lon="-0.934221">
        <ele>38.491</ele>
        <time>2021-05-05T09:21:50Z</time>
      </trkpt>
      <trkpt lat="38.081472" lon="-0.934152">
        <ele>38.481</ele>
        <time>2021-05-05T09:21:51Z</time>
      </trkpt>
      <trkpt lat="38.081472" lon="-0.934094">
        <ele>38.461</ele>
        <time>2021-05-05T09:21:52Z</time>
      </trkpt>
      <trkpt lat="38.081464" lon="-0.933999">
        <ele>38.517</ele>
        <time>2021-05-05T09:21:54Z</time>
      </trkpt>
      <trkpt lat="38.081457" lon="-0.933896">
        <ele>38.608</ele>
        <time>2021-05-05T09:21:56Z</time>
      </trkpt>
      <trkpt lat="38.081454" lon="-0.933804">
        <ele>38.885</ele>
        <time>2021-05-05T09:21:58Z</time>
      </trkpt>
      <trkpt lat="38.081449" lon="-0.933731">
        <ele>38.780</ele>
        <time>2021-05-05T09:21:59Z</time>
      </trkpt>
      <trkpt lat="38.081442" lon="-0.933626">
        <ele>38.810</ele>
        <time>2021-05-05T09:22:01Z</time>
      </trkpt>
      <trkpt lat="38.081434" lon="-0.933537">
        <ele>38.783</ele>
        <time>2021-05-05T09:22:03Z</time>
      </trkpt>
      <trkpt lat="38.081421" lon="-0.933448">
        <ele>38.823</ele>
        <time>2021-05-05T09:22:05Z</time>
      </trkpt>
      <trkpt lat="38.081407" lon="-0.933375">
        <ele>39.185</ele>
        <time>2021-05-05T09:22:06Z</time>
      </trkpt>
      <trkpt lat="38.081392" lon="-0.933291">
        <ele>38.892</ele>
        <time>2021-05-05T09:22:08Z</time>
      </trkpt>
      <trkpt lat="38.081381" lon="-0.933195">
        <ele>39.167</ele>
        <time>2021-05-05T09:22:10Z</time>
      </trkpt>
      <trkpt lat="38.081368" lon="-0.933096">
        <ele>39.179</ele>
        <time>2021-05-05T09:22:12Z</time>
      </trkpt>
      <trkpt lat="38.081357" lon="-0.933008">
        <ele>39.005</ele>
        <time>2021-05-05T09:22:13Z</time>
      </trkpt>
      <trkpt lat="38.081351" lon="-0.932906">
        <ele>38.725</ele>
        <time>2021-05-05T09:22:15Z</time>
      </trkpt>
      <trkpt lat="38.081349" lon="-0.932810">
        <ele>38.708</ele>
        <time>2021-05-05T09:22:17Z</time>
      </trkpt>
      <trkpt lat="38.081346" lon="-0.932737">
        <ele>38.844</ele>
        <time>2021-05-05T09:22:18Z</time>
      </trkpt>
      <trkpt lat="38.081341" lon="-0.932674">
        <ele>38.989</ele>
        <time>2021-05-05T09:22:19Z</time>
      </trkpt>
      <trkpt lat="38.081333" lon="-0.932572">
        <ele>39.049</ele>
        <time>2021-05-05T09:22:21Z</time>
      </trkpt>
      <trkpt lat="38.081325" lon="-0.932490">
        <ele>38.672</ele>
        <time>2021-05-05T09:22:23Z</time>
      </trkpt>
      <trkpt lat="38.081316" lon="-0.932393">
        <ele>38.412</ele>
        <time>2021-05-05T09:22:24Z</time>
      </trkpt>
      <trkpt lat="38.081304" lon="-0.932283">
        <ele>38.694</ele>
        <time>2021-05-05T09:22:26Z</time>
      </trkpt>
      <trkpt lat="38.081297" lon="-0.932223">
        <ele>38.941</ele>
        <time>2021-05-05T09:22:28Z</time>
      </trkpt>
      <trkpt lat="38.081287" lon="-0.932140">
        <ele>39.166</ele>
        <time>2021-05-05T09:22:29Z</time>
      </trkpt>
      <trkpt lat="38.081281" lon="-0.932074">
        <ele>39.473</ele>
        <time>2021-05-05T09:22:30Z</time>
      </trkpt>
      <trkpt lat="38.081272" lon="-0.931969">
        <ele>39.485</ele>
        <time>2021-05-05T09:22:32Z</time>
      </trkpt>
      <trkpt lat="38.081265" lon="-0.931909">
        <ele>39.613</ele>
        <time>2021-05-05T09:22:34Z</time>
      </trkpt>
      <trkpt lat="38.081261" lon="-0.931843">
        <ele>39.408</ele>
        <time>2021-05-05T09:22:35Z</time>
      </trkpt>
      <trkpt lat="38.081258" lon="-0.931763">
        <ele>39.394</ele>
        <time>2021-05-05T09:22:36Z</time>
      </trkpt>
      <trkpt lat="38.081259" lon="-0.931701">
        <ele>39.599</ele>
        <time>2021-05-05T09:22:38Z</time>
      </trkpt>
      <trkpt lat="38.081262" lon="-0.931626">
        <ele>39.669</ele>
        <time>2021-05-05T09:22:39Z</time>
      </trkpt>
      <trkpt lat="38.081279" lon="-0.931518">
        <ele>39.882</ele>
        <time>2021-05-05T09:22:41Z</time>
      </trkpt>
      <trkpt lat="38.081288" lon="-0.931436">
        <ele>39.812</ele>
        <time>2021-05-05T09:22:43Z</time>
      </trkpt>
      <trkpt lat="38.081288" lon="-0.931372">
        <ele>39.474</ele>
        <time>2021-05-05T09:22:45Z</time>
      </trkpt>
      <trkpt lat="38.081337" lon="-0.931381">
        <ele>38.791</ele>
        <time>2021-05-05T09:22:51Z</time>
      </trkpt>
      <trkpt lat="38.081382" lon="-0.931410">
        <ele>38.326</ele>
        <time>2021-05-05T09:22:55Z</time>
      </trkpt>
      <trkpt lat="38.081392" lon="-0.931473">
        <ele>38.156</ele>
        <time>2021-05-05T09:22:56Z</time>
      </trkpt>
      <trkpt lat="38.081384" lon="-0.931551">
        <ele>38.059</ele>
        <time>2021-05-05T09:22:57Z</time>
      </trkpt>
      <trkpt lat="38.081365" lon="-0.931670">
        <ele>37.914</ele>
        <time>2021-05-05T09:22:59Z</time>
      </trkpt>
      <trkpt lat="38.081352" lon="-0.931765">
        <ele>37.908</ele>
        <time>2021-05-05T09:23:01Z</time>
      </trkpt>
      <trkpt lat="38.081346" lon="-0.931829">
        <ele>37.912</ele>
        <time>2021-05-05T09:23:02Z</time>
      </trkpt>
      <trkpt lat="38.081341" lon="-0.931941">
        <ele>37.957</ele>
        <time>2021-05-05T09:23:05Z</time>
      </trkpt>
      <trkpt lat="38.081390" lon="-0.931999">
        <ele>37.917</ele>
        <time>2021-05-05T09:23:07Z</time>
      </trkpt>
      <trkpt lat="38.081445" lon="-0.932035">
        <ele>37.940</ele>
        <time>2021-05-05T09:23:08Z</time>
      </trkpt>
      <trkpt lat="38.081491" lon="-0.932021">
        <ele>37.930</ele>
        <time>2021-05-05T09:23:11Z</time>
      </trkpt>
      <trkpt lat="38.081532" lon="-0.931966">
        <ele>37.942</ele>
        <time>2021-05-05T09:23:14Z</time>
      </trkpt>
      <trkpt lat="38.081569" lon="-0.931919">
        <ele>37.959</ele>
        <time>2021-05-05T09:23:15Z</time>
      </trkpt>
      <trkpt lat="38.081611" lon="-0.931866">
        <ele>37.974</ele>
        <time>2021-05-05T09:23:17Z</time>
      </trkpt>
      <trkpt lat="38.081665" lon="-0.931806">
        <ele>37.987</ele>
        <time>2021-05-05T09:23:19Z</time>
      </trkpt>
      <trkpt lat="38.081733" lon="-0.931737">
        <ele>37.942</ele>
        <time>2021-05-05T09:23:21Z</time>
      </trkpt>
      <trkpt lat="38.081771" lon="-0.931701">
        <ele>37.926</ele>
        <time>2021-05-05T09:23:22Z</time>
      </trkpt>
      <trkpt lat="38.081805" lon="-0.931661">
        <ele>37.908</ele>
        <time>2021-05-05T09:23:24Z</time>
      </trkpt>
      <trkpt lat="38.081854" lon="-0.931607">
        <ele>37.915</ele>
        <time>2021-05-05T09:23:25Z</time>
      </trkpt>
      <trkpt lat="38.081909" lon="-0.931553">
        <ele>37.920</ele>
        <time>2021-05-05T09:23:27Z</time>
      </trkpt>
      <trkpt lat="38.081949" lon="-0.931517">
        <ele>37.970</ele>
        <time>2021-05-05T09:23:28Z</time>
      </trkpt>
      <trkpt lat="38.081987" lon="-0.931476">
        <ele>37.933</ele>
        <time>2021-05-05T09:23:29Z</time>
      </trkpt>
      <trkpt lat="38.082043" lon="-0.931420">
        <ele>37.953</ele>
        <time>2021-05-05T09:23:31Z</time>
      </trkpt>
      <trkpt lat="38.082106" lon="-0.931351">
        <ele>37.935</ele>
        <time>2021-05-05T09:23:33Z</time>
      </trkpt>
      <trkpt lat="38.082162" lon="-0.931301">
        <ele>37.992</ele>
        <time>2021-05-05T09:23:35Z</time>
      </trkpt>
      <trkpt lat="38.082226" lon="-0.931247">
        <ele>37.917</ele>
        <time>2021-05-05T09:23:37Z</time>
      </trkpt>
      <trkpt lat="38.082270" lon="-0.931208">
        <ele>37.913</ele>
        <time>2021-05-05T09:23:38Z</time>
      </trkpt>
      <trkpt lat="38.082318" lon="-0.931172">
        <ele>37.943</ele>
        <time>2021-05-05T09:23:40Z</time>
      </trkpt>
      <trkpt lat="38.082360" lon="-0.931145">
        <ele>37.907</ele>
        <time>2021-05-05T09:23:41Z</time>
      </trkpt>
      <trkpt lat="38.082399" lon="-0.931113">
        <ele>37.908</ele>
        <time>2021-05-05T09:23:43Z</time>
      </trkpt>
      <trkpt lat="38.082437" lon="-0.931074">
        <ele>37.918</ele>
        <time>2021-05-05T09:23:44Z</time>
      </trkpt>
      <trkpt lat="38.082473" lon="-0.931036">
        <ele>37.933</ele>
        <time>2021-05-05T09:23:45Z</time>
      </trkpt>
      <trkpt lat="38.082518" lon="-0.930986">
        <ele>37.993</ele>
        <time>2021-05-05T09:23:47Z</time>
      </trkpt>
      <trkpt lat="38.082580" lon="-0.930920">
        <ele>37.956</ele>
        <time>2021-05-05T09:23:48Z</time>
      </trkpt>
      <trkpt lat="38.082644" lon="-0.930851">
        <ele>38.616</ele>
        <time>2021-05-05T09:23:50Z</time>
      </trkpt>
      <trkpt lat="38.082683" lon="-0.930815">
        <ele>38.778</ele>
        <time>2021-05-05T09:23:52Z</time>
      </trkpt>
      <trkpt lat="38.082729" lon="-0.930769">
        <ele>39.265</ele>
        <time>2021-05-05T09:23:53Z</time>
      </trkpt>
      <trkpt lat="38.082777" lon="-0.930725">
        <ele>39.380</ele>
        <time>2021-05-05T09:23:54Z</time>
      </trkpt>
      <trkpt lat="38.082855" lon="-0.930667">
        <ele>39.231</ele>
        <time>2021-05-05T09:23:57Z</time>
      </trkpt>
      <trkpt lat="38.082905" lon="-0.930622">
        <ele>39.461</ele>
        <time>2021-05-05T09:23:58Z</time>
      </trkpt>
      <trkpt lat="38.082951" lon="-0.930585">
        <ele>39.807</ele>
        <time>2021-05-05T09:23:59Z</time>
      </trkpt>
      <trkpt lat="38.082994" lon="-0.930551">
        <ele>40.108</ele>
        <time>2021-05-05T09:24:00Z</time>
      </trkpt>
      <trkpt lat="38.083039" lon="-0.930516">
        <ele>40.170</ele>
        <time>2021-05-05T09:24:02Z</time>
      </trkpt>
      <trkpt lat="38.083078" lon="-0.930483">
        <ele>40.575</ele>
        <time>2021-05-05T09:24:03Z</time>
      </trkpt>
      <trkpt lat="38.083137" lon="-0.930438">
        <ele>40.665</ele>
        <time>2021-05-05T09:24:04Z</time>
      </trkpt>
      <trkpt lat="38.083180" lon="-0.930402">
        <ele>40.658</ele>
        <time>2021-05-05T09:24:05Z</time>
      </trkpt>
      <trkpt lat="38.083254" lon="-0.930356">
        <ele>40.728</ele>
        <time>2021-05-05T09:24:07Z</time>
      </trkpt>
      <trkpt lat="38.083321" lon="-0.930309">
        <ele>40.750</ele>
        <time>2021-05-05T09:24:09Z</time>
      </trkpt>
      <trkpt lat="38.083362" lon="-0.930275">
        <ele>40.567</ele>
        <time>2021-05-05T09:24:10Z</time>
      </trkpt>
      <trkpt lat="38.083435" lon="-0.930201">
        <ele>40.252</ele>
        <time>2021-05-05T09:24:12Z</time>
      </trkpt>
      <trkpt lat="38.083491" lon="-0.930151">
        <ele>39.861</ele>
        <time>2021-05-05T09:24:14Z</time>
      </trkpt>
      <trkpt lat="38.083547" lon="-0.930105">
        <ele>39.921</ele>
        <time>2021-05-05T09:24:16Z</time>
      </trkpt>
      <trkpt lat="38.083593" lon="-0.930062">
        <ele>39.813</ele>
        <time>2021-05-05T09:24:17Z</time>
      </trkpt>
      <trkpt lat="38.083651" lon="-0.930008">
        <ele>40.008</ele>
        <time>2021-05-05T09:24:19Z</time>
      </trkpt>
      <trkpt lat="38.083688" lon="-0.929974">
        <ele>40.043</ele>
        <time>2021-05-05T09:24:20Z</time>
      </trkpt>
      <trkpt lat="38.083764" lon="-0.929905">
        <ele>39.798</ele>
        <time>2021-05-05T09:24:23Z</time>
      </trkpt>
      <trkpt lat="38.083811" lon="-0.929870">
        <ele>39.238</ele>
        <time>2021-05-05T09:24:24Z</time>
      </trkpt>
      <trkpt lat="38.083857" lon="-0.929835">
        <ele>39.291</ele>
        <time>2021-05-05T09:24:25Z</time>
      </trkpt>
      <trkpt lat="38.083906" lon="-0.929797">
        <ele>39.551</ele>
        <time>2021-05-05T09:24:27Z</time>
      </trkpt>
      <trkpt lat="38.083965" lon="-0.929747">
        <ele>39.453</ele>
        <time>2021-05-05T09:24:28Z</time>
      </trkpt>
      <trkpt lat="38.084009" lon="-0.929713">
        <ele>39.640</ele>
        <time>2021-05-05T09:24:29Z</time>
      </trkpt>
      <trkpt lat="38.084067" lon="-0.929670">
        <ele>39.885</ele>
        <time>2021-05-05T09:24:31Z</time>
      </trkpt>
      <trkpt lat="38.084107" lon="-0.929640">
        <ele>39.952</ele>
        <time>2021-05-05T09:24:32Z</time>
      </trkpt>
      <trkpt lat="38.084153" lon="-0.929596">
        <ele>40.253</ele>
        <time>2021-05-05T09:24:33Z</time>
      </trkpt>
      <trkpt lat="38.084214" lon="-0.929546">
        <ele>40.408</ele>
        <time>2021-05-05T09:24:35Z</time>
      </trkpt>
      <trkpt lat="38.084256" lon="-0.929512">
        <ele>40.408</ele>
        <time>2021-05-05T09:24:36Z</time>
      </trkpt>
      <trkpt lat="38.084295" lon="-0.929480">
        <ele>40.392</ele>
        <time>2021-05-05T09:24:38Z</time>
      </trkpt>
      <trkpt lat="38.084356" lon="-0.929425">
        <ele>39.957</ele>
        <time>2021-05-05T09:24:39Z</time>
      </trkpt>
      <trkpt lat="38.084393" lon="-0.929392">
        <ele>40.157</ele>
        <time>2021-05-05T09:24:41Z</time>
      </trkpt>
      <trkpt lat="38.084444" lon="-0.929343">
        <ele>40.210</ele>
        <time>2021-05-05T09:24:42Z</time>
      </trkpt>
      <trkpt lat="38.084486" lon="-0.929308">
        <ele>40.240</ele>
        <time>2021-05-05T09:24:43Z</time>
      </trkpt>
      <trkpt lat="38.084526" lon="-0.929276">
        <ele>40.262</ele>
        <time>2021-05-05T09:24:44Z</time>
      </trkpt>
      <trkpt lat="38.084568" lon="-0.929241">
        <ele>40.389</ele>
        <time>2021-05-05T09:24:46Z</time>
      </trkpt>
      <trkpt lat="38.084620" lon="-0.929201">
        <ele>40.484</ele>
        <time>2021-05-05T09:24:47Z</time>
      </trkpt>
      <trkpt lat="38.084674" lon="-0.929157">
        <ele>40.659</ele>
        <time>2021-05-05T09:24:49Z</time>
      </trkpt>
      <trkpt lat="38.084716" lon="-0.929121">
        <ele>40.803</ele>
        <time>2021-05-05T09:24:50Z</time>
      </trkpt>
      <trkpt lat="38.084759" lon="-0.929086">
        <ele>40.823</ele>
        <time>2021-05-05T09:24:51Z</time>
      </trkpt>
      <trkpt lat="38.084808" lon="-0.929048">
        <ele>40.808</ele>
        <time>2021-05-05T09:24:52Z</time>
      </trkpt>
      <trkpt lat="38.084850" lon="-0.929015">
        <ele>41.082</ele>
        <time>2021-05-05T09:24:53Z</time>
      </trkpt>
      <trkpt lat="38.084903" lon="-0.928963">
        <ele>41.567</ele>
        <time>2021-05-05T09:24:55Z</time>
      </trkpt>
      <trkpt lat="38.084944" lon="-0.928930">
        <ele>41.827</ele>
        <time>2021-05-05T09:24:56Z</time>
      </trkpt>
      <trkpt lat="38.084983" lon="-0.928900">
        <ele>41.860</ele>
        <time>2021-05-05T09:24:57Z</time>
      </trkpt>
      <trkpt lat="38.085062" lon="-0.928839">
        <ele>41.720</ele>
        <time>2021-05-05T09:25:00Z</time>
      </trkpt>
      <trkpt lat="38.085121" lon="-0.928789">
        <ele>41.682</ele>
        <time>2021-05-05T09:25:01Z</time>
      </trkpt>
      <trkpt lat="38.085172" lon="-0.928745">
        <ele>41.699</ele>
        <time>2021-05-05T09:25:03Z</time>
      </trkpt>
      <trkpt lat="38.085223" lon="-0.928703">
        <ele>41.514</ele>
        <time>2021-05-05T09:25:05Z</time>
      </trkpt>
      <trkpt lat="38.085278" lon="-0.928649">
        <ele>41.168</ele>
        <time>2021-05-05T09:25:06Z</time>
      </trkpt>
      <trkpt lat="38.085315" lon="-0.928608">
        <ele>40.942</ele>
        <time>2021-05-05T09:25:07Z</time>
      </trkpt>
      <trkpt lat="38.085359" lon="-0.928557">
        <ele>41.026</ele>
        <time>2021-05-05T09:25:09Z</time>
      </trkpt>
      <trkpt lat="38.085417" lon="-0.928490">
        <ele>40.808</ele>
        <time>2021-05-05T09:25:11Z</time>
      </trkpt>
      <trkpt lat="38.085458" lon="-0.928440">
        <ele>41.093</ele>
        <time>2021-05-05T09:25:12Z</time>
      </trkpt>
      <trkpt lat="38.085496" lon="-0.928393">
        <ele>41.148</ele>
        <time>2021-05-05T09:25:13Z</time>
      </trkpt>
      <trkpt lat="38.085528" lon="-0.928351">
        <ele>41.158</ele>
        <time>2021-05-05T09:25:14Z</time>
      </trkpt>
      <trkpt lat="38.085584" lon="-0.928273">
        <ele>41.291</ele>
        <time>2021-05-05T09:25:16Z</time>
      </trkpt>
      <trkpt lat="38.085616" lon="-0.928226">
        <ele>41.431</ele>
        <time>2021-05-05T09:25:17Z</time>
      </trkpt>
      <trkpt lat="38.085647" lon="-0.928175">
        <ele>41.213</ele>
        <time>2021-05-05T09:25:18Z</time>
      </trkpt>
      <trkpt lat="38.085699" lon="-0.928081">
        <ele>41.270</ele>
        <time>2021-05-05T09:25:20Z</time>
      </trkpt>
      <trkpt lat="38.085727" lon="-0.928031">
        <ele>40.915</ele>
        <time>2021-05-05T09:25:22Z</time>
      </trkpt>
      <trkpt lat="38.085771" lon="-0.927936">
        <ele>40.565</ele>
        <time>2021-05-05T09:25:24Z</time>
      </trkpt>
      <trkpt lat="38.085802" lon="-0.927863">
        <ele>40.268</ele>
        <time>2021-05-05T09:25:25Z</time>
      </trkpt>
      <trkpt lat="38.085835" lon="-0.927795">
        <ele>40.314</ele>
        <time>2021-05-05T09:25:27Z</time>
      </trkpt>
      <trkpt lat="38.085873" lon="-0.927708">
        <ele>40.208</ele>
        <time>2021-05-05T09:25:28Z</time>
      </trkpt>
      <trkpt lat="38.085899" lon="-0.927647">
        <ele>40.173</ele>
        <time>2021-05-05T09:25:30Z</time>
      </trkpt>
      <trkpt lat="38.085925" lon="-0.927573">
        <ele>40.158</ele>
        <time>2021-05-05T09:25:31Z</time>
      </trkpt>
      <trkpt lat="38.085948" lon="-0.927510">
        <ele>40.558</ele>
        <time>2021-05-05T09:25:32Z</time>
      </trkpt>
      <trkpt lat="38.085967" lon="-0.927452">
        <ele>40.591</ele>
        <time>2021-05-05T09:25:33Z</time>
      </trkpt>
      <trkpt lat="38.085995" lon="-0.927354">
        <ele>40.511</ele>
        <time>2021-05-05T09:25:35Z</time>
      </trkpt>
      <trkpt lat="38.086010" lon="-0.927297">
        <ele>40.613</ele>
        <time>2021-05-05T09:25:36Z</time>
      </trkpt>
      <trkpt lat="38.086034" lon="-0.927213">
        <ele>40.520</ele>
        <time>2021-05-05T09:25:38Z</time>
      </trkpt>
      <trkpt lat="38.086046" lon="-0.927156">
        <ele>40.315</ele>
        <time>2021-05-05T09:25:39Z</time>
      </trkpt>
      <trkpt lat="38.086058" lon="-0.927095">
        <ele>40.325</ele>
        <time>2021-05-05T09:25:40Z</time>
      </trkpt>
      <trkpt lat="38.086074" lon="-0.927034">
        <ele>40.226</ele>
        <time>2021-05-05T09:25:42Z</time>
      </trkpt>
      <trkpt lat="38.086091" lon="-0.926953">
        <ele>40.208</ele>
        <time>2021-05-05T09:25:43Z</time>
      </trkpt>
      <trkpt lat="38.086103" lon="-0.926894">
        <ele>40.208</ele>
        <time>2021-05-05T09:25:44Z</time>
      </trkpt>
      <trkpt lat="38.086118" lon="-0.926792">
        <ele>40.569</ele>
        <time>2021-05-05T09:25:46Z</time>
      </trkpt>
      <trkpt lat="38.086126" lon="-0.926732">
        <ele>40.664</ele>
        <time>2021-05-05T09:25:47Z</time>
      </trkpt>
      <trkpt lat="38.086134" lon="-0.926672">
        <ele>40.624</ele>
        <time>2021-05-05T09:25:48Z</time>
      </trkpt>
      <trkpt lat="38.086147" lon="-0.926588">
        <ele>40.587</ele>
        <time>2021-05-05T09:25:50Z</time>
      </trkpt>
      <trkpt lat="38.086162" lon="-0.926490">
        <ele>40.287</ele>
        <time>2021-05-05T09:25:51Z</time>
      </trkpt>
      <trkpt lat="38.086173" lon="-0.926404">
        <ele>40.269</ele>
        <time>2021-05-05T09:25:53Z</time>
      </trkpt>
      <trkpt lat="38.086180" lon="-0.926325">
        <ele>39.926</ele>
        <time>2021-05-05T09:25:54Z</time>
      </trkpt>
      <trkpt lat="38.086183" lon="-0.926238">
        <ele>39.881</ele>
        <time>2021-05-05T09:25:56Z</time>
      </trkpt>
      <trkpt lat="38.086189" lon="-0.926170">
        <ele>39.755</ele>
        <time>2021-05-05T09:25:57Z</time>
      </trkpt>
      <trkpt lat="38.086196" lon="-0.926100">
        <ele>39.307</ele>
        <time>2021-05-05T09:25:59Z</time>
      </trkpt>
      <trkpt lat="38.086206" lon="-0.926018">
        <ele>39.217</ele>
        <time>2021-05-05T09:26:00Z</time>
      </trkpt>
      <trkpt lat="38.086214" lon="-0.925950">
        <ele>39.108</ele>
        <time>2021-05-05T09:26:01Z</time>
      </trkpt>
      <trkpt lat="38.086222" lon="-0.925863">
        <ele>38.872</ele>
        <time>2021-05-05T09:26:03Z</time>
      </trkpt>
      <trkpt lat="38.086234" lon="-0.925752">
        <ele>38.887</ele>
        <time>2021-05-05T09:26:05Z</time>
      </trkpt>
      <trkpt lat="38.086246" lon="-0.925632">
        <ele>38.897</ele>
        <time>2021-05-05T09:26:07Z</time>
      </trkpt>
      <trkpt lat="38.086260" lon="-0.925516">
        <ele>38.980</ele>
        <time>2021-05-05T09:26:09Z</time>
      </trkpt>
      <trkpt lat="38.086268" lon="-0.925399">
        <ele>38.620</ele>
        <time>2021-05-05T09:26:11Z</time>
      </trkpt>
      <trkpt lat="38.086271" lon="-0.925341">
        <ele>38.512</ele>
        <time>2021-05-05T09:26:12Z</time>
      </trkpt>
      <trkpt lat="38.086277" lon="-0.925230">
        <ele>38.599</ele>
        <time>2021-05-05T09:26:14Z</time>
      </trkpt>
      <trkpt lat="38.086286" lon="-0.925135">
        <ele>38.234</ele>
        <time>2021-05-05T09:26:15Z</time>
      </trkpt>
      <trkpt lat="38.086299" lon="-0.925017">
        <ele>38.143</ele>
        <time>2021-05-05T09:26:18Z</time>
      </trkpt>
      <trkpt lat="38.086308" lon="-0.924916">
        <ele>37.764</ele>
        <time>2021-05-05T09:26:20Z</time>
      </trkpt>
      <trkpt lat="38.086316" lon="-0.924796">
        <ele>37.710</ele>
        <time>2021-05-05T09:26:22Z</time>
      </trkpt>
      <trkpt lat="38.086321" lon="-0.924733">
        <ele>37.508</ele>
        <time>2021-05-05T09:26:23Z</time>
      </trkpt>
      <trkpt lat="38.086327" lon="-0.924676">
        <ele>37.591</ele>
        <time>2021-05-05T09:26:24Z</time>
      </trkpt>
      <trkpt lat="38.086326" lon="-0.924571">
        <ele>37.176</ele>
        <time>2021-05-05T09:26:26Z</time>
      </trkpt>
      <trkpt lat="38.086346" lon="-0.924472">
        <ele>37.286</ele>
        <time>2021-05-05T09:26:27Z</time>
      </trkpt>
      <trkpt lat="38.086352" lon="-0.924409">
        <ele>37.559</ele>
        <time>2021-05-05T09:26:29Z</time>
      </trkpt>
      <trkpt lat="38.086359" lon="-0.924338">
        <ele>37.569</ele>
        <time>2021-05-05T09:26:30Z</time>
      </trkpt>
      <trkpt lat="38.086367" lon="-0.924278">
        <ele>37.541</ele>
        <time>2021-05-05T09:26:31Z</time>
      </trkpt>
      <trkpt lat="38.086379" lon="-0.924188">
        <ele>37.768</ele>
        <time>2021-05-05T09:26:33Z</time>
      </trkpt>
      <trkpt lat="38.086391" lon="-0.924115">
        <ele>38.063</ele>
        <time>2021-05-05T09:26:34Z</time>
      </trkpt>
      <trkpt lat="38.086401" lon="-0.924057">
        <ele>38.197</ele>
        <time>2021-05-05T09:26:35Z</time>
      </trkpt>
      <trkpt lat="38.086409" lon="-0.923977">
        <ele>38.023</ele>
        <time>2021-05-05T09:26:37Z</time>
      </trkpt>
      <trkpt lat="38.086417" lon="-0.923886">
        <ele>38.125</ele>
        <time>2021-05-05T09:26:38Z</time>
      </trkpt>
      <trkpt lat="38.086424" lon="-0.923788">
        <ele>38.108</ele>
        <time>2021-05-05T09:26:40Z</time>
      </trkpt>
      <trkpt lat="38.086431" lon="-0.923727">
        <ele>38.316</ele>
        <time>2021-05-05T09:26:41Z</time>
      </trkpt>
      <trkpt lat="38.086436" lon="-0.923662">
        <ele>38.251</ele>
        <time>2021-05-05T09:26:43Z</time>
      </trkpt>
      <trkpt lat="38.086446" lon="-0.923557">
        <ele>37.791</ele>
        <time>2021-05-05T09:26:44Z</time>
      </trkpt>
      <trkpt lat="38.086451" lon="-0.923487">
        <ele>37.644</ele>
        <time>2021-05-05T09:26:46Z</time>
      </trkpt>
      <trkpt lat="38.086457" lon="-0.923422">
        <ele>37.684</ele>
        <time>2021-05-05T09:26:47Z</time>
      </trkpt>
      <trkpt lat="38.086467" lon="-0.923365">
        <ele>37.886</ele>
        <time>2021-05-05T09:26:48Z</time>
      </trkpt>
      <trkpt lat="38.086476" lon="-0.923282">
        <ele>37.843</ele>
        <time>2021-05-05T09:26:50Z</time>
      </trkpt>
      <trkpt lat="38.086484" lon="-0.923198">
        <ele>37.678</ele>
        <time>2021-05-05T09:26:51Z</time>
      </trkpt>
      <trkpt lat="38.086492" lon="-0.923127">
        <ele>37.527</ele>
        <time>2021-05-05T09:26:52Z</time>
      </trkpt>
      <trkpt lat="38.086498" lon="-0.923039">
        <ele>37.768</ele>
        <time>2021-05-05T09:26:54Z</time>
      </trkpt>
      <trkpt lat="38.086504" lon="-0.922964">
        <ele>37.714</ele>
        <time>2021-05-05T09:26:55Z</time>
      </trkpt>
      <trkpt lat="38.086512" lon="-0.922873">
        <ele>37.408</ele>
        <time>2021-05-05T09:26:57Z</time>
      </trkpt>
      <trkpt lat="38.086518" lon="-0.922812">
        <ele>37.389</ele>
        <time>2021-05-05T09:26:58Z</time>
      </trkpt>
      <trkpt lat="38.086525" lon="-0.922708">
        <ele>37.254</ele>
        <time>2021-05-05T09:27:00Z</time>
      </trkpt>
      <trkpt lat="38.086530" lon="-0.922643">
        <ele>37.374</ele>
        <time>2021-05-05T09:27:01Z</time>
      </trkpt>
      <trkpt lat="38.086535" lon="-0.922582">
        <ele>37.367</ele>
        <time>2021-05-05T09:27:02Z</time>
      </trkpt>
      <trkpt lat="38.086545" lon="-0.922518">
        <ele>37.427</ele>
        <time>2021-05-05T09:27:04Z</time>
      </trkpt>
      <trkpt lat="38.086552" lon="-0.922461">
        <ele>37.729</ele>
        <time>2021-05-05T09:27:05Z</time>
      </trkpt>
      <trkpt lat="38.086556" lon="-0.922366">
        <ele>37.616</ele>
        <time>2021-05-05T09:27:06Z</time>
      </trkpt>
      <trkpt lat="38.086556" lon="-0.922304">
        <ele>37.411</ele>
        <time>2021-05-05T09:27:08Z</time>
      </trkpt>
      <trkpt lat="38.086562" lon="-0.922211">
        <ele>37.187</ele>
        <time>2021-05-05T09:27:09Z</time>
      </trkpt>
      <trkpt lat="38.086567" lon="-0.922153">
        <ele>36.942</ele>
        <time>2021-05-05T09:27:10Z</time>
      </trkpt>
      <trkpt lat="38.086575" lon="-0.922060">
        <ele>37.026</ele>
        <time>2021-05-05T09:27:12Z</time>
      </trkpt>
      <trkpt lat="38.086581" lon="-0.921988">
        <ele>37.008</ele>
        <time>2021-05-05T09:27:13Z</time>
      </trkpt>
      <trkpt lat="38.086588" lon="-0.921924">
        <ele>37.255</ele>
        <time>2021-05-05T09:27:15Z</time>
      </trkpt>
      <trkpt lat="38.086598" lon="-0.921815">
        <ele>37.620</ele>
        <time>2021-05-05T09:27:16Z</time>
      </trkpt>
      <trkpt lat="38.086603" lon="-0.921758">
        <ele>37.810</ele>
        <time>2021-05-05T09:27:18Z</time>
      </trkpt>
      <trkpt lat="38.086612" lon="-0.921685">
        <ele>37.793</ele>
        <time>2021-05-05T09:27:19Z</time>
      </trkpt>
      <trkpt lat="38.086623" lon="-0.921608">
        <ele>37.663</ele>
        <time>2021-05-05T09:27:20Z</time>
      </trkpt>
      <trkpt lat="38.086631" lon="-0.921539">
        <ele>37.695</ele>
        <time>2021-05-05T09:27:21Z</time>
      </trkpt>
      <trkpt lat="38.086641" lon="-0.921423">
        <ele>37.432</ele>
        <time>2021-05-05T09:27:24Z</time>
      </trkpt>
      <trkpt lat="38.086655" lon="-0.921335">
        <ele>37.037</ele>
        <time>2021-05-05T09:27:25Z</time>
      </trkpt>
      <trkpt lat="38.086662" lon="-0.921278">
        <ele>37.013</ele>
        <time>2021-05-05T09:27:26Z</time>
      </trkpt>
      <trkpt lat="38.086672" lon="-0.921202">
        <ele>36.743</ele>
        <time>2021-05-05T09:27:28Z</time>
      </trkpt>
      <trkpt lat="38.086684" lon="-0.921100">
        <ele>36.607</ele>
        <time>2021-05-05T09:27:30Z</time>
      </trkpt>
      <trkpt lat="38.086690" lon="-0.921037">
        <ele>36.408</ele>
        <time>2021-05-05T09:27:31Z</time>
      </trkpt>
      <trkpt lat="38.086699" lon="-0.920933">
        <ele>36.488</ele>
        <time>2021-05-05T09:27:33Z</time>
      </trkpt>
      <trkpt lat="38.086707" lon="-0.920874">
        <ele>36.743</ele>
        <time>2021-05-05T09:27:34Z</time>
      </trkpt>
      <trkpt lat="38.086711" lon="-0.920775">
        <ele>36.633</ele>
        <time>2021-05-05T09:27:35Z</time>
      </trkpt>
      <trkpt lat="38.086715" lon="-0.920715">
        <ele>36.486</ele>
        <time>2021-05-05T09:27:37Z</time>
      </trkpt>
      <trkpt lat="38.086720" lon="-0.920647">
        <ele>36.226</ele>
        <time>2021-05-05T09:27:38Z</time>
      </trkpt>
      <trkpt lat="38.086725" lon="-0.920582">
        <ele>36.038</ele>
        <time>2021-05-05T09:27:39Z</time>
      </trkpt>
      <trkpt lat="38.086733" lon="-0.920494">
        <ele>36.125</ele>
        <time>2021-05-05T09:27:41Z</time>
      </trkpt>
      <trkpt lat="38.086740" lon="-0.920423">
        <ele>36.130</ele>
        <time>2021-05-05T09:27:42Z</time>
      </trkpt>
      <trkpt lat="38.086751" lon="-0.920310">
        <ele>36.234</ele>
        <time>2021-05-05T09:27:44Z</time>
      </trkpt>
      <trkpt lat="38.086762" lon="-0.920196">
        <ele>36.255</ele>
        <time>2021-05-05T09:27:46Z</time>
      </trkpt>
      <trkpt lat="38.086770" lon="-0.920082">
        <ele>36.210</ele>
        <time>2021-05-05T09:27:48Z</time>
      </trkpt>
      <trkpt lat="38.086775" lon="-0.920025">
        <ele>36.008</ele>
        <time>2021-05-05T09:27:49Z</time>
      </trkpt>
      <trkpt lat="38.086787" lon="-0.919912">
        <ele>35.830</ele>
        <time>2021-05-05T09:27:51Z</time>
      </trkpt>
      <trkpt lat="38.086801" lon="-0.919808">
        <ele>35.885</ele>
        <time>2021-05-05T09:27:53Z</time>
      </trkpt>
      <trkpt lat="38.086811" lon="-0.919705">
        <ele>35.815</ele>
        <time>2021-05-05T09:27:55Z</time>
      </trkpt>
      <trkpt lat="38.086821" lon="-0.919586">
        <ele>35.548</ele>
        <time>2021-05-05T09:27:57Z</time>
      </trkpt>
      <trkpt lat="38.086829" lon="-0.919472">
        <ele>34.928</ele>
        <time>2021-05-05T09:27:58Z</time>
      </trkpt>
      <trkpt lat="38.086833" lon="-0.919404">
        <ele>34.780</ele>
        <time>2021-05-05T09:28:00Z</time>
      </trkpt>
      <trkpt lat="38.086841" lon="-0.919345">
        <ele>34.847</ele>
        <time>2021-05-05T09:28:01Z</time>
      </trkpt>
      <trkpt lat="38.086852" lon="-0.919288">
        <ele>35.062</ele>
        <time>2021-05-05T09:28:02Z</time>
      </trkpt>
      <trkpt lat="38.086857" lon="-0.919202">
        <ele>35.382</ele>
        <time>2021-05-05T09:28:03Z</time>
      </trkpt>
      <trkpt lat="38.086870" lon="-0.919130">
        <ele>35.443</ele>
        <time>2021-05-05T09:28:05Z</time>
      </trkpt>
      <trkpt lat="38.086888" lon="-0.919008">
        <ele>36.017</ele>
        <time>2021-05-05T09:28:07Z</time>
      </trkpt>
      <trkpt lat="38.086905" lon="-0.918894">
        <ele>36.308</ele>
        <time>2021-05-05T09:28:09Z</time>
      </trkpt>
      <trkpt lat="38.086910" lon="-0.918835">
        <ele>36.355</ele>
        <time>2021-05-05T09:28:10Z</time>
      </trkpt>
      <trkpt lat="38.086921" lon="-0.918722">
        <ele>36.510</ele>
        <time>2021-05-05T09:28:12Z</time>
      </trkpt>
      <trkpt lat="38.086926" lon="-0.918663">
        <ele>36.690</ele>
        <time>2021-05-05T09:28:13Z</time>
      </trkpt>
      <trkpt lat="38.086931" lon="-0.918604">
        <ele>36.553</ele>
        <time>2021-05-05T09:28:14Z</time>
      </trkpt>
      <trkpt lat="38.086941" lon="-0.918487">
        <ele>36.453</ele>
        <time>2021-05-05T09:28:17Z</time>
      </trkpt>
      <trkpt lat="38.086950" lon="-0.918395">
        <ele>36.525</ele>
        <time>2021-05-05T09:28:18Z</time>
      </trkpt>
      <trkpt lat="38.086961" lon="-0.918264">
        <ele>36.812</ele>
        <time>2021-05-05T09:28:20Z</time>
      </trkpt>
      <trkpt lat="38.086975" lon="-0.918179">
        <ele>37.157</ele>
        <time>2021-05-05T09:28:21Z</time>
      </trkpt>
      <trkpt lat="38.086982" lon="-0.918121">
        <ele>37.297</ele>
        <time>2021-05-05T09:28:23Z</time>
      </trkpt>
      <trkpt lat="38.086988" lon="-0.918049">
        <ele>37.323</ele>
        <time>2021-05-05T09:28:24Z</time>
      </trkpt>
      <trkpt lat="38.086996" lon="-0.917970">
        <ele>37.425</ele>
        <time>2021-05-05T09:28:26Z</time>
      </trkpt>
      <trkpt lat="38.087007" lon="-0.917855">
        <ele>37.508</ele>
        <time>2021-05-05T09:28:28Z</time>
      </trkpt>
      <trkpt lat="38.087010" lon="-0.917789">
        <ele>37.546</ele>
        <time>2021-05-05T09:28:29Z</time>
      </trkpt>
      <trkpt lat="38.087018" lon="-0.917671">
        <ele>37.561</ele>
        <time>2021-05-05T09:28:31Z</time>
      </trkpt>
      <trkpt lat="38.087024" lon="-0.917603">
        <ele>37.521</ele>
        <time>2021-05-05T09:28:32Z</time>
      </trkpt>
      <trkpt lat="38.087033" lon="-0.917523">
        <ele>37.544</ele>
        <time>2021-05-05T09:28:34Z</time>
      </trkpt>
      <trkpt lat="38.087044" lon="-0.917460">
        <ele>37.554</ele>
        <time>2021-05-05T09:28:35Z</time>
      </trkpt>
      <trkpt lat="38.087052" lon="-0.917402">
        <ele>37.576</ele>
        <time>2021-05-05T09:28:36Z</time>
      </trkpt>
      <trkpt lat="38.087060" lon="-0.917319">
        <ele>37.553</ele>
        <time>2021-05-05T09:28:37Z</time>
      </trkpt>
      <trkpt lat="38.087066" lon="-0.917251">
        <ele>37.578</ele>
        <time>2021-05-05T09:28:39Z</time>
      </trkpt>
      <trkpt lat="38.087077" lon="-0.917150">
        <ele>37.542</ele>
        <time>2021-05-05T09:28:41Z</time>
      </trkpt>
      <trkpt lat="38.087093" lon="-0.917061">
        <ele>37.522</ele>
        <time>2021-05-05T09:28:43Z</time>
      </trkpt>
      <trkpt lat="38.087107" lon="-0.916946">
        <ele>37.514</ele>
        <time>2021-05-05T09:28:44Z</time>
      </trkpt>
      <trkpt lat="38.087117" lon="-0.916880">
        <ele>37.508</ele>
        <time>2021-05-05T09:28:45Z</time>
      </trkpt>
      <trkpt lat="38.087132" lon="-0.916736">
        <ele>37.551</ele>
        <time>2021-05-05T09:28:48Z</time>
      </trkpt>
      <trkpt lat="38.087141" lon="-0.916636">
        <ele>37.586</ele>
        <time>2021-05-05T09:28:49Z</time>
      </trkpt>
      <trkpt lat="38.087149" lon="-0.916557">
        <ele>37.586</ele>
        <time>2021-05-05T09:28:51Z</time>
      </trkpt>
      <trkpt lat="38.087157" lon="-0.916415">
        <ele>37.539</ele>
        <time>2021-05-05T09:28:54Z</time>
      </trkpt>
      <trkpt lat="38.087167" lon="-0.916297">
        <ele>37.559</ele>
        <time>2021-05-05T09:28:56Z</time>
      </trkpt>
      <trkpt lat="38.087175" lon="-0.916219">
        <ele>37.561</ele>
        <time>2021-05-05T09:28:57Z</time>
      </trkpt>
      <trkpt lat="38.087186" lon="-0.916113">
        <ele>37.578</ele>
        <time>2021-05-05T09:28:59Z</time>
      </trkpt>
      <trkpt lat="38.087200" lon="-0.915996">
        <ele>37.563</ele>
        <time>2021-05-05T09:29:01Z</time>
      </trkpt>
      <trkpt lat="38.087211" lon="-0.915877">
        <ele>37.536</ele>
        <time>2021-05-05T09:29:03Z</time>
      </trkpt>
      <trkpt lat="38.087221" lon="-0.915763">
        <ele>37.517</ele>
        <time>2021-05-05T09:29:05Z</time>
      </trkpt>
      <trkpt lat="38.087231" lon="-0.915648">
        <ele>37.518</ele>
        <time>2021-05-05T09:29:07Z</time>
      </trkpt>
      <trkpt lat="38.087247" lon="-0.915530">
        <ele>37.508</ele>
        <time>2021-05-05T09:29:09Z</time>
      </trkpt>
      <trkpt lat="38.087254" lon="-0.915473">
        <ele>37.560</ele>
        <time>2021-05-05T09:29:10Z</time>
      </trkpt>
      <trkpt lat="38.087268" lon="-0.915363">
        <ele>37.595</ele>
        <time>2021-05-05T09:29:12Z</time>
      </trkpt>
      <trkpt lat="38.087274" lon="-0.915306">
        <ele>37.575</ele>
        <time>2021-05-05T09:29:13Z</time>
      </trkpt>
      <trkpt lat="38.087278" lon="-0.915245">
        <ele>37.588</ele>
        <time>2021-05-05T09:29:14Z</time>
      </trkpt>
      <trkpt lat="38.087288" lon="-0.915125">
        <ele>37.518</ele>
        <time>2021-05-05T09:29:16Z</time>
      </trkpt>
      <trkpt lat="38.087297" lon="-0.915008">
        <ele>37.590</ele>
        <time>2021-05-05T09:29:18Z</time>
      </trkpt>
      <trkpt lat="38.087302" lon="-0.914949">
        <ele>37.567</ele>
        <time>2021-05-05T09:29:19Z</time>
      </trkpt>
      <trkpt lat="38.087316" lon="-0.914836">
        <ele>38.092</ele>
        <time>2021-05-05T09:29:21Z</time>
      </trkpt>
      <trkpt lat="38.087330" lon="-0.914722">
        <ele>38.483</ele>
        <time>2021-05-05T09:29:23Z</time>
      </trkpt>
      <trkpt lat="38.087336" lon="-0.914664">
        <ele>38.525</ele>
        <time>2021-05-05T09:29:24Z</time>
      </trkpt>
      <trkpt lat="38.087348" lon="-0.914546">
        <ele>38.417</ele>
        <time>2021-05-05T09:29:26Z</time>
      </trkpt>
      <trkpt lat="38.087356" lon="-0.914426">
        <ele>38.608</ele>
        <time>2021-05-05T09:29:28Z</time>
      </trkpt>
      <trkpt lat="38.087362" lon="-0.914366">
        <ele>38.775</ele>
        <time>2021-05-05T09:29:29Z</time>
      </trkpt>
      <trkpt lat="38.087376" lon="-0.914253">
        <ele>39.180</ele>
        <time>2021-05-05T09:29:31Z</time>
      </trkpt>
      <trkpt lat="38.087388" lon="-0.914140">
        <ele>39.030</ele>
        <time>2021-05-05T09:29:33Z</time>
      </trkpt>
      <trkpt lat="38.087402" lon="-0.914028">
        <ele>38.813</ele>
        <time>2021-05-05T09:29:35Z</time>
      </trkpt>
      <trkpt lat="38.087408" lon="-0.913970">
        <ele>38.713</ele>
        <time>2021-05-05T09:29:36Z</time>
      </trkpt>
      <trkpt lat="38.087418" lon="-0.913851">
        <ele>38.335</ele>
        <time>2021-05-05T09:29:38Z</time>
      </trkpt>
      <trkpt lat="38.087429" lon="-0.913731">
        <ele>38.192</ele>
        <time>2021-05-05T09:29:40Z</time>
      </trkpt>
      <trkpt lat="38.087440" lon="-0.913613">
        <ele>38.157</ele>
        <time>2021-05-05T09:29:42Z</time>
      </trkpt>
      <trkpt lat="38.087446" lon="-0.913554">
        <ele>37.766</ele>
        <time>2021-05-05T09:29:43Z</time>
      </trkpt>
      <trkpt lat="38.087453" lon="-0.913496">
        <ele>38.029</ele>
        <time>2021-05-05T09:29:44Z</time>
      </trkpt>
      <trkpt lat="38.087459" lon="-0.913438">
        <ele>37.821</ele>
        <time>2021-05-05T09:29:45Z</time>
      </trkpt>
      <trkpt lat="38.087469" lon="-0.913324">
        <ele>37.608</ele>
        <time>2021-05-05T09:29:47Z</time>
      </trkpt>
      <trkpt lat="38.087480" lon="-0.913214">
        <ele>37.763</ele>
        <time>2021-05-05T09:29:49Z</time>
      </trkpt>
      <trkpt lat="38.087486" lon="-0.913108">
        <ele>37.758</ele>
        <time>2021-05-05T09:29:51Z</time>
      </trkpt>
      <trkpt lat="38.087490" lon="-0.913046">
        <ele>37.788</ele>
        <time>2021-05-05T09:29:52Z</time>
      </trkpt>
      <trkpt lat="38.087492" lon="-0.912986">
        <ele>37.741</ele>
        <time>2021-05-05T09:29:53Z</time>
      </trkpt>
      <trkpt lat="38.087494" lon="-0.912871">
        <ele>37.821</ele>
        <time>2021-05-05T09:29:55Z</time>
      </trkpt>
      <trkpt lat="38.087493" lon="-0.912812">
        <ele>37.813</ele>
        <time>2021-05-05T09:29:56Z</time>
      </trkpt>
      <trkpt lat="38.087490" lon="-0.912694">
        <ele>37.640</ele>
        <time>2021-05-05T09:29:58Z</time>
      </trkpt>
      <trkpt lat="38.087488" lon="-0.912635">
        <ele>37.645</ele>
        <time>2021-05-05T09:29:59Z</time>
      </trkpt>
      <trkpt lat="38.087487" lon="-0.912521">
        <ele>37.675</ele>
        <time>2021-05-05T09:30:01Z</time>
      </trkpt>
      <trkpt lat="38.087485" lon="-0.912463">
        <ele>37.828</ele>
        <time>2021-05-05T09:30:02Z</time>
      </trkpt>
      <trkpt lat="38.087477" lon="-0.912349">
        <ele>37.720</ele>
        <time>2021-05-05T09:30:04Z</time>
      </trkpt>
      <trkpt lat="38.087473" lon="-0.912290">
        <ele>37.908</ele>
        <time>2021-05-05T09:30:05Z</time>
      </trkpt>
      <trkpt lat="38.087469" lon="-0.912231">
        <ele>37.744</ele>
        <time>2021-05-05T09:30:06Z</time>
      </trkpt>
      <trkpt lat="38.087464" lon="-0.912113">
        <ele>38.079</ele>
        <time>2021-05-05T09:30:08Z</time>
      </trkpt>
      <trkpt lat="38.087456" lon="-0.911995">
        <ele>38.089</ele>
        <time>2021-05-05T09:30:10Z</time>
      </trkpt>
      <trkpt lat="38.087451" lon="-0.911937">
        <ele>38.192</ele>
        <time>2021-05-05T09:30:11Z</time>
      </trkpt>
      <trkpt lat="38.087437" lon="-0.911821">
        <ele>38.342</ele>
        <time>2021-05-05T09:30:13Z</time>
      </trkpt>
      <trkpt lat="38.087429" lon="-0.911762">
        <ele>38.364</ele>
        <time>2021-05-05T09:30:14Z</time>
      </trkpt>
      <trkpt lat="38.087410" lon="-0.911649">
        <ele>38.631</ele>
        <time>2021-05-05T09:30:16Z</time>
      </trkpt>
      <trkpt lat="38.087400" lon="-0.911593">
        <ele>38.756</ele>
        <time>2021-05-05T09:30:17Z</time>
      </trkpt>
      <trkpt lat="38.087375" lon="-0.911493">
        <ele>38.751</ele>
        <time>2021-05-05T09:30:19Z</time>
      </trkpt>
      <trkpt lat="38.087364" lon="-0.911430">
        <ele>38.501</ele>
        <time>2021-05-05T09:30:20Z</time>
      </trkpt>
      <trkpt lat="38.087351" lon="-0.911368">
        <ele>38.511</ele>
        <time>2021-05-05T09:30:21Z</time>
      </trkpt>
      <trkpt lat="38.087338" lon="-0.911310">
        <ele>38.408</ele>
        <time>2021-05-05T09:30:22Z</time>
      </trkpt>
      <trkpt lat="38.087311" lon="-0.911201">
        <ele>38.132</ele>
        <time>2021-05-05T09:30:24Z</time>
      </trkpt>
      <trkpt lat="38.087285" lon="-0.911091">
        <ele>37.927</ele>
        <time>2021-05-05T09:30:26Z</time>
      </trkpt>
      <trkpt lat="38.087256" lon="-0.910985">
        <ele>37.647</ele>
        <time>2021-05-05T09:30:28Z</time>
      </trkpt>
      <trkpt lat="38.087241" lon="-0.910930">
        <ele>37.420</ele>
        <time>2021-05-05T09:30:29Z</time>
      </trkpt>
      <trkpt lat="38.087227" lon="-0.910873">
        <ele>37.650</ele>
        <time>2021-05-05T09:30:30Z</time>
      </trkpt>
      <trkpt lat="38.087197" lon="-0.910757">
        <ele>37.612</ele>
        <time>2021-05-05T09:30:32Z</time>
      </trkpt>
      <trkpt lat="38.087162" lon="-0.910645">
        <ele>37.759</ele>
        <time>2021-05-05T09:30:34Z</time>
      </trkpt>
      <trkpt lat="38.087126" lon="-0.910540">
        <ele>37.884</ele>
        <time>2021-05-05T09:30:36Z</time>
      </trkpt>
      <trkpt lat="38.087088" lon="-0.910439">
        <ele>37.983</ele>
        <time>2021-05-05T09:30:38Z</time>
      </trkpt>
      <trkpt lat="38.087051" lon="-0.910348">
        <ele>37.625</ele>
        <time>2021-05-05T09:30:40Z</time>
      </trkpt>
      <trkpt lat="38.087028" lon="-0.910293">
        <ele>37.517</ele>
        <time>2021-05-05T09:30:41Z</time>
      </trkpt>
      <trkpt lat="38.087005" lon="-0.910239">
        <ele>37.408</ele>
        <time>2021-05-05T09:30:42Z</time>
      </trkpt>
      <trkpt lat="38.086961" lon="-0.910135">
        <ele>37.385</ele>
        <time>2021-05-05T09:30:44Z</time>
      </trkpt>
      <trkpt lat="38.086917" lon="-0.910032">
        <ele>37.510</ele>
        <time>2021-05-05T09:30:46Z</time>
      </trkpt>
      <trkpt lat="38.086894" lon="-0.909980">
        <ele>37.350</ele>
        <time>2021-05-05T09:30:47Z</time>
      </trkpt>
      <trkpt lat="38.086873" lon="-0.909928">
        <ele>37.753</ele>
        <time>2021-05-05T09:30:48Z</time>
      </trkpt>
      <trkpt lat="38.086853" lon="-0.909876">
        <ele>37.513</ele>
        <time>2021-05-05T09:30:49Z</time>
      </trkpt>
      <trkpt lat="38.086813" lon="-0.909771">
        <ele>37.575</ele>
        <time>2021-05-05T09:30:51Z</time>
      </trkpt>
      <trkpt lat="38.086770" lon="-0.909664">
        <ele>37.422</ele>
        <time>2021-05-05T09:30:53Z</time>
      </trkpt>
      <trkpt lat="38.086726" lon="-0.909564">
        <ele>37.587</ele>
        <time>2021-05-05T09:30:55Z</time>
      </trkpt>
      <trkpt lat="38.086687" lon="-0.909461">
        <ele>37.712</ele>
        <time>2021-05-05T09:30:57Z</time>
      </trkpt>
      <trkpt lat="38.086652" lon="-0.909353">
        <ele>38.032</ele>
        <time>2021-05-05T09:30:59Z</time>
      </trkpt>
      <trkpt lat="38.086619" lon="-0.909242">
        <ele>38.105</ele>
        <time>2021-05-05T09:31:01Z</time>
      </trkpt>
      <trkpt lat="38.086592" lon="-0.909144">
        <ele>37.808</ele>
        <time>2021-05-05T09:31:03Z</time>
      </trkpt>
      <trkpt lat="38.086564" lon="-0.909035">
        <ele>37.618</ele>
        <time>2021-05-05T09:31:05Z</time>
      </trkpt>
      <trkpt lat="38.086541" lon="-0.908943">
        <ele>37.533</ele>
        <time>2021-05-05T09:31:07Z</time>
      </trkpt>
      <trkpt lat="38.086533" lon="-0.908850">
        <ele>37.773</ele>
        <time>2021-05-05T09:31:08Z</time>
      </trkpt>
      <trkpt lat="38.086519" lon="-0.908770">
        <ele>37.526</ele>
        <time>2021-05-05T09:31:10Z</time>
      </trkpt>
      <trkpt lat="38.086526" lon="-0.908700">
        <ele>37.636</ele>
        <time>2021-05-05T09:31:11Z</time>
      </trkpt>
      <trkpt lat="38.086483" lon="-0.908602">
        <ele>37.478</ele>
        <time>2021-05-05T09:31:13Z</time>
      </trkpt>
      <trkpt lat="38.086458" lon="-0.908487">
        <ele>37.365</ele>
        <time>2021-05-05T09:31:15Z</time>
      </trkpt>
      <trkpt lat="38.086439" lon="-0.908384">
        <ele>37.120</ele>
        <time>2021-05-05T09:31:17Z</time>
      </trkpt>
      <trkpt lat="38.086432" lon="-0.908267">
        <ele>37.258</ele>
        <time>2021-05-05T09:31:19Z</time>
      </trkpt>
      <trkpt lat="38.086409" lon="-0.908137">
        <ele>37.152</ele>
        <time>2021-05-05T09:31:22Z</time>
      </trkpt>
      <trkpt lat="38.086397" lon="-0.908051">
        <ele>36.817</ele>
        <time>2021-05-05T09:31:23Z</time>
      </trkpt>
      <trkpt lat="38.086381" lon="-0.907949">
        <ele>36.308</ele>
        <time>2021-05-05T09:31:25Z</time>
      </trkpt>
      <trkpt lat="38.086368" lon="-0.907828">
        <ele>36.352</ele>
        <time>2021-05-05T09:31:27Z</time>
      </trkpt>
      <trkpt lat="38.086362" lon="-0.907697">
        <ele>36.297</ele>
        <time>2021-05-05T09:31:29Z</time>
      </trkpt>
      <trkpt lat="38.086351" lon="-0.907584">
        <ele>36.527</ele>
        <time>2021-05-05T09:31:31Z</time>
      </trkpt>
      <trkpt lat="38.086344" lon="-0.907471">
        <ele>36.650</ele>
        <time>2021-05-05T09:31:33Z</time>
      </trkpt>
      <trkpt lat="38.086339" lon="-0.907354">
        <ele>36.840</ele>
        <time>2021-05-05T09:31:35Z</time>
      </trkpt>
      <trkpt lat="38.086337" lon="-0.907237">
        <ele>36.812</ele>
        <time>2021-05-05T09:31:37Z</time>
      </trkpt>
      <trkpt lat="38.086343" lon="-0.907120">
        <ele>36.919</ele>
        <time>2021-05-05T09:31:39Z</time>
      </trkpt>
      <trkpt lat="38.086349" lon="-0.907003">
        <ele>37.214</ele>
        <time>2021-05-05T09:31:41Z</time>
      </trkpt>
      <trkpt lat="38.086355" lon="-0.906889">
        <ele>37.362</ele>
        <time>2021-05-05T09:31:43Z</time>
      </trkpt>
      <trkpt lat="38.086361" lon="-0.906790">
        <ele>37.283</ele>
        <time>2021-05-05T09:31:45Z</time>
      </trkpt>
      <trkpt lat="38.086365" lon="-0.906729">
        <ele>37.211</ele>
        <time>2021-05-05T09:31:46Z</time>
      </trkpt>
      <trkpt lat="38.086371" lon="-0.906671">
        <ele>37.308</ele>
        <time>2021-05-05T09:31:47Z</time>
      </trkpt>
      <trkpt lat="38.086384" lon="-0.906576">
        <ele>37.483</ele>
        <time>2021-05-05T09:31:49Z</time>
      </trkpt>
      <trkpt lat="38.086386" lon="-0.906479">
        <ele>37.518</ele>
        <time>2021-05-05T09:31:50Z</time>
      </trkpt>
      <trkpt lat="38.086390" lon="-0.906412">
        <ele>37.698</ele>
        <time>2021-05-05T09:31:52Z</time>
      </trkpt>
      <trkpt lat="38.086398" lon="-0.906310">
        <ele>37.521</ele>
        <time>2021-05-05T09:31:53Z</time>
      </trkpt>
      <trkpt lat="38.086403" lon="-0.906238">
        <ele>37.511</ele>
        <time>2021-05-05T09:31:55Z</time>
      </trkpt>
      <trkpt lat="38.086411" lon="-0.906159">
        <ele>37.683</ele>
        <time>2021-05-05T09:31:56Z</time>
      </trkpt>
      <trkpt lat="38.086418" lon="-0.906095">
        <ele>37.610</ele>
        <time>2021-05-05T09:31:57Z</time>
      </trkpt>
      <trkpt lat="38.086428" lon="-0.906003">
        <ele>37.895</ele>
        <time>2021-05-05T09:31:59Z</time>
      </trkpt>
      <trkpt lat="38.086439" lon="-0.905881">
        <ele>38.033</ele>
        <time>2021-05-05T09:32:01Z</time>
      </trkpt>
      <trkpt lat="38.086441" lon="-0.905822">
        <ele>38.023</ele>
        <time>2021-05-05T09:32:02Z</time>
      </trkpt>
      <trkpt lat="38.086449" lon="-0.905721">
        <ele>38.115</ele>
        <time>2021-05-05T09:32:04Z</time>
      </trkpt>
      <trkpt lat="38.086450" lon="-0.905617">
        <ele>38.308</ele>
        <time>2021-05-05T09:32:06Z</time>
      </trkpt>
      <trkpt lat="38.086440" lon="-0.905495">
        <ele>38.120</ele>
        <time>2021-05-05T09:32:08Z</time>
      </trkpt>
      <trkpt lat="38.086435" lon="-0.905368">
        <ele>38.065</ele>
        <time>2021-05-05T09:32:10Z</time>
      </trkpt>
      <trkpt lat="38.086432" lon="-0.905306">
        <ele>38.135</ele>
        <time>2021-05-05T09:32:11Z</time>
      </trkpt>
      <trkpt lat="38.086429" lon="-0.905246">
        <ele>38.198</ele>
        <time>2021-05-05T09:32:12Z</time>
      </trkpt>
      <trkpt lat="38.086426" lon="-0.905187">
        <ele>38.288</ele>
        <time>2021-05-05T09:32:13Z</time>
      </trkpt>
      <trkpt lat="38.086422" lon="-0.905127">
        <ele>38.460</ele>
        <time>2021-05-05T09:32:14Z</time>
      </trkpt>
      <trkpt lat="38.086412" lon="-0.905010">
        <ele>38.637</ele>
        <time>2021-05-05T09:32:16Z</time>
      </trkpt>
      <trkpt lat="38.086399" lon="-0.904896">
        <ele>38.242</ele>
        <time>2021-05-05T09:32:18Z</time>
      </trkpt>
      <trkpt lat="38.086386" lon="-0.904779">
        <ele>38.136</ele>
        <time>2021-05-05T09:32:20Z</time>
      </trkpt>
      <trkpt lat="38.086379" lon="-0.904720">
        <ele>38.017</ele>
        <time>2021-05-05T09:32:21Z</time>
      </trkpt>
      <trkpt lat="38.086369" lon="-0.904660">
        <ele>37.918</ele>
        <time>2021-05-05T09:32:22Z</time>
      </trkpt>
      <trkpt lat="38.086361" lon="-0.904603">
        <ele>38.108</ele>
        <time>2021-05-05T09:32:23Z</time>
      </trkpt>
      <trkpt lat="38.086341" lon="-0.904487">
        <ele>38.710</ele>
        <time>2021-05-05T09:32:25Z</time>
      </trkpt>
      <trkpt lat="38.086322" lon="-0.904364">
        <ele>38.725</ele>
        <time>2021-05-05T09:32:27Z</time>
      </trkpt>
      <trkpt lat="38.086303" lon="-0.904240">
        <ele>38.585</ele>
        <time>2021-05-05T09:32:29Z</time>
      </trkpt>
      <trkpt lat="38.086283" lon="-0.904115">
        <ele>38.688</ele>
        <time>2021-05-05T09:32:31Z</time>
      </trkpt>
      <trkpt lat="38.086265" lon="-0.903998">
        <ele>38.428</ele>
        <time>2021-05-05T09:32:33Z</time>
      </trkpt>
      <trkpt lat="38.086245" lon="-0.903879">
        <ele>38.230</ele>
        <time>2021-05-05T09:32:35Z</time>
      </trkpt>
      <trkpt lat="38.086238" lon="-0.903817">
        <ele>37.827</ele>
        <time>2021-05-05T09:32:36Z</time>
      </trkpt>
      <trkpt lat="38.086227" lon="-0.903699">
        <ele>37.792</ele>
        <time>2021-05-05T09:32:38Z</time>
      </trkpt>
      <trkpt lat="38.086212" lon="-0.903584">
        <ele>37.677</ele>
        <time>2021-05-05T09:32:40Z</time>
      </trkpt>
      <trkpt lat="38.086196" lon="-0.903471">
        <ele>37.861</ele>
        <time>2021-05-05T09:32:42Z</time>
      </trkpt>
      <trkpt lat="38.086188" lon="-0.903412">
        <ele>37.927</ele>
        <time>2021-05-05T09:32:43Z</time>
      </trkpt>
      <trkpt lat="38.086179" lon="-0.903353">
        <ele>38.108</ele>
        <time>2021-05-05T09:32:44Z</time>
      </trkpt>
      <trkpt lat="38.086160" lon="-0.903236">
        <ele>38.064</ele>
        <time>2021-05-05T09:32:46Z</time>
      </trkpt>
      <trkpt lat="38.086138" lon="-0.903117">
        <ele>38.189</ele>
        <time>2021-05-05T09:32:48Z</time>
      </trkpt>
      <trkpt lat="38.086127" lon="-0.903057">
        <ele>38.229</ele>
        <time>2021-05-05T09:32:49Z</time>
      </trkpt>
      <trkpt lat="38.086117" lon="-0.902997">
        <ele>38.372</ele>
        <time>2021-05-05T09:32:50Z</time>
      </trkpt>
      <trkpt lat="38.086099" lon="-0.902882">
        <ele>38.482</ele>
        <time>2021-05-05T09:32:52Z</time>
      </trkpt>
      <trkpt lat="38.086091" lon="-0.902824">
        <ele>38.424</ele>
        <time>2021-05-05T09:32:53Z</time>
      </trkpt>
      <trkpt lat="38.086083" lon="-0.902764">
        <ele>38.561</ele>
        <time>2021-05-05T09:32:54Z</time>
      </trkpt>
      <trkpt lat="38.086063" lon="-0.902642">
        <ele>38.646</ele>
        <time>2021-05-05T09:32:56Z</time>
      </trkpt>
      <trkpt lat="38.086045" lon="-0.902522">
        <ele>39.093</ele>
        <time>2021-05-05T09:32:58Z</time>
      </trkpt>
      <trkpt lat="38.086020" lon="-0.902405">
        <ele>38.765</ele>
        <time>2021-05-05T09:33:00Z</time>
      </trkpt>
      <trkpt lat="38.086007" lon="-0.902346">
        <ele>38.921</ele>
        <time>2021-05-05T09:33:01Z</time>
      </trkpt>
      <trkpt lat="38.085993" lon="-0.902287">
        <ele>38.808</ele>
        <time>2021-05-05T09:33:02Z</time>
      </trkpt>
      <trkpt lat="38.085963" lon="-0.902173">
        <ele>38.826</ele>
        <time>2021-05-05T09:33:04Z</time>
      </trkpt>
      <trkpt lat="38.085949" lon="-0.902115">
        <ele>38.961</ele>
        <time>2021-05-05T09:33:05Z</time>
      </trkpt>
      <trkpt lat="38.085920" lon="-0.902002">
        <ele>39.141</ele>
        <time>2021-05-05T09:33:07Z</time>
      </trkpt>
      <trkpt lat="38.085907" lon="-0.901945">
        <ele>39.254</ele>
        <time>2021-05-05T09:33:08Z</time>
      </trkpt>
      <trkpt lat="38.085875" lon="-0.901834">
        <ele>39.024</ele>
        <time>2021-05-05T09:33:10Z</time>
      </trkpt>
      <trkpt lat="38.085834" lon="-0.901730">
        <ele>39.036</ele>
        <time>2021-05-05T09:33:12Z</time>
      </trkpt>
      <trkpt lat="38.085799" lon="-0.901621">
        <ele>39.183</ele>
        <time>2021-05-05T09:33:14Z</time>
      </trkpt>
      <trkpt lat="38.085781" lon="-0.901566">
        <ele>39.138</ele>
        <time>2021-05-05T09:33:15Z</time>
      </trkpt>
      <trkpt lat="38.085760" lon="-0.901513">
        <ele>38.973</ele>
        <time>2021-05-05T09:33:16Z</time>
      </trkpt>
      <trkpt lat="38.085718" lon="-0.901408">
        <ele>39.085</ele>
        <time>2021-05-05T09:33:18Z</time>
      </trkpt>
      <trkpt lat="38.085695" lon="-0.901354">
        <ele>38.813</ele>
        <time>2021-05-05T09:33:19Z</time>
      </trkpt>
      <trkpt lat="38.085646" lon="-0.901247">
        <ele>38.908</ele>
        <time>2021-05-05T09:33:21Z</time>
      </trkpt>
      <trkpt lat="38.085599" lon="-0.901147">
        <ele>38.844</ele>
        <time>2021-05-05T09:33:23Z</time>
      </trkpt>
      <trkpt lat="38.085554" lon="-0.901061">
        <ele>38.649</ele>
        <time>2021-05-05T09:33:25Z</time>
      </trkpt>
      <trkpt lat="38.085504" lon="-0.900960">
        <ele>38.329</ele>
        <time>2021-05-05T09:33:27Z</time>
      </trkpt>
      <trkpt lat="38.085459" lon="-0.900880">
        <ele>38.052</ele>
        <time>2021-05-05T09:33:29Z</time>
      </trkpt>
      <trkpt lat="38.085414" lon="-0.900803">
        <ele>37.852</ele>
        <time>2021-05-05T09:33:31Z</time>
      </trkpt>
      <trkpt lat="38.085370" lon="-0.900739">
        <ele>37.664</ele>
        <time>2021-05-05T09:33:32Z</time>
      </trkpt>
      <trkpt lat="38.085332" lon="-0.900660">
        <ele>37.431</ele>
        <time>2021-05-05T09:33:34Z</time>
      </trkpt>
      <trkpt lat="38.085305" lon="-0.900605">
        <ele>37.486</ele>
        <time>2021-05-05T09:33:35Z</time>
      </trkpt>
      <trkpt lat="38.085267" lon="-0.900528">
        <ele>37.219</ele>
        <time>2021-05-05T09:33:37Z</time>
      </trkpt>
      <trkpt lat="38.085240" lon="-0.900481">
        <ele>37.109</ele>
        <time>2021-05-05T09:33:38Z</time>
      </trkpt>
      <trkpt lat="38.085187" lon="-0.900386">
        <ele>37.519</ele>
        <time>2021-05-05T09:33:40Z</time>
      </trkpt>
      <trkpt lat="38.085133" lon="-0.900294">
        <ele>37.508</ele>
        <time>2021-05-05T09:33:41Z</time>
      </trkpt>
      <trkpt lat="38.085096" lon="-0.900232">
        <ele>37.398</ele>
        <time>2021-05-05T09:33:43Z</time>
      </trkpt>
      <trkpt lat="38.085064" lon="-0.900174">
        <ele>37.233</ele>
        <time>2021-05-05T09:33:44Z</time>
      </trkpt>
      <trkpt lat="38.085034" lon="-0.900117">
        <ele>37.113</ele>
        <time>2021-05-05T09:33:45Z</time>
      </trkpt>
      <trkpt lat="38.085007" lon="-0.900067">
        <ele>37.366</ele>
        <time>2021-05-05T09:33:47Z</time>
      </trkpt>
      <trkpt lat="38.084955" lon="-0.899978">
        <ele>37.246</ele>
        <time>2021-05-05T09:33:49Z</time>
      </trkpt>
      <trkpt lat="38.084916" lon="-0.899908">
        <ele>37.428</ele>
        <time>2021-05-05T09:33:50Z</time>
      </trkpt>
      <trkpt lat="38.084884" lon="-0.899856">
        <ele>37.595</ele>
        <time>2021-05-05T09:33:52Z</time>
      </trkpt>
      <trkpt lat="38.084850" lon="-0.899792">
        <ele>37.710</ele>
        <time>2021-05-05T09:33:53Z</time>
      </trkpt>
      <trkpt lat="38.084814" lon="-0.899724">
        <ele>37.943</ele>
        <time>2021-05-05T09:33:55Z</time>
      </trkpt>
      <trkpt lat="38.084781" lon="-0.899654">
        <ele>37.964</ele>
        <time>2021-05-05T09:33:58Z</time>
      </trkpt>
      <trkpt lat="38.084748" lon="-0.899597">
        <ele>38.510</ele>
        <time>2021-05-05T09:33:59Z</time>
      </trkpt>
      <trkpt lat="38.084719" lon="-0.899551">
        <ele>38.608</ele>
        <time>2021-05-05T09:34:01Z</time>
      </trkpt>
      <trkpt lat="38.084690" lon="-0.899505">
        <ele>38.541</ele>
        <time>2021-05-05T09:34:03Z</time>
      </trkpt>
      <trkpt lat="38.084654" lon="-0.899456">
        <ele>38.736</ele>
        <time>2021-05-05T09:34:05Z</time>
      </trkpt>
      <trkpt lat="38.084619" lon="-0.899398">
        <ele>38.616</ele>
        <time>2021-05-05T09:34:08Z</time>
      </trkpt>
      <trkpt lat="38.084604" lon="-0.899335">
        <ele>38.539</ele>
        <time>2021-05-05T09:34:11Z</time>
      </trkpt>
      <trkpt lat="38.084636" lon="-0.899292">
        <ele>38.699</ele>
        <time>2021-05-05T09:34:14Z</time>
      </trkpt>
      <trkpt lat="38.084681" lon="-0.899279">
        <ele>38.671</ele>
        <time>2021-05-05T09:34:16Z</time>
      </trkpt>
      <trkpt lat="38.084730" lon="-0.899268">
        <ele>38.798</ele>
        <time>2021-05-05T09:34:18Z</time>
      </trkpt>
      <trkpt lat="38.084809" lon="-0.899259">
        <ele>39.163</ele>
        <time>2021-05-05T09:34:22Z</time>
      </trkpt>
      <trkpt lat="38.084854" lon="-0.899255">
        <ele>39.053</ele>
        <time>2021-05-05T09:34:23Z</time>
      </trkpt>
      <trkpt lat="38.084927" lon="-0.899243">
        <ele>39.004</ele>
        <time>2021-05-05T09:34:26Z</time>
      </trkpt>
      <trkpt lat="38.084991" lon="-0.899224">
        <ele>39.114</ele>
        <time>2021-05-05T09:34:28Z</time>
      </trkpt>
      <trkpt lat="38.085057" lon="-0.899207">
        <ele>39.208</ele>
        <time>2021-05-05T09:34:30Z</time>
      </trkpt>
      <trkpt lat="38.085121" lon="-0.899191">
        <ele>39.112</ele>
        <time>2021-05-05T09:34:31Z</time>
      </trkpt>
      <trkpt lat="38.085188" lon="-0.899177">
        <ele>38.887</ele>
        <time>2021-05-05T09:34:33Z</time>
      </trkpt>
      <trkpt lat="38.085249" lon="-0.899161">
        <ele>38.357</ele>
        <time>2021-05-05T09:34:34Z</time>
      </trkpt>
      <trkpt lat="38.085294" lon="-0.899145">
        <ele>38.180</ele>
        <time>2021-05-05T09:34:35Z</time>
      </trkpt>
      <trkpt lat="38.085378" lon="-0.899118">
        <ele>38.140</ele>
        <time>2021-05-05T09:34:38Z</time>
      </trkpt>
      <trkpt lat="38.085442" lon="-0.899098">
        <ele>37.932</ele>
        <time>2021-05-05T09:34:39Z</time>
      </trkpt>
      <trkpt lat="38.085490" lon="-0.899084">
        <ele>37.699</ele>
        <time>2021-05-05T09:34:40Z</time>
      </trkpt>
      <trkpt lat="38.085588" lon="-0.899053">
        <ele>37.444</ele>
        <time>2021-05-05T09:34:42Z</time>
      </trkpt>
      <trkpt lat="38.085640" lon="-0.899034">
        <ele>37.277</ele>
        <time>2021-05-05T09:34:43Z</time>
      </trkpt>
      <trkpt lat="38.085750" lon="-0.898997">
        <ele>36.661</ele>
        <time>2021-05-05T09:34:45Z</time>
      </trkpt>
      <trkpt lat="38.085868" lon="-0.898964">
        <ele>36.727</ele>
        <time>2021-05-05T09:34:47Z</time>
      </trkpt>
      <trkpt lat="38.085929" lon="-0.898948">
        <ele>36.108</ele>
        <time>2021-05-05T09:34:48Z</time>
      </trkpt>
      <trkpt lat="38.086054" lon="-0.898918">
        <ele>35.844</ele>
        <time>2021-05-05T09:34:50Z</time>
      </trkpt>
      <trkpt lat="38.086117" lon="-0.898906">
        <ele>35.599</ele>
        <time>2021-05-05T09:34:51Z</time>
      </trkpt>
      <trkpt lat="38.086238" lon="-0.898891">
        <ele>35.479</ele>
        <time>2021-05-05T09:34:53Z</time>
      </trkpt>
      <trkpt lat="38.086296" lon="-0.898887">
        <ele>35.162</ele>
        <time>2021-05-05T09:34:54Z</time>
      </trkpt>
      <trkpt lat="38.086398" lon="-0.898881">
        <ele>35.182</ele>
        <time>2021-05-05T09:34:56Z</time>
      </trkpt>
      <trkpt lat="38.086445" lon="-0.898821">
        <ele>35.294</ele>
        <time>2021-05-05T09:34:58Z</time>
      </trkpt>
      <trkpt lat="38.086454" lon="-0.898714">
        <ele>35.221</ele>
        <time>2021-05-05T09:35:00Z</time>
      </trkpt>
      <trkpt lat="38.086446" lon="-0.898611">
        <ele>35.176</ele>
        <time>2021-05-05T09:35:02Z</time>
      </trkpt>
      <trkpt lat="38.086447" lon="-0.898535">
        <ele>34.973</ele>
        <time>2021-05-05T09:35:04Z</time>
      </trkpt>
      <trkpt lat="38.086442" lon="-0.898445">
        <ele>34.985</ele>
        <time>2021-05-05T09:35:05Z</time>
      </trkpt>
      <trkpt lat="38.086428" lon="-0.898368">
        <ele>34.813</ele>
        <time>2021-05-05T09:35:07Z</time>
      </trkpt>
      <trkpt lat="38.086417" lon="-0.898285">
        <ele>34.608</ele>
        <time>2021-05-05T09:35:09Z</time>
      </trkpt>
      <trkpt lat="38.086403" lon="-0.898188">
        <ele>34.434</ele>
        <time>2021-05-05T09:35:10Z</time>
      </trkpt>
      <trkpt lat="38.086394" lon="-0.898126">
        <ele>34.459</ele>
        <time>2021-05-05T09:35:12Z</time>
      </trkpt>
      <trkpt lat="38.086385" lon="-0.898049">
        <ele>34.579</ele>
        <time>2021-05-05T09:35:13Z</time>
      </trkpt>
      <trkpt lat="38.086372" lon="-0.897971">
        <ele>34.582</ele>
        <time>2021-05-05T09:35:14Z</time>
      </trkpt>
      <trkpt lat="38.086355" lon="-0.897881">
        <ele>34.592</ele>
        <time>2021-05-05T09:35:16Z</time>
      </trkpt>
      <trkpt lat="38.086339" lon="-0.897799">
        <ele>34.764</ele>
        <time>2021-05-05T09:35:18Z</time>
      </trkpt>
      <trkpt lat="38.086294" lon="-0.897702">
        <ele>34.741</ele>
        <time>2021-05-05T09:35:19Z</time>
      </trkpt>
      <trkpt lat="38.086250" lon="-0.897622">
        <ele>34.736</ele>
        <time>2021-05-05T09:35:21Z</time>
      </trkpt>
      <trkpt lat="38.086223" lon="-0.897508">
        <ele>34.514</ele>
        <time>2021-05-05T09:35:23Z</time>
      </trkpt>
      <trkpt lat="38.086199" lon="-0.897416">
        <ele>34.754</ele>
        <time>2021-05-05T09:35:25Z</time>
      </trkpt>
      <trkpt lat="38.086206" lon="-0.897318">
        <ele>34.609</ele>
        <time>2021-05-05T09:35:26Z</time>
      </trkpt>
      <trkpt lat="38.086205" lon="-0.897259">
        <ele>34.808</ele>
        <time>2021-05-05T09:35:28Z</time>
      </trkpt>
      <trkpt lat="38.086215" lon="-0.897166">
        <ele>34.828</ele>
        <time>2021-05-05T09:35:29Z</time>
      </trkpt>
      <trkpt lat="38.086217" lon="-0.897104">
        <ele>34.633</ele>
        <time>2021-05-05T09:35:31Z</time>
      </trkpt>
      <trkpt lat="38.086203" lon="-0.897006">
        <ele>34.433</ele>
        <time>2021-05-05T09:35:33Z</time>
      </trkpt>
      <trkpt lat="38.086191" lon="-0.896935">
        <ele>34.066</ele>
        <time>2021-05-05T09:35:34Z</time>
      </trkpt>
      <trkpt lat="38.086184" lon="-0.896868">
        <ele>34.226</ele>
        <time>2021-05-05T09:35:36Z</time>
      </trkpt>
      <trkpt lat="38.086185" lon="-0.896789">
        <ele>34.128</ele>
        <time>2021-05-05T09:35:37Z</time>
      </trkpt>
      <trkpt lat="38.086188" lon="-0.896722">
        <ele>34.225</ele>
        <time>2021-05-05T09:35:39Z</time>
      </trkpt>
      <trkpt lat="38.086187" lon="-0.896639">
        <ele>34.420</ele>
        <time>2021-05-05T09:35:40Z</time>
      </trkpt>
      <trkpt lat="38.086179" lon="-0.896534">
        <ele>34.547</ele>
        <time>2021-05-05T09:35:42Z</time>
      </trkpt>
      <trkpt lat="38.086180" lon="-0.896423">
        <ele>34.829</ele>
        <time>2021-05-05T09:35:44Z</time>
      </trkpt>
      <trkpt lat="38.086188" lon="-0.896355">
        <ele>34.721</ele>
        <time>2021-05-05T09:35:46Z</time>
      </trkpt>
      <trkpt lat="38.086215" lon="-0.896255">
        <ele>35.008</ele>
        <time>2021-05-05T09:35:47Z</time>
      </trkpt>
      <trkpt lat="38.086225" lon="-0.896198">
        <ele>35.331</ele>
        <time>2021-05-05T09:35:49Z</time>
      </trkpt>
      <trkpt lat="38.086232" lon="-0.896133">
        <ele>35.826</ele>
        <time>2021-05-05T09:35:50Z</time>
      </trkpt>
      <trkpt lat="38.086240" lon="-0.896053">
        <ele>35.796</ele>
        <time>2021-05-05T09:35:52Z</time>
      </trkpt>
      <trkpt lat="38.086258" lon="-0.895967">
        <ele>35.899</ele>
        <time>2021-05-05T09:35:54Z</time>
      </trkpt>
      <trkpt lat="38.086273" lon="-0.895894">
        <ele>35.839</ele>
        <time>2021-05-05T09:35:55Z</time>
      </trkpt>
      <trkpt lat="38.086279" lon="-0.895824">
        <ele>35.871</ele>
        <time>2021-05-05T09:35:56Z</time>
      </trkpt>
      <trkpt lat="38.086289" lon="-0.895741">
        <ele>36.178</ele>
        <time>2021-05-05T09:35:58Z</time>
      </trkpt>
      <trkpt lat="38.086292" lon="-0.895681">
        <ele>36.153</ele>
        <time>2021-05-05T09:35:59Z</time>
      </trkpt>
      <trkpt lat="38.086288" lon="-0.895558">
        <ele>36.589</ele>
        <time>2021-05-05T09:36:01Z</time>
      </trkpt>
      <trkpt lat="38.086288" lon="-0.895439">
        <ele>36.406</ele>
        <time>2021-05-05T09:36:03Z</time>
      </trkpt>
      <trkpt lat="38.086279" lon="-0.895323">
        <ele>36.526</ele>
        <time>2021-05-05T09:36:05Z</time>
      </trkpt>
      <trkpt lat="38.086254" lon="-0.895206">
        <ele>36.208</ele>
        <time>2021-05-05T09:36:07Z</time>
      </trkpt>
      <trkpt lat="38.086227" lon="-0.895090">
        <ele>35.795</ele>
        <time>2021-05-05T09:36:09Z</time>
      </trkpt>
      <trkpt lat="38.086214" lon="-0.895029">
        <ele>35.410</ele>
        <time>2021-05-05T09:36:10Z</time>
      </trkpt>
      <trkpt lat="38.086189" lon="-0.894908">
        <ele>35.240</ele>
        <time>2021-05-05T09:36:12Z</time>
      </trkpt>
      <trkpt lat="38.086163" lon="-0.894786">
        <ele>35.053</ele>
        <time>2021-05-05T09:36:14Z</time>
      </trkpt>
      <trkpt lat="38.086147" lon="-0.894661">
        <ele>35.023</ele>
        <time>2021-05-05T09:36:16Z</time>
      </trkpt>
      <trkpt lat="38.086142" lon="-0.894597">
        <ele>35.135</ele>
        <time>2021-05-05T09:36:17Z</time>
      </trkpt>
      <trkpt lat="38.086114" lon="-0.894478">
        <ele>35.152</ele>
        <time>2021-05-05T09:36:19Z</time>
      </trkpt>
      <trkpt lat="38.086072" lon="-0.894374">
        <ele>34.987</ele>
        <time>2021-05-05T09:36:21Z</time>
      </trkpt>
      <trkpt lat="38.086018" lon="-0.894314">
        <ele>34.828</ele>
        <time>2021-05-05T09:36:23Z</time>
      </trkpt>
      <trkpt lat="38.085985" lon="-0.894265">
        <ele>34.789</ele>
        <time>2021-05-05T09:36:24Z</time>
      </trkpt>
      <trkpt lat="38.085953" lon="-0.894201">
        <ele>34.717</ele>
        <time>2021-05-05T09:36:26Z</time>
      </trkpt>
      <trkpt lat="38.085951" lon="-0.894132">
        <ele>34.708</ele>
        <time>2021-05-05T09:36:27Z</time>
      </trkpt>
      <trkpt lat="38.085968" lon="-0.894058">
        <ele>34.789</ele>
        <time>2021-05-05T09:36:29Z</time>
      </trkpt>
      <trkpt lat="38.085983" lon="-0.894004">
        <ele>34.774</ele>
        <time>2021-05-05T09:36:31Z</time>
      </trkpt>
      <trkpt lat="38.086007" lon="-0.893919">
        <ele>34.774</ele>
        <time>2021-05-05T09:36:32Z</time>
      </trkpt>
      <trkpt lat="38.086028" lon="-0.893822">
        <ele>34.757</ele>
        <time>2021-05-05T09:36:34Z</time>
      </trkpt>
      <trkpt lat="38.086039" lon="-0.893702">
        <ele>34.717</ele>
        <time>2021-05-05T09:36:37Z</time>
      </trkpt>
      <trkpt lat="38.086025" lon="-0.893627">
        <ele>34.719</ele>
        <time>2021-05-05T09:36:38Z</time>
      </trkpt>
      <trkpt lat="38.086002" lon="-0.893557">
        <ele>34.776</ele>
        <time>2021-05-05T09:36:40Z</time>
      </trkpt>
      <trkpt lat="38.085955" lon="-0.893469">
        <ele>34.711</ele>
        <time>2021-05-05T09:36:42Z</time>
      </trkpt>
      <trkpt lat="38.085923" lon="-0.893417">
        <ele>34.797</ele>
        <time>2021-05-05T09:36:43Z</time>
      </trkpt>
      <trkpt lat="38.085884" lon="-0.893341">
        <ele>34.723</ele>
        <time>2021-05-05T09:36:44Z</time>
      </trkpt>
      <trkpt lat="38.085859" lon="-0.893276">
        <ele>34.725</ele>
        <time>2021-05-05T09:36:45Z</time>
      </trkpt>
      <trkpt lat="38.085838" lon="-0.893210">
        <ele>34.708</ele>
        <time>2021-05-05T09:36:46Z</time>
      </trkpt>
      <trkpt lat="38.085830" lon="-0.893144">
        <ele>34.786</ele>
        <time>2021-05-05T09:36:48Z</time>
      </trkpt>
      <trkpt lat="38.085831" lon="-0.893060">
        <ele>34.711</ele>
        <time>2021-05-05T09:36:49Z</time>
      </trkpt>
      <trkpt lat="38.085840" lon="-0.892977">
        <ele>34.751</ele>
        <time>2021-05-05T09:36:51Z</time>
      </trkpt>
      <trkpt lat="38.085851" lon="-0.892906">
        <ele>34.754</ele>
        <time>2021-05-05T09:36:52Z</time>
      </trkpt>
      <trkpt lat="38.085869" lon="-0.892828">
        <ele>34.734</ele>
        <time>2021-05-05T09:36:53Z</time>
      </trkpt>
      <trkpt lat="38.085886" lon="-0.892766">
        <ele>34.746</ele>
        <time>2021-05-05T09:36:55Z</time>
      </trkpt>
      <trkpt lat="38.085905" lon="-0.892691">
        <ele>34.783</ele>
        <time>2021-05-05T09:36:56Z</time>
      </trkpt>
      <trkpt lat="38.085920" lon="-0.892602">
        <ele>34.798</ele>
        <time>2021-05-05T09:36:58Z</time>
      </trkpt>
      <trkpt lat="38.085927" lon="-0.892531">
        <ele>34.791</ele>
        <time>2021-05-05T09:37:00Z</time>
      </trkpt>
      <trkpt lat="38.085936" lon="-0.892463">
        <ele>34.781</ele>
        <time>2021-05-05T09:37:01Z</time>
      </trkpt>
      <trkpt lat="38.085973" lon="-0.892379">
        <ele>34.719</ele>
        <time>2021-05-05T09:37:04Z</time>
      </trkpt>
      <trkpt lat="38.085972" lon="-0.892300">
        <ele>34.708</ele>
        <time>2021-05-05T09:37:05Z</time>
      </trkpt>
      <trkpt lat="38.085974" lon="-0.892230">
        <ele>34.776</ele>
        <time>2021-05-05T09:37:07Z</time>
      </trkpt>
      <trkpt lat="38.085997" lon="-0.892136">
        <ele>34.731</ele>
        <time>2021-05-05T09:37:08Z</time>
      </trkpt>
      <trkpt lat="38.086023" lon="-0.892066">
        <ele>34.711</ele>
        <time>2021-05-05T09:37:10Z</time>
      </trkpt>
      <trkpt lat="38.086053" lon="-0.891996">
        <ele>34.734</ele>
        <time>2021-05-05T09:37:12Z</time>
      </trkpt>
      <trkpt lat="38.086085" lon="-0.891915">
        <ele>34.784</ele>
        <time>2021-05-05T09:37:13Z</time>
      </trkpt>
      <trkpt lat="38.086101" lon="-0.891856">
        <ele>34.746</ele>
        <time>2021-05-05T09:37:15Z</time>
      </trkpt>
      <trkpt lat="38.086108" lon="-0.891782">
        <ele>34.723</ele>
        <time>2021-05-05T09:37:16Z</time>
      </trkpt>
      <trkpt lat="38.086120" lon="-0.891725">
        <ele>34.788</ele>
        <time>2021-05-05T09:37:17Z</time>
      </trkpt>
      <trkpt lat="38.086145" lon="-0.891619">
        <ele>34.719</ele>
        <time>2021-05-05T09:37:19Z</time>
      </trkpt>
      <trkpt lat="38.086163" lon="-0.891547">
        <ele>34.609</ele>
        <time>2021-05-05T09:37:21Z</time>
      </trkpt>
      <trkpt lat="38.086202" lon="-0.891453">
        <ele>34.619</ele>
        <time>2021-05-05T09:37:22Z</time>
      </trkpt>
      <trkpt lat="38.086208" lon="-0.891372">
        <ele>34.408</ele>
        <time>2021-05-05T09:37:24Z</time>
      </trkpt>
      <trkpt lat="38.086233" lon="-0.891257">
        <ele>34.488</ele>
        <time>2021-05-05T09:37:26Z</time>
      </trkpt>
      <trkpt lat="38.086258" lon="-0.891203">
        <ele>34.623</ele>
        <time>2021-05-05T09:37:27Z</time>
      </trkpt>
      <trkpt lat="38.086309" lon="-0.891100">
        <ele>34.573</ele>
        <time>2021-05-05T09:37:29Z</time>
      </trkpt>
      <trkpt lat="38.086366" lon="-0.890995">
        <ele>34.716</ele>
        <time>2021-05-05T09:37:31Z</time>
      </trkpt>
      <trkpt lat="38.086395" lon="-0.890945">
        <ele>34.716</ele>
        <time>2021-05-05T09:37:32Z</time>
      </trkpt>
      <trkpt lat="38.086451" lon="-0.890847">
        <ele>34.838</ele>
        <time>2021-05-05T09:37:34Z</time>
      </trkpt>
      <trkpt lat="38.086497" lon="-0.890742">
        <ele>35.055</ele>
        <time>2021-05-05T09:37:36Z</time>
      </trkpt>
      <trkpt lat="38.086521" lon="-0.890690">
        <ele>34.980</ele>
        <time>2021-05-05T09:37:37Z</time>
      </trkpt>
      <trkpt lat="38.086570" lon="-0.890583">
        <ele>34.812</ele>
        <time>2021-05-05T09:37:39Z</time>
      </trkpt>
      <trkpt lat="38.086617" lon="-0.890474">
        <ele>34.832</ele>
        <time>2021-05-05T09:37:41Z</time>
      </trkpt>
      <trkpt lat="38.086667" lon="-0.890367">
        <ele>35.005</ele>
        <time>2021-05-05T09:37:43Z</time>
      </trkpt>
      <trkpt lat="38.086690" lon="-0.890317">
        <ele>34.708</ele>
        <time>2021-05-05T09:37:44Z</time>
      </trkpt>
      <trkpt lat="38.086723" lon="-0.890235">
        <ele>34.788</ele>
        <time>2021-05-05T09:37:46Z</time>
      </trkpt>
      <trkpt lat="38.086757" lon="-0.890147">
        <ele>34.583</ele>
        <time>2021-05-05T09:37:48Z</time>
      </trkpt>
      <trkpt lat="38.086777" lon="-0.890037">
        <ele>34.413</ele>
        <time>2021-05-05T09:37:50Z</time>
      </trkpt>
      <trkpt lat="38.086805" lon="-0.889961">
        <ele>34.256</ele>
        <time>2021-05-05T09:37:51Z</time>
      </trkpt>
      <trkpt lat="38.086830" lon="-0.889914">
        <ele>34.116</ele>
        <time>2021-05-05T09:37:52Z</time>
      </trkpt>
      <trkpt lat="38.086869" lon="-0.889854">
        <ele>34.088</ele>
        <time>2021-05-05T09:37:54Z</time>
      </trkpt>
      <trkpt lat="38.086934" lon="-0.889748">
        <ele>34.065</ele>
        <time>2021-05-05T09:37:56Z</time>
      </trkpt>
      <trkpt lat="38.086953" lon="-0.889687">
        <ele>34.040</ele>
        <time>2021-05-05T09:37:57Z</time>
      </trkpt>
      <trkpt lat="38.086986" lon="-0.889629">
        <ele>34.042</ele>
        <time>2021-05-05T09:37:58Z</time>
      </trkpt>
      <trkpt lat="38.087035" lon="-0.889569">
        <ele>34.022</ele>
        <time>2021-05-05T09:38:00Z</time>
      </trkpt>
      <trkpt lat="38.087096" lon="-0.889472">
        <ele>34.014</ele>
        <time>2021-05-05T09:38:02Z</time>
      </trkpt>
      <trkpt lat="38.087145" lon="-0.889369">
        <ele>34.008</ele>
        <time>2021-05-05T09:38:04Z</time>
      </trkpt>
      <trkpt lat="38.087162" lon="-0.889310">
        <ele>34.051</ele>
        <time>2021-05-05T09:38:05Z</time>
      </trkpt>
      <trkpt lat="38.087186" lon="-0.889254">
        <ele>34.016</ele>
        <time>2021-05-05T09:38:06Z</time>
      </trkpt>
      <trkpt lat="38.087214" lon="-0.889203">
        <ele>34.066</ele>
        <time>2021-05-05T09:38:07Z</time>
      </trkpt>
      <trkpt lat="38.087269" lon="-0.889103">
        <ele>34.099</ele>
        <time>2021-05-05T09:38:09Z</time>
      </trkpt>
      <trkpt lat="38.087296" lon="-0.889053">
        <ele>34.079</ele>
        <time>2021-05-05T09:38:10Z</time>
      </trkpt>
      <trkpt lat="38.087343" lon="-0.888949">
        <ele>34.091</ele>
        <time>2021-05-05T09:38:12Z</time>
      </trkpt>
      <trkpt lat="38.087365" lon="-0.888894">
        <ele>34.058</ele>
        <time>2021-05-05T09:38:13Z</time>
      </trkpt>
      <trkpt lat="38.087408" lon="-0.888790">
        <ele>34.093</ele>
        <time>2021-05-05T09:38:15Z</time>
      </trkpt>
      <trkpt lat="38.087432" lon="-0.888740">
        <ele>34.045</ele>
        <time>2021-05-05T09:38:16Z</time>
      </trkpt>
      <trkpt lat="38.087457" lon="-0.888689">
        <ele>34.047</ele>
        <time>2021-05-05T09:38:17Z</time>
      </trkpt>
      <trkpt lat="38.087499" lon="-0.888584">
        <ele>34.011</ele>
        <time>2021-05-05T09:38:19Z</time>
      </trkpt>
      <trkpt lat="38.087542" lon="-0.888477">
        <ele>34.008</ele>
        <time>2021-05-05T09:38:21Z</time>
      </trkpt>
      <trkpt lat="38.087585" lon="-0.888375">
        <ele>34.081</ele>
        <time>2021-05-05T09:38:23Z</time>
      </trkpt>
      <trkpt lat="38.087622" lon="-0.888290">
        <ele>34.026</ele>
        <time>2021-05-05T09:38:25Z</time>
      </trkpt>
      <trkpt lat="38.087653" lon="-0.888188">
        <ele>34.026</ele>
        <time>2021-05-05T09:38:27Z</time>
      </trkpt>
      <trkpt lat="38.087682" lon="-0.888083">
        <ele>34.029</ele>
        <time>2021-05-05T09:38:29Z</time>
      </trkpt>
      <trkpt lat="38.087716" lon="-0.887972">
        <ele>34.039</ele>
        <time>2021-05-05T09:38:31Z</time>
      </trkpt>
      <trkpt lat="38.087737" lon="-0.887915">
        <ele>34.031</ele>
        <time>2021-05-05T09:38:32Z</time>
      </trkpt>
      <trkpt lat="38.087757" lon="-0.887860">
        <ele>34.058</ele>
        <time>2021-05-05T09:38:33Z</time>
      </trkpt>
      <trkpt lat="38.087775" lon="-0.887805">
        <ele>34.093</ele>
        <time>2021-05-05T09:38:34Z</time>
      </trkpt>
      <trkpt lat="38.087817" lon="-0.887693">
        <ele>34.058</ele>
        <time>2021-05-05T09:38:36Z</time>
      </trkpt>
      <trkpt lat="38.087840" lon="-0.887634">
        <ele>34.052</ele>
        <time>2021-05-05T09:38:37Z</time>
      </trkpt>
      <trkpt lat="38.087889" lon="-0.887527">
        <ele>34.017</ele>
        <time>2021-05-05T09:38:39Z</time>
      </trkpt>
      <trkpt lat="38.087942" lon="-0.887429">
        <ele>34.008</ele>
        <time>2021-05-05T09:38:41Z</time>
      </trkpt>
      <trkpt lat="38.087996" lon="-0.887332">
        <ele>34.032</ele>
        <time>2021-05-05T09:38:43Z</time>
      </trkpt>
      <trkpt lat="38.088048" lon="-0.887233">
        <ele>34.047</ele>
        <time>2021-05-05T09:38:45Z</time>
      </trkpt>
      <trkpt lat="38.088072" lon="-0.887181">
        <ele>34.027</ele>
        <time>2021-05-05T09:38:46Z</time>
      </trkpt>
      <trkpt lat="38.088118" lon="-0.887078">
        <ele>34.040</ele>
        <time>2021-05-05T09:38:48Z</time>
      </trkpt>
      <trkpt lat="38.088142" lon="-0.887025">
        <ele>34.020</ele>
        <time>2021-05-05T09:38:49Z</time>
      </trkpt>
      <trkpt lat="38.088204" lon="-0.886930">
        <ele>33.972</ele>
        <time>2021-05-05T09:38:51Z</time>
      </trkpt>
      <trkpt lat="38.088236" lon="-0.886883">
        <ele>33.719</ele>
        <time>2021-05-05T09:38:52Z</time>
      </trkpt>
      <trkpt lat="38.088268" lon="-0.886834">
        <ele>33.574</ele>
        <time>2021-05-05T09:38:53Z</time>
      </trkpt>
      <trkpt lat="38.088331" lon="-0.886737">
        <ele>33.342</ele>
        <time>2021-05-05T09:38:55Z</time>
      </trkpt>
      <trkpt lat="38.088404" lon="-0.886645">
        <ele>33.322</ele>
        <time>2021-05-05T09:38:57Z</time>
      </trkpt>
      <trkpt lat="38.088437" lon="-0.886599">
        <ele>33.614</ele>
        <time>2021-05-05T09:38:58Z</time>
      </trkpt>
      <trkpt lat="38.088471" lon="-0.886555">
        <ele>33.708</ele>
        <time>2021-05-05T09:38:59Z</time>
      </trkpt>
      <trkpt lat="38.088545" lon="-0.886466">
        <ele>33.611</ele>
        <time>2021-05-05T09:39:01Z</time>
      </trkpt>
      <trkpt lat="38.088584" lon="-0.886422">
        <ele>33.446</ele>
        <time>2021-05-05T09:39:02Z</time>
      </trkpt>
      <trkpt lat="38.088620" lon="-0.886371">
        <ele>33.466</ele>
        <time>2021-05-05T09:39:03Z</time>
      </trkpt>
      <trkpt lat="38.088693" lon="-0.886272">
        <ele>33.779</ele>
        <time>2021-05-05T09:39:05Z</time>
      </trkpt>
      <trkpt lat="38.088767" lon="-0.886178">
        <ele>34.179</ele>
        <time>2021-05-05T09:39:07Z</time>
      </trkpt>
      <trkpt lat="38.088799" lon="-0.886130">
        <ele>34.011</ele>
        <time>2021-05-05T09:39:08Z</time>
      </trkpt>
      <trkpt lat="38.088846" lon="-0.886026">
        <ele>34.058</ele>
        <time>2021-05-05T09:39:10Z</time>
      </trkpt>
      <trkpt lat="38.088859" lon="-0.885967">
        <ele>33.973</ele>
        <time>2021-05-05T09:39:11Z</time>
      </trkpt>
      <trkpt lat="38.088871" lon="-0.885908">
        <ele>33.958</ele>
        <time>2021-05-05T09:39:12Z</time>
      </trkpt>
      <trkpt lat="38.088886" lon="-0.885784">
        <ele>34.152</ele>
        <time>2021-05-05T09:39:14Z</time>
      </trkpt>
      <trkpt lat="38.088893" lon="-0.885721">
        <ele>34.117</ele>
        <time>2021-05-05T09:39:15Z</time>
      </trkpt>
      <trkpt lat="38.088900" lon="-0.885656">
        <ele>33.908</ele>
        <time>2021-05-05T09:39:16Z</time>
      </trkpt>
      <trkpt lat="38.088912" lon="-0.885526">
        <ele>33.972</ele>
        <time>2021-05-05T09:39:18Z</time>
      </trkpt>
      <trkpt lat="38.088916" lon="-0.885398">
        <ele>33.967</ele>
        <time>2021-05-05T09:39:20Z</time>
      </trkpt>
      <trkpt lat="38.088923" lon="-0.885276">
        <ele>33.917</ele>
        <time>2021-05-05T09:39:22Z</time>
      </trkpt>
      <trkpt lat="38.088927" lon="-0.885216">
        <ele>33.810</ele>
        <time>2021-05-05T09:39:23Z</time>
      </trkpt>
      <trkpt lat="38.088932" lon="-0.885155">
        <ele>33.530</ele>
        <time>2021-05-05T09:39:24Z</time>
      </trkpt>
      <trkpt lat="38.088938" lon="-0.885094">
        <ele>33.142</ele>
        <time>2021-05-05T09:39:25Z</time>
      </trkpt>
      <trkpt lat="38.088955" lon="-0.884969">
        <ele>33.039</ele>
        <time>2021-05-05T09:39:27Z</time>
      </trkpt>
      <trkpt lat="38.088980" lon="-0.884843">
        <ele>32.894</ele>
        <time>2021-05-05T09:39:29Z</time>
      </trkpt>
      <trkpt lat="38.088988" lon="-0.884780">
        <ele>33.046</ele>
        <time>2021-05-05T09:39:30Z</time>
      </trkpt>
      <trkpt lat="38.089001" lon="-0.884654">
        <ele>33.088</ele>
        <time>2021-05-05T09:39:32Z</time>
      </trkpt>
      <trkpt lat="38.089000" lon="-0.884589">
        <ele>32.916</ele>
        <time>2021-05-05T09:39:33Z</time>
      </trkpt>
      <trkpt lat="38.089001" lon="-0.884459">
        <ele>32.308</ele>
        <time>2021-05-05T09:39:35Z</time>
      </trkpt>
      <trkpt lat="38.088999" lon="-0.884395">
        <ele>32.391</ele>
        <time>2021-05-05T09:39:36Z</time>
      </trkpt>
      <trkpt lat="38.088992" lon="-0.884334">
        <ele>32.266</ele>
        <time>2021-05-05T09:39:37Z</time>
      </trkpt>
      <trkpt lat="38.088979" lon="-0.884205">
        <ele>32.416</ele>
        <time>2021-05-05T09:39:39Z</time>
      </trkpt>
      <trkpt lat="38.088975" lon="-0.884077">
        <ele>32.199</ele>
        <time>2021-05-05T09:39:41Z</time>
      </trkpt>
      <trkpt lat="38.088972" lon="-0.884012">
        <ele>31.969</ele>
        <time>2021-05-05T09:39:42Z</time>
      </trkpt>
      <trkpt lat="38.088969" lon="-0.883947">
        <ele>32.061</ele>
        <time>2021-05-05T09:39:43Z</time>
      </trkpt>
      <trkpt lat="38.088961" lon="-0.883817">
        <ele>31.748</ele>
        <time>2021-05-05T09:39:45Z</time>
      </trkpt>
      <trkpt lat="38.088956" lon="-0.883690">
        <ele>31.573</ele>
        <time>2021-05-05T09:39:47Z</time>
      </trkpt>
      <trkpt lat="38.088955" lon="-0.883628">
        <ele>31.353</ele>
        <time>2021-05-05T09:39:48Z</time>
      </trkpt>
      <trkpt lat="38.088960" lon="-0.883504">
        <ele>31.304</ele>
        <time>2021-05-05T09:39:50Z</time>
      </trkpt>
      <trkpt lat="38.088979" lon="-0.883374">
        <ele>31.314</ele>
        <time>2021-05-05T09:39:52Z</time>
      </trkpt>
      <trkpt lat="38.088994" lon="-0.883315">
        <ele>31.008</ele>
        <time>2021-05-05T09:39:53Z</time>
      </trkpt>
      <trkpt lat="38.089008" lon="-0.883258">
        <ele>31.492</ele>
        <time>2021-05-05T09:39:54Z</time>
      </trkpt>
      <trkpt lat="38.089016" lon="-0.883200">
        <ele>31.347</ele>
        <time>2021-05-05T09:39:55Z</time>
      </trkpt>
      <trkpt lat="38.089032" lon="-0.883103">
        <ele>31.027</ele>
        <time>2021-05-05T09:39:57Z</time>
      </trkpt>
      <trkpt lat="38.089042" lon="-0.882991">
        <ele>30.710</ele>
        <time>2021-05-05T09:39:59Z</time>
      </trkpt>
      <trkpt lat="38.089041" lon="-0.882885">
        <ele>30.860</ele>
        <time>2021-05-05T09:40:01Z</time>
      </trkpt>
      <trkpt lat="38.089038" lon="-0.882758">
        <ele>30.442</ele>
        <time>2021-05-05T09:40:03Z</time>
      </trkpt>
      <trkpt lat="38.089036" lon="-0.882696">
        <ele>30.289</ele>
        <time>2021-05-05T09:40:04Z</time>
      </trkpt>
      <trkpt lat="38.089035" lon="-0.882633">
        <ele>30.474</ele>
        <time>2021-05-05T09:40:05Z</time>
      </trkpt>
      <trkpt lat="38.089029" lon="-0.882510">
        <ele>30.065</ele>
        <time>2021-05-05T09:40:07Z</time>
      </trkpt>
      <trkpt lat="38.089026" lon="-0.882452">
        <ele>30.068</ele>
        <time>2021-05-05T09:40:08Z</time>
      </trkpt>
      <trkpt lat="38.089026" lon="-0.882334">
        <ele>30.314</ele>
        <time>2021-05-05T09:40:10Z</time>
      </trkpt>
      <trkpt lat="38.089030" lon="-0.882211">
        <ele>30.508</ele>
        <time>2021-05-05T09:40:12Z</time>
      </trkpt>
      <trkpt lat="38.089051" lon="-0.882112">
        <ele>30.983</ele>
        <time>2021-05-05T09:40:14Z</time>
      </trkpt>
      <trkpt lat="38.089086" lon="-0.882022">
        <ele>31.028</ele>
        <time>2021-05-05T09:40:16Z</time>
      </trkpt>
      <trkpt lat="38.089133" lon="-0.881937">
        <ele>31.028</ele>
        <time>2021-05-05T09:40:18Z</time>
      </trkpt>
      <trkpt lat="38.089201" lon="-0.881850">
        <ele>31.241</ele>
        <time>2021-05-05T09:40:19Z</time>
      </trkpt>
      <trkpt lat="38.089242" lon="-0.881814">
        <ele>31.391</ele>
        <time>2021-05-05T09:40:21Z</time>
      </trkpt>
      <trkpt lat="38.089285" lon="-0.881773">
        <ele>31.313</ele>
        <time>2021-05-05T09:40:22Z</time>
      </trkpt>
      <trkpt lat="38.089330" lon="-0.881736">
        <ele>31.340</ele>
        <time>2021-05-05T09:40:23Z</time>
      </trkpt>
      <trkpt lat="38.089372" lon="-0.881661">
        <ele>31.365</ele>
        <time>2021-05-05T09:40:25Z</time>
      </trkpt>
      <trkpt lat="38.089406" lon="-0.881603">
        <ele>31.354</ele>
        <time>2021-05-05T09:40:26Z</time>
      </trkpt>
      <trkpt lat="38.089451" lon="-0.881535">
        <ele>31.356</ele>
        <time>2021-05-05T09:40:28Z</time>
      </trkpt>
      <trkpt lat="38.089488" lon="-0.881486">
        <ele>31.311</ele>
        <time>2021-05-05T09:40:29Z</time>
      </trkpt>
      <trkpt lat="38.089521" lon="-0.881418">
        <ele>31.308</ele>
        <time>2021-05-05T09:40:31Z</time>
      </trkpt>
      <trkpt lat="38.089558" lon="-0.881357">
        <ele>31.362</ele>
        <time>2021-05-05T09:40:32Z</time>
      </trkpt>
      <trkpt lat="38.089590" lon="-0.881316">
        <ele>31.377</ele>
        <time>2021-05-05T09:40:34Z</time>
      </trkpt>
      <trkpt lat="38.089646" lon="-0.881259">
        <ele>31.327</ele>
        <time>2021-05-05T09:40:36Z</time>
      </trkpt>
      <trkpt lat="38.089699" lon="-0.881197">
        <ele>31.350</ele>
        <time>2021-05-05T09:40:38Z</time>
      </trkpt>
      <trkpt lat="38.089738" lon="-0.881126">
        <ele>31.310</ele>
        <time>2021-05-05T09:40:39Z</time>
      </trkpt>
      <trkpt lat="38.089756" lon="-0.881041">
        <ele>31.322</ele>
        <time>2021-05-05T09:40:41Z</time>
      </trkpt>
      <trkpt lat="38.089767" lon="-0.880954">
        <ele>31.359</ele>
        <time>2021-05-05T09:40:43Z</time>
      </trkpt>
      <trkpt lat="38.089776" lon="-0.880893">
        <ele>31.394</ele>
        <time>2021-05-05T09:40:44Z</time>
      </trkpt>
      <trkpt lat="38.089783" lon="-0.880826">
        <ele>31.323</ele>
        <time>2021-05-05T09:40:46Z</time>
      </trkpt>
      <trkpt lat="38.089785" lon="-0.880745">
        <ele>31.383</ele>
        <time>2021-05-05T09:40:47Z</time>
      </trkpt>
      <trkpt lat="38.089799" lon="-0.880663">
        <ele>31.311</ele>
        <time>2021-05-05T09:40:49Z</time>
      </trkpt>
      <trkpt lat="38.089809" lon="-0.880590">
        <ele>31.308</ele>
        <time>2021-05-05T09:40:53Z</time>
      </trkpt>
      <trkpt lat="38.089858" lon="-0.880601">
        <ele>31.319</ele>
        <time>2021-05-05T09:41:16Z</time>
      </trkpt>
      <trkpt lat="38.089870" lon="-0.880657">
        <ele>31.394</ele>
        <time>2021-05-05T09:44:28Z</time>
      </trkpt>
      <trkpt lat="38.089913" lon="-0.880633">
        <ele>31.274</ele>
        <time>2021-05-05T09:45:19Z</time>
      </trkpt>
      <trkpt lat="38.089959" lon="-0.880621">
        <ele>31.237</ele>
        <time>2021-05-05T09:45:23Z</time>
      </trkpt>
      <trkpt lat="38.090008" lon="-0.880642">
        <ele>31.257</ele>
        <time>2021-05-05T09:45:26Z</time>
      </trkpt>
      <trkpt lat="38.090069" lon="-0.880647">
        <ele>31.269</ele>
        <time>2021-05-05T09:45:29Z</time>
      </trkpt>
      <trkpt lat="38.090114" lon="-0.880645">
        <ele>31.246</ele>
        <time>2021-05-05T09:45:31Z</time>
      </trkpt>
      <trkpt lat="38.090161" lon="-0.880654">
        <ele>31.231</ele>
        <time>2021-05-05T09:45:33Z</time>
      </trkpt>
      <trkpt lat="38.090229" lon="-0.880655">
        <ele>31.289</ele>
        <time>2021-05-05T09:45:36Z</time>
      </trkpt>
      <trkpt lat="38.090279" lon="-0.880647">
        <ele>31.206</ele>
        <time>2021-05-05T09:45:38Z</time>
      </trkpt>
      <trkpt lat="38.090326" lon="-0.880672">
        <ele>31.226</ele>
        <time>2021-05-05T09:45:40Z</time>
      </trkpt>
      <trkpt lat="38.090381" lon="-0.880699">
        <ele>31.208</ele>
        <time>2021-05-05T09:45:43Z</time>
      </trkpt>
      <trkpt lat="38.090433" lon="-0.880703">
        <ele>32.715</ele>
        <time>2021-05-05T09:45:46Z</time>
      </trkpt>
      <trkpt lat="38.090486" lon="-0.880706">
        <ele>33.580</ele>
        <time>2021-05-05T09:45:49Z</time>
      </trkpt>
      <trkpt lat="38.090541" lon="-0.880727">
        <ele>34.280</ele>
        <time>2021-05-05T09:45:52Z</time>
      </trkpt>
      <trkpt lat="38.090593" lon="-0.880735">
        <ele>34.853</ele>
        <time>2021-05-05T09:45:55Z</time>
      </trkpt>
      <trkpt lat="38.090646" lon="-0.880759">
        <ele>35.543</ele>
        <time>2021-05-05T09:45:58Z</time>
      </trkpt>
      <trkpt lat="38.090715" lon="-0.880775">
        <ele>35.755</ele>
        <time>2021-05-05T09:46:01Z</time>
      </trkpt>
      <trkpt lat="38.090765" lon="-0.880801">
        <ele>35.542</ele>
        <time>2021-05-05T09:46:03Z</time>
      </trkpt>
      <trkpt lat="38.090816" lon="-0.880805">
        <ele>35.897</ele>
        <time>2021-05-05T09:46:05Z</time>
      </trkpt>
      <trkpt lat="38.090878" lon="-0.880814">
        <ele>36.231</ele>
        <time>2021-05-05T09:46:08Z</time>
      </trkpt>
      <trkpt lat="38.090927" lon="-0.880834">
        <ele>35.861</ele>
        <time>2021-05-05T09:46:10Z</time>
      </trkpt>
      <trkpt lat="38.090984" lon="-0.880852">
        <ele>35.207</ele>
        <time>2021-05-05T09:46:14Z</time>
      </trkpt>
      <trkpt lat="38.091038" lon="-0.880871">
        <ele>34.608</ele>
        <time>2021-05-05T09:46:18Z</time>
      </trkpt>
      <trkpt lat="38.091061" lon="-0.880821">
        <ele>34.240</ele>
        <time>2021-05-05T09:46:22Z</time>
      </trkpt>
      <trkpt lat="38.091110" lon="-0.880805">
        <ele>33.795</ele>
        <time>2021-05-05T09:46:37Z</time>
      </trkpt>
      <trkpt lat="38.091149" lon="-0.880838">
        <ele>33.315</ele>
        <time>2021-05-05T09:46:38Z</time>
      </trkpt>
      <trkpt lat="38.091217" lon="-0.880891">
        <ele>33.198</ele>
        <time>2021-05-05T09:46:40Z</time>
      </trkpt>
      <trkpt lat="38.091270" lon="-0.880922">
        <ele>33.198</ele>
        <time>2021-05-05T09:46:42Z</time>
      </trkpt>
      <trkpt lat="38.091323" lon="-0.880951">
        <ele>33.070</ele>
        <time>2021-05-05T09:46:44Z</time>
      </trkpt>
      <trkpt lat="38.091370" lon="-0.880969">
        <ele>33.237</ele>
        <time>2021-05-05T09:46:45Z</time>
      </trkpt>
      <trkpt lat="38.091457" lon="-0.880990">
        <ele>33.212</ele>
        <time>2021-05-05T09:46:48Z</time>
      </trkpt>
      <trkpt lat="38.091510" lon="-0.881001">
        <ele>33.136</ele>
        <time>2021-05-05T09:46:49Z</time>
      </trkpt>
      <trkpt lat="38.091562" lon="-0.881017">
        <ele>33.317</ele>
        <time>2021-05-05T09:46:51Z</time>
      </trkpt>
      <trkpt lat="38.091633" lon="-0.881032">
        <ele>33.118</ele>
        <time>2021-05-05T09:46:52Z</time>
      </trkpt>
      <trkpt lat="38.091714" lon="-0.881051">
        <ele>32.808</ele>
        <time>2021-05-05T09:46:55Z</time>
      </trkpt>
      <trkpt lat="38.091772" lon="-0.881072">
        <ele>32.740</ele>
        <time>2021-05-05T09:46:56Z</time>
      </trkpt>
      <trkpt lat="38.091867" lon="-0.881098">
        <ele>32.915</ele>
        <time>2021-05-05T09:46:59Z</time>
      </trkpt>
      <trkpt lat="38.091927" lon="-0.881115">
        <ele>32.825</ele>
        <time>2021-05-05T09:47:00Z</time>
      </trkpt>
      <trkpt lat="38.091976" lon="-0.881127">
        <ele>32.848</ele>
        <time>2021-05-05T09:47:01Z</time>
      </trkpt>
      <trkpt lat="38.092023" lon="-0.881135">
        <ele>32.618</ele>
        <time>2021-05-05T09:47:03Z</time>
      </trkpt>
      <trkpt lat="38.092097" lon="-0.881143">
        <ele>32.410</ele>
        <time>2021-05-05T09:47:05Z</time>
      </trkpt>
      <trkpt lat="38.092161" lon="-0.881155">
        <ele>32.287</ele>
        <time>2021-05-05T09:47:06Z</time>
      </trkpt>
      <trkpt lat="38.092222" lon="-0.881172">
        <ele>31.912</ele>
        <time>2021-05-05T09:47:08Z</time>
      </trkpt>
      <trkpt lat="38.092298" lon="-0.881194">
        <ele>31.921</ele>
        <time>2021-05-05T09:47:09Z</time>
      </trkpt>
      <trkpt lat="38.092355" lon="-0.881221">
        <ele>32.041</ele>
        <time>2021-05-05T09:47:11Z</time>
      </trkpt>
      <trkpt lat="38.092420" lon="-0.881255">
        <ele>31.805</ele>
        <time>2021-05-05T09:47:13Z</time>
      </trkpt>
      <trkpt lat="38.092478" lon="-0.881289">
        <ele>31.908</ele>
        <time>2021-05-05T09:47:14Z</time>
      </trkpt>
      <trkpt lat="38.092528" lon="-0.881315">
        <ele>32.059</ele>
        <time>2021-05-05T09:47:16Z</time>
      </trkpt>
      <trkpt lat="38.092569" lon="-0.881339">
        <ele>32.044</ele>
        <time>2021-05-05T09:47:17Z</time>
      </trkpt>
      <trkpt lat="38.092650" lon="-0.881387">
        <ele>32.044</ele>
        <time>2021-05-05T09:47:19Z</time>
      </trkpt>
      <trkpt lat="38.092700" lon="-0.881413">
        <ele>32.187</ele>
        <time>2021-05-05T09:47:20Z</time>
      </trkpt>
      <trkpt lat="38.092742" lon="-0.881434">
        <ele>32.067</ele>
        <time>2021-05-05T09:47:21Z</time>
      </trkpt>
      <trkpt lat="38.092787" lon="-0.881458">
        <ele>32.089</ele>
        <time>2021-05-05T09:47:22Z</time>
      </trkpt>
      <trkpt lat="38.092841" lon="-0.881488">
        <ele>32.166</ele>
        <time>2021-05-05T09:47:23Z</time>
      </trkpt>
      <trkpt lat="38.092889" lon="-0.881521">
        <ele>32.121</ele>
        <time>2021-05-05T09:47:25Z</time>
      </trkpt>
      <trkpt lat="38.092953" lon="-0.881563">
        <ele>32.468</ele>
        <time>2021-05-05T09:47:26Z</time>
      </trkpt>
      <trkpt lat="38.093001" lon="-0.881594">
        <ele>32.542</ele>
        <time>2021-05-05T09:47:28Z</time>
      </trkpt>
      <trkpt lat="38.093081" lon="-0.881635">
        <ele>32.626</ele>
        <time>2021-05-05T09:47:29Z</time>
      </trkpt>
      <trkpt lat="38.093127" lon="-0.881660">
        <ele>33.008</ele>
        <time>2021-05-05T09:47:31Z</time>
      </trkpt>
      <trkpt lat="38.093200" lon="-0.881687">
        <ele>33.323</ele>
        <time>2021-05-05T09:47:32Z</time>
      </trkpt>
      <trkpt lat="38.093280" lon="-0.881718">
        <ele>33.338</ele>
        <time>2021-05-05T09:47:35Z</time>
      </trkpt>
      <trkpt lat="38.093343" lon="-0.881768">
        <ele>33.378</ele>
        <time>2021-05-05T09:47:37Z</time>
      </trkpt>
      <trkpt lat="38.093385" lon="-0.881798">
        <ele>33.621</ele>
        <time>2021-05-05T09:47:38Z</time>
      </trkpt>
      <trkpt lat="38.093442" lon="-0.881824">
        <ele>33.581</ele>
        <time>2021-05-05T09:47:40Z</time>
      </trkpt>
      <trkpt lat="38.093507" lon="-0.881860">
        <ele>33.663</ele>
        <time>2021-05-05T09:47:41Z</time>
      </trkpt>
      <trkpt lat="38.093586" lon="-0.881906">
        <ele>33.480</ele>
        <time>2021-05-05T09:47:44Z</time>
      </trkpt>
      <trkpt lat="38.093627" lon="-0.881930">
        <ele>33.355</ele>
        <time>2021-05-05T09:47:45Z</time>
      </trkpt>
      <trkpt lat="38.093674" lon="-0.881958">
        <ele>33.391</ele>
        <time>2021-05-05T09:47:46Z</time>
      </trkpt>
      <trkpt lat="38.093726" lon="-0.881986">
        <ele>33.681</ele>
        <time>2021-05-05T09:47:47Z</time>
      </trkpt>
      <trkpt lat="38.093777" lon="-0.882009">
        <ele>33.419</ele>
        <time>2021-05-05T09:47:49Z</time>
      </trkpt>
      <trkpt lat="38.093839" lon="-0.882054">
        <ele>33.108</ele>
        <time>2021-05-05T09:47:51Z</time>
      </trkpt>
      <trkpt lat="38.093882" lon="-0.882099">
        <ele>33.196</ele>
        <time>2021-05-05T09:47:52Z</time>
      </trkpt>
      <trkpt lat="38.093909" lon="-0.882151">
        <ele>33.081</ele>
        <time>2021-05-05T09:47:53Z</time>
      </trkpt>
      <trkpt lat="38.093927" lon="-0.882204">
        <ele>32.941</ele>
        <time>2021-05-05T09:47:55Z</time>
      </trkpt>
      <trkpt lat="38.093945" lon="-0.882287">
        <ele>33.074</ele>
        <time>2021-05-05T09:47:56Z</time>
      </trkpt>
      <trkpt lat="38.093944" lon="-0.882395">
        <ele>33.194</ele>
        <time>2021-05-05T09:47:59Z</time>
      </trkpt>
      <trkpt lat="38.093972" lon="-0.882473">
        <ele>33.086</ele>
        <time>2021-05-05T09:48:00Z</time>
      </trkpt>
      <trkpt lat="38.094014" lon="-0.882508">
        <ele>32.713</ele>
        <time>2021-05-05T09:48:01Z</time>
      </trkpt>
      <trkpt lat="38.094065" lon="-0.882526">
        <ele>32.778</ele>
        <time>2021-05-05T09:48:03Z</time>
      </trkpt>
      <trkpt lat="38.094141" lon="-0.882543">
        <ele>32.818</ele>
        <time>2021-05-05T09:48:04Z</time>
      </trkpt>
      <trkpt lat="38.094236" lon="-0.882569">
        <ele>32.698</ele>
        <time>2021-05-05T09:48:06Z</time>
      </trkpt>
      <trkpt lat="38.094311" lon="-0.882585">
        <ele>32.417</ele>
        <time>2021-05-05T09:48:08Z</time>
      </trkpt>
      <trkpt lat="38.094367" lon="-0.882595">
        <ele>32.308</ele>
        <time>2021-05-05T09:48:09Z</time>
      </trkpt>
      <trkpt lat="38.094417" lon="-0.882600">
        <ele>31.888</ele>
        <time>2021-05-05T09:48:11Z</time>
      </trkpt>
      <trkpt lat="38.094498" lon="-0.882608">
        <ele>31.863</ele>
        <time>2021-05-05T09:48:12Z</time>
      </trkpt>
      <trkpt lat="38.094545" lon="-0.882611">
        <ele>31.923</ele>
        <time>2021-05-05T09:48:14Z</time>
      </trkpt>
      <trkpt lat="38.094613" lon="-0.882614">
        <ele>31.766</ele>
        <time>2021-05-05T09:48:15Z</time>
      </trkpt>
      <trkpt lat="38.094680" lon="-0.882623">
        <ele>31.576</ele>
        <time>2021-05-05T09:48:17Z</time>
      </trkpt>
      <trkpt lat="38.094738" lon="-0.882634">
        <ele>31.188</ele>
        <time>2021-05-05T09:48:18Z</time>
      </trkpt>
      <trkpt lat="38.094792" lon="-0.882644">
        <ele>30.895</ele>
        <time>2021-05-05T09:48:19Z</time>
      </trkpt>
      <trkpt lat="38.094856" lon="-0.882654">
        <ele>30.710</ele>
        <time>2021-05-05T09:48:21Z</time>
      </trkpt>
      <trkpt lat="38.094916" lon="-0.882643">
        <ele>30.642</ele>
        <time>2021-05-05T09:48:22Z</time>
      </trkpt>
      <trkpt lat="38.095003" lon="-0.882598">
        <ele>30.322</ele>
        <time>2021-05-05T09:48:24Z</time>
      </trkpt>
      <trkpt lat="38.095051" lon="-0.882591">
        <ele>30.314</ele>
        <time>2021-05-05T09:48:25Z</time>
      </trkpt>
      <trkpt lat="38.095146" lon="-0.882581">
        <ele>30.308</ele>
        <time>2021-05-05T09:48:27Z</time>
      </trkpt>
      <trkpt lat="38.095243" lon="-0.882585">
        <ele>30.561</ele>
        <time>2021-05-05T09:48:29Z</time>
      </trkpt>
      <trkpt lat="38.095341" lon="-0.882589">
        <ele>30.456</ele>
        <time>2021-05-05T09:48:31Z</time>
      </trkpt>
      <trkpt lat="38.095390" lon="-0.882589">
        <ele>30.396</ele>
        <time>2021-05-05T09:48:32Z</time>
      </trkpt>
      <trkpt lat="38.095487" lon="-0.882593">
        <ele>29.949</ele>
        <time>2021-05-05T09:48:34Z</time>
      </trkpt>
      <trkpt lat="38.095585" lon="-0.882588">
        <ele>30.099</ele>
        <time>2021-05-05T09:48:36Z</time>
      </trkpt>
      <trkpt lat="38.095633" lon="-0.882587">
        <ele>30.091</ele>
        <time>2021-05-05T09:48:37Z</time>
      </trkpt>
      <trkpt lat="38.095727" lon="-0.882592">
        <ele>29.958</ele>
        <time>2021-05-05T09:48:39Z</time>
      </trkpt>
      <trkpt lat="38.095773" lon="-0.882597">
        <ele>29.853</ele>
        <time>2021-05-05T09:48:40Z</time>
      </trkpt>
      <trkpt lat="38.095818" lon="-0.882607">
        <ele>29.827</ele>
        <time>2021-05-05T09:48:41Z</time>
      </trkpt>
      <trkpt lat="38.095911" lon="-0.882627">
        <ele>29.768</ele>
        <time>2021-05-05T09:48:43Z</time>
      </trkpt>
      <trkpt lat="38.095961" lon="-0.882631">
        <ele>29.714</ele>
        <time>2021-05-05T09:48:44Z</time>
      </trkpt>
      <trkpt lat="38.096062" lon="-0.882636">
        <ele>30.008</ele>
        <time>2021-05-05T09:48:46Z</time>
      </trkpt>
      <trkpt lat="38.096114" lon="-0.882634">
        <ele>29.819</ele>
        <time>2021-05-05T09:48:47Z</time>
      </trkpt>
      <trkpt lat="38.096214" lon="-0.882631">
        <ele>29.694</ele>
        <time>2021-05-05T09:48:49Z</time>
      </trkpt>
      <trkpt lat="38.096264" lon="-0.882628">
        <ele>29.484</ele>
        <time>2021-05-05T09:48:50Z</time>
      </trkpt>
      <trkpt lat="38.096315" lon="-0.882620">
        <ele>29.487</ele>
        <time>2021-05-05T09:48:51Z</time>
      </trkpt>
      <trkpt lat="38.096417" lon="-0.882608">
        <ele>29.657</ele>
        <time>2021-05-05T09:48:53Z</time>
      </trkpt>
      <trkpt lat="38.096516" lon="-0.882604">
        <ele>29.689</ele>
        <time>2021-05-05T09:48:55Z</time>
      </trkpt>
      <trkpt lat="38.096615" lon="-0.882604">
        <ele>29.846</ele>
        <time>2021-05-05T09:48:57Z</time>
      </trkpt>
      <trkpt lat="38.096664" lon="-0.882607">
        <ele>29.681</ele>
        <time>2021-05-05T09:48:58Z</time>
      </trkpt>
      <trkpt lat="38.096759" lon="-0.882632">
        <ele>29.912</ele>
        <time>2021-05-05T09:49:00Z</time>
      </trkpt>
      <trkpt lat="38.096803" lon="-0.882651">
        <ele>29.932</ele>
        <time>2021-05-05T09:49:01Z</time>
      </trkpt>
      <trkpt lat="38.096846" lon="-0.882673">
        <ele>29.805</ele>
        <time>2021-05-05T09:49:02Z</time>
      </trkpt>
      <trkpt lat="38.096931" lon="-0.882720">
        <ele>29.908</ele>
        <time>2021-05-05T09:49:04Z</time>
      </trkpt>
      <trkpt lat="38.096971" lon="-0.882747">
        <ele>29.968</ele>
        <time>2021-05-05T09:49:05Z</time>
      </trkpt>
      <trkpt lat="38.097052" lon="-0.882797">
        <ele>30.373</ele>
        <time>2021-05-05T09:49:07Z</time>
      </trkpt>
      <trkpt lat="38.097127" lon="-0.882837">
        <ele>30.543</ele>
        <time>2021-05-05T09:49:09Z</time>
      </trkpt>
      <trkpt lat="38.097203" lon="-0.882873">
        <ele>30.746</ele>
        <time>2021-05-05T09:49:11Z</time>
      </trkpt>
      <trkpt lat="38.097274" lon="-0.882914">
        <ele>30.866</ele>
        <time>2021-05-05T09:49:13Z</time>
      </trkpt>
      <trkpt lat="38.097343" lon="-0.882960">
        <ele>30.898</ele>
        <time>2021-05-05T09:49:15Z</time>
      </trkpt>
      <trkpt lat="38.097415" lon="-0.883005">
        <ele>30.855</ele>
        <time>2021-05-05T09:49:17Z</time>
      </trkpt>
      <trkpt lat="38.097484" lon="-0.883050">
        <ele>30.810</ele>
        <time>2021-05-05T09:49:19Z</time>
      </trkpt>
      <trkpt lat="38.097553" lon="-0.883092">
        <ele>30.822</ele>
        <time>2021-05-05T09:49:20Z</time>
      </trkpt>
      <trkpt lat="38.097608" lon="-0.883135">
        <ele>30.862</ele>
        <time>2021-05-05T09:49:22Z</time>
      </trkpt>
      <trkpt lat="38.097649" lon="-0.883163">
        <ele>30.808</ele>
        <time>2021-05-05T09:49:23Z</time>
      </trkpt>
      <trkpt lat="38.097702" lon="-0.883206">
        <ele>30.708</ele>
        <time>2021-05-05T09:49:24Z</time>
      </trkpt>
      <trkpt lat="38.097749" lon="-0.883255">
        <ele>30.739</ele>
        <time>2021-05-05T09:49:26Z</time>
      </trkpt>
      <trkpt lat="38.097792" lon="-0.883313">
        <ele>30.764</ele>
        <time>2021-05-05T09:49:27Z</time>
      </trkpt>
      <trkpt lat="38.097824" lon="-0.883361">
        <ele>30.724</ele>
        <time>2021-05-05T09:49:29Z</time>
      </trkpt>
      <trkpt lat="38.097869" lon="-0.883424">
        <ele>30.737</ele>
        <time>2021-05-05T09:49:30Z</time>
      </trkpt>
      <trkpt lat="38.097909" lon="-0.883478">
        <ele>30.787</ele>
        <time>2021-05-05T09:49:32Z</time>
      </trkpt>
      <trkpt lat="38.097940" lon="-0.883536">
        <ele>30.739</ele>
        <time>2021-05-05T09:49:33Z</time>
      </trkpt>
      <trkpt lat="38.097985" lon="-0.883618">
        <ele>30.746</ele>
        <time>2021-05-05T09:49:34Z</time>
      </trkpt>
      <trkpt lat="38.098025" lon="-0.883676">
        <ele>30.751</ele>
        <time>2021-05-05T09:49:36Z</time>
      </trkpt>
      <trkpt lat="38.098087" lon="-0.883763">
        <ele>30.797</ele>
        <time>2021-05-05T09:49:38Z</time>
      </trkpt>
      <trkpt lat="38.098117" lon="-0.883809">
        <ele>30.723</ele>
        <time>2021-05-05T09:49:39Z</time>
      </trkpt>
      <trkpt lat="38.098174" lon="-0.883902">
        <ele>30.725</ele>
        <time>2021-05-05T09:49:41Z</time>
      </trkpt>
      <trkpt lat="38.098202" lon="-0.883948">
        <ele>30.708</ele>
        <time>2021-05-05T09:49:42Z</time>
      </trkpt>
      <trkpt lat="38.098233" lon="-0.883992">
        <ele>30.716</ele>
        <time>2021-05-05T09:49:43Z</time>
      </trkpt>
      <trkpt lat="38.098262" lon="-0.884039">
        <ele>30.751</ele>
        <time>2021-05-05T09:49:44Z</time>
      </trkpt>
      <trkpt lat="38.098322" lon="-0.884132">
        <ele>30.751</ele>
        <time>2021-05-05T09:49:46Z</time>
      </trkpt>
      <trkpt lat="38.098353" lon="-0.884178">
        <ele>30.794</ele>
        <time>2021-05-05T09:49:47Z</time>
      </trkpt>
      <trkpt lat="38.098402" lon="-0.884256">
        <ele>30.794</ele>
        <time>2021-05-05T09:49:49Z</time>
      </trkpt>
      <trkpt lat="38.098457" lon="-0.884350">
        <ele>30.726</ele>
        <time>2021-05-05T09:49:51Z</time>
      </trkpt>
      <trkpt lat="38.098516" lon="-0.884438">
        <ele>30.793</ele>
        <time>2021-05-05T09:49:53Z</time>
      </trkpt>
      <trkpt lat="38.098568" lon="-0.884506">
        <ele>30.758</ele>
        <time>2021-05-05T09:49:55Z</time>
      </trkpt>
      <trkpt lat="38.098615" lon="-0.884542">
        <ele>30.766</ele>
        <time>2021-05-05T09:49:56Z</time>
      </trkpt>
      <trkpt lat="38.098680" lon="-0.884560">
        <ele>30.729</ele>
        <time>2021-05-05T09:49:58Z</time>
      </trkpt>
      <trkpt lat="38.098736" lon="-0.884518">
        <ele>30.721</ele>
        <time>2021-05-05T09:49:59Z</time>
      </trkpt>
      <trkpt lat="38.098791" lon="-0.884412">
        <ele>30.708</ele>
        <time>2021-05-05T09:50:01Z</time>
      </trkpt>
      <trkpt lat="38.098821" lon="-0.884354">
        <ele>30.743</ele>
        <time>2021-05-05T09:50:02Z</time>
      </trkpt>
      <trkpt lat="38.098849" lon="-0.884300">
        <ele>30.748</ele>
        <time>2021-05-05T09:50:03Z</time>
      </trkpt>
      <trkpt lat="38.098878" lon="-0.884250">
        <ele>30.748</ele>
        <time>2021-05-05T09:50:04Z</time>
      </trkpt>
      <trkpt lat="38.098947" lon="-0.884169">
        <ele>30.721</ele>
        <time>2021-05-05T09:50:06Z</time>
      </trkpt>
      <trkpt lat="38.099013" lon="-0.884126">
        <ele>32.191</ele>
        <time>2021-05-05T09:50:08Z</time>
      </trkpt>
      <trkpt lat="38.099111" lon="-0.884145">
        <ele>33.133</ele>
        <time>2021-05-05T09:50:10Z</time>
      </trkpt>
      <trkpt lat="38.099188" lon="-0.884176">
        <ele>33.520</ele>
        <time>2021-05-05T09:50:11Z</time>
      </trkpt>
      <trkpt lat="38.099246" lon="-0.884198">
        <ele>33.665</ele>
        <time>2021-05-05T09:50:13Z</time>
      </trkpt>
      <trkpt lat="38.099305" lon="-0.884217">
        <ele>34.023</ele>
        <time>2021-05-05T09:50:14Z</time>
      </trkpt>
      <trkpt lat="38.099357" lon="-0.884236">
        <ele>34.583</ele>
        <time>2021-05-05T09:50:15Z</time>
      </trkpt>
      <trkpt lat="38.099477" lon="-0.884307">
        <ele>34.711</ele>
        <time>2021-05-05T09:50:18Z</time>
      </trkpt>
      <trkpt lat="38.099523" lon="-0.884329">
        <ele>34.508</ele>
        <time>2021-05-05T09:50:19Z</time>
      </trkpt>
      <trkpt lat="38.099568" lon="-0.884352">
        <ele>34.459</ele>
        <time>2021-05-05T09:50:20Z</time>
      </trkpt>
      <trkpt lat="38.099612" lon="-0.884375">
        <ele>34.544</ele>
        <time>2021-05-05T09:50:21Z</time>
      </trkpt>
      <trkpt lat="38.099685" lon="-0.884421">
        <ele>34.544</ele>
        <time>2021-05-05T09:50:23Z</time>
      </trkpt>
      <trkpt lat="38.099727" lon="-0.884444">
        <ele>34.587</ele>
        <time>2021-05-05T09:50:24Z</time>
      </trkpt>
      <trkpt lat="38.099778" lon="-0.884407">
        <ele>34.347</ele>
        <time>2021-05-05T09:50:25Z</time>
      </trkpt>
      <trkpt lat="38.099827" lon="-0.884397">
        <ele>33.919</ele>
        <time>2021-05-05T09:50:27Z</time>
      </trkpt>
      <trkpt lat="38.099873" lon="-0.884343">
        <ele>33.846</ele>
        <time>2021-05-05T09:50:28Z</time>
      </trkpt>
      <trkpt lat="38.099893" lon="-0.884273">
        <ele>33.941</ele>
        <time>2021-05-05T09:50:29Z</time>
      </trkpt>
      <trkpt lat="38.099904" lon="-0.884204">
        <ele>34.193</ele>
        <time>2021-05-05T09:50:31Z</time>
      </trkpt>
      <trkpt lat="38.099930" lon="-0.884092">
        <ele>33.465</ele>
        <time>2021-05-05T09:50:33Z</time>
      </trkpt>
      <trkpt lat="38.099943" lon="-0.883978">
        <ele>33.121</ele>
        <time>2021-05-05T09:50:35Z</time>
      </trkpt>
      <trkpt lat="38.099950" lon="-0.883861">
        <ele>33.108</ele>
        <time>2021-05-05T09:50:37Z</time>
      </trkpt>
      <trkpt lat="38.099963" lon="-0.883751">
        <ele>32.666</ele>
        <time>2021-05-05T09:50:39Z</time>
      </trkpt>
      <trkpt lat="38.099981" lon="-0.883633">
        <ele>32.381</ele>
        <time>2021-05-05T09:50:41Z</time>
      </trkpt>
      <trkpt lat="38.100009" lon="-0.883551">
        <ele>32.191</ele>
        <time>2021-05-05T09:50:42Z</time>
      </trkpt>
      <trkpt lat="38.099989" lon="-0.883466">
        <ele>31.434</ele>
        <time>2021-05-05T09:50:44Z</time>
      </trkpt>
      <trkpt lat="38.099992" lon="-0.883405">
        <ele>31.134</ele>
        <time>2021-05-05T09:50:45Z</time>
      </trkpt>
      <trkpt lat="38.099997" lon="-0.883287">
        <ele>31.126</ele>
        <time>2021-05-05T09:50:47Z</time>
      </trkpt>
      <trkpt lat="38.100013" lon="-0.883175">
        <ele>31.433</ele>
        <time>2021-05-05T09:50:49Z</time>
      </trkpt>
      <trkpt lat="38.100026" lon="-0.883114">
        <ele>31.988</ele>
        <time>2021-05-05T09:50:50Z</time>
      </trkpt>
      <trkpt lat="38.100044" lon="-0.882997">
        <ele>32.076</ele>
        <time>2021-05-05T09:50:52Z</time>
      </trkpt>
      <trkpt lat="38.100069" lon="-0.882869">
        <ele>32.190</ele>
        <time>2021-05-05T09:50:54Z</time>
      </trkpt>
      <trkpt lat="38.100106" lon="-0.882744">
        <ele>32.319</ele>
        <time>2021-05-05T09:50:56Z</time>
      </trkpt>
      <trkpt lat="38.100124" lon="-0.882687">
        <ele>32.208</ele>
        <time>2021-05-05T09:50:57Z</time>
      </trkpt>
      <trkpt lat="38.100167" lon="-0.882574">
        <ele>32.524</ele>
        <time>2021-05-05T09:50:59Z</time>
      </trkpt>
      <trkpt lat="38.100217" lon="-0.882464">
        <ele>33.069</ele>
        <time>2021-05-05T09:51:01Z</time>
      </trkpt>
      <trkpt lat="38.100254" lon="-0.882352">
        <ele>33.659</ele>
        <time>2021-05-05T09:51:03Z</time>
      </trkpt>
      <trkpt lat="38.100274" lon="-0.882233">
        <ele>34.342</ele>
        <time>2021-05-05T09:51:05Z</time>
      </trkpt>
      <trkpt lat="38.100284" lon="-0.882166">
        <ele>35.132</ele>
        <time>2021-05-05T09:51:06Z</time>
      </trkpt>
      <trkpt lat="38.100300" lon="-0.882108">
        <ele>34.584</ele>
        <time>2021-05-05T09:51:07Z</time>
      </trkpt>
      <trkpt lat="38.100318" lon="-0.882051">
        <ele>34.551</ele>
        <time>2021-05-05T09:51:08Z</time>
      </trkpt>
      <trkpt lat="38.100350" lon="-0.881933">
        <ele>34.766</ele>
        <time>2021-05-05T09:51:10Z</time>
      </trkpt>
      <trkpt lat="38.100370" lon="-0.881880">
        <ele>34.633</ele>
        <time>2021-05-05T09:51:11Z</time>
      </trkpt>
      <trkpt lat="38.100404" lon="-0.881763">
        <ele>33.923</ele>
        <time>2021-05-05T09:51:13Z</time>
      </trkpt>
      <trkpt lat="38.100416" lon="-0.881700">
        <ele>33.415</ele>
        <time>2021-05-05T09:51:14Z</time>
      </trkpt>
      <trkpt lat="38.100434" lon="-0.881642">
        <ele>33.008</ele>
        <time>2021-05-05T09:51:15Z</time>
      </trkpt>
      <trkpt lat="38.100461" lon="-0.881537">
        <ele>32.870</ele>
        <time>2021-05-05T09:51:17Z</time>
      </trkpt>
      <trkpt lat="38.100489" lon="-0.881411">
        <ele>32.835</ele>
        <time>2021-05-05T09:51:19Z</time>
      </trkpt>
      <trkpt lat="38.100503" lon="-0.881345">
        <ele>32.215</ele>
        <time>2021-05-05T09:51:20Z</time>
      </trkpt>
      <trkpt lat="38.100547" lon="-0.881233">
        <ele>32.288</ele>
        <time>2021-05-05T09:51:22Z</time>
      </trkpt>
      <trkpt lat="38.100582" lon="-0.881096">
        <ele>33.548</ele>
        <time>2021-05-05T09:51:24Z</time>
      </trkpt>
      <trkpt lat="38.100600" lon="-0.880964">
        <ele>33.840</ele>
        <time>2021-05-05T09:51:26Z</time>
      </trkpt>
      <trkpt lat="38.100612" lon="-0.880899">
        <ele>34.067</ele>
        <time>2021-05-05T09:51:27Z</time>
      </trkpt>
      <trkpt lat="38.100632" lon="-0.880836">
        <ele>34.292</ele>
        <time>2021-05-05T09:51:28Z</time>
      </trkpt>
      <trkpt lat="38.100646" lon="-0.880775">
        <ele>33.873</ele>
        <time>2021-05-05T09:51:29Z</time>
      </trkpt>
      <trkpt lat="38.100667" lon="-0.880709">
        <ele>34.585</ele>
        <time>2021-05-05T09:51:30Z</time>
      </trkpt>
      <trkpt lat="38.100698" lon="-0.880575">
        <ele>34.013</ele>
        <time>2021-05-05T09:51:32Z</time>
      </trkpt>
      <trkpt lat="38.100735" lon="-0.880449">
        <ele>33.708</ele>
        <time>2021-05-05T09:51:34Z</time>
      </trkpt>
      <trkpt lat="38.100763" lon="-0.880310">
        <ele>33.994</ele>
        <time>2021-05-05T09:51:36Z</time>
      </trkpt>
      <trkpt lat="38.100804" lon="-0.880175">
        <ele>33.829</ele>
        <time>2021-05-05T09:51:38Z</time>
      </trkpt>
      <trkpt lat="38.100817" lon="-0.880108">
        <ele>33.639</ele>
        <time>2021-05-05T09:51:39Z</time>
      </trkpt>
      <trkpt lat="38.100836" lon="-0.879977">
        <ele>34.432</ele>
        <time>2021-05-05T09:51:41Z</time>
      </trkpt>
      <trkpt lat="38.100854" lon="-0.879916">
        <ele>34.592</ele>
        <time>2021-05-05T09:51:42Z</time>
      </trkpt>
      <trkpt lat="38.100883" lon="-0.879796">
        <ele>34.664</ele>
        <time>2021-05-05T09:51:44Z</time>
      </trkpt>
      <trkpt lat="38.100916" lon="-0.879699">
        <ele>34.151</ele>
        <time>2021-05-05T09:51:46Z</time>
      </trkpt>
      <trkpt lat="38.100925" lon="-0.879631">
        <ele>33.926</ele>
        <time>2021-05-05T09:51:48Z</time>
      </trkpt>
      <trkpt lat="38.100936" lon="-0.879574">
        <ele>33.932</ele>
        <time>2021-05-05T09:51:50Z</time>
      </trkpt>
      <trkpt lat="38.100978" lon="-0.879544">
        <ele>33.692</ele>
        <time>2021-05-05T09:51:58Z</time>
      </trkpt>
      <trkpt lat="38.101000" lon="-0.879484">
        <ele>32.811</ele>
        <time>2021-05-05T09:54:04Z</time>
      </trkpt>
      <trkpt lat="38.101048" lon="-0.879435">
        <ele>32.308</ele>
        <time>2021-05-05T09:54:09Z</time>
      </trkpt>
      <trkpt lat="38.101072" lon="-0.879380">
        <ele>32.070</ele>
        <time>2021-05-05T09:54:10Z</time>
      </trkpt>
      <trkpt lat="38.101111" lon="-0.879306">
        <ele>31.785</ele>
        <time>2021-05-05T09:54:13Z</time>
      </trkpt>
      <trkpt lat="38.101146" lon="-0.879234">
        <ele>31.495</ele>
        <time>2021-05-05T09:54:15Z</time>
      </trkpt>
      <trkpt lat="38.101170" lon="-0.879168">
        <ele>31.328</ele>
        <time>2021-05-05T09:54:16Z</time>
      </trkpt>
      <trkpt lat="38.101199" lon="-0.879101">
        <ele>31.358</ele>
        <time>2021-05-05T09:54:18Z</time>
      </trkpt>
      <trkpt lat="38.101221" lon="-0.879049">
        <ele>31.440</ele>
        <time>2021-05-05T09:54:19Z</time>
      </trkpt>
      <trkpt lat="38.101243" lon="-0.878990">
        <ele>31.417</ele>
        <time>2021-05-05T09:54:20Z</time>
      </trkpt>
      <trkpt lat="38.101264" lon="-0.878905">
        <ele>31.552</ele>
        <time>2021-05-05T09:54:22Z</time>
      </trkpt>
      <trkpt lat="38.101293" lon="-0.878816">
        <ele>31.288</ele>
        <time>2021-05-05T09:54:24Z</time>
      </trkpt>
      <trkpt lat="38.101316" lon="-0.878754">
        <ele>31.424</ele>
        <time>2021-05-05T09:54:26Z</time>
      </trkpt>
      <trkpt lat="38.101345" lon="-0.878680">
        <ele>31.126</ele>
        <time>2021-05-05T09:54:27Z</time>
      </trkpt>
      <trkpt lat="38.101369" lon="-0.878625">
        <ele>31.008</ele>
        <time>2021-05-05T09:54:28Z</time>
      </trkpt>
      <trkpt lat="38.101410" lon="-0.878538">
        <ele>31.155</ele>
        <time>2021-05-05T09:54:30Z</time>
      </trkpt>
      <trkpt lat="38.101444" lon="-0.878463">
        <ele>31.130</ele>
        <time>2021-05-05T09:54:32Z</time>
      </trkpt>
      <trkpt lat="38.101477" lon="-0.878389">
        <ele>31.530</ele>
        <time>2021-05-05T09:54:34Z</time>
      </trkpt>
      <trkpt lat="38.101501" lon="-0.878315">
        <ele>31.683</ele>
        <time>2021-05-05T09:54:36Z</time>
      </trkpt>
      <trkpt lat="38.101519" lon="-0.878250">
        <ele>31.863</ele>
        <time>2021-05-05T09:54:37Z</time>
      </trkpt>
      <trkpt lat="38.101543" lon="-0.878180">
        <ele>32.025</ele>
        <time>2021-05-05T09:54:38Z</time>
      </trkpt>
      <trkpt lat="38.101564" lon="-0.878119">
        <ele>32.252</ele>
        <time>2021-05-05T09:54:40Z</time>
      </trkpt>
      <trkpt lat="38.101621" lon="-0.878023">
        <ele>31.897</ele>
        <time>2021-05-05T09:54:42Z</time>
      </trkpt>
      <trkpt lat="38.101644" lon="-0.877969">
        <ele>31.888</ele>
        <time>2021-05-05T09:54:43Z</time>
      </trkpt>
      <trkpt lat="38.101669" lon="-0.877917">
        <ele>31.724</ele>
        <time>2021-05-05T09:54:44Z</time>
      </trkpt>
      <trkpt lat="38.101720" lon="-0.877813">
        <ele>32.126</ele>
        <time>2021-05-05T09:54:46Z</time>
      </trkpt>
      <trkpt lat="38.101768" lon="-0.877701">
        <ele>32.208</ele>
        <time>2021-05-05T09:54:48Z</time>
      </trkpt>
      <trkpt lat="38.101829" lon="-0.877597">
        <ele>32.415</ele>
        <time>2021-05-05T09:54:50Z</time>
      </trkpt>
      <trkpt lat="38.101875" lon="-0.877489">
        <ele>32.690</ele>
        <time>2021-05-05T09:54:52Z</time>
      </trkpt>
      <trkpt lat="38.101899" lon="-0.877433">
        <ele>32.210</ele>
        <time>2021-05-05T09:54:53Z</time>
      </trkpt>
      <trkpt lat="38.101922" lon="-0.877381">
        <ele>32.183</ele>
        <time>2021-05-05T09:54:54Z</time>
      </trkpt>
      <trkpt lat="38.101973" lon="-0.877268">
        <ele>32.413</ele>
        <time>2021-05-05T09:54:56Z</time>
      </trkpt>
      <trkpt lat="38.101994" lon="-0.877208">
        <ele>32.695</ele>
        <time>2021-05-05T09:54:57Z</time>
      </trkpt>
      <trkpt lat="38.102013" lon="-0.877152">
        <ele>32.432</ele>
        <time>2021-05-05T09:54:58Z</time>
      </trkpt>
      <trkpt lat="38.102065" lon="-0.877044">
        <ele>32.377</ele>
        <time>2021-05-05T09:55:00Z</time>
      </trkpt>
      <trkpt lat="38.102090" lon="-0.876990">
        <ele>32.617</ele>
        <time>2021-05-05T09:55:01Z</time>
      </trkpt>
      <trkpt lat="38.102114" lon="-0.876936">
        <ele>32.987</ele>
        <time>2021-05-05T09:55:02Z</time>
      </trkpt>
      <trkpt lat="38.102159" lon="-0.876827">
        <ele>33.515</ele>
        <time>2021-05-05T09:55:04Z</time>
      </trkpt>
      <trkpt lat="38.102207" lon="-0.876724">
        <ele>33.708</ele>
        <time>2021-05-05T09:55:06Z</time>
      </trkpt>
      <trkpt lat="38.102232" lon="-0.876673">
        <ele>33.858</ele>
        <time>2021-05-05T09:55:07Z</time>
      </trkpt>
      <trkpt lat="38.102254" lon="-0.876621">
        <ele>33.593</ele>
        <time>2021-05-05T09:55:08Z</time>
      </trkpt>
      <trkpt lat="38.102301" lon="-0.876511">
        <ele>33.613</ele>
        <time>2021-05-05T09:55:10Z</time>
      </trkpt>
      <trkpt lat="38.102351" lon="-0.876398">
        <ele>33.576</ele>
        <time>2021-05-05T09:55:12Z</time>
      </trkpt>
      <trkpt lat="38.102403" lon="-0.876290">
        <ele>33.586</ele>
        <time>2021-05-05T09:55:14Z</time>
      </trkpt>
      <trkpt lat="38.102454" lon="-0.876174">
        <ele>33.428</ele>
        <time>2021-05-05T09:55:16Z</time>
      </trkpt>
      <trkpt lat="38.102504" lon="-0.876055">
        <ele>33.085</ele>
        <time>2021-05-05T09:55:18Z</time>
      </trkpt>
      <trkpt lat="38.102527" lon="-0.876000">
        <ele>33.060</ele>
        <time>2021-05-05T09:55:19Z</time>
      </trkpt>
      <trkpt lat="38.102549" lon="-0.875945">
        <ele>32.752</ele>
        <time>2021-05-05T09:55:20Z</time>
      </trkpt>
      <trkpt lat="38.102602" lon="-0.875831">
        <ele>32.553</ele>
        <time>2021-05-05T09:55:22Z</time>
      </trkpt>
      <trkpt lat="38.102650" lon="-0.875717">
        <ele>32.508</ele>
        <time>2021-05-05T09:55:24Z</time>
      </trkpt>
      <trkpt lat="38.102664" lon="-0.875655">
        <ele>32.308</ele>
        <time>2021-05-05T09:55:25Z</time>
      </trkpt>
      <trkpt lat="38.102696" lon="-0.875539">
        <ele>32.252</ele>
        <time>2021-05-05T09:55:27Z</time>
      </trkpt>
      <trkpt lat="38.102745" lon="-0.875429">
        <ele>32.437</ele>
        <time>2021-05-05T09:55:29Z</time>
      </trkpt>
      <trkpt lat="38.102801" lon="-0.875320">
        <ele>32.727</ele>
        <time>2021-05-05T09:55:31Z</time>
      </trkpt>
      <trkpt lat="38.102857" lon="-0.875206">
        <ele>33.030</ele>
        <time>2021-05-05T09:55:33Z</time>
      </trkpt>
      <trkpt lat="38.102883" lon="-0.875154">
        <ele>33.420</ele>
        <time>2021-05-05T09:55:34Z</time>
      </trkpt>
      <trkpt lat="38.102910" lon="-0.875100">
        <ele>33.442</ele>
        <time>2021-05-05T09:55:35Z</time>
      </trkpt>
      <trkpt lat="38.102978" lon="-0.874996">
        <ele>33.249</ele>
        <time>2021-05-05T09:55:37Z</time>
      </trkpt>
      <trkpt lat="38.103056" lon="-0.874915">
        <ele>33.334</ele>
        <time>2021-05-05T09:55:39Z</time>
      </trkpt>
      <trkpt lat="38.103101" lon="-0.874885">
        <ele>33.675</ele>
        <time>2021-05-05T09:55:40Z</time>
      </trkpt>
      <trkpt lat="38.103149" lon="-0.874861">
        <ele>33.828</ele>
        <time>2021-05-05T09:55:41Z</time>
      </trkpt>
      <trkpt lat="38.103242" lon="-0.874807">
        <ele>33.820</ele>
        <time>2021-05-05T09:55:43Z</time>
      </trkpt>
      <trkpt lat="38.103327" lon="-0.874737">
        <ele>33.608</ele>
        <time>2021-05-05T09:55:45Z</time>
      </trkpt>
      <trkpt lat="38.103402" lon="-0.874646">
        <ele>33.514</ele>
        <time>2021-05-05T09:55:47Z</time>
      </trkpt>
      <trkpt lat="38.103470" lon="-0.874558">
        <ele>33.459</ele>
        <time>2021-05-05T09:55:49Z</time>
      </trkpt>
      <trkpt lat="38.103555" lon="-0.874476">
        <ele>33.149</ele>
        <time>2021-05-05T09:55:51Z</time>
      </trkpt>
      <trkpt lat="38.103644" lon="-0.874402">
        <ele>33.422</ele>
        <time>2021-05-05T09:55:53Z</time>
      </trkpt>
      <trkpt lat="38.103729" lon="-0.874330">
        <ele>33.752</ele>
        <time>2021-05-05T09:55:55Z</time>
      </trkpt>
      <trkpt lat="38.103819" lon="-0.874251">
        <ele>33.894</ele>
        <time>2021-05-05T09:55:57Z</time>
      </trkpt>
      <trkpt lat="38.103900" lon="-0.874165">
        <ele>33.621</ele>
        <time>2021-05-05T09:55:59Z</time>
      </trkpt>
      <trkpt lat="38.103969" lon="-0.874075">
        <ele>33.136</ele>
        <time>2021-05-05T09:56:01Z</time>
      </trkpt>
      <trkpt lat="38.104005" lon="-0.874034">
        <ele>32.884</ele>
        <time>2021-05-05T09:56:02Z</time>
      </trkpt>
      <trkpt lat="38.104077" lon="-0.873951">
        <ele>32.407</ele>
        <time>2021-05-05T09:56:04Z</time>
      </trkpt>
      <trkpt lat="38.104113" lon="-0.873909">
        <ele>32.517</ele>
        <time>2021-05-05T09:56:05Z</time>
      </trkpt>
      <trkpt lat="38.104151" lon="-0.873871">
        <ele>32.308</ele>
        <time>2021-05-05T09:56:06Z</time>
      </trkpt>
      <trkpt lat="38.104232" lon="-0.873794">
        <ele>32.285</ele>
        <time>2021-05-05T09:56:08Z</time>
      </trkpt>
      <trkpt lat="38.104273" lon="-0.873754">
        <ele>32.580</ele>
        <time>2021-05-05T09:56:09Z</time>
      </trkpt>
      <trkpt lat="38.104315" lon="-0.873715">
        <ele>32.590</ele>
        <time>2021-05-05T09:56:10Z</time>
      </trkpt>
      <trkpt lat="38.104355" lon="-0.873679">
        <ele>32.423</ele>
        <time>2021-05-05T09:56:11Z</time>
      </trkpt>
      <trkpt lat="38.104444" lon="-0.873603">
        <ele>32.193</ele>
        <time>2021-05-05T09:56:13Z</time>
      </trkpt>
      <trkpt lat="38.104535" lon="-0.873531">
        <ele>32.115</ele>
        <time>2021-05-05T09:56:15Z</time>
      </trkpt>
      <trkpt lat="38.104577" lon="-0.873493">
        <ele>32.642</ele>
        <time>2021-05-05T09:56:16Z</time>
      </trkpt>
      <trkpt lat="38.104645" lon="-0.873415">
        <ele>32.497</ele>
        <time>2021-05-05T09:56:18Z</time>
      </trkpt>
      <trkpt lat="38.104690" lon="-0.873376">
        <ele>32.041</ele>
        <time>2021-05-05T09:56:19Z</time>
      </trkpt>
      <trkpt lat="38.104733" lon="-0.873335">
        <ele>32.181</ele>
        <time>2021-05-05T09:56:20Z</time>
      </trkpt>
      <trkpt lat="38.104814" lon="-0.873255">
        <ele>32.509</ele>
        <time>2021-05-05T09:56:22Z</time>
      </trkpt>
      <trkpt lat="38.104853" lon="-0.873213">
        <ele>32.808</ele>
        <time>2021-05-05T09:56:23Z</time>
      </trkpt>
      <trkpt lat="38.104929" lon="-0.873128">
        <ele>33.021</ele>
        <time>2021-05-05T09:56:25Z</time>
      </trkpt>
      <trkpt lat="38.104975" lon="-0.873091">
        <ele>32.326</ele>
        <time>2021-05-05T09:56:26Z</time>
      </trkpt>
      <trkpt lat="38.105050" lon="-0.873005">
        <ele>32.386</ele>
        <time>2021-05-05T09:56:28Z</time>
      </trkpt>
      <trkpt lat="38.105126" lon="-0.872914">
        <ele>32.079</ele>
        <time>2021-05-05T09:56:30Z</time>
      </trkpt>
      <trkpt lat="38.105160" lon="-0.872866">
        <ele>31.669</ele>
        <time>2021-05-05T09:56:31Z</time>
      </trkpt>
      <trkpt lat="38.105236" lon="-0.872769">
        <ele>31.211</ele>
        <time>2021-05-05T09:56:33Z</time>
      </trkpt>
      <trkpt lat="38.105323" lon="-0.872682">
        <ele>31.048</ele>
        <time>2021-05-05T09:56:35Z</time>
      </trkpt>
      <trkpt lat="38.105364" lon="-0.872646">
        <ele>30.563</ele>
        <time>2021-05-05T09:56:36Z</time>
      </trkpt>
      <trkpt lat="38.105404" lon="-0.872607">
        <ele>30.161</ele>
        <time>2021-05-05T09:56:37Z</time>
      </trkpt>
      <trkpt lat="38.105476" lon="-0.872516">
        <ele>29.721</ele>
        <time>2021-05-05T09:56:39Z</time>
      </trkpt>
      <trkpt lat="38.105505" lon="-0.872469">
        <ele>30.013</ele>
        <time>2021-05-05T09:56:40Z</time>
      </trkpt>
      <trkpt lat="38.105558" lon="-0.872362">
        <ele>30.508</ele>
        <time>2021-05-05T09:56:42Z</time>
      </trkpt>
      <trkpt lat="38.105609" lon="-0.872261">
        <ele>30.743</ele>
        <time>2021-05-05T09:56:44Z</time>
      </trkpt>
      <trkpt lat="38.105631" lon="-0.872207">
        <ele>31.238</ele>
        <time>2021-05-05T09:56:45Z</time>
      </trkpt>
      <trkpt lat="38.105660" lon="-0.872104">
        <ele>31.118</ele>
        <time>2021-05-05T09:56:47Z</time>
      </trkpt>
      <trkpt lat="38.105688" lon="-0.872011">
        <ele>31.251</ele>
        <time>2021-05-05T09:56:49Z</time>
      </trkpt>
      <trkpt lat="38.105736" lon="-0.871901">
        <ele>31.681</ele>
        <time>2021-05-05T09:56:51Z</time>
      </trkpt>
      <trkpt lat="38.105754" lon="-0.871847">
        <ele>31.673</ele>
        <time>2021-05-05T09:56:52Z</time>
      </trkpt>
      <trkpt lat="38.105792" lon="-0.871744">
        <ele>31.340</ele>
        <time>2021-05-05T09:56:54Z</time>
      </trkpt>
      <trkpt lat="38.105835" lon="-0.871640">
        <ele>31.365</ele>
        <time>2021-05-05T09:56:56Z</time>
      </trkpt>
      <trkpt lat="38.105855" lon="-0.871585">
        <ele>31.451</ele>
        <time>2021-05-05T09:56:57Z</time>
      </trkpt>
      <trkpt lat="38.105873" lon="-0.871525">
        <ele>31.601</ele>
        <time>2021-05-05T09:56:58Z</time>
      </trkpt>
      <trkpt lat="38.105891" lon="-0.871466">
        <ele>31.611</ele>
        <time>2021-05-05T09:56:59Z</time>
      </trkpt>
      <trkpt lat="38.105932" lon="-0.871356">
        <ele>31.708</ele>
        <time>2021-05-05T09:57:01Z</time>
      </trkpt>
      <trkpt lat="38.105973" lon="-0.871246">
        <ele>31.872</ele>
        <time>2021-05-05T09:57:03Z</time>
      </trkpt>
      <trkpt lat="38.105995" lon="-0.871188">
        <ele>32.147</ele>
        <time>2021-05-05T09:57:04Z</time>
      </trkpt>
      <trkpt lat="38.106016" lon="-0.871130">
        <ele>32.467</ele>
        <time>2021-05-05T09:57:05Z</time>
      </trkpt>
      <trkpt lat="38.106039" lon="-0.871071">
        <ele>32.590</ele>
        <time>2021-05-05T09:57:06Z</time>
      </trkpt>
      <trkpt lat="38.106090" lon="-0.870956">
        <ele>32.710</ele>
        <time>2021-05-05T09:57:08Z</time>
      </trkpt>
      <trkpt lat="38.106135" lon="-0.870848">
        <ele>33.152</ele>
        <time>2021-05-05T09:57:10Z</time>
      </trkpt>
      <trkpt lat="38.106159" lon="-0.870794">
        <ele>32.749</ele>
        <time>2021-05-05T09:57:11Z</time>
      </trkpt>
      <trkpt lat="38.106181" lon="-0.870738">
        <ele>32.824</ele>
        <time>2021-05-05T09:57:12Z</time>
      </trkpt>
      <trkpt lat="38.106226" lon="-0.870622">
        <ele>32.858</ele>
        <time>2021-05-05T09:57:14Z</time>
      </trkpt>
      <trkpt lat="38.106268" lon="-0.870503">
        <ele>32.852</ele>
        <time>2021-05-05T09:57:16Z</time>
      </trkpt>
      <trkpt lat="38.106291" lon="-0.870445">
        <ele>33.117</ele>
        <time>2021-05-05T09:57:17Z</time>
      </trkpt>
      <trkpt lat="38.106317" lon="-0.870389">
        <ele>33.408</ele>
        <time>2021-05-05T09:57:18Z</time>
      </trkpt>
      <trkpt lat="38.106342" lon="-0.870330">
        <ele>33.412</ele>
        <time>2021-05-05T09:57:19Z</time>
      </trkpt>
      <trkpt lat="38.106388" lon="-0.870216">
        <ele>33.627</ele>
        <time>2021-05-05T09:57:21Z</time>
      </trkpt>
      <trkpt lat="38.106425" lon="-0.870106">
        <ele>33.467</ele>
        <time>2021-05-05T09:57:23Z</time>
      </trkpt>
      <trkpt lat="38.106455" lon="-0.870014">
        <ele>33.650</ele>
        <time>2021-05-05T09:57:25Z</time>
      </trkpt>
      <trkpt lat="38.106494" lon="-0.869905">
        <ele>33.320</ele>
        <time>2021-05-05T09:57:27Z</time>
      </trkpt>
      <trkpt lat="38.106539" lon="-0.869784">
        <ele>32.962</ele>
        <time>2021-05-05T09:57:29Z</time>
      </trkpt>
      <trkpt lat="38.106557" lon="-0.869725">
        <ele>32.719</ele>
        <time>2021-05-05T09:57:30Z</time>
      </trkpt>
      <trkpt lat="38.106595" lon="-0.869607">
        <ele>32.664</ele>
        <time>2021-05-05T09:57:32Z</time>
      </trkpt>
      <trkpt lat="38.106614" lon="-0.869552">
        <ele>32.529</ele>
        <time>2021-05-05T09:57:33Z</time>
      </trkpt>
      <trkpt lat="38.106659" lon="-0.869442">
        <ele>32.600</ele>
        <time>2021-05-05T09:57:35Z</time>
      </trkpt>
      <trkpt lat="38.106684" lon="-0.869385">
        <ele>32.720</ele>
        <time>2021-05-05T09:57:36Z</time>
      </trkpt>
      <trkpt lat="38.106731" lon="-0.869258">
        <ele>32.608</ele>
        <time>2021-05-05T09:57:38Z</time>
      </trkpt>
      <trkpt lat="38.106780" lon="-0.869136">
        <ele>32.259</ele>
        <time>2021-05-05T09:57:40Z</time>
      </trkpt>
      <trkpt lat="38.106825" lon="-0.869026">
        <ele>31.914</ele>
        <time>2021-05-05T09:57:42Z</time>
      </trkpt>
      <trkpt lat="38.106867" lon="-0.868905">
        <ele>31.334</ele>
        <time>2021-05-05T09:57:44Z</time>
      </trkpt>
      <trkpt lat="38.106888" lon="-0.868844">
        <ele>31.247</ele>
        <time>2021-05-05T09:57:45Z</time>
      </trkpt>
      <trkpt lat="38.106936" lon="-0.868726">
        <ele>30.837</ele>
        <time>2021-05-05T09:57:47Z</time>
      </trkpt>
      <trkpt lat="38.106979" lon="-0.868607">
        <ele>30.729</ele>
        <time>2021-05-05T09:57:49Z</time>
      </trkpt>
      <trkpt lat="38.107001" lon="-0.868546">
        <ele>30.456</ele>
        <time>2021-05-05T09:57:50Z</time>
      </trkpt>
      <trkpt lat="38.107021" lon="-0.868487">
        <ele>30.541</ele>
        <time>2021-05-05T09:57:51Z</time>
      </trkpt>
      <trkpt lat="38.107056" lon="-0.868372">
        <ele>30.185</ele>
        <time>2021-05-05T09:57:53Z</time>
      </trkpt>
      <trkpt lat="38.107073" lon="-0.868313">
        <ele>30.189</ele>
        <time>2021-05-05T09:57:54Z</time>
      </trkpt>
      <trkpt lat="38.107091" lon="-0.868257">
        <ele>30.317</ele>
        <time>2021-05-05T09:57:55Z</time>
      </trkpt>
      <trkpt lat="38.107129" lon="-0.868134">
        <ele>30.208</ele>
        <time>2021-05-05T09:57:57Z</time>
      </trkpt>
      <trkpt lat="38.107168" lon="-0.868007">
        <ele>30.015</ele>
        <time>2021-05-05T09:57:59Z</time>
      </trkpt>
      <trkpt lat="38.107214" lon="-0.867878">
        <ele>30.180</ele>
        <time>2021-05-05T09:58:01Z</time>
      </trkpt>
      <trkpt lat="38.107238" lon="-0.867815">
        <ele>30.440</ele>
        <time>2021-05-05T09:58:02Z</time>
      </trkpt>
      <trkpt lat="38.107280" lon="-0.867691">
        <ele>30.193</ele>
        <time>2021-05-05T09:58:04Z</time>
      </trkpt>
      <trkpt lat="38.107322" lon="-0.867571">
        <ele>30.333</ele>
        <time>2021-05-05T09:58:06Z</time>
      </trkpt>
      <trkpt lat="38.107343" lon="-0.867511">
        <ele>30.695</ele>
        <time>2021-05-05T09:58:07Z</time>
      </trkpt>
      <trkpt lat="38.107364" lon="-0.867450">
        <ele>30.862</ele>
        <time>2021-05-05T09:58:08Z</time>
      </trkpt>
      <trkpt lat="38.107383" lon="-0.867393">
        <ele>31.297</ele>
        <time>2021-05-05T09:58:09Z</time>
      </trkpt>
      <trkpt lat="38.107425" lon="-0.867277">
        <ele>31.516</ele>
        <time>2021-05-05T09:58:11Z</time>
      </trkpt>
      <trkpt lat="38.107447" lon="-0.867218">
        <ele>31.976</ele>
        <time>2021-05-05T09:58:12Z</time>
      </trkpt>
      <trkpt lat="38.107490" lon="-0.867107">
        <ele>31.713</ele>
        <time>2021-05-05T09:58:14Z</time>
      </trkpt>
      <trkpt lat="38.107509" lon="-0.867051">
        <ele>31.408</ele>
        <time>2021-05-05T09:58:15Z</time>
      </trkpt>
      <trkpt lat="38.107553" lon="-0.866938">
        <ele>31.258</ele>
        <time>2021-05-05T09:58:17Z</time>
      </trkpt>
      <trkpt lat="38.107582" lon="-0.866886">
        <ele>31.213</ele>
        <time>2021-05-05T09:58:18Z</time>
      </trkpt>
      <trkpt lat="38.107643" lon="-0.866769">
        <ele>31.213</ele>
        <time>2021-05-05T09:58:20Z</time>
      </trkpt>
      <trkpt lat="38.107708" lon="-0.866650">
        <ele>31.476</ele>
        <time>2021-05-05T09:58:22Z</time>
      </trkpt>
      <trkpt lat="38.107731" lon="-0.866587">
        <ele>31.696</ele>
        <time>2021-05-05T09:58:23Z</time>
      </trkpt>
      <trkpt lat="38.107750" lon="-0.866527">
        <ele>31.638</ele>
        <time>2021-05-05T09:58:24Z</time>
      </trkpt>
      <trkpt lat="38.107783" lon="-0.866449">
        <ele>31.465</ele>
        <time>2021-05-05T09:58:26Z</time>
      </trkpt>
      <trkpt lat="38.107835" lon="-0.866334">
        <ele>31.160</ele>
        <time>2021-05-05T09:58:28Z</time>
      </trkpt>
      <trkpt lat="38.107860" lon="-0.866272">
        <ele>31.294</ele>
        <time>2021-05-05T09:58:29Z</time>
      </trkpt>
      <trkpt lat="38.107884" lon="-0.866214">
        <ele>31.357</ele>
        <time>2021-05-05T09:58:30Z</time>
      </trkpt>
      <trkpt lat="38.107927" lon="-0.866098">
        <ele>31.222</ele>
        <time>2021-05-05T09:58:32Z</time>
      </trkpt>
      <trkpt lat="38.107938" lon="-0.866038">
        <ele>30.808</ele>
        <time>2021-05-05T09:58:33Z</time>
      </trkpt>
      <trkpt lat="38.107963" lon="-0.865916">
        <ele>30.816</ele>
        <time>2021-05-05T09:58:35Z</time>
      </trkpt>
      <trkpt lat="38.107991" lon="-0.865798">
        <ele>30.671</ele>
        <time>2021-05-05T09:58:37Z</time>
      </trkpt>
      <trkpt lat="38.108018" lon="-0.865690">
        <ele>30.111</ele>
        <time>2021-05-05T09:58:39Z</time>
      </trkpt>
      <trkpt lat="38.108055" lon="-0.865587">
        <ele>30.084</ele>
        <time>2021-05-05T09:58:41Z</time>
      </trkpt>
      <trkpt lat="38.108087" lon="-0.865482">
        <ele>30.324</ele>
        <time>2021-05-05T09:58:43Z</time>
      </trkpt>
      <trkpt lat="38.108117" lon="-0.865400">
        <ele>30.756</ele>
        <time>2021-05-05T09:58:45Z</time>
      </trkpt>
      <trkpt lat="38.108153" lon="-0.865316">
        <ele>31.283</ele>
        <time>2021-05-05T09:58:47Z</time>
      </trkpt>
      <trkpt lat="38.108164" lon="-0.865255">
        <ele>31.688</ele>
        <time>2021-05-05T09:58:50Z</time>
      </trkpt>
      <trkpt lat="38.108207" lon="-0.865206">
        <ele>32.298</ele>
        <time>2021-05-05T09:58:51Z</time>
      </trkpt>
      <trkpt lat="38.108248" lon="-0.865156">
        <ele>32.215</ele>
        <time>2021-05-05T09:58:55Z</time>
      </trkpt>
      <trkpt lat="38.108269" lon="-0.865094">
        <ele>31.926</ele>
        <time>2021-05-05T09:58:59Z</time>
      </trkpt>
      <trkpt lat="38.108298" lon="-0.865150">
        <ele>31.908</ele>
        <time>2021-05-05T09:59:20Z</time>
      </trkpt>
      <trkpt lat="38.108342" lon="-0.865210">
        <ele>32.696</ele>
        <time>2021-05-05T09:59:24Z</time>
      </trkpt>
      <trkpt lat="38.108377" lon="-0.865249">
        <ele>33.021</ele>
        <time>2021-05-05T09:59:26Z</time>
      </trkpt>
      <trkpt lat="38.108437" lon="-0.865296">
        <ele>33.461</ele>
        <time>2021-05-05T09:59:28Z</time>
      </trkpt>
      <trkpt lat="38.108507" lon="-0.865346">
        <ele>33.994</ele>
        <time>2021-05-05T09:59:30Z</time>
      </trkpt>
      <trkpt lat="38.108583" lon="-0.865385">
        <ele>34.354</ele>
        <time>2021-05-05T09:59:32Z</time>
      </trkpt>
      <trkpt lat="38.108640" lon="-0.865416">
        <ele>34.636</ele>
        <time>2021-05-05T09:59:33Z</time>
      </trkpt>
      <trkpt lat="38.108692" lon="-0.865447">
        <ele>34.853</ele>
        <time>2021-05-05T09:59:35Z</time>
      </trkpt>
      <trkpt lat="38.108756" lon="-0.865501">
        <ele>35.198</ele>
        <time>2021-05-05T09:59:37Z</time>
      </trkpt>
      <trkpt lat="38.108810" lon="-0.865557">
        <ele>34.931</ele>
        <time>2021-05-05T09:59:38Z</time>
      </trkpt>
      <trkpt lat="38.108881" lon="-0.865617">
        <ele>34.861</ele>
        <time>2021-05-05T09:59:40Z</time>
      </trkpt>
      <trkpt lat="38.108949" lon="-0.865672">
        <ele>34.407</ele>
        <time>2021-05-05T09:59:43Z</time>
      </trkpt>
      <trkpt lat="38.109018" lon="-0.865715">
        <ele>33.908</ele>
        <time>2021-05-05T09:59:45Z</time>
      </trkpt>
      <trkpt lat="38.109100" lon="-0.865737">
        <ele>33.530</ele>
        <time>2021-05-05T09:59:47Z</time>
      </trkpt>
      <trkpt lat="38.109158" lon="-0.865752">
        <ele>33.535</ele>
        <time>2021-05-05T09:59:48Z</time>
      </trkpt>
      <trkpt lat="38.109216" lon="-0.865773">
        <ele>33.665</ele>
        <time>2021-05-05T09:59:49Z</time>
      </trkpt>
      <trkpt lat="38.109266" lon="-0.865792">
        <ele>33.588</ele>
        <time>2021-05-05T09:59:51Z</time>
      </trkpt>
      <trkpt lat="38.109333" lon="-0.865820">
        <ele>33.258</ele>
        <time>2021-05-05T09:59:52Z</time>
      </trkpt>
      <trkpt lat="38.109393" lon="-0.865848">
        <ele>33.020</ele>
        <time>2021-05-05T09:59:54Z</time>
      </trkpt>
      <trkpt lat="38.109450" lon="-0.865878">
        <ele>32.497</ele>
        <time>2021-05-05T09:59:55Z</time>
      </trkpt>
      <trkpt lat="38.109520" lon="-0.865910">
        <ele>32.892</ele>
        <time>2021-05-05T09:59:57Z</time>
      </trkpt>
      <trkpt lat="38.109565" lon="-0.865933">
        <ele>32.832</ele>
        <time>2021-05-05T09:59:58Z</time>
      </trkpt>
      <trkpt lat="38.109612" lon="-0.865963">
        <ele>32.892</ele>
        <time>2021-05-05T10:00:00Z</time>
      </trkpt>
      <trkpt lat="38.109691" lon="-0.866004">
        <ele>32.911</ele>
        <time>2021-05-05T10:00:02Z</time>
      </trkpt>
      <trkpt lat="38.109752" lon="-0.866044">
        <ele>33.108</ele>
        <time>2021-05-05T10:00:03Z</time>
      </trkpt>
      <trkpt lat="38.109836" lon="-0.866097">
        <ele>33.630</ele>
        <time>2021-05-05T10:00:06Z</time>
      </trkpt>
      <trkpt lat="38.109903" lon="-0.866134">
        <ele>34.145</ele>
        <time>2021-05-05T10:00:08Z</time>
      </trkpt>
      <trkpt lat="38.109955" lon="-0.866099">
        <ele>33.825</ele>
        <time>2021-05-05T10:00:09Z</time>
      </trkpt>
      <trkpt lat="38.109977" lon="-0.866045">
        <ele>32.818</ele>
        <time>2021-05-05T10:00:11Z</time>
      </trkpt>
      <trkpt lat="38.109992" lon="-0.865978">
        <ele>31.958</ele>
        <time>2021-05-05T10:00:12Z</time>
      </trkpt>
      <trkpt lat="38.110013" lon="-0.865902">
        <ele>31.120</ele>
        <time>2021-05-05T10:00:14Z</time>
      </trkpt>
      <trkpt lat="38.110040" lon="-0.865826">
        <ele>31.387</ele>
        <time>2021-05-05T10:00:15Z</time>
      </trkpt>
      <trkpt lat="38.110067" lon="-0.865738">
        <ele>31.112</ele>
        <time>2021-05-05T10:00:17Z</time>
      </trkpt>
      <trkpt lat="38.110084" lon="-0.865681">
        <ele>31.011</ele>
        <time>2021-05-05T10:00:18Z</time>
      </trkpt>
      <trkpt lat="38.110109" lon="-0.865576">
        <ele>31.221</ele>
        <time>2021-05-05T10:00:20Z</time>
      </trkpt>
      <trkpt lat="38.110121" lon="-0.865491">
        <ele>31.803</ele>
        <time>2021-05-05T10:00:21Z</time>
      </trkpt>
      <trkpt lat="38.110128" lon="-0.865419">
        <ele>31.808</ele>
        <time>2021-05-05T10:00:22Z</time>
      </trkpt>
      <trkpt lat="38.110129" lon="-0.865346">
        <ele>31.788</ele>
        <time>2021-05-05T10:00:24Z</time>
      </trkpt>
      <trkpt lat="38.110138" lon="-0.865223">
        <ele>31.213</ele>
        <time>2021-05-05T10:00:26Z</time>
      </trkpt>
      <trkpt lat="38.110146" lon="-0.865104">
        <ele>30.683</ele>
        <time>2021-05-05T10:00:28Z</time>
      </trkpt>
      <trkpt lat="38.110153" lon="-0.865042">
        <ele>30.256</ele>
        <time>2021-05-05T10:00:29Z</time>
      </trkpt>
      <trkpt lat="38.110159" lon="-0.864983">
        <ele>30.146</ele>
        <time>2021-05-05T10:00:30Z</time>
      </trkpt>
      <trkpt lat="38.110168" lon="-0.864863">
        <ele>30.348</ele>
        <time>2021-05-05T10:00:32Z</time>
      </trkpt>
      <trkpt lat="38.110176" lon="-0.864746">
        <ele>30.975</ele>
        <time>2021-05-05T10:00:34Z</time>
      </trkpt>
      <trkpt lat="38.110203" lon="-0.864636">
        <ele>30.580</ele>
        <time>2021-05-05T10:00:36Z</time>
      </trkpt>
      <trkpt lat="38.110230" lon="-0.864526">
        <ele>30.434</ele>
        <time>2021-05-05T10:00:38Z</time>
      </trkpt>
      <trkpt lat="38.110255" lon="-0.864411">
        <ele>30.255</ele>
        <time>2021-05-05T10:00:40Z</time>
      </trkpt>
      <trkpt lat="38.110279" lon="-0.864328">
        <ele>29.810</ele>
        <time>2021-05-05T10:00:41Z</time>
      </trkpt>
      <trkpt lat="38.110280" lon="-0.864240">
        <ele>29.508</ele>
        <time>2021-05-05T10:00:43Z</time>
      </trkpt>
      <trkpt lat="38.110301" lon="-0.864123">
        <ele>29.380</ele>
        <time>2021-05-05T10:00:45Z</time>
      </trkpt>
      <trkpt lat="38.110314" lon="-0.864065">
        <ele>29.345</ele>
        <time>2021-05-05T10:00:46Z</time>
      </trkpt>
      <trkpt lat="38.110325" lon="-0.864003">
        <ele>29.345</ele>
        <time>2021-05-05T10:00:47Z</time>
      </trkpt>
      <trkpt lat="38.110350" lon="-0.863884">
        <ele>29.148</ele>
        <time>2021-05-05T10:00:49Z</time>
      </trkpt>
      <trkpt lat="38.110362" lon="-0.863764">
        <ele>29.018</ele>
        <time>2021-05-05T10:00:51Z</time>
      </trkpt>
      <trkpt lat="38.110376" lon="-0.863706">
        <ele>29.020</ele>
        <time>2021-05-05T10:00:52Z</time>
      </trkpt>
      <trkpt lat="38.110414" lon="-0.863590">
        <ele>29.267</ele>
        <time>2021-05-05T10:00:54Z</time>
      </trkpt>
      <trkpt lat="38.110435" lon="-0.863524">
        <ele>29.422</ele>
        <time>2021-05-05T10:00:55Z</time>
      </trkpt>
      <trkpt lat="38.110465" lon="-0.863387">
        <ele>29.736</ele>
        <time>2021-05-05T10:00:57Z</time>
      </trkpt>
      <trkpt lat="38.110487" lon="-0.863257">
        <ele>30.017</ele>
        <time>2021-05-05T10:00:59Z</time>
      </trkpt>
      <trkpt lat="38.110495" lon="-0.863192">
        <ele>30.118</ele>
        <time>2021-05-05T10:01:00Z</time>
      </trkpt>
      <trkpt lat="38.110509" lon="-0.863132">
        <ele>30.308</ele>
        <time>2021-05-05T10:01:01Z</time>
      </trkpt>
      <trkpt lat="38.110522" lon="-0.863075">
        <ele>30.270</ele>
        <time>2021-05-05T10:01:02Z</time>
      </trkpt>
      <trkpt lat="38.110547" lon="-0.862946">
        <ele>30.115</ele>
        <time>2021-05-05T10:01:04Z</time>
      </trkpt>
      <trkpt lat="38.110561" lon="-0.862885">
        <ele>30.095</ele>
        <time>2021-05-05T10:01:05Z</time>
      </trkpt>
      <trkpt lat="38.110585" lon="-0.862755">
        <ele>29.468</ele>
        <time>2021-05-05T10:01:07Z</time>
      </trkpt>
      <trkpt lat="38.110599" lon="-0.862691">
        <ele>30.228</ele>
        <time>2021-05-05T10:01:08Z</time>
      </trkpt>
      <trkpt lat="38.110615" lon="-0.862627">
        <ele>30.540</ele>
        <time>2021-05-05T10:01:09Z</time>
      </trkpt>
      <trkpt lat="38.110644" lon="-0.862499">
        <ele>30.637</ele>
        <time>2021-05-05T10:01:11Z</time>
      </trkpt>
      <trkpt lat="38.110664" lon="-0.862433">
        <ele>30.582</ele>
        <time>2021-05-05T10:01:12Z</time>
      </trkpt>
      <trkpt lat="38.110690" lon="-0.862309">
        <ele>30.318</ele>
        <time>2021-05-05T10:01:14Z</time>
      </trkpt>
      <trkpt lat="38.110712" lon="-0.862191">
        <ele>30.298</ele>
        <time>2021-05-05T10:01:16Z</time>
      </trkpt>
      <trkpt lat="38.110710" lon="-0.862079">
        <ele>30.217</ele>
        <time>2021-05-05T10:01:18Z</time>
      </trkpt>
      <trkpt lat="38.110689" lon="-0.862002">
        <ele>30.008</ele>
        <time>2021-05-05T10:01:20Z</time>
      </trkpt>
      <trkpt lat="38.110672" lon="-0.861928">
        <ele>30.058</ele>
        <time>2021-05-05T10:01:22Z</time>
      </trkpt>
      <trkpt lat="38.110650" lon="-0.861873">
        <ele>29.423</ele>
        <time>2021-05-05T10:01:32Z</time>
      </trkpt>
      <trkpt lat="38.110621" lon="-0.861822">
        <ele>29.253</ele>
        <time>2021-05-05T10:01:35Z</time>
      </trkpt>
      <trkpt lat="38.110635" lon="-0.861765">
        <ele>29.036</ele>
        <time>2021-05-05T10:01:38Z</time>
      </trkpt>
      <trkpt lat="38.110628" lon="-0.861706">
        <ele>28.816</ele>
        <time>2021-05-05T10:01:46Z</time>
      </trkpt>
      <trkpt lat="38.110605" lon="-0.861645">
        <ele>28.348</ele>
        <time>2021-05-05T10:01:50Z</time>
      </trkpt>
      <trkpt lat="38.110590" lon="-0.861584">
        <ele>28.155</ele>
        <time>2021-05-05T10:01:55Z</time>
      </trkpt>
      <trkpt lat="38.110555" lon="-0.861529">
        <ele>27.650</ele>
        <time>2021-05-05T10:01:59Z</time>
      </trkpt>
      <trkpt lat="38.110543" lon="-0.861463">
        <ele>27.677</ele>
        <time>2021-05-05T10:02:03Z</time>
      </trkpt>
      <trkpt lat="38.110518" lon="-0.861404">
        <ele>27.961</ele>
        <time>2021-05-05T10:02:07Z</time>
      </trkpt>
      <trkpt lat="38.110496" lon="-0.861350">
        <ele>27.827</ele>
        <time>2021-05-05T10:02:11Z</time>
      </trkpt>
      <trkpt lat="38.110482" lon="-0.861281">
        <ele>28.308</ele>
        <time>2021-05-05T10:02:15Z</time>
      </trkpt>
      <trkpt lat="38.110479" lon="-0.861223">
        <ele>28.544</ele>
        <time>2021-05-05T10:02:20Z</time>
      </trkpt>
      <trkpt lat="38.110471" lon="-0.861166">
        <ele>28.429</ele>
        <time>2021-05-05T10:02:24Z</time>
      </trkpt>
      <trkpt lat="38.110437" lon="-0.861128">
        <ele>28.819</ele>
        <time>2021-05-05T10:02:27Z</time>
      </trkpt>
      <trkpt lat="38.110423" lon="-0.861066">
        <ele>29.262</ele>
        <time>2021-05-05T10:02:32Z</time>
      </trkpt>
      <trkpt lat="38.110439" lon="-0.861002">
        <ele>28.582</ele>
        <time>2021-05-05T10:02:37Z</time>
      </trkpt>
      <trkpt lat="38.110463" lon="-0.860953">
        <ele>28.164</ele>
        <time>2021-05-05T10:02:53Z</time>
      </trkpt>
      <trkpt lat="38.110462" lon="-0.860889">
        <ele>27.991</ele>
        <time>2021-05-05T10:02:57Z</time>
      </trkpt>
      <trkpt lat="38.110468" lon="-0.860821">
        <ele>27.846</ele>
        <time>2021-05-05T10:03:00Z</time>
      </trkpt>
      <trkpt lat="38.110473" lon="-0.860757">
        <ele>27.781</ele>
        <time>2021-05-05T10:03:10Z</time>
      </trkpt>
      <trkpt lat="38.110448" lon="-0.860815">
        <ele>27.861</ele>
        <time>2021-05-05T10:03:33Z</time>
      </trkpt>
      <trkpt lat="38.110457" lon="-0.860897">
        <ele>29.017</ele>
        <time>2021-05-05T10:03:38Z</time>
      </trkpt>
      <trkpt lat="38.110458" lon="-0.860954">
        <ele>29.508</ele>
        <time>2021-05-05T10:03:41Z</time>
      </trkpt>
      <trkpt lat="38.110447" lon="-0.861027">
        <ele>29.955</ele>
        <time>2021-05-05T10:03:47Z</time>
      </trkpt>
      <trkpt lat="38.110446" lon="-0.861085">
        <ele>30.350</ele>
        <time>2021-05-05T10:03:55Z</time>
      </trkpt>
      <trkpt lat="38.110443" lon="-0.861143">
        <ele>30.480</ele>
        <time>2021-05-05T10:04:00Z</time>
      </trkpt>
      <trkpt lat="38.110472" lon="-0.861196">
        <ele>30.463</ele>
        <time>2021-05-05T10:04:05Z</time>
      </trkpt>
      <trkpt lat="38.110506" lon="-0.861239">
        <ele>30.493</ele>
        <time>2021-05-05T10:04:08Z</time>
      </trkpt>
      <trkpt lat="38.110501" lon="-0.861298">
        <ele>30.885</ele>
        <time>2021-05-05T10:04:12Z</time>
      </trkpt>
      <trkpt lat="38.110513" lon="-0.861370">
        <ele>30.992</ele>
        <time>2021-05-05T10:04:17Z</time>
      </trkpt>
      <trkpt lat="38.110539" lon="-0.861427">
        <ele>30.877</ele>
        <time>2021-05-05T10:04:21Z</time>
      </trkpt>
      <trkpt lat="38.110561" lon="-0.861480">
        <ele>30.935</ele>
        <time>2021-05-05T10:04:24Z</time>
      </trkpt>
      <trkpt lat="38.110579" lon="-0.861533">
        <ele>30.686</ele>
        <time>2021-05-05T10:04:29Z</time>
      </trkpt>
      <trkpt lat="38.110582" lon="-0.861594">
        <ele>30.514</ele>
        <time>2021-05-05T10:04:32Z</time>
      </trkpt>
      <trkpt lat="38.110619" lon="-0.861647">
        <ele>30.808</ele>
        <time>2021-05-05T10:04:37Z</time>
      </trkpt>
      <trkpt lat="38.110636" lon="-0.861717">
        <ele>31.020</ele>
        <time>2021-05-05T10:04:42Z</time>
      </trkpt>
      <trkpt lat="38.110676" lon="-0.861687">
        <ele>30.735</ele>
        <time>2021-05-05T10:04:57Z</time>
      </trkpt>
      <trkpt lat="38.110705" lon="-0.861634">
        <ele>30.625</ele>
        <time>2021-05-05T10:04:59Z</time>
      </trkpt>
      <trkpt lat="38.110730" lon="-0.861571">
        <ele>30.028</ele>
        <time>2021-05-05T10:05:03Z</time>
      </trkpt>
      <trkpt lat="38.110747" lon="-0.861508">
        <ele>29.848</ele>
        <time>2021-05-05T10:05:07Z</time>
      </trkpt>
      <trkpt lat="38.110755" lon="-0.861447">
        <ele>29.420</ele>
        <time>2021-05-05T10:05:10Z</time>
      </trkpt>
      <trkpt lat="38.110771" lon="-0.861385">
        <ele>29.417</ele>
        <time>2021-05-05T10:05:13Z</time>
      </trkpt>
      <trkpt lat="38.110821" lon="-0.861334">
        <ele>29.782</ele>
        <time>2021-05-05T10:05:19Z</time>
      </trkpt>
      <trkpt lat="38.110845" lon="-0.861383">
        <ele>30.382</ele>
        <time>2021-05-05T10:05:35Z</time>
      </trkpt>
      <trkpt lat="38.110895" lon="-0.861428">
        <ele>31.043</ele>
        <time>2021-05-05T10:05:38Z</time>
      </trkpt>
      <trkpt lat="38.110941" lon="-0.861459">
        <ele>31.417</ele>
        <time>2021-05-05T10:05:42Z</time>
      </trkpt>
      <trkpt lat="38.110986" lon="-0.861493">
        <ele>31.708</ele>
        <time>2021-05-05T10:05:46Z</time>
      </trkpt>
      <trkpt lat="38.111025" lon="-0.861521">
        <ele>32.375</ele>
        <time>2021-05-05T10:05:50Z</time>
      </trkpt>
      <trkpt lat="38.111046" lon="-0.861469">
        <ele>30.490</ele>
        <time>2021-05-05T10:07:08Z</time>
      </trkpt>
      <trkpt lat="38.111057" lon="-0.861409">
        <ele>29.270</ele>
        <time>2021-05-05T10:07:16Z</time>
      </trkpt>
      <trkpt lat="38.111067" lon="-0.861348">
        <ele>28.573</ele>
        <time>2021-05-05T10:07:20Z</time>
      </trkpt>
      <trkpt lat="38.111088" lon="-0.861290">
        <ele>28.063</ele>
        <time>2021-05-05T10:07:45Z</time>
      </trkpt>
      <trkpt lat="38.111082" lon="-0.861230">
        <ele>27.735</ele>
        <time>2021-05-05T10:07:48Z</time>
      </trkpt>
      <trkpt lat="38.111089" lon="-0.861171">
        <ele>27.662</ele>
        <time>2021-05-05T10:07:51Z</time>
      </trkpt>
      <trkpt lat="38.111097" lon="-0.861109">
        <ele>27.597</ele>
        <time>2021-05-05T10:07:54Z</time>
      </trkpt>
      <trkpt lat="38.111110" lon="-0.861047">
        <ele>27.478</ele>
        <time>2021-05-05T10:07:57Z</time>
      </trkpt>
      <trkpt lat="38.111123" lon="-0.860991">
        <ele>27.433</ele>
        <time>2021-05-05T10:08:00Z</time>
      </trkpt>
      <trkpt lat="38.111131" lon="-0.860924">
        <ele>27.426</ele>
        <time>2021-05-05T10:08:05Z</time>
      </trkpt>
      <trkpt lat="38.111136" lon="-0.860867">
        <ele>27.308</ele>
        <time>2021-05-05T10:08:10Z</time>
      </trkpt>
      <trkpt lat="38.111148" lon="-0.860812">
        <ele>27.274</ele>
        <time>2021-05-05T10:08:13Z</time>
      </trkpt>
      <trkpt lat="38.111164" lon="-0.860741">
        <ele>27.119</ele>
        <time>2021-05-05T10:08:17Z</time>
      </trkpt>
      <trkpt lat="38.111179" lon="-0.860686">
        <ele>27.189</ele>
        <time>2021-05-05T10:08:21Z</time>
      </trkpt>
      <trkpt lat="38.111202" lon="-0.860627">
        <ele>27.142</ele>
        <time>2021-05-05T10:08:25Z</time>
      </trkpt>
      <trkpt lat="38.111214" lon="-0.860568">
        <ele>27.132</ele>
        <time>2021-05-05T10:08:29Z</time>
      </trkpt>
      <trkpt lat="38.111217" lon="-0.860505">
        <ele>27.154</ele>
        <time>2021-05-05T10:08:33Z</time>
      </trkpt>
      <trkpt lat="38.111245" lon="-0.860434">
        <ele>27.181</ele>
        <time>2021-05-05T10:08:37Z</time>
      </trkpt>
      <trkpt lat="38.111251" lon="-0.860376">
        <ele>27.266</ele>
        <time>2021-05-05T10:08:41Z</time>
      </trkpt>
      <trkpt lat="38.111278" lon="-0.860319">
        <ele>27.252</ele>
        <time>2021-05-05T10:08:46Z</time>
      </trkpt>
      <trkpt lat="38.111327" lon="-0.860330">
        <ele>27.253</ele>
        <time>2021-05-05T10:08:54Z</time>
      </trkpt>
      <trkpt lat="38.111282" lon="-0.860323">
        <ele>27.208</ele>
        <time>2021-05-05T10:09:08Z</time>
      </trkpt>
      <trkpt lat="38.111331" lon="-0.860348">
        <ele>27.108</ele>
        <time>2021-05-05T10:09:19Z</time>
      </trkpt>
      <trkpt lat="38.111369" lon="-0.860378">
        <ele>27.032</ele>
        <time>2021-05-05T10:09:26Z</time>
      </trkpt>
      <trkpt lat="38.111410" lon="-0.860408">
        <ele>27.047</ele>
        <time>2021-05-05T10:09:29Z</time>
      </trkpt>
      <trkpt lat="38.111457" lon="-0.860420">
        <ele>27.067</ele>
        <time>2021-05-05T10:09:32Z</time>
      </trkpt>
      <trkpt lat="38.111512" lon="-0.860447">
        <ele>27.010</ele>
        <time>2021-05-05T10:09:35Z</time>
      </trkpt>
      <trkpt lat="38.111569" lon="-0.860463">
        <ele>27.030</ele>
        <time>2021-05-05T10:09:38Z</time>
      </trkpt>
      <trkpt lat="38.111616" lon="-0.860409">
        <ele>27.092</ele>
        <time>2021-05-05T10:09:41Z</time>
      </trkpt>
      <trkpt lat="38.111638" lon="-0.860346">
        <ele>27.079</ele>
        <time>2021-05-05T10:09:44Z</time>
      </trkpt>
      <trkpt lat="38.111651" lon="-0.860269">
        <ele>27.074</ele>
        <time>2021-05-05T10:09:46Z</time>
      </trkpt>
      <trkpt lat="38.111664" lon="-0.860205">
        <ele>27.057</ele>
        <time>2021-05-05T10:09:48Z</time>
      </trkpt>
      <trkpt lat="38.111675" lon="-0.860145">
        <ele>27.000</ele>
        <time>2021-05-05T10:09:50Z</time>
      </trkpt>
      <trkpt lat="38.111682" lon="-0.860083">
        <ele>27.020</ele>
        <time>2021-05-05T10:09:52Z</time>
      </trkpt>
      <trkpt lat="38.111698" lon="-0.859966">
        <ele>29.008</ele>
        <time>2021-05-05T10:09:54Z</time>
      </trkpt>
      <trkpt lat="38.111717" lon="-0.859883">
        <ele>30.052</ele>
        <time>2021-05-05T10:09:55Z</time>
      </trkpt>
      <trkpt lat="38.111730" lon="-0.859824">
        <ele>30.987</ele>
        <time>2021-05-05T10:09:56Z</time>
      </trkpt>
      <trkpt lat="38.111737" lon="-0.859762">
        <ele>31.647</ele>
        <time>2021-05-05T10:09:58Z</time>
      </trkpt>
      <trkpt lat="38.111743" lon="-0.859697">
        <ele>31.970</ele>
        <time>2021-05-05T10:10:00Z</time>
      </trkpt>
      <trkpt lat="38.111756" lon="-0.859595">
        <ele>31.980</ele>
        <time>2021-05-05T10:10:03Z</time>
      </trkpt>
      <trkpt lat="38.111773" lon="-0.859495">
        <ele>31.712</ele>
        <time>2021-05-05T10:10:04Z</time>
      </trkpt>
      <trkpt lat="38.111782" lon="-0.859429">
        <ele>31.789</ele>
        <time>2021-05-05T10:10:05Z</time>
      </trkpt>
      <trkpt lat="38.111801" lon="-0.859299">
        <ele>31.874</ele>
        <time>2021-05-05T10:10:08Z</time>
      </trkpt>
      <trkpt lat="38.111820" lon="-0.859210">
        <ele>32.053</ele>
        <time>2021-05-05T10:10:09Z</time>
      </trkpt>
      <trkpt lat="38.111833" lon="-0.859149">
        <ele>32.204</ele>
        <time>2021-05-05T10:10:11Z</time>
      </trkpt>
      <trkpt lat="38.111842" lon="-0.859090">
        <ele>32.114</ele>
        <time>2021-05-05T10:10:12Z</time>
      </trkpt>
      <trkpt lat="38.111851" lon="-0.859023">
        <ele>32.008</ele>
        <time>2021-05-05T10:10:13Z</time>
      </trkpt>
      <trkpt lat="38.111860" lon="-0.858957">
        <ele>31.662</ele>
        <time>2021-05-05T10:10:15Z</time>
      </trkpt>
      <trkpt lat="38.111868" lon="-0.858891">
        <ele>31.397</ele>
        <time>2021-05-05T10:10:16Z</time>
      </trkpt>
      <trkpt lat="38.111885" lon="-0.858818">
        <ele>31.567</ele>
        <time>2021-05-05T10:10:18Z</time>
      </trkpt>
      <trkpt lat="38.111896" lon="-0.858748">
        <ele>31.660</ele>
        <time>2021-05-05T10:10:20Z</time>
      </trkpt>
      <trkpt lat="38.111909" lon="-0.858689">
        <ele>31.350</ele>
        <time>2021-05-05T10:10:22Z</time>
      </trkpt>
      <trkpt lat="38.111923" lon="-0.858634">
        <ele>31.552</ele>
        <time>2021-05-05T10:10:24Z</time>
      </trkpt>
      <trkpt lat="38.111935" lon="-0.858572">
        <ele>31.259</ele>
        <time>2021-05-05T10:10:27Z</time>
      </trkpt>
      <trkpt lat="38.111923" lon="-0.858628">
        <ele>30.594</ele>
        <time>2021-05-05T10:11:38Z</time>
      </trkpt>
      <trkpt lat="38.111910" lon="-0.858689">
        <ele>30.934</ele>
        <time>2021-05-05T10:12:24Z</time>
      </trkpt>
      <trkpt lat="38.111909" lon="-0.858752">
        <ele>30.955</ele>
        <time>2021-05-05T10:12:27Z</time>
      </trkpt>
      <trkpt lat="38.111887" lon="-0.858834">
        <ele>30.810</ele>
        <time>2021-05-05T10:12:31Z</time>
      </trkpt>
      <trkpt lat="38.111879" lon="-0.858891">
        <ele>30.808</ele>
        <time>2021-05-05T10:12:33Z</time>
      </trkpt>
      <trkpt lat="38.111865" lon="-0.858969">
        <ele>30.570</ele>
        <time>2021-05-05T10:12:35Z</time>
      </trkpt>
      <trkpt lat="38.111854" lon="-0.859042">
        <ele>30.775</ele>
        <time>2021-05-05T10:12:37Z</time>
      </trkpt>
      <trkpt lat="38.111843" lon="-0.859113">
        <ele>30.855</ele>
        <time>2021-05-05T10:12:39Z</time>
      </trkpt>
      <trkpt lat="38.111833" lon="-0.859174">
        <ele>30.948</ele>
        <time>2021-05-05T10:12:40Z</time>
      </trkpt>
      <trkpt lat="38.111816" lon="-0.859258">
        <ele>31.228</ele>
        <time>2021-05-05T10:12:43Z</time>
      </trkpt>
      <trkpt lat="38.111805" lon="-0.859326">
        <ele>31.760</ele>
        <time>2021-05-05T10:12:45Z</time>
      </trkpt>
      <trkpt lat="38.111792" lon="-0.859402">
        <ele>31.867</ele>
        <time>2021-05-05T10:12:47Z</time>
      </trkpt>
      <trkpt lat="38.111779" lon="-0.859476">
        <ele>31.692</ele>
        <time>2021-05-05T10:12:48Z</time>
      </trkpt>
      <trkpt lat="38.111764" lon="-0.859559">
        <ele>31.732</ele>
        <time>2021-05-05T10:12:51Z</time>
      </trkpt>
      <trkpt lat="38.111751" lon="-0.859635">
        <ele>31.592</ele>
        <time>2021-05-05T10:12:52Z</time>
      </trkpt>
      <trkpt lat="38.111741" lon="-0.859708">
        <ele>31.511</ele>
        <time>2021-05-05T10:12:54Z</time>
      </trkpt>
      <trkpt lat="38.111736" lon="-0.859777">
        <ele>31.508</ele>
        <time>2021-05-05T10:12:56Z</time>
      </trkpt>
      <trkpt lat="38.111732" lon="-0.859847">
        <ele>31.750</ele>
        <time>2021-05-05T10:12:58Z</time>
      </trkpt>
      <trkpt lat="38.111714" lon="-0.859918">
        <ele>31.775</ele>
        <time>2021-05-05T10:13:00Z</time>
      </trkpt>
      <trkpt lat="38.111700" lon="-0.859995">
        <ele>31.885</ele>
        <time>2021-05-05T10:13:01Z</time>
      </trkpt>
      <trkpt lat="38.111689" lon="-0.860086">
        <ele>31.838</ele>
        <time>2021-05-05T10:13:03Z</time>
      </trkpt>
      <trkpt lat="38.111679" lon="-0.860152">
        <ele>31.718</ele>
        <time>2021-05-05T10:13:04Z</time>
      </trkpt>
      <trkpt lat="38.111668" lon="-0.860214">
        <ele>31.680</ele>
        <time>2021-05-05T10:13:06Z</time>
      </trkpt>
      <trkpt lat="38.111660" lon="-0.860285">
        <ele>31.397</ele>
        <time>2021-05-05T10:13:07Z</time>
      </trkpt>
      <trkpt lat="38.111645" lon="-0.860372">
        <ele>31.232</ele>
        <time>2021-05-05T10:13:09Z</time>
      </trkpt>
      <trkpt lat="38.111624" lon="-0.860435">
        <ele>31.319</ele>
        <time>2021-05-05T10:13:11Z</time>
      </trkpt>
      <trkpt lat="38.111609" lon="-0.860493">
        <ele>31.609</ele>
        <time>2021-05-05T10:13:13Z</time>
      </trkpt>
      <trkpt lat="38.111635" lon="-0.860550">
        <ele>32.219</ele>
        <time>2021-05-05T10:13:17Z</time>
      </trkpt>
      <trkpt lat="38.111696" lon="-0.860541">
        <ele>32.408</ele>
        <time>2021-05-05T10:13:19Z</time>
      </trkpt>
      <trkpt lat="38.111750" lon="-0.860557">
        <ele>32.788</ele>
        <time>2021-05-05T10:13:22Z</time>
      </trkpt>
      <trkpt lat="38.111719" lon="-0.860659">
        <ele>32.883</ele>
        <time>2021-05-05T10:13:24Z</time>
      </trkpt>
      <trkpt lat="38.111781" lon="-0.860691">
        <ele>32.623</ele>
        <time>2021-05-05T10:13:26Z</time>
      </trkpt>
      <trkpt lat="38.111885" lon="-0.860698">
        <ele>32.416</ele>
        <time>2021-05-05T10:13:27Z</time>
      </trkpt>
      <trkpt lat="38.111968" lon="-0.860722">
        <ele>32.446</ele>
        <time>2021-05-05T10:13:29Z</time>
      </trkpt>
      <trkpt lat="38.112038" lon="-0.860748">
        <ele>32.658</ele>
        <time>2021-05-05T10:13:31Z</time>
      </trkpt>
      <trkpt lat="38.112117" lon="-0.860787">
        <ele>32.735</ele>
        <time>2021-05-05T10:13:33Z</time>
      </trkpt>
      <trkpt lat="38.112191" lon="-0.860827">
        <ele>32.590</ele>
        <time>2021-05-05T10:13:36Z</time>
      </trkpt>
      <trkpt lat="38.112248" lon="-0.860849">
        <ele>32.595</ele>
        <time>2021-05-05T10:13:37Z</time>
      </trkpt>
      <trkpt lat="38.112308" lon="-0.860889">
        <ele>32.849</ele>
        <time>2021-05-05T10:13:40Z</time>
      </trkpt>
      <trkpt lat="38.112358" lon="-0.860916">
        <ele>33.023</ele>
        <time>2021-05-05T10:13:41Z</time>
      </trkpt>
      <trkpt lat="38.112438" lon="-0.860956">
        <ele>33.308</ele>
        <time>2021-05-05T10:13:44Z</time>
      </trkpt>
      <trkpt lat="38.112487" lon="-0.860990">
        <ele>33.326</ele>
        <time>2021-05-05T10:13:45Z</time>
      </trkpt>
      <trkpt lat="38.112552" lon="-0.861034">
        <ele>33.251</ele>
        <time>2021-05-05T10:13:48Z</time>
      </trkpt>
      <trkpt lat="38.112608" lon="-0.861072">
        <ele>33.731</ele>
        <time>2021-05-05T10:13:50Z</time>
      </trkpt>
      <trkpt lat="38.112661" lon="-0.861110">
        <ele>33.784</ele>
        <time>2021-05-05T10:13:52Z</time>
      </trkpt>
      <trkpt lat="38.112709" lon="-0.861135">
        <ele>34.014</ele>
        <time>2021-05-05T10:13:55Z</time>
      </trkpt>
      <trkpt lat="38.112755" lon="-0.861115">
        <ele>34.026</ele>
        <time>2021-05-05T10:13:57Z</time>
      </trkpt>
      <trkpt lat="38.112744" lon="-0.861056">
        <ele>34.033</ele>
        <time>2021-05-05T10:14:00Z</time>
      </trkpt>
      <trkpt lat="38.112722" lon="-0.861108">
        <ele>34.248</ele>
        <time>2021-05-05T10:14:05Z</time>
      </trkpt>
      <trkpt lat="38.112766" lon="-0.861164">
        <ele>34.317</ele>
        <time>2021-05-05T10:14:08Z</time>
      </trkpt>
      <trkpt lat="38.112808" lon="-0.861196">
        <ele>34.787</ele>
        <time>2021-05-05T10:14:10Z</time>
      </trkpt>
      <trkpt lat="38.112866" lon="-0.861237">
        <ele>35.015</ele>
        <time>2021-05-05T10:14:12Z</time>
      </trkpt>
      <trkpt lat="38.112924" lon="-0.861277">
        <ele>35.308</ele>
        <time>2021-05-05T10:14:13Z</time>
      </trkpt>
      <trkpt lat="38.112983" lon="-0.861322">
        <ele>35.358</ele>
        <time>2021-05-05T10:14:15Z</time>
      </trkpt>
      <trkpt lat="38.113027" lon="-0.861361">
        <ele>35.513</ele>
        <time>2021-05-05T10:14:19Z</time>
      </trkpt>
      <trkpt lat="38.113065" lon="-0.861408">
        <ele>36.213</ele>
        <time>2021-05-05T10:15:47Z</time>
      </trkpt>
      <trkpt lat="38.113106" lon="-0.861442">
        <ele>36.636</ele>
        <time>2021-05-05T10:15:49Z</time>
      </trkpt>
      <trkpt lat="38.113174" lon="-0.861469">
        <ele>36.756</ele>
        <time>2021-05-05T10:15:51Z</time>
      </trkpt>
      <trkpt lat="38.113218" lon="-0.861488">
        <ele>36.928</ele>
        <time>2021-05-05T10:15:53Z</time>
      </trkpt>
      <trkpt lat="38.113267" lon="-0.861508">
        <ele>37.075</ele>
        <time>2021-05-05T10:15:54Z</time>
      </trkpt>
      <trkpt lat="38.113333" lon="-0.861536">
        <ele>36.610</ele>
        <time>2021-05-05T10:15:56Z</time>
      </trkpt>
      <trkpt lat="38.113390" lon="-0.861564">
        <ele>36.532</ele>
        <time>2021-05-05T10:15:58Z</time>
      </trkpt>
      <trkpt lat="38.113449" lon="-0.861592">
        <ele>36.392</ele>
        <time>2021-05-05T10:16:00Z</time>
      </trkpt>
      <trkpt lat="38.113504" lon="-0.861620">
        <ele>36.111</ele>
        <time>2021-05-05T10:16:01Z</time>
      </trkpt>
      <trkpt lat="38.113566" lon="-0.861650">
        <ele>36.208</ele>
        <time>2021-05-05T10:16:03Z</time>
      </trkpt>
      <trkpt lat="38.113608" lon="-0.861673">
        <ele>36.030</ele>
        <time>2021-05-05T10:16:04Z</time>
      </trkpt>
      <trkpt lat="38.113660" lon="-0.861701">
        <ele>36.195</ele>
        <time>2021-05-05T10:16:06Z</time>
      </trkpt>
      <trkpt lat="38.113705" lon="-0.861733">
        <ele>36.035</ele>
        <time>2021-05-05T10:16:07Z</time>
      </trkpt>
      <trkpt lat="38.113753" lon="-0.861764">
        <ele>36.268</ele>
        <time>2021-05-05T10:16:09Z</time>
      </trkpt>
      <trkpt lat="38.113807" lon="-0.861799">
        <ele>36.148</ele>
        <time>2021-05-05T10:16:10Z</time>
      </trkpt>
      <trkpt lat="38.113869" lon="-0.861843">
        <ele>36.440</ele>
        <time>2021-05-05T10:16:12Z</time>
      </trkpt>
      <trkpt lat="38.113936" lon="-0.861885">
        <ele>36.587</ele>
        <time>2021-05-05T10:16:14Z</time>
      </trkpt>
      <trkpt lat="38.114013" lon="-0.861931">
        <ele>36.332</ele>
        <time>2021-05-05T10:16:16Z</time>
      </trkpt>
      <trkpt lat="38.114072" lon="-0.861970">
        <ele>36.419</ele>
        <time>2021-05-05T10:16:18Z</time>
      </trkpt>
      <trkpt lat="38.114112" lon="-0.861997">
        <ele>36.609</ele>
        <time>2021-05-05T10:16:19Z</time>
      </trkpt>
      <trkpt lat="38.114171" lon="-0.862035">
        <ele>36.519</ele>
        <time>2021-05-05T10:16:21Z</time>
      </trkpt>
      <trkpt lat="38.114213" lon="-0.862066">
        <ele>36.408</ele>
        <time>2021-05-05T10:16:22Z</time>
      </trkpt>
      <trkpt lat="38.114281" lon="-0.862115">
        <ele>36.628</ele>
        <time>2021-05-05T10:16:25Z</time>
      </trkpt>
      <trkpt lat="38.114358" lon="-0.862167">
        <ele>36.433</ele>
        <time>2021-05-05T10:16:27Z</time>
      </trkpt>
      <trkpt lat="38.114398" lon="-0.862196">
        <ele>36.413</ele>
        <time>2021-05-05T10:16:28Z</time>
      </trkpt>
      <trkpt lat="38.114453" lon="-0.862237">
        <ele>36.646</ele>
        <time>2021-05-05T10:16:30Z</time>
      </trkpt>
      <trkpt lat="38.114505" lon="-0.862276">
        <ele>36.976</ele>
        <time>2021-05-05T10:16:32Z</time>
      </trkpt>
      <trkpt lat="38.114579" lon="-0.862312">
        <ele>36.948</ele>
        <time>2021-05-05T10:16:34Z</time>
      </trkpt>
      <trkpt lat="38.114629" lon="-0.862347">
        <ele>36.815</ele>
        <time>2021-05-05T10:16:35Z</time>
      </trkpt>
      <trkpt lat="38.114675" lon="-0.862382">
        <ele>36.910</ele>
        <time>2021-05-05T10:16:37Z</time>
      </trkpt>
      <trkpt lat="38.114726" lon="-0.862410">
        <ele>36.657</ele>
        <time>2021-05-05T10:16:38Z</time>
      </trkpt>
      <trkpt lat="38.114770" lon="-0.862441">
        <ele>36.800</ele>
        <time>2021-05-05T10:16:40Z</time>
      </trkpt>
      <trkpt lat="38.114812" lon="-0.862476">
        <ele>36.720</ele>
        <time>2021-05-05T10:16:41Z</time>
      </trkpt>
      <trkpt lat="38.114866" lon="-0.862518">
        <ele>36.508</ele>
        <time>2021-05-05T10:16:43Z</time>
      </trkpt>
      <trkpt lat="38.114909" lon="-0.862545">
        <ele>36.242</ele>
        <time>2021-05-05T10:16:45Z</time>
      </trkpt>
      <trkpt lat="38.114962" lon="-0.862565">
        <ele>35.477</ele>
        <time>2021-05-05T10:17:52Z</time>
      </trkpt>
      <trkpt lat="38.115020" lon="-0.862544">
        <ele>32.627</ele>
        <time>2021-05-05T10:17:55Z</time>
      </trkpt>
      <trkpt lat="38.115026" lon="-0.862484">
        <ele>30.950</ele>
        <time>2021-05-05T10:18:01Z</time>
      </trkpt>
      <trkpt lat="38.115070" lon="-0.862407">
        <ele>29.960</ele>
        <time>2021-05-05T10:18:02Z</time>
      </trkpt>
      <trkpt lat="38.115102" lon="-0.862348">
        <ele>29.332</ele>
        <time>2021-05-05T10:18:04Z</time>
      </trkpt>
      <trkpt lat="38.115138" lon="-0.862272">
        <ele>28.939</ele>
        <time>2021-05-05T10:18:05Z</time>
      </trkpt>
      <trkpt lat="38.115180" lon="-0.862186">
        <ele>28.744</ele>
        <time>2021-05-05T10:18:07Z</time>
      </trkpt>
      <trkpt lat="38.115206" lon="-0.862134">
        <ele>28.664</ele>
        <time>2021-05-05T10:18:09Z</time>
      </trkpt>
      <trkpt lat="38.115242" lon="-0.862049">
        <ele>28.506</ele>
        <time>2021-05-05T10:18:11Z</time>
      </trkpt>
      <trkpt lat="38.115278" lon="-0.861970">
        <ele>28.516</ele>
        <time>2021-05-05T10:18:13Z</time>
      </trkpt>
      <trkpt lat="38.115307" lon="-0.861894">
        <ele>28.508</ele>
        <time>2021-05-05T10:18:14Z</time>
      </trkpt>
      <trkpt lat="38.115321" lon="-0.861824">
        <ele>28.573</ele>
        <time>2021-05-05T10:18:16Z</time>
      </trkpt>
      <trkpt lat="38.115327" lon="-0.861760">
        <ele>28.518</ele>
        <time>2021-05-05T10:18:17Z</time>
      </trkpt>
      <trkpt lat="38.115325" lon="-0.861660">
        <ele>28.548</ele>
        <time>2021-05-05T10:18:19Z</time>
      </trkpt>
      <trkpt lat="38.115327" lon="-0.861597">
        <ele>28.541</ele>
        <time>2021-05-05T10:18:21Z</time>
      </trkpt>
      <trkpt lat="38.115327" lon="-0.861523">
        <ele>28.581</ele>
        <time>2021-05-05T10:18:22Z</time>
      </trkpt>
      <trkpt lat="38.115313" lon="-0.861458">
        <ele>28.553</ele>
        <time>2021-05-05T10:18:23Z</time>
      </trkpt>
      <trkpt lat="38.115304" lon="-0.861359">
        <ele>28.550</ele>
        <time>2021-05-05T10:18:25Z</time>
      </trkpt>
      <trkpt lat="38.115293" lon="-0.861266">
        <ele>28.545</ele>
        <time>2021-05-05T10:18:27Z</time>
      </trkpt>
      <trkpt lat="38.115286" lon="-0.861198">
        <ele>28.576</ele>
        <time>2021-05-05T10:18:28Z</time>
      </trkpt>
      <trkpt lat="38.115282" lon="-0.861131">
        <ele>28.590</ele>
        <time>2021-05-05T10:18:30Z</time>
      </trkpt>
      <trkpt lat="38.115279" lon="-0.861034">
        <ele>28.519</ele>
        <time>2021-05-05T10:18:31Z</time>
      </trkpt>
      <trkpt lat="38.115277" lon="-0.860963">
        <ele>28.508</ele>
        <time>2021-05-05T10:18:33Z</time>
      </trkpt>
      <trkpt lat="38.115267" lon="-0.860857">
        <ele>28.584</ele>
        <time>2021-05-05T10:18:34Z</time>
      </trkpt>
      <trkpt lat="38.115264" lon="-0.860798">
        <ele>28.559</ele>
        <time>2021-05-05T10:18:36Z</time>
      </trkpt>
      <trkpt lat="38.115264" lon="-0.860702">
        <ele>28.529</ele>
        <time>2021-05-05T10:18:37Z</time>
      </trkpt>
      <trkpt lat="38.115260" lon="-0.860638">
        <ele>28.532</ele>
        <time>2021-05-05T10:18:39Z</time>
      </trkpt>
      <trkpt lat="38.115251" lon="-0.860544">
        <ele>28.572</ele>
        <time>2021-05-05T10:18:40Z</time>
      </trkpt>
      <trkpt lat="38.115244" lon="-0.860480">
        <ele>28.584</ele>
        <time>2021-05-05T10:18:42Z</time>
      </trkpt>
      <trkpt lat="38.115241" lon="-0.860378">
        <ele>28.561</ele>
        <time>2021-05-05T10:18:43Z</time>
      </trkpt>
      <trkpt lat="38.115234" lon="-0.860313">
        <ele>28.546</ele>
        <time>2021-05-05T10:18:44Z</time>
      </trkpt>
      <trkpt lat="38.115232" lon="-0.860248">
        <ele>28.575</ele>
        <time>2021-05-05T10:18:46Z</time>
      </trkpt>
      <trkpt lat="38.115228" lon="-0.860185">
        <ele>28.528</ele>
        <time>2021-05-05T10:18:47Z</time>
      </trkpt>
      <trkpt lat="38.115216" lon="-0.860100">
        <ele>28.520</ele>
        <time>2021-05-05T10:18:48Z</time>
      </trkpt>
      <trkpt lat="38.115207" lon="-0.860010">
        <ele>28.508</ele>
        <time>2021-05-05T10:18:50Z</time>
      </trkpt>
      <trkpt lat="38.115202" lon="-0.859941">
        <ele>28.554</ele>
        <time>2021-05-05T10:18:51Z</time>
      </trkpt>
      <trkpt lat="38.115190" lon="-0.859801">
        <ele>30.719</ele>
        <time>2021-05-05T10:18:54Z</time>
      </trkpt>
      <trkpt lat="38.115186" lon="-0.859742">
        <ele>31.879</ele>
        <time>2021-05-05T10:18:55Z</time>
      </trkpt>
      <trkpt lat="38.115176" lon="-0.859628">
        <ele>32.082</ele>
        <time>2021-05-05T10:18:57Z</time>
      </trkpt>
      <trkpt lat="38.115172" lon="-0.859511">
        <ele>32.232</ele>
        <time>2021-05-05T10:18:59Z</time>
      </trkpt>
      <trkpt lat="38.115171" lon="-0.859452">
        <ele>32.594</ele>
        <time>2021-05-05T10:19:00Z</time>
      </trkpt>
      <trkpt lat="38.115171" lon="-0.859394">
        <ele>32.641</ele>
        <time>2021-05-05T10:19:01Z</time>
      </trkpt>
      <trkpt lat="38.115171" lon="-0.859333">
        <ele>32.616</ele>
        <time>2021-05-05T10:19:02Z</time>
      </trkpt>
      <trkpt lat="38.115172" lon="-0.859215">
        <ele>32.359</ele>
        <time>2021-05-05T10:19:04Z</time>
      </trkpt>
      <trkpt lat="38.115172" lon="-0.859119">
        <ele>32.303</ele>
        <time>2021-05-05T10:19:06Z</time>
      </trkpt>
      <trkpt lat="38.115180" lon="-0.858997">
        <ele>32.323</ele>
        <time>2021-05-05T10:19:08Z</time>
      </trkpt>
      <trkpt lat="38.115183" lon="-0.858876">
        <ele>32.508</ele>
        <time>2021-05-05T10:19:10Z</time>
      </trkpt>
      <trkpt lat="38.115183" lon="-0.858816">
        <ele>32.622</ele>
        <time>2021-05-05T10:19:11Z</time>
      </trkpt>
      <trkpt lat="38.115189" lon="-0.858693">
        <ele>32.977</ele>
        <time>2021-05-05T10:19:13Z</time>
      </trkpt>
      <trkpt lat="38.115194" lon="-0.858631">
        <ele>33.217</ele>
        <time>2021-05-05T10:19:14Z</time>
      </trkpt>
      <trkpt lat="38.115200" lon="-0.858510">
        <ele>33.330</ele>
        <time>2021-05-05T10:19:16Z</time>
      </trkpt>
      <trkpt lat="38.115207" lon="-0.858388">
        <ele>33.330</ele>
        <time>2021-05-05T10:19:18Z</time>
      </trkpt>
      <trkpt lat="38.115209" lon="-0.858326">
        <ele>33.462</ele>
        <time>2021-05-05T10:19:19Z</time>
      </trkpt>
      <trkpt lat="38.115214" lon="-0.858205">
        <ele>33.439</ele>
        <time>2021-05-05T10:19:21Z</time>
      </trkpt>
      <trkpt lat="38.115218" lon="-0.858142">
        <ele>33.264</ele>
        <time>2021-05-05T10:19:22Z</time>
      </trkpt>
      <trkpt lat="38.115222" lon="-0.858081">
        <ele>33.087</ele>
        <time>2021-05-05T10:19:23Z</time>
      </trkpt>
      <trkpt lat="38.115228" lon="-0.858020">
        <ele>33.242</ele>
        <time>2021-05-05T10:19:24Z</time>
      </trkpt>
      <trkpt lat="38.115232" lon="-0.857899">
        <ele>33.126</ele>
        <time>2021-05-05T10:19:26Z</time>
      </trkpt>
      <trkpt lat="38.115244" lon="-0.857774">
        <ele>33.108</ele>
        <time>2021-05-05T10:19:28Z</time>
      </trkpt>
      <trkpt lat="38.115248" lon="-0.857711">
        <ele>32.935</ele>
        <time>2021-05-05T10:19:29Z</time>
      </trkpt>
      <trkpt lat="38.115253" lon="-0.857584">
        <ele>33.190</ele>
        <time>2021-05-05T10:19:31Z</time>
      </trkpt>
      <trkpt lat="38.115253" lon="-0.857459">
        <ele>33.130</ele>
        <time>2021-05-05T10:19:33Z</time>
      </trkpt>
      <trkpt lat="38.115252" lon="-0.857397">
        <ele>33.323</ele>
        <time>2021-05-05T10:19:34Z</time>
      </trkpt>
      <trkpt lat="38.115245" lon="-0.857275">
        <ele>33.223</ele>
        <time>2021-05-05T10:19:36Z</time>
      </trkpt>
      <trkpt lat="38.115241" lon="-0.857214">
        <ele>33.025</ele>
        <time>2021-05-05T10:19:37Z</time>
      </trkpt>
      <trkpt lat="38.115238" lon="-0.857091">
        <ele>32.632</ele>
        <time>2021-05-05T10:19:39Z</time>
      </trkpt>
      <trkpt lat="38.115234" lon="-0.856971">
        <ele>32.357</ele>
        <time>2021-05-05T10:19:41Z</time>
      </trkpt>
      <trkpt lat="38.115233" lon="-0.856910">
        <ele>32.434</ele>
        <time>2021-05-05T10:19:42Z</time>
      </trkpt>
      <trkpt lat="38.115227" lon="-0.856786">
        <ele>32.655</ele>
        <time>2021-05-05T10:19:44Z</time>
      </trkpt>
      <trkpt lat="38.115224" lon="-0.856724">
        <ele>32.710</ele>
        <time>2021-05-05T10:19:45Z</time>
      </trkpt>
      <trkpt lat="38.115228" lon="-0.856600">
        <ele>33.208</ele>
        <time>2021-05-05T10:19:47Z</time>
      </trkpt>
      <trkpt lat="38.115227" lon="-0.856479">
        <ele>33.580</ele>
        <time>2021-05-05T10:19:49Z</time>
      </trkpt>
      <trkpt lat="38.115226" lon="-0.856418">
        <ele>33.145</ele>
        <time>2021-05-05T10:19:50Z</time>
      </trkpt>
      <trkpt lat="38.115228" lon="-0.856359">
        <ele>33.055</ele>
        <time>2021-05-05T10:19:51Z</time>
      </trkpt>
      <trkpt lat="38.115228" lon="-0.856243">
        <ele>33.168</ele>
        <time>2021-05-05T10:19:53Z</time>
      </trkpt>
      <trkpt lat="38.115227" lon="-0.856125">
        <ele>33.358</ele>
        <time>2021-05-05T10:19:55Z</time>
      </trkpt>
      <trkpt lat="38.115227" lon="-0.856062">
        <ele>33.380</ele>
        <time>2021-05-05T10:19:56Z</time>
      </trkpt>
      <trkpt lat="38.115224" lon="-0.855936">
        <ele>33.457</ele>
        <time>2021-05-05T10:19:58Z</time>
      </trkpt>
      <trkpt lat="38.115224" lon="-0.855872">
        <ele>33.772</ele>
        <time>2021-05-05T10:19:59Z</time>
      </trkpt>
      <trkpt lat="38.115221" lon="-0.855748">
        <ele>33.735</ele>
        <time>2021-05-05T10:20:01Z</time>
      </trkpt>
      <trkpt lat="38.115214" lon="-0.855686">
        <ele>33.786</ele>
        <time>2021-05-05T10:20:02Z</time>
      </trkpt>
      <trkpt lat="38.115209" lon="-0.855622">
        <ele>33.914</ele>
        <time>2021-05-05T10:20:03Z</time>
      </trkpt>
      <trkpt lat="38.115209" lon="-0.855558">
        <ele>34.208</ele>
        <time>2021-05-05T10:20:04Z</time>
      </trkpt>
      <trkpt lat="38.115213" lon="-0.855437">
        <ele>34.450</ele>
        <time>2021-05-05T10:20:06Z</time>
      </trkpt>
      <trkpt lat="38.115215" lon="-0.855321">
        <ele>34.265</ele>
        <time>2021-05-05T10:20:08Z</time>
      </trkpt>
      <trkpt lat="38.115210" lon="-0.855257">
        <ele>34.175</ele>
        <time>2021-05-05T10:20:10Z</time>
      </trkpt>
      <trkpt lat="38.115204" lon="-0.855158">
        <ele>34.038</ele>
        <time>2021-05-05T10:20:13Z</time>
      </trkpt>
      <trkpt lat="38.115200" lon="-0.855015">
        <ele>34.298</ele>
        <time>2021-05-05T10:20:15Z</time>
      </trkpt>
      <trkpt lat="38.115192" lon="-0.854922">
        <ele>31.980</ele>
        <time>2021-05-05T10:20:16Z</time>
      </trkpt>
      <trkpt lat="38.115187" lon="-0.854865">
        <ele>30.567</ele>
        <time>2021-05-05T10:20:17Z</time>
      </trkpt>
      <trkpt lat="38.115157" lon="-0.854802">
        <ele>29.682</ele>
        <time>2021-05-05T10:20:20Z</time>
      </trkpt>
      <trkpt lat="38.115197" lon="-0.854755">
        <ele>29.133</ele>
        <time>2021-05-05T10:20:22Z</time>
      </trkpt>
      <trkpt lat="38.115186" lon="-0.854665">
        <ele>28.823</ele>
        <time>2021-05-05T10:20:26Z</time>
      </trkpt>
      <trkpt lat="38.115185" lon="-0.854602">
        <ele>28.615</ele>
        <time>2021-05-05T10:20:27Z</time>
      </trkpt>
      <trkpt lat="38.115179" lon="-0.854516">
        <ele>28.508</ele>
        <time>2021-05-05T10:20:30Z</time>
      </trkpt>
      <trkpt lat="38.115164" lon="-0.854457">
        <ele>28.460</ele>
        <time>2021-05-05T10:20:31Z</time>
      </trkpt>
      <trkpt lat="38.115155" lon="-0.854381">
        <ele>28.485</ele>
        <time>2021-05-05T10:20:33Z</time>
      </trkpt>
      <trkpt lat="38.115147" lon="-0.854301">
        <ele>28.475</ele>
        <time>2021-05-05T10:20:35Z</time>
      </trkpt>
      <trkpt lat="38.115142" lon="-0.854243">
        <ele>28.418</ele>
        <time>2021-05-05T10:20:37Z</time>
      </trkpt>
      <trkpt lat="38.115116" lon="-0.854162">
        <ele>28.418</ele>
        <time>2021-05-05T10:20:39Z</time>
      </trkpt>
      <trkpt lat="38.115099" lon="-0.854080">
        <ele>28.420</ele>
        <time>2021-05-05T10:20:41Z</time>
      </trkpt>
      <trkpt lat="38.115099" lon="-0.854012">
        <ele>28.457</ele>
        <time>2021-05-05T10:20:42Z</time>
      </trkpt>
      <trkpt lat="38.115098" lon="-0.853952">
        <ele>28.462</ele>
        <time>2021-05-05T10:20:43Z</time>
      </trkpt>
      <trkpt lat="38.115093" lon="-0.853894">
        <ele>28.493</ele>
        <time>2021-05-05T10:20:45Z</time>
      </trkpt>
      <trkpt lat="38.115081" lon="-0.853823">
        <ele>28.465</ele>
        <time>2021-05-05T10:20:46Z</time>
      </trkpt>
      <trkpt lat="38.115074" lon="-0.853731">
        <ele>28.421</ele>
        <time>2021-05-05T10:20:48Z</time>
      </trkpt>
      <trkpt lat="38.115111" lon="-0.853692">
        <ele>28.408</ele>
        <time>2021-05-05T10:20:51Z</time>
      </trkpt>
      <trkpt lat="38.115180" lon="-0.853669">
        <ele>28.446</ele>
        <time>2021-05-05T10:20:54Z</time>
      </trkpt>
      <trkpt lat="38.115225" lon="-0.853641">
        <ele>28.451</ele>
        <time>2021-05-05T10:20:55Z</time>
      </trkpt>
      <trkpt lat="38.115280" lon="-0.853596">
        <ele>28.311</ele>
        <time>2021-05-05T10:20:57Z</time>
      </trkpt>
      <trkpt lat="38.115338" lon="-0.853542">
        <ele>28.384</ele>
        <time>2021-05-05T10:20:58Z</time>
      </trkpt>
      <trkpt lat="38.115395" lon="-0.853484">
        <ele>28.374</ele>
        <time>2021-05-05T10:21:00Z</time>
      </trkpt>
      <trkpt lat="38.115444" lon="-0.853433">
        <ele>28.326</ele>
        <time>2021-05-05T10:21:01Z</time>
      </trkpt>
      <trkpt lat="38.115499" lon="-0.853368">
        <ele>28.313</ele>
        <time>2021-05-05T10:21:03Z</time>
      </trkpt>
      <trkpt lat="38.115548" lon="-0.853318">
        <ele>28.328</ele>
        <time>2021-05-05T10:21:04Z</time>
      </trkpt>
      <trkpt lat="38.115591" lon="-0.853272">
        <ele>28.368</ele>
        <time>2021-05-05T10:21:06Z</time>
      </trkpt>
      <trkpt lat="38.115648" lon="-0.853211">
        <ele>28.342</ele>
        <time>2021-05-05T10:21:07Z</time>
      </trkpt>
      <trkpt lat="38.115703" lon="-0.853152">
        <ele>28.326</ele>
        <time>2021-05-05T10:21:09Z</time>
      </trkpt>
      <trkpt lat="38.115737" lon="-0.853113">
        <ele>28.308</ele>
        <time>2021-05-05T10:21:10Z</time>
      </trkpt>
      <trkpt lat="38.115777" lon="-0.853071">
        <ele>28.333</ele>
        <time>2021-05-05T10:21:11Z</time>
      </trkpt>
      <trkpt lat="38.115833" lon="-0.853001">
        <ele>28.348</ele>
        <time>2021-05-05T10:21:13Z</time>
      </trkpt>
      <trkpt lat="38.115866" lon="-0.852961">
        <ele>28.368</ele>
        <time>2021-05-05T10:21:14Z</time>
      </trkpt>
      <trkpt lat="38.115934" lon="-0.852882">
        <ele>30.061</ele>
        <time>2021-05-05T10:21:16Z</time>
      </trkpt>
      <trkpt lat="38.116001" lon="-0.852805">
        <ele>30.121</ele>
        <time>2021-05-05T10:21:18Z</time>
      </trkpt>
      <trkpt lat="38.116088" lon="-0.852698">
        <ele>30.553</ele>
        <time>2021-05-05T10:21:21Z</time>
      </trkpt>
      <trkpt lat="38.116125" lon="-0.852654">
        <ele>30.740</ele>
        <time>2021-05-05T10:21:22Z</time>
      </trkpt>
      <trkpt lat="38.116191" lon="-0.852582">
        <ele>30.685</ele>
        <time>2021-05-05T10:21:24Z</time>
      </trkpt>
      <trkpt lat="38.116255" lon="-0.852506">
        <ele>30.581</ele>
        <time>2021-05-05T10:21:26Z</time>
      </trkpt>
      <trkpt lat="38.116292" lon="-0.852463">
        <ele>30.761</ele>
        <time>2021-05-05T10:21:27Z</time>
      </trkpt>
      <trkpt lat="38.116363" lon="-0.852375">
        <ele>30.917</ele>
        <time>2021-05-05T10:21:29Z</time>
      </trkpt>
      <trkpt lat="38.116398" lon="-0.852331">
        <ele>30.808</ele>
        <time>2021-05-05T10:21:30Z</time>
      </trkpt>
      <trkpt lat="38.116436" lon="-0.852288">
        <ele>30.635</ele>
        <time>2021-05-05T10:21:31Z</time>
      </trkpt>
      <trkpt lat="38.116471" lon="-0.852243">
        <ele>30.440</ele>
        <time>2021-05-05T10:21:32Z</time>
      </trkpt>
      <trkpt lat="38.116537" lon="-0.852156">
        <ele>30.390</ele>
        <time>2021-05-05T10:21:34Z</time>
      </trkpt>
      <trkpt lat="38.116611" lon="-0.852079">
        <ele>30.543</ele>
        <time>2021-05-05T10:21:36Z</time>
      </trkpt>
      <trkpt lat="38.116649" lon="-0.852037">
        <ele>30.053</ele>
        <time>2021-05-05T10:21:37Z</time>
      </trkpt>
      <trkpt lat="38.116725" lon="-0.851960">
        <ele>29.645</ele>
        <time>2021-05-05T10:21:39Z</time>
      </trkpt>
      <trkpt lat="38.116759" lon="-0.851918">
        <ele>29.312</ele>
        <time>2021-05-05T10:21:40Z</time>
      </trkpt>
      <trkpt lat="38.116794" lon="-0.851877">
        <ele>29.447</ele>
        <time>2021-05-05T10:21:41Z</time>
      </trkpt>
      <trkpt lat="38.116863" lon="-0.851795">
        <ele>29.661</ele>
        <time>2021-05-05T10:21:43Z</time>
      </trkpt>
      <trkpt lat="38.116898" lon="-0.851757">
        <ele>30.221</ele>
        <time>2021-05-05T10:21:44Z</time>
      </trkpt>
      <trkpt lat="38.116975" lon="-0.851683">
        <ele>30.713</ele>
        <time>2021-05-05T10:21:46Z</time>
      </trkpt>
      <trkpt lat="38.117052" lon="-0.851602">
        <ele>30.808</ele>
        <time>2021-05-05T10:21:48Z</time>
      </trkpt>
      <trkpt lat="38.117130" lon="-0.851532">
        <ele>30.963</ele>
        <time>2021-05-05T10:21:50Z</time>
      </trkpt>
      <trkpt lat="38.117210" lon="-0.851451">
        <ele>31.068</ele>
        <time>2021-05-05T10:21:52Z</time>
      </trkpt>
      <trkpt lat="38.117284" lon="-0.851362">
        <ele>31.588</ele>
        <time>2021-05-05T10:21:54Z</time>
      </trkpt>
      <trkpt lat="38.117350" lon="-0.851279">
        <ele>31.691</ele>
        <time>2021-05-05T10:21:56Z</time>
      </trkpt>
      <trkpt lat="38.117384" lon="-0.851234">
        <ele>31.551</ele>
        <time>2021-05-05T10:21:57Z</time>
      </trkpt>
      <trkpt lat="38.117419" lon="-0.851193">
        <ele>31.563</ele>
        <time>2021-05-05T10:21:58Z</time>
      </trkpt>
      <trkpt lat="38.117494" lon="-0.851128">
        <ele>31.190</ele>
        <time>2021-05-05T10:22:00Z</time>
      </trkpt>
      <trkpt lat="38.117532" lon="-0.851088">
        <ele>30.695</ele>
        <time>2021-05-05T10:22:01Z</time>
      </trkpt>
      <trkpt lat="38.117569" lon="-0.851046">
        <ele>30.268</ele>
        <time>2021-05-05T10:22:02Z</time>
      </trkpt>
      <trkpt lat="38.117607" lon="-0.851000">
        <ele>30.242</ele>
        <time>2021-05-05T10:22:03Z</time>
      </trkpt>
      <trkpt lat="38.117646" lon="-0.850957">
        <ele>29.926</ele>
        <time>2021-05-05T10:22:04Z</time>
      </trkpt>
      <trkpt lat="38.117709" lon="-0.850867">
        <ele>29.708</ele>
        <time>2021-05-05T10:22:06Z</time>
      </trkpt>
      <trkpt lat="38.117742" lon="-0.850826">
        <ele>29.573</ele>
        <time>2021-05-05T10:22:07Z</time>
      </trkpt>
      <trkpt lat="38.117814" lon="-0.850738">
        <ele>29.188</ele>
        <time>2021-05-05T10:22:09Z</time>
      </trkpt>
      <trkpt lat="38.117888" lon="-0.850650">
        <ele>29.748</ele>
        <time>2021-05-05T10:22:11Z</time>
      </trkpt>
      <trkpt lat="38.117951" lon="-0.850573">
        <ele>29.551</ele>
        <time>2021-05-05T10:22:13Z</time>
      </trkpt>
      <trkpt lat="38.118013" lon="-0.850500">
        <ele>28.921</ele>
        <time>2021-05-05T10:22:15Z</time>
      </trkpt>
      <trkpt lat="38.118085" lon="-0.850413">
        <ele>28.983</ele>
        <time>2021-05-05T10:22:17Z</time>
      </trkpt>
      <trkpt lat="38.118122" lon="-0.850371">
        <ele>28.880</ele>
        <time>2021-05-05T10:22:18Z</time>
      </trkpt>
      <trkpt lat="38.118206" lon="-0.850283">
        <ele>29.245</ele>
        <time>2021-05-05T10:22:20Z</time>
      </trkpt>
      <trkpt lat="38.118248" lon="-0.850239">
        <ele>30.188</ele>
        <time>2021-05-05T10:22:21Z</time>
      </trkpt>
      <trkpt lat="38.118288" lon="-0.850188">
        <ele>30.524</ele>
        <time>2021-05-05T10:22:22Z</time>
      </trkpt>
      <trkpt lat="38.118327" lon="-0.850139">
        <ele>31.226</ele>
        <time>2021-05-05T10:22:23Z</time>
      </trkpt>
      <trkpt lat="38.118365" lon="-0.850092">
        <ele>30.708</ele>
        <time>2021-05-05T10:22:24Z</time>
      </trkpt>
      <trkpt lat="38.118428" lon="-0.850001">
        <ele>30.095</ele>
        <time>2021-05-05T10:22:26Z</time>
      </trkpt>
      <trkpt lat="38.118461" lon="-0.849960">
        <ele>29.850</ele>
        <time>2021-05-05T10:22:27Z</time>
      </trkpt>
      <trkpt lat="38.118497" lon="-0.849920">
        <ele>29.940</ele>
        <time>2021-05-05T10:22:28Z</time>
      </trkpt>
      <trkpt lat="38.118572" lon="-0.849837">
        <ele>29.623</ele>
        <time>2021-05-05T10:22:30Z</time>
      </trkpt>
      <trkpt lat="38.118610" lon="-0.849795">
        <ele>29.853</ele>
        <time>2021-05-05T10:22:31Z</time>
      </trkpt>
      <trkpt lat="38.118668" lon="-0.849721">
        <ele>29.665</ele>
        <time>2021-05-05T10:22:33Z</time>
      </trkpt>
      <trkpt lat="38.118731" lon="-0.849639">
        <ele>29.712</ele>
        <time>2021-05-05T10:22:35Z</time>
      </trkpt>
      <trkpt lat="38.118801" lon="-0.849564">
        <ele>30.347</ele>
        <time>2021-05-05T10:22:37Z</time>
      </trkpt>
      <trkpt lat="38.118837" lon="-0.849523">
        <ele>30.522</ele>
        <time>2021-05-05T10:22:38Z</time>
      </trkpt>
      <trkpt lat="38.118908" lon="-0.849442">
        <ele>30.562</ele>
        <time>2021-05-05T10:22:40Z</time>
      </trkpt>
      <trkpt lat="38.118947" lon="-0.849400">
        <ele>30.408</ele>
        <time>2021-05-05T10:22:41Z</time>
      </trkpt>
      <trkpt lat="38.119024" lon="-0.849316">
        <ele>30.208</ele>
        <time>2021-05-05T10:22:43Z</time>
      </trkpt>
      <trkpt lat="38.119059" lon="-0.849272">
        <ele>29.949</ele>
        <time>2021-05-05T10:22:44Z</time>
      </trkpt>
      <trkpt lat="38.119123" lon="-0.849185">
        <ele>29.864</ele>
        <time>2021-05-05T10:22:46Z</time>
      </trkpt>
      <trkpt lat="38.119178" lon="-0.849120">
        <ele>29.344</ele>
        <time>2021-05-05T10:22:48Z</time>
      </trkpt>
      <trkpt lat="38.119219" lon="-0.849079">
        <ele>29.087</ele>
        <time>2021-05-05T10:22:49Z</time>
      </trkpt>
      <trkpt lat="38.119302" lon="-0.848998">
        <ele>28.917</ele>
        <time>2021-05-05T10:22:51Z</time>
      </trkpt>
      <trkpt lat="38.119380" lon="-0.848913">
        <ele>29.469</ele>
        <time>2021-05-05T10:22:53Z</time>
      </trkpt>
      <trkpt lat="38.119417" lon="-0.848869">
        <ele>29.296</ele>
        <time>2021-05-05T10:22:54Z</time>
      </trkpt>
      <trkpt lat="38.119457" lon="-0.848821">
        <ele>29.441</ele>
        <time>2021-05-05T10:22:55Z</time>
      </trkpt>
      <trkpt lat="38.119533" lon="-0.848730">
        <ele>29.377</ele>
        <time>2021-05-05T10:22:57Z</time>
      </trkpt>
      <trkpt lat="38.119613" lon="-0.848644">
        <ele>29.361</ele>
        <time>2021-05-05T10:22:59Z</time>
      </trkpt>
      <trkpt lat="38.119653" lon="-0.848602">
        <ele>29.127</ele>
        <time>2021-05-05T10:23:00Z</time>
      </trkpt>
      <trkpt lat="38.119732" lon="-0.848514">
        <ele>29.208</ele>
        <time>2021-05-05T10:23:02Z</time>
      </trkpt>
      <trkpt lat="38.119811" lon="-0.848427">
        <ele>29.344</ele>
        <time>2021-05-05T10:23:04Z</time>
      </trkpt>
      <trkpt lat="38.119887" lon="-0.848341">
        <ele>30.399</ele>
        <time>2021-05-05T10:23:06Z</time>
      </trkpt>
      <trkpt lat="38.119962" lon="-0.848262">
        <ele>30.249</ele>
        <time>2021-05-05T10:23:08Z</time>
      </trkpt>
      <trkpt lat="38.120035" lon="-0.848172">
        <ele>30.332</ele>
        <time>2021-05-05T10:23:10Z</time>
      </trkpt>
      <trkpt lat="38.120110" lon="-0.848083">
        <ele>30.732</ele>
        <time>2021-05-05T10:23:12Z</time>
      </trkpt>
      <trkpt lat="38.120180" lon="-0.847994">
        <ele>31.394</ele>
        <time>2021-05-05T10:23:14Z</time>
      </trkpt>
      <trkpt lat="38.120219" lon="-0.847952">
        <ele>31.141</ele>
        <time>2021-05-05T10:23:15Z</time>
      </trkpt>
      <trkpt lat="38.120295" lon="-0.847862">
        <ele>30.946</ele>
        <time>2021-05-05T10:23:17Z</time>
      </trkpt>
      <trkpt lat="38.120331" lon="-0.847813">
        <ele>30.629</ele>
        <time>2021-05-05T10:23:18Z</time>
      </trkpt>
      <trkpt lat="38.120407" lon="-0.847721">
        <ele>30.800</ele>
        <time>2021-05-05T10:23:20Z</time>
      </trkpt>
      <trkpt lat="38.120445" lon="-0.847678">
        <ele>30.620</ele>
        <time>2021-05-05T10:23:21Z</time>
      </trkpt>
      <trkpt lat="38.120482" lon="-0.847635">
        <ele>30.608</ele>
        <time>2021-05-05T10:23:22Z</time>
      </trkpt>
      <trkpt lat="38.120519" lon="-0.847595">
        <ele>30.659</ele>
        <time>2021-05-05T10:23:23Z</time>
      </trkpt>
      <trkpt lat="38.120590" lon="-0.847515">
        <ele>30.384</ele>
        <time>2021-05-05T10:23:25Z</time>
      </trkpt>
      <trkpt lat="38.120629" lon="-0.847469">
        <ele>30.224</ele>
        <time>2021-05-05T10:23:26Z</time>
      </trkpt>
      <trkpt lat="38.120711" lon="-0.847385">
        <ele>29.817</ele>
        <time>2021-05-05T10:23:28Z</time>
      </trkpt>
      <trkpt lat="38.120748" lon="-0.847335">
        <ele>29.437</ele>
        <time>2021-05-05T10:23:29Z</time>
      </trkpt>
      <trkpt lat="38.120786" lon="-0.847288">
        <ele>29.359</ele>
        <time>2021-05-05T10:23:30Z</time>
      </trkpt>
      <trkpt lat="38.120861" lon="-0.847194">
        <ele>29.526</ele>
        <time>2021-05-05T10:23:32Z</time>
      </trkpt>
      <trkpt lat="38.120938" lon="-0.847107">
        <ele>29.751</ele>
        <time>2021-05-05T10:23:34Z</time>
      </trkpt>
      <trkpt lat="38.121013" lon="-0.847020">
        <ele>29.668</ele>
        <time>2021-05-05T10:23:36Z</time>
      </trkpt>
      <trkpt lat="38.121051" lon="-0.846974">
        <ele>29.742</ele>
        <time>2021-05-05T10:23:37Z</time>
      </trkpt>
      <trkpt lat="38.121130" lon="-0.846881">
        <ele>29.926</ele>
        <time>2021-05-05T10:23:39Z</time>
      </trkpt>
      <trkpt lat="38.121172" lon="-0.846834">
        <ele>30.308</ele>
        <time>2021-05-05T10:23:40Z</time>
      </trkpt>
      <trkpt lat="38.121253" lon="-0.846741">
        <ele>30.693</ele>
        <time>2021-05-05T10:23:42Z</time>
      </trkpt>
      <trkpt lat="38.121293" lon="-0.846693">
        <ele>30.528</ele>
        <time>2021-05-05T10:23:43Z</time>
      </trkpt>
      <trkpt lat="38.121376" lon="-0.846599">
        <ele>30.648</ele>
        <time>2021-05-05T10:23:45Z</time>
      </trkpt>
      <trkpt lat="38.121414" lon="-0.846562">
        <ele>30.381</ele>
        <time>2021-05-05T10:23:46Z</time>
      </trkpt>
      <trkpt lat="38.121488" lon="-0.846471">
        <ele>30.531</ele>
        <time>2021-05-05T10:23:48Z</time>
      </trkpt>
      <trkpt lat="38.121567" lon="-0.846376">
        <ele>30.863</ele>
        <time>2021-05-05T10:23:50Z</time>
      </trkpt>
      <trkpt lat="38.121607" lon="-0.846328">
        <ele>30.760</ele>
        <time>2021-05-05T10:23:51Z</time>
      </trkpt>
      <trkpt lat="38.121646" lon="-0.846273">
        <ele>30.915</ele>
        <time>2021-05-05T10:23:52Z</time>
      </trkpt>
      <trkpt lat="38.121681" lon="-0.846215">
        <ele>30.836</ele>
        <time>2021-05-05T10:23:53Z</time>
      </trkpt>
      <trkpt lat="38.121716" lon="-0.846155">
        <ele>31.317</ele>
        <time>2021-05-05T10:23:54Z</time>
      </trkpt>
      <trkpt lat="38.121787" lon="-0.846037">
        <ele>31.618</ele>
        <time>2021-05-05T10:23:56Z</time>
      </trkpt>
      <trkpt lat="38.121822" lon="-0.845980">
        <ele>31.708</ele>
        <time>2021-05-05T10:23:57Z</time>
      </trkpt>
      <trkpt lat="38.121857" lon="-0.845923">
        <ele>32.140</ele>
        <time>2021-05-05T10:23:58Z</time>
      </trkpt>
      <trkpt lat="38.121925" lon="-0.845801">
        <ele>32.655</ele>
        <time>2021-05-05T10:24:00Z</time>
      </trkpt>
      <trkpt lat="38.121991" lon="-0.845673">
        <ele>32.735</ele>
        <time>2021-05-05T10:24:02Z</time>
      </trkpt>
      <trkpt lat="38.122058" lon="-0.845548">
        <ele>33.198</ele>
        <time>2021-05-05T10:24:04Z</time>
      </trkpt>
      <trkpt lat="38.122121" lon="-0.845436">
        <ele>33.538</ele>
        <time>2021-05-05T10:24:06Z</time>
      </trkpt>
      <trkpt lat="38.122154" lon="-0.845385">
        <ele>33.470</ele>
        <time>2021-05-05T10:24:07Z</time>
      </trkpt>
      <trkpt lat="38.122224" lon="-0.845279">
        <ele>33.677</ele>
        <time>2021-05-05T10:24:09Z</time>
      </trkpt>
      <trkpt lat="38.122301" lon="-0.845166">
        <ele>34.422</ele>
        <time>2021-05-05T10:24:11Z</time>
      </trkpt>
      <trkpt lat="38.122332" lon="-0.845110">
        <ele>34.539</ele>
        <time>2021-05-05T10:24:12Z</time>
      </trkpt>
      <trkpt lat="38.122360" lon="-0.845057">
        <ele>34.501</ele>
        <time>2021-05-05T10:24:13Z</time>
      </trkpt>
      <trkpt lat="38.122387" lon="-0.845005">
        <ele>34.021</ele>
        <time>2021-05-05T10:24:14Z</time>
      </trkpt>
      <trkpt lat="38.122449" lon="-0.844901">
        <ele>33.808</ele>
        <time>2021-05-05T10:24:16Z</time>
      </trkpt>
      <trkpt lat="38.122508" lon="-0.844792">
        <ele>33.370</ele>
        <time>2021-05-05T10:24:18Z</time>
      </trkpt>
      <trkpt lat="38.122567" lon="-0.844682">
        <ele>32.885</ele>
        <time>2021-05-05T10:24:20Z</time>
      </trkpt>
      <trkpt lat="38.122631" lon="-0.844568">
        <ele>32.535</ele>
        <time>2021-05-05T10:24:22Z</time>
      </trkpt>
      <trkpt lat="38.122664" lon="-0.844509">
        <ele>32.488</ele>
        <time>2021-05-05T10:24:23Z</time>
      </trkpt>
      <trkpt lat="38.122721" lon="-0.844394">
        <ele>32.438</ele>
        <time>2021-05-05T10:24:25Z</time>
      </trkpt>
      <trkpt lat="38.122783" lon="-0.844277">
        <ele>32.580</ele>
        <time>2021-05-05T10:24:27Z</time>
      </trkpt>
      <trkpt lat="38.122846" lon="-0.844164">
        <ele>32.037</ele>
        <time>2021-05-05T10:24:29Z</time>
      </trkpt>
      <trkpt lat="38.122878" lon="-0.844102">
        <ele>32.212</ele>
        <time>2021-05-05T10:24:30Z</time>
      </trkpt>
      <trkpt lat="38.122910" lon="-0.844039">
        <ele>32.226</ele>
        <time>2021-05-05T10:24:31Z</time>
      </trkpt>
      <trkpt lat="38.122973" lon="-0.843920">
        <ele>31.947</ele>
        <time>2021-05-05T10:24:33Z</time>
      </trkpt>
      <trkpt lat="38.123040" lon="-0.843812">
        <ele>31.611</ele>
        <time>2021-05-05T10:24:35Z</time>
      </trkpt>
      <trkpt lat="38.123079" lon="-0.843758">
        <ele>30.908</ele>
        <time>2021-05-05T10:24:36Z</time>
      </trkpt>
      <trkpt lat="38.123145" lon="-0.843652">
        <ele>29.969</ele>
        <time>2021-05-05T10:24:38Z</time>
      </trkpt>
      <trkpt lat="38.123177" lon="-0.843599">
        <ele>29.634</ele>
        <time>2021-05-05T10:24:39Z</time>
      </trkpt>
      <trkpt lat="38.123232" lon="-0.843492">
        <ele>29.064</ele>
        <time>2021-05-05T10:24:41Z</time>
      </trkpt>
      <trkpt lat="38.123260" lon="-0.843436">
        <ele>29.177</ele>
        <time>2021-05-05T10:24:42Z</time>
      </trkpt>
      <trkpt lat="38.123287" lon="-0.843378">
        <ele>28.937</ele>
        <time>2021-05-05T10:24:43Z</time>
      </trkpt>
      <trkpt lat="38.123342" lon="-0.843263">
        <ele>29.179</ele>
        <time>2021-05-05T10:24:45Z</time>
      </trkpt>
      <trkpt lat="38.123371" lon="-0.843206">
        <ele>29.336</ele>
        <time>2021-05-05T10:24:46Z</time>
      </trkpt>
      <trkpt lat="38.123427" lon="-0.843087">
        <ele>29.421</ele>
        <time>2021-05-05T10:24:48Z</time>
      </trkpt>
      <trkpt lat="38.123495" lon="-0.842965">
        <ele>29.931</ele>
        <time>2021-05-05T10:24:50Z</time>
      </trkpt>
      <trkpt lat="38.123528" lon="-0.842908">
        <ele>30.061</ele>
        <time>2021-05-05T10:24:51Z</time>
      </trkpt>
      <trkpt lat="38.123558" lon="-0.842851">
        <ele>29.407</ele>
        <time>2021-05-05T10:24:52Z</time>
      </trkpt>
      <trkpt lat="38.123586" lon="-0.842797">
        <ele>29.008</ele>
        <time>2021-05-05T10:24:53Z</time>
      </trkpt>
      <trkpt lat="38.123643" lon="-0.842691">
        <ele>28.490</ele>
        <time>2021-05-05T10:24:55Z</time>
      </trkpt>
      <trkpt lat="38.123702" lon="-0.842579">
        <ele>28.415</ele>
        <time>2021-05-05T10:24:57Z</time>
      </trkpt>
      <trkpt lat="38.123733" lon="-0.842523">
        <ele>28.655</ele>
        <time>2021-05-05T10:24:58Z</time>
      </trkpt>
      <trkpt lat="38.123763" lon="-0.842470">
        <ele>29.088</ele>
        <time>2021-05-05T10:24:59Z</time>
      </trkpt>
      <trkpt lat="38.123817" lon="-0.842396">
        <ele>28.888</ele>
        <time>2021-05-05T10:25:01Z</time>
      </trkpt>
      <trkpt lat="38.123851" lon="-0.842341">
        <ele>28.750</ele>
        <time>2021-05-05T10:25:02Z</time>
      </trkpt>
      <trkpt lat="38.123900" lon="-0.842227">
        <ele>28.577</ele>
        <time>2021-05-05T10:25:04Z</time>
      </trkpt>
      <trkpt lat="38.123925" lon="-0.842173">
        <ele>28.472</ele>
        <time>2021-05-05T10:25:05Z</time>
      </trkpt>
      <trkpt lat="38.123976" lon="-0.842060">
        <ele>28.685</ele>
        <time>2021-05-05T10:25:07Z</time>
      </trkpt>
      <trkpt lat="38.124018" lon="-0.841933">
        <ele>28.689</ele>
        <time>2021-05-05T10:25:09Z</time>
      </trkpt>
      <trkpt lat="38.124071" lon="-0.841824">
        <ele>28.717</ele>
        <time>2021-05-05T10:25:11Z</time>
      </trkpt>
      <trkpt lat="38.124121" lon="-0.841727">
        <ele>28.608</ele>
        <time>2021-05-05T10:25:13Z</time>
      </trkpt>
      <trkpt lat="38.124158" lon="-0.841661">
        <ele>28.875</ele>
        <time>2021-05-05T10:25:15Z</time>
      </trkpt>
      <trkpt lat="38.124211" lon="-0.841568">
        <ele>28.750</ele>
        <time>2021-05-05T10:25:17Z</time>
      </trkpt>
      <trkpt lat="38.124263" lon="-0.841474">
        <ele>28.760</ele>
        <time>2021-05-05T10:25:19Z</time>
      </trkpt>
      <trkpt lat="38.124299" lon="-0.841396">
        <ele>28.263</ele>
        <time>2021-05-05T10:25:21Z</time>
      </trkpt>
      <trkpt lat="38.124357" lon="-0.841319">
        <ele>28.173</ele>
        <time>2021-05-05T10:25:23Z</time>
      </trkpt>
      <trkpt lat="38.124400" lon="-0.841253">
        <ele>28.145</ele>
        <time>2021-05-05T10:25:24Z</time>
      </trkpt>
      <trkpt lat="38.124444" lon="-0.841175">
        <ele>28.172</ele>
        <time>2021-05-05T10:25:26Z</time>
      </trkpt>
      <trkpt lat="38.124469" lon="-0.841125">
        <ele>27.987</ele>
        <time>2021-05-05T10:25:27Z</time>
      </trkpt>
      <trkpt lat="38.124497" lon="-0.841080">
        <ele>27.698</ele>
        <time>2021-05-05T10:25:29Z</time>
      </trkpt>
      <trkpt lat="38.124552" lon="-0.840989">
        <ele>27.515</ele>
        <time>2021-05-05T10:25:31Z</time>
      </trkpt>
      <trkpt lat="38.124613" lon="-0.840909">
        <ele>27.226</ele>
        <time>2021-05-05T10:25:33Z</time>
      </trkpt>
      <trkpt lat="38.124661" lon="-0.840826">
        <ele>26.908</ele>
        <time>2021-05-05T10:25:35Z</time>
      </trkpt>
      <trkpt lat="38.124703" lon="-0.840756">
        <ele>26.816</ele>
        <time>2021-05-05T10:25:36Z</time>
      </trkpt>
      <trkpt lat="38.124737" lon="-0.840693">
        <ele>26.821</ele>
        <time>2021-05-05T10:25:38Z</time>
      </trkpt>
      <trkpt lat="38.124764" lon="-0.840641">
        <ele>26.941</ele>
        <time>2021-05-05T10:25:40Z</time>
      </trkpt>
      <trkpt lat="38.124794" lon="-0.840586">
        <ele>26.894</ele>
        <time>2021-05-05T10:25:41Z</time>
      </trkpt>
      <trkpt lat="38.124838" lon="-0.840506">
        <ele>26.844</ele>
        <time>2021-05-05T10:25:42Z</time>
      </trkpt>
      <trkpt lat="38.124866" lon="-0.840449">
        <ele>26.846</ele>
        <time>2021-05-05T10:25:44Z</time>
      </trkpt>
      <trkpt lat="38.124909" lon="-0.840365">
        <ele>26.713</ele>
        <time>2021-05-05T10:25:45Z</time>
      </trkpt>
      <trkpt lat="38.124937" lon="-0.840316">
        <ele>26.358</ele>
        <time>2021-05-05T10:25:47Z</time>
      </trkpt>
      <trkpt lat="38.124980" lon="-0.840246">
        <ele>26.152</ele>
        <time>2021-05-05T10:25:49Z</time>
      </trkpt>
      <trkpt lat="38.125013" lon="-0.840188">
        <ele>25.953</ele>
        <time>2021-05-05T10:25:50Z</time>
      </trkpt>
      <trkpt lat="38.125039" lon="-0.840141">
        <ele>25.908</ele>
        <time>2021-05-05T10:25:52Z</time>
      </trkpt>
      <trkpt lat="38.125084" lon="-0.840093">
        <ele>26.108</ele>
        <time>2021-05-05T10:25:53Z</time>
      </trkpt>
      <trkpt lat="38.125131" lon="-0.840072">
        <ele>26.592</ele>
        <time>2021-05-05T10:25:56Z</time>
      </trkpt>
      <trkpt lat="38.125184" lon="-0.840042">
        <ele>26.887</ele>
        <time>2021-05-05T10:25:59Z</time>
      </trkpt>
      <trkpt lat="38.125159" lon="-0.839987">
        <ele>27.047</ele>
        <time>2021-05-05T10:26:01Z</time>
      </trkpt>
      <trkpt lat="38.125156" lon="-0.839906">
        <ele>27.150</ele>
        <time>2021-05-05T10:26:03Z</time>
      </trkpt>
      <trkpt lat="38.125176" lon="-0.839837">
        <ele>27.590</ele>
        <time>2021-05-05T10:26:04Z</time>
      </trkpt>
      <trkpt lat="38.125209" lon="-0.839758">
        <ele>27.442</ele>
        <time>2021-05-05T10:26:06Z</time>
      </trkpt>
      <trkpt lat="38.125236" lon="-0.839708">
        <ele>27.569</ele>
        <time>2021-05-05T10:26:08Z</time>
      </trkpt>
      <trkpt lat="38.125272" lon="-0.839633">
        <ele>27.594</ele>
        <time>2021-05-05T10:26:09Z</time>
      </trkpt>
      <trkpt lat="38.125306" lon="-0.839565">
        <ele>27.313</ele>
        <time>2021-05-05T10:26:11Z</time>
      </trkpt>
      <trkpt lat="38.125339" lon="-0.839493">
        <ele>27.543</ele>
        <time>2021-05-05T10:26:13Z</time>
      </trkpt>
      <trkpt lat="38.125363" lon="-0.839432">
        <ele>27.207</ele>
        <time>2021-05-05T10:26:14Z</time>
      </trkpt>
      <trkpt lat="38.125397" lon="-0.839339">
        <ele>27.108</ele>
        <time>2021-05-05T10:26:17Z</time>
      </trkpt>
      <trkpt lat="38.125422" lon="-0.839266">
        <ele>27.138</ele>
        <time>2021-05-05T10:26:18Z</time>
      </trkpt>
      <trkpt lat="38.125458" lon="-0.839167">
        <ele>27.153</ele>
        <time>2021-05-05T10:26:20Z</time>
      </trkpt>
      <trkpt lat="38.125480" lon="-0.839112">
        <ele>26.853</ele>
        <time>2021-05-05T10:26:22Z</time>
      </trkpt>
      <trkpt lat="38.125511" lon="-0.839022">
        <ele>26.916</ele>
        <time>2021-05-05T10:26:24Z</time>
      </trkpt>
      <trkpt lat="38.125534" lon="-0.838957">
        <ele>27.236</ele>
        <time>2021-05-05T10:26:25Z</time>
      </trkpt>
      <trkpt lat="38.125561" lon="-0.838890">
        <ele>27.048</ele>
        <time>2021-05-05T10:26:27Z</time>
      </trkpt>
      <trkpt lat="38.125595" lon="-0.838815">
        <ele>26.845</ele>
        <time>2021-05-05T10:26:28Z</time>
      </trkpt>
      <trkpt lat="38.125618" lon="-0.838759">
        <ele>26.840</ele>
        <time>2021-05-05T10:26:29Z</time>
      </trkpt>
      <trkpt lat="38.125644" lon="-0.838709">
        <ele>26.627</ele>
        <time>2021-05-05T10:26:30Z</time>
      </trkpt>
      <trkpt lat="38.125669" lon="-0.838658">
        <ele>26.768</ele>
        <time>2021-05-05T10:26:32Z</time>
      </trkpt>
      <trkpt lat="38.125706" lon="-0.838579">
        <ele>26.314</ele>
        <time>2021-05-05T10:26:33Z</time>
      </trkpt>
      <trkpt lat="38.125733" lon="-0.838518">
        <ele>26.308</ele>
        <time>2021-05-05T10:26:35Z</time>
      </trkpt>
      <trkpt lat="38.125764" lon="-0.838447">
        <ele>26.319</ele>
        <time>2021-05-05T10:26:36Z</time>
      </trkpt>
      <trkpt lat="38.125788" lon="-0.838388">
        <ele>26.294</ele>
        <time>2021-05-05T10:26:37Z</time>
      </trkpt>
      <trkpt lat="38.125813" lon="-0.838327">
        <ele>26.534</ele>
        <time>2021-05-05T10:26:38Z</time>
      </trkpt>
      <trkpt lat="38.125848" lon="-0.838226">
        <ele>26.547</ele>
        <time>2021-05-05T10:26:40Z</time>
      </trkpt>
      <trkpt lat="38.125874" lon="-0.838148">
        <ele>26.667</ele>
        <time>2021-05-05T10:26:42Z</time>
      </trkpt>
      <trkpt lat="38.125900" lon="-0.838066">
        <ele>26.549</ele>
        <time>2021-05-05T10:26:43Z</time>
      </trkpt>
      <trkpt lat="38.125928" lon="-0.838005">
        <ele>26.786</ele>
        <time>2021-05-05T10:26:44Z</time>
      </trkpt>
      <trkpt lat="38.125967" lon="-0.837885">
        <ele>27.071</ele>
        <time>2021-05-05T10:26:47Z</time>
      </trkpt>
      <trkpt lat="38.125985" lon="-0.837788">
        <ele>27.182</ele>
        <time>2021-05-05T10:26:48Z</time>
      </trkpt>
      <trkpt lat="38.125994" lon="-0.837707">
        <ele>27.243</ele>
        <time>2021-05-05T10:26:50Z</time>
      </trkpt>
      <trkpt lat="38.126000" lon="-0.837629">
        <ele>27.317</ele>
        <time>2021-05-05T10:26:51Z</time>
      </trkpt>
      <trkpt lat="38.126005" lon="-0.837515">
        <ele>27.608</ele>
        <time>2021-05-05T10:26:53Z</time>
      </trkpt>
      <trkpt lat="38.126014" lon="-0.837408">
        <ele>27.445</ele>
        <time>2021-05-05T10:26:56Z</time>
      </trkpt>
      <trkpt lat="38.126020" lon="-0.837338">
        <ele>27.390</ele>
        <time>2021-05-05T10:26:57Z</time>
      </trkpt>
      <trkpt lat="38.126021" lon="-0.837262">
        <ele>27.240</ele>
        <time>2021-05-05T10:26:59Z</time>
      </trkpt>
      <trkpt lat="38.126025" lon="-0.837171">
        <ele>27.243</ele>
        <time>2021-05-05T10:27:00Z</time>
      </trkpt>
      <trkpt lat="38.126028" lon="-0.837106">
        <ele>27.673</ele>
        <time>2021-05-05T10:27:01Z</time>
      </trkpt>
      <trkpt lat="38.126029" lon="-0.837035">
        <ele>27.565</ele>
        <time>2021-05-05T10:27:02Z</time>
      </trkpt>
      <trkpt lat="38.126028" lon="-0.836936">
        <ele>27.512</ele>
        <time>2021-05-05T10:27:04Z</time>
      </trkpt>
      <trkpt lat="38.126033" lon="-0.836817">
        <ele>27.367</ele>
        <time>2021-05-05T10:27:06Z</time>
      </trkpt>
      <trkpt lat="38.126040" lon="-0.836698">
        <ele>27.241</ele>
        <time>2021-05-05T10:27:08Z</time>
      </trkpt>
      <trkpt lat="38.126046" lon="-0.836639">
        <ele>27.281</ele>
        <time>2021-05-05T10:27:09Z</time>
      </trkpt>
      <trkpt lat="38.126052" lon="-0.836582">
        <ele>27.209</ele>
        <time>2021-05-05T10:27:10Z</time>
      </trkpt>
      <trkpt lat="38.126066" lon="-0.836473">
        <ele>27.308</ele>
        <time>2021-05-05T10:27:12Z</time>
      </trkpt>
      <trkpt lat="38.126073" lon="-0.836398">
        <ele>27.461</ele>
        <time>2021-05-05T10:27:13Z</time>
      </trkpt>
      <trkpt lat="38.126080" lon="-0.836334">
        <ele>27.466</ele>
        <time>2021-05-05T10:27:14Z</time>
      </trkpt>
      <trkpt lat="38.126098" lon="-0.836241">
        <ele>27.536</ele>
        <time>2021-05-05T10:27:16Z</time>
      </trkpt>
      <trkpt lat="38.126105" lon="-0.836182">
        <ele>27.269</ele>
        <time>2021-05-05T10:27:17Z</time>
      </trkpt>
      <trkpt lat="38.126119" lon="-0.836061">
        <ele>27.239</ele>
        <time>2021-05-05T10:27:19Z</time>
      </trkpt>
      <trkpt lat="38.126133" lon="-0.835943">
        <ele>27.361</ele>
        <time>2021-05-05T10:27:21Z</time>
      </trkpt>
      <trkpt lat="38.126140" lon="-0.835886">
        <ele>27.268</ele>
        <time>2021-05-05T10:27:22Z</time>
      </trkpt>
      <trkpt lat="38.126146" lon="-0.835829">
        <ele>27.333</ele>
        <time>2021-05-05T10:27:23Z</time>
      </trkpt>
      <trkpt lat="38.126159" lon="-0.835709">
        <ele>27.329</ele>
        <time>2021-05-05T10:27:25Z</time>
      </trkpt>
      <trkpt lat="38.126170" lon="-0.835593">
        <ele>27.400</ele>
        <time>2021-05-05T10:27:27Z</time>
      </trkpt>
      <trkpt lat="38.126182" lon="-0.835478">
        <ele>27.520</ele>
        <time>2021-05-05T10:27:29Z</time>
      </trkpt>
      <trkpt lat="38.126187" lon="-0.835420">
        <ele>27.608</ele>
        <time>2021-05-05T10:27:30Z</time>
      </trkpt>
      <trkpt lat="38.126193" lon="-0.835322">
        <ele>27.749</ele>
        <time>2021-05-05T10:27:32Z</time>
      </trkpt>
      <trkpt lat="38.126198" lon="-0.835228">
        <ele>27.644</ele>
        <time>2021-05-05T10:27:34Z</time>
      </trkpt>
      <trkpt lat="38.126207" lon="-0.835126">
        <ele>27.154</ele>
        <time>2021-05-05T10:27:36Z</time>
      </trkpt>
      <trkpt lat="38.126204" lon="-0.835023">
        <ele>27.187</ele>
        <time>2021-05-05T10:27:39Z</time>
      </trkpt>
      <trkpt lat="38.126172" lon="-0.834931">
        <ele>26.937</ele>
        <time>2021-05-05T10:27:42Z</time>
      </trkpt>
      <trkpt lat="38.126152" lon="-0.834854">
        <ele>26.779</ele>
        <time>2021-05-05T10:27:43Z</time>
      </trkpt>
      <trkpt lat="38.126138" lon="-0.834791">
        <ele>26.716</ele>
        <time>2021-05-05T10:27:45Z</time>
      </trkpt>
      <trkpt lat="38.126127" lon="-0.834694">
        <ele>26.751</ele>
        <time>2021-05-05T10:27:47Z</time>
      </trkpt>
      <trkpt lat="38.126122" lon="-0.834594">
        <ele>26.811</ele>
        <time>2021-05-05T10:27:48Z</time>
      </trkpt>
      <trkpt lat="38.126117" lon="-0.834520">
        <ele>26.821</ele>
        <time>2021-05-05T10:27:50Z</time>
      </trkpt>
      <trkpt lat="38.126109" lon="-0.834454">
        <ele>26.903</ele>
        <time>2021-05-05T10:27:51Z</time>
      </trkpt>
      <trkpt lat="38.126100" lon="-0.834371">
        <ele>27.208</ele>
        <time>2021-05-05T10:27:53Z</time>
      </trkpt>
      <trkpt lat="38.126092" lon="-0.834314">
        <ele>27.398</ele>
        <time>2021-05-05T10:27:54Z</time>
      </trkpt>
      <trkpt lat="38.126081" lon="-0.834225">
        <ele>27.493</ele>
        <time>2021-05-05T10:27:56Z</time>
      </trkpt>
      <trkpt lat="38.126061" lon="-0.834085">
        <ele>27.573</ele>
        <time>2021-05-05T10:27:59Z</time>
      </trkpt>
      <trkpt lat="38.126052" lon="-0.833998">
        <ele>27.646</ele>
        <time>2021-05-05T10:28:00Z</time>
      </trkpt>
      <trkpt lat="38.126038" lon="-0.833870">
        <ele>27.796</ele>
        <time>2021-05-05T10:28:02Z</time>
      </trkpt>
      <trkpt lat="38.126019" lon="-0.833756">
        <ele>27.698</ele>
        <time>2021-05-05T10:28:05Z</time>
      </trkpt>
      <trkpt lat="38.126004" lon="-0.833661">
        <ele>27.395</ele>
        <time>2021-05-05T10:28:06Z</time>
      </trkpt>
      <trkpt lat="38.125996" lon="-0.833602">
        <ele>27.450</ele>
        <time>2021-05-05T10:28:08Z</time>
      </trkpt>
      <trkpt lat="38.125991" lon="-0.833539">
        <ele>27.335</ele>
        <time>2021-05-05T10:28:09Z</time>
      </trkpt>
      <trkpt lat="38.125983" lon="-0.833455">
        <ele>27.486</ele>
        <time>2021-05-05T10:28:10Z</time>
      </trkpt>
      <trkpt lat="38.125978" lon="-0.833395">
        <ele>27.514</ele>
        <time>2021-05-05T10:28:12Z</time>
      </trkpt>
      <trkpt lat="38.125964" lon="-0.833299">
        <ele>27.708</ele>
        <time>2021-05-05T10:28:13Z</time>
      </trkpt>
      <trkpt lat="38.125954" lon="-0.833233">
        <ele>27.720</ele>
        <time>2021-05-05T10:28:15Z</time>
      </trkpt>
      <trkpt lat="38.125944" lon="-0.833143">
        <ele>27.795</ele>
        <time>2021-05-05T10:28:16Z</time>
      </trkpt>
      <trkpt lat="38.125938" lon="-0.833061">
        <ele>27.595</ele>
        <time>2021-05-05T10:28:18Z</time>
      </trkpt>
      <trkpt lat="38.125935" lon="-0.833003">
        <ele>27.488</ele>
        <time>2021-05-05T10:28:19Z</time>
      </trkpt>
      <trkpt lat="38.125929" lon="-0.832925">
        <ele>27.798</ele>
        <time>2021-05-05T10:28:20Z</time>
      </trkpt>
      <trkpt lat="38.125923" lon="-0.832867">
        <ele>27.970</ele>
        <time>2021-05-05T10:28:21Z</time>
      </trkpt>
      <trkpt lat="38.125919" lon="-0.832802">
        <ele>27.987</ele>
        <time>2021-05-05T10:28:23Z</time>
      </trkpt>
      <trkpt lat="38.125895" lon="-0.832706">
        <ele>28.062</ele>
        <time>2021-05-05T10:28:25Z</time>
      </trkpt>
      <trkpt lat="38.125889" lon="-0.832622">
        <ele>27.538</ele>
        <time>2021-05-05T10:28:27Z</time>
      </trkpt>
      <trkpt lat="38.125884" lon="-0.832562">
        <ele>27.270</ele>
        <time>2021-05-05T10:28:28Z</time>
      </trkpt>
      <trkpt lat="38.125872" lon="-0.832496">
        <ele>26.717</ele>
        <time>2021-05-05T10:28:30Z</time>
      </trkpt>
      <trkpt lat="38.125861" lon="-0.832422">
        <ele>26.608</ele>
        <time>2021-05-05T10:28:31Z</time>
      </trkpt>
      <trkpt lat="38.125854" lon="-0.832365">
        <ele>26.440</ele>
        <time>2021-05-05T10:28:33Z</time>
      </trkpt>
      <trkpt lat="38.125839" lon="-0.832294">
        <ele>26.315</ele>
        <time>2021-05-05T10:28:34Z</time>
      </trkpt>
      <trkpt lat="38.125835" lon="-0.832228">
        <ele>26.335</ele>
        <time>2021-05-05T10:28:35Z</time>
      </trkpt>
      <trkpt lat="38.125840" lon="-0.832171">
        <ele>26.378</ele>
        <time>2021-05-05T10:28:36Z</time>
      </trkpt>
      <trkpt lat="38.125854" lon="-0.832076">
        <ele>26.378</ele>
        <time>2021-05-05T10:28:38Z</time>
      </trkpt>
      <trkpt lat="38.125879" lon="-0.831988">
        <ele>26.360</ele>
        <time>2021-05-05T10:28:40Z</time>
      </trkpt>
      <trkpt lat="38.125922" lon="-0.831908">
        <ele>26.237</ele>
        <time>2021-05-05T10:28:42Z</time>
      </trkpt>
      <trkpt lat="38.125972" lon="-0.831829">
        <ele>26.082</ele>
        <time>2021-05-05T10:28:44Z</time>
      </trkpt>
      <trkpt lat="38.126012" lon="-0.831773">
        <ele>25.985</ele>
        <time>2021-05-05T10:28:45Z</time>
      </trkpt>
      <trkpt lat="38.126053" lon="-0.831728">
        <ele>26.189</ele>
        <time>2021-05-05T10:28:47Z</time>
      </trkpt>
      <trkpt lat="38.126112" lon="-0.831649">
        <ele>26.017</ele>
        <time>2021-05-05T10:28:49Z</time>
      </trkpt>
      <trkpt lat="38.126164" lon="-0.831571">
        <ele>25.708</ele>
        <time>2021-05-05T10:28:50Z</time>
      </trkpt>
      <trkpt lat="38.126198" lon="-0.831525">
        <ele>25.945</ele>
        <time>2021-05-05T10:28:52Z</time>
      </trkpt>
      <trkpt lat="38.126252" lon="-0.831438">
        <ele>25.990</ele>
        <time>2021-05-05T10:28:54Z</time>
      </trkpt>
      <trkpt lat="38.126310" lon="-0.831336">
        <ele>26.260</ele>
        <time>2021-05-05T10:28:56Z</time>
      </trkpt>
      <trkpt lat="38.126366" lon="-0.831289">
        <ele>26.473</ele>
        <time>2021-05-05T10:28:58Z</time>
      </trkpt>
      <trkpt lat="38.126395" lon="-0.831230">
        <ele>26.343</ele>
        <time>2021-05-05T10:28:59Z</time>
      </trkpt>
      <trkpt lat="38.126437" lon="-0.831119">
        <ele>26.515</ele>
        <time>2021-05-05T10:29:01Z</time>
      </trkpt>
      <trkpt lat="38.126487" lon="-0.831006">
        <ele>26.452</ele>
        <time>2021-05-05T10:29:03Z</time>
      </trkpt>
      <trkpt lat="38.126543" lon="-0.830896">
        <ele>26.567</ele>
        <time>2021-05-05T10:29:05Z</time>
      </trkpt>
      <trkpt lat="38.126573" lon="-0.830846">
        <ele>26.642</ele>
        <time>2021-05-05T10:29:06Z</time>
      </trkpt>
      <trkpt lat="38.126601" lon="-0.830797">
        <ele>26.822</ele>
        <time>2021-05-05T10:29:07Z</time>
      </trkpt>
      <trkpt lat="38.126652" lon="-0.830699">
        <ele>26.714</ele>
        <time>2021-05-05T10:29:09Z</time>
      </trkpt>
      <trkpt lat="38.126680" lon="-0.830650">
        <ele>26.708</ele>
        <time>2021-05-05T10:29:10Z</time>
      </trkpt>
      <trkpt lat="38.126731" lon="-0.830556">
        <ele>26.681</ele>
        <time>2021-05-05T10:29:12Z</time>
      </trkpt>
      <trkpt lat="38.126777" lon="-0.830459">
        <ele>26.966</ele>
        <time>2021-05-05T10:29:14Z</time>
      </trkpt>
      <trkpt lat="38.126802" lon="-0.830410">
        <ele>27.186</ele>
        <time>2021-05-05T10:29:15Z</time>
      </trkpt>
      <trkpt lat="38.126848" lon="-0.830327">
        <ele>27.219</ele>
        <time>2021-05-05T10:29:17Z</time>
      </trkpt>
      <trkpt lat="38.126899" lon="-0.830242">
        <ele>27.229</ele>
        <time>2021-05-05T10:29:19Z</time>
      </trkpt>
      <trkpt lat="38.126926" lon="-0.830184">
        <ele>27.291</ele>
        <time>2021-05-05T10:29:21Z</time>
      </trkpt>
      <trkpt lat="38.126985" lon="-0.830088">
        <ele>27.488</ele>
        <time>2021-05-05T10:29:24Z</time>
      </trkpt>
      <trkpt lat="38.127030" lon="-0.830030">
        <ele>27.373</ele>
        <time>2021-05-05T10:29:25Z</time>
      </trkpt>
      <trkpt lat="38.127069" lon="-0.829948">
        <ele>27.468</ele>
        <time>2021-05-05T10:29:26Z</time>
      </trkpt>
      <trkpt lat="38.127116" lon="-0.829811">
        <ele>27.342</ele>
        <time>2021-05-05T10:29:28Z</time>
      </trkpt>
      <trkpt lat="38.127142" lon="-0.829748">
        <ele>27.126</ele>
        <time>2021-05-05T10:29:29Z</time>
      </trkpt>
      <trkpt lat="38.127169" lon="-0.829690">
        <ele>26.908</ele>
        <time>2021-05-05T10:29:30Z</time>
      </trkpt>
      <trkpt lat="38.127220" lon="-0.829583">
        <ele>27.093</ele>
        <time>2021-05-05T10:29:32Z</time>
      </trkpt>
      <trkpt lat="38.127243" lon="-0.829533">
        <ele>26.948</ele>
        <time>2021-05-05T10:29:33Z</time>
      </trkpt>
      <trkpt lat="38.127280" lon="-0.829455">
        <ele>27.258</ele>
        <time>2021-05-05T10:29:35Z</time>
      </trkpt>
      <trkpt lat="38.127308" lon="-0.829395">
        <ele>27.091</ele>
        <time>2021-05-05T10:29:37Z</time>
      </trkpt>
      <trkpt lat="38.127352" lon="-0.829309">
        <ele>27.261</ele>
        <time>2021-05-05T10:29:39Z</time>
      </trkpt>
      <trkpt lat="38.127368" lon="-0.829242">
        <ele>27.273</ele>
        <time>2021-05-05T10:29:40Z</time>
      </trkpt>
      <trkpt lat="38.127406" lon="-0.829174">
        <ele>27.110</ele>
        <time>2021-05-05T10:29:42Z</time>
      </trkpt>
      <trkpt lat="38.127450" lon="-0.829109">
        <ele>27.055</ele>
        <time>2021-05-05T10:29:44Z</time>
      </trkpt>
      <trkpt lat="38.127477" lon="-0.829058">
        <ele>27.269</ele>
        <time>2021-05-05T10:29:45Z</time>
      </trkpt>
      <trkpt lat="38.127501" lon="-0.829003">
        <ele>27.204</ele>
        <time>2021-05-05T10:29:47Z</time>
      </trkpt>
      <trkpt lat="38.127531" lon="-0.828950">
        <ele>27.224</ele>
        <time>2021-05-05T10:29:48Z</time>
      </trkpt>
      <trkpt lat="38.127565" lon="-0.828904">
        <ele>27.308</ele>
        <time>2021-05-05T10:29:50Z</time>
      </trkpt>
      <trkpt lat="38.127604" lon="-0.828857">
        <ele>27.453</ele>
        <time>2021-05-05T10:29:51Z</time>
      </trkpt>
      <trkpt lat="38.127644" lon="-0.828829">
        <ele>27.278</ele>
        <time>2021-05-05T10:29:53Z</time>
      </trkpt>
      <trkpt lat="38.127682" lon="-0.828862">
        <ele>27.498</ele>
        <time>2021-05-05T10:29:56Z</time>
      </trkpt>
      <trkpt lat="38.127710" lon="-0.828926">
        <ele>27.711</ele>
        <time>2021-05-05T10:29:59Z</time>
      </trkpt>
      <trkpt lat="38.127724" lon="-0.828982">
        <ele>28.091</ele>
        <time>2021-05-05T10:30:00Z</time>
      </trkpt>
      <trkpt lat="38.127748" lon="-0.829053">
        <ele>28.643</ele>
        <time>2021-05-05T10:30:03Z</time>
      </trkpt>
      <trkpt lat="38.127759" lon="-0.829120">
        <ele>28.870</ele>
        <time>2021-05-05T10:30:04Z</time>
      </trkpt>
      <trkpt lat="38.127764" lon="-0.829212">
        <ele>29.215</ele>
        <time>2021-05-05T10:30:07Z</time>
      </trkpt>
      <trkpt lat="38.127787" lon="-0.829264">
        <ele>29.675</ele>
        <time>2021-05-05T10:30:09Z</time>
      </trkpt>
      <trkpt lat="38.127808" lon="-0.829321">
        <ele>29.828</ele>
        <time>2021-05-05T10:30:11Z</time>
      </trkpt>
      <trkpt lat="38.127827" lon="-0.829398">
        <ele>30.120</ele>
        <time>2021-05-05T10:30:13Z</time>
      </trkpt>
      <trkpt lat="38.127852" lon="-0.829468">
        <ele>30.108</ele>
        <time>2021-05-05T10:30:14Z</time>
      </trkpt>
      <trkpt lat="38.127873" lon="-0.829539">
        <ele>30.494</ele>
        <time>2021-05-05T10:30:16Z</time>
      </trkpt>
      <trkpt lat="38.127893" lon="-0.829600">
        <ele>30.469</ele>
        <time>2021-05-05T10:30:17Z</time>
      </trkpt>
      <trkpt lat="38.127920" lon="-0.829686">
        <ele>30.749</ele>
        <time>2021-05-05T10:30:20Z</time>
      </trkpt>
      <trkpt lat="38.127947" lon="-0.829770">
        <ele>30.972</ele>
        <time>2021-05-05T10:30:21Z</time>
      </trkpt>
      <trkpt lat="38.127968" lon="-0.829850">
        <ele>31.082</ele>
        <time>2021-05-05T10:30:23Z</time>
      </trkpt>
      <trkpt lat="38.127999" lon="-0.829953">
        <ele>31.054</ele>
        <time>2021-05-05T10:30:26Z</time>
      </trkpt>
      <trkpt lat="38.128018" lon="-0.830012">
        <ele>31.381</ele>
        <time>2021-05-05T10:30:27Z</time>
      </trkpt>
      <trkpt lat="38.128049" lon="-0.830088">
        <ele>31.396</ele>
        <time>2021-05-05T10:30:29Z</time>
      </trkpt>
      <trkpt lat="38.128076" lon="-0.830153">
        <ele>31.594</ele>
        <time>2021-05-05T10:30:30Z</time>
      </trkpt>
      <trkpt lat="38.128098" lon="-0.830226">
        <ele>31.857</ele>
        <time>2021-05-05T10:30:32Z</time>
      </trkpt>
      <trkpt lat="38.128122" lon="-0.830306">
        <ele>32.322</ele>
        <time>2021-05-05T10:30:33Z</time>
      </trkpt>
      <trkpt lat="38.128144" lon="-0.830372">
        <ele>32.608</ele>
        <time>2021-05-05T10:30:35Z</time>
      </trkpt>
      <trkpt lat="38.128168" lon="-0.830443">
        <ele>32.736</ele>
        <time>2021-05-05T10:30:36Z</time>
      </trkpt>
      <trkpt lat="38.128186" lon="-0.830507">
        <ele>32.811</ele>
        <time>2021-05-05T10:30:37Z</time>
      </trkpt>
      <trkpt lat="38.128213" lon="-0.830596">
        <ele>32.841</ele>
        <time>2021-05-05T10:30:39Z</time>
      </trkpt>
      <trkpt lat="38.128239" lon="-0.830661">
        <ele>32.714</ele>
        <time>2021-05-05T10:30:40Z</time>
      </trkpt>
      <trkpt lat="38.128262" lon="-0.830715">
        <ele>32.584</ele>
        <time>2021-05-05T10:30:42Z</time>
      </trkpt>
      <trkpt lat="38.128311" lon="-0.830763">
        <ele>32.766</ele>
        <time>2021-05-05T10:30:43Z</time>
      </trkpt>
      <trkpt lat="38.128382" lon="-0.830767">
        <ele>32.933</ele>
        <time>2021-05-05T10:30:45Z</time>
      </trkpt>
      <trkpt lat="38.128431" lon="-0.830772">
        <ele>33.188</ele>
        <time>2021-05-05T10:30:46Z</time>
      </trkpt>
      <trkpt lat="38.128530" lon="-0.830783">
        <ele>33.631</ele>
        <time>2021-05-05T10:30:48Z</time>
      </trkpt>
      <trkpt lat="38.128612" lon="-0.830789">
        <ele>33.761</ele>
        <time>2021-05-05T10:30:50Z</time>
      </trkpt>
      <trkpt lat="38.128697" lon="-0.830798">
        <ele>33.807</ele>
        <time>2021-05-05T10:30:51Z</time>
      </trkpt>
      <trkpt lat="38.128775" lon="-0.830809">
        <ele>33.708</ele>
        <time>2021-05-05T10:30:53Z</time>
      </trkpt>
      <trkpt lat="38.128832" lon="-0.830814">
        <ele>33.790</ele>
        <time>2021-05-05T10:30:55Z</time>
      </trkpt>
      <trkpt lat="38.128913" lon="-0.830817">
        <ele>33.325</ele>
        <time>2021-05-05T10:30:56Z</time>
      </trkpt>
      <trkpt lat="38.128981" lon="-0.830809">
        <ele>32.935</ele>
        <time>2021-05-05T10:30:58Z</time>
      </trkpt>
      <trkpt lat="38.129079" lon="-0.830800">
        <ele>32.668</ele>
        <time>2021-05-05T10:31:00Z</time>
      </trkpt>
      <trkpt lat="38.129177" lon="-0.830801">
        <ele>32.468</ele>
        <time>2021-05-05T10:31:02Z</time>
      </trkpt>
      <trkpt lat="38.129225" lon="-0.830805">
        <ele>32.330</ele>
        <time>2021-05-05T10:31:03Z</time>
      </trkpt>
      <trkpt lat="38.129272" lon="-0.830810">
        <ele>32.227</ele>
        <time>2021-05-05T10:31:04Z</time>
      </trkpt>
      <trkpt lat="38.129366" lon="-0.830819">
        <ele>31.792</ele>
        <time>2021-05-05T10:31:06Z</time>
      </trkpt>
      <trkpt lat="38.129412" lon="-0.830824">
        <ele>31.661</ele>
        <time>2021-05-05T10:31:07Z</time>
      </trkpt>
      <trkpt lat="38.129509" lon="-0.830833">
        <ele>31.221</ele>
        <time>2021-05-05T10:31:09Z</time>
      </trkpt>
      <trkpt lat="38.129557" lon="-0.830839">
        <ele>31.213</ele>
        <time>2021-05-05T10:31:10Z</time>
      </trkpt>
      <trkpt lat="38.129645" lon="-0.830854">
        <ele>31.308</ele>
        <time>2021-05-05T10:31:12Z</time>
      </trkpt>
      <trkpt lat="38.129723" lon="-0.830868">
        <ele>31.223</ele>
        <time>2021-05-05T10:31:14Z</time>
      </trkpt>
      <trkpt lat="38.129809" lon="-0.830880">
        <ele>31.258</ele>
        <time>2021-05-05T10:31:16Z</time>
      </trkpt>
      <trkpt lat="38.129906" lon="-0.830880">
        <ele>31.118</ele>
        <time>2021-05-05T10:31:18Z</time>
      </trkpt>
      <trkpt lat="38.129954" lon="-0.830873">
        <ele>31.421</ele>
        <time>2021-05-05T10:31:19Z</time>
      </trkpt>
      <trkpt lat="38.130002" lon="-0.830861">
        <ele>31.281</ele>
        <time>2021-05-05T10:31:20Z</time>
      </trkpt>
      <trkpt lat="38.130092" lon="-0.830832">
        <ele>31.123</ele>
        <time>2021-05-05T10:31:22Z</time>
      </trkpt>
      <trkpt lat="38.130180" lon="-0.830818">
        <ele>31.150</ele>
        <time>2021-05-05T10:31:24Z</time>
      </trkpt>
      <trkpt lat="38.130226" lon="-0.830813">
        <ele>31.025</ele>
        <time>2021-05-05T10:31:25Z</time>
      </trkpt>
      <trkpt lat="38.130272" lon="-0.830810">
        <ele>30.796</ele>
        <time>2021-05-05T10:31:26Z</time>
      </trkpt>
      <trkpt lat="38.130369" lon="-0.830805">
        <ele>30.531</ele>
        <time>2021-05-05T10:31:28Z</time>
      </trkpt>
      <trkpt lat="38.130469" lon="-0.830803">
        <ele>30.524</ele>
        <time>2021-05-05T10:31:30Z</time>
      </trkpt>
      <trkpt lat="38.130518" lon="-0.830801">
        <ele>30.708</ele>
        <time>2021-05-05T10:31:31Z</time>
      </trkpt>
      <trkpt lat="38.130613" lon="-0.830799">
        <ele>30.976</ele>
        <time>2021-05-05T10:31:33Z</time>
      </trkpt>
      <trkpt lat="38.130710" lon="-0.830795">
        <ele>30.861</ele>
        <time>2021-05-05T10:31:35Z</time>
      </trkpt>
      <trkpt lat="38.130761" lon="-0.830793">
        <ele>30.931</ele>
        <time>2021-05-05T10:31:36Z</time>
      </trkpt>
      <trkpt lat="38.130812" lon="-0.830794">
        <ele>31.044</ele>
        <time>2021-05-05T10:31:37Z</time>
      </trkpt>
      <trkpt lat="38.130911" lon="-0.830809">
        <ele>31.154</ele>
        <time>2021-05-05T10:31:39Z</time>
      </trkpt>
      <trkpt lat="38.130960" lon="-0.830822">
        <ele>30.736</ele>
        <time>2021-05-05T10:31:40Z</time>
      </trkpt>
      <trkpt lat="38.131057" lon="-0.830849">
        <ele>30.693</ele>
        <time>2021-05-05T10:31:42Z</time>
      </trkpt>
      <trkpt lat="38.131154" lon="-0.830882">
        <ele>30.468</ele>
        <time>2021-05-05T10:31:44Z</time>
      </trkpt>
      <trkpt lat="38.131201" lon="-0.830898">
        <ele>30.456</ele>
        <time>2021-05-05T10:31:45Z</time>
      </trkpt>
      <trkpt lat="38.131250" lon="-0.830913">
        <ele>30.459</ele>
        <time>2021-05-05T10:31:46Z</time>
      </trkpt>
      <trkpt lat="38.131347" lon="-0.830946">
        <ele>30.214</ele>
        <time>2021-05-05T10:31:48Z</time>
      </trkpt>
      <trkpt lat="38.131396" lon="-0.830963">
        <ele>30.108</ele>
        <time>2021-05-05T10:31:49Z</time>
      </trkpt>
      <trkpt lat="38.131446" lon="-0.830980">
        <ele>30.332</ele>
        <time>2021-05-05T10:31:50Z</time>
      </trkpt>
      <trkpt lat="38.131546" lon="-0.831013">
        <ele>30.297</ele>
        <time>2021-05-05T10:31:52Z</time>
      </trkpt>
      <trkpt lat="38.131596" lon="-0.831028">
        <ele>30.347</ele>
        <time>2021-05-05T10:31:53Z</time>
      </trkpt>
      <trkpt lat="38.131648" lon="-0.831044">
        <ele>30.450</ele>
        <time>2021-05-05T10:31:54Z</time>
      </trkpt>
      <trkpt lat="38.131752" lon="-0.831073">
        <ele>30.440</ele>
        <time>2021-05-05T10:31:56Z</time>
      </trkpt>
      <trkpt lat="38.131857" lon="-0.831104">
        <ele>30.782</ele>
        <time>2021-05-05T10:31:58Z</time>
      </trkpt>
      <trkpt lat="38.131910" lon="-0.831118">
        <ele>30.589</ele>
        <time>2021-05-05T10:31:59Z</time>
      </trkpt>
      <trkpt lat="38.132015" lon="-0.831145">
        <ele>30.514</ele>
        <time>2021-05-05T10:32:01Z</time>
      </trkpt>
      <trkpt lat="38.132114" lon="-0.831169">
        <ele>30.876</ele>
        <time>2021-05-05T10:32:03Z</time>
      </trkpt>
      <trkpt lat="38.132163" lon="-0.831173">
        <ele>30.590</ele>
        <time>2021-05-05T10:32:04Z</time>
      </trkpt>
      <trkpt lat="38.132257" lon="-0.831181">
        <ele>30.219</ele>
        <time>2021-05-05T10:32:06Z</time>
      </trkpt>
      <trkpt lat="38.132335" lon="-0.831188">
        <ele>30.108</ele>
        <time>2021-05-05T10:32:08Z</time>
      </trkpt>
      <trkpt lat="38.132386" lon="-0.831193">
        <ele>30.094</ele>
        <time>2021-05-05T10:32:09Z</time>
      </trkpt>
      <trkpt lat="38.132436" lon="-0.831195">
        <ele>29.849</ele>
        <time>2021-05-05T10:32:10Z</time>
      </trkpt>
      <trkpt lat="38.132483" lon="-0.831198">
        <ele>29.649</ele>
        <time>2021-05-05T10:32:11Z</time>
      </trkpt>
      <trkpt lat="38.132574" lon="-0.831213">
        <ele>29.582</ele>
        <time>2021-05-05T10:32:13Z</time>
      </trkpt>
      <trkpt lat="38.132621" lon="-0.831221">
        <ele>29.942</ele>
        <time>2021-05-05T10:32:14Z</time>
      </trkpt>
      <trkpt lat="38.132711" lon="-0.831239">
        <ele>29.944</ele>
        <time>2021-05-05T10:32:16Z</time>
      </trkpt>
      <trkpt lat="38.132807" lon="-0.831249">
        <ele>29.961</ele>
        <time>2021-05-05T10:32:18Z</time>
      </trkpt>
      <trkpt lat="38.132881" lon="-0.831274">
        <ele>30.036</ele>
        <time>2021-05-05T10:32:20Z</time>
      </trkpt>
      <trkpt lat="38.132987" lon="-0.831303">
        <ele>29.887</ele>
        <time>2021-05-05T10:32:22Z</time>
      </trkpt>
      <trkpt lat="38.133088" lon="-0.831328">
        <ele>29.942</ele>
        <time>2021-05-05T10:32:24Z</time>
      </trkpt>
      <trkpt lat="38.133142" lon="-0.831336">
        <ele>29.726</ele>
        <time>2021-05-05T10:32:25Z</time>
      </trkpt>
      <trkpt lat="38.133241" lon="-0.831349">
        <ele>29.508</ele>
        <time>2021-05-05T10:32:27Z</time>
      </trkpt>
      <trkpt lat="38.133338" lon="-0.831352">
        <ele>29.225</ele>
        <time>2021-05-05T10:32:29Z</time>
      </trkpt>
      <trkpt lat="38.133388" lon="-0.831347">
        <ele>29.070</ele>
        <time>2021-05-05T10:32:30Z</time>
      </trkpt>
      <trkpt lat="38.133486" lon="-0.831340">
        <ele>28.970</ele>
        <time>2021-05-05T10:32:32Z</time>
      </trkpt>
      <trkpt lat="38.133585" lon="-0.831335">
        <ele>28.843</ele>
        <time>2021-05-05T10:32:34Z</time>
      </trkpt>
      <trkpt lat="38.133684" lon="-0.831325">
        <ele>28.883</ele>
        <time>2021-05-05T10:32:36Z</time>
      </trkpt>
      <trkpt lat="38.133781" lon="-0.831319">
        <ele>28.545</ele>
        <time>2021-05-05T10:32:38Z</time>
      </trkpt>
      <trkpt lat="38.133829" lon="-0.831316">
        <ele>28.362</ele>
        <time>2021-05-05T10:32:39Z</time>
      </trkpt>
      <trkpt lat="38.133925" lon="-0.831308">
        <ele>28.437</ele>
        <time>2021-05-05T10:32:41Z</time>
      </trkpt>
      <trkpt lat="38.134022" lon="-0.831294">
        <ele>28.024</ele>
        <time>2021-05-05T10:32:43Z</time>
      </trkpt>
      <trkpt lat="38.134067" lon="-0.831290">
        <ele>27.604</ele>
        <time>2021-05-05T10:32:44Z</time>
      </trkpt>
      <trkpt lat="38.134112" lon="-0.831287">
        <ele>27.314</ele>
        <time>2021-05-05T10:32:45Z</time>
      </trkpt>
      <trkpt lat="38.134203" lon="-0.831284">
        <ele>27.208</ele>
        <time>2021-05-05T10:32:47Z</time>
      </trkpt>
      <trkpt lat="38.134299" lon="-0.831276">
        <ele>27.369</ele>
        <time>2021-05-05T10:32:49Z</time>
      </trkpt>
      <trkpt lat="38.134392" lon="-0.831264">
        <ele>27.294</ele>
        <time>2021-05-05T10:32:51Z</time>
      </trkpt>
      <trkpt lat="38.134439" lon="-0.831256">
        <ele>27.194</ele>
        <time>2021-05-05T10:32:52Z</time>
      </trkpt>
      <trkpt lat="38.134531" lon="-0.831251">
        <ele>27.257</ele>
        <time>2021-05-05T10:32:54Z</time>
      </trkpt>
      <trkpt lat="38.134624" lon="-0.831245">
        <ele>27.567</ele>
        <time>2021-05-05T10:32:56Z</time>
      </trkpt>
      <trkpt lat="38.134714" lon="-0.831235">
        <ele>27.629</ele>
        <time>2021-05-05T10:32:58Z</time>
      </trkpt>
      <trkpt lat="38.134801" lon="-0.831249">
        <ele>27.656</ele>
        <time>2021-05-05T10:33:00Z</time>
      </trkpt>
      <trkpt lat="38.134885" lon="-0.831277">
        <ele>27.431</ele>
        <time>2021-05-05T10:33:02Z</time>
      </trkpt>
      <trkpt lat="38.134953" lon="-0.831314">
        <ele>27.548</ele>
        <time>2021-05-05T10:33:04Z</time>
      </trkpt>
      <trkpt lat="38.135037" lon="-0.831366">
        <ele>25.661</ele>
        <time>2021-05-05T10:33:06Z</time>
      </trkpt>
      <trkpt lat="38.135095" lon="-0.831392">
        <ele>24.517</ele>
        <time>2021-05-05T10:33:08Z</time>
      </trkpt>
      <trkpt lat="38.135162" lon="-0.831425">
        <ele>23.808</ele>
        <time>2021-05-05T10:33:09Z</time>
      </trkpt>
      <trkpt lat="38.135215" lon="-0.831452">
        <ele>23.451</ele>
        <time>2021-05-05T10:33:11Z</time>
      </trkpt>
      <trkpt lat="38.135274" lon="-0.831480">
        <ele>23.266</ele>
        <time>2021-05-05T10:33:13Z</time>
      </trkpt>
      <trkpt lat="38.135351" lon="-0.831509">
        <ele>23.146</ele>
        <time>2021-05-05T10:33:14Z</time>
      </trkpt>
      <trkpt lat="38.135413" lon="-0.831534">
        <ele>23.099</ele>
        <time>2021-05-05T10:33:16Z</time>
      </trkpt>
      <trkpt lat="38.135471" lon="-0.831562">
        <ele>22.959</ele>
        <time>2021-05-05T10:33:18Z</time>
      </trkpt>
      <trkpt lat="38.135545" lon="-0.831594">
        <ele>22.871</ele>
        <time>2021-05-05T10:33:20Z</time>
      </trkpt>
      <trkpt lat="38.135607" lon="-0.831619">
        <ele>22.888</ele>
        <time>2021-05-05T10:33:21Z</time>
      </trkpt>
      <trkpt lat="38.135684" lon="-0.831649">
        <ele>22.813</ele>
        <time>2021-05-05T10:33:23Z</time>
      </trkpt>
      <trkpt lat="38.135739" lon="-0.831672">
        <ele>22.812</ele>
        <time>2021-05-05T10:33:24Z</time>
      </trkpt>
      <trkpt lat="38.135787" lon="-0.831692">
        <ele>22.832</ele>
        <time>2021-05-05T10:33:26Z</time>
      </trkpt>
      <trkpt lat="38.135857" lon="-0.831718">
        <ele>22.805</ele>
        <time>2021-05-05T10:33:27Z</time>
      </trkpt>
      <trkpt lat="38.135901" lon="-0.831733">
        <ele>22.808</ele>
        <time>2021-05-05T10:33:28Z</time>
      </trkpt>
      <trkpt lat="38.135956" lon="-0.831752">
        <ele>22.848</ele>
        <time>2021-05-05T10:33:30Z</time>
      </trkpt>
      <trkpt lat="38.136019" lon="-0.831768">
        <ele>22.833</ele>
        <time>2021-05-05T10:33:31Z</time>
      </trkpt>
      <trkpt lat="38.136093" lon="-0.831790">
        <ele>22.813</ele>
        <time>2021-05-05T10:33:33Z</time>
      </trkpt>
      <trkpt lat="38.136144" lon="-0.831805">
        <ele>22.886</ele>
        <time>2021-05-05T10:33:34Z</time>
      </trkpt>
      <trkpt lat="38.136193" lon="-0.831814">
        <ele>22.836</ele>
        <time>2021-05-05T10:33:36Z</time>
      </trkpt>
      <trkpt lat="38.136266" lon="-0.831820">
        <ele>22.898</ele>
        <time>2021-05-05T10:33:38Z</time>
      </trkpt>
      <trkpt lat="38.136324" lon="-0.831810">
        <ele>22.885</ele>
        <time>2021-05-05T10:33:39Z</time>
      </trkpt>
      <trkpt lat="38.136376" lon="-0.831803">
        <ele>22.870</ele>
        <time>2021-05-05T10:33:41Z</time>
      </trkpt>
      <trkpt lat="38.136456" lon="-0.831795">
        <ele>22.841</ele>
        <time>2021-05-05T10:33:43Z</time>
      </trkpt>
      <trkpt lat="38.136528" lon="-0.831790">
        <ele>22.881</ele>
        <time>2021-05-05T10:33:44Z</time>
      </trkpt>
      <trkpt lat="38.136581" lon="-0.831788">
        <ele>22.809</ele>
        <time>2021-05-05T10:33:46Z</time>
      </trkpt>
      <trkpt lat="38.136664" lon="-0.831795">
        <ele>22.808</ele>
        <time>2021-05-05T10:33:47Z</time>
      </trkpt>
      <trkpt lat="38.136731" lon="-0.831799">
        <ele>22.811</ele>
        <time>2021-05-05T10:33:49Z</time>
      </trkpt>
      <trkpt lat="38.136816" lon="-0.831806">
        <ele>22.886</ele>
        <time>2021-05-05T10:33:51Z</time>
      </trkpt>
      <trkpt lat="38.136905" lon="-0.831823">
        <ele>22.876</ele>
        <time>2021-05-05T10:33:53Z</time>
      </trkpt>
      <trkpt lat="38.136975" lon="-0.831841">
        <ele>22.839</ele>
        <time>2021-05-05T10:33:54Z</time>
      </trkpt>
      <trkpt lat="38.137021" lon="-0.831849">
        <ele>22.899</ele>
        <time>2021-05-05T10:33:55Z</time>
      </trkpt>
      <trkpt lat="38.137103" lon="-0.831862">
        <ele>22.841</ele>
        <time>2021-05-05T10:33:58Z</time>
      </trkpt>
      <trkpt lat="38.137161" lon="-0.831875">
        <ele>22.858</ele>
        <time>2021-05-05T10:33:59Z</time>
      </trkpt>
      <trkpt lat="38.137211" lon="-0.831878">
        <ele>22.843</ele>
        <time>2021-05-05T10:34:00Z</time>
      </trkpt>
      <trkpt lat="38.137280" lon="-0.831867">
        <ele>22.854</ele>
        <time>2021-05-05T10:34:02Z</time>
      </trkpt>
      <trkpt lat="38.137304" lon="-0.831758">
        <ele>25.556</ele>
        <time>2021-05-05T10:34:05Z</time>
      </trkpt>
      <trkpt lat="38.137302" lon="-0.831659">
        <ele>26.811</ele>
        <time>2021-05-05T10:34:06Z</time>
      </trkpt>
      <trkpt lat="38.137313" lon="-0.831587">
        <ele>27.308</ele>
        <time>2021-05-05T10:34:08Z</time>
      </trkpt>
      <trkpt lat="38.137325" lon="-0.831499">
        <ele>27.842</ele>
        <time>2021-05-05T10:34:09Z</time>
      </trkpt>
      <trkpt lat="38.137337" lon="-0.831427">
        <ele>27.957</ele>
        <time>2021-05-05T10:34:10Z</time>
      </trkpt>
      <trkpt lat="38.137352" lon="-0.831341">
        <ele>28.157</ele>
        <time>2021-05-05T10:34:12Z</time>
      </trkpt>
      <trkpt lat="38.137364" lon="-0.831268">
        <ele>28.450</ele>
        <time>2021-05-05T10:34:13Z</time>
      </trkpt>
      <trkpt lat="38.137374" lon="-0.831195">
        <ele>28.350</ele>
        <time>2021-05-05T10:34:15Z</time>
      </trkpt>
      <trkpt lat="38.137387" lon="-0.831083">
        <ele>28.152</ele>
        <time>2021-05-05T10:34:17Z</time>
      </trkpt>
      <trkpt lat="38.137404" lon="-0.830967">
        <ele>27.899</ele>
        <time>2021-05-05T10:34:19Z</time>
      </trkpt>
      <trkpt lat="38.137420" lon="-0.830852">
        <ele>27.854</ele>
        <time>2021-05-05T10:34:21Z</time>
      </trkpt>
      <trkpt lat="38.137433" lon="-0.830771">
        <ele>28.072</ele>
        <time>2021-05-05T10:34:22Z</time>
      </trkpt>
      <trkpt lat="38.137446" lon="-0.830685">
        <ele>27.613</ele>
        <time>2021-05-05T10:34:24Z</time>
      </trkpt>
      <trkpt lat="38.137452" lon="-0.830626">
        <ele>27.414</ele>
        <time>2021-05-05T10:34:25Z</time>
      </trkpt>
      <trkpt lat="38.137459" lon="-0.830567">
        <ele>27.108</ele>
        <time>2021-05-05T10:34:26Z</time>
      </trkpt>
      <trkpt lat="38.137472" lon="-0.830450">
        <ele>27.094</ele>
        <time>2021-05-05T10:34:28Z</time>
      </trkpt>
      <trkpt lat="38.137488" lon="-0.830334">
        <ele>26.859</ele>
        <time>2021-05-05T10:34:30Z</time>
      </trkpt>
      <trkpt lat="38.137507" lon="-0.830221">
        <ele>26.679</ele>
        <time>2021-05-05T10:34:32Z</time>
      </trkpt>
      <trkpt lat="38.137525" lon="-0.830107">
        <ele>26.542</ele>
        <time>2021-05-05T10:34:34Z</time>
      </trkpt>
      <trkpt lat="38.137533" lon="-0.830049">
        <ele>26.312</ele>
        <time>2021-05-05T10:34:35Z</time>
      </trkpt>
      <trkpt lat="38.137543" lon="-0.829993">
        <ele>26.284</ele>
        <time>2021-05-05T10:34:36Z</time>
      </trkpt>
      <trkpt lat="38.137552" lon="-0.829937">
        <ele>26.311</ele>
        <time>2021-05-05T10:34:37Z</time>
      </trkpt>
      <trkpt lat="38.137572" lon="-0.829838">
        <ele>26.216</ele>
        <time>2021-05-05T10:34:39Z</time>
      </trkpt>
      <trkpt lat="38.137594" lon="-0.829737">
        <ele>26.347</ele>
        <time>2021-05-05T10:34:41Z</time>
      </trkpt>
      <trkpt lat="38.137608" lon="-0.829675">
        <ele>26.429</ele>
        <time>2021-05-05T10:34:42Z</time>
      </trkpt>
      <trkpt lat="38.137631" lon="-0.829552">
        <ele>26.221</ele>
        <time>2021-05-05T10:34:44Z</time>
      </trkpt>
      <trkpt lat="38.137651" lon="-0.829492">
        <ele>25.808</ele>
        <time>2021-05-05T10:34:46Z</time>
      </trkpt>
      <trkpt lat="38.137668" lon="-0.829392">
        <ele>25.751</ele>
        <time>2021-05-05T10:34:48Z</time>
      </trkpt>
      <trkpt lat="38.137689" lon="-0.829324">
        <ele>25.626</ele>
        <time>2021-05-05T10:34:50Z</time>
      </trkpt>
      <trkpt lat="38.137730" lon="-0.829274">
        <ele>25.856</ele>
        <time>2021-05-05T10:34:51Z</time>
      </trkpt>
      <trkpt lat="38.137781" lon="-0.829266">
        <ele>25.569</ele>
        <time>2021-05-05T10:34:53Z</time>
      </trkpt>
      <trkpt lat="38.137834" lon="-0.829261">
        <ele>25.489</ele>
        <time>2021-05-05T10:34:54Z</time>
      </trkpt>
      <trkpt lat="38.137896" lon="-0.829256">
        <ele>25.371</ele>
        <time>2021-05-05T10:34:55Z</time>
      </trkpt>
      <trkpt lat="38.137968" lon="-0.829259">
        <ele>25.748</ele>
        <time>2021-05-05T10:34:57Z</time>
      </trkpt>
      <trkpt lat="38.138055" lon="-0.829262">
        <ele>25.953</ele>
        <time>2021-05-05T10:34:59Z</time>
      </trkpt>
      <trkpt lat="38.138115" lon="-0.829270">
        <ele>26.127</ele>
        <time>2021-05-05T10:35:01Z</time>
      </trkpt>
      <trkpt lat="38.138193" lon="-0.829278">
        <ele>26.368</ele>
        <time>2021-05-05T10:35:02Z</time>
      </trkpt>
      <trkpt lat="38.138261" lon="-0.829289">
        <ele>26.714</ele>
        <time>2021-05-05T10:35:04Z</time>
      </trkpt>
      <trkpt lat="38.138312" lon="-0.829297">
        <ele>27.008</ele>
        <time>2021-05-05T10:35:05Z</time>
      </trkpt>
      <trkpt lat="38.138370" lon="-0.829301">
        <ele>27.119</ele>
        <time>2021-05-05T10:35:07Z</time>
      </trkpt>
      <trkpt lat="38.138452" lon="-0.829308">
        <ele>27.674</ele>
        <time>2021-05-05T10:35:09Z</time>
      </trkpt>
      <trkpt lat="38.138515" lon="-0.829320">
        <ele>28.144</ele>
        <time>2021-05-05T10:35:10Z</time>
      </trkpt>
      <trkpt lat="38.138572" lon="-0.829325">
        <ele>28.297</ele>
        <time>2021-05-05T10:35:12Z</time>
      </trkpt>
      <trkpt lat="38.138655" lon="-0.829341">
        <ele>28.497</ele>
        <time>2021-05-05T10:35:14Z</time>
      </trkpt>
      <trkpt lat="38.138740" lon="-0.829343">
        <ele>28.979</ele>
        <time>2021-05-05T10:35:16Z</time>
      </trkpt>
      <trkpt lat="38.138819" lon="-0.829365">
        <ele>29.246</ele>
        <time>2021-05-05T10:35:17Z</time>
      </trkpt>
      <trkpt lat="38.138866" lon="-0.829377">
        <ele>29.521</ele>
        <time>2021-05-05T10:35:19Z</time>
      </trkpt>
      <trkpt lat="38.138932" lon="-0.829396">
        <ele>29.623</ele>
        <time>2021-05-05T10:35:20Z</time>
      </trkpt>
      <trkpt lat="38.138984" lon="-0.829392">
        <ele>29.883</ele>
        <time>2021-05-05T10:35:22Z</time>
      </trkpt>
      <trkpt lat="38.139047" lon="-0.829393">
        <ele>30.011</ele>
        <time>2021-05-05T10:35:23Z</time>
      </trkpt>
      <trkpt lat="38.139110" lon="-0.829395">
        <ele>29.808</ele>
        <time>2021-05-05T10:35:25Z</time>
      </trkpt>
      <trkpt lat="38.139195" lon="-0.829398">
        <ele>29.789</ele>
        <time>2021-05-05T10:35:26Z</time>
      </trkpt>
      <trkpt lat="38.139259" lon="-0.829401">
        <ele>29.664</ele>
        <time>2021-05-05T10:35:28Z</time>
      </trkpt>
      <trkpt lat="38.139309" lon="-0.829404">
        <ele>29.774</ele>
        <time>2021-05-05T10:35:29Z</time>
      </trkpt>
      <trkpt lat="38.139387" lon="-0.829395">
        <ele>29.697</ele>
        <time>2021-05-05T10:35:30Z</time>
      </trkpt>
      <trkpt lat="38.139442" lon="-0.829403">
        <ele>29.587</ele>
        <time>2021-05-05T10:35:32Z</time>
      </trkpt>
      <trkpt lat="38.139527" lon="-0.829430">
        <ele>29.419</ele>
        <time>2021-05-05T10:35:34Z</time>
      </trkpt>
      <trkpt lat="38.139573" lon="-0.829459">
        <ele>29.226</ele>
        <time>2021-05-05T10:35:35Z</time>
      </trkpt>
      <trkpt lat="38.139663" lon="-0.829465">
        <ele>29.251</ele>
        <time>2021-05-05T10:35:37Z</time>
      </trkpt>
      <trkpt lat="38.139753" lon="-0.829463">
        <ele>29.427</ele>
        <time>2021-05-05T10:35:39Z</time>
      </trkpt>
      <trkpt lat="38.139849" lon="-0.829473">
        <ele>29.468</ele>
        <time>2021-05-05T10:35:41Z</time>
      </trkpt>
      <trkpt lat="38.139897" lon="-0.829476">
        <ele>29.414</ele>
        <time>2021-05-05T10:35:42Z</time>
      </trkpt>
      <trkpt lat="38.139944" lon="-0.829480">
        <ele>29.308</ele>
        <time>2021-05-05T10:35:43Z</time>
      </trkpt>
      <trkpt lat="38.140041" lon="-0.829498">
        <ele>29.319</ele>
        <time>2021-05-05T10:35:45Z</time>
      </trkpt>
      <trkpt lat="38.140091" lon="-0.829505">
        <ele>28.994</ele>
        <time>2021-05-05T10:35:46Z</time>
      </trkpt>
      <trkpt lat="38.140186" lon="-0.829508">
        <ele>28.714</ele>
        <time>2021-05-05T10:35:48Z</time>
      </trkpt>
      <trkpt lat="38.140282" lon="-0.829516">
        <ele>28.867</ele>
        <time>2021-05-05T10:35:50Z</time>
      </trkpt>
      <trkpt lat="38.140378" lon="-0.829533">
        <ele>29.057</ele>
        <time>2021-05-05T10:35:52Z</time>
      </trkpt>
      <trkpt lat="38.140426" lon="-0.829538">
        <ele>29.369</ele>
        <time>2021-05-05T10:35:53Z</time>
      </trkpt>
      <trkpt lat="38.140473" lon="-0.829543">
        <ele>29.556</ele>
        <time>2021-05-05T10:35:54Z</time>
      </trkpt>
      <trkpt lat="38.140568" lon="-0.829558">
        <ele>29.431</ele>
        <time>2021-05-05T10:35:56Z</time>
      </trkpt>
      <trkpt lat="38.140661" lon="-0.829569">
        <ele>29.621</ele>
        <time>2021-05-05T10:35:58Z</time>
      </trkpt>
      <trkpt lat="38.140708" lon="-0.829571">
        <ele>29.741</ele>
        <time>2021-05-05T10:35:59Z</time>
      </trkpt>
      <trkpt lat="38.140802" lon="-0.829581">
        <ele>29.805</ele>
        <time>2021-05-05T10:36:01Z</time>
      </trkpt>
      <trkpt lat="38.140848" lon="-0.829586">
        <ele>29.908</ele>
        <time>2021-05-05T10:36:02Z</time>
      </trkpt>
      <trkpt lat="38.140894" lon="-0.829589">
        <ele>29.979</ele>
        <time>2021-05-05T10:36:03Z</time>
      </trkpt>
      <trkpt lat="38.140984" lon="-0.829605">
        <ele>29.654</ele>
        <time>2021-05-05T10:36:05Z</time>
      </trkpt>
      <trkpt lat="38.141058" lon="-0.829619">
        <ele>30.074</ele>
        <time>2021-05-05T10:36:07Z</time>
      </trkpt>
      <trkpt lat="38.141139" lon="-0.829621">
        <ele>30.097</ele>
        <time>2021-05-05T10:36:09Z</time>
      </trkpt>
      <trkpt lat="38.141212" lon="-0.829625">
        <ele>30.067</ele>
        <time>2021-05-05T10:36:11Z</time>
      </trkpt>
      <trkpt lat="38.141261" lon="-0.829631">
        <ele>29.689</ele>
        <time>2021-05-05T10:36:12Z</time>
      </trkpt>
      <trkpt lat="38.141307" lon="-0.829608">
        <ele>29.286</ele>
        <time>2021-05-05T10:36:15Z</time>
      </trkpt>
      <trkpt lat="38.141346" lon="-0.829655">
        <ele>29.011</ele>
        <time>2021-05-05T10:36:18Z</time>
      </trkpt>
      <trkpt lat="38.141288" lon="-0.829666">
        <ele>28.857</ele>
        <time>2021-05-05T10:36:20Z</time>
      </trkpt>
      <trkpt lat="38.141237" lon="-0.829663">
        <ele>28.300</ele>
        <time>2021-05-05T10:36:22Z</time>
      </trkpt>
      <trkpt lat="38.141175" lon="-0.829654">
        <ele>27.820</ele>
        <time>2021-05-05T10:36:24Z</time>
      </trkpt>
      <trkpt lat="38.141113" lon="-0.829635">
        <ele>27.608</ele>
        <time>2021-05-05T10:36:26Z</time>
      </trkpt>
      <trkpt lat="38.141060" lon="-0.829624">
        <ele>27.582</ele>
        <time>2021-05-05T10:36:28Z</time>
      </trkpt>
      <trkpt lat="38.140995" lon="-0.829611">
        <ele>27.017</ele>
        <time>2021-05-05T10:36:29Z</time>
      </trkpt>
      <trkpt lat="38.140922" lon="-0.829590">
        <ele>26.947</ele>
        <time>2021-05-05T10:36:32Z</time>
      </trkpt>
      <trkpt lat="38.140864" lon="-0.829575">
        <ele>27.280</ele>
        <time>2021-05-05T10:36:33Z</time>
      </trkpt>
      <trkpt lat="38.140807" lon="-0.829558">
        <ele>27.180</ele>
        <time>2021-05-05T10:36:36Z</time>
      </trkpt>
      <trkpt lat="38.140764" lon="-0.829536">
        <ele>26.542</ele>
        <time>2021-05-05T10:36:39Z</time>
      </trkpt>
      <trkpt lat="38.140790" lon="-0.829586">
        <ele>24.819</ele>
        <time>2021-05-05T10:37:00Z</time>
      </trkpt>
      <trkpt lat="38.140846" lon="-0.829587">
        <ele>23.884</ele>
        <time>2021-05-05T10:37:02Z</time>
      </trkpt>
      <trkpt lat="38.140916" lon="-0.829618">
        <ele>23.249</ele>
        <time>2021-05-05T10:37:05Z</time>
      </trkpt>
      <trkpt lat="38.140979" lon="-0.829630">
        <ele>22.802</ele>
        <time>2021-05-05T10:37:06Z</time>
      </trkpt>
      <trkpt lat="38.141034" lon="-0.829635">
        <ele>22.622</ele>
        <time>2021-05-05T10:37:08Z</time>
      </trkpt>
      <trkpt lat="38.141085" lon="-0.829645">
        <ele>22.508</ele>
        <time>2021-05-05T10:37:09Z</time>
      </trkpt>
      <trkpt lat="38.141155" lon="-0.829655">
        <ele>22.581</ele>
        <time>2021-05-05T10:37:11Z</time>
      </trkpt>
      <trkpt lat="38.141233" lon="-0.829661">
        <ele>22.576</ele>
        <time>2021-05-05T10:37:13Z</time>
      </trkpt>
      <trkpt lat="38.141285" lon="-0.829673">
        <ele>22.576</ele>
        <time>2021-05-05T10:37:14Z</time>
      </trkpt>
      <trkpt lat="38.141344" lon="-0.829694">
        <ele>22.559</ele>
        <time>2021-05-05T10:37:16Z</time>
      </trkpt>
      <trkpt lat="38.141409" lon="-0.829700">
        <ele>22.589</ele>
        <time>2021-05-05T10:37:18Z</time>
      </trkpt>
      <trkpt lat="38.141459" lon="-0.829695">
        <ele>22.551</ele>
        <time>2021-05-05T10:37:20Z</time>
      </trkpt>
      <trkpt lat="38.141519" lon="-0.829696">
        <ele>22.578</ele>
        <time>2021-05-05T10:37:22Z</time>
      </trkpt>
      <trkpt lat="38.141574" lon="-0.829693">
        <ele>22.553</ele>
        <time>2021-05-05T10:37:24Z</time>
      </trkpt>
      <trkpt lat="38.141627" lon="-0.829702">
        <ele>22.563</ele>
        <time>2021-05-05T10:37:26Z</time>
      </trkpt>
      <trkpt lat="38.141674" lon="-0.829710">
        <ele>22.544</ele>
        <time>2021-05-05T10:37:28Z</time>
      </trkpt>
      <trkpt lat="38.141737" lon="-0.829715">
        <ele>22.518</ele>
        <time>2021-05-05T10:37:31Z</time>
      </trkpt>
      <trkpt lat="38.141787" lon="-0.829716">
        <ele>22.508</ele>
        <time>2021-05-05T10:37:34Z</time>
      </trkpt>
      <trkpt lat="38.141827" lon="-0.829742">
        <ele>22.543</ele>
        <time>2021-05-05T10:37:37Z</time>
      </trkpt>
      <trkpt lat="38.141877" lon="-0.829720">
        <ele>22.598</ele>
        <time>2021-05-05T10:37:41Z</time>
      </trkpt>
      <trkpt lat="38.141922" lon="-0.829732">
        <ele>22.588</ele>
        <time>2021-05-05T10:37:44Z</time>
      </trkpt>
      <trkpt lat="38.141966" lon="-0.829720">
        <ele>22.571</ele>
        <time>2021-05-05T10:37:46Z</time>
      </trkpt>
      <trkpt lat="38.142015" lon="-0.829719">
        <ele>22.531</ele>
        <time>2021-05-05T10:37:48Z</time>
      </trkpt>
      <trkpt lat="38.142061" lon="-0.829733">
        <ele>22.513</ele>
        <time>2021-05-05T10:37:51Z</time>
      </trkpt>
      <trkpt lat="38.142108" lon="-0.829732">
        <ele>22.580</ele>
        <time>2021-05-05T10:37:53Z</time>
      </trkpt>
      <trkpt lat="38.142164" lon="-0.829738">
        <ele>22.575</ele>
        <time>2021-05-05T10:37:55Z</time>
      </trkpt>
      <trkpt lat="38.142224" lon="-0.829741">
        <ele>24.932</ele>
        <time>2021-05-05T10:37:57Z</time>
      </trkpt>
      <trkpt lat="38.142288" lon="-0.829757">
        <ele>26.792</ele>
        <time>2021-05-05T10:38:01Z</time>
      </trkpt>
      <trkpt lat="38.142342" lon="-0.829782">
        <ele>27.911</ele>
        <time>2021-05-05T10:38:03Z</time>
      </trkpt>
      <trkpt lat="38.142402" lon="-0.829775">
        <ele>28.108</ele>
        <time>2021-05-05T10:38:05Z</time>
      </trkpt>
      <trkpt lat="38.142451" lon="-0.829749">
        <ele>28.520</ele>
        <time>2021-05-05T10:38:06Z</time>
      </trkpt>
      <trkpt lat="38.142504" lon="-0.829708">
        <ele>28.495</ele>
        <time>2021-05-05T10:38:08Z</time>
      </trkpt>
      <trkpt lat="38.142530" lon="-0.829631">
        <ele>28.355</ele>
        <time>2021-05-05T10:38:10Z</time>
      </trkpt>
      <trkpt lat="38.142531" lon="-0.829570">
        <ele>28.228</ele>
        <time>2021-05-05T10:38:11Z</time>
      </trkpt>
      <trkpt lat="38.142521" lon="-0.829510">
        <ele>28.238</ele>
        <time>2021-05-05T10:38:12Z</time>
      </trkpt>
      <trkpt lat="38.142503" lon="-0.829452">
        <ele>27.880</ele>
        <time>2021-05-05T10:38:13Z</time>
      </trkpt>
      <trkpt lat="38.142477" lon="-0.829383">
        <ele>27.777</ele>
        <time>2021-05-05T10:38:15Z</time>
      </trkpt>
      <trkpt lat="38.142456" lon="-0.829322">
        <ele>27.682</ele>
        <time>2021-05-05T10:38:16Z</time>
      </trkpt>
      <trkpt lat="38.142426" lon="-0.829235">
        <ele>27.552</ele>
        <time>2021-05-05T10:38:18Z</time>
      </trkpt>
      <trkpt lat="38.142399" lon="-0.829163">
        <ele>26.953</ele>
        <time>2021-05-05T10:38:20Z</time>
      </trkpt>
      <trkpt lat="38.142387" lon="-0.829108">
        <ele>27.008</ele>
        <time>2021-05-05T10:38:21Z</time>
      </trkpt>
      <trkpt lat="38.142365" lon="-0.829025">
        <ele>27.208</ele>
        <time>2021-05-05T10:38:23Z</time>
      </trkpt>
      <trkpt lat="38.142350" lon="-0.828931">
        <ele>27.322</ele>
        <time>2021-05-05T10:38:25Z</time>
      </trkpt>
      <trkpt lat="38.142350" lon="-0.828860">
        <ele>27.177</ele>
        <time>2021-05-05T10:38:27Z</time>
      </trkpt>
      <trkpt lat="38.142375" lon="-0.828790">
        <ele>26.867</ele>
        <time>2021-05-05T10:38:28Z</time>
      </trkpt>
      <trkpt lat="38.142378" lon="-0.828731">
        <ele>26.940</ele>
        <time>2021-05-05T10:38:29Z</time>
      </trkpt>
      <trkpt lat="38.142393" lon="-0.828677">
        <ele>26.990</ele>
        <time>2021-05-05T10:38:30Z</time>
      </trkpt>
      <trkpt lat="38.142419" lon="-0.828599">
        <ele>27.262</ele>
        <time>2021-05-05T10:38:32Z</time>
      </trkpt>
      <trkpt lat="38.142446" lon="-0.828532">
        <ele>27.159</ele>
        <time>2021-05-05T10:38:34Z</time>
      </trkpt>
      <trkpt lat="38.142476" lon="-0.828439">
        <ele>27.064</ele>
        <time>2021-05-05T10:38:36Z</time>
      </trkpt>
      <trkpt lat="38.142510" lon="-0.828372">
        <ele>27.082</ele>
        <time>2021-05-05T10:38:37Z</time>
      </trkpt>
      <trkpt lat="38.142564" lon="-0.828304">
        <ele>27.043</ele>
        <time>2021-05-05T10:38:39Z</time>
      </trkpt>
      <trkpt lat="38.142611" lon="-0.828254">
        <ele>27.117</ele>
        <time>2021-05-05T10:38:41Z</time>
      </trkpt>
      <trkpt lat="38.142687" lon="-0.828215">
        <ele>27.208</ele>
        <time>2021-05-05T10:38:43Z</time>
      </trkpt>
      <trkpt lat="38.142763" lon="-0.828194">
        <ele>27.335</ele>
        <time>2021-05-05T10:38:44Z</time>
      </trkpt>
      <trkpt lat="38.142810" lon="-0.828184">
        <ele>27.480</ele>
        <time>2021-05-05T10:38:46Z</time>
      </trkpt>
      <trkpt lat="38.142880" lon="-0.828165">
        <ele>27.450</ele>
        <time>2021-05-05T10:38:48Z</time>
      </trkpt>
      <trkpt lat="38.142956" lon="-0.828151">
        <ele>27.353</ele>
        <time>2021-05-05T10:38:50Z</time>
      </trkpt>
      <trkpt lat="38.143025" lon="-0.828144">
        <ele>27.233</ele>
        <time>2021-05-05T10:38:51Z</time>
      </trkpt>
      <trkpt lat="38.143092" lon="-0.828139">
        <ele>27.255</ele>
        <time>2021-05-05T10:38:53Z</time>
      </trkpt>
      <trkpt lat="38.143154" lon="-0.828128">
        <ele>27.032</ele>
        <time>2021-05-05T10:38:54Z</time>
      </trkpt>
      <trkpt lat="38.143219" lon="-0.828109">
        <ele>27.097</ele>
        <time>2021-05-05T10:38:56Z</time>
      </trkpt>
      <trkpt lat="38.143268" lon="-0.828091">
        <ele>27.192</ele>
        <time>2021-05-05T10:38:57Z</time>
      </trkpt>
      <trkpt lat="38.143313" lon="-0.828075">
        <ele>27.473</ele>
        <time>2021-05-05T10:38:59Z</time>
      </trkpt>
      <trkpt lat="38.143381" lon="-0.828046">
        <ele>27.120</ele>
        <time>2021-05-05T10:39:00Z</time>
      </trkpt>
      <trkpt lat="38.143467" lon="-0.828015">
        <ele>26.808</ele>
        <time>2021-05-05T10:39:03Z</time>
      </trkpt>
      <trkpt lat="38.143520" lon="-0.827989">
        <ele>26.936</ele>
        <time>2021-05-05T10:39:04Z</time>
      </trkpt>
      <trkpt lat="38.143583" lon="-0.827975">
        <ele>26.981</ele>
        <time>2021-05-05T10:39:06Z</time>
      </trkpt>
      <trkpt lat="38.143653" lon="-0.827981">
        <ele>27.091</ele>
        <time>2021-05-05T10:39:07Z</time>
      </trkpt>
      <trkpt lat="38.143709" lon="-0.828006">
        <ele>26.714</ele>
        <time>2021-05-05T10:39:09Z</time>
      </trkpt>
      <trkpt lat="38.143769" lon="-0.828051">
        <ele>26.644</ele>
        <time>2021-05-05T10:39:10Z</time>
      </trkpt>
      <trkpt lat="38.143818" lon="-0.828092">
        <ele>26.556</ele>
        <time>2021-05-05T10:39:11Z</time>
      </trkpt>
      <trkpt lat="38.143868" lon="-0.828151">
        <ele>26.723</ele>
        <time>2021-05-05T10:39:13Z</time>
      </trkpt>
      <trkpt lat="38.143906" lon="-0.828197">
        <ele>27.218</ele>
        <time>2021-05-05T10:39:14Z</time>
      </trkpt>
      <trkpt lat="38.143963" lon="-0.828274">
        <ele>27.773</ele>
        <time>2021-05-05T10:39:16Z</time>
      </trkpt>
      <trkpt lat="38.143996" lon="-0.828339">
        <ele>27.985</ele>
        <time>2021-05-05T10:39:18Z</time>
      </trkpt>
      <trkpt lat="38.144025" lon="-0.828397">
        <ele>28.213</ele>
        <time>2021-05-05T10:39:19Z</time>
      </trkpt>
      <trkpt lat="38.144047" lon="-0.828450">
        <ele>28.308</ele>
        <time>2021-05-05T10:39:21Z</time>
      </trkpt>
      <trkpt lat="38.144073" lon="-0.828519">
        <ele>28.714</ele>
        <time>2021-05-05T10:39:22Z</time>
      </trkpt>
      <trkpt lat="38.144102" lon="-0.828592">
        <ele>29.079</ele>
        <time>2021-05-05T10:39:24Z</time>
      </trkpt>
      <trkpt lat="38.144140" lon="-0.828673">
        <ele>28.999</ele>
        <time>2021-05-05T10:39:25Z</time>
      </trkpt>
      <trkpt lat="38.144167" lon="-0.828732">
        <ele>29.042</ele>
        <time>2021-05-05T10:39:27Z</time>
      </trkpt>
      <trkpt lat="38.144197" lon="-0.828795">
        <ele>29.132</ele>
        <time>2021-05-05T10:39:28Z</time>
      </trkpt>
      <trkpt lat="38.144229" lon="-0.828861">
        <ele>29.354</ele>
        <time>2021-05-05T10:39:29Z</time>
      </trkpt>
      <trkpt lat="38.144255" lon="-0.828918">
        <ele>29.641</ele>
        <time>2021-05-05T10:39:31Z</time>
      </trkpt>
      <trkpt lat="38.144287" lon="-0.828993">
        <ele>29.676</ele>
        <time>2021-05-05T10:39:32Z</time>
      </trkpt>
      <trkpt lat="38.144312" lon="-0.829046">
        <ele>29.651</ele>
        <time>2021-05-05T10:39:33Z</time>
      </trkpt>
      <trkpt lat="38.144346" lon="-0.829109">
        <ele>29.601</ele>
        <time>2021-05-05T10:39:35Z</time>
      </trkpt>
      <trkpt lat="38.144383" lon="-0.829176">
        <ele>30.011</ele>
        <time>2021-05-05T10:39:36Z</time>
      </trkpt>
      <trkpt lat="38.144415" lon="-0.829229">
        <ele>30.308</ele>
        <time>2021-05-05T10:39:37Z</time>
      </trkpt>
      <trkpt lat="38.144453" lon="-0.829268">
        <ele>30.832</ele>
        <time>2021-05-05T10:39:39Z</time>
      </trkpt>
      <trkpt lat="38.144527" lon="-0.829320">
        <ele>30.727</ele>
        <time>2021-05-05T10:39:41Z</time>
      </trkpt>
      <trkpt lat="38.144596" lon="-0.829355">
        <ele>30.637</ele>
        <time>2021-05-05T10:39:42Z</time>
      </trkpt>
      <trkpt lat="38.144639" lon="-0.829371">
        <ele>30.960</ele>
        <time>2021-05-05T10:39:44Z</time>
      </trkpt>
      <trkpt lat="38.144700" lon="-0.829391">
        <ele>30.960</ele>
        <time>2021-05-05T10:39:45Z</time>
      </trkpt>
      <trkpt lat="38.144762" lon="-0.829421">
        <ele>31.032</ele>
        <time>2021-05-05T10:39:47Z</time>
      </trkpt>
      <trkpt lat="38.144811" lon="-0.829449">
        <ele>31.389</ele>
        <time>2021-05-05T10:39:48Z</time>
      </trkpt>
      <trkpt lat="38.144864" lon="-0.829474">
        <ele>31.314</ele>
        <time>2021-05-05T10:39:49Z</time>
      </trkpt>
      <trkpt lat="38.144928" lon="-0.829511">
        <ele>31.362</ele>
        <time>2021-05-05T10:39:51Z</time>
      </trkpt>
      <trkpt lat="38.144979" lon="-0.829557">
        <ele>31.383</ele>
        <time>2021-05-05T10:39:53Z</time>
      </trkpt>
      <trkpt lat="38.145036" lon="-0.829583">
        <ele>30.911</ele>
        <time>2021-05-05T10:39:54Z</time>
      </trkpt>
      <trkpt lat="38.145093" lon="-0.829622">
        <ele>30.908</ele>
        <time>2021-05-05T10:39:56Z</time>
      </trkpt>
      <trkpt lat="38.145135" lon="-0.829653">
        <ele>30.953</ele>
        <time>2021-05-05T10:39:57Z</time>
      </trkpt>
      <trkpt lat="38.145176" lon="-0.829686">
        <ele>30.958</ele>
        <time>2021-05-05T10:39:59Z</time>
      </trkpt>
      <trkpt lat="38.145220" lon="-0.829727">
        <ele>30.928</ele>
        <time>2021-05-05T10:40:01Z</time>
      </trkpt>
      <trkpt lat="38.145265" lon="-0.829751">
        <ele>31.231</ele>
        <time>2021-05-05T10:40:03Z</time>
      </trkpt>
      <trkpt lat="38.145314" lon="-0.829811">
        <ele>31.181</ele>
        <time>2021-05-05T10:40:05Z</time>
      </trkpt>
      <trkpt lat="38.145367" lon="-0.829869">
        <ele>30.943</ele>
        <time>2021-05-05T10:40:07Z</time>
      </trkpt>
      <trkpt lat="38.145419" lon="-0.829909">
        <ele>30.720</ele>
        <time>2021-05-05T10:40:08Z</time>
      </trkpt>
      <trkpt lat="38.145484" lon="-0.829971">
        <ele>30.825</ele>
        <time>2021-05-05T10:40:10Z</time>
      </trkpt>
      <trkpt lat="38.145533" lon="-0.830037">
        <ele>31.264</ele>
        <time>2021-05-05T10:40:12Z</time>
      </trkpt>
      <trkpt lat="38.145582" lon="-0.830094">
        <ele>31.706</ele>
        <time>2021-05-05T10:40:14Z</time>
      </trkpt>
      <trkpt lat="38.145621" lon="-0.830126">
        <ele>31.716</ele>
        <time>2021-05-05T10:40:16Z</time>
      </trkpt>
      <trkpt lat="38.145672" lon="-0.830172">
        <ele>31.408</ele>
        <time>2021-05-05T10:40:17Z</time>
      </trkpt>
      <trkpt lat="38.145736" lon="-0.830209">
        <ele>31.713</ele>
        <time>2021-05-05T10:40:19Z</time>
      </trkpt>
      <trkpt lat="38.145822" lon="-0.830216">
        <ele>31.758</ele>
        <time>2021-05-05T10:40:22Z</time>
      </trkpt>
      <trkpt lat="38.145880" lon="-0.830226">
        <ele>31.418</ele>
        <time>2021-05-05T10:40:23Z</time>
      </trkpt>
      <trkpt lat="38.145935" lon="-0.830241">
        <ele>31.421</ele>
        <time>2021-05-05T10:40:25Z</time>
      </trkpt>
      <trkpt lat="38.146010" lon="-0.830259">
        <ele>31.561</ele>
        <time>2021-05-05T10:40:26Z</time>
      </trkpt>
      <trkpt lat="38.146071" lon="-0.830269">
        <ele>31.833</ele>
        <time>2021-05-05T10:40:28Z</time>
      </trkpt>
      <trkpt lat="38.146123" lon="-0.830278">
        <ele>31.830</ele>
        <time>2021-05-05T10:40:30Z</time>
      </trkpt>
      <trkpt lat="38.146197" lon="-0.830293">
        <ele>31.795</ele>
        <time>2021-05-05T10:40:32Z</time>
      </trkpt>
      <trkpt lat="38.146267" lon="-0.830305">
        <ele>32.067</ele>
        <time>2021-05-05T10:40:34Z</time>
      </trkpt>
      <trkpt lat="38.146334" lon="-0.830311">
        <ele>31.981</ele>
        <time>2021-05-05T10:40:36Z</time>
      </trkpt>
      <trkpt lat="38.146382" lon="-0.830312">
        <ele>31.719</ele>
        <time>2021-05-05T10:40:37Z</time>
      </trkpt>
      <trkpt lat="38.146434" lon="-0.830311">
        <ele>31.708</ele>
        <time>2021-05-05T10:40:39Z</time>
      </trkpt>
      <trkpt lat="38.146506" lon="-0.830318">
        <ele>31.583</ele>
        <time>2021-05-05T10:40:41Z</time>
      </trkpt>
      <trkpt lat="38.146569" lon="-0.830333">
        <ele>31.558</ele>
        <time>2021-05-05T10:40:42Z</time>
      </trkpt>
      <trkpt lat="38.146640" lon="-0.830341">
        <ele>31.348</ele>
        <time>2021-05-05T10:40:44Z</time>
      </trkpt>
      <trkpt lat="38.146694" lon="-0.830350">
        <ele>31.221</ele>
        <time>2021-05-05T10:40:46Z</time>
      </trkpt>
      <trkpt lat="38.146742" lon="-0.830356">
        <ele>31.351</ele>
        <time>2021-05-05T10:40:48Z</time>
      </trkpt>
      <trkpt lat="38.146812" lon="-0.830363">
        <ele>31.343</ele>
        <time>2021-05-05T10:40:50Z</time>
      </trkpt>
      <trkpt lat="38.146858" lon="-0.830376">
        <ele>31.270</ele>
        <time>2021-05-05T10:40:52Z</time>
      </trkpt>
      <trkpt lat="38.146905" lon="-0.830367">
        <ele>31.165</ele>
        <time>2021-05-05T10:40:56Z</time>
      </trkpt>
      <trkpt lat="38.146954" lon="-0.830371">
        <ele>30.889</ele>
        <time>2021-05-05T10:40:58Z</time>
      </trkpt>
      <trkpt lat="38.147003" lon="-0.830378">
        <ele>30.406</ele>
        <time>2021-05-05T10:41:01Z</time>
      </trkpt>
      <trkpt lat="38.147063" lon="-0.830340">
        <ele>30.026</ele>
        <time>2021-05-05T10:41:03Z</time>
      </trkpt>
      <trkpt lat="38.147108" lon="-0.830305">
        <ele>29.808</ele>
        <time>2021-05-05T10:41:05Z</time>
      </trkpt>
      <trkpt lat="38.147153" lon="-0.830265">
        <ele>29.655</ele>
        <time>2021-05-05T10:41:08Z</time>
      </trkpt>
      <trkpt lat="38.147200" lon="-0.830230">
        <ele>29.030</ele>
        <time>2021-05-05T10:41:10Z</time>
      </trkpt>
      <trkpt lat="38.147247" lon="-0.830192">
        <ele>28.480</ele>
        <time>2021-05-05T10:41:12Z</time>
      </trkpt>
      <trkpt lat="38.147279" lon="-0.830149">
        <ele>28.153</ele>
        <time>2021-05-05T10:41:14Z</time>
      </trkpt>
      <trkpt lat="38.147328" lon="-0.830104">
        <ele>28.313</ele>
        <time>2021-05-05T10:41:15Z</time>
      </trkpt>
      <trkpt lat="38.147391" lon="-0.830061">
        <ele>29.035</ele>
        <time>2021-05-05T10:41:18Z</time>
      </trkpt>
      <trkpt lat="38.147444" lon="-0.830015">
        <ele>29.672</ele>
        <time>2021-05-05T10:41:20Z</time>
      </trkpt>
      <trkpt lat="38.147486" lon="-0.829961">
        <ele>29.837</ele>
        <time>2021-05-05T10:41:22Z</time>
      </trkpt>
      <trkpt lat="38.147532" lon="-0.829917">
        <ele>29.759</ele>
        <time>2021-05-05T10:41:24Z</time>
      </trkpt>
      <trkpt lat="38.147579" lon="-0.829876">
        <ele>29.503</ele>
        <time>2021-05-05T10:41:25Z</time>
      </trkpt>
      <trkpt lat="38.147639" lon="-0.829836">
        <ele>29.123</ele>
        <time>2021-05-05T10:41:27Z</time>
      </trkpt>
      <trkpt lat="38.147694" lon="-0.829801">
        <ele>28.408</ele>
        <time>2021-05-05T10:41:29Z</time>
      </trkpt>
      <trkpt lat="38.147762" lon="-0.829754">
        <ele>28.072</ele>
        <time>2021-05-05T10:41:31Z</time>
      </trkpt>
      <trkpt lat="38.147826" lon="-0.829711">
        <ele>27.697</ele>
        <time>2021-05-05T10:41:33Z</time>
      </trkpt>
      <trkpt lat="38.147873" lon="-0.829661">
        <ele>27.937</ele>
        <time>2021-05-05T10:41:35Z</time>
      </trkpt>
      <trkpt lat="38.147923" lon="-0.829620">
        <ele>28.020</ele>
        <time>2021-05-05T10:41:36Z</time>
      </trkpt>
      <trkpt lat="38.147972" lon="-0.829589">
        <ele>27.910</ele>
        <time>2021-05-05T10:41:38Z</time>
      </trkpt>
      <trkpt lat="38.148031" lon="-0.829559">
        <ele>27.982</ele>
        <time>2021-05-05T10:41:41Z</time>
      </trkpt>
      <trkpt lat="38.148080" lon="-0.829565">
        <ele>28.369</ele>
        <time>2021-05-05T10:41:44Z</time>
      </trkpt>
      <trkpt lat="38.148123" lon="-0.829613">
        <ele>28.494</ele>
        <time>2021-05-05T10:41:48Z</time>
      </trkpt>
      <trkpt lat="38.148092" lon="-0.829665">
        <ele>28.943</ele>
        <time>2021-05-05T10:41:52Z</time>
      </trkpt>
      <trkpt lat="38.148039" lon="-0.829632">
        <ele>28.864</ele>
        <time>2021-05-05T10:41:55Z</time>
      </trkpt>
      <trkpt lat="38.148022" lon="-0.829559">
        <ele>28.910</ele>
        <time>2021-05-05T10:41:57Z</time>
      </trkpt>
      <trkpt lat="38.148012" lon="-0.829499">
        <ele>28.708</ele>
        <time>2021-05-05T10:41:59Z</time>
      </trkpt>
      <trkpt lat="38.148013" lon="-0.829441">
        <ele>28.451</ele>
        <time>2021-05-05T10:42:01Z</time>
      </trkpt>
      <trkpt lat="38.148012" lon="-0.829374">
        <ele>28.496</ele>
        <time>2021-05-05T10:42:03Z</time>
      </trkpt>
      <trkpt lat="38.147979" lon="-0.829304">
        <ele>28.616</ele>
        <time>2021-05-05T10:42:05Z</time>
      </trkpt>
      <trkpt lat="38.147955" lon="-0.829245">
        <ele>28.629</ele>
        <time>2021-05-05T10:42:06Z</time>
      </trkpt>
      <trkpt lat="38.147942" lon="-0.829154">
        <ele>28.429</ele>
        <time>2021-05-05T10:42:09Z</time>
      </trkpt>
      <trkpt lat="38.147926" lon="-0.829082">
        <ele>28.321</ele>
        <time>2021-05-05T10:42:11Z</time>
      </trkpt>
      <trkpt lat="38.147908" lon="-0.829010">
        <ele>28.158</ele>
        <time>2021-05-05T10:42:13Z</time>
      </trkpt>
      <trkpt lat="38.147887" lon="-0.828945">
        <ele>28.353</ele>
        <time>2021-05-05T10:42:15Z</time>
      </trkpt>
      <trkpt lat="38.147868" lon="-0.828881">
        <ele>28.076</ele>
        <time>2021-05-05T10:42:17Z</time>
      </trkpt>
      <trkpt lat="38.147866" lon="-0.828813">
        <ele>28.090</ele>
        <time>2021-05-05T10:42:20Z</time>
      </trkpt>
      <trkpt lat="38.147856" lon="-0.828734">
        <ele>28.519</ele>
        <time>2021-05-05T10:42:22Z</time>
      </trkpt>
      <trkpt lat="38.147831" lon="-0.828651">
        <ele>28.408</ele>
        <time>2021-05-05T10:42:25Z</time>
      </trkpt>
      <trkpt lat="38.147840" lon="-0.828594">
        <ele>28.084</ele>
        <time>2021-05-05T10:42:29Z</time>
      </trkpt>
      <trkpt lat="38.147839" lon="-0.828654">
        <ele>27.859</ele>
        <time>2021-05-05T10:42:51Z</time>
      </trkpt>
      <trkpt lat="38.147832" lon="-0.828596">
        <ele>27.539</ele>
        <time>2021-05-05T10:43:54Z</time>
      </trkpt>
      <trkpt lat="38.147880" lon="-0.828601">
        <ele>28.822</ele>
        <time>2021-05-05T10:45:44Z</time>
      </trkpt>
      <trkpt lat="38.147855" lon="-0.828656">
        <ele>28.132</ele>
        <time>2021-05-05T10:46:41Z</time>
      </trkpt>
      <trkpt lat="38.147837" lon="-0.828717">
        <ele>27.784</ele>
        <time>2021-05-05T10:46:43Z</time>
      </trkpt>
      <trkpt lat="38.147841" lon="-0.828807">
        <ele>27.451</ele>
        <time>2021-05-05T10:46:46Z</time>
      </trkpt>
      <trkpt lat="38.147849" lon="-0.828880">
        <ele>27.216</ele>
        <time>2021-05-05T10:46:48Z</time>
      </trkpt>
      <trkpt lat="38.147868" lon="-0.828962">
        <ele>27.134</ele>
        <time>2021-05-05T10:46:51Z</time>
      </trkpt>
      <trkpt lat="38.147882" lon="-0.829021">
        <ele>27.055</ele>
        <time>2021-05-05T10:46:52Z</time>
      </trkpt>
      <trkpt lat="38.147913" lon="-0.829105">
        <ele>27.010</ele>
        <time>2021-05-05T10:46:55Z</time>
      </trkpt>
      <trkpt lat="38.147940" lon="-0.829179">
        <ele>27.008</ele>
        <time>2021-05-05T10:46:57Z</time>
      </trkpt>
      <trkpt lat="38.147966" lon="-0.829247">
        <ele>27.050</ele>
        <time>2021-05-05T10:46:58Z</time>
      </trkpt>
      <trkpt lat="38.147991" lon="-0.829317">
        <ele>27.015</ele>
        <time>2021-05-05T10:47:00Z</time>
      </trkpt>
      <trkpt lat="38.148005" lon="-0.829371">
        <ele>27.065</ele>
        <time>2021-05-05T10:47:02Z</time>
      </trkpt>
      <trkpt lat="38.148025" lon="-0.829451">
        <ele>27.098</ele>
        <time>2021-05-05T10:47:04Z</time>
      </trkpt>
      <trkpt lat="38.148037" lon="-0.829520">
        <ele>27.028</ele>
        <time>2021-05-05T10:47:05Z</time>
      </trkpt>
      <trkpt lat="38.148051" lon="-0.829595">
        <ele>27.030</ele>
        <time>2021-05-05T10:47:08Z</time>
      </trkpt>
      <trkpt lat="38.148096" lon="-0.829647">
        <ele>27.017</ele>
        <time>2021-05-05T10:47:10Z</time>
      </trkpt>
      <trkpt lat="38.148149" lon="-0.829696">
        <ele>27.052</ele>
        <time>2021-05-05T10:47:12Z</time>
      </trkpt>
      <trkpt lat="38.148200" lon="-0.829737">
        <ele>27.032</ele>
        <time>2021-05-05T10:47:14Z</time>
      </trkpt>
      <trkpt lat="38.148262" lon="-0.829773">
        <ele>27.092</ele>
        <time>2021-05-05T10:47:16Z</time>
      </trkpt>
      <trkpt lat="38.148323" lon="-0.829808">
        <ele>27.011</ele>
        <time>2021-05-05T10:47:18Z</time>
      </trkpt>
      <trkpt lat="38.148366" lon="-0.829824">
        <ele>27.008</ele>
        <time>2021-05-05T10:47:19Z</time>
      </trkpt>
      <trkpt lat="38.148413" lon="-0.829850">
        <ele>27.090</ele>
        <time>2021-05-05T10:47:20Z</time>
      </trkpt>
      <trkpt lat="38.148481" lon="-0.829885">
        <ele>27.095</ele>
        <time>2021-05-05T10:47:23Z</time>
      </trkpt>
      <trkpt lat="38.148534" lon="-0.829918">
        <ele>27.055</ele>
        <time>2021-05-05T10:47:24Z</time>
      </trkpt>
      <trkpt lat="38.148585" lon="-0.829956">
        <ele>27.048</ele>
        <time>2021-05-05T10:47:26Z</time>
      </trkpt>
      <trkpt lat="38.148630" lon="-0.829985">
        <ele>27.028</ele>
        <time>2021-05-05T10:47:27Z</time>
      </trkpt>
      <trkpt lat="38.148697" lon="-0.830011">
        <ele>27.050</ele>
        <time>2021-05-05T10:47:29Z</time>
      </trkpt>
      <trkpt lat="38.148757" lon="-0.830047">
        <ele>27.057</ele>
        <time>2021-05-05T10:47:31Z</time>
      </trkpt>
      <trkpt lat="38.148833" lon="-0.830091">
        <ele>27.082</ele>
        <time>2021-05-05T10:47:33Z</time>
      </trkpt>
      <trkpt lat="38.148882" lon="-0.830118">
        <ele>27.049</ele>
        <time>2021-05-05T10:47:35Z</time>
      </trkpt>
      <trkpt lat="38.148937" lon="-0.830146">
        <ele>29.202</ele>
        <time>2021-05-05T10:47:36Z</time>
      </trkpt>
      <trkpt lat="38.148989" lon="-0.830171">
        <ele>30.422</ele>
        <time>2021-05-05T10:47:38Z</time>
      </trkpt>
      <trkpt lat="38.149055" lon="-0.830211">
        <ele>31.308</ele>
        <time>2021-05-05T10:47:40Z</time>
      </trkpt>
      <trkpt lat="38.149107" lon="-0.830245">
        <ele>31.531</ele>
        <time>2021-05-05T10:47:41Z</time>
      </trkpt>
      <trkpt lat="38.149156" lon="-0.830269">
        <ele>31.996</ele>
        <time>2021-05-05T10:47:43Z</time>
      </trkpt>
      <trkpt lat="38.149205" lon="-0.830299">
        <ele>32.176</ele>
        <time>2021-05-05T10:47:44Z</time>
      </trkpt>
      <trkpt lat="38.149248" lon="-0.830328">
        <ele>32.049</ele>
        <time>2021-05-05T10:47:46Z</time>
      </trkpt>
      <trkpt lat="38.149313" lon="-0.830371">
        <ele>31.779</ele>
        <time>2021-05-05T10:47:48Z</time>
      </trkpt>
      <trkpt lat="38.149369" lon="-0.830406">
        <ele>31.931</ele>
        <time>2021-05-05T10:47:49Z</time>
      </trkpt>
      <trkpt lat="38.149414" lon="-0.830434">
        <ele>31.758</ele>
        <time>2021-05-05T10:47:51Z</time>
      </trkpt>
      <trkpt lat="38.149467" lon="-0.830468">
        <ele>31.943</ele>
        <time>2021-05-05T10:47:52Z</time>
      </trkpt>
      <trkpt lat="38.149551" lon="-0.830507">
        <ele>31.736</ele>
        <time>2021-05-05T10:47:55Z</time>
      </trkpt>
      <trkpt lat="38.149611" lon="-0.830548">
        <ele>31.717</ele>
        <time>2021-05-05T10:47:57Z</time>
      </trkpt>
      <trkpt lat="38.149657" lon="-0.830573">
        <ele>31.618</ele>
        <time>2021-05-05T10:47:58Z</time>
      </trkpt>
      <trkpt lat="38.149706" lon="-0.830599">
        <ele>31.608</ele>
        <time>2021-05-05T10:47:59Z</time>
      </trkpt>
      <trkpt lat="38.149756" lon="-0.830633">
        <ele>31.710</ele>
        <time>2021-05-05T10:48:01Z</time>
      </trkpt>
      <trkpt lat="38.149812" lon="-0.830667">
        <ele>31.785</ele>
        <time>2021-05-05T10:48:03Z</time>
      </trkpt>
      <trkpt lat="38.149882" lon="-0.830704">
        <ele>31.745</ele>
        <time>2021-05-05T10:48:05Z</time>
      </trkpt>
      <trkpt lat="38.149933" lon="-0.830731">
        <ele>32.078</ele>
        <time>2021-05-05T10:48:07Z</time>
      </trkpt>
      <trkpt lat="38.149998" lon="-0.830769">
        <ele>32.428</ele>
        <time>2021-05-05T10:48:09Z</time>
      </trkpt>
      <trkpt lat="38.150064" lon="-0.830813">
        <ele>32.660</ele>
        <time>2021-05-05T10:48:11Z</time>
      </trkpt>
      <trkpt lat="38.150113" lon="-0.830840">
        <ele>32.737</ele>
        <time>2021-05-05T10:48:12Z</time>
      </trkpt>
      <trkpt lat="38.150185" lon="-0.830870">
        <ele>32.622</ele>
        <time>2021-05-05T10:48:14Z</time>
      </trkpt>
      <trkpt lat="38.150242" lon="-0.830904">
        <ele>32.938</ele>
        <time>2021-05-05T10:48:17Z</time>
      </trkpt>
      <trkpt lat="38.150293" lon="-0.830921">
        <ele>33.070</ele>
        <time>2021-05-05T10:48:19Z</time>
      </trkpt>
      <trkpt lat="38.150341" lon="-0.830942">
        <ele>33.217</ele>
        <time>2021-05-05T10:48:21Z</time>
      </trkpt>
      <trkpt lat="38.150386" lon="-0.830955">
        <ele>33.408</ele>
        <time>2021-05-05T10:48:23Z</time>
      </trkpt>
      <trkpt lat="38.150432" lon="-0.831004">
        <ele>33.890</ele>
        <time>2021-05-05T10:48:26Z</time>
      </trkpt>
      <trkpt lat="38.150483" lon="-0.831060">
        <ele>34.185</ele>
        <time>2021-05-05T10:48:29Z</time>
      </trkpt>
      <trkpt lat="38.150509" lon="-0.831107">
        <ele>32.165</ele>
        <time>2021-05-05T10:48:51Z</time>
      </trkpt>
      <trkpt lat="38.150557" lon="-0.831110">
        <ele>30.868</ele>
        <time>2021-05-05T10:49:34Z</time>
      </trkpt>
      <trkpt lat="38.150626" lon="-0.831121">
        <ele>30.198</ele>
        <time>2021-05-05T10:49:37Z</time>
      </trkpt>
      <trkpt lat="38.150679" lon="-0.831140">
        <ele>29.760</ele>
        <time>2021-05-05T10:49:38Z</time>
      </trkpt>
      <trkpt lat="38.150754" lon="-0.831163">
        <ele>29.457</ele>
        <time>2021-05-05T10:49:41Z</time>
      </trkpt>
      <trkpt lat="38.150816" lon="-0.831179">
        <ele>29.262</ele>
        <time>2021-05-05T10:49:43Z</time>
      </trkpt>
      <trkpt lat="38.150870" lon="-0.831193">
        <ele>29.177</ele>
        <time>2021-05-05T10:49:45Z</time>
      </trkpt>
      <trkpt lat="38.150923" lon="-0.831214">
        <ele>30.861</ele>
        <time>2021-05-05T10:49:47Z</time>
      </trkpt>
      <trkpt lat="38.150985" lon="-0.831248">
        <ele>31.927</ele>
        <time>2021-05-05T10:49:49Z</time>
      </trkpt>
      <trkpt lat="38.151034" lon="-0.831265">
        <ele>32.608</ele>
        <time>2021-05-05T10:49:51Z</time>
      </trkpt>
      <trkpt lat="38.151080" lon="-0.831277">
        <ele>33.034</ele>
        <time>2021-05-05T10:49:52Z</time>
      </trkpt>
      <trkpt lat="38.151149" lon="-0.831304">
        <ele>33.359</ele>
        <time>2021-05-05T10:49:54Z</time>
      </trkpt>
      <trkpt lat="38.151205" lon="-0.831317">
        <ele>34.489</ele>
        <time>2021-05-05T10:49:56Z</time>
      </trkpt>
      <trkpt lat="38.151257" lon="-0.831330">
        <ele>35.152</ele>
        <time>2021-05-05T10:49:58Z</time>
      </trkpt>
      <trkpt lat="38.151327" lon="-0.831357">
        <ele>35.542</ele>
        <time>2021-05-05T10:50:01Z</time>
      </trkpt>
      <trkpt lat="38.151373" lon="-0.831367">
        <ele>36.184</ele>
        <time>2021-05-05T10:50:02Z</time>
      </trkpt>
      <trkpt lat="38.151423" lon="-0.831372">
        <ele>36.341</ele>
        <time>2021-05-05T10:50:05Z</time>
      </trkpt>
      <trkpt lat="38.151465" lon="-0.831402">
        <ele>36.526</ele>
        <time>2021-05-05T10:50:09Z</time>
      </trkpt>
      <trkpt lat="38.151529" lon="-0.831432">
        <ele>36.541</ele>
        <time>2021-05-05T10:50:12Z</time>
      </trkpt>
      <trkpt lat="38.151584" lon="-0.831449">
        <ele>36.181</ele>
        <time>2021-05-05T10:50:14Z</time>
      </trkpt>
      <trkpt lat="38.151638" lon="-0.831459">
        <ele>35.809</ele>
        <time>2021-05-05T10:50:16Z</time>
      </trkpt>
      <trkpt lat="38.151699" lon="-0.831473">
        <ele>35.808</ele>
        <time>2021-05-05T10:50:19Z</time>
      </trkpt>
      <trkpt lat="38.151755" lon="-0.831496">
        <ele>35.451</ele>
        <time>2021-05-05T10:50:21Z</time>
      </trkpt>
      <trkpt lat="38.151814" lon="-0.831515">
        <ele>35.756</ele>
        <time>2021-05-05T10:50:24Z</time>
      </trkpt>
      <trkpt lat="38.151865" lon="-0.831531">
        <ele>36.486</ele>
        <time>2021-05-05T10:50:27Z</time>
      </trkpt>
      <trkpt lat="38.151933" lon="-0.831545">
        <ele>36.549</ele>
        <time>2021-05-05T10:50:29Z</time>
      </trkpt>
      <trkpt lat="38.151981" lon="-0.831556">
        <ele>36.829</ele>
        <time>2021-05-05T10:50:30Z</time>
      </trkpt>
      <trkpt lat="38.152033" lon="-0.831576">
        <ele>36.981</ele>
        <time>2021-05-05T10:50:32Z</time>
      </trkpt>
      <trkpt lat="38.152088" lon="-0.831590">
        <ele>37.568</ele>
        <time>2021-05-05T10:50:34Z</time>
      </trkpt>
      <trkpt lat="38.152161" lon="-0.831605">
        <ele>37.923</ele>
        <time>2021-05-05T10:50:35Z</time>
      </trkpt>
      <trkpt lat="38.152219" lon="-0.831623">
        <ele>37.867</ele>
        <time>2021-05-05T10:50:37Z</time>
      </trkpt>
      <trkpt lat="38.152281" lon="-0.831655">
        <ele>38.781</ele>
        <time>2021-05-05T10:50:39Z</time>
      </trkpt>
      <trkpt lat="38.152353" lon="-0.831680">
        <ele>40.019</ele>
        <time>2021-05-05T10:50:41Z</time>
      </trkpt>
      <trkpt lat="38.152398" lon="-0.831692">
        <ele>40.108</ele>
        <time>2021-05-05T10:50:42Z</time>
      </trkpt>
      <trkpt lat="38.152462" lon="-0.831714">
        <ele>40.323</ele>
        <time>2021-05-05T10:50:44Z</time>
      </trkpt>
      <trkpt lat="38.152538" lon="-0.831731">
        <ele>40.398</ele>
        <time>2021-05-05T10:50:47Z</time>
      </trkpt>
      <trkpt lat="38.152604" lon="-0.831740">
        <ele>40.388</ele>
        <time>2021-05-05T10:50:48Z</time>
      </trkpt>
      <trkpt lat="38.152650" lon="-0.831753">
        <ele>40.451</ele>
        <time>2021-05-05T10:50:50Z</time>
      </trkpt>
      <trkpt lat="38.152713" lon="-0.831780">
        <ele>40.391</ele>
        <time>2021-05-05T10:50:51Z</time>
      </trkpt>
      <trkpt lat="38.152774" lon="-0.831800">
        <ele>40.613</ele>
        <time>2021-05-05T10:50:53Z</time>
      </trkpt>
      <trkpt lat="38.152819" lon="-0.831815">
        <ele>40.490</ele>
        <time>2021-05-05T10:50:55Z</time>
      </trkpt>
      <trkpt lat="38.152879" lon="-0.831841">
        <ele>40.015</ele>
        <time>2021-05-05T10:50:57Z</time>
      </trkpt>
      <trkpt lat="38.152930" lon="-0.831860">
        <ele>40.092</ele>
        <time>2021-05-05T10:50:58Z</time>
      </trkpt>
      <trkpt lat="38.152983" lon="-0.831885">
        <ele>39.573</ele>
        <time>2021-05-05T10:51:00Z</time>
      </trkpt>
      <trkpt lat="38.153027" lon="-0.831907">
        <ele>38.720</ele>
        <time>2021-05-05T10:51:02Z</time>
      </trkpt>
      <trkpt lat="38.153090" lon="-0.831941">
        <ele>38.408</ele>
        <time>2021-05-05T10:51:04Z</time>
      </trkpt>
      <trkpt lat="38.153141" lon="-0.831969">
        <ele>38.566</ele>
        <time>2021-05-05T10:51:06Z</time>
      </trkpt>
      <trkpt lat="38.153207" lon="-0.832010">
        <ele>38.421</ele>
        <time>2021-05-05T10:51:09Z</time>
      </trkpt>
      <trkpt lat="38.153263" lon="-0.832041">
        <ele>38.581</ele>
        <time>2021-05-05T10:51:11Z</time>
      </trkpt>
      <trkpt lat="38.153312" lon="-0.832046">
        <ele>38.884</ele>
        <time>2021-05-05T10:51:12Z</time>
      </trkpt>
      <trkpt lat="38.153368" lon="-0.832067">
        <ele>38.724</ele>
        <time>2021-05-05T10:51:14Z</time>
      </trkpt>
      <trkpt lat="38.153426" lon="-0.832095">
        <ele>38.786</ele>
        <time>2021-05-05T10:51:17Z</time>
      </trkpt>
      <trkpt lat="38.153495" lon="-0.832113">
        <ele>38.423</ele>
        <time>2021-05-05T10:51:19Z</time>
      </trkpt>
      <trkpt lat="38.153549" lon="-0.832124">
        <ele>38.178</ele>
        <time>2021-05-05T10:51:20Z</time>
      </trkpt>
      <trkpt lat="38.153595" lon="-0.832139">
        <ele>38.293</ele>
        <time>2021-05-05T10:51:22Z</time>
      </trkpt>
      <trkpt lat="38.153660" lon="-0.832166">
        <ele>37.965</ele>
        <time>2021-05-05T10:51:23Z</time>
      </trkpt>
      <trkpt lat="38.153728" lon="-0.832176">
        <ele>37.921</ele>
        <time>2021-05-05T10:51:25Z</time>
      </trkpt>
      <trkpt lat="38.153778" lon="-0.832194">
        <ele>37.708</ele>
        <time>2021-05-05T10:51:27Z</time>
      </trkpt>
      <trkpt lat="38.153847" lon="-0.832214">
        <ele>37.586</ele>
        <time>2021-05-05T10:51:28Z</time>
      </trkpt>
      <trkpt lat="38.153932" lon="-0.832240">
        <ele>37.671</ele>
        <time>2021-05-05T10:51:31Z</time>
      </trkpt>
      <trkpt lat="38.153982" lon="-0.832255">
        <ele>37.441</ele>
        <time>2021-05-05T10:51:32Z</time>
      </trkpt>
      <trkpt lat="38.154038" lon="-0.832274">
        <ele>37.114</ele>
        <time>2021-05-05T10:51:33Z</time>
      </trkpt>
      <trkpt lat="38.154087" lon="-0.832293">
        <ele>37.114</ele>
        <time>2021-05-05T10:51:35Z</time>
      </trkpt>
      <trkpt lat="38.154150" lon="-0.832316">
        <ele>37.466</ele>
        <time>2021-05-05T10:51:36Z</time>
      </trkpt>
      <trkpt lat="38.154206" lon="-0.832348">
        <ele>37.633</ele>
        <time>2021-05-05T10:51:38Z</time>
      </trkpt>
      <trkpt lat="38.154262" lon="-0.832386">
        <ele>38.048</ele>
        <time>2021-05-05T10:51:39Z</time>
      </trkpt>
      <trkpt lat="38.154310" lon="-0.832411">
        <ele>38.194</ele>
        <time>2021-05-05T10:51:41Z</time>
      </trkpt>
      <trkpt lat="38.154359" lon="-0.832425">
        <ele>38.257</ele>
        <time>2021-05-05T10:51:42Z</time>
      </trkpt>
      <trkpt lat="38.154426" lon="-0.832431">
        <ele>38.022</ele>
        <time>2021-05-05T10:51:45Z</time>
      </trkpt>
      <trkpt lat="38.154495" lon="-0.832497">
        <ele>37.708</ele>
        <time>2021-05-05T10:51:48Z</time>
      </trkpt>
      <trkpt lat="38.154547" lon="-0.832513">
        <ele>37.446</ele>
        <time>2021-05-05T10:51:49Z</time>
      </trkpt>
      <trkpt lat="38.154622" lon="-0.832517">
        <ele>37.271</ele>
        <time>2021-05-05T10:51:52Z</time>
      </trkpt>
      <trkpt lat="38.154683" lon="-0.832525">
        <ele>36.721</ele>
        <time>2021-05-05T10:51:54Z</time>
      </trkpt>
      <trkpt lat="38.154736" lon="-0.832542">
        <ele>36.244</ele>
        <time>2021-05-05T10:51:55Z</time>
      </trkpt>
      <trkpt lat="38.154802" lon="-0.832564">
        <ele>36.464</ele>
        <time>2021-05-05T10:51:58Z</time>
      </trkpt>
      <trkpt lat="38.154848" lon="-0.832569">
        <ele>36.296</ele>
        <time>2021-05-05T10:52:00Z</time>
      </trkpt>
      <trkpt lat="38.154896" lon="-0.832586">
        <ele>35.923</ele>
        <time>2021-05-05T10:52:03Z</time>
      </trkpt>
      <trkpt lat="38.154962" lon="-0.832600">
        <ele>35.468</ele>
        <time>2021-05-05T10:52:06Z</time>
      </trkpt>
      <trkpt lat="38.155012" lon="-0.832621">
        <ele>35.025</ele>
        <time>2021-05-05T10:52:07Z</time>
      </trkpt>
      <trkpt lat="38.155057" lon="-0.832653">
        <ele>35.026</ele>
        <time>2021-05-05T10:52:09Z</time>
      </trkpt>
      <trkpt lat="38.155117" lon="-0.832698">
        <ele>35.008</ele>
        <time>2021-05-05T10:52:10Z</time>
      </trkpt>
      <trkpt lat="38.155161" lon="-0.832725">
        <ele>35.008</ele>
        <time>2021-05-05T10:52:12Z</time>
      </trkpt>
      <trkpt lat="38.155217" lon="-0.832769">
        <ele>35.079</ele>
        <time>2021-05-05T10:52:13Z</time>
      </trkpt>
      <trkpt lat="38.155275" lon="-0.832814">
        <ele>35.134</ele>
        <time>2021-05-05T10:52:15Z</time>
      </trkpt>
      <trkpt lat="38.155346" lon="-0.832845">
        <ele>35.244</ele>
        <time>2021-05-05T10:52:18Z</time>
      </trkpt>
      <trkpt lat="38.155407" lon="-0.832876">
        <ele>35.537</ele>
        <time>2021-05-05T10:52:20Z</time>
      </trkpt>
      <trkpt lat="38.155455" lon="-0.832906">
        <ele>35.377</ele>
        <time>2021-05-05T10:52:21Z</time>
      </trkpt>
      <trkpt lat="38.155505" lon="-0.832932">
        <ele>35.369</ele>
        <time>2021-05-05T10:52:23Z</time>
      </trkpt>
      <trkpt lat="38.155563" lon="-0.832967">
        <ele>34.766</ele>
        <time>2021-05-05T10:52:24Z</time>
      </trkpt>
      <trkpt lat="38.155626" lon="-0.833004">
        <ele>34.451</ele>
        <time>2021-05-05T10:52:27Z</time>
      </trkpt>
      <trkpt lat="38.155684" lon="-0.833045">
        <ele>34.331</ele>
        <time>2021-05-05T10:52:28Z</time>
      </trkpt>
      <trkpt lat="38.155741" lon="-0.833073">
        <ele>34.161</ele>
        <time>2021-05-05T10:52:30Z</time>
      </trkpt>
      <trkpt lat="38.155779" lon="-0.833106">
        <ele>34.307</ele>
        <time>2021-05-05T10:52:32Z</time>
      </trkpt>
      <trkpt lat="38.155850" lon="-0.833153">
        <ele>34.708</ele>
        <time>2021-05-05T10:52:34Z</time>
      </trkpt>
      <trkpt lat="38.155916" lon="-0.833189">
        <ele>34.770</ele>
        <time>2021-05-05T10:52:35Z</time>
      </trkpt>
      <trkpt lat="38.155991" lon="-0.833224">
        <ele>35.075</ele>
        <time>2021-05-05T10:52:38Z</time>
      </trkpt>
      <trkpt lat="38.156052" lon="-0.833258">
        <ele>34.995</ele>
        <time>2021-05-05T10:52:39Z</time>
      </trkpt>
      <trkpt lat="38.156094" lon="-0.833280">
        <ele>34.818</ele>
        <time>2021-05-05T10:52:41Z</time>
      </trkpt>
      <trkpt lat="38.156150" lon="-0.833308">
        <ele>35.188</ele>
        <time>2021-05-05T10:52:42Z</time>
      </trkpt>
      <trkpt lat="38.156217" lon="-0.833347">
        <ele>35.350</ele>
        <time>2021-05-05T10:52:44Z</time>
      </trkpt>
      <trkpt lat="38.156263" lon="-0.833374">
        <ele>35.237</ele>
        <time>2021-05-05T10:52:45Z</time>
      </trkpt>
      <trkpt lat="38.156328" lon="-0.833411">
        <ele>35.552</ele>
        <time>2021-05-05T10:52:47Z</time>
      </trkpt>
      <trkpt lat="38.156382" lon="-0.833441">
        <ele>35.628</ele>
        <time>2021-05-05T10:52:49Z</time>
      </trkpt>
      <trkpt lat="38.156459" lon="-0.833487">
        <ele>35.989</ele>
        <time>2021-05-05T10:52:51Z</time>
      </trkpt>
      <trkpt lat="38.156524" lon="-0.833533">
        <ele>35.917</ele>
        <time>2021-05-05T10:52:52Z</time>
      </trkpt>
      <trkpt lat="38.156592" lon="-0.833571">
        <ele>35.708</ele>
        <time>2021-05-05T10:52:54Z</time>
      </trkpt>
      <trkpt lat="38.156650" lon="-0.833602">
        <ele>35.899</ele>
        <time>2021-05-05T10:52:56Z</time>
      </trkpt>
      <trkpt lat="38.156733" lon="-0.833636">
        <ele>35.874</ele>
        <time>2021-05-05T10:52:57Z</time>
      </trkpt>
      <trkpt lat="38.156803" lon="-0.833668">
        <ele>35.634</ele>
        <time>2021-05-05T10:52:59Z</time>
      </trkpt>
      <trkpt lat="38.156854" lon="-0.833689">
        <ele>35.827</ele>
        <time>2021-05-05T10:53:01Z</time>
      </trkpt>
      <trkpt lat="38.156897" lon="-0.833706">
        <ele>36.137</ele>
        <time>2021-05-05T10:53:02Z</time>
      </trkpt>
      <trkpt lat="38.156964" lon="-0.833735">
        <ele>36.379</ele>
        <time>2021-05-05T10:53:03Z</time>
      </trkpt>
      <trkpt lat="38.157043" lon="-0.833769">
        <ele>36.376</ele>
        <time>2021-05-05T10:53:05Z</time>
      </trkpt>
      <trkpt lat="38.157093" lon="-0.833790">
        <ele>36.491</ele>
        <time>2021-05-05T10:53:07Z</time>
      </trkpt>
      <trkpt lat="38.157172" lon="-0.833827">
        <ele>36.594</ele>
        <time>2021-05-05T10:53:09Z</time>
      </trkpt>
      <trkpt lat="38.157229" lon="-0.833858">
        <ele>36.657</ele>
        <time>2021-05-05T10:53:10Z</time>
      </trkpt>
      <trkpt lat="38.157282" lon="-0.833877">
        <ele>36.522</ele>
        <time>2021-05-05T10:53:11Z</time>
      </trkpt>
      <trkpt lat="38.157341" lon="-0.833918">
        <ele>36.508</ele>
        <time>2021-05-05T10:53:13Z</time>
      </trkpt>
      <trkpt lat="38.157425" lon="-0.833957">
        <ele>36.756</ele>
        <time>2021-05-05T10:53:15Z</time>
      </trkpt>
      <trkpt lat="38.157474" lon="-0.833982">
        <ele>36.771</ele>
        <time>2021-05-05T10:53:16Z</time>
      </trkpt>
      <trkpt lat="38.157519" lon="-0.834005">
        <ele>36.741</ele>
        <time>2021-05-05T10:53:18Z</time>
      </trkpt>
      <trkpt lat="38.157598" lon="-0.834051">
        <ele>36.624</ele>
        <time>2021-05-05T10:53:20Z</time>
      </trkpt>
      <trkpt lat="38.157656" lon="-0.834078">
        <ele>36.684</ele>
        <time>2021-05-05T10:53:21Z</time>
      </trkpt>
      <trkpt lat="38.157714" lon="-0.834108">
        <ele>36.766</ele>
        <time>2021-05-05T10:53:22Z</time>
      </trkpt>
      <trkpt lat="38.157782" lon="-0.834144">
        <ele>37.013</ele>
        <time>2021-05-05T10:53:24Z</time>
      </trkpt>
      <trkpt lat="38.157832" lon="-0.834174">
        <ele>37.518</ele>
        <time>2021-05-05T10:53:26Z</time>
      </trkpt>
      <trkpt lat="38.157898" lon="-0.834212">
        <ele>37.647</ele>
        <time>2021-05-05T10:53:27Z</time>
      </trkpt>
      <trkpt lat="38.157988" lon="-0.834255">
        <ele>37.829</ele>
        <time>2021-05-05T10:53:30Z</time>
      </trkpt>
      <trkpt lat="38.158045" lon="-0.834290">
        <ele>37.821</ele>
        <time>2021-05-05T10:53:31Z</time>
      </trkpt>
      <trkpt lat="38.158118" lon="-0.834323">
        <ele>37.308</ele>
        <time>2021-05-05T10:53:33Z</time>
      </trkpt>
      <trkpt lat="38.158167" lon="-0.834351">
        <ele>37.271</ele>
        <time>2021-05-05T10:53:34Z</time>
      </trkpt>
      <trkpt lat="38.158231" lon="-0.834383">
        <ele>37.466</ele>
        <time>2021-05-05T10:53:36Z</time>
      </trkpt>
      <trkpt lat="38.158286" lon="-0.834413">
        <ele>37.476</ele>
        <time>2021-05-05T10:53:38Z</time>
      </trkpt>
      <trkpt lat="38.158333" lon="-0.834448">
        <ele>37.089</ele>
        <time>2021-05-05T10:53:40Z</time>
      </trkpt>
      <trkpt lat="38.158378" lon="-0.834486">
        <ele>36.759</ele>
        <time>2021-05-05T10:53:41Z</time>
      </trkpt>
      <trkpt lat="38.158448" lon="-0.834529">
        <ele>36.361</ele>
        <time>2021-05-05T10:53:44Z</time>
      </trkpt>
      <trkpt lat="38.158511" lon="-0.834542">
        <ele>35.618</ele>
        <time>2021-05-05T10:53:46Z</time>
      </trkpt>
      <trkpt lat="38.158546" lon="-0.834478">
        <ele>35.293</ele>
        <time>2021-05-05T10:53:47Z</time>
      </trkpt>
      <trkpt lat="38.158547" lon="-0.834417">
        <ele>34.958</ele>
        <time>2021-05-05T10:53:49Z</time>
      </trkpt>
      <trkpt lat="38.158536" lon="-0.834334">
        <ele>34.452</ele>
        <time>2021-05-05T10:53:51Z</time>
      </trkpt>
      <trkpt lat="38.158535" lon="-0.834265">
        <ele>33.917</ele>
        <time>2021-05-05T10:53:53Z</time>
      </trkpt>
      <trkpt lat="38.158538" lon="-0.834199">
        <ele>33.308</ele>
        <time>2021-05-05T10:53:55Z</time>
      </trkpt>
      <trkpt lat="38.158548" lon="-0.834129">
        <ele>33.142</ele>
        <time>2021-05-05T10:53:57Z</time>
      </trkpt>
      <trkpt lat="38.158602" lon="-0.834063">
        <ele>33.267</ele>
        <time>2021-05-05T10:54:00Z</time>
      </trkpt>
      <trkpt lat="38.158648" lon="-0.834054">
        <ele>33.117</ele>
        <time>2021-05-05T10:54:03Z</time>
      </trkpt>
      <trkpt lat="38.158705" lon="-0.834099">
        <ele>32.950</ele>
        <time>2021-05-05T10:54:07Z</time>
      </trkpt>
      <trkpt lat="38.158741" lon="-0.834142">
        <ele>32.870</ele>
        <time>2021-05-05T10:54:09Z</time>
      </trkpt>
      <trkpt lat="38.158784" lon="-0.834176">
        <ele>32.712</ele>
        <time>2021-05-05T10:54:11Z</time>
      </trkpt>
      <trkpt lat="38.158844" lon="-0.834231">
        <ele>32.489</ele>
        <time>2021-05-05T10:54:14Z</time>
      </trkpt>
      <trkpt lat="38.158902" lon="-0.834200">
        <ele>31.924</ele>
        <time>2021-05-05T10:54:17Z</time>
      </trkpt>
      <trkpt lat="38.158915" lon="-0.834128">
        <ele>31.611</ele>
        <time>2021-05-05T10:54:18Z</time>
      </trkpt>
      <trkpt lat="38.158928" lon="-0.834056">
        <ele>31.521</ele>
        <time>2021-05-05T10:54:20Z</time>
      </trkpt>
      <trkpt lat="38.158937" lon="-0.833962">
        <ele>31.203</ele>
        <time>2021-05-05T10:54:23Z</time>
      </trkpt>
      <trkpt lat="38.158954" lon="-0.833880">
        <ele>30.808</ele>
        <time>2021-05-05T10:54:24Z</time>
      </trkpt>
      <trkpt lat="38.158976" lon="-0.833793">
        <ele>30.828</ele>
        <time>2021-05-05T10:54:26Z</time>
      </trkpt>
      <trkpt lat="38.159000" lon="-0.833699">
        <ele>30.873</ele>
        <time>2021-05-05T10:54:29Z</time>
      </trkpt>
      <trkpt lat="38.159020" lon="-0.833617">
        <ele>30.593</ele>
        <time>2021-05-05T10:54:30Z</time>
      </trkpt>
      <trkpt lat="38.159056" lon="-0.833527">
        <ele>30.216</ele>
        <time>2021-05-05T10:54:33Z</time>
      </trkpt>
      <trkpt lat="38.159079" lon="-0.833469">
        <ele>30.186</ele>
        <time>2021-05-05T10:54:34Z</time>
      </trkpt>
      <trkpt lat="38.159107" lon="-0.833405">
        <ele>29.998</ele>
        <time>2021-05-05T10:54:37Z</time>
      </trkpt>
      <trkpt lat="38.159131" lon="-0.833347">
        <ele>29.645</ele>
        <time>2021-05-05T10:54:41Z</time>
      </trkpt>
      <trkpt lat="38.159086" lon="-0.833377">
        <ele>29.490</ele>
        <time>2021-05-05T10:54:45Z</time>
      </trkpt>
      <trkpt lat="38.159070" lon="-0.833437">
        <ele>29.038</ele>
        <time>2021-05-05T10:54:48Z</time>
      </trkpt>
      <trkpt lat="38.159059" lon="-0.833500">
        <ele>28.870</ele>
        <time>2021-05-05T10:54:51Z</time>
      </trkpt>
      <trkpt lat="38.159035" lon="-0.833552">
        <ele>28.617</ele>
        <time>2021-05-05T10:54:54Z</time>
      </trkpt>
      <trkpt lat="38.159019" lon="-0.833612">
        <ele>28.308</ele>
        <time>2021-05-05T10:54:58Z</time>
      </trkpt>
      <trkpt lat="38.159029" lon="-0.833553">
        <ele>28.260</ele>
        <time>2021-05-05T10:55:03Z</time>
      </trkpt>
      <trkpt lat="38.159035" lon="-0.833486">
        <ele>28.795</ele>
        <time>2021-05-05T10:55:06Z</time>
      </trkpt>
      <trkpt lat="38.159059" lon="-0.833407">
        <ele>29.435</ele>
        <time>2021-05-05T10:55:10Z</time>
      </trkpt>
      <trkpt lat="38.159076" lon="-0.833336">
        <ele>29.678</ele>
        <time>2021-05-05T10:55:13Z</time>
      </trkpt>
      <trkpt lat="38.159096" lon="-0.833280">
        <ele>29.598</ele>
        <time>2021-05-05T10:55:15Z</time>
      </trkpt>
      <trkpt lat="38.159124" lon="-0.833192">
        <ele>29.480</ele>
        <time>2021-05-05T10:55:18Z</time>
      </trkpt>
      <trkpt lat="38.159141" lon="-0.833133">
        <ele>29.497</ele>
        <time>2021-05-05T10:55:20Z</time>
      </trkpt>
      <trkpt lat="38.159157" lon="-0.833069">
        <ele>29.192</ele>
        <time>2021-05-05T10:55:22Z</time>
      </trkpt>
      <trkpt lat="38.159180" lon="-0.832998">
        <ele>28.611</ele>
        <time>2021-05-05T10:55:25Z</time>
      </trkpt>
      <trkpt lat="38.159208" lon="-0.832912">
        <ele>28.421</ele>
        <time>2021-05-05T10:55:28Z</time>
      </trkpt>
      <trkpt lat="38.159231" lon="-0.832856">
        <ele>28.403</ele>
        <time>2021-05-05T10:55:30Z</time>
      </trkpt>
      <trkpt lat="38.159249" lon="-0.832791">
        <ele>28.508</ele>
        <time>2021-05-05T10:55:32Z</time>
      </trkpt>
      <trkpt lat="38.159262" lon="-0.832719">
        <ele>28.618</ele>
        <time>2021-05-05T10:55:33Z</time>
      </trkpt>
      <trkpt lat="38.159281" lon="-0.832645">
        <ele>28.453</ele>
        <time>2021-05-05T10:55:35Z</time>
      </trkpt>
      <trkpt lat="38.159294" lon="-0.832590">
        <ele>28.343</ele>
        <time>2021-05-05T10:55:37Z</time>
      </trkpt>
      <trkpt lat="38.159312" lon="-0.832516">
        <ele>28.326</ele>
        <time>2021-05-05T10:55:38Z</time>
      </trkpt>
      <trkpt lat="38.159331" lon="-0.832441">
        <ele>28.416</ele>
        <time>2021-05-05T10:55:40Z</time>
      </trkpt>
      <trkpt lat="38.159341" lon="-0.832362">
        <ele>28.188</ele>
        <time>2021-05-05T10:55:43Z</time>
      </trkpt>
      <trkpt lat="38.159373" lon="-0.832295">
        <ele>28.085</ele>
        <time>2021-05-05T10:55:46Z</time>
      </trkpt>
      <trkpt lat="38.159379" lon="-0.832357">
        <ele>27.620</ele>
        <time>2021-05-05T10:55:50Z</time>
      </trkpt>
      <trkpt lat="38.159360" lon="-0.832412">
        <ele>27.357</ele>
        <time>2021-05-05T10:55:52Z</time>
      </trkpt>
      <trkpt lat="38.159356" lon="-0.832486">
        <ele>27.300</ele>
        <time>2021-05-05T10:55:53Z</time>
      </trkpt>
      <trkpt lat="38.159387" lon="-0.832531">
        <ele>27.520</ele>
        <time>2021-05-05T10:55:55Z</time>
      </trkpt>
      <trkpt lat="38.159436" lon="-0.832480">
        <ele>27.508</ele>
        <time>2021-05-05T10:55:58Z</time>
      </trkpt>
      <trkpt lat="38.159481" lon="-0.832433">
        <ele>27.462</ele>
        <time>2021-05-05T10:55:59Z</time>
      </trkpt>
      <trkpt lat="38.159516" lon="-0.832383">
        <ele>27.417</ele>
        <time>2021-05-05T10:56:01Z</time>
      </trkpt>
      <trkpt lat="38.159549" lon="-0.832327">
        <ele>27.357</ele>
        <time>2021-05-05T10:56:03Z</time>
      </trkpt>
      <trkpt lat="38.159588" lon="-0.832276">
        <ele>27.250</ele>
        <time>2021-05-05T10:56:04Z</time>
      </trkpt>
      <trkpt lat="38.159621" lon="-0.832219">
        <ele>27.060</ele>
        <time>2021-05-05T10:56:06Z</time>
      </trkpt>
      <trkpt lat="38.159655" lon="-0.832152">
        <ele>27.092</ele>
        <time>2021-05-05T10:56:07Z</time>
      </trkpt>
      <trkpt lat="38.159710" lon="-0.832070">
        <ele>27.239</ele>
        <time>2021-05-05T10:56:09Z</time>
      </trkpt>
      <trkpt lat="38.159742" lon="-0.832009">
        <ele>27.154</ele>
        <time>2021-05-05T10:56:11Z</time>
      </trkpt>
      <trkpt lat="38.159774" lon="-0.831942">
        <ele>27.145</ele>
        <time>2021-05-05T10:56:12Z</time>
      </trkpt>
      <trkpt lat="38.159806" lon="-0.831878">
        <ele>27.047</ele>
        <time>2021-05-05T10:56:13Z</time>
      </trkpt>
      <trkpt lat="38.159827" lon="-0.831819">
        <ele>27.211</ele>
        <time>2021-05-05T10:56:15Z</time>
      </trkpt>
      <trkpt lat="38.159876" lon="-0.831735">
        <ele>27.608</ele>
        <time>2021-05-05T10:56:17Z</time>
      </trkpt>
      <trkpt lat="38.159910" lon="-0.831661">
        <ele>27.771</ele>
        <time>2021-05-05T10:56:18Z</time>
      </trkpt>
      <trkpt lat="38.159964" lon="-0.831568">
        <ele>27.896</ele>
        <time>2021-05-05T10:56:21Z</time>
      </trkpt>
      <trkpt lat="38.160014" lon="-0.831488">
        <ele>27.866</ele>
        <time>2021-05-05T10:56:22Z</time>
      </trkpt>
      <trkpt lat="38.160055" lon="-0.831410">
        <ele>27.669</ele>
        <time>2021-05-05T10:56:24Z</time>
      </trkpt>
      <trkpt lat="38.160098" lon="-0.831347">
        <ele>27.549</ele>
        <time>2021-05-05T10:56:26Z</time>
      </trkpt>
      <trkpt lat="38.160154" lon="-0.831276">
        <ele>27.241</ele>
        <time>2021-05-05T10:56:27Z</time>
      </trkpt>
      <trkpt lat="38.160204" lon="-0.831205">
        <ele>26.998</ele>
        <time>2021-05-05T10:56:29Z</time>
      </trkpt>
      <trkpt lat="38.160238" lon="-0.831164">
        <ele>26.573</ele>
        <time>2021-05-05T10:56:30Z</time>
      </trkpt>
      <trkpt lat="38.160297" lon="-0.831094">
        <ele>26.634</ele>
        <time>2021-05-05T10:56:32Z</time>
      </trkpt>
      <trkpt lat="38.160347" lon="-0.831048">
        <ele>26.655</ele>
        <time>2021-05-05T10:56:34Z</time>
      </trkpt>
      <trkpt lat="38.160409" lon="-0.830999">
        <ele>26.710</ele>
        <time>2021-05-05T10:56:35Z</time>
      </trkpt>
      <trkpt lat="38.160458" lon="-0.830993">
        <ele>27.108</ele>
        <time>2021-05-05T10:56:37Z</time>
      </trkpt>
      <trkpt lat="38.160523" lon="-0.831007">
        <ele>27.190</ele>
        <time>2021-05-05T10:56:38Z</time>
      </trkpt>
      <trkpt lat="38.160565" lon="-0.831028">
        <ele>27.485</ele>
        <time>2021-05-05T10:56:39Z</time>
      </trkpt>
      <trkpt lat="38.160628" lon="-0.831068">
        <ele>27.785</ele>
        <time>2021-05-05T10:56:41Z</time>
      </trkpt>
      <trkpt lat="38.160670" lon="-0.831104">
        <ele>27.898</ele>
        <time>2021-05-05T10:56:42Z</time>
      </trkpt>
      <trkpt lat="38.160737" lon="-0.831189">
        <ele>28.118</ele>
        <time>2021-05-05T10:56:45Z</time>
      </trkpt>
      <trkpt lat="38.160779" lon="-0.831245">
        <ele>28.360</ele>
        <time>2021-05-05T10:56:46Z</time>
      </trkpt>
      <trkpt lat="38.160804" lon="-0.831295">
        <ele>28.617</ele>
        <time>2021-05-05T10:56:47Z</time>
      </trkpt>
      <trkpt lat="38.160839" lon="-0.831344">
        <ele>29.022</ele>
        <time>2021-05-05T10:56:48Z</time>
      </trkpt>
      <trkpt lat="38.160872" lon="-0.831383">
        <ele>29.045</ele>
        <time>2021-05-05T10:56:50Z</time>
      </trkpt>
      <trkpt lat="38.160930" lon="-0.831433">
        <ele>28.947</ele>
        <time>2021-05-05T10:56:51Z</time>
      </trkpt>
      <trkpt lat="38.160978" lon="-0.831454">
        <ele>29.111</ele>
        <time>2021-05-05T10:56:52Z</time>
      </trkpt>
      <trkpt lat="38.161048" lon="-0.831457">
        <ele>29.308</ele>
        <time>2021-05-05T10:56:54Z</time>
      </trkpt>
      <trkpt lat="38.161108" lon="-0.831431">
        <ele>29.371</ele>
        <time>2021-05-05T10:56:56Z</time>
      </trkpt>
      <trkpt lat="38.161189" lon="-0.831392">
        <ele>29.386</ele>
        <time>2021-05-05T10:56:58Z</time>
      </trkpt>
      <trkpt lat="38.161248" lon="-0.831365">
        <ele>29.316</ele>
        <time>2021-05-05T10:56:59Z</time>
      </trkpt>
      <trkpt lat="38.161303" lon="-0.831340">
        <ele>29.289</ele>
        <time>2021-05-05T10:57:01Z</time>
      </trkpt>
      <trkpt lat="38.161359" lon="-0.831306">
        <ele>29.029</ele>
        <time>2021-05-05T10:57:02Z</time>
      </trkpt>
      <trkpt lat="38.161406" lon="-0.831280">
        <ele>29.011</ele>
        <time>2021-05-05T10:57:03Z</time>
      </trkpt>
      <trkpt lat="38.161461" lon="-0.831264">
        <ele>28.988</ele>
        <time>2021-05-05T10:57:04Z</time>
      </trkpt>
      <trkpt lat="38.161504" lon="-0.831246">
        <ele>29.023</ele>
        <time>2021-05-05T10:57:06Z</time>
      </trkpt>
      <trkpt lat="38.161579" lon="-0.831213">
        <ele>28.858</ele>
        <time>2021-05-05T10:57:08Z</time>
      </trkpt>
      <trkpt lat="38.161637" lon="-0.831175">
        <ele>28.552</ele>
        <time>2021-05-05T10:57:09Z</time>
      </trkpt>
      <trkpt lat="38.161704" lon="-0.831146">
        <ele>28.417</ele>
        <time>2021-05-05T10:57:11Z</time>
      </trkpt>
      <trkpt lat="38.161787" lon="-0.831116">
        <ele>28.408</ele>
        <time>2021-05-05T10:57:12Z</time>
      </trkpt>
      <trkpt lat="38.161876" lon="-0.831080">
        <ele>27.912</ele>
        <time>2021-05-05T10:57:15Z</time>
      </trkpt>
      <trkpt lat="38.161968" lon="-0.831035">
        <ele>27.877</ele>
        <time>2021-05-05T10:57:17Z</time>
      </trkpt>
      <trkpt lat="38.162028" lon="-0.831061">
        <ele>27.637</ele>
        <time>2021-05-05T10:57:18Z</time>
      </trkpt>
      <trkpt lat="38.162134" lon="-0.830966">
        <ele>27.520</ele>
        <time>2021-05-05T10:57:21Z</time>
      </trkpt>
      <trkpt lat="38.162207" lon="-0.830930">
        <ele>27.460</ele>
        <time>2021-05-05T10:57:23Z</time>
      </trkpt>
      <trkpt lat="38.162282" lon="-0.830895">
        <ele>27.542</ele>
        <time>2021-05-05T10:57:25Z</time>
      </trkpt>
      <trkpt lat="38.162364" lon="-0.830868">
        <ele>27.349</ele>
        <time>2021-05-05T10:57:26Z</time>
      </trkpt>
      <trkpt lat="38.162421" lon="-0.830843">
        <ele>27.344</ele>
        <time>2021-05-05T10:57:28Z</time>
      </trkpt>
      <trkpt lat="38.162477" lon="-0.830817">
        <ele>27.247</ele>
        <time>2021-05-05T10:57:29Z</time>
      </trkpt>
      <trkpt lat="38.162529" lon="-0.830790">
        <ele>27.129</ele>
        <time>2021-05-05T10:57:31Z</time>
      </trkpt>
      <trkpt lat="38.162643" lon="-0.830740">
        <ele>27.021</ele>
        <time>2021-05-05T10:57:33Z</time>
      </trkpt>
      <trkpt lat="38.162692" lon="-0.830718">
        <ele>26.708</ele>
        <time>2021-05-05T10:57:34Z</time>
      </trkpt>
      <trkpt lat="38.162736" lon="-0.830703">
        <ele>26.931</ele>
        <time>2021-05-05T10:57:35Z</time>
      </trkpt>
      <trkpt lat="38.162808" lon="-0.830672">
        <ele>27.146</ele>
        <time>2021-05-05T10:57:37Z</time>
      </trkpt>
      <trkpt lat="38.162874" lon="-0.830665">
        <ele>27.166</ele>
        <time>2021-05-05T10:57:38Z</time>
      </trkpt>
      <trkpt lat="38.162913" lon="-0.830699">
        <ele>27.289</ele>
        <time>2021-05-05T10:57:40Z</time>
      </trkpt>
      <trkpt lat="38.162919" lon="-0.830779">
        <ele>27.339</ele>
        <time>2021-05-05T10:57:41Z</time>
      </trkpt>
      <trkpt lat="38.162911" lon="-0.830854">
        <ele>27.451</ele>
        <time>2021-05-05T10:57:43Z</time>
      </trkpt>
      <trkpt lat="38.162897" lon="-0.830915">
        <ele>27.478</ele>
        <time>2021-05-05T10:57:44Z</time>
      </trkpt>
      <trkpt lat="38.162885" lon="-0.830977">
        <ele>27.353</ele>
        <time>2021-05-05T10:57:45Z</time>
      </trkpt>
      <trkpt lat="38.162867" lon="-0.831045">
        <ele>27.278</ele>
        <time>2021-05-05T10:57:46Z</time>
      </trkpt>
      <trkpt lat="38.162853" lon="-0.831103">
        <ele>27.133</ele>
        <time>2021-05-05T10:57:48Z</time>
      </trkpt>
      <trkpt lat="38.162833" lon="-0.831195">
        <ele>26.826</ele>
        <time>2021-05-05T10:57:49Z</time>
      </trkpt>
      <trkpt lat="38.162819" lon="-0.831256">
        <ele>26.708</ele>
        <time>2021-05-05T10:57:50Z</time>
      </trkpt>
      <trkpt lat="38.162795" lon="-0.831327">
        <ele>26.824</ele>
        <time>2021-05-05T10:57:52Z</time>
      </trkpt>
      <trkpt lat="38.162771" lon="-0.831380">
        <ele>27.039</ele>
        <time>2021-05-05T10:57:53Z</time>
      </trkpt>
      <trkpt lat="38.162747" lon="-0.831432">
        <ele>27.039</ele>
        <time>2021-05-05T10:57:54Z</time>
      </trkpt>
      <trkpt lat="38.162722" lon="-0.831492">
        <ele>27.132</ele>
        <time>2021-05-05T10:57:55Z</time>
      </trkpt>
      <trkpt lat="38.162702" lon="-0.831547">
        <ele>27.182</ele>
        <time>2021-05-05T10:57:57Z</time>
      </trkpt>
      <trkpt lat="38.162673" lon="-0.831622">
        <ele>27.124</ele>
        <time>2021-05-05T10:57:58Z</time>
      </trkpt>
      <trkpt lat="38.162650" lon="-0.831675">
        <ele>27.321</ele>
        <time>2021-05-05T10:57:59Z</time>
      </trkpt>
      <trkpt lat="38.162609" lon="-0.831761">
        <ele>27.026</ele>
        <time>2021-05-05T10:58:01Z</time>
      </trkpt>
      <trkpt lat="38.162586" lon="-0.831816">
        <ele>27.077</ele>
        <time>2021-05-05T10:58:02Z</time>
      </trkpt>
      <trkpt lat="38.162544" lon="-0.831905">
        <ele>27.161</ele>
        <time>2021-05-05T10:58:04Z</time>
      </trkpt>
      <trkpt lat="38.162520" lon="-0.831956">
        <ele>26.927</ele>
        <time>2021-05-05T10:58:05Z</time>
      </trkpt>
      <trkpt lat="38.162484" lon="-0.832044">
        <ele>26.608</ele>
        <time>2021-05-05T10:58:07Z</time>
      </trkpt>
      <trkpt lat="38.162459" lon="-0.832106">
        <ele>26.764</ele>
        <time>2021-05-05T10:58:09Z</time>
      </trkpt>
      <trkpt lat="38.162422" lon="-0.832186">
        <ele>26.879</ele>
        <time>2021-05-05T10:58:10Z</time>
      </trkpt>
      <trkpt lat="38.162398" lon="-0.832246">
        <ele>26.759</ele>
        <time>2021-05-05T10:58:12Z</time>
      </trkpt>
      <trkpt lat="38.162367" lon="-0.832306">
        <ele>26.732</ele>
        <time>2021-05-05T10:58:13Z</time>
      </trkpt>
      <trkpt lat="38.162335" lon="-0.832375">
        <ele>26.552</ele>
        <time>2021-05-05T10:58:15Z</time>
      </trkpt>
      <trkpt lat="38.162307" lon="-0.832443">
        <ele>26.344</ele>
        <time>2021-05-05T10:58:16Z</time>
      </trkpt>
      <trkpt lat="38.162280" lon="-0.832504">
        <ele>26.071</ele>
        <time>2021-05-05T10:58:17Z</time>
      </trkpt>
      <trkpt lat="38.162252" lon="-0.832574">
        <ele>25.586</ele>
        <time>2021-05-05T10:58:19Z</time>
      </trkpt>
      <trkpt lat="38.162228" lon="-0.832623">
        <ele>25.292</ele>
        <time>2021-05-05T10:58:20Z</time>
      </trkpt>
      <trkpt lat="38.162198" lon="-0.832682">
        <ele>25.073</ele>
        <time>2021-05-05T10:58:21Z</time>
      </trkpt>
      <trkpt lat="38.162177" lon="-0.832734">
        <ele>24.920</ele>
        <time>2021-05-05T10:58:23Z</time>
      </trkpt>
      <trkpt lat="38.162153" lon="-0.832799">
        <ele>24.808</ele>
        <time>2021-05-05T10:58:24Z</time>
      </trkpt>
      <trkpt lat="38.162132" lon="-0.832857">
        <ele>24.876</ele>
        <time>2021-05-05T10:58:25Z</time>
      </trkpt>
      <trkpt lat="38.162119" lon="-0.832923">
        <ele>24.851</ele>
        <time>2021-05-05T10:58:27Z</time>
      </trkpt>
      <trkpt lat="38.162109" lon="-0.833003">
        <ele>24.731</ele>
        <time>2021-05-05T10:58:28Z</time>
      </trkpt>
      <trkpt lat="38.162113" lon="-0.833062">
        <ele>24.944</ele>
        <time>2021-05-05T10:58:30Z</time>
      </trkpt>
      <trkpt lat="38.162118" lon="-0.833132">
        <ele>24.814</ele>
        <time>2021-05-05T10:58:31Z</time>
      </trkpt>
      <trkpt lat="38.162117" lon="-0.833206">
        <ele>25.096</ele>
        <time>2021-05-05T10:58:33Z</time>
      </trkpt>
      <trkpt lat="38.162128" lon="-0.833287">
        <ele>26.153</ele>
        <time>2021-05-05T10:58:34Z</time>
      </trkpt>
      <trkpt lat="38.162136" lon="-0.833359">
        <ele>26.768</ele>
        <time>2021-05-05T10:58:36Z</time>
      </trkpt>
      <trkpt lat="38.162154" lon="-0.833462">
        <ele>26.766</ele>
        <time>2021-05-05T10:58:38Z</time>
      </trkpt>
      <trkpt lat="38.162177" lon="-0.833564">
        <ele>26.729</ele>
        <time>2021-05-05T10:58:39Z</time>
      </trkpt>
      <trkpt lat="38.162191" lon="-0.833637">
        <ele>26.421</ele>
        <time>2021-05-05T10:58:41Z</time>
      </trkpt>
      <trkpt lat="38.162196" lon="-0.833711">
        <ele>26.708</ele>
        <time>2021-05-05T10:58:43Z</time>
      </trkpt>
      <trkpt lat="38.162206" lon="-0.833775">
        <ele>27.063</ele>
        <time>2021-05-05T10:58:44Z</time>
      </trkpt>
      <trkpt lat="38.162223" lon="-0.833841">
        <ele>27.278</ele>
        <time>2021-05-05T10:58:46Z</time>
      </trkpt>
      <trkpt lat="38.162273" lon="-0.833899">
        <ele>27.328</ele>
        <time>2021-05-05T10:58:48Z</time>
      </trkpt>
      <trkpt lat="38.162335" lon="-0.833886">
        <ele>27.541</ele>
        <time>2021-05-05T10:58:50Z</time>
      </trkpt>
      <trkpt lat="38.162390" lon="-0.833854">
        <ele>27.441</ele>
        <time>2021-05-05T10:58:52Z</time>
      </trkpt>
      <trkpt lat="38.162448" lon="-0.833813">
        <ele>27.513</ele>
        <time>2021-05-05T10:58:54Z</time>
      </trkpt>
      <trkpt lat="38.162511" lon="-0.833763">
        <ele>27.010</ele>
        <time>2021-05-05T10:58:56Z</time>
      </trkpt>
      <trkpt lat="38.162564" lon="-0.833719">
        <ele>26.585</ele>
        <time>2021-05-05T10:58:57Z</time>
      </trkpt>
      <trkpt lat="38.162601" lon="-0.833685">
        <ele>26.476</ele>
        <time>2021-05-05T10:58:58Z</time>
      </trkpt>
      <trkpt lat="38.162657" lon="-0.833629">
        <ele>26.390</ele>
        <time>2021-05-05T10:59:00Z</time>
      </trkpt>
      <trkpt lat="38.162697" lon="-0.833591">
        <ele>26.219</ele>
        <time>2021-05-05T10:59:01Z</time>
      </trkpt>
      <trkpt lat="38.162752" lon="-0.833534">
        <ele>26.008</ele>
        <time>2021-05-05T10:59:03Z</time>
      </trkpt>
      <trkpt lat="38.162786" lon="-0.833494">
        <ele>26.024</ele>
        <time>2021-05-05T10:59:04Z</time>
      </trkpt>
      <trkpt lat="38.162838" lon="-0.833430">
        <ele>26.289</ele>
        <time>2021-05-05T10:59:06Z</time>
      </trkpt>
      <trkpt lat="38.162885" lon="-0.833365">
        <ele>26.219</ele>
        <time>2021-05-05T10:59:08Z</time>
      </trkpt>
      <trkpt lat="38.162924" lon="-0.833318">
        <ele>26.322</ele>
        <time>2021-05-05T10:59:10Z</time>
      </trkpt>
      <trkpt lat="38.162960" lon="-0.833273">
        <ele>26.092</ele>
        <time>2021-05-05T10:59:11Z</time>
      </trkpt>
      <trkpt lat="38.163002" lon="-0.833218">
        <ele>25.954</ele>
        <time>2021-05-05T10:59:13Z</time>
      </trkpt>
      <trkpt lat="38.163032" lon="-0.833173">
        <ele>27.111</ele>
        <time>2021-05-05T10:59:14Z</time>
      </trkpt>
      <trkpt lat="38.163062" lon="-0.833127">
        <ele>27.416</ele>
        <time>2021-05-05T10:59:15Z</time>
      </trkpt>
      <trkpt lat="38.163096" lon="-0.833072">
        <ele>27.268</ele>
        <time>2021-05-05T10:59:16Z</time>
      </trkpt>
      <trkpt lat="38.163144" lon="-0.832996">
        <ele>26.342</ele>
        <time>2021-05-05T10:59:18Z</time>
      </trkpt>
      <trkpt lat="38.163175" lon="-0.832953">
        <ele>25.826</ele>
        <time>2021-05-05T10:59:19Z</time>
      </trkpt>
      <trkpt lat="38.163221" lon="-0.832887">
        <ele>25.408</ele>
        <time>2021-05-05T10:59:21Z</time>
      </trkpt>
      <trkpt lat="38.163256" lon="-0.832831">
        <ele>25.053</ele>
        <time>2021-05-05T10:59:22Z</time>
      </trkpt>
      <trkpt lat="38.163289" lon="-0.832779">
        <ele>24.878</ele>
        <time>2021-05-05T10:59:24Z</time>
      </trkpt>
      <trkpt lat="38.163333" lon="-0.832721">
        <ele>25.018</ele>
        <time>2021-05-05T10:59:25Z</time>
      </trkpt>
      <trkpt lat="38.163376" lon="-0.832643">
        <ele>24.871</ele>
        <time>2021-05-05T10:59:27Z</time>
      </trkpt>
      <trkpt lat="38.163410" lon="-0.832586">
        <ele>24.961</ele>
        <time>2021-05-05T10:59:28Z</time>
      </trkpt>
      <trkpt lat="38.163447" lon="-0.832531">
        <ele>24.573</ele>
        <time>2021-05-05T10:59:30Z</time>
      </trkpt>
      <trkpt lat="38.163488" lon="-0.832479">
        <ele>24.550</ele>
        <time>2021-05-05T10:59:31Z</time>
      </trkpt>
      <trkpt lat="38.163544" lon="-0.832414">
        <ele>24.385</ele>
        <time>2021-05-05T10:59:33Z</time>
      </trkpt>
      <trkpt lat="38.163581" lon="-0.832365">
        <ele>24.335</ele>
        <time>2021-05-05T10:59:35Z</time>
      </trkpt>
      <trkpt lat="38.163636" lon="-0.832295">
        <ele>24.686</ele>
        <time>2021-05-05T10:59:36Z</time>
      </trkpt>
      <trkpt lat="38.163660" lon="-0.832239">
        <ele>24.614</ele>
        <time>2021-05-05T10:59:38Z</time>
      </trkpt>
      <trkpt lat="38.163694" lon="-0.832161">
        <ele>24.608</ele>
        <time>2021-05-05T10:59:39Z</time>
      </trkpt>
      <trkpt lat="38.163752" lon="-0.832083">
        <ele>24.730</ele>
        <time>2021-05-05T10:59:41Z</time>
      </trkpt>
      <trkpt lat="38.163811" lon="-0.832067">
        <ele>23.945</ele>
        <time>2021-05-05T10:59:43Z</time>
      </trkpt>
      <trkpt lat="38.163862" lon="-0.832074">
        <ele>22.575</ele>
        <time>2021-05-05T10:59:45Z</time>
      </trkpt>
      <trkpt lat="38.163915" lon="-0.832127">
        <ele>21.818</ele>
        <time>2021-05-05T10:59:46Z</time>
      </trkpt>
      <trkpt lat="38.163965" lon="-0.832157">
        <ele>21.048</ele>
        <time>2021-05-05T10:59:47Z</time>
      </trkpt>
      <trkpt lat="38.164021" lon="-0.832133">
        <ele>20.480</ele>
        <time>2021-05-05T10:59:49Z</time>
      </trkpt>
      <trkpt lat="38.164046" lon="-0.832076">
        <ele>20.067</ele>
        <time>2021-05-05T10:59:50Z</time>
      </trkpt>
      <trkpt lat="38.164060" lon="-0.832008">
        <ele>19.922</ele>
        <time>2021-05-05T10:59:52Z</time>
      </trkpt>
      <trkpt lat="38.164087" lon="-0.831919">
        <ele>19.717</ele>
        <time>2021-05-05T10:59:53Z</time>
      </trkpt>
      <trkpt lat="38.164115" lon="-0.831825">
        <ele>20.087</ele>
        <time>2021-05-05T10:59:55Z</time>
      </trkpt>
      <trkpt lat="38.164151" lon="-0.831714">
        <ele>20.115</ele>
        <time>2021-05-05T10:59:57Z</time>
      </trkpt>
      <trkpt lat="38.164189" lon="-0.831614">
        <ele>20.308</ele>
        <time>2021-05-05T10:59:59Z</time>
      </trkpt>
      <trkpt lat="38.164221" lon="-0.831522">
        <ele>20.718</ele>
        <time>2021-05-05T11:00:01Z</time>
      </trkpt>
      <trkpt lat="38.164243" lon="-0.831461">
        <ele>20.583</ele>
        <time>2021-05-05T11:00:02Z</time>
      </trkpt>
      <trkpt lat="38.164270" lon="-0.831404">
        <ele>20.683</ele>
        <time>2021-05-05T11:00:04Z</time>
      </trkpt>
      <trkpt lat="38.164290" lon="-0.831326">
        <ele>20.766</ele>
        <time>2021-05-05T11:00:05Z</time>
      </trkpt>
      <trkpt lat="38.164321" lon="-0.831241">
        <ele>21.696</ele>
        <time>2021-05-05T11:00:07Z</time>
      </trkpt>
      <trkpt lat="38.164357" lon="-0.831130">
        <ele>21.618</ele>
        <time>2021-05-05T11:00:09Z</time>
      </trkpt>
      <trkpt lat="38.164397" lon="-0.831031">
        <ele>21.885</ele>
        <time>2021-05-05T11:00:11Z</time>
      </trkpt>
      <trkpt lat="38.164416" lon="-0.830977">
        <ele>21.620</ele>
        <time>2021-05-05T11:00:12Z</time>
      </trkpt>
      <trkpt lat="38.164460" lon="-0.830917">
        <ele>21.233</ele>
        <time>2021-05-05T11:00:13Z</time>
      </trkpt>
      <trkpt lat="38.164481" lon="-0.830852">
        <ele>21.223</ele>
        <time>2021-05-05T11:00:14Z</time>
      </trkpt>
      <trkpt lat="38.164491" lon="-0.830788">
        <ele>21.315</ele>
        <time>2021-05-05T11:00:16Z</time>
      </trkpt>
      <trkpt lat="38.164518" lon="-0.830684">
        <ele>21.508</ele>
        <time>2021-05-05T11:00:18Z</time>
      </trkpt>
      <trkpt lat="38.164562" lon="-0.830616">
        <ele>21.730</ele>
        <time>2021-05-05T11:00:19Z</time>
      </trkpt>
      <trkpt lat="38.164586" lon="-0.830501">
        <ele>21.945</ele>
        <time>2021-05-05T11:00:21Z</time>
      </trkpt>
      <trkpt lat="38.164569" lon="-0.830447">
        <ele>21.785</ele>
        <time>2021-05-05T11:00:22Z</time>
      </trkpt>
      <trkpt lat="38.164611" lon="-0.830337">
        <ele>21.788</ele>
        <time>2021-05-05T11:00:24Z</time>
      </trkpt>
      <trkpt lat="38.164621" lon="-0.830252">
        <ele>21.958</ele>
        <time>2021-05-05T11:00:26Z</time>
      </trkpt>
      <trkpt lat="38.164635" lon="-0.830194">
        <ele>21.690</ele>
        <time>2021-05-05T11:00:27Z</time>
      </trkpt>
      <trkpt lat="38.164693" lon="-0.830077">
        <ele>21.427</ele>
        <time>2021-05-05T11:00:29Z</time>
      </trkpt>
      <trkpt lat="38.164727" lon="-0.829978">
        <ele>21.342</ele>
        <time>2021-05-05T11:00:30Z</time>
      </trkpt>
      <trkpt lat="38.164759" lon="-0.829897">
        <ele>21.599</ele>
        <time>2021-05-05T11:00:32Z</time>
      </trkpt>
      <trkpt lat="38.164778" lon="-0.829839">
        <ele>21.707</ele>
        <time>2021-05-05T11:00:33Z</time>
      </trkpt>
      <trkpt lat="38.164813" lon="-0.829730">
        <ele>22.127</ele>
        <time>2021-05-05T11:00:35Z</time>
      </trkpt>
      <trkpt lat="38.164849" lon="-0.829630">
        <ele>22.208</ele>
        <time>2021-05-05T11:00:37Z</time>
      </trkpt>
      <trkpt lat="38.164874" lon="-0.829569">
        <ele>22.066</ele>
        <time>2021-05-05T11:00:38Z</time>
      </trkpt>
      <trkpt lat="38.164903" lon="-0.829494">
        <ele>22.351</ele>
        <time>2021-05-05T11:00:40Z</time>
      </trkpt>
      <trkpt lat="38.164945" lon="-0.829416">
        <ele>22.351</ele>
        <time>2021-05-05T11:00:42Z</time>
      </trkpt>
      <trkpt lat="38.164973" lon="-0.829357">
        <ele>22.024</ele>
        <time>2021-05-05T11:00:43Z</time>
      </trkpt>
      <trkpt lat="38.165001" lon="-0.829300">
        <ele>21.874</ele>
        <time>2021-05-05T11:00:44Z</time>
      </trkpt>
      <trkpt lat="38.165047" lon="-0.829216">
        <ele>21.786</ele>
        <time>2021-05-05T11:00:46Z</time>
      </trkpt>
      <trkpt lat="38.165076" lon="-0.829168">
        <ele>22.063</ele>
        <time>2021-05-05T11:00:47Z</time>
      </trkpt>
      <trkpt lat="38.165127" lon="-0.829074">
        <ele>22.278</ele>
        <time>2021-05-05T11:00:49Z</time>
      </trkpt>
      <trkpt lat="38.165184" lon="-0.828971">
        <ele>22.521</ele>
        <time>2021-05-05T11:00:51Z</time>
      </trkpt>
      <trkpt lat="38.165228" lon="-0.828894">
        <ele>22.741</ele>
        <time>2021-05-05T11:00:52Z</time>
      </trkpt>
      <trkpt lat="38.165266" lon="-0.828829">
        <ele>22.805</ele>
        <time>2021-05-05T11:00:54Z</time>
      </trkpt>
      <trkpt lat="38.165323" lon="-0.828739">
        <ele>22.808</ele>
        <time>2021-05-05T11:00:56Z</time>
      </trkpt>
      <trkpt lat="38.165382" lon="-0.828641">
        <ele>23.299</ele>
        <time>2021-05-05T11:00:58Z</time>
      </trkpt>
      <trkpt lat="38.165443" lon="-0.828546">
        <ele>23.544</ele>
        <time>2021-05-05T11:01:00Z</time>
      </trkpt>
      <trkpt lat="38.165473" lon="-0.828495">
        <ele>23.514</ele>
        <time>2021-05-05T11:01:01Z</time>
      </trkpt>
      <trkpt lat="38.165504" lon="-0.828442">
        <ele>23.627</ele>
        <time>2021-05-05T11:01:02Z</time>
      </trkpt>
      <trkpt lat="38.165532" lon="-0.828385">
        <ele>23.597</ele>
        <time>2021-05-05T11:01:03Z</time>
      </trkpt>
      <trkpt lat="38.165594" lon="-0.828260">
        <ele>23.619</ele>
        <time>2021-05-05T11:01:05Z</time>
      </trkpt>
      <trkpt lat="38.165652" lon="-0.828133">
        <ele>23.766</ele>
        <time>2021-05-05T11:01:07Z</time>
      </trkpt>
      <trkpt lat="38.165713" lon="-0.828013">
        <ele>24.061</ele>
        <time>2021-05-05T11:01:09Z</time>
      </trkpt>
      <trkpt lat="38.165779" lon="-0.827890">
        <ele>24.263</ele>
        <time>2021-05-05T11:01:11Z</time>
      </trkpt>
      <trkpt lat="38.165808" lon="-0.827831">
        <ele>24.144</ele>
        <time>2021-05-05T11:01:12Z</time>
      </trkpt>
      <trkpt lat="38.165839" lon="-0.827775">
        <ele>24.118</ele>
        <time>2021-05-05T11:01:13Z</time>
      </trkpt>
      <trkpt lat="38.165905" lon="-0.827662">
        <ele>24.108</ele>
        <time>2021-05-05T11:01:15Z</time>
      </trkpt>
      <trkpt lat="38.165969" lon="-0.827554">
        <ele>24.113</ele>
        <time>2021-05-05T11:01:17Z</time>
      </trkpt>
      <trkpt lat="38.166026" lon="-0.827444">
        <ele>24.328</ele>
        <time>2021-05-05T11:01:19Z</time>
      </trkpt>
      <trkpt lat="38.166084" lon="-0.827330">
        <ele>24.588</ele>
        <time>2021-05-05T11:01:21Z</time>
      </trkpt>
      <trkpt lat="38.166140" lon="-0.827220">
        <ele>24.511</ele>
        <time>2021-05-05T11:01:23Z</time>
      </trkpt>
      <trkpt lat="38.166197" lon="-0.827110">
        <ele>24.941</ele>
        <time>2021-05-05T11:01:25Z</time>
      </trkpt>
      <trkpt lat="38.166225" lon="-0.827054">
        <ele>24.823</ele>
        <time>2021-05-05T11:01:26Z</time>
      </trkpt>
      <trkpt lat="38.166252" lon="-0.826997">
        <ele>24.650</ele>
        <time>2021-05-05T11:01:27Z</time>
      </trkpt>
      <trkpt lat="38.166299" lon="-0.826892">
        <ele>24.485</ele>
        <time>2021-05-05T11:01:29Z</time>
      </trkpt>
      <trkpt lat="38.166346" lon="-0.826793">
        <ele>24.041</ele>
        <time>2021-05-05T11:01:31Z</time>
      </trkpt>
      <trkpt lat="38.166369" lon="-0.826740">
        <ele>23.881</ele>
        <time>2021-05-05T11:01:32Z</time>
      </trkpt>
      <trkpt lat="38.166395" lon="-0.826686">
        <ele>23.809</ele>
        <time>2021-05-05T11:01:33Z</time>
      </trkpt>
      <trkpt lat="38.166448" lon="-0.826583">
        <ele>23.908</ele>
        <time>2021-05-05T11:01:35Z</time>
      </trkpt>
      <trkpt lat="38.166472" lon="-0.826533">
        <ele>24.591</ele>
        <time>2021-05-05T11:01:36Z</time>
      </trkpt>
      <trkpt lat="38.166514" lon="-0.826453">
        <ele>25.036</ele>
        <time>2021-05-05T11:01:38Z</time>
      </trkpt>
      <trkpt lat="38.166573" lon="-0.826359">
        <ele>25.086</ele>
        <time>2021-05-05T11:01:40Z</time>
      </trkpt>
      <trkpt lat="38.166635" lon="-0.826283">
        <ele>24.819</ele>
        <time>2021-05-05T11:01:42Z</time>
      </trkpt>
      <trkpt lat="38.166693" lon="-0.826228">
        <ele>24.199</ele>
        <time>2021-05-05T11:01:43Z</time>
      </trkpt>
      <trkpt lat="38.166783" lon="-0.826154">
        <ele>23.571</ele>
        <time>2021-05-05T11:01:46Z</time>
      </trkpt>
      <trkpt lat="38.166814" lon="-0.826109">
        <ele>23.758</ele>
        <time>2021-05-05T11:01:47Z</time>
      </trkpt>
      <trkpt lat="38.166867" lon="-0.826014">
        <ele>23.423</ele>
        <time>2021-05-05T11:01:49Z</time>
      </trkpt>
      <trkpt lat="38.166894" lon="-0.825966">
        <ele>23.528</ele>
        <time>2021-05-05T11:01:50Z</time>
      </trkpt>
      <trkpt lat="38.166920" lon="-0.825913">
        <ele>23.489</ele>
        <time>2021-05-05T11:01:51Z</time>
      </trkpt>
      <trkpt lat="38.166974" lon="-0.825811">
        <ele>23.717</ele>
        <time>2021-05-05T11:01:53Z</time>
      </trkpt>
      <trkpt lat="38.167022" lon="-0.825713">
        <ele>23.808</ele>
        <time>2021-05-05T11:01:55Z</time>
      </trkpt>
      <trkpt lat="38.167048" lon="-0.825663">
        <ele>23.629</ele>
        <time>2021-05-05T11:01:56Z</time>
      </trkpt>
      <trkpt lat="38.167076" lon="-0.825617">
        <ele>23.744</ele>
        <time>2021-05-05T11:01:57Z</time>
      </trkpt>
      <trkpt lat="38.167128" lon="-0.825521">
        <ele>23.584</ele>
        <time>2021-05-05T11:01:59Z</time>
      </trkpt>
      <trkpt lat="38.167184" lon="-0.825430">
        <ele>23.997</ele>
        <time>2021-05-05T11:02:01Z</time>
      </trkpt>
      <trkpt lat="38.167216" lon="-0.825385">
        <ele>24.147</ele>
        <time>2021-05-05T11:02:02Z</time>
      </trkpt>
      <trkpt lat="38.167278" lon="-0.825291">
        <ele>23.859</ele>
        <time>2021-05-05T11:02:04Z</time>
      </trkpt>
      <trkpt lat="38.167306" lon="-0.825240">
        <ele>23.446</ele>
        <time>2021-05-05T11:02:05Z</time>
      </trkpt>
      <trkpt lat="38.167334" lon="-0.825187">
        <ele>23.141</ele>
        <time>2021-05-05T11:02:06Z</time>
      </trkpt>
      <trkpt lat="38.167390" lon="-0.825085">
        <ele>22.525</ele>
        <time>2021-05-05T11:02:08Z</time>
      </trkpt>
      <trkpt lat="38.167418" lon="-0.825030">
        <ele>22.226</ele>
        <time>2021-05-05T11:02:09Z</time>
      </trkpt>
      <trkpt lat="38.167478" lon="-0.824922">
        <ele>22.408</ele>
        <time>2021-05-05T11:02:11Z</time>
      </trkpt>
      <trkpt lat="38.167507" lon="-0.824868">
        <ele>22.208</ele>
        <time>2021-05-05T11:02:12Z</time>
      </trkpt>
      <trkpt lat="38.167536" lon="-0.824816">
        <ele>22.489</ele>
        <time>2021-05-05T11:02:13Z</time>
      </trkpt>
      <trkpt lat="38.167595" lon="-0.824711">
        <ele>22.644</ele>
        <time>2021-05-05T11:02:15Z</time>
      </trkpt>
      <trkpt lat="38.167653" lon="-0.824610">
        <ele>22.594</ele>
        <time>2021-05-05T11:02:17Z</time>
      </trkpt>
      <trkpt lat="38.167710" lon="-0.824501">
        <ele>22.577</ele>
        <time>2021-05-05T11:02:19Z</time>
      </trkpt>
      <trkpt lat="38.167774" lon="-0.824399">
        <ele>22.387</ele>
        <time>2021-05-05T11:02:21Z</time>
      </trkpt>
      <trkpt lat="38.167832" lon="-0.824298">
        <ele>22.119</ele>
        <time>2021-05-05T11:02:23Z</time>
      </trkpt>
      <trkpt lat="38.167859" lon="-0.824246">
        <ele>22.236</ele>
        <time>2021-05-05T11:02:24Z</time>
      </trkpt>
      <trkpt lat="38.167915" lon="-0.824142">
        <ele>22.151</ele>
        <time>2021-05-05T11:02:26Z</time>
      </trkpt>
      <trkpt lat="38.167944" lon="-0.824089">
        <ele>22.016</ele>
        <time>2021-05-05T11:02:27Z</time>
      </trkpt>
      <trkpt lat="38.168000" lon="-0.823985">
        <ele>21.776</ele>
        <time>2021-05-05T11:02:29Z</time>
      </trkpt>
      <trkpt lat="38.168059" lon="-0.823881">
        <ele>21.913</ele>
        <time>2021-05-05T11:02:31Z</time>
      </trkpt>
      <trkpt lat="38.168112" lon="-0.823779">
        <ele>21.908</ele>
        <time>2021-05-05T11:02:33Z</time>
      </trkpt>
      <trkpt lat="38.168161" lon="-0.823682">
        <ele>22.058</ele>
        <time>2021-05-05T11:02:35Z</time>
      </trkpt>
      <trkpt lat="38.168206" lon="-0.823590">
        <ele>21.643</ele>
        <time>2021-05-05T11:02:37Z</time>
      </trkpt>
      <trkpt lat="38.168262" lon="-0.823481">
        <ele>21.253</ele>
        <time>2021-05-05T11:02:39Z</time>
      </trkpt>
      <trkpt lat="38.168292" lon="-0.823426">
        <ele>20.966</ele>
        <time>2021-05-05T11:02:40Z</time>
      </trkpt>
      <trkpt lat="38.168322" lon="-0.823374">
        <ele>20.456</ele>
        <time>2021-05-05T11:02:41Z</time>
      </trkpt>
      <trkpt lat="38.168351" lon="-0.823326">
        <ele>20.178</ele>
        <time>2021-05-05T11:02:42Z</time>
      </trkpt>
      <trkpt lat="38.168379" lon="-0.823275">
        <ele>20.015</ele>
        <time>2021-05-05T11:02:43Z</time>
      </trkpt>
      <trkpt lat="38.168410" lon="-0.823224">
        <ele>19.440</ele>
        <time>2021-05-05T11:02:44Z</time>
      </trkpt>
      <trkpt lat="38.168465" lon="-0.823116">
        <ele>19.642</ele>
        <time>2021-05-05T11:02:46Z</time>
      </trkpt>
      <trkpt lat="38.168493" lon="-0.823065">
        <ele>19.522</ele>
        <time>2021-05-05T11:02:47Z</time>
      </trkpt>
      <trkpt lat="38.168518" lon="-0.823017">
        <ele>19.714</ele>
        <time>2021-05-05T11:02:48Z</time>
      </trkpt>
      <trkpt lat="38.168575" lon="-0.822915">
        <ele>19.608</ele>
        <time>2021-05-05T11:02:50Z</time>
      </trkpt>
      <trkpt lat="38.168632" lon="-0.822809">
        <ele>19.351</ele>
        <time>2021-05-05T11:02:52Z</time>
      </trkpt>
      <trkpt lat="38.168684" lon="-0.822700">
        <ele>19.486</ele>
        <time>2021-05-05T11:02:54Z</time>
      </trkpt>
      <trkpt lat="38.168712" lon="-0.822643">
        <ele>19.256</ele>
        <time>2021-05-05T11:02:55Z</time>
      </trkpt>
      <trkpt lat="38.168741" lon="-0.822587">
        <ele>19.699</ele>
        <time>2021-05-05T11:02:56Z</time>
      </trkpt>
      <trkpt lat="38.168802" lon="-0.822480">
        <ele>18.949</ele>
        <time>2021-05-05T11:02:58Z</time>
      </trkpt>
      <trkpt lat="38.168832" lon="-0.822427">
        <ele>19.081</ele>
        <time>2021-05-05T11:02:59Z</time>
      </trkpt>
      <trkpt lat="38.168899" lon="-0.822316">
        <ele>19.548</ele>
        <time>2021-05-05T11:03:01Z</time>
      </trkpt>
      <trkpt lat="38.168932" lon="-0.822261">
        <ele>20.273</ele>
        <time>2021-05-05T11:03:02Z</time>
      </trkpt>
      <trkpt lat="38.168993" lon="-0.822152">
        <ele>20.227</ele>
        <time>2021-05-05T11:03:04Z</time>
      </trkpt>
      <trkpt lat="38.169025" lon="-0.822097">
        <ele>20.468</ele>
        <time>2021-05-05T11:03:05Z</time>
      </trkpt>
      <trkpt lat="38.169082" lon="-0.821976">
        <ele>21.014</ele>
        <time>2021-05-05T11:03:07Z</time>
      </trkpt>
      <trkpt lat="38.169111" lon="-0.821920">
        <ele>21.208</ele>
        <time>2021-05-05T11:03:08Z</time>
      </trkpt>
      <trkpt lat="38.169162" lon="-0.821824">
        <ele>20.779</ele>
        <time>2021-05-05T11:03:10Z</time>
      </trkpt>
      <trkpt lat="38.169188" lon="-0.821774">
        <ele>20.114</ele>
        <time>2021-05-05T11:03:11Z</time>
      </trkpt>
      <trkpt lat="38.169217" lon="-0.821726">
        <ele>20.764</ele>
        <time>2021-05-05T11:03:12Z</time>
      </trkpt>
      <trkpt lat="38.169279" lon="-0.821621">
        <ele>21.037</ele>
        <time>2021-05-05T11:03:14Z</time>
      </trkpt>
      <trkpt lat="38.169309" lon="-0.821568">
        <ele>21.477</ele>
        <time>2021-05-05T11:03:15Z</time>
      </trkpt>
      <trkpt lat="38.169337" lon="-0.821509">
        <ele>21.649</ele>
        <time>2021-05-05T11:03:16Z</time>
      </trkpt>
      <trkpt lat="38.169367" lon="-0.821455">
        <ele>21.126</ele>
        <time>2021-05-05T11:03:17Z</time>
      </trkpt>
      <trkpt lat="38.169426" lon="-0.821340">
        <ele>21.461</ele>
        <time>2021-05-05T11:03:19Z</time>
      </trkpt>
      <trkpt lat="38.169458" lon="-0.821282">
        <ele>21.652</ele>
        <time>2021-05-05T11:03:20Z</time>
      </trkpt>
      <trkpt lat="38.169486" lon="-0.821229">
        <ele>21.653</ele>
        <time>2021-05-05T11:03:21Z</time>
      </trkpt>
      <trkpt lat="38.169532" lon="-0.821130">
        <ele>21.408</ele>
        <time>2021-05-05T11:03:23Z</time>
      </trkpt>
      <trkpt lat="38.169554" lon="-0.821079">
        <ele>21.208</ele>
        <time>2021-05-05T11:03:24Z</time>
      </trkpt>
      <trkpt lat="38.169604" lon="-0.820972">
        <ele>20.422</ele>
        <time>2021-05-05T11:03:26Z</time>
      </trkpt>
      <trkpt lat="38.169631" lon="-0.820925">
        <ele>20.317</ele>
        <time>2021-05-05T11:03:27Z</time>
      </trkpt>
      <trkpt lat="38.169667" lon="-0.820861">
        <ele>19.887</ele>
        <time>2021-05-05T11:03:29Z</time>
      </trkpt>
      <trkpt lat="38.169694" lon="-0.820814">
        <ele>20.040</ele>
        <time>2021-05-05T11:03:30Z</time>
      </trkpt>
      <trkpt lat="38.169738" lon="-0.820724">
        <ele>19.710</ele>
        <time>2021-05-05T11:03:33Z</time>
      </trkpt>
      <trkpt lat="38.169801" lon="-0.820611">
        <ele>19.742</ele>
        <time>2021-05-05T11:03:35Z</time>
      </trkpt>
      <trkpt lat="38.169905" lon="-0.820579">
        <ele>19.959</ele>
        <time>2021-05-05T11:03:37Z</time>
      </trkpt>
      <trkpt lat="38.169971" lon="-0.820575">
        <ele>20.044</ele>
        <time>2021-05-05T11:03:39Z</time>
      </trkpt>
      <trkpt lat="38.170050" lon="-0.820591">
        <ele>20.311</ele>
        <time>2021-05-05T11:03:40Z</time>
      </trkpt>
      <trkpt lat="38.170102" lon="-0.820605">
        <ele>20.221</ele>
        <time>2021-05-05T11:03:41Z</time>
      </trkpt>
      <trkpt lat="38.170203" lon="-0.820631">
        <ele>20.503</ele>
        <time>2021-05-05T11:03:43Z</time>
      </trkpt>
      <trkpt lat="38.170323" lon="-0.820661">
        <ele>20.808</ele>
        <time>2021-05-05T11:03:46Z</time>
      </trkpt>
      <trkpt lat="38.170373" lon="-0.820674">
        <ele>20.798</ele>
        <time>2021-05-05T11:03:47Z</time>
      </trkpt>
      <trkpt lat="38.170467" lon="-0.820702">
        <ele>20.223</ele>
        <time>2021-05-05T11:03:49Z</time>
      </trkpt>
      <trkpt lat="38.170515" lon="-0.820716">
        <ele>19.933</ele>
        <time>2021-05-05T11:03:50Z</time>
      </trkpt>
      <trkpt lat="38.170563" lon="-0.820730">
        <ele>19.546</ele>
        <time>2021-05-05T11:03:51Z</time>
      </trkpt>
      <trkpt lat="38.170612" lon="-0.820747">
        <ele>19.156</ele>
        <time>2021-05-05T11:03:52Z</time>
      </trkpt>
      <trkpt lat="38.170719" lon="-0.820785">
        <ele>19.228</ele>
        <time>2021-05-05T11:03:54Z</time>
      </trkpt>
      <trkpt lat="38.170777" lon="-0.820803">
        <ele>19.235</ele>
        <time>2021-05-05T11:03:55Z</time>
      </trkpt>
      <trkpt lat="38.170893" lon="-0.820841">
        <ele>18.490</ele>
        <time>2021-05-05T11:03:57Z</time>
      </trkpt>
      <trkpt lat="38.171006" lon="-0.820876">
        <ele>18.023</ele>
        <time>2021-05-05T11:03:59Z</time>
      </trkpt>
      <trkpt lat="38.171062" lon="-0.820892">
        <ele>18.083</ele>
        <time>2021-05-05T11:04:00Z</time>
      </trkpt>
      <trkpt lat="38.171171" lon="-0.820912">
        <ele>17.911</ele>
        <time>2021-05-05T11:04:02Z</time>
      </trkpt>
      <trkpt lat="38.171278" lon="-0.820942">
        <ele>18.208</ele>
        <time>2021-05-05T11:04:04Z</time>
      </trkpt>
      <trkpt lat="38.171332" lon="-0.820958">
        <ele>18.239</ele>
        <time>2021-05-05T11:04:05Z</time>
      </trkpt>
      <trkpt lat="38.171439" lon="-0.820990">
        <ele>18.314</ele>
        <time>2021-05-05T11:04:07Z</time>
      </trkpt>
      <trkpt lat="38.171493" lon="-0.821008">
        <ele>18.264</ele>
        <time>2021-05-05T11:04:08Z</time>
      </trkpt>
      <trkpt lat="38.171547" lon="-0.821023">
        <ele>18.377</ele>
        <time>2021-05-05T11:04:09Z</time>
      </trkpt>
      <trkpt lat="38.171652" lon="-0.821052">
        <ele>18.137</ele>
        <time>2021-05-05T11:04:11Z</time>
      </trkpt>
      <trkpt lat="38.171702" lon="-0.821062">
        <ele>17.769</ele>
        <time>2021-05-05T11:04:12Z</time>
      </trkpt>
      <trkpt lat="38.171795" lon="-0.821087">
        <ele>17.596</ele>
        <time>2021-05-05T11:04:14Z</time>
      </trkpt>
      <trkpt lat="38.171890" lon="-0.821114">
        <ele>17.291</ele>
        <time>2021-05-05T11:04:16Z</time>
      </trkpt>
      <trkpt lat="38.171985" lon="-0.821145">
        <ele>17.092</ele>
        <time>2021-05-05T11:04:18Z</time>
      </trkpt>
      <trkpt lat="38.172075" lon="-0.821172">
        <ele>17.073</ele>
        <time>2021-05-05T11:04:20Z</time>
      </trkpt>
      <trkpt lat="38.172167" lon="-0.821202">
        <ele>16.520</ele>
        <time>2021-05-05T11:04:22Z</time>
      </trkpt>
      <trkpt lat="38.172261" lon="-0.821234">
        <ele>16.308</ele>
        <time>2021-05-05T11:04:24Z</time>
      </trkpt>
      <trkpt lat="38.172363" lon="-0.821269">
        <ele>17.126</ele>
        <time>2021-05-05T11:04:26Z</time>
      </trkpt>
      <trkpt lat="38.172466" lon="-0.821301">
        <ele>17.261</ele>
        <time>2021-05-05T11:04:28Z</time>
      </trkpt>
      <trkpt lat="38.172569" lon="-0.821331">
        <ele>17.851</ele>
        <time>2021-05-05T11:04:30Z</time>
      </trkpt>
      <trkpt lat="38.172670" lon="-0.821369">
        <ele>18.254</ele>
        <time>2021-05-05T11:04:32Z</time>
      </trkpt>
      <trkpt lat="38.172721" lon="-0.821387">
        <ele>17.954</ele>
        <time>2021-05-05T11:04:33Z</time>
      </trkpt>
      <trkpt lat="38.172826" lon="-0.821415">
        <ele>18.016</ele>
        <time>2021-05-05T11:04:35Z</time>
      </trkpt>
      <trkpt lat="38.172881" lon="-0.821431">
        <ele>18.563</ele>
        <time>2021-05-05T11:04:36Z</time>
      </trkpt>
      <trkpt lat="38.172935" lon="-0.821446">
        <ele>18.898</ele>
        <time>2021-05-05T11:04:37Z</time>
      </trkpt>
      <trkpt lat="38.173041" lon="-0.821471">
        <ele>18.789</ele>
        <time>2021-05-05T11:04:39Z</time>
      </trkpt>
      <trkpt lat="38.173146" lon="-0.821503">
        <ele>19.206</ele>
        <time>2021-05-05T11:04:41Z</time>
      </trkpt>
      <trkpt lat="38.173200" lon="-0.821516">
        <ele>19.426</ele>
        <time>2021-05-05T11:04:42Z</time>
      </trkpt>
      <trkpt lat="38.173311" lon="-0.821548">
        <ele>19.808</ele>
        <time>2021-05-05T11:04:44Z</time>
      </trkpt>
      <trkpt lat="38.173366" lon="-0.821563">
        <ele>20.395</ele>
        <time>2021-05-05T11:04:45Z</time>
      </trkpt>
      <trkpt lat="38.173474" lon="-0.821599">
        <ele>21.010</ele>
        <time>2021-05-05T11:04:47Z</time>
      </trkpt>
      <trkpt lat="38.173578" lon="-0.821636">
        <ele>21.060</ele>
        <time>2021-05-05T11:04:49Z</time>
      </trkpt>
      <trkpt lat="38.173682" lon="-0.821668">
        <ele>20.943</ele>
        <time>2021-05-05T11:04:51Z</time>
      </trkpt>
      <trkpt lat="38.173737" lon="-0.821687">
        <ele>20.943</ele>
        <time>2021-05-05T11:04:52Z</time>
      </trkpt>
      <trkpt lat="38.173792" lon="-0.821706">
        <ele>20.615</ele>
        <time>2021-05-05T11:04:53Z</time>
      </trkpt>
      <trkpt lat="38.173846" lon="-0.821727">
        <ele>20.562</ele>
        <time>2021-05-05T11:04:54Z</time>
      </trkpt>
      <trkpt lat="38.173954" lon="-0.821761">
        <ele>20.557</ele>
        <time>2021-05-05T11:04:56Z</time>
      </trkpt>
      <trkpt lat="38.174008" lon="-0.821778">
        <ele>19.917</ele>
        <time>2021-05-05T11:04:57Z</time>
      </trkpt>
      <trkpt lat="38.174062" lon="-0.821796">
        <ele>19.687</ele>
        <time>2021-05-05T11:04:58Z</time>
      </trkpt>
      <trkpt lat="38.174117" lon="-0.821816">
        <ele>19.315</ele>
        <time>2021-05-05T11:04:59Z</time>
      </trkpt>
      <trkpt lat="38.174232" lon="-0.821846">
        <ele>18.808</ele>
        <time>2021-05-05T11:05:01Z</time>
      </trkpt>
      <trkpt lat="38.174286" lon="-0.821865">
        <ele>18.658</ele>
        <time>2021-05-05T11:05:02Z</time>
      </trkpt>
      <trkpt lat="38.174390" lon="-0.821896">
        <ele>17.813</ele>
        <time>2021-05-05T11:05:04Z</time>
      </trkpt>
      <trkpt lat="38.174494" lon="-0.821924">
        <ele>17.923</ele>
        <time>2021-05-05T11:05:06Z</time>
      </trkpt>
      <trkpt lat="38.174596" lon="-0.821956">
        <ele>17.996</ele>
        <time>2021-05-05T11:05:08Z</time>
      </trkpt>
      <trkpt lat="38.174647" lon="-0.821974">
        <ele>18.246</ele>
        <time>2021-05-05T11:05:09Z</time>
      </trkpt>
      <trkpt lat="38.174744" lon="-0.822008">
        <ele>18.338</ele>
        <time>2021-05-05T11:05:11Z</time>
      </trkpt>
      <trkpt lat="38.174835" lon="-0.822044">
        <ele>18.625</ele>
        <time>2021-05-05T11:05:13Z</time>
      </trkpt>
      <trkpt lat="38.174882" lon="-0.822061">
        <ele>18.550</ele>
        <time>2021-05-05T11:05:14Z</time>
      </trkpt>
      <trkpt lat="38.174985" lon="-0.822096">
        <ele>18.868</ele>
        <time>2021-05-05T11:05:16Z</time>
      </trkpt>
      <trkpt lat="38.175084" lon="-0.822128">
        <ele>19.142</ele>
        <time>2021-05-05T11:05:18Z</time>
      </trkpt>
      <trkpt lat="38.175137" lon="-0.822140">
        <ele>19.226</ele>
        <time>2021-05-05T11:05:19Z</time>
      </trkpt>
      <trkpt lat="38.175235" lon="-0.822164">
        <ele>19.208</ele>
        <time>2021-05-05T11:05:21Z</time>
      </trkpt>
      <trkpt lat="38.175281" lon="-0.822175">
        <ele>18.933</ele>
        <time>2021-05-05T11:05:22Z</time>
      </trkpt>
      <trkpt lat="38.175333" lon="-0.822185">
        <ele>18.928</ele>
        <time>2021-05-05T11:05:23Z</time>
      </trkpt>
      <trkpt lat="38.175386" lon="-0.822196">
        <ele>19.268</ele>
        <time>2021-05-05T11:05:24Z</time>
      </trkpt>
      <trkpt lat="38.175438" lon="-0.822207">
        <ele>19.671</ele>
        <time>2021-05-05T11:05:25Z</time>
      </trkpt>
      <trkpt lat="38.175492" lon="-0.822217">
        <ele>19.661</ele>
        <time>2021-05-05T11:05:26Z</time>
      </trkpt>
      <trkpt lat="38.175595" lon="-0.822245">
        <ele>19.873</ele>
        <time>2021-05-05T11:05:28Z</time>
      </trkpt>
      <trkpt lat="38.175646" lon="-0.822260">
        <ele>19.960</ele>
        <time>2021-05-05T11:05:29Z</time>
      </trkpt>
      <trkpt lat="38.175754" lon="-0.822291">
        <ele>20.125</ele>
        <time>2021-05-05T11:05:31Z</time>
      </trkpt>
      <trkpt lat="38.175802" lon="-0.822307">
        <ele>20.134</ele>
        <time>2021-05-05T11:05:32Z</time>
      </trkpt>
      <trkpt lat="38.175903" lon="-0.822338">
        <ele>19.855</ele>
        <time>2021-05-05T11:05:34Z</time>
      </trkpt>
      <trkpt lat="38.175953" lon="-0.822353">
        <ele>19.410</ele>
        <time>2021-05-05T11:05:35Z</time>
      </trkpt>
      <trkpt lat="38.176053" lon="-0.822386">
        <ele>19.108</ele>
        <time>2021-05-05T11:05:37Z</time>
      </trkpt>
      <trkpt lat="38.176147" lon="-0.822418">
        <ele>19.110</ele>
        <time>2021-05-05T11:05:39Z</time>
      </trkpt>
      <trkpt lat="38.176238" lon="-0.822444">
        <ele>19.185</ele>
        <time>2021-05-05T11:05:41Z</time>
      </trkpt>
      <trkpt lat="38.176283" lon="-0.822456">
        <ele>19.465</ele>
        <time>2021-05-05T11:05:42Z</time>
      </trkpt>
      <trkpt lat="38.176382" lon="-0.822487">
        <ele>19.598</ele>
        <time>2021-05-05T11:05:44Z</time>
      </trkpt>
      <trkpt lat="38.176484" lon="-0.822519">
        <ele>19.378</ele>
        <time>2021-05-05T11:05:46Z</time>
      </trkpt>
      <trkpt lat="38.176534" lon="-0.822532">
        <ele>18.970</ele>
        <time>2021-05-05T11:05:47Z</time>
      </trkpt>
      <trkpt lat="38.176637" lon="-0.822559">
        <ele>18.827</ele>
        <time>2021-05-05T11:05:49Z</time>
      </trkpt>
      <trkpt lat="38.176689" lon="-0.822573">
        <ele>18.532</ele>
        <time>2021-05-05T11:05:50Z</time>
      </trkpt>
      <trkpt lat="38.176739" lon="-0.822586">
        <ele>18.769</ele>
        <time>2021-05-05T11:05:51Z</time>
      </trkpt>
      <trkpt lat="38.176788" lon="-0.822604">
        <ele>18.604</ele>
        <time>2021-05-05T11:05:52Z</time>
      </trkpt>
      <trkpt lat="38.176880" lon="-0.822638">
        <ele>18.124</ele>
        <time>2021-05-05T11:05:54Z</time>
      </trkpt>
      <trkpt lat="38.176974" lon="-0.822669">
        <ele>17.508</ele>
        <time>2021-05-05T11:05:56Z</time>
      </trkpt>
      <trkpt lat="38.177025" lon="-0.822682">
        <ele>17.063</ele>
        <time>2021-05-05T11:05:57Z</time>
      </trkpt>
      <trkpt lat="38.177128" lon="-0.822712">
        <ele>16.918</ele>
        <time>2021-05-05T11:05:59Z</time>
      </trkpt>
      <trkpt lat="38.177179" lon="-0.822729">
        <ele>16.928</ele>
        <time>2021-05-05T11:06:00Z</time>
      </trkpt>
      <trkpt lat="38.177283" lon="-0.822761">
        <ele>17.311</ele>
        <time>2021-05-05T11:06:02Z</time>
      </trkpt>
      <trkpt lat="38.177390" lon="-0.822790">
        <ele>17.331</ele>
        <time>2021-05-05T11:06:04Z</time>
      </trkpt>
      <trkpt lat="38.177492" lon="-0.822822">
        <ele>17.463</ele>
        <time>2021-05-05T11:06:06Z</time>
      </trkpt>
      <trkpt lat="38.177588" lon="-0.822853">
        <ele>17.930</ele>
        <time>2021-05-05T11:06:08Z</time>
      </trkpt>
      <trkpt lat="38.177690" lon="-0.822870">
        <ele>18.155</ele>
        <time>2021-05-05T11:06:10Z</time>
      </trkpt>
      <trkpt lat="38.177741" lon="-0.822883">
        <ele>18.535</ele>
        <time>2021-05-05T11:06:11Z</time>
      </trkpt>
      <trkpt lat="38.177829" lon="-0.822911">
        <ele>18.786</ele>
        <time>2021-05-05T11:06:13Z</time>
      </trkpt>
      <trkpt lat="38.177874" lon="-0.822928">
        <ele>19.214</ele>
        <time>2021-05-05T11:06:14Z</time>
      </trkpt>
      <trkpt lat="38.177919" lon="-0.822944">
        <ele>19.408</ele>
        <time>2021-05-05T11:06:15Z</time>
      </trkpt>
      <trkpt lat="38.178005" lon="-0.822977">
        <ele>19.370</ele>
        <time>2021-05-05T11:06:17Z</time>
      </trkpt>
      <trkpt lat="38.178076" lon="-0.823008">
        <ele>19.485</ele>
        <time>2021-05-05T11:06:19Z</time>
      </trkpt>
      <trkpt lat="38.178153" lon="-0.823038">
        <ele>19.515</ele>
        <time>2021-05-05T11:06:21Z</time>
      </trkpt>
      <trkpt lat="38.178218" lon="-0.823049">
        <ele>19.268</ele>
        <time>2021-05-05T11:06:23Z</time>
      </trkpt>
      <trkpt lat="38.178287" lon="-0.823045">
        <ele>19.098</ele>
        <time>2021-05-05T11:06:25Z</time>
      </trkpt>
      <trkpt lat="38.178331" lon="-0.822986">
        <ele>18.910</ele>
        <time>2021-05-05T11:06:26Z</time>
      </trkpt>
      <trkpt lat="38.178350" lon="-0.822932">
        <ele>19.367</ele>
        <time>2021-05-05T11:06:27Z</time>
      </trkpt>
      <trkpt lat="38.178372" lon="-0.822851">
        <ele>19.742</ele>
        <time>2021-05-05T11:06:29Z</time>
      </trkpt>
      <trkpt lat="38.178398" lon="-0.822795">
        <ele>20.397</ele>
        <time>2021-05-05T11:06:31Z</time>
      </trkpt>
      <trkpt lat="38.178432" lon="-0.822742">
        <ele>21.123</ele>
        <time>2021-05-05T11:06:32Z</time>
      </trkpt>
      <trkpt lat="38.178469" lon="-0.822699">
        <ele>21.325</ele>
        <time>2021-05-05T11:06:33Z</time>
      </trkpt>
      <trkpt lat="38.178513" lon="-0.822645">
        <ele>21.208</ele>
        <time>2021-05-05T11:06:34Z</time>
      </trkpt>
      <trkpt lat="38.178579" lon="-0.822582">
        <ele>21.096</ele>
        <time>2021-05-05T11:06:36Z</time>
      </trkpt>
      <trkpt lat="38.178615" lon="-0.822535">
        <ele>20.581</ele>
        <time>2021-05-05T11:06:37Z</time>
      </trkpt>
      <trkpt lat="38.178650" lon="-0.822487">
        <ele>20.611</ele>
        <time>2021-05-05T11:06:38Z</time>
      </trkpt>
      <trkpt lat="38.178681" lon="-0.822438">
        <ele>20.564</ele>
        <time>2021-05-05T11:06:39Z</time>
      </trkpt>
      <trkpt lat="38.178746" lon="-0.822348">
        <ele>20.674</ele>
        <time>2021-05-05T11:06:41Z</time>
      </trkpt>
      <trkpt lat="38.178775" lon="-0.822298">
        <ele>20.496</ele>
        <time>2021-05-05T11:06:42Z</time>
      </trkpt>
      <trkpt lat="38.178831" lon="-0.822202">
        <ele>20.163</ele>
        <time>2021-05-05T11:06:44Z</time>
      </trkpt>
      <trkpt lat="38.178866" lon="-0.822156">
        <ele>20.018</ele>
        <time>2021-05-05T11:06:45Z</time>
      </trkpt>
      <trkpt lat="38.178926" lon="-0.822063">
        <ele>20.014</ele>
        <time>2021-05-05T11:06:47Z</time>
      </trkpt>
      <trkpt lat="38.178979" lon="-0.821970">
        <ele>19.854</ele>
        <time>2021-05-05T11:06:49Z</time>
      </trkpt>
      <trkpt lat="38.179008" lon="-0.821925">
        <ele>19.409</ele>
        <time>2021-05-05T11:06:50Z</time>
      </trkpt>
      <trkpt lat="38.179040" lon="-0.821882">
        <ele>19.408</ele>
        <time>2021-05-05T11:06:51Z</time>
      </trkpt>
      <trkpt lat="38.179105" lon="-0.821801">
        <ele>19.128</ele>
        <time>2021-05-05T11:06:53Z</time>
      </trkpt>
      <trkpt lat="38.179164" lon="-0.821719">
        <ele>19.213</ele>
        <time>2021-05-05T11:06:55Z</time>
      </trkpt>
      <trkpt lat="38.179198" lon="-0.821677">
        <ele>19.253</ele>
        <time>2021-05-05T11:06:56Z</time>
      </trkpt>
      <trkpt lat="38.179258" lon="-0.821592">
        <ele>18.946</ele>
        <time>2021-05-05T11:06:58Z</time>
      </trkpt>
      <trkpt lat="38.179291" lon="-0.821549">
        <ele>19.036</ele>
        <time>2021-05-05T11:06:59Z</time>
      </trkpt>
      <trkpt lat="38.179339" lon="-0.821467">
        <ele>18.658</ele>
        <time>2021-05-05T11:07:01Z</time>
      </trkpt>
      <trkpt lat="38.179392" lon="-0.821388">
        <ele>18.335</ele>
        <time>2021-05-05T11:07:03Z</time>
      </trkpt>
      <trkpt lat="38.179438" lon="-0.821311">
        <ele>18.160</ele>
        <time>2021-05-05T11:07:05Z</time>
      </trkpt>
      <trkpt lat="38.179500" lon="-0.821249">
        <ele>17.794</ele>
        <time>2021-05-05T11:07:07Z</time>
      </trkpt>
      <trkpt lat="38.179516" lon="-0.821169">
        <ele>17.957</ele>
        <time>2021-05-05T11:07:09Z</time>
      </trkpt>
      <trkpt lat="38.179592" lon="-0.821095">
        <ele>18.322</ele>
        <time>2021-05-05T11:07:11Z</time>
      </trkpt>
      <trkpt lat="38.179652" lon="-0.821026">
        <ele>18.808</ele>
        <time>2021-05-05T11:07:12Z</time>
      </trkpt>
      <trkpt lat="38.179695" lon="-0.820967">
        <ele>19.346</ele>
        <time>2021-05-05T11:07:13Z</time>
      </trkpt>
      <trkpt lat="38.179748" lon="-0.820895">
        <ele>19.741</ele>
        <time>2021-05-05T11:07:15Z</time>
      </trkpt>
      <trkpt lat="38.179782" lon="-0.820855">
        <ele>20.041</ele>
        <time>2021-05-05T11:07:16Z</time>
      </trkpt>
      <trkpt lat="38.179818" lon="-0.820810">
        <ele>20.484</ele>
        <time>2021-05-05T11:07:17Z</time>
      </trkpt>
      <trkpt lat="38.179853" lon="-0.820761">
        <ele>20.394</ele>
        <time>2021-05-05T11:07:19Z</time>
      </trkpt>
      <trkpt lat="38.179898" lon="-0.820695">
        <ele>19.996</ele>
        <time>2021-05-05T11:07:20Z</time>
      </trkpt>
      <trkpt lat="38.179930" lon="-0.820646">
        <ele>19.883</ele>
        <time>2021-05-05T11:07:21Z</time>
      </trkpt>
      <trkpt lat="38.179965" lon="-0.820595">
        <ele>19.548</ele>
        <time>2021-05-05T11:07:23Z</time>
      </trkpt>
      <trkpt lat="38.180019" lon="-0.820529">
        <ele>19.734</ele>
        <time>2021-05-05T11:07:24Z</time>
      </trkpt>
      <trkpt lat="38.180059" lon="-0.820483">
        <ele>19.555</ele>
        <time>2021-05-05T11:07:26Z</time>
      </trkpt>
      <trkpt lat="38.180119" lon="-0.820397">
        <ele>19.310</ele>
        <time>2021-05-05T11:07:28Z</time>
      </trkpt>
      <trkpt lat="38.180173" lon="-0.820318">
        <ele>19.308</ele>
        <time>2021-05-05T11:07:30Z</time>
      </trkpt>
      <trkpt lat="38.180232" lon="-0.820236">
        <ele>19.380</ele>
        <time>2021-05-05T11:07:32Z</time>
      </trkpt>
      <trkpt lat="38.180285" lon="-0.820169">
        <ele>19.055</ele>
        <time>2021-05-05T11:07:33Z</time>
      </trkpt>
      <trkpt lat="38.180353" lon="-0.820075">
        <ele>19.235</ele>
        <time>2021-05-05T11:07:36Z</time>
      </trkpt>
      <trkpt lat="38.180383" lon="-0.820016">
        <ele>19.228</ele>
        <time>2021-05-05T11:07:37Z</time>
      </trkpt>
      <trkpt lat="38.180417" lon="-0.819956">
        <ele>19.418</ele>
        <time>2021-05-05T11:07:38Z</time>
      </trkpt>
      <trkpt lat="38.180464" lon="-0.819879">
        <ele>19.740</ele>
        <time>2021-05-05T11:07:40Z</time>
      </trkpt>
      <trkpt lat="38.180494" lon="-0.819830">
        <ele>19.887</ele>
        <time>2021-05-05T11:07:41Z</time>
      </trkpt>
      <trkpt lat="38.180535" lon="-0.819773">
        <ele>20.142</ele>
        <time>2021-05-05T11:07:43Z</time>
      </trkpt>
      <trkpt lat="38.180572" lon="-0.819715">
        <ele>20.328</ele>
        <time>2021-05-05T11:07:44Z</time>
      </trkpt>
      <trkpt lat="38.180621" lon="-0.819634">
        <ele>20.689</ele>
        <time>2021-05-05T11:07:46Z</time>
      </trkpt>
      <trkpt lat="38.180661" lon="-0.819582">
        <ele>20.717</ele>
        <time>2021-05-05T11:07:48Z</time>
      </trkpt>
      <trkpt lat="38.180708" lon="-0.819523">
        <ele>20.408</ele>
        <time>2021-05-05T11:07:49Z</time>
      </trkpt>
      <trkpt lat="38.180752" lon="-0.819463">
        <ele>20.369</ele>
        <time>2021-05-05T11:07:51Z</time>
      </trkpt>
      <trkpt lat="38.180794" lon="-0.819397">
        <ele>20.324</ele>
        <time>2021-05-05T11:07:52Z</time>
      </trkpt>
      <trkpt lat="38.180850" lon="-0.819315">
        <ele>20.654</ele>
        <time>2021-05-05T11:07:54Z</time>
      </trkpt>
      <trkpt lat="38.180904" lon="-0.819261">
        <ele>20.587</ele>
        <time>2021-05-05T11:07:55Z</time>
      </trkpt>
      <trkpt lat="38.180946" lon="-0.819200">
        <ele>20.957</ele>
        <time>2021-05-05T11:07:57Z</time>
      </trkpt>
      <trkpt lat="38.180985" lon="-0.819137">
        <ele>21.469</ele>
        <time>2021-05-05T11:07:58Z</time>
      </trkpt>
      <trkpt lat="38.181022" lon="-0.819088">
        <ele>21.826</ele>
        <time>2021-05-05T11:07:59Z</time>
      </trkpt>
      <trkpt lat="38.181082" lon="-0.819010">
        <ele>22.211</ele>
        <time>2021-05-05T11:08:01Z</time>
      </trkpt>
      <trkpt lat="38.181129" lon="-0.818936">
        <ele>22.551</ele>
        <time>2021-05-05T11:08:03Z</time>
      </trkpt>
      <trkpt lat="38.181163" lon="-0.818898">
        <ele>23.001</ele>
        <time>2021-05-05T11:08:05Z</time>
      </trkpt>
      <trkpt lat="38.181202" lon="-0.818844">
        <ele>23.111</ele>
        <time>2021-05-05T11:08:06Z</time>
      </trkpt>
      <trkpt lat="38.181238" lon="-0.818804">
        <ele>22.808</ele>
        <time>2021-05-05T11:08:07Z</time>
      </trkpt>
      <trkpt lat="38.181287" lon="-0.818740">
        <ele>22.552</ele>
        <time>2021-05-05T11:08:09Z</time>
      </trkpt>
      <trkpt lat="38.181317" lon="-0.818691">
        <ele>22.397</ele>
        <time>2021-05-05T11:08:11Z</time>
      </trkpt>
      <trkpt lat="38.181371" lon="-0.818617">
        <ele>21.727</ele>
        <time>2021-05-05T11:08:13Z</time>
      </trkpt>
      <trkpt lat="38.181418" lon="-0.818552">
        <ele>21.630</ele>
        <time>2021-05-05T11:08:14Z</time>
      </trkpt>
      <trkpt lat="38.181466" lon="-0.818475">
        <ele>21.120</ele>
        <time>2021-05-05T11:08:16Z</time>
      </trkpt>
      <trkpt lat="38.181505" lon="-0.818423">
        <ele>20.762</ele>
        <time>2021-05-05T11:08:17Z</time>
      </trkpt>
      <trkpt lat="38.181553" lon="-0.818343">
        <ele>20.719</ele>
        <time>2021-05-05T11:08:19Z</time>
      </trkpt>
      <trkpt lat="38.181591" lon="-0.818293">
        <ele>20.914</ele>
        <time>2021-05-05T11:08:21Z</time>
      </trkpt>
      <trkpt lat="38.181638" lon="-0.818240">
        <ele>21.224</ele>
        <time>2021-05-05T11:08:22Z</time>
      </trkpt>
      <trkpt lat="38.181670" lon="-0.818192">
        <ele>21.404</ele>
        <time>2021-05-05T11:08:24Z</time>
      </trkpt>
      <trkpt lat="38.181719" lon="-0.818108">
        <ele>21.514</ele>
        <time>2021-05-05T11:08:25Z</time>
      </trkpt>
      <trkpt lat="38.181765" lon="-0.818035">
        <ele>21.508</ele>
        <time>2021-05-05T11:08:27Z</time>
      </trkpt>
      <trkpt lat="38.181807" lon="-0.817983">
        <ele>21.789</ele>
        <time>2021-05-05T11:08:29Z</time>
      </trkpt>
      <trkpt lat="38.181841" lon="-0.817925">
        <ele>21.494</ele>
        <time>2021-05-05T11:08:30Z</time>
      </trkpt>
      <trkpt lat="38.181876" lon="-0.817860">
        <ele>21.054</ele>
        <time>2021-05-05T11:08:31Z</time>
      </trkpt>
      <trkpt lat="38.181933" lon="-0.817757">
        <ele>20.617</ele>
        <time>2021-05-05T11:08:34Z</time>
      </trkpt>
      <trkpt lat="38.181980" lon="-0.817676">
        <ele>20.747</ele>
        <time>2021-05-05T11:08:35Z</time>
      </trkpt>
      <trkpt lat="38.182042" lon="-0.817605">
        <ele>20.619</ele>
        <time>2021-05-05T11:08:37Z</time>
      </trkpt>
      <trkpt lat="38.182099" lon="-0.817566">
        <ele>20.386</ele>
        <time>2021-05-05T11:08:39Z</time>
      </trkpt>
      <trkpt lat="38.182133" lon="-0.817520">
        <ele>20.231</ele>
        <time>2021-05-05T11:08:40Z</time>
      </trkpt>
      <trkpt lat="38.182165" lon="-0.817475">
        <ele>20.473</ele>
        <time>2021-05-05T11:08:41Z</time>
      </trkpt>
      <trkpt lat="38.182228" lon="-0.817385">
        <ele>19.985</ele>
        <time>2021-05-05T11:08:43Z</time>
      </trkpt>
      <trkpt lat="38.182285" lon="-0.817349">
        <ele>20.113</ele>
        <time>2021-05-05T11:08:45Z</time>
      </trkpt>
      <trkpt lat="38.182316" lon="-0.817298">
        <ele>20.008</ele>
        <time>2021-05-05T11:08:46Z</time>
      </trkpt>
      <trkpt lat="38.182368" lon="-0.817200">
        <ele>20.564</ele>
        <time>2021-05-05T11:08:47Z</time>
      </trkpt>
      <trkpt lat="38.182401" lon="-0.817142">
        <ele>21.179</ele>
        <time>2021-05-05T11:08:48Z</time>
      </trkpt>
      <trkpt lat="38.182435" lon="-0.817068">
        <ele>21.079</ele>
        <time>2021-05-05T11:08:50Z</time>
      </trkpt>
      <trkpt lat="38.182464" lon="-0.817023">
        <ele>21.292</ele>
        <time>2021-05-05T11:08:51Z</time>
      </trkpt>
      <trkpt lat="38.182497" lon="-0.816981">
        <ele>21.422</ele>
        <time>2021-05-05T11:08:52Z</time>
      </trkpt>
      <trkpt lat="38.182531" lon="-0.816936">
        <ele>21.814</ele>
        <time>2021-05-05T11:08:53Z</time>
      </trkpt>
      <trkpt lat="38.182562" lon="-0.816889">
        <ele>22.411</ele>
        <time>2021-05-05T11:08:54Z</time>
      </trkpt>
      <trkpt lat="38.182618" lon="-0.816807">
        <ele>22.136</ele>
        <time>2021-05-05T11:08:56Z</time>
      </trkpt>
      <trkpt lat="38.182649" lon="-0.816765">
        <ele>22.258</ele>
        <time>2021-05-05T11:08:57Z</time>
      </trkpt>
      <trkpt lat="38.182701" lon="-0.816685">
        <ele>22.552</ele>
        <time>2021-05-05T11:08:59Z</time>
      </trkpt>
      <trkpt lat="38.182754" lon="-0.816613">
        <ele>23.017</ele>
        <time>2021-05-05T11:09:01Z</time>
      </trkpt>
      <trkpt lat="38.182798" lon="-0.816557">
        <ele>23.308</ele>
        <time>2021-05-05T11:09:02Z</time>
      </trkpt>
      <trkpt lat="38.182857" lon="-0.816482">
        <ele>23.142</ele>
        <time>2021-05-05T11:09:04Z</time>
      </trkpt>
      <trkpt lat="38.182889" lon="-0.816440">
        <ele>23.257</ele>
        <time>2021-05-05T11:09:05Z</time>
      </trkpt>
      <trkpt lat="38.182955" lon="-0.816349">
        <ele>23.857</ele>
        <time>2021-05-05T11:09:07Z</time>
      </trkpt>
      <trkpt lat="38.182988" lon="-0.816274">
        <ele>24.080</ele>
        <time>2021-05-05T11:09:09Z</time>
      </trkpt>
      <trkpt lat="38.183024" lon="-0.816220">
        <ele>23.230</ele>
        <time>2021-05-05T11:09:10Z</time>
      </trkpt>
      <trkpt lat="38.183057" lon="-0.816169">
        <ele>22.842</ele>
        <time>2021-05-05T11:09:11Z</time>
      </trkpt>
      <trkpt lat="38.183108" lon="-0.816099">
        <ele>22.559</ele>
        <time>2021-05-05T11:09:13Z</time>
      </trkpt>
      <trkpt lat="38.183156" lon="-0.816027">
        <ele>22.174</ele>
        <time>2021-05-05T11:09:15Z</time>
      </trkpt>
      <trkpt lat="38.183195" lon="-0.815972">
        <ele>22.023</ele>
        <time>2021-05-05T11:09:16Z</time>
      </trkpt>
      <trkpt lat="38.183233" lon="-0.815915">
        <ele>21.983</ele>
        <time>2021-05-05T11:09:18Z</time>
      </trkpt>
      <trkpt lat="38.183279" lon="-0.815849">
        <ele>21.711</ele>
        <time>2021-05-05T11:09:19Z</time>
      </trkpt>
      <trkpt lat="38.183317" lon="-0.815798">
        <ele>21.108</ele>
        <time>2021-05-05T11:09:21Z</time>
      </trkpt>
      <trkpt lat="38.183353" lon="-0.815754">
        <ele>20.879</ele>
        <time>2021-05-05T11:09:23Z</time>
      </trkpt>
      <trkpt lat="38.183394" lon="-0.815697">
        <ele>20.984</ele>
        <time>2021-05-05T11:09:24Z</time>
      </trkpt>
      <trkpt lat="38.183434" lon="-0.815642">
        <ele>20.714</ele>
        <time>2021-05-05T11:09:27Z</time>
      </trkpt>
      <trkpt lat="38.183471" lon="-0.815584">
        <ele>21.187</ele>
        <time>2021-05-05T11:09:28Z</time>
      </trkpt>
      <trkpt lat="38.183513" lon="-0.815519">
        <ele>21.217</ele>
        <time>2021-05-05T11:09:30Z</time>
      </trkpt>
      <trkpt lat="38.183553" lon="-0.815460">
        <ele>21.249</ele>
        <time>2021-05-05T11:09:32Z</time>
      </trkpt>
      <trkpt lat="38.183593" lon="-0.815401">
        <ele>21.026</ele>
        <time>2021-05-05T11:09:34Z</time>
      </trkpt>
      <trkpt lat="38.183628" lon="-0.815351">
        <ele>21.161</ele>
        <time>2021-05-05T11:09:36Z</time>
      </trkpt>
      <trkpt lat="38.183658" lon="-0.815305">
        <ele>21.119</ele>
        <time>2021-05-05T11:09:38Z</time>
      </trkpt>
      <trkpt lat="38.183705" lon="-0.815231">
        <ele>21.109</ele>
        <time>2021-05-05T11:09:41Z</time>
      </trkpt>
      <trkpt lat="38.183743" lon="-0.815179">
        <ele>21.419</ele>
        <time>2021-05-05T11:09:42Z</time>
      </trkpt>
      <trkpt lat="38.183782" lon="-0.815119">
        <ele>21.608</ele>
        <time>2021-05-05T11:09:44Z</time>
      </trkpt>
      <trkpt lat="38.183814" lon="-0.815067">
        <ele>21.958</ele>
        <time>2021-05-05T11:09:45Z</time>
      </trkpt>
      <trkpt lat="38.183846" lon="-0.815025">
        <ele>21.853</ele>
        <time>2021-05-05T11:09:47Z</time>
      </trkpt>
      <trkpt lat="38.183886" lon="-0.814976">
        <ele>21.963</ele>
        <time>2021-05-05T11:09:48Z</time>
      </trkpt>
      <trkpt lat="38.183934" lon="-0.814928">
        <ele>22.076</ele>
        <time>2021-05-05T11:09:50Z</time>
      </trkpt>
      <trkpt lat="38.183961" lon="-0.814871">
        <ele>22.046</ele>
        <time>2021-05-05T11:09:52Z</time>
      </trkpt>
      <trkpt lat="38.183991" lon="-0.814816">
        <ele>22.158</ele>
        <time>2021-05-05T11:09:54Z</time>
      </trkpt>
      <trkpt lat="38.184031" lon="-0.814768">
        <ele>21.935</ele>
        <time>2021-05-05T11:09:57Z</time>
      </trkpt>
      <trkpt lat="38.184066" lon="-0.814698">
        <ele>21.880</ele>
        <time>2021-05-05T11:09:59Z</time>
      </trkpt>
      <trkpt lat="38.184101" lon="-0.814639">
        <ele>21.918</ele>
        <time>2021-05-05T11:10:00Z</time>
      </trkpt>
      <trkpt lat="38.184142" lon="-0.814576">
        <ele>21.498</ele>
        <time>2021-05-05T11:10:02Z</time>
      </trkpt>
      <trkpt lat="38.184166" lon="-0.814528">
        <ele>21.217</ele>
        <time>2021-05-05T11:10:04Z</time>
      </trkpt>
      <trkpt lat="38.184194" lon="-0.814454">
        <ele>20.608</ele>
        <time>2021-05-05T11:10:06Z</time>
      </trkpt>
      <trkpt lat="38.184209" lon="-0.814377">
        <ele>20.148</ele>
        <time>2021-05-05T11:10:07Z</time>
      </trkpt>
      <trkpt lat="38.184228" lon="-0.814301">
        <ele>19.823</ele>
        <time>2021-05-05T11:10:09Z</time>
      </trkpt>
      <trkpt lat="38.184242" lon="-0.814213">
        <ele>19.633</ele>
        <time>2021-05-05T11:10:11Z</time>
      </trkpt>
      <trkpt lat="38.184262" lon="-0.814111">
        <ele>19.596</ele>
        <time>2021-05-05T11:10:14Z</time>
      </trkpt>
      <trkpt lat="38.184273" lon="-0.814024">
        <ele>19.686</ele>
        <time>2021-05-05T11:10:16Z</time>
      </trkpt>
      <trkpt lat="38.184282" lon="-0.813944">
        <ele>19.878</ele>
        <time>2021-05-05T11:10:17Z</time>
      </trkpt>
      <trkpt lat="38.184291" lon="-0.813886">
        <ele>19.245</ele>
        <time>2021-05-05T11:10:19Z</time>
      </trkpt>
      <trkpt lat="38.184308" lon="-0.813806">
        <ele>19.050</ele>
        <time>2021-05-05T11:10:20Z</time>
      </trkpt>
      <trkpt lat="38.184329" lon="-0.813706">
        <ele>18.679</ele>
        <time>2021-05-05T11:10:23Z</time>
      </trkpt>
      <trkpt lat="38.184344" lon="-0.813612">
        <ele>18.205</ele>
        <time>2021-05-05T11:10:25Z</time>
      </trkpt>
      <trkpt lat="38.184357" lon="-0.813524">
        <ele>18.125</ele>
        <time>2021-05-05T11:10:26Z</time>
      </trkpt>
      <trkpt lat="38.184365" lon="-0.813460">
        <ele>17.908</ele>
        <time>2021-05-05T11:10:27Z</time>
      </trkpt>
      <trkpt lat="38.184376" lon="-0.813375">
        <ele>17.634</ele>
        <time>2021-05-05T11:10:29Z</time>
      </trkpt>
      <trkpt lat="38.184384" lon="-0.813299">
        <ele>17.419</ele>
        <time>2021-05-05T11:10:31Z</time>
      </trkpt>
      <trkpt lat="38.184393" lon="-0.813212">
        <ele>17.579</ele>
        <time>2021-05-05T11:10:33Z</time>
      </trkpt>
      <trkpt lat="38.184405" lon="-0.813144">
        <ele>17.142</ele>
        <time>2021-05-05T11:10:35Z</time>
      </trkpt>
      <trkpt lat="38.184421" lon="-0.813068">
        <ele>17.142</ele>
        <time>2021-05-05T11:10:37Z</time>
      </trkpt>
      <trkpt lat="38.184437" lon="-0.812987">
        <ele>17.164</ele>
        <time>2021-05-05T11:10:40Z</time>
      </trkpt>
      <trkpt lat="38.184439" lon="-0.812923">
        <ele>17.881</ele>
        <time>2021-05-05T11:10:42Z</time>
      </trkpt>
      <trkpt lat="38.184463" lon="-0.812851">
        <ele>18.536</ele>
        <time>2021-05-05T11:10:45Z</time>
      </trkpt>
      <trkpt lat="38.184477" lon="-0.812794">
        <ele>18.782</ele>
        <time>2021-05-05T11:10:47Z</time>
      </trkpt>
      <trkpt lat="38.184488" lon="-0.812729">
        <ele>18.643</ele>
        <time>2021-05-05T11:10:49Z</time>
      </trkpt>
      <trkpt lat="38.184496" lon="-0.812628">
        <ele>18.617</ele>
        <time>2021-05-05T11:10:51Z</time>
      </trkpt>
      <trkpt lat="38.184506" lon="-0.812561">
        <ele>18.508</ele>
        <time>2021-05-05T11:10:53Z</time>
      </trkpt>
      <trkpt lat="38.184523" lon="-0.812479">
        <ele>18.745</ele>
        <time>2021-05-05T11:10:54Z</time>
      </trkpt>
      <trkpt lat="38.184546" lon="-0.812367">
        <ele>19.270</ele>
        <time>2021-05-05T11:10:57Z</time>
      </trkpt>
      <trkpt lat="38.184563" lon="-0.812292">
        <ele>19.760</ele>
        <time>2021-05-05T11:10:58Z</time>
      </trkpt>
      <trkpt lat="38.184576" lon="-0.812227">
        <ele>19.973</ele>
        <time>2021-05-05T11:10:59Z</time>
      </trkpt>
      <trkpt lat="38.184585" lon="-0.812130">
        <ele>20.283</ele>
        <time>2021-05-05T11:11:01Z</time>
      </trkpt>
      <trkpt lat="38.184596" lon="-0.812060">
        <ele>20.365</ele>
        <time>2021-05-05T11:11:03Z</time>
      </trkpt>
      <trkpt lat="38.184607" lon="-0.811982">
        <ele>20.632</ele>
        <time>2021-05-05T11:11:04Z</time>
      </trkpt>
      <trkpt lat="38.184620" lon="-0.811915">
        <ele>20.427</ele>
        <time>2021-05-05T11:11:05Z</time>
      </trkpt>
      <trkpt lat="38.184632" lon="-0.811846">
        <ele>20.599</ele>
        <time>2021-05-05T11:11:07Z</time>
      </trkpt>
      <trkpt lat="38.184660" lon="-0.811747">
        <ele>20.107</ele>
        <time>2021-05-05T11:11:08Z</time>
      </trkpt>
      <trkpt lat="38.184669" lon="-0.811688">
        <ele>20.127</ele>
        <time>2021-05-05T11:11:09Z</time>
      </trkpt>
      <trkpt lat="38.184683" lon="-0.811592">
        <ele>20.208</ele>
        <time>2021-05-05T11:11:11Z</time>
      </trkpt>
      <trkpt lat="38.184696" lon="-0.811534">
        <ele>20.396</ele>
        <time>2021-05-05T11:11:12Z</time>
      </trkpt>
      <trkpt lat="38.184716" lon="-0.811458">
        <ele>20.451</ele>
        <time>2021-05-05T11:11:14Z</time>
      </trkpt>
      <trkpt lat="38.184731" lon="-0.811376">
        <ele>20.371</ele>
        <time>2021-05-05T11:11:16Z</time>
      </trkpt>
      <trkpt lat="38.184745" lon="-0.811302">
        <ele>20.334</ele>
        <time>2021-05-05T11:11:17Z</time>
      </trkpt>
      <trkpt lat="38.184759" lon="-0.811240">
        <ele>20.624</ele>
        <time>2021-05-05T11:11:18Z</time>
      </trkpt>
      <trkpt lat="38.184773" lon="-0.811145">
        <ele>20.786</ele>
        <time>2021-05-05T11:11:20Z</time>
      </trkpt>
      <trkpt lat="38.184769" lon="-0.811082">
        <ele>20.783</ele>
        <time>2021-05-05T11:11:23Z</time>
      </trkpt>
      <trkpt lat="38.184750" lon="-0.811136">
        <ele>20.958</ele>
        <time>2021-05-05T11:12:05Z</time>
      </trkpt>
      <trkpt lat="38.184715" lon="-0.811059">
        <ele>44.235</ele>
        <time>2021-05-05T11:22:43Z</time>
      </trkpt>
      <trkpt lat="38.184721" lon="-0.810988">
        <ele>25.586</ele>
        <time>2021-05-05T11:22:47Z</time>
      </trkpt>
      <trkpt lat="38.184680" lon="-0.810935">
        <ele>20.814</ele>
        <time>2021-05-05T11:22:51Z</time>
      </trkpt>
      <trkpt lat="38.184651" lon="-0.810882">
        <ele>20.808</ele>
        <time>2021-05-05T11:22:54Z</time>
      </trkpt>
      <trkpt lat="38.184628" lon="-0.810827">
        <ele>20.880</ele>
        <time>2021-05-05T11:22:57Z</time>
      </trkpt>
      <trkpt lat="38.184616" lon="-0.810764">
        <ele>20.885</ele>
        <time>2021-05-05T11:22:59Z</time>
      </trkpt>
      <trkpt lat="38.184603" lon="-0.810680">
        <ele>20.915</ele>
        <time>2021-05-05T11:23:04Z</time>
      </trkpt>
      <trkpt lat="38.184613" lon="-0.810611">
        <ele>20.948</ele>
        <time>2021-05-05T11:23:07Z</time>
      </trkpt>
      <trkpt lat="38.184621" lon="-0.810546">
        <ele>20.958</ele>
        <time>2021-05-05T11:23:10Z</time>
      </trkpt>
      <trkpt lat="38.184641" lon="-0.810486">
        <ele>20.930</ele>
        <time>2021-05-05T11:23:13Z</time>
      </trkpt>
      <trkpt lat="38.184668" lon="-0.810436">
        <ele>20.967</ele>
        <time>2021-05-05T11:23:16Z</time>
      </trkpt>
      <trkpt lat="38.184682" lon="-0.810380">
        <ele>20.972</ele>
        <time>2021-05-05T11:23:19Z</time>
      </trkpt>
      <trkpt lat="38.184709" lon="-0.810334">
        <ele>20.941</ele>
        <time>2021-05-05T11:23:22Z</time>
      </trkpt>
      <trkpt lat="38.184707" lon="-0.810269">
        <ele>20.981</ele>
        <time>2021-05-05T11:23:25Z</time>
      </trkpt>
      <trkpt lat="38.184695" lon="-0.810207">
        <ele>20.909</ele>
        <time>2021-05-05T11:23:28Z</time>
      </trkpt>
      <trkpt lat="38.184707" lon="-0.810148">
        <ele>20.908</ele>
        <time>2021-05-05T11:23:31Z</time>
      </trkpt>
      <trkpt lat="38.184714" lon="-0.810085">
        <ele>20.941</ele>
        <time>2021-05-05T11:23:34Z</time>
      </trkpt>
      <trkpt lat="38.184732" lon="-0.810024">
        <ele>20.976</ele>
        <time>2021-05-05T11:23:37Z</time>
      </trkpt>
      <trkpt lat="38.184739" lon="-0.809962">
        <ele>21.836</ele>
        <time>2021-05-05T11:23:40Z</time>
      </trkpt>
      <trkpt lat="38.184748" lon="-0.809893">
        <ele>22.979</ele>
        <time>2021-05-05T11:23:43Z</time>
      </trkpt>
      <trkpt lat="38.184760" lon="-0.809827">
        <ele>23.569</ele>
        <time>2021-05-05T11:23:46Z</time>
      </trkpt>
      <trkpt lat="38.184782" lon="-0.809762">
        <ele>23.921</ele>
        <time>2021-05-05T11:23:49Z</time>
      </trkpt>
      <trkpt lat="38.184797" lon="-0.809692">
        <ele>24.198</ele>
        <time>2021-05-05T11:23:52Z</time>
      </trkpt>
      <trkpt lat="38.184810" lon="-0.809633">
        <ele>25.063</ele>
        <time>2021-05-05T11:23:55Z</time>
      </trkpt>
      <trkpt lat="38.184822" lon="-0.809566">
        <ele>25.853</ele>
        <time>2021-05-05T11:23:58Z</time>
      </trkpt>
      <trkpt lat="38.184836" lon="-0.809502">
        <ele>26.904</ele>
        <time>2021-05-05T11:24:01Z</time>
      </trkpt>
      <trkpt lat="38.184854" lon="-0.809440">
        <ele>27.814</ele>
        <time>2021-05-05T11:24:04Z</time>
      </trkpt>
      <trkpt lat="38.184868" lon="-0.809377">
        <ele>28.408</ele>
        <time>2021-05-05T11:24:07Z</time>
      </trkpt>
      <trkpt lat="38.184881" lon="-0.809292">
        <ele>28.752</ele>
        <time>2021-05-05T11:24:10Z</time>
      </trkpt>
      <trkpt lat="38.184892" lon="-0.809233">
        <ele>29.217</ele>
        <time>2021-05-05T11:24:12Z</time>
      </trkpt>
      <trkpt lat="38.184913" lon="-0.809180">
        <ele>29.067</ele>
        <time>2021-05-05T11:24:14Z</time>
      </trkpt>
      <trkpt lat="38.184922" lon="-0.809098">
        <ele>28.830</ele>
        <time>2021-05-05T11:24:17Z</time>
      </trkpt>
      <trkpt lat="38.184929" lon="-0.809032">
        <ele>28.890</ele>
        <time>2021-05-05T11:24:19Z</time>
      </trkpt>
      <trkpt lat="38.184944" lon="-0.808950">
        <ele>28.322</ele>
        <time>2021-05-05T11:24:21Z</time>
      </trkpt>
      <trkpt lat="38.184957" lon="-0.808861">
        <ele>27.599</ele>
        <time>2021-05-05T11:24:23Z</time>
      </trkpt>
      <trkpt lat="38.184976" lon="-0.808752">
        <ele>26.694</ele>
        <time>2021-05-05T11:24:25Z</time>
      </trkpt>
      <trkpt lat="38.185001" lon="-0.808619">
        <ele>25.937</ele>
        <time>2021-05-05T11:24:27Z</time>
      </trkpt>
      <trkpt lat="38.185016" lon="-0.808552">
        <ele>25.249</ele>
        <time>2021-05-05T11:24:28Z</time>
      </trkpt>
      <trkpt lat="38.185028" lon="-0.808479">
        <ele>24.613</ele>
        <time>2021-05-05T11:24:29Z</time>
      </trkpt>
      <trkpt lat="38.185056" lon="-0.808319">
        <ele>24.208</ele>
        <time>2021-05-05T11:24:31Z</time>
      </trkpt>
      <trkpt lat="38.185083" lon="-0.808150">
        <ele>23.250</ele>
        <time>2021-05-05T11:24:33Z</time>
      </trkpt>
      <trkpt lat="38.185113" lon="-0.807985">
        <ele>22.245</ele>
        <time>2021-05-05T11:24:35Z</time>
      </trkpt>
      <trkpt lat="38.185174" lon="-0.807808">
        <ele>20.775</ele>
        <time>2021-05-05T11:24:37Z</time>
      </trkpt>
      <trkpt lat="38.185221" lon="-0.807722">
        <ele>19.888</ele>
        <time>2021-05-05T11:24:38Z</time>
      </trkpt>
      <trkpt lat="38.185331" lon="-0.807558">
        <ele>19.178</ele>
        <time>2021-05-05T11:24:40Z</time>
      </trkpt>
      <trkpt lat="38.185384" lon="-0.807470">
        <ele>18.430</ele>
        <time>2021-05-05T11:24:41Z</time>
      </trkpt>
      <trkpt lat="38.185420" lon="-0.807370">
        <ele>17.817</ele>
        <time>2021-05-05T11:24:42Z</time>
      </trkpt>
      <trkpt lat="38.185462" lon="-0.807179">
        <ele>18.312</ele>
        <time>2021-05-05T11:24:44Z</time>
      </trkpt>
      <trkpt lat="38.185476" lon="-0.807092">
        <ele>18.231</ele>
        <time>2021-05-05T11:24:45Z</time>
      </trkpt>
      <trkpt lat="38.185500" lon="-0.806921">
        <ele>18.961</ele>
        <time>2021-05-05T11:24:47Z</time>
      </trkpt>
      <trkpt lat="38.185527" lon="-0.806755">
        <ele>19.307</ele>
        <time>2021-05-05T11:24:49Z</time>
      </trkpt>
      <trkpt lat="38.185557" lon="-0.806593">
        <ele>20.208</ele>
        <time>2021-05-05T11:24:51Z</time>
      </trkpt>
      <trkpt lat="38.185582" lon="-0.806445">
        <ele>20.450</ele>
        <time>2021-05-05T11:24:53Z</time>
      </trkpt>
      <trkpt lat="38.185598" lon="-0.806376">
        <ele>21.085</ele>
        <time>2021-05-05T11:24:54Z</time>
      </trkpt>
      <trkpt lat="38.185617" lon="-0.806234">
        <ele>20.665</ele>
        <time>2021-05-05T11:24:56Z</time>
      </trkpt>
      <trkpt lat="38.185633" lon="-0.806109">
        <ele>20.468</ele>
        <time>2021-05-05T11:24:58Z</time>
      </trkpt>
      <trkpt lat="38.185659" lon="-0.805997">
        <ele>20.488</ele>
        <time>2021-05-05T11:25:00Z</time>
      </trkpt>
      <trkpt lat="38.185680" lon="-0.805884">
        <ele>19.790</ele>
        <time>2021-05-05T11:25:02Z</time>
      </trkpt>
      <trkpt lat="38.185699" lon="-0.805773">
        <ele>19.557</ele>
        <time>2021-05-05T11:25:04Z</time>
      </trkpt>
      <trkpt lat="38.185716" lon="-0.805663">
        <ele>19.512</ele>
        <time>2021-05-05T11:25:06Z</time>
      </trkpt>
      <trkpt lat="38.185736" lon="-0.805552">
        <ele>20.056</ele>
        <time>2021-05-05T11:25:08Z</time>
      </trkpt>
      <trkpt lat="38.185746" lon="-0.805493">
        <ele>20.259</ele>
        <time>2021-05-05T11:25:09Z</time>
      </trkpt>
      <trkpt lat="38.185752" lon="-0.805434">
        <ele>20.314</ele>
        <time>2021-05-05T11:25:10Z</time>
      </trkpt>
      <trkpt lat="38.185762" lon="-0.805375">
        <ele>20.408</ele>
        <time>2021-05-05T11:25:11Z</time>
      </trkpt>
      <trkpt lat="38.185786" lon="-0.805263">
        <ele>20.632</ele>
        <time>2021-05-05T11:25:13Z</time>
      </trkpt>
      <trkpt lat="38.185799" lon="-0.805207">
        <ele>20.447</ele>
        <time>2021-05-05T11:25:14Z</time>
      </trkpt>
      <trkpt lat="38.185824" lon="-0.805092">
        <ele>20.047</ele>
        <time>2021-05-05T11:25:16Z</time>
      </trkpt>
      <trkpt lat="38.185835" lon="-0.805033">
        <ele>19.960</ele>
        <time>2021-05-05T11:25:17Z</time>
      </trkpt>
      <trkpt lat="38.185845" lon="-0.804971">
        <ele>19.720</ele>
        <time>2021-05-05T11:25:18Z</time>
      </trkpt>
      <trkpt lat="38.185863" lon="-0.804855">
        <ele>19.382</ele>
        <time>2021-05-05T11:25:20Z</time>
      </trkpt>
      <trkpt lat="38.185874" lon="-0.804799">
        <ele>19.269</ele>
        <time>2021-05-05T11:25:21Z</time>
      </trkpt>
      <trkpt lat="38.185893" lon="-0.804702">
        <ele>19.854</ele>
        <time>2021-05-05T11:25:23Z</time>
      </trkpt>
      <trkpt lat="38.185907" lon="-0.804597">
        <ele>20.216</ele>
        <time>2021-05-05T11:25:25Z</time>
      </trkpt>
      <trkpt lat="38.185922" lon="-0.804494">
        <ele>20.276</ele>
        <time>2021-05-05T11:25:27Z</time>
      </trkpt>
      <trkpt lat="38.185931" lon="-0.804431">
        <ele>20.213</ele>
        <time>2021-05-05T11:25:28Z</time>
      </trkpt>
      <trkpt lat="38.185942" lon="-0.804365">
        <ele>19.508</ele>
        <time>2021-05-05T11:25:29Z</time>
      </trkpt>
      <trkpt lat="38.185952" lon="-0.804303">
        <ele>19.378</ele>
        <time>2021-05-05T11:25:30Z</time>
      </trkpt>
      <trkpt lat="38.185970" lon="-0.804211">
        <ele>18.983</ele>
        <time>2021-05-05T11:25:32Z</time>
      </trkpt>
      <trkpt lat="38.185990" lon="-0.804101">
        <ele>19.193</ele>
        <time>2021-05-05T11:25:34Z</time>
      </trkpt>
      <trkpt lat="38.186001" lon="-0.804042">
        <ele>19.176</ele>
        <time>2021-05-05T11:25:35Z</time>
      </trkpt>
      <trkpt lat="38.186012" lon="-0.803986">
        <ele>19.226</ele>
        <time>2021-05-05T11:25:36Z</time>
      </trkpt>
      <trkpt lat="38.186023" lon="-0.803883">
        <ele>19.188</ele>
        <time>2021-05-05T11:25:38Z</time>
      </trkpt>
      <trkpt lat="38.186034" lon="-0.803777">
        <ele>18.785</ele>
        <time>2021-05-05T11:25:40Z</time>
      </trkpt>
      <trkpt lat="38.186048" lon="-0.803683">
        <ele>18.440</ele>
        <time>2021-05-05T11:25:42Z</time>
      </trkpt>
      <trkpt lat="38.186069" lon="-0.803573">
        <ele>18.394</ele>
        <time>2021-05-05T11:25:44Z</time>
      </trkpt>
      <trkpt lat="38.186090" lon="-0.803463">
        <ele>18.257</ele>
        <time>2021-05-05T11:25:46Z</time>
      </trkpt>
      <trkpt lat="38.186112" lon="-0.803355">
        <ele>18.122</ele>
        <time>2021-05-05T11:25:48Z</time>
      </trkpt>
      <trkpt lat="38.186121" lon="-0.803297">
        <ele>18.208</ele>
        <time>2021-05-05T11:25:49Z</time>
      </trkpt>
      <trkpt lat="38.186140" lon="-0.803202">
        <ele>18.136</ele>
        <time>2021-05-05T11:25:51Z</time>
      </trkpt>
      <trkpt lat="38.186162" lon="-0.803097">
        <ele>18.321</ele>
        <time>2021-05-05T11:25:53Z</time>
      </trkpt>
      <trkpt lat="38.186184" lon="-0.802987">
        <ele>18.941</ele>
        <time>2021-05-05T11:25:55Z</time>
      </trkpt>
      <trkpt lat="38.186193" lon="-0.802927">
        <ele>18.634</ele>
        <time>2021-05-05T11:25:56Z</time>
      </trkpt>
      <trkpt lat="38.186217" lon="-0.802809">
        <ele>18.144</ele>
        <time>2021-05-05T11:25:58Z</time>
      </trkpt>
      <trkpt lat="38.186247" lon="-0.802695">
        <ele>17.836</ele>
        <time>2021-05-05T11:26:00Z</time>
      </trkpt>
      <trkpt lat="38.186268" lon="-0.802596">
        <ele>17.833</ele>
        <time>2021-05-05T11:26:02Z</time>
      </trkpt>
      <trkpt lat="38.186276" lon="-0.802533">
        <ele>17.798</ele>
        <time>2021-05-05T11:26:03Z</time>
      </trkpt>
      <trkpt lat="38.186291" lon="-0.802410">
        <ele>17.895</ele>
        <time>2021-05-05T11:26:05Z</time>
      </trkpt>
      <trkpt lat="38.186305" lon="-0.802309">
        <ele>17.449</ele>
        <time>2021-05-05T11:26:07Z</time>
      </trkpt>
      <trkpt lat="38.186316" lon="-0.802251">
        <ele>17.423</ele>
        <time>2021-05-05T11:26:08Z</time>
      </trkpt>
      <trkpt lat="38.186329" lon="-0.802149">
        <ele>17.008</ele>
        <time>2021-05-05T11:26:10Z</time>
      </trkpt>
      <trkpt lat="38.186335" lon="-0.802088">
        <ele>17.076</ele>
        <time>2021-05-05T11:26:11Z</time>
      </trkpt>
      <trkpt lat="38.186345" lon="-0.801983">
        <ele>16.631</ele>
        <time>2021-05-05T11:26:13Z</time>
      </trkpt>
      <trkpt lat="38.186364" lon="-0.801877">
        <ele>16.411</ele>
        <time>2021-05-05T11:26:15Z</time>
      </trkpt>
      <trkpt lat="38.186390" lon="-0.801755">
        <ele>16.434</ele>
        <time>2021-05-05T11:26:17Z</time>
      </trkpt>
      <trkpt lat="38.186403" lon="-0.801699">
        <ele>16.544</ele>
        <time>2021-05-05T11:26:18Z</time>
      </trkpt>
      <trkpt lat="38.186426" lon="-0.801584">
        <ele>16.816</ele>
        <time>2021-05-05T11:26:20Z</time>
      </trkpt>
      <trkpt lat="38.186440" lon="-0.801527">
        <ele>16.833</ele>
        <time>2021-05-05T11:26:21Z</time>
      </trkpt>
      <trkpt lat="38.186463" lon="-0.801416">
        <ele>17.138</ele>
        <time>2021-05-05T11:26:23Z</time>
      </trkpt>
      <trkpt lat="38.186476" lon="-0.801359">
        <ele>16.865</ele>
        <time>2021-05-05T11:26:24Z</time>
      </trkpt>
      <trkpt lat="38.186501" lon="-0.801238">
        <ele>17.168</ele>
        <time>2021-05-05T11:26:26Z</time>
      </trkpt>
      <trkpt lat="38.186513" lon="-0.801180">
        <ele>17.014</ele>
        <time>2021-05-05T11:26:27Z</time>
      </trkpt>
      <trkpt lat="38.186532" lon="-0.801055">
        <ele>16.708</ele>
        <time>2021-05-05T11:26:29Z</time>
      </trkpt>
      <trkpt lat="38.186542" lon="-0.800993">
        <ele>16.453</ele>
        <time>2021-05-05T11:26:30Z</time>
      </trkpt>
      <trkpt lat="38.186561" lon="-0.800874">
        <ele>15.678</ele>
        <time>2021-05-05T11:26:32Z</time>
      </trkpt>
      <trkpt lat="38.186572" lon="-0.800815">
        <ele>15.128</ele>
        <time>2021-05-05T11:26:33Z</time>
      </trkpt>
      <trkpt lat="38.186589" lon="-0.800691">
        <ele>15.391</ele>
        <time>2021-05-05T11:26:35Z</time>
      </trkpt>
      <trkpt lat="38.186611" lon="-0.800576">
        <ele>15.551</ele>
        <time>2021-05-05T11:26:37Z</time>
      </trkpt>
      <trkpt lat="38.186632" lon="-0.800478">
        <ele>15.933</ele>
        <time>2021-05-05T11:26:39Z</time>
      </trkpt>
      <trkpt lat="38.186641" lon="-0.800368">
        <ele>15.140</ele>
        <time>2021-05-05T11:26:41Z</time>
      </trkpt>
      <trkpt lat="38.186642" lon="-0.800292">
        <ele>14.615</ele>
        <time>2021-05-05T11:26:43Z</time>
      </trkpt>
      <trkpt lat="38.186675" lon="-0.800224">
        <ele>16.234</ele>
        <time>2021-05-05T11:27:25Z</time>
      </trkpt>
      <trkpt lat="38.186717" lon="-0.800202">
        <ele>17.255</ele>
        <time>2021-05-05T11:27:27Z</time>
      </trkpt>
      <trkpt lat="38.186774" lon="-0.800189">
        <ele>17.810</ele>
        <time>2021-05-05T11:27:29Z</time>
      </trkpt>
      <trkpt lat="38.186832" lon="-0.800153">
        <ele>18.208</ele>
        <time>2021-05-05T11:27:32Z</time>
      </trkpt>
      <trkpt lat="38.186876" lon="-0.800112">
        <ele>18.440</ele>
        <time>2021-05-05T11:27:34Z</time>
      </trkpt>
      <trkpt lat="38.186925" lon="-0.800091">
        <ele>18.575</ele>
        <time>2021-05-05T11:27:37Z</time>
      </trkpt>
      <trkpt lat="38.186970" lon="-0.800099">
        <ele>18.415</ele>
        <time>2021-05-05T11:28:36Z</time>
      </trkpt>
      <trkpt lat="38.187035" lon="-0.800094">
        <ele>18.378</ele>
        <time>2021-05-05T11:28:39Z</time>
      </trkpt>
      <trkpt lat="38.187091" lon="-0.800063">
        <ele>18.328</ele>
        <time>2021-05-05T11:28:41Z</time>
      </trkpt>
      <trkpt lat="38.187161" lon="-0.800033">
        <ele>18.380</ele>
        <time>2021-05-05T11:28:43Z</time>
      </trkpt>
      <trkpt lat="38.187223" lon="-0.799997">
        <ele>18.357</ele>
        <time>2021-05-05T11:28:45Z</time>
      </trkpt>
      <trkpt lat="38.187289" lon="-0.799955">
        <ele>18.332</ele>
        <time>2021-05-05T11:28:47Z</time>
      </trkpt>
      <trkpt lat="38.187346" lon="-0.799926">
        <ele>18.359</ele>
        <time>2021-05-05T11:28:48Z</time>
      </trkpt>
      <trkpt lat="38.187396" lon="-0.799897">
        <ele>18.303</ele>
        <time>2021-05-05T11:28:49Z</time>
      </trkpt>
      <trkpt lat="38.187459" lon="-0.799861">
        <ele>18.323</ele>
        <time>2021-05-05T11:28:51Z</time>
      </trkpt>
      <trkpt lat="38.187521" lon="-0.799833">
        <ele>18.308</ele>
        <time>2021-05-05T11:28:53Z</time>
      </trkpt>
      <trkpt lat="38.187563" lon="-0.799794">
        <ele>18.342</ele>
        <time>2021-05-05T11:28:55Z</time>
      </trkpt>
      <trkpt lat="38.187622" lon="-0.799775">
        <ele>18.337</ele>
        <time>2021-05-05T11:28:56Z</time>
      </trkpt>
      <trkpt lat="38.187703" lon="-0.799739">
        <ele>18.367</ele>
        <time>2021-05-05T11:28:58Z</time>
      </trkpt>
      <trkpt lat="38.187746" lon="-0.799717">
        <ele>18.350</ele>
        <time>2021-05-05T11:28:59Z</time>
      </trkpt>
      <trkpt lat="38.187792" lon="-0.799674">
        <ele>18.380</ele>
        <time>2021-05-05T11:29:01Z</time>
      </trkpt>
      <trkpt lat="38.187873" lon="-0.799637">
        <ele>18.312</ele>
        <time>2021-05-05T11:29:03Z</time>
      </trkpt>
      <trkpt lat="38.187921" lon="-0.799616">
        <ele>18.379</ele>
        <time>2021-05-05T11:29:04Z</time>
      </trkpt>
      <trkpt lat="38.187994" lon="-0.799588">
        <ele>18.314</ele>
        <time>2021-05-05T11:29:06Z</time>
      </trkpt>
      <trkpt lat="38.188071" lon="-0.799550">
        <ele>18.384</ele>
        <time>2021-05-05T11:29:08Z</time>
      </trkpt>
      <trkpt lat="38.188146" lon="-0.799513">
        <ele>18.307</ele>
        <time>2021-05-05T11:29:09Z</time>
      </trkpt>
      <trkpt lat="38.188222" lon="-0.799475">
        <ele>18.317</ele>
        <time>2021-05-05T11:29:11Z</time>
      </trkpt>
      <trkpt lat="38.188269" lon="-0.799446">
        <ele>18.308</ele>
        <time>2021-05-05T11:29:13Z</time>
      </trkpt>
      <trkpt lat="38.188321" lon="-0.799411">
        <ele>18.375</ele>
        <time>2021-05-05T11:29:14Z</time>
      </trkpt>
      <trkpt lat="38.188371" lon="-0.799378">
        <ele>18.390</ele>
        <time>2021-05-05T11:29:15Z</time>
      </trkpt>
      <trkpt lat="38.188422" lon="-0.799348">
        <ele>18.320</ele>
        <time>2021-05-05T11:29:16Z</time>
      </trkpt>
      <trkpt lat="38.188501" lon="-0.799300">
        <ele>18.353</ele>
        <time>2021-05-05T11:29:18Z</time>
      </trkpt>
      <trkpt lat="38.188560" lon="-0.799269">
        <ele>17.483</ele>
        <time>2021-05-05T11:29:20Z</time>
      </trkpt>
      <trkpt lat="38.188611" lon="-0.799242">
        <ele>17.085</ele>
        <time>2021-05-05T11:29:21Z</time>
      </trkpt>
      <trkpt lat="38.188669" lon="-0.799200">
        <ele>16.762</ele>
        <time>2021-05-05T11:29:23Z</time>
      </trkpt>
      <trkpt lat="38.188738" lon="-0.799159">
        <ele>17.747</ele>
        <time>2021-05-05T11:29:24Z</time>
      </trkpt>
      <trkpt lat="38.188780" lon="-0.799136">
        <ele>17.924</ele>
        <time>2021-05-05T11:29:25Z</time>
      </trkpt>
      <trkpt lat="38.188842" lon="-0.799104">
        <ele>17.804</ele>
        <time>2021-05-05T11:29:27Z</time>
      </trkpt>
      <trkpt lat="38.188889" lon="-0.799078">
        <ele>17.614</ele>
        <time>2021-05-05T11:29:28Z</time>
      </trkpt>
      <trkpt lat="38.188934" lon="-0.799056">
        <ele>17.408</ele>
        <time>2021-05-05T11:29:29Z</time>
      </trkpt>
      <trkpt lat="38.188990" lon="-0.799030">
        <ele>17.149</ele>
        <time>2021-05-05T11:29:31Z</time>
      </trkpt>
      <trkpt lat="38.189033" lon="-0.799009">
        <ele>16.694</ele>
        <time>2021-05-05T11:29:32Z</time>
      </trkpt>
      <trkpt lat="38.189085" lon="-0.798980">
        <ele>16.354</ele>
        <time>2021-05-05T11:29:33Z</time>
      </trkpt>
      <trkpt lat="38.189128" lon="-0.798946">
        <ele>16.347</ele>
        <time>2021-05-05T11:29:35Z</time>
      </trkpt>
      <trkpt lat="38.189203" lon="-0.798907">
        <ele>16.317</ele>
        <time>2021-05-05T11:29:37Z</time>
      </trkpt>
      <trkpt lat="38.189247" lon="-0.798883">
        <ele>16.379</ele>
        <time>2021-05-05T11:29:38Z</time>
      </trkpt>
      <trkpt lat="38.189308" lon="-0.798848">
        <ele>16.226</ele>
        <time>2021-05-05T11:29:39Z</time>
      </trkpt>
      <trkpt lat="38.189373" lon="-0.798810">
        <ele>17.011</ele>
        <time>2021-05-05T11:29:41Z</time>
      </trkpt>
      <trkpt lat="38.189443" lon="-0.798772">
        <ele>17.659</ele>
        <time>2021-05-05T11:29:43Z</time>
      </trkpt>
      <trkpt lat="38.189507" lon="-0.798733">
        <ele>17.903</ele>
        <time>2021-05-05T11:29:44Z</time>
      </trkpt>
      <trkpt lat="38.189567" lon="-0.798701">
        <ele>18.123</ele>
        <time>2021-05-05T11:29:46Z</time>
      </trkpt>
      <trkpt lat="38.189641" lon="-0.798662">
        <ele>18.108</ele>
        <time>2021-05-05T11:29:48Z</time>
      </trkpt>
      <trkpt lat="38.189696" lon="-0.798634">
        <ele>18.132</ele>
        <time>2021-05-05T11:29:49Z</time>
      </trkpt>
      <trkpt lat="38.189763" lon="-0.798597">
        <ele>18.357</ele>
        <time>2021-05-05T11:29:50Z</time>
      </trkpt>
      <trkpt lat="38.189807" lon="-0.798570">
        <ele>17.967</ele>
        <time>2021-05-05T11:29:52Z</time>
      </trkpt>
      <trkpt lat="38.189890" lon="-0.798530">
        <ele>17.270</ele>
        <time>2021-05-05T11:29:54Z</time>
      </trkpt>
      <trkpt lat="38.189933" lon="-0.798506">
        <ele>17.240</ele>
        <time>2021-05-05T11:29:55Z</time>
      </trkpt>
      <trkpt lat="38.190021" lon="-0.798462">
        <ele>16.952</ele>
        <time>2021-05-05T11:29:57Z</time>
      </trkpt>
      <trkpt lat="38.190066" lon="-0.798439">
        <ele>17.249</ele>
        <time>2021-05-05T11:29:58Z</time>
      </trkpt>
      <trkpt lat="38.190142" lon="-0.798397">
        <ele>16.474</ele>
        <time>2021-05-05T11:30:00Z</time>
      </trkpt>
      <trkpt lat="38.190220" lon="-0.798345">
        <ele>15.729</ele>
        <time>2021-05-05T11:30:02Z</time>
      </trkpt>
      <trkpt lat="38.190263" lon="-0.798321">
        <ele>15.300</ele>
        <time>2021-05-05T11:30:03Z</time>
      </trkpt>
      <trkpt lat="38.190350" lon="-0.798273">
        <ele>14.520</ele>
        <time>2021-05-05T11:30:05Z</time>
      </trkpt>
      <trkpt lat="38.190442" lon="-0.798220">
        <ele>14.508</ele>
        <time>2021-05-05T11:30:07Z</time>
      </trkpt>
      <trkpt lat="38.190491" lon="-0.798186">
        <ele>14.519</ele>
        <time>2021-05-05T11:30:08Z</time>
      </trkpt>
      <trkpt lat="38.190543" lon="-0.798156">
        <ele>15.074</ele>
        <time>2021-05-05T11:30:09Z</time>
      </trkpt>
      <trkpt lat="38.190645" lon="-0.798101">
        <ele>15.764</ele>
        <time>2021-05-05T11:30:11Z</time>
      </trkpt>
      <trkpt lat="38.190697" lon="-0.798072">
        <ele>16.217</ele>
        <time>2021-05-05T11:30:12Z</time>
      </trkpt>
      <trkpt lat="38.190801" lon="-0.798012">
        <ele>16.527</ele>
        <time>2021-05-05T11:30:14Z</time>
      </trkpt>
      <trkpt lat="38.190852" lon="-0.797985">
        <ele>16.969</ele>
        <time>2021-05-05T11:30:15Z</time>
      </trkpt>
      <trkpt lat="38.190901" lon="-0.797957">
        <ele>17.526</ele>
        <time>2021-05-05T11:30:16Z</time>
      </trkpt>
      <trkpt lat="38.190994" lon="-0.797901">
        <ele>17.491</ele>
        <time>2021-05-05T11:30:18Z</time>
      </trkpt>
      <trkpt lat="38.191038" lon="-0.797875">
        <ele>17.212</ele>
        <time>2021-05-05T11:30:19Z</time>
      </trkpt>
      <trkpt lat="38.191128" lon="-0.797830">
        <ele>17.032</ele>
        <time>2021-05-05T11:30:21Z</time>
      </trkpt>
      <trkpt lat="38.191219" lon="-0.797784">
        <ele>17.305</ele>
        <time>2021-05-05T11:30:23Z</time>
      </trkpt>
      <trkpt lat="38.191265" lon="-0.797758">
        <ele>17.408</ele>
        <time>2021-05-05T11:30:24Z</time>
      </trkpt>
      <trkpt lat="38.191354" lon="-0.797706">
        <ele>17.698</ele>
        <time>2021-05-05T11:30:26Z</time>
      </trkpt>
      <trkpt lat="38.191446" lon="-0.797658">
        <ele>17.623</ele>
        <time>2021-05-05T11:30:28Z</time>
      </trkpt>
      <trkpt lat="38.191493" lon="-0.797632">
        <ele>17.913</ele>
        <time>2021-05-05T11:30:29Z</time>
      </trkpt>
      <trkpt lat="38.191542" lon="-0.797607">
        <ele>18.016</ele>
        <time>2021-05-05T11:30:30Z</time>
      </trkpt>
      <trkpt lat="38.191637" lon="-0.797563">
        <ele>17.926</ele>
        <time>2021-05-05T11:30:32Z</time>
      </trkpt>
      <trkpt lat="38.191684" lon="-0.797544">
        <ele>18.198</ele>
        <time>2021-05-05T11:30:33Z</time>
      </trkpt>
      <trkpt lat="38.191770" lon="-0.797499">
        <ele>18.055</ele>
        <time>2021-05-05T11:30:35Z</time>
      </trkpt>
      <trkpt lat="38.191813" lon="-0.797477">
        <ele>18.520</ele>
        <time>2021-05-05T11:30:36Z</time>
      </trkpt>
      <trkpt lat="38.191895" lon="-0.797428">
        <ele>18.714</ele>
        <time>2021-05-05T11:30:38Z</time>
      </trkpt>
      <trkpt lat="38.191980" lon="-0.797379">
        <ele>19.154</ele>
        <time>2021-05-05T11:30:40Z</time>
      </trkpt>
      <trkpt lat="38.192061" lon="-0.797332">
        <ele>19.109</ele>
        <time>2021-05-05T11:30:42Z</time>
      </trkpt>
      <trkpt lat="38.192143" lon="-0.797288">
        <ele>19.108</ele>
        <time>2021-05-05T11:30:44Z</time>
      </trkpt>
      <trkpt lat="38.192218" lon="-0.797241">
        <ele>19.358</ele>
        <time>2021-05-05T11:30:46Z</time>
      </trkpt>
      <trkpt lat="38.192276" lon="-0.797187">
        <ele>19.323</ele>
        <time>2021-05-05T11:30:48Z</time>
      </trkpt>
      <trkpt lat="38.192351" lon="-0.797102">
        <ele>19.333</ele>
        <time>2021-05-05T11:30:50Z</time>
      </trkpt>
      <trkpt lat="38.192386" lon="-0.797063">
        <ele>19.086</ele>
        <time>2021-05-05T11:30:51Z</time>
      </trkpt>
      <trkpt lat="38.192427" lon="-0.796990">
        <ele>19.046</ele>
        <time>2021-05-05T11:30:52Z</time>
      </trkpt>
      <trkpt lat="38.192461" lon="-0.796946">
        <ele>18.858</ele>
        <time>2021-05-05T11:30:53Z</time>
      </trkpt>
      <trkpt lat="38.192522" lon="-0.796868">
        <ele>18.935</ele>
        <time>2021-05-05T11:30:55Z</time>
      </trkpt>
      <trkpt lat="38.192552" lon="-0.796811">
        <ele>18.860</ele>
        <time>2021-05-05T11:30:57Z</time>
      </trkpt>
      <trkpt lat="38.192590" lon="-0.796743">
        <ele>18.975</ele>
        <time>2021-05-05T11:30:59Z</time>
      </trkpt>
      <trkpt lat="38.192622" lon="-0.796685">
        <ele>18.728</ele>
        <time>2021-05-05T11:31:00Z</time>
      </trkpt>
      <trkpt lat="38.192663" lon="-0.796611">
        <ele>18.620</ele>
        <time>2021-05-05T11:31:02Z</time>
      </trkpt>
      <trkpt lat="38.192698" lon="-0.796554">
        <ele>18.108</ele>
        <time>2021-05-05T11:31:04Z</time>
      </trkpt>
      <trkpt lat="38.192727" lon="-0.796504">
        <ele>17.824</ele>
        <time>2021-05-05T11:31:05Z</time>
      </trkpt>
      <trkpt lat="38.192769" lon="-0.796435">
        <ele>17.929</ele>
        <time>2021-05-05T11:31:06Z</time>
      </trkpt>
      <trkpt lat="38.192805" lon="-0.796379">
        <ele>17.849</ele>
        <time>2021-05-05T11:31:08Z</time>
      </trkpt>
      <trkpt lat="38.192836" lon="-0.796329">
        <ele>17.842</ele>
        <time>2021-05-05T11:31:09Z</time>
      </trkpt>
      <trkpt lat="38.192873" lon="-0.796267">
        <ele>17.652</ele>
        <time>2021-05-05T11:31:10Z</time>
      </trkpt>
      <trkpt lat="38.192916" lon="-0.796189">
        <ele>17.464</ele>
        <time>2021-05-05T11:31:12Z</time>
      </trkpt>
      <trkpt lat="38.192962" lon="-0.796109">
        <ele>17.581</ele>
        <time>2021-05-05T11:31:14Z</time>
      </trkpt>
      <trkpt lat="38.192994" lon="-0.796055">
        <ele>17.656</ele>
        <time>2021-05-05T11:31:15Z</time>
      </trkpt>
      <trkpt lat="38.193045" lon="-0.795975">
        <ele>17.883</ele>
        <time>2021-05-05T11:31:17Z</time>
      </trkpt>
      <trkpt lat="38.193078" lon="-0.795925">
        <ele>17.825</ele>
        <time>2021-05-05T11:31:18Z</time>
      </trkpt>
      <trkpt lat="38.193113" lon="-0.795874">
        <ele>17.717</ele>
        <time>2021-05-05T11:31:20Z</time>
      </trkpt>
      <trkpt lat="38.193168" lon="-0.795791">
        <ele>17.408</ele>
        <time>2021-05-05T11:31:21Z</time>
      </trkpt>
      <trkpt lat="38.193218" lon="-0.795720">
        <ele>17.385</ele>
        <time>2021-05-05T11:31:23Z</time>
      </trkpt>
      <trkpt lat="38.193247" lon="-0.795672">
        <ele>17.380</ele>
        <time>2021-05-05T11:31:24Z</time>
      </trkpt>
      <trkpt lat="38.193278" lon="-0.795619">
        <ele>16.930</ele>
        <time>2021-05-05T11:31:26Z</time>
      </trkpt>
      <trkpt lat="38.193339" lon="-0.795519">
        <ele>17.293</ele>
        <time>2021-05-05T11:31:28Z</time>
      </trkpt>
      <trkpt lat="38.193400" lon="-0.795431">
        <ele>17.833</ele>
        <time>2021-05-05T11:31:30Z</time>
      </trkpt>
      <trkpt lat="38.193435" lon="-0.795351">
        <ele>17.755</ele>
        <time>2021-05-05T11:31:32Z</time>
      </trkpt>
      <trkpt lat="38.193485" lon="-0.795302">
        <ele>17.862</ele>
        <time>2021-05-05T11:31:33Z</time>
      </trkpt>
      <trkpt lat="38.193520" lon="-0.795255">
        <ele>18.037</ele>
        <time>2021-05-05T11:31:34Z</time>
      </trkpt>
      <trkpt lat="38.193553" lon="-0.795207">
        <ele>18.226</ele>
        <time>2021-05-05T11:31:35Z</time>
      </trkpt>
      <trkpt lat="38.193614" lon="-0.795118">
        <ele>17.647</ele>
        <time>2021-05-05T11:31:37Z</time>
      </trkpt>
      <trkpt lat="38.193669" lon="-0.795035">
        <ele>17.111</ele>
        <time>2021-05-05T11:31:39Z</time>
      </trkpt>
      <trkpt lat="38.193698" lon="-0.794991">
        <ele>16.908</ele>
        <time>2021-05-05T11:31:40Z</time>
      </trkpt>
      <trkpt lat="38.193728" lon="-0.794946">
        <ele>17.049</ele>
        <time>2021-05-05T11:31:41Z</time>
      </trkpt>
      <trkpt lat="38.193765" lon="-0.794903">
        <ele>17.124</ele>
        <time>2021-05-05T11:31:42Z</time>
      </trkpt>
      <trkpt lat="38.193828" lon="-0.794803">
        <ele>17.464</ele>
        <time>2021-05-05T11:31:44Z</time>
      </trkpt>
      <trkpt lat="38.193863" lon="-0.794756">
        <ele>18.067</ele>
        <time>2021-05-05T11:31:45Z</time>
      </trkpt>
      <trkpt lat="38.193923" lon="-0.794663">
        <ele>18.537</ele>
        <time>2021-05-05T11:31:47Z</time>
      </trkpt>
      <trkpt lat="38.193955" lon="-0.794615">
        <ele>18.899</ele>
        <time>2021-05-05T11:31:48Z</time>
      </trkpt>
      <trkpt lat="38.193990" lon="-0.794569">
        <ele>19.296</ele>
        <time>2021-05-05T11:31:49Z</time>
      </trkpt>
      <trkpt lat="38.194050" lon="-0.794477">
        <ele>18.991</ele>
        <time>2021-05-05T11:31:51Z</time>
      </trkpt>
      <trkpt lat="38.194079" lon="-0.794428">
        <ele>18.733</ele>
        <time>2021-05-05T11:31:52Z</time>
      </trkpt>
      <trkpt lat="38.194137" lon="-0.794333">
        <ele>18.623</ele>
        <time>2021-05-05T11:31:54Z</time>
      </trkpt>
      <trkpt lat="38.194170" lon="-0.794286">
        <ele>18.215</ele>
        <time>2021-05-05T11:31:55Z</time>
      </trkpt>
      <trkpt lat="38.194227" lon="-0.794189">
        <ele>18.308</ele>
        <time>2021-05-05T11:31:57Z</time>
      </trkpt>
      <trkpt lat="38.194257" lon="-0.794144">
        <ele>18.720</ele>
        <time>2021-05-05T11:31:58Z</time>
      </trkpt>
      <trkpt lat="38.194317" lon="-0.794051">
        <ele>18.125</ele>
        <time>2021-05-05T11:32:00Z</time>
      </trkpt>
      <trkpt lat="38.194350" lon="-0.794007">
        <ele>18.285</ele>
        <time>2021-05-05T11:32:01Z</time>
      </trkpt>
      <trkpt lat="38.194402" lon="-0.793920">
        <ele>17.938</ele>
        <time>2021-05-05T11:32:03Z</time>
      </trkpt>
      <trkpt lat="38.194466" lon="-0.793832">
        <ele>17.548</ele>
        <time>2021-05-05T11:32:05Z</time>
      </trkpt>
      <trkpt lat="38.194524" lon="-0.793740">
        <ele>17.810</ele>
        <time>2021-05-05T11:32:07Z</time>
      </trkpt>
      <trkpt lat="38.194576" lon="-0.793648">
        <ele>17.597</ele>
        <time>2021-05-05T11:32:09Z</time>
      </trkpt>
      <trkpt lat="38.194608" lon="-0.793602">
        <ele>17.582</ele>
        <time>2021-05-05T11:32:10Z</time>
      </trkpt>
      <trkpt lat="38.194667" lon="-0.793510">
        <ele>17.347</ele>
        <time>2021-05-05T11:32:12Z</time>
      </trkpt>
      <trkpt lat="38.194729" lon="-0.793417">
        <ele>16.829</ele>
        <time>2021-05-05T11:32:14Z</time>
      </trkpt>
      <trkpt lat="38.194803" lon="-0.793325">
        <ele>16.821</ele>
        <time>2021-05-05T11:32:16Z</time>
      </trkpt>
      <trkpt lat="38.194867" lon="-0.793232">
        <ele>17.008</ele>
        <time>2021-05-05T11:32:18Z</time>
      </trkpt>
      <trkpt lat="38.194896" lon="-0.793184">
        <ele>17.211</ele>
        <time>2021-05-05T11:32:19Z</time>
      </trkpt>
      <trkpt lat="38.194926" lon="-0.793134">
        <ele>17.356</ele>
        <time>2021-05-05T11:32:20Z</time>
      </trkpt>
      <trkpt lat="38.194991" lon="-0.793037">
        <ele>17.386</ele>
        <time>2021-05-05T11:32:22Z</time>
      </trkpt>
      <trkpt lat="38.195021" lon="-0.792992">
        <ele>17.519</ele>
        <time>2021-05-05T11:32:23Z</time>
      </trkpt>
      <trkpt lat="38.195080" lon="-0.792896">
        <ele>17.419</ele>
        <time>2021-05-05T11:32:25Z</time>
      </trkpt>
      <trkpt lat="38.195107" lon="-0.792848">
        <ele>17.511</ele>
        <time>2021-05-05T11:32:26Z</time>
      </trkpt>
      <trkpt lat="38.195135" lon="-0.792802">
        <ele>17.338</ele>
        <time>2021-05-05T11:32:27Z</time>
      </trkpt>
      <trkpt lat="38.195192" lon="-0.792711">
        <ele>17.393</ele>
        <time>2021-05-05T11:32:29Z</time>
      </trkpt>
      <trkpt lat="38.195255" lon="-0.792616">
        <ele>17.515</ele>
        <time>2021-05-05T11:32:31Z</time>
      </trkpt>
      <trkpt lat="38.195287" lon="-0.792568">
        <ele>17.365</ele>
        <time>2021-05-05T11:32:32Z</time>
      </trkpt>
      <trkpt lat="38.195318" lon="-0.792522">
        <ele>17.911</ele>
        <time>2021-05-05T11:32:33Z</time>
      </trkpt>
      <trkpt lat="38.195350" lon="-0.792475">
        <ele>18.408</ele>
        <time>2021-05-05T11:32:34Z</time>
      </trkpt>
      <trkpt lat="38.195406" lon="-0.792385">
        <ele>18.598</ele>
        <time>2021-05-05T11:32:36Z</time>
      </trkpt>
      <trkpt lat="38.195436" lon="-0.792338">
        <ele>18.753</ele>
        <time>2021-05-05T11:32:37Z</time>
      </trkpt>
      <trkpt lat="38.195464" lon="-0.792290">
        <ele>19.183</ele>
        <time>2021-05-05T11:32:38Z</time>
      </trkpt>
      <trkpt lat="38.195521" lon="-0.792197">
        <ele>19.726</ele>
        <time>2021-05-05T11:32:40Z</time>
      </trkpt>
      <trkpt lat="38.195572" lon="-0.792098">
        <ele>20.146</ele>
        <time>2021-05-05T11:32:42Z</time>
      </trkpt>
      <trkpt lat="38.195599" lon="-0.792052">
        <ele>20.178</ele>
        <time>2021-05-05T11:32:43Z</time>
      </trkpt>
      <trkpt lat="38.195630" lon="-0.792007">
        <ele>20.235</ele>
        <time>2021-05-05T11:32:44Z</time>
      </trkpt>
      <trkpt lat="38.195684" lon="-0.791920">
        <ele>20.080</ele>
        <time>2021-05-05T11:32:46Z</time>
      </trkpt>
      <trkpt lat="38.195746" lon="-0.791824">
        <ele>19.581</ele>
        <time>2021-05-05T11:32:48Z</time>
      </trkpt>
      <trkpt lat="38.195778" lon="-0.791777">
        <ele>19.561</ele>
        <time>2021-05-05T11:32:49Z</time>
      </trkpt>
      <trkpt lat="38.195806" lon="-0.791729">
        <ele>19.217</ele>
        <time>2021-05-05T11:32:50Z</time>
      </trkpt>
      <trkpt lat="38.195869" lon="-0.791630">
        <ele>19.108</ele>
        <time>2021-05-05T11:32:52Z</time>
      </trkpt>
      <trkpt lat="38.195898" lon="-0.791583">
        <ele>18.915</ele>
        <time>2021-05-05T11:32:53Z</time>
      </trkpt>
      <trkpt lat="38.195955" lon="-0.791490">
        <ele>18.910</ele>
        <time>2021-05-05T11:32:55Z</time>
      </trkpt>
      <trkpt lat="38.195987" lon="-0.791442">
        <ele>19.010</ele>
        <time>2021-05-05T11:32:56Z</time>
      </trkpt>
      <trkpt lat="38.196044" lon="-0.791347">
        <ele>19.373</ele>
        <time>2021-05-05T11:32:58Z</time>
      </trkpt>
      <trkpt lat="38.196073" lon="-0.791298">
        <ele>19.613</ele>
        <time>2021-05-05T11:32:59Z</time>
      </trkpt>
      <trkpt lat="38.196122" lon="-0.791208">
        <ele>18.915</ele>
        <time>2021-05-05T11:33:01Z</time>
      </trkpt>
      <trkpt lat="38.196178" lon="-0.791111">
        <ele>18.792</ele>
        <time>2021-05-05T11:33:03Z</time>
      </trkpt>
      <trkpt lat="38.196238" lon="-0.791022">
        <ele>18.587</ele>
        <time>2021-05-05T11:33:05Z</time>
      </trkpt>
      <trkpt lat="38.196273" lon="-0.790979">
        <ele>18.391</ele>
        <time>2021-05-05T11:33:06Z</time>
      </trkpt>
      <trkpt lat="38.196330" lon="-0.790887">
        <ele>18.181</ele>
        <time>2021-05-05T11:33:08Z</time>
      </trkpt>
      <trkpt lat="38.196389" lon="-0.790796">
        <ele>18.519</ele>
        <time>2021-05-05T11:33:10Z</time>
      </trkpt>
      <trkpt lat="38.196419" lon="-0.790749">
        <ele>18.708</ele>
        <time>2021-05-05T11:33:11Z</time>
      </trkpt>
      <trkpt lat="38.196451" lon="-0.790699">
        <ele>19.286</ele>
        <time>2021-05-05T11:33:12Z</time>
      </trkpt>
      <trkpt lat="38.196515" lon="-0.790603">
        <ele>19.211</ele>
        <time>2021-05-05T11:33:14Z</time>
      </trkpt>
      <trkpt lat="38.196544" lon="-0.790558">
        <ele>19.451</ele>
        <time>2021-05-05T11:33:15Z</time>
      </trkpt>
      <trkpt lat="38.196600" lon="-0.790471">
        <ele>19.314</ele>
        <time>2021-05-05T11:33:17Z</time>
      </trkpt>
      <trkpt lat="38.196656" lon="-0.790383">
        <ele>19.964</ele>
        <time>2021-05-05T11:33:19Z</time>
      </trkpt>
      <trkpt lat="38.196688" lon="-0.790340">
        <ele>20.266</ele>
        <time>2021-05-05T11:33:20Z</time>
      </trkpt>
      <trkpt lat="38.196751" lon="-0.790248">
        <ele>20.423</ele>
        <time>2021-05-05T11:33:22Z</time>
      </trkpt>
      <trkpt lat="38.196803" lon="-0.790159">
        <ele>20.078</ele>
        <time>2021-05-05T11:33:24Z</time>
      </trkpt>
      <trkpt lat="38.196865" lon="-0.790066">
        <ele>20.196</ele>
        <time>2021-05-05T11:33:26Z</time>
      </trkpt>
      <trkpt lat="38.196930" lon="-0.789974">
        <ele>19.931</ele>
        <time>2021-05-05T11:33:28Z</time>
      </trkpt>
      <trkpt lat="38.196991" lon="-0.789879">
        <ele>19.324</ele>
        <time>2021-05-05T11:33:30Z</time>
      </trkpt>
      <trkpt lat="38.197048" lon="-0.789785">
        <ele>19.308</ele>
        <time>2021-05-05T11:33:32Z</time>
      </trkpt>
      <trkpt lat="38.197098" lon="-0.789704">
        <ele>19.346</ele>
        <time>2021-05-05T11:33:34Z</time>
      </trkpt>
      <trkpt lat="38.197149" lon="-0.789626">
        <ele>19.591</ele>
        <time>2021-05-05T11:33:36Z</time>
      </trkpt>
      <trkpt lat="38.197197" lon="-0.789548">
        <ele>19.611</ele>
        <time>2021-05-05T11:33:38Z</time>
      </trkpt>
      <trkpt lat="38.197239" lon="-0.789478">
        <ele>19.874</ele>
        <time>2021-05-05T11:33:40Z</time>
      </trkpt>
      <trkpt lat="38.197271" lon="-0.789423">
        <ele>20.284</ele>
        <time>2021-05-05T11:33:41Z</time>
      </trkpt>
      <trkpt lat="38.197309" lon="-0.789375">
        <ele>20.746</ele>
        <time>2021-05-05T11:33:43Z</time>
      </trkpt>
      <trkpt lat="38.197363" lon="-0.789320">
        <ele>21.063</ele>
        <time>2021-05-05T11:33:44Z</time>
      </trkpt>
      <trkpt lat="38.197418" lon="-0.789260">
        <ele>21.458</ele>
        <time>2021-05-05T11:33:46Z</time>
      </trkpt>
      <trkpt lat="38.197453" lon="-0.789211">
        <ele>21.692</ele>
        <time>2021-05-05T11:33:48Z</time>
      </trkpt>
      <trkpt lat="38.197491" lon="-0.789161">
        <ele>21.373</ele>
        <time>2021-05-05T11:33:49Z</time>
      </trkpt>
      <trkpt lat="38.197547" lon="-0.789104">
        <ele>21.020</ele>
        <time>2021-05-05T11:33:51Z</time>
      </trkpt>
      <trkpt lat="38.197594" lon="-0.789057">
        <ele>21.008</ele>
        <time>2021-05-05T11:33:52Z</time>
      </trkpt>
      <trkpt lat="38.197638" lon="-0.789009">
        <ele>20.836</ele>
        <time>2021-05-05T11:33:53Z</time>
      </trkpt>
      <trkpt lat="38.197700" lon="-0.788944">
        <ele>21.281</ele>
        <time>2021-05-05T11:33:55Z</time>
      </trkpt>
      <trkpt lat="38.197744" lon="-0.788906">
        <ele>21.121</ele>
        <time>2021-05-05T11:33:56Z</time>
      </trkpt>
      <trkpt lat="38.197819" lon="-0.788834">
        <ele>21.154</ele>
        <time>2021-05-05T11:33:58Z</time>
      </trkpt>
      <trkpt lat="38.197863" lon="-0.788792">
        <ele>21.444</ele>
        <time>2021-05-05T11:34:00Z</time>
      </trkpt>
      <trkpt lat="38.197935" lon="-0.788725">
        <ele>21.576</ele>
        <time>2021-05-05T11:34:02Z</time>
      </trkpt>
      <trkpt lat="38.198013" lon="-0.788660">
        <ele>21.673</ele>
        <time>2021-05-05T11:34:04Z</time>
      </trkpt>
      <trkpt lat="38.198054" lon="-0.788620">
        <ele>21.348</ele>
        <time>2021-05-05T11:34:05Z</time>
      </trkpt>
      <trkpt lat="38.198112" lon="-0.788563">
        <ele>21.031</ele>
        <time>2021-05-05T11:34:06Z</time>
      </trkpt>
      <trkpt lat="38.198168" lon="-0.788504">
        <ele>20.861</ele>
        <time>2021-05-05T11:34:08Z</time>
      </trkpt>
      <trkpt lat="38.198210" lon="-0.788460">
        <ele>20.807</ele>
        <time>2021-05-05T11:34:09Z</time>
      </trkpt>
      <trkpt lat="38.198246" lon="-0.788419">
        <ele>20.908</ele>
        <time>2021-05-05T11:34:10Z</time>
      </trkpt>
      <trkpt lat="38.198287" lon="-0.788364">
        <ele>21.090</ele>
        <time>2021-05-05T11:34:12Z</time>
      </trkpt>
      <trkpt lat="38.198324" lon="-0.788326">
        <ele>20.925</ele>
        <time>2021-05-05T11:34:13Z</time>
      </trkpt>
      <trkpt lat="38.198391" lon="-0.788256">
        <ele>21.115</ele>
        <time>2021-05-05T11:34:15Z</time>
      </trkpt>
      <trkpt lat="38.198460" lon="-0.788192">
        <ele>21.428</ele>
        <time>2021-05-05T11:34:17Z</time>
      </trkpt>
      <trkpt lat="38.198535" lon="-0.788125">
        <ele>21.498</ele>
        <time>2021-05-05T11:34:19Z</time>
      </trkpt>
      <trkpt lat="38.198612" lon="-0.788050">
        <ele>21.540</ele>
        <time>2021-05-05T11:34:21Z</time>
      </trkpt>
      <trkpt lat="38.198691" lon="-0.787977">
        <ele>21.767</ele>
        <time>2021-05-05T11:34:23Z</time>
      </trkpt>
      <trkpt lat="38.198731" lon="-0.787937">
        <ele>21.632</ele>
        <time>2021-05-05T11:34:24Z</time>
      </trkpt>
      <trkpt lat="38.198771" lon="-0.787896">
        <ele>21.786</ele>
        <time>2021-05-05T11:34:25Z</time>
      </trkpt>
      <trkpt lat="38.198850" lon="-0.787821">
        <ele>22.160</ele>
        <time>2021-05-05T11:34:27Z</time>
      </trkpt>
      <trkpt lat="38.198890" lon="-0.787783">
        <ele>22.226</ele>
        <time>2021-05-05T11:34:28Z</time>
      </trkpt>
      <trkpt lat="38.198929" lon="-0.787743">
        <ele>22.208</ele>
        <time>2021-05-05T11:34:29Z</time>
      </trkpt>
      <trkpt lat="38.199005" lon="-0.787668">
        <ele>22.075</ele>
        <time>2021-05-05T11:34:31Z</time>
      </trkpt>
      <trkpt lat="38.199086" lon="-0.787590">
        <ele>21.920</ele>
        <time>2021-05-05T11:34:33Z</time>
      </trkpt>
      <trkpt lat="38.199168" lon="-0.787510">
        <ele>21.720</ele>
        <time>2021-05-05T11:34:35Z</time>
      </trkpt>
      <trkpt lat="38.199207" lon="-0.787469">
        <ele>21.623</ele>
        <time>2021-05-05T11:34:36Z</time>
      </trkpt>
      <trkpt lat="38.199246" lon="-0.787429">
        <ele>21.573</ele>
        <time>2021-05-05T11:34:37Z</time>
      </trkpt>
      <trkpt lat="38.199316" lon="-0.787348">
        <ele>21.265</ele>
        <time>2021-05-05T11:34:39Z</time>
      </trkpt>
      <trkpt lat="38.199351" lon="-0.787310">
        <ele>21.012</ele>
        <time>2021-05-05T11:34:40Z</time>
      </trkpt>
      <trkpt lat="38.199425" lon="-0.787236">
        <ele>21.367</ele>
        <time>2021-05-05T11:34:42Z</time>
      </trkpt>
      <trkpt lat="38.199463" lon="-0.787199">
        <ele>21.467</ele>
        <time>2021-05-05T11:34:43Z</time>
      </trkpt>
      <trkpt lat="38.199536" lon="-0.787123">
        <ele>21.581</ele>
        <time>2021-05-05T11:34:45Z</time>
      </trkpt>
      <trkpt lat="38.199615" lon="-0.787046">
        <ele>21.419</ele>
        <time>2021-05-05T11:34:47Z</time>
      </trkpt>
      <trkpt lat="38.199678" lon="-0.786990">
        <ele>21.308</ele>
        <time>2021-05-05T11:34:49Z</time>
      </trkpt>
      <trkpt lat="38.199750" lon="-0.786926">
        <ele>21.533</ele>
        <time>2021-05-05T11:34:51Z</time>
      </trkpt>
      <trkpt lat="38.199817" lon="-0.786867">
        <ele>21.418</ele>
        <time>2021-05-05T11:34:53Z</time>
      </trkpt>
      <trkpt lat="38.199896" lon="-0.786784">
        <ele>21.658</ele>
        <time>2021-05-05T11:34:55Z</time>
      </trkpt>
      <trkpt lat="38.199924" lon="-0.786704">
        <ele>21.481</ele>
        <time>2021-05-05T11:34:57Z</time>
      </trkpt>
      <trkpt lat="38.199997" lon="-0.786647">
        <ele>21.311</ele>
        <time>2021-05-05T11:34:59Z</time>
      </trkpt>
      <trkpt lat="38.200054" lon="-0.786598">
        <ele>21.713</ele>
        <time>2021-05-05T11:35:00Z</time>
      </trkpt>
      <trkpt lat="38.200104" lon="-0.786554">
        <ele>21.740</ele>
        <time>2021-05-05T11:35:02Z</time>
      </trkpt>
      <trkpt lat="38.200176" lon="-0.786488">
        <ele>21.855</ele>
        <time>2021-05-05T11:35:03Z</time>
      </trkpt>
      <trkpt lat="38.200223" lon="-0.786435">
        <ele>21.644</ele>
        <time>2021-05-05T11:35:05Z</time>
      </trkpt>
      <trkpt lat="38.200277" lon="-0.786396">
        <ele>21.705</ele>
        <time>2021-05-05T11:35:06Z</time>
      </trkpt>
      <trkpt lat="38.200365" lon="-0.786306">
        <ele>21.515</ele>
        <time>2021-05-05T11:35:09Z</time>
      </trkpt>
      <trkpt lat="38.200439" lon="-0.786224">
        <ele>21.408</ele>
        <time>2021-05-05T11:35:11Z</time>
      </trkpt>
      <trkpt lat="38.200476" lon="-0.786189">
        <ele>21.181</ele>
        <time>2021-05-05T11:35:12Z</time>
      </trkpt>
      <trkpt lat="38.200551" lon="-0.786126">
        <ele>20.726</ele>
        <time>2021-05-05T11:35:14Z</time>
      </trkpt>
      <trkpt lat="38.200588" lon="-0.786090">
        <ele>20.636</ele>
        <time>2021-05-05T11:35:15Z</time>
      </trkpt>
      <trkpt lat="38.200660" lon="-0.786021">
        <ele>20.969</ele>
        <time>2021-05-05T11:35:17Z</time>
      </trkpt>
      <trkpt lat="38.200729" lon="-0.785957">
        <ele>21.119</ele>
        <time>2021-05-05T11:35:19Z</time>
      </trkpt>
      <trkpt lat="38.200796" lon="-0.785890">
        <ele>21.721</ele>
        <time>2021-05-05T11:35:21Z</time>
      </trkpt>
      <trkpt lat="38.200869" lon="-0.785815">
        <ele>22.048</ele>
        <time>2021-05-05T11:35:23Z</time>
      </trkpt>
      <trkpt lat="38.200908" lon="-0.785782">
        <ele>22.433</ele>
        <time>2021-05-05T11:35:24Z</time>
      </trkpt>
      <trkpt lat="38.200947" lon="-0.785750">
        <ele>22.478</ele>
        <time>2021-05-05T11:35:25Z</time>
      </trkpt>
      <trkpt lat="38.201010" lon="-0.785680">
        <ele>22.633</ele>
        <time>2021-05-05T11:35:27Z</time>
      </trkpt>
      <trkpt lat="38.201088" lon="-0.785606">
        <ele>22.426</ele>
        <time>2021-05-05T11:35:29Z</time>
      </trkpt>
      <trkpt lat="38.201165" lon="-0.785535">
        <ele>22.608</ele>
        <time>2021-05-05T11:35:31Z</time>
      </trkpt>
      <trkpt lat="38.201205" lon="-0.785496">
        <ele>22.414</ele>
        <time>2021-05-05T11:35:32Z</time>
      </trkpt>
      <trkpt lat="38.201280" lon="-0.785422">
        <ele>21.999</ele>
        <time>2021-05-05T11:35:34Z</time>
      </trkpt>
      <trkpt lat="38.201314" lon="-0.785384">
        <ele>22.169</ele>
        <time>2021-05-05T11:35:35Z</time>
      </trkpt>
      <trkpt lat="38.201383" lon="-0.785309">
        <ele>22.382</ele>
        <time>2021-05-05T11:35:37Z</time>
      </trkpt>
      <trkpt lat="38.201459" lon="-0.785235">
        <ele>22.662</ele>
        <time>2021-05-05T11:35:39Z</time>
      </trkpt>
      <trkpt lat="38.201539" lon="-0.785155">
        <ele>22.884</ele>
        <time>2021-05-05T11:35:41Z</time>
      </trkpt>
      <trkpt lat="38.201615" lon="-0.785083">
        <ele>23.241</ele>
        <time>2021-05-05T11:35:43Z</time>
      </trkpt>
      <trkpt lat="38.201687" lon="-0.785003">
        <ele>23.216</ele>
        <time>2021-05-05T11:35:45Z</time>
      </trkpt>
      <trkpt lat="38.201762" lon="-0.784934">
        <ele>23.417</ele>
        <time>2021-05-05T11:35:47Z</time>
      </trkpt>
      <trkpt lat="38.201797" lon="-0.784894">
        <ele>23.387</ele>
        <time>2021-05-05T11:35:48Z</time>
      </trkpt>
      <trkpt lat="38.201831" lon="-0.784854">
        <ele>23.315</ele>
        <time>2021-05-05T11:35:49Z</time>
      </trkpt>
      <trkpt lat="38.201896" lon="-0.784769">
        <ele>23.608</ele>
        <time>2021-05-05T11:35:51Z</time>
      </trkpt>
      <trkpt lat="38.201928" lon="-0.784726">
        <ele>23.868</ele>
        <time>2021-05-05T11:35:52Z</time>
      </trkpt>
      <trkpt lat="38.201959" lon="-0.784679">
        <ele>23.873</ele>
        <time>2021-05-05T11:35:53Z</time>
      </trkpt>
      <trkpt lat="38.202028" lon="-0.784595">
        <ele>23.633</ele>
        <time>2021-05-05T11:35:55Z</time>
      </trkpt>
      <trkpt lat="38.202064" lon="-0.784554">
        <ele>23.716</ele>
        <time>2021-05-05T11:35:56Z</time>
      </trkpt>
      <trkpt lat="38.202133" lon="-0.784473">
        <ele>23.546</ele>
        <time>2021-05-05T11:35:58Z</time>
      </trkpt>
      <trkpt lat="38.202167" lon="-0.784430">
        <ele>23.568</ele>
        <time>2021-05-05T11:35:59Z</time>
      </trkpt>
      <trkpt lat="38.202201" lon="-0.784387">
        <ele>23.325</ele>
        <time>2021-05-05T11:36:00Z</time>
      </trkpt>
      <trkpt lat="38.202253" lon="-0.784298">
        <ele>22.960</ele>
        <time>2021-05-05T11:36:02Z</time>
      </trkpt>
      <trkpt lat="38.202317" lon="-0.784221">
        <ele>22.122</ele>
        <time>2021-05-05T11:36:04Z</time>
      </trkpt>
      <trkpt lat="38.202377" lon="-0.784146">
        <ele>21.962</ele>
        <time>2021-05-05T11:36:06Z</time>
      </trkpt>
      <trkpt lat="38.202448" lon="-0.784052">
        <ele>22.008</ele>
        <time>2021-05-05T11:36:08Z</time>
      </trkpt>
      <trkpt lat="38.202481" lon="-0.784008">
        <ele>22.108</ele>
        <time>2021-05-05T11:36:09Z</time>
      </trkpt>
      <trkpt lat="38.202544" lon="-0.783925">
        <ele>22.249</ele>
        <time>2021-05-05T11:36:11Z</time>
      </trkpt>
      <trkpt lat="38.202577" lon="-0.783881">
        <ele>22.684</ele>
        <time>2021-05-05T11:36:12Z</time>
      </trkpt>
      <trkpt lat="38.202646" lon="-0.783791">
        <ele>23.074</ele>
        <time>2021-05-05T11:36:14Z</time>
      </trkpt>
      <trkpt lat="38.202680" lon="-0.783747">
        <ele>23.117</ele>
        <time>2021-05-05T11:36:15Z</time>
      </trkpt>
      <trkpt lat="38.202748" lon="-0.783662">
        <ele>23.387</ele>
        <time>2021-05-05T11:36:17Z</time>
      </trkpt>
      <trkpt lat="38.202818" lon="-0.783575">
        <ele>22.969</ele>
        <time>2021-05-05T11:36:19Z</time>
      </trkpt>
      <trkpt lat="38.202854" lon="-0.783531">
        <ele>22.956</ele>
        <time>2021-05-05T11:36:20Z</time>
      </trkpt>
      <trkpt lat="38.202886" lon="-0.783486">
        <ele>22.451</ele>
        <time>2021-05-05T11:36:21Z</time>
      </trkpt>
      <trkpt lat="38.202957" lon="-0.783404">
        <ele>21.778</ele>
        <time>2021-05-05T11:36:23Z</time>
      </trkpt>
      <trkpt lat="38.202993" lon="-0.783357">
        <ele>21.433</ele>
        <time>2021-05-05T11:36:24Z</time>
      </trkpt>
      <trkpt lat="38.203059" lon="-0.783266">
        <ele>21.426</ele>
        <time>2021-05-05T11:36:26Z</time>
      </trkpt>
      <trkpt lat="38.203123" lon="-0.783184">
        <ele>21.808</ele>
        <time>2021-05-05T11:36:28Z</time>
      </trkpt>
      <trkpt lat="38.203185" lon="-0.783099">
        <ele>21.994</ele>
        <time>2021-05-05T11:36:30Z</time>
      </trkpt>
      <trkpt lat="38.203251" lon="-0.783017">
        <ele>21.869</ele>
        <time>2021-05-05T11:36:32Z</time>
      </trkpt>
      <trkpt lat="38.203286" lon="-0.782975">
        <ele>22.129</ele>
        <time>2021-05-05T11:36:33Z</time>
      </trkpt>
      <trkpt lat="38.203321" lon="-0.782933">
        <ele>22.282</ele>
        <time>2021-05-05T11:36:34Z</time>
      </trkpt>
      <trkpt lat="38.203382" lon="-0.782849">
        <ele>22.522</ele>
        <time>2021-05-05T11:36:36Z</time>
      </trkpt>
      <trkpt lat="38.203441" lon="-0.782767">
        <ele>21.694</ele>
        <time>2021-05-05T11:36:38Z</time>
      </trkpt>
      <trkpt lat="38.203503" lon="-0.782685">
        <ele>21.631</ele>
        <time>2021-05-05T11:36:40Z</time>
      </trkpt>
      <trkpt lat="38.203567" lon="-0.782597">
        <ele>21.756</ele>
        <time>2021-05-05T11:36:42Z</time>
      </trkpt>
      <trkpt lat="38.203598" lon="-0.782552">
        <ele>21.774</ele>
        <time>2021-05-05T11:36:43Z</time>
      </trkpt>
      <trkpt lat="38.203629" lon="-0.782509">
        <ele>22.156</ele>
        <time>2021-05-05T11:36:44Z</time>
      </trkpt>
      <trkpt lat="38.203662" lon="-0.782465">
        <ele>22.121</ele>
        <time>2021-05-05T11:36:45Z</time>
      </trkpt>
      <trkpt lat="38.203695" lon="-0.782421">
        <ele>22.008</ele>
        <time>2021-05-05T11:36:46Z</time>
      </trkpt>
      <trkpt lat="38.203771" lon="-0.782336">
        <ele>22.534</ele>
        <time>2021-05-05T11:36:48Z</time>
      </trkpt>
      <trkpt lat="38.203841" lon="-0.782255">
        <ele>22.539</ele>
        <time>2021-05-05T11:36:50Z</time>
      </trkpt>
      <trkpt lat="38.203903" lon="-0.782174">
        <ele>22.989</ele>
        <time>2021-05-05T11:36:52Z</time>
      </trkpt>
      <trkpt lat="38.203956" lon="-0.782097">
        <ele>23.212</ele>
        <time>2021-05-05T11:36:54Z</time>
      </trkpt>
      <trkpt lat="38.204003" lon="-0.782017">
        <ele>22.382</ele>
        <time>2021-05-05T11:36:56Z</time>
      </trkpt>
      <trkpt lat="38.204041" lon="-0.781972">
        <ele>22.634</ele>
        <time>2021-05-05T11:36:57Z</time>
      </trkpt>
      <trkpt lat="38.204109" lon="-0.781887">
        <ele>22.761</ele>
        <time>2021-05-05T11:36:59Z</time>
      </trkpt>
      <trkpt lat="38.204145" lon="-0.781846">
        <ele>22.336</ele>
        <time>2021-05-05T11:37:00Z</time>
      </trkpt>
      <trkpt lat="38.204181" lon="-0.781805">
        <ele>21.912</ele>
        <time>2021-05-05T11:37:01Z</time>
      </trkpt>
      <trkpt lat="38.204217" lon="-0.781761">
        <ele>21.932</ele>
        <time>2021-05-05T11:37:02Z</time>
      </trkpt>
      <trkpt lat="38.204276" lon="-0.781663">
        <ele>21.105</ele>
        <time>2021-05-05T11:37:04Z</time>
      </trkpt>
      <trkpt lat="38.204333" lon="-0.781572">
        <ele>20.608</ele>
        <time>2021-05-05T11:37:06Z</time>
      </trkpt>
      <trkpt lat="38.204367" lon="-0.781524">
        <ele>19.868</ele>
        <time>2021-05-05T11:37:07Z</time>
      </trkpt>
      <trkpt lat="38.204401" lon="-0.781476">
        <ele>19.473</ele>
        <time>2021-05-05T11:37:08Z</time>
      </trkpt>
      <trkpt lat="38.204434" lon="-0.781430">
        <ele>19.193</ele>
        <time>2021-05-05T11:37:09Z</time>
      </trkpt>
      <trkpt lat="38.204468" lon="-0.781381">
        <ele>19.016</ele>
        <time>2021-05-05T11:37:10Z</time>
      </trkpt>
      <trkpt lat="38.204505" lon="-0.781332">
        <ele>19.616</ele>
        <time>2021-05-05T11:37:11Z</time>
      </trkpt>
      <trkpt lat="38.204581" lon="-0.781246">
        <ele>19.688</ele>
        <time>2021-05-05T11:37:13Z</time>
      </trkpt>
      <trkpt lat="38.204619" lon="-0.781199">
        <ele>19.865</ele>
        <time>2021-05-05T11:37:14Z</time>
      </trkpt>
      <trkpt lat="38.204652" lon="-0.781150">
        <ele>19.730</ele>
        <time>2021-05-05T11:37:15Z</time>
      </trkpt>
      <trkpt lat="38.204686" lon="-0.781102">
        <ele>19.757</ele>
        <time>2021-05-05T11:37:16Z</time>
      </trkpt>
      <trkpt lat="38.204741" lon="-0.780996">
        <ele>19.600</ele>
        <time>2021-05-05T11:37:18Z</time>
      </trkpt>
      <trkpt lat="38.204766" lon="-0.780943">
        <ele>19.420</ele>
        <time>2021-05-05T11:37:19Z</time>
      </trkpt>
      <trkpt lat="38.204813" lon="-0.780832">
        <ele>19.808</ele>
        <time>2021-05-05T11:37:21Z</time>
      </trkpt>
      <trkpt lat="38.204845" lon="-0.780712">
        <ele>20.392</ele>
        <time>2021-05-05T11:37:23Z</time>
      </trkpt>
      <trkpt lat="38.204856" lon="-0.780650">
        <ele>20.757</ele>
        <time>2021-05-05T11:37:24Z</time>
      </trkpt>
      <trkpt lat="38.204873" lon="-0.780525">
        <ele>20.887</ele>
        <time>2021-05-05T11:37:26Z</time>
      </trkpt>
      <trkpt lat="38.204885" lon="-0.780389">
        <ele>21.460</ele>
        <time>2021-05-05T11:37:28Z</time>
      </trkpt>
      <trkpt lat="38.204892" lon="-0.780321">
        <ele>21.760</ele>
        <time>2021-05-05T11:37:29Z</time>
      </trkpt>
      <trkpt lat="38.204910" lon="-0.780189">
        <ele>22.042</ele>
        <time>2021-05-05T11:37:31Z</time>
      </trkpt>
      <trkpt lat="38.204927" lon="-0.780053">
        <ele>21.999</ele>
        <time>2021-05-05T11:37:33Z</time>
      </trkpt>
      <trkpt lat="38.204942" lon="-0.779922">
        <ele>21.614</ele>
        <time>2021-05-05T11:37:35Z</time>
      </trkpt>
      <trkpt lat="38.204952" lon="-0.779856">
        <ele>21.429</ele>
        <time>2021-05-05T11:37:36Z</time>
      </trkpt>
      <trkpt lat="38.204977" lon="-0.779725">
        <ele>21.400</ele>
        <time>2021-05-05T11:37:38Z</time>
      </trkpt>
      <trkpt lat="38.204987" lon="-0.779658">
        <ele>20.920</ele>
        <time>2021-05-05T11:37:39Z</time>
      </trkpt>
      <trkpt lat="38.205008" lon="-0.779521">
        <ele>20.708</ele>
        <time>2021-05-05T11:37:41Z</time>
      </trkpt>
      <trkpt lat="38.205016" lon="-0.779453">
        <ele>20.559</ele>
        <time>2021-05-05T11:37:42Z</time>
      </trkpt>
      <trkpt lat="38.205025" lon="-0.779387">
        <ele>20.264</ele>
        <time>2021-05-05T11:37:43Z</time>
      </trkpt>
      <trkpt lat="38.205052" lon="-0.779249">
        <ele>19.634</ele>
        <time>2021-05-05T11:37:45Z</time>
      </trkpt>
      <trkpt lat="38.205073" lon="-0.779127">
        <ele>19.317</ele>
        <time>2021-05-05T11:37:47Z</time>
      </trkpt>
      <trkpt lat="38.205085" lon="-0.779062">
        <ele>19.837</ele>
        <time>2021-05-05T11:37:48Z</time>
      </trkpt>
      <trkpt lat="38.205108" lon="-0.778932">
        <ele>19.919</ele>
        <time>2021-05-05T11:37:50Z</time>
      </trkpt>
      <trkpt lat="38.205120" lon="-0.778869">
        <ele>20.156</ele>
        <time>2021-05-05T11:37:51Z</time>
      </trkpt>
      <trkpt lat="38.205132" lon="-0.778806">
        <ele>20.271</ele>
        <time>2021-05-05T11:37:52Z</time>
      </trkpt>
      <trkpt lat="38.205149" lon="-0.778739">
        <ele>20.321</ele>
        <time>2021-05-05T11:37:53Z</time>
      </trkpt>
      <trkpt lat="38.205169" lon="-0.778666">
        <ele>20.641</ele>
        <time>2021-05-05T11:37:54Z</time>
      </trkpt>
      <trkpt lat="38.205211" lon="-0.778527">
        <ele>20.605</ele>
        <time>2021-05-05T11:37:56Z</time>
      </trkpt>
      <trkpt lat="38.205261" lon="-0.778391">
        <ele>20.508</ele>
        <time>2021-05-05T11:37:58Z</time>
      </trkpt>
      <trkpt lat="38.205291" lon="-0.778324">
        <ele>20.829</ele>
        <time>2021-05-05T11:37:59Z</time>
      </trkpt>
      <trkpt lat="38.205352" lon="-0.778196">
        <ele>20.494</ele>
        <time>2021-05-05T11:38:01Z</time>
      </trkpt>
      <trkpt lat="38.205406" lon="-0.778076">
        <ele>19.974</ele>
        <time>2021-05-05T11:38:03Z</time>
      </trkpt>
      <trkpt lat="38.205459" lon="-0.777954">
        <ele>19.957</ele>
        <time>2021-05-05T11:38:05Z</time>
      </trkpt>
      <trkpt lat="38.205488" lon="-0.777898">
        <ele>19.817</ele>
        <time>2021-05-05T11:38:06Z</time>
      </trkpt>
      <trkpt lat="38.205515" lon="-0.777837">
        <ele>19.719</ele>
        <time>2021-05-05T11:38:07Z</time>
      </trkpt>
      <trkpt lat="38.205536" lon="-0.777770">
        <ele>19.486</ele>
        <time>2021-05-05T11:38:08Z</time>
      </trkpt>
      <trkpt lat="38.205561" lon="-0.777706">
        <ele>19.251</ele>
        <time>2021-05-05T11:38:09Z</time>
      </trkpt>
      <trkpt lat="38.205589" lon="-0.777645">
        <ele>19.135</ele>
        <time>2021-05-05T11:38:10Z</time>
      </trkpt>
      <trkpt lat="38.205648" lon="-0.777527">
        <ele>19.186</ele>
        <time>2021-05-05T11:38:12Z</time>
      </trkpt>
      <trkpt lat="38.205679" lon="-0.777472">
        <ele>18.714</ele>
        <time>2021-05-05T11:38:13Z</time>
      </trkpt>
      <trkpt lat="38.205709" lon="-0.777414">
        <ele>19.108</ele>
        <time>2021-05-05T11:38:14Z</time>
      </trkpt>
      <trkpt lat="38.205762" lon="-0.777288">
        <ele>18.620</ele>
        <time>2021-05-05T11:38:16Z</time>
      </trkpt>
      <trkpt lat="38.205823" lon="-0.777158">
        <ele>18.565</ele>
        <time>2021-05-05T11:38:18Z</time>
      </trkpt>
      <trkpt lat="38.205853" lon="-0.777093">
        <ele>18.665</ele>
        <time>2021-05-05T11:38:19Z</time>
      </trkpt>
      <trkpt lat="38.205909" lon="-0.776953">
        <ele>18.628</ele>
        <time>2021-05-05T11:38:21Z</time>
      </trkpt>
      <trkpt lat="38.205956" lon="-0.776822">
        <ele>18.868</ele>
        <time>2021-05-05T11:38:23Z</time>
      </trkpt>
      <trkpt lat="38.205982" lon="-0.776762">
        <ele>18.990</ele>
        <time>2021-05-05T11:38:24Z</time>
      </trkpt>
      <trkpt lat="38.206042" lon="-0.776649">
        <ele>18.667</ele>
        <time>2021-05-05T11:38:26Z</time>
      </trkpt>
      <trkpt lat="38.206067" lon="-0.776593">
        <ele>18.432</ele>
        <time>2021-05-05T11:38:27Z</time>
      </trkpt>
      <trkpt lat="38.206093" lon="-0.776533">
        <ele>18.764</ele>
        <time>2021-05-05T11:38:28Z</time>
      </trkpt>
      <trkpt lat="38.206121" lon="-0.776477">
        <ele>18.606</ele>
        <time>2021-05-05T11:38:29Z</time>
      </trkpt>
      <trkpt lat="38.206175" lon="-0.776363">
        <ele>18.716</ele>
        <time>2021-05-05T11:38:31Z</time>
      </trkpt>
      <trkpt lat="38.206200" lon="-0.776300">
        <ele>18.108</ele>
        <time>2021-05-05T11:38:32Z</time>
      </trkpt>
      <trkpt lat="38.206259" lon="-0.776182">
        <ele>18.353</ele>
        <time>2021-05-05T11:38:34Z</time>
      </trkpt>
      <trkpt lat="38.206321" lon="-0.776065">
        <ele>18.468</ele>
        <time>2021-05-05T11:38:36Z</time>
      </trkpt>
      <trkpt lat="38.206347" lon="-0.776004">
        <ele>18.468</ele>
        <time>2021-05-05T11:38:37Z</time>
      </trkpt>
      <trkpt lat="38.206397" lon="-0.775894">
        <ele>18.251</ele>
        <time>2021-05-05T11:38:39Z</time>
      </trkpt>
      <trkpt lat="38.206445" lon="-0.775777">
        <ele>18.211</ele>
        <time>2021-05-05T11:38:41Z</time>
      </trkpt>
      <trkpt lat="38.206471" lon="-0.775720">
        <ele>17.983</ele>
        <time>2021-05-05T11:38:42Z</time>
      </trkpt>
      <trkpt lat="38.206498" lon="-0.775660">
        <ele>18.160</ele>
        <time>2021-05-05T11:38:43Z</time>
      </trkpt>
      <trkpt lat="38.206544" lon="-0.775526">
        <ele>17.715</ele>
        <time>2021-05-05T11:38:45Z</time>
      </trkpt>
      <trkpt lat="38.206594" lon="-0.775396">
        <ele>17.573</ele>
        <time>2021-05-05T11:38:47Z</time>
      </trkpt>
      <trkpt lat="38.206619" lon="-0.775325">
        <ele>17.185</ele>
        <time>2021-05-05T11:38:48Z</time>
      </trkpt>
      <trkpt lat="38.206674" lon="-0.775193">
        <ele>16.913</ele>
        <time>2021-05-05T11:38:50Z</time>
      </trkpt>
      <trkpt lat="38.206730" lon="-0.775067">
        <ele>17.108</ele>
        <time>2021-05-05T11:38:52Z</time>
      </trkpt>
      <trkpt lat="38.206790" lon="-0.774943">
        <ele>17.644</ele>
        <time>2021-05-05T11:38:54Z</time>
      </trkpt>
      <trkpt lat="38.206848" lon="-0.774826">
        <ele>17.869</ele>
        <time>2021-05-05T11:38:56Z</time>
      </trkpt>
      <trkpt lat="38.206877" lon="-0.774765">
        <ele>17.589</ele>
        <time>2021-05-05T11:38:57Z</time>
      </trkpt>
      <trkpt lat="38.206908" lon="-0.774704">
        <ele>18.092</ele>
        <time>2021-05-05T11:38:58Z</time>
      </trkpt>
      <trkpt lat="38.206962" lon="-0.774584">
        <ele>18.172</ele>
        <time>2021-05-05T11:39:00Z</time>
      </trkpt>
      <trkpt lat="38.206991" lon="-0.774519">
        <ele>18.744</ele>
        <time>2021-05-05T11:39:01Z</time>
      </trkpt>
      <trkpt lat="38.207018" lon="-0.774456">
        <ele>18.951</ele>
        <time>2021-05-05T11:39:02Z</time>
      </trkpt>
      <trkpt lat="38.207075" lon="-0.774332">
        <ele>19.746</ele>
        <time>2021-05-05T11:39:04Z</time>
      </trkpt>
      <trkpt lat="38.207101" lon="-0.774267">
        <ele>20.556</ele>
        <time>2021-05-05T11:39:05Z</time>
      </trkpt>
      <trkpt lat="38.207153" lon="-0.774137">
        <ele>20.759</ele>
        <time>2021-05-05T11:39:07Z</time>
      </trkpt>
      <trkpt lat="38.207181" lon="-0.774069">
        <ele>20.014</ele>
        <time>2021-05-05T11:39:08Z</time>
      </trkpt>
      <trkpt lat="38.207211" lon="-0.774000">
        <ele>20.608</ele>
        <time>2021-05-05T11:39:09Z</time>
      </trkpt>
      <trkpt lat="38.207277" lon="-0.773870">
        <ele>20.962</ele>
        <time>2021-05-05T11:39:11Z</time>
      </trkpt>
      <trkpt lat="38.207310" lon="-0.773809">
        <ele>21.097</ele>
        <time>2021-05-05T11:39:12Z</time>
      </trkpt>
      <trkpt lat="38.207370" lon="-0.773683">
        <ele>21.037</ele>
        <time>2021-05-05T11:39:14Z</time>
      </trkpt>
      <trkpt lat="38.207422" lon="-0.773552">
        <ele>21.180</ele>
        <time>2021-05-05T11:39:16Z</time>
      </trkpt>
      <trkpt lat="38.207451" lon="-0.773491">
        <ele>21.450</ele>
        <time>2021-05-05T11:39:17Z</time>
      </trkpt>
      <trkpt lat="38.207479" lon="-0.773429">
        <ele>21.932</ele>
        <time>2021-05-05T11:39:18Z</time>
      </trkpt>
      <trkpt lat="38.207526" lon="-0.773316">
        <ele>22.169</ele>
        <time>2021-05-05T11:39:20Z</time>
      </trkpt>
      <trkpt lat="38.207575" lon="-0.773209">
        <ele>22.514</ele>
        <time>2021-05-05T11:39:22Z</time>
      </trkpt>
      <trkpt lat="38.207601" lon="-0.773160">
        <ele>22.472</ele>
        <time>2021-05-05T11:39:23Z</time>
      </trkpt>
      <trkpt lat="38.207647" lon="-0.773054">
        <ele>22.513</ele>
        <time>2021-05-05T11:39:25Z</time>
      </trkpt>
      <trkpt lat="38.207669" lon="-0.772998">
        <ele>22.614</ele>
        <time>2021-05-05T11:39:26Z</time>
      </trkpt>
      <trkpt lat="38.207717" lon="-0.772887">
        <ele>22.908</ele>
        <time>2021-05-05T11:39:28Z</time>
      </trkpt>
      <trkpt lat="38.207739" lon="-0.772830">
        <ele>22.844</ele>
        <time>2021-05-05T11:39:29Z</time>
      </trkpt>
      <trkpt lat="38.207763" lon="-0.772772">
        <ele>23.329</ele>
        <time>2021-05-05T11:39:30Z</time>
      </trkpt>
      <trkpt lat="38.207786" lon="-0.772713">
        <ele>23.849</ele>
        <time>2021-05-05T11:39:31Z</time>
      </trkpt>
      <trkpt lat="38.207827" lon="-0.772595">
        <ele>24.022</ele>
        <time>2021-05-05T11:39:33Z</time>
      </trkpt>
      <trkpt lat="38.207872" lon="-0.772471">
        <ele>24.452</ele>
        <time>2021-05-05T11:39:35Z</time>
      </trkpt>
      <trkpt lat="38.207896" lon="-0.772410">
        <ele>24.494</ele>
        <time>2021-05-05T11:39:36Z</time>
      </trkpt>
      <trkpt lat="38.207923" lon="-0.772347">
        <ele>24.261</ele>
        <time>2021-05-05T11:39:37Z</time>
      </trkpt>
      <trkpt lat="38.207976" lon="-0.772220">
        <ele>24.346</ele>
        <time>2021-05-05T11:39:39Z</time>
      </trkpt>
      <trkpt lat="38.207998" lon="-0.772158">
        <ele>23.972</ele>
        <time>2021-05-05T11:39:40Z</time>
      </trkpt>
      <trkpt lat="38.208020" lon="-0.772096">
        <ele>23.613</ele>
        <time>2021-05-05T11:39:41Z</time>
      </trkpt>
      <trkpt lat="38.208042" lon="-0.772033">
        <ele>23.314</ele>
        <time>2021-05-05T11:39:42Z</time>
      </trkpt>
      <trkpt lat="38.208086" lon="-0.771903">
        <ele>23.108</ele>
        <time>2021-05-05T11:39:44Z</time>
      </trkpt>
      <trkpt lat="38.208131" lon="-0.771770">
        <ele>22.514</ele>
        <time>2021-05-05T11:39:46Z</time>
      </trkpt>
      <trkpt lat="38.208168" lon="-0.771634">
        <ele>22.089</ele>
        <time>2021-05-05T11:39:48Z</time>
      </trkpt>
      <trkpt lat="38.208204" lon="-0.771496">
        <ele>21.939</ele>
        <time>2021-05-05T11:39:50Z</time>
      </trkpt>
      <trkpt lat="38.208232" lon="-0.771360">
        <ele>21.632</ele>
        <time>2021-05-05T11:39:52Z</time>
      </trkpt>
      <trkpt lat="38.208240" lon="-0.771291">
        <ele>21.382</ele>
        <time>2021-05-05T11:39:53Z</time>
      </trkpt>
      <trkpt lat="38.208257" lon="-0.771150">
        <ele>21.134</ele>
        <time>2021-05-05T11:39:55Z</time>
      </trkpt>
      <trkpt lat="38.208266" lon="-0.771078">
        <ele>20.921</ele>
        <time>2021-05-05T11:39:56Z</time>
      </trkpt>
      <trkpt lat="38.208284" lon="-0.770937">
        <ele>20.816</ele>
        <time>2021-05-05T11:39:58Z</time>
      </trkpt>
      <trkpt lat="38.208292" lon="-0.770866">
        <ele>20.746</ele>
        <time>2021-05-05T11:39:59Z</time>
      </trkpt>
      <trkpt lat="38.208308" lon="-0.770725">
        <ele>20.388</ele>
        <time>2021-05-05T11:40:01Z</time>
      </trkpt>
      <trkpt lat="38.208323" lon="-0.770590">
        <ele>20.316</ele>
        <time>2021-05-05T11:40:03Z</time>
      </trkpt>
      <trkpt lat="38.208340" lon="-0.770462">
        <ele>20.208</ele>
        <time>2021-05-05T11:40:05Z</time>
      </trkpt>
      <trkpt lat="38.208357" lon="-0.770333">
        <ele>20.461</ele>
        <time>2021-05-05T11:40:07Z</time>
      </trkpt>
      <trkpt lat="38.208374" lon="-0.770199">
        <ele>20.656</ele>
        <time>2021-05-05T11:40:09Z</time>
      </trkpt>
      <trkpt lat="38.208385" lon="-0.770064">
        <ele>20.716</ele>
        <time>2021-05-05T11:40:11Z</time>
      </trkpt>
      <trkpt lat="38.208400" lon="-0.769927">
        <ele>20.659</ele>
        <time>2021-05-05T11:40:13Z</time>
      </trkpt>
      <trkpt lat="38.208408" lon="-0.769859">
        <ele>20.849</ele>
        <time>2021-05-05T11:40:14Z</time>
      </trkpt>
      <trkpt lat="38.208422" lon="-0.769722">
        <ele>20.761</ele>
        <time>2021-05-05T11:40:16Z</time>
      </trkpt>
      <trkpt lat="38.208439" lon="-0.769583">
        <ele>20.718</ele>
        <time>2021-05-05T11:40:18Z</time>
      </trkpt>
      <trkpt lat="38.208456" lon="-0.769441">
        <ele>20.343</ele>
        <time>2021-05-05T11:40:20Z</time>
      </trkpt>
      <trkpt lat="38.208469" lon="-0.769297">
        <ele>20.377</ele>
        <time>2021-05-05T11:40:22Z</time>
      </trkpt>
      <trkpt lat="38.208484" lon="-0.769159">
        <ele>19.961</ele>
        <time>2021-05-05T11:40:24Z</time>
      </trkpt>
      <trkpt lat="38.208501" lon="-0.769023">
        <ele>19.827</ele>
        <time>2021-05-05T11:40:26Z</time>
      </trkpt>
      <trkpt lat="38.208515" lon="-0.768884">
        <ele>19.708</ele>
        <time>2021-05-05T11:40:28Z</time>
      </trkpt>
      <trkpt lat="38.208528" lon="-0.768746">
        <ele>19.714</ele>
        <time>2021-05-05T11:40:30Z</time>
      </trkpt>
      <trkpt lat="38.208539" lon="-0.768610">
        <ele>19.529</ele>
        <time>2021-05-05T11:40:32Z</time>
      </trkpt>
      <trkpt lat="38.208552" lon="-0.768474">
        <ele>19.639</ele>
        <time>2021-05-05T11:40:34Z</time>
      </trkpt>
      <trkpt lat="38.208560" lon="-0.768343">
        <ele>19.622</ele>
        <time>2021-05-05T11:40:36Z</time>
      </trkpt>
      <trkpt lat="38.208564" lon="-0.768278">
        <ele>19.712</ele>
        <time>2021-05-05T11:40:37Z</time>
      </trkpt>
      <trkpt lat="38.208566" lon="-0.768213">
        <ele>19.894</ele>
        <time>2021-05-05T11:40:38Z</time>
      </trkpt>
      <trkpt lat="38.208568" lon="-0.768091">
        <ele>19.651</ele>
        <time>2021-05-05T11:40:40Z</time>
      </trkpt>
      <trkpt lat="38.208569" lon="-0.768027">
        <ele>19.866</ele>
        <time>2021-05-05T11:40:41Z</time>
      </trkpt>
      <trkpt lat="38.208571" lon="-0.767964">
        <ele>20.119</ele>
        <time>2021-05-05T11:40:42Z</time>
      </trkpt>
      <trkpt lat="38.208570" lon="-0.767902">
        <ele>20.409</ele>
        <time>2021-05-05T11:40:43Z</time>
      </trkpt>
      <trkpt lat="38.208568" lon="-0.767783">
        <ele>20.919</ele>
        <time>2021-05-05T11:40:45Z</time>
      </trkpt>
      <trkpt lat="38.208571" lon="-0.767685">
        <ele>21.108</ele>
        <time>2021-05-05T11:40:47Z</time>
      </trkpt>
      <trkpt lat="38.208571" lon="-0.767590">
        <ele>21.638</ele>
        <time>2021-05-05T11:40:49Z</time>
      </trkpt>
      <trkpt lat="38.208576" lon="-0.767513">
        <ele>21.863</ele>
        <time>2021-05-05T11:40:51Z</time>
      </trkpt>
      <trkpt lat="38.208578" lon="-0.767449">
        <ele>22.073</ele>
        <time>2021-05-05T11:40:52Z</time>
      </trkpt>
      <trkpt lat="38.208600" lon="-0.767375">
        <ele>21.996</ele>
        <time>2021-05-05T11:40:55Z</time>
      </trkpt>
      <trkpt lat="38.208596" lon="-0.767299">
        <ele>21.986</ele>
        <time>2021-05-05T11:40:56Z</time>
      </trkpt>
      <trkpt lat="38.208600" lon="-0.767229">
        <ele>22.578</ele>
        <time>2021-05-05T11:40:58Z</time>
      </trkpt>
      <trkpt lat="38.208612" lon="-0.767164">
        <ele>22.675</ele>
        <time>2021-05-05T11:41:01Z</time>
      </trkpt>
      <trkpt lat="38.208619" lon="-0.767094">
        <ele>23.130</ele>
        <time>2021-05-05T11:41:03Z</time>
      </trkpt>
      <trkpt lat="38.208635" lon="-0.767025">
        <ele>23.293</ele>
        <time>2021-05-05T11:41:06Z</time>
      </trkpt>
      <trkpt lat="38.208658" lon="-0.766969">
        <ele>23.165</ele>
        <time>2021-05-05T11:41:10Z</time>
      </trkpt>
      <trkpt lat="38.208671" lon="-0.766897">
        <ele>23.021</ele>
        <time>2021-05-05T11:41:14Z</time>
      </trkpt>
      <trkpt lat="38.208683" lon="-0.766840">
        <ele>22.908</ele>
        <time>2021-05-05T11:41:16Z</time>
      </trkpt>
      <trkpt lat="38.208647" lon="-0.766778">
        <ele>23.156</ele>
        <time>2021-05-05T11:41:19Z</time>
      </trkpt>
      <trkpt lat="38.208604" lon="-0.766756">
        <ele>23.591</ele>
        <time>2021-05-05T11:41:21Z</time>
      </trkpt>
      <trkpt lat="38.208577" lon="-0.766807">
        <ele>23.811</ele>
        <time>2021-05-05T11:41:25Z</time>
      </trkpt>
      <trkpt lat="38.208627" lon="-0.766795">
        <ele>24.064</ele>
        <time>2021-05-05T11:45:13Z</time>
      </trkpt>
      <trkpt lat="38.208673" lon="-0.766752">
        <ele>24.584</ele>
        <time>2021-05-05T11:45:17Z</time>
      </trkpt>
      <trkpt lat="38.208712" lon="-0.766714">
        <ele>24.736</ele>
        <time>2021-05-05T11:45:21Z</time>
      </trkpt>
      <trkpt lat="38.208719" lon="-0.766636">
        <ele>24.943</ele>
        <time>2021-05-05T11:45:24Z</time>
      </trkpt>
      <trkpt lat="38.208716" lon="-0.766562">
        <ele>24.338</ele>
        <time>2021-05-05T11:46:55Z</time>
      </trkpt>
      <trkpt lat="38.208739" lon="-0.766471">
        <ele>23.561</ele>
        <time>2021-05-05T11:46:57Z</time>
      </trkpt>
      <trkpt lat="38.208750" lon="-0.766415">
        <ele>23.121</ele>
        <time>2021-05-05T11:46:58Z</time>
      </trkpt>
      <trkpt lat="38.208770" lon="-0.766302">
        <ele>22.713</ele>
        <time>2021-05-05T11:46:59Z</time>
      </trkpt>
      <trkpt lat="38.208785" lon="-0.766197">
        <ele>22.308</ele>
        <time>2021-05-05T11:47:01Z</time>
      </trkpt>
      <trkpt lat="38.208797" lon="-0.766099">
        <ele>21.913</ele>
        <time>2021-05-05T11:47:03Z</time>
      </trkpt>
      <trkpt lat="38.208805" lon="-0.766028">
        <ele>21.748</ele>
        <time>2021-05-05T11:47:05Z</time>
      </trkpt>
      <trkpt lat="38.208809" lon="-0.765969">
        <ele>21.538</ele>
        <time>2021-05-05T11:47:06Z</time>
      </trkpt>
      <trkpt lat="38.208813" lon="-0.765868">
        <ele>21.631</ele>
        <time>2021-05-05T11:47:07Z</time>
      </trkpt>
      <trkpt lat="38.208814" lon="-0.765795">
        <ele>21.311</ele>
        <time>2021-05-05T11:47:09Z</time>
      </trkpt>
      <trkpt lat="38.208813" lon="-0.765689">
        <ele>21.373</ele>
        <time>2021-05-05T11:47:11Z</time>
      </trkpt>
      <trkpt lat="38.208807" lon="-0.765597">
        <ele>21.250</ele>
        <time>2021-05-05T11:47:12Z</time>
      </trkpt>
      <trkpt lat="38.208796" lon="-0.765489">
        <ele>21.185</ele>
        <time>2021-05-05T11:47:14Z</time>
      </trkpt>
      <trkpt lat="38.208789" lon="-0.765376">
        <ele>21.079</ele>
        <time>2021-05-05T11:47:17Z</time>
      </trkpt>
      <trkpt lat="38.208784" lon="-0.765301">
        <ele>20.805</ele>
        <time>2021-05-05T11:47:18Z</time>
      </trkpt>
      <trkpt lat="38.208778" lon="-0.765227">
        <ele>20.625</ele>
        <time>2021-05-05T11:47:19Z</time>
      </trkpt>
      <trkpt lat="38.208772" lon="-0.765163">
        <ele>20.308</ele>
        <time>2021-05-05T11:47:20Z</time>
      </trkpt>
      <trkpt lat="38.208762" lon="-0.765049">
        <ele>20.424</ele>
        <time>2021-05-05T11:47:23Z</time>
      </trkpt>
      <trkpt lat="38.208747" lon="-0.764982">
        <ele>20.569</ele>
        <time>2021-05-05T11:47:24Z</time>
      </trkpt>
      <trkpt lat="38.208732" lon="-0.764861">
        <ele>20.699</ele>
        <time>2021-05-05T11:47:26Z</time>
      </trkpt>
      <trkpt lat="38.208721" lon="-0.764743">
        <ele>20.622</ele>
        <time>2021-05-05T11:47:28Z</time>
      </trkpt>
      <trkpt lat="38.208717" lon="-0.764683">
        <ele>20.342</ele>
        <time>2021-05-05T11:47:29Z</time>
      </trkpt>
      <trkpt lat="38.208708" lon="-0.764565">
        <ele>19.984</ele>
        <time>2021-05-05T11:47:31Z</time>
      </trkpt>
      <trkpt lat="38.208696" lon="-0.764447">
        <ele>19.681</ele>
        <time>2021-05-05T11:47:33Z</time>
      </trkpt>
      <trkpt lat="38.208683" lon="-0.764330">
        <ele>19.516</ele>
        <time>2021-05-05T11:47:35Z</time>
      </trkpt>
      <trkpt lat="38.208670" lon="-0.764213">
        <ele>19.467</ele>
        <time>2021-05-05T11:47:37Z</time>
      </trkpt>
      <trkpt lat="38.208658" lon="-0.764097">
        <ele>19.181</ele>
        <time>2021-05-05T11:47:39Z</time>
      </trkpt>
      <trkpt lat="38.208649" lon="-0.763981">
        <ele>19.019</ele>
        <time>2021-05-05T11:47:41Z</time>
      </trkpt>
      <trkpt lat="38.208644" lon="-0.763921">
        <ele>19.008</ele>
        <time>2021-05-05T11:47:42Z</time>
      </trkpt>
      <trkpt lat="38.208639" lon="-0.763860">
        <ele>19.063</ele>
        <time>2021-05-05T11:47:43Z</time>
      </trkpt>
      <trkpt lat="38.208628" lon="-0.763742">
        <ele>18.638</ele>
        <time>2021-05-05T11:47:45Z</time>
      </trkpt>
      <trkpt lat="38.208617" lon="-0.763626">
        <ele>18.558</ele>
        <time>2021-05-05T11:47:47Z</time>
      </trkpt>
      <trkpt lat="38.208601" lon="-0.763508">
        <ele>18.651</ele>
        <time>2021-05-05T11:47:49Z</time>
      </trkpt>
      <trkpt lat="38.208593" lon="-0.763450">
        <ele>18.411</ele>
        <time>2021-05-05T11:47:50Z</time>
      </trkpt>
      <trkpt lat="38.208578" lon="-0.763330">
        <ele>18.293</ele>
        <time>2021-05-05T11:47:52Z</time>
      </trkpt>
      <trkpt lat="38.208571" lon="-0.763271">
        <ele>18.150</ele>
        <time>2021-05-05T11:47:53Z</time>
      </trkpt>
      <trkpt lat="38.208562" lon="-0.763211">
        <ele>18.295</ele>
        <time>2021-05-05T11:47:54Z</time>
      </trkpt>
      <trkpt lat="38.208542" lon="-0.763092">
        <ele>18.023</ele>
        <time>2021-05-05T11:47:56Z</time>
      </trkpt>
      <trkpt lat="38.208520" lon="-0.762975">
        <ele>18.083</ele>
        <time>2021-05-05T11:47:58Z</time>
      </trkpt>
      <trkpt lat="38.208497" lon="-0.762860">
        <ele>18.211</ele>
        <time>2021-05-05T11:48:00Z</time>
      </trkpt>
      <trkpt lat="38.208473" lon="-0.762750">
        <ele>18.408</ele>
        <time>2021-05-05T11:48:02Z</time>
      </trkpt>
      <trkpt lat="38.208454" lon="-0.762646">
        <ele>18.569</ele>
        <time>2021-05-05T11:48:04Z</time>
      </trkpt>
      <trkpt lat="38.208432" lon="-0.762543">
        <ele>18.524</ele>
        <time>2021-05-05T11:48:06Z</time>
      </trkpt>
      <trkpt lat="38.208408" lon="-0.762436">
        <ele>18.924</ele>
        <time>2021-05-05T11:48:08Z</time>
      </trkpt>
      <trkpt lat="38.208373" lon="-0.762360">
        <ele>19.317</ele>
        <time>2021-05-05T11:48:09Z</time>
      </trkpt>
      <trkpt lat="38.208361" lon="-0.762291">
        <ele>19.447</ele>
        <time>2021-05-05T11:48:11Z</time>
      </trkpt>
      <trkpt lat="38.208346" lon="-0.762180">
        <ele>19.789</ele>
        <time>2021-05-05T11:48:13Z</time>
      </trkpt>
      <trkpt lat="38.208336" lon="-0.762101">
        <ele>19.766</ele>
        <time>2021-05-05T11:48:14Z</time>
      </trkpt>
      <trkpt lat="38.208324" lon="-0.762033">
        <ele>19.671</ele>
        <time>2021-05-05T11:48:15Z</time>
      </trkpt>
      <trkpt lat="38.208306" lon="-0.761946">
        <ele>19.719</ele>
        <time>2021-05-05T11:48:17Z</time>
      </trkpt>
      <trkpt lat="38.208289" lon="-0.761879">
        <ele>20.009</ele>
        <time>2021-05-05T11:48:19Z</time>
      </trkpt>
      <trkpt lat="38.208272" lon="-0.761808">
        <ele>20.219</ele>
        <time>2021-05-05T11:48:20Z</time>
      </trkpt>
      <trkpt lat="38.208254" lon="-0.761719">
        <ele>20.208</ele>
        <time>2021-05-05T11:48:22Z</time>
      </trkpt>
      <trkpt lat="38.208235" lon="-0.761628">
        <ele>20.468</ele>
        <time>2021-05-05T11:48:23Z</time>
      </trkpt>
      <trkpt lat="38.208221" lon="-0.761540">
        <ele>20.483</ele>
        <time>2021-05-05T11:48:25Z</time>
      </trkpt>
      <trkpt lat="38.208204" lon="-0.761457">
        <ele>20.553</ele>
        <time>2021-05-05T11:48:27Z</time>
      </trkpt>
      <trkpt lat="38.208185" lon="-0.761382">
        <ele>20.596</ele>
        <time>2021-05-05T11:48:28Z</time>
      </trkpt>
      <trkpt lat="38.208164" lon="-0.761306">
        <ele>20.436</ele>
        <time>2021-05-05T11:48:30Z</time>
      </trkpt>
      <trkpt lat="38.208143" lon="-0.761207">
        <ele>20.678</ele>
        <time>2021-05-05T11:48:32Z</time>
      </trkpt>
      <trkpt lat="38.208121" lon="-0.761115">
        <ele>20.655</ele>
        <time>2021-05-05T11:48:33Z</time>
      </trkpt>
      <trkpt lat="38.208107" lon="-0.761056">
        <ele>20.640</ele>
        <time>2021-05-05T11:48:35Z</time>
      </trkpt>
      <trkpt lat="38.208081" lon="-0.760965">
        <ele>20.627</ele>
        <time>2021-05-05T11:48:36Z</time>
      </trkpt>
      <trkpt lat="38.208045" lon="-0.760854">
        <ele>20.868</ele>
        <time>2021-05-05T11:48:39Z</time>
      </trkpt>
      <trkpt lat="38.208006" lon="-0.760758">
        <ele>21.114</ele>
        <time>2021-05-05T11:48:41Z</time>
      </trkpt>
      <trkpt lat="38.207976" lon="-0.760693">
        <ele>21.408</ele>
        <time>2021-05-05T11:48:42Z</time>
      </trkpt>
      <trkpt lat="38.207939" lon="-0.760621">
        <ele>21.679</ele>
        <time>2021-05-05T11:48:44Z</time>
      </trkpt>
      <trkpt lat="38.207906" lon="-0.760560">
        <ele>21.644</ele>
        <time>2021-05-05T11:48:45Z</time>
      </trkpt>
      <trkpt lat="38.207871" lon="-0.760494">
        <ele>22.094</ele>
        <time>2021-05-05T11:48:46Z</time>
      </trkpt>
      <trkpt lat="38.207828" lon="-0.760428">
        <ele>22.257</ele>
        <time>2021-05-05T11:48:48Z</time>
      </trkpt>
      <trkpt lat="38.207787" lon="-0.760366">
        <ele>22.297</ele>
        <time>2021-05-05T11:48:49Z</time>
      </trkpt>
      <trkpt lat="38.207734" lon="-0.760277">
        <ele>22.349</ele>
        <time>2021-05-05T11:48:51Z</time>
      </trkpt>
      <trkpt lat="38.207704" lon="-0.760227">
        <ele>22.256</ele>
        <time>2021-05-05T11:48:53Z</time>
      </trkpt>
      <trkpt lat="38.207664" lon="-0.760155">
        <ele>22.151</ele>
        <time>2021-05-05T11:48:54Z</time>
      </trkpt>
      <trkpt lat="38.207638" lon="-0.760104">
        <ele>22.463</ele>
        <time>2021-05-05T11:48:55Z</time>
      </trkpt>
      <trkpt lat="38.207592" lon="-0.760017">
        <ele>22.544</ele>
        <time>2021-05-05T11:48:57Z</time>
      </trkpt>
      <trkpt lat="38.207566" lon="-0.759957">
        <ele>22.818</ele>
        <time>2021-05-05T11:48:58Z</time>
      </trkpt>
      <trkpt lat="38.207543" lon="-0.759894">
        <ele>22.608</ele>
        <time>2021-05-05T11:48:59Z</time>
      </trkpt>
      <trkpt lat="38.207518" lon="-0.759839">
        <ele>22.333</ele>
        <time>2021-05-05T11:49:01Z</time>
      </trkpt>
      <trkpt lat="38.207481" lon="-0.759744">
        <ele>22.578</ele>
        <time>2021-05-05T11:49:03Z</time>
      </trkpt>
      <trkpt lat="38.207448" lon="-0.759647">
        <ele>22.678</ele>
        <time>2021-05-05T11:49:05Z</time>
      </trkpt>
      <trkpt lat="38.207409" lon="-0.759546">
        <ele>22.541</ele>
        <time>2021-05-05T11:49:07Z</time>
      </trkpt>
      <trkpt lat="38.207387" lon="-0.759477">
        <ele>22.781</ele>
        <time>2021-05-05T11:49:08Z</time>
      </trkpt>
      <trkpt lat="38.207363" lon="-0.759397">
        <ele>22.543</ele>
        <time>2021-05-05T11:49:10Z</time>
      </trkpt>
      <trkpt lat="38.207335" lon="-0.759310">
        <ele>22.580</ele>
        <time>2021-05-05T11:49:11Z</time>
      </trkpt>
      <trkpt lat="38.207302" lon="-0.759210">
        <ele>22.735</ele>
        <time>2021-05-05T11:49:14Z</time>
      </trkpt>
      <trkpt lat="38.207278" lon="-0.759134">
        <ele>22.679</ele>
        <time>2021-05-05T11:49:15Z</time>
      </trkpt>
      <trkpt lat="38.207244" lon="-0.759036">
        <ele>22.505</ele>
        <time>2021-05-05T11:49:17Z</time>
      </trkpt>
      <trkpt lat="38.207219" lon="-0.758959">
        <ele>22.425</ele>
        <time>2021-05-05T11:49:19Z</time>
      </trkpt>
      <trkpt lat="38.207192" lon="-0.758881">
        <ele>22.308</ele>
        <time>2021-05-05T11:49:20Z</time>
      </trkpt>
      <trkpt lat="38.207169" lon="-0.758813">
        <ele>22.424</ele>
        <time>2021-05-05T11:49:21Z</time>
      </trkpt>
      <trkpt lat="38.207151" lon="-0.758755">
        <ele>22.699</ele>
        <time>2021-05-05T11:49:23Z</time>
      </trkpt>
      <trkpt lat="38.207121" lon="-0.758639">
        <ele>22.329</ele>
        <time>2021-05-05T11:49:25Z</time>
      </trkpt>
      <trkpt lat="38.207094" lon="-0.758545">
        <ele>22.392</ele>
        <time>2021-05-05T11:49:27Z</time>
      </trkpt>
      <trkpt lat="38.207062" lon="-0.758430">
        <ele>22.082</ele>
        <time>2021-05-05T11:49:29Z</time>
      </trkpt>
      <trkpt lat="38.207040" lon="-0.758329">
        <ele>21.854</ele>
        <time>2021-05-05T11:49:31Z</time>
      </trkpt>
      <trkpt lat="38.207027" lon="-0.758268">
        <ele>21.781</ele>
        <time>2021-05-05T11:49:32Z</time>
      </trkpt>
      <trkpt lat="38.207014" lon="-0.758208">
        <ele>21.566</ele>
        <time>2021-05-05T11:49:33Z</time>
      </trkpt>
      <trkpt lat="38.207004" lon="-0.758150">
        <ele>21.629</ele>
        <time>2021-05-05T11:49:34Z</time>
      </trkpt>
      <trkpt lat="38.206987" lon="-0.758038">
        <ele>21.500</ele>
        <time>2021-05-05T11:49:36Z</time>
      </trkpt>
      <trkpt lat="38.206971" lon="-0.757929">
        <ele>21.120</ele>
        <time>2021-05-05T11:49:38Z</time>
      </trkpt>
      <trkpt lat="38.206934" lon="-0.757872">
        <ele>21.108</ele>
        <time>2021-05-05T11:49:39Z</time>
      </trkpt>
      <trkpt lat="38.206922" lon="-0.757801">
        <ele>21.429</ele>
        <time>2021-05-05T11:49:40Z</time>
      </trkpt>
      <trkpt lat="38.206931" lon="-0.757717">
        <ele>21.454</ele>
        <time>2021-05-05T11:49:42Z</time>
      </trkpt>
      <trkpt lat="38.206916" lon="-0.757596">
        <ele>21.514</ele>
        <time>2021-05-05T11:49:44Z</time>
      </trkpt>
      <trkpt lat="38.206897" lon="-0.757482">
        <ele>21.687</ele>
        <time>2021-05-05T11:49:46Z</time>
      </trkpt>
      <trkpt lat="38.206889" lon="-0.757425">
        <ele>21.427</ele>
        <time>2021-05-05T11:49:47Z</time>
      </trkpt>
      <trkpt lat="38.206873" lon="-0.757310">
        <ele>21.659</ele>
        <time>2021-05-05T11:49:49Z</time>
      </trkpt>
      <trkpt lat="38.206851" lon="-0.757190">
        <ele>21.926</ele>
        <time>2021-05-05T11:49:51Z</time>
      </trkpt>
      <trkpt lat="38.206839" lon="-0.757127">
        <ele>22.081</ele>
        <time>2021-05-05T11:49:52Z</time>
      </trkpt>
      <trkpt lat="38.206818" lon="-0.756999">
        <ele>22.262</ele>
        <time>2021-05-05T11:49:54Z</time>
      </trkpt>
      <trkpt lat="38.206808" lon="-0.756934">
        <ele>22.083</ele>
        <time>2021-05-05T11:49:55Z</time>
      </trkpt>
      <trkpt lat="38.206798" lon="-0.756869">
        <ele>22.111</ele>
        <time>2021-05-05T11:49:56Z</time>
      </trkpt>
      <trkpt lat="38.206789" lon="-0.756807">
        <ele>21.908</ele>
        <time>2021-05-05T11:49:57Z</time>
      </trkpt>
      <trkpt lat="38.206768" lon="-0.756683">
        <ele>21.773</ele>
        <time>2021-05-05T11:49:59Z</time>
      </trkpt>
      <trkpt lat="38.206747" lon="-0.756556">
        <ele>21.538</ele>
        <time>2021-05-05T11:50:01Z</time>
      </trkpt>
      <trkpt lat="38.206726" lon="-0.756425">
        <ele>21.488</ele>
        <time>2021-05-05T11:50:03Z</time>
      </trkpt>
      <trkpt lat="38.206703" lon="-0.756289">
        <ele>21.171</ele>
        <time>2021-05-05T11:50:05Z</time>
      </trkpt>
      <trkpt lat="38.206694" lon="-0.756220">
        <ele>21.141</ele>
        <time>2021-05-05T11:50:06Z</time>
      </trkpt>
      <trkpt lat="38.206675" lon="-0.756088">
        <ele>21.173</ele>
        <time>2021-05-05T11:50:08Z</time>
      </trkpt>
      <trkpt lat="38.206667" lon="-0.756021">
        <ele>21.380</ele>
        <time>2021-05-05T11:50:09Z</time>
      </trkpt>
      <trkpt lat="38.206657" lon="-0.755955">
        <ele>21.435</ele>
        <time>2021-05-05T11:50:10Z</time>
      </trkpt>
      <trkpt lat="38.206647" lon="-0.755889">
        <ele>21.431</ele>
        <time>2021-05-05T11:50:11Z</time>
      </trkpt>
      <trkpt lat="38.206628" lon="-0.755760">
        <ele>21.261</ele>
        <time>2021-05-05T11:50:13Z</time>
      </trkpt>
      <trkpt lat="38.206607" lon="-0.755633">
        <ele>21.107</ele>
        <time>2021-05-05T11:50:15Z</time>
      </trkpt>
      <trkpt lat="38.206597" lon="-0.755571">
        <ele>20.908</ele>
        <time>2021-05-05T11:50:16Z</time>
      </trkpt>
      <trkpt lat="38.206587" lon="-0.755508">
        <ele>21.250</ele>
        <time>2021-05-05T11:50:17Z</time>
      </trkpt>
      <trkpt lat="38.206565" lon="-0.755385">
        <ele>21.255</ele>
        <time>2021-05-05T11:50:19Z</time>
      </trkpt>
      <trkpt lat="38.206555" lon="-0.755323">
        <ele>21.045</ele>
        <time>2021-05-05T11:50:20Z</time>
      </trkpt>
      <trkpt lat="38.206537" lon="-0.755196">
        <ele>20.818</ele>
        <time>2021-05-05T11:50:22Z</time>
      </trkpt>
      <trkpt lat="38.206519" lon="-0.755071">
        <ele>20.758</ele>
        <time>2021-05-05T11:50:24Z</time>
      </trkpt>
      <trkpt lat="38.206507" lon="-0.755012">
        <ele>20.680</ele>
        <time>2021-05-05T11:50:25Z</time>
      </trkpt>
      <trkpt lat="38.206486" lon="-0.754893">
        <ele>20.457</ele>
        <time>2021-05-05T11:50:27Z</time>
      </trkpt>
      <trkpt lat="38.206475" lon="-0.754833">
        <ele>20.362</ele>
        <time>2021-05-05T11:50:28Z</time>
      </trkpt>
      <trkpt lat="38.206444" lon="-0.754715">
        <ele>20.349</ele>
        <time>2021-05-05T11:50:30Z</time>
      </trkpt>
      <trkpt lat="38.206401" lon="-0.754602">
        <ele>20.402</ele>
        <time>2021-05-05T11:50:32Z</time>
      </trkpt>
      <trkpt lat="38.206354" lon="-0.754488">
        <ele>20.622</ele>
        <time>2021-05-05T11:50:34Z</time>
      </trkpt>
      <trkpt lat="38.206328" lon="-0.754432">
        <ele>20.808</ele>
        <time>2021-05-05T11:50:35Z</time>
      </trkpt>
      <trkpt lat="38.206268" lon="-0.754329">
        <ele>20.971</ele>
        <time>2021-05-05T11:50:37Z</time>
      </trkpt>
      <trkpt lat="38.206212" lon="-0.754234">
        <ele>20.936</ele>
        <time>2021-05-05T11:50:39Z</time>
      </trkpt>
      <trkpt lat="38.206167" lon="-0.754163">
        <ele>21.376</ele>
        <time>2021-05-05T11:50:41Z</time>
      </trkpt>
      <trkpt lat="38.206118" lon="-0.754095">
        <ele>21.129</ele>
        <time>2021-05-05T11:50:43Z</time>
      </trkpt>
      <trkpt lat="38.206061" lon="-0.754013">
        <ele>21.269</ele>
        <time>2021-05-05T11:50:45Z</time>
      </trkpt>
      <trkpt lat="38.206012" lon="-0.753938">
        <ele>21.551</ele>
        <time>2021-05-05T11:50:47Z</time>
      </trkpt>
      <trkpt lat="38.205981" lon="-0.753881">
        <ele>21.648</ele>
        <time>2021-05-05T11:50:48Z</time>
      </trkpt>
      <trkpt lat="38.205951" lon="-0.753828">
        <ele>21.643</ele>
        <time>2021-05-05T11:50:49Z</time>
      </trkpt>
      <trkpt lat="38.205918" lon="-0.753773">
        <ele>21.898</ele>
        <time>2021-05-05T11:50:51Z</time>
      </trkpt>
      <trkpt lat="38.205871" lon="-0.753707">
        <ele>21.715</ele>
        <time>2021-05-05T11:50:52Z</time>
      </trkpt>
      <trkpt lat="38.205815" lon="-0.753626">
        <ele>21.626</ele>
        <time>2021-05-05T11:50:54Z</time>
      </trkpt>
      <trkpt lat="38.205771" lon="-0.753566">
        <ele>21.508</ele>
        <time>2021-05-05T11:50:56Z</time>
      </trkpt>
      <trkpt lat="38.205732" lon="-0.753517">
        <ele>21.486</ele>
        <time>2021-05-05T11:50:58Z</time>
      </trkpt>
      <trkpt lat="38.205684" lon="-0.753447">
        <ele>21.411</ele>
        <time>2021-05-05T11:50:59Z</time>
      </trkpt>
      <trkpt lat="38.205628" lon="-0.753361">
        <ele>21.421</ele>
        <time>2021-05-05T11:51:02Z</time>
      </trkpt>
      <trkpt lat="38.205579" lon="-0.753284">
        <ele>21.334</ele>
        <time>2021-05-05T11:51:04Z</time>
      </trkpt>
      <trkpt lat="38.205529" lon="-0.753205">
        <ele>21.344</ele>
        <time>2021-05-05T11:51:06Z</time>
      </trkpt>
      <trkpt lat="38.205474" lon="-0.753141">
        <ele>21.536</ele>
        <time>2021-05-05T11:51:08Z</time>
      </trkpt>
      <trkpt lat="38.205435" lon="-0.753070">
        <ele>21.493</ele>
        <time>2021-05-05T11:51:10Z</time>
      </trkpt>
      <trkpt lat="38.205400" lon="-0.753007">
        <ele>21.688</ele>
        <time>2021-05-05T11:51:12Z</time>
      </trkpt>
      <trkpt lat="38.205369" lon="-0.752949">
        <ele>21.974</ele>
        <time>2021-05-05T11:51:14Z</time>
      </trkpt>
      <trkpt lat="38.205345" lon="-0.752890">
        <ele>22.256</ele>
        <time>2021-05-05T11:51:16Z</time>
      </trkpt>
      <trkpt lat="38.205342" lon="-0.752808">
        <ele>22.121</ele>
        <time>2021-05-05T11:51:18Z</time>
      </trkpt>
      <trkpt lat="38.205378" lon="-0.752758">
        <ele>22.308</ele>
        <time>2021-05-05T11:51:21Z</time>
      </trkpt>
      <trkpt lat="38.205427" lon="-0.752739">
        <ele>22.314</ele>
        <time>2021-05-05T11:51:22Z</time>
      </trkpt>
      <trkpt lat="38.205481" lon="-0.752733">
        <ele>22.059</ele>
        <time>2021-05-05T11:51:25Z</time>
      </trkpt>
      <trkpt lat="38.205531" lon="-0.752724">
        <ele>21.879</ele>
        <time>2021-05-05T11:51:27Z</time>
      </trkpt>
      <trkpt lat="38.205574" lon="-0.752691">
        <ele>21.872</ele>
        <time>2021-05-05T11:51:29Z</time>
      </trkpt>
      <trkpt lat="38.205615" lon="-0.752661">
        <ele>21.752</ele>
        <time>2021-05-05T11:51:30Z</time>
      </trkpt>
      <trkpt lat="38.205692" lon="-0.752622">
        <ele>21.674</ele>
        <time>2021-05-05T11:51:33Z</time>
      </trkpt>
      <trkpt lat="38.205760" lon="-0.752598">
        <ele>21.411</ele>
        <time>2021-05-05T11:51:35Z</time>
      </trkpt>
      <trkpt lat="38.205827" lon="-0.752568">
        <ele>21.696</ele>
        <time>2021-05-05T11:51:37Z</time>
      </trkpt>
      <trkpt lat="38.205878" lon="-0.752536">
        <ele>21.741</ele>
        <time>2021-05-05T11:51:38Z</time>
      </trkpt>
      <trkpt lat="38.205934" lon="-0.752504">
        <ele>21.781</ele>
        <time>2021-05-05T11:51:40Z</time>
      </trkpt>
      <trkpt lat="38.205979" lon="-0.752481">
        <ele>21.709</ele>
        <time>2021-05-05T11:51:42Z</time>
      </trkpt>
      <trkpt lat="38.206021" lon="-0.752459">
        <ele>21.708</ele>
        <time>2021-05-05T11:51:43Z</time>
      </trkpt>
      <trkpt lat="38.206084" lon="-0.752440">
        <ele>22.031</ele>
        <time>2021-05-05T11:51:45Z</time>
      </trkpt>
      <trkpt lat="38.206139" lon="-0.752422">
        <ele>22.186</ele>
        <time>2021-05-05T11:51:47Z</time>
      </trkpt>
      <trkpt lat="38.206187" lon="-0.752407">
        <ele>22.036</ele>
        <time>2021-05-05T11:51:49Z</time>
      </trkpt>
      <trkpt lat="38.206231" lon="-0.752390">
        <ele>22.299</ele>
        <time>2021-05-05T11:51:50Z</time>
      </trkpt>
      <trkpt lat="38.206284" lon="-0.752377">
        <ele>22.229</ele>
        <time>2021-05-05T11:51:52Z</time>
      </trkpt>
      <trkpt lat="38.206354" lon="-0.752383">
        <ele>22.551</ele>
        <time>2021-05-05T11:51:54Z</time>
      </trkpt>
      <trkpt lat="38.206403" lon="-0.752372">
        <ele>22.658</ele>
        <time>2021-05-05T11:51:55Z</time>
      </trkpt>
      <trkpt lat="38.206482" lon="-0.752351">
        <ele>22.553</ele>
        <time>2021-05-05T11:51:58Z</time>
      </trkpt>
      <trkpt lat="38.206554" lon="-0.752331">
        <ele>22.675</ele>
        <time>2021-05-05T11:52:00Z</time>
      </trkpt>
      <trkpt lat="38.206631" lon="-0.752320">
        <ele>22.628</ele>
        <time>2021-05-05T11:52:02Z</time>
      </trkpt>
      <trkpt lat="38.206711" lon="-0.752310">
        <ele>22.720</ele>
        <time>2021-05-05T11:52:04Z</time>
      </trkpt>
      <trkpt lat="38.206769" lon="-0.752299">
        <ele>22.908</ele>
        <time>2021-05-05T11:52:05Z</time>
      </trkpt>
      <trkpt lat="38.206827" lon="-0.752287">
        <ele>23.164</ele>
        <time>2021-05-05T11:52:06Z</time>
      </trkpt>
      <trkpt lat="38.206913" lon="-0.752276">
        <ele>22.999</ele>
        <time>2021-05-05T11:52:09Z</time>
      </trkpt>
      <trkpt lat="38.206991" lon="-0.752264">
        <ele>22.819</ele>
        <time>2021-05-05T11:52:10Z</time>
      </trkpt>
      <trkpt lat="38.207038" lon="-0.752259">
        <ele>22.832</ele>
        <time>2021-05-05T11:52:12Z</time>
      </trkpt>
      <trkpt lat="38.207117" lon="-0.752246">
        <ele>22.672</ele>
        <time>2021-05-05T11:52:13Z</time>
      </trkpt>
      <trkpt lat="38.207187" lon="-0.752228">
        <ele>22.864</ele>
        <time>2021-05-05T11:52:15Z</time>
      </trkpt>
      <trkpt lat="38.207242" lon="-0.752221">
        <ele>22.971</ele>
        <time>2021-05-05T11:52:17Z</time>
      </trkpt>
      <trkpt lat="38.207296" lon="-0.752215">
        <ele>22.936</ele>
        <time>2021-05-05T11:52:18Z</time>
      </trkpt>
      <trkpt lat="38.207366" lon="-0.752205">
        <ele>22.666</ele>
        <time>2021-05-05T11:52:19Z</time>
      </trkpt>
      <trkpt lat="38.207427" lon="-0.752196">
        <ele>22.429</ele>
        <time>2021-05-05T11:52:21Z</time>
      </trkpt>
      <trkpt lat="38.207499" lon="-0.752183">
        <ele>22.421</ele>
        <time>2021-05-05T11:52:22Z</time>
      </trkpt>
      <trkpt lat="38.207547" lon="-0.752175">
        <ele>22.508</ele>
        <time>2021-05-05T11:52:24Z</time>
      </trkpt>
      <trkpt lat="38.207633" lon="-0.752166">
        <ele>22.453</ele>
        <time>2021-05-05T11:52:26Z</time>
      </trkpt>
      <trkpt lat="38.207706" lon="-0.752153">
        <ele>22.368</ele>
        <time>2021-05-05T11:52:27Z</time>
      </trkpt>
      <trkpt lat="38.207763" lon="-0.752140">
        <ele>22.478</ele>
        <time>2021-05-05T11:52:29Z</time>
      </trkpt>
      <trkpt lat="38.207813" lon="-0.752130">
        <ele>22.221</ele>
        <time>2021-05-05T11:52:30Z</time>
      </trkpt>
      <trkpt lat="38.207891" lon="-0.752106">
        <ele>22.041</ele>
        <time>2021-05-05T11:52:31Z</time>
      </trkpt>
      <trkpt lat="38.207964" lon="-0.752067">
        <ele>22.383</ele>
        <time>2021-05-05T11:52:33Z</time>
      </trkpt>
      <trkpt lat="38.208016" lon="-0.752072">
        <ele>22.480</ele>
        <time>2021-05-05T11:52:35Z</time>
      </trkpt>
      <trkpt lat="38.208080" lon="-0.752070">
        <ele>22.525</ele>
        <time>2021-05-05T11:52:36Z</time>
      </trkpt>
      <trkpt lat="38.208136" lon="-0.752066">
        <ele>22.457</ele>
        <time>2021-05-05T11:52:37Z</time>
      </trkpt>
      <trkpt lat="38.208192" lon="-0.752061">
        <ele>22.200</ele>
        <time>2021-05-05T11:52:39Z</time>
      </trkpt>
      <trkpt lat="38.208266" lon="-0.752057">
        <ele>22.420</ele>
        <time>2021-05-05T11:52:40Z</time>
      </trkpt>
      <trkpt lat="38.208322" lon="-0.752052">
        <ele>22.608</ele>
        <time>2021-05-05T11:52:42Z</time>
      </trkpt>
      <trkpt lat="38.208384" lon="-0.752040">
        <ele>22.692</ele>
        <time>2021-05-05T11:52:43Z</time>
      </trkpt>
      <trkpt lat="38.208447" lon="-0.752043">
        <ele>22.667</ele>
        <time>2021-05-05T11:52:45Z</time>
      </trkpt>
      <trkpt lat="38.208500" lon="-0.752045">
        <ele>22.977</ele>
        <time>2021-05-05T11:52:46Z</time>
      </trkpt>
      <trkpt lat="38.208552" lon="-0.752044">
        <ele>23.470</ele>
        <time>2021-05-05T11:52:47Z</time>
      </trkpt>
      <trkpt lat="38.208614" lon="-0.752048">
        <ele>23.340</ele>
        <time>2021-05-05T11:52:48Z</time>
      </trkpt>
      <trkpt lat="38.208719" lon="-0.752057">
        <ele>23.062</ele>
        <time>2021-05-05T11:52:51Z</time>
      </trkpt>
      <trkpt lat="38.208794" lon="-0.752055">
        <ele>22.729</ele>
        <time>2021-05-05T11:52:52Z</time>
      </trkpt>
      <trkpt lat="38.208851" lon="-0.752087">
        <ele>22.484</ele>
        <time>2021-05-05T11:52:54Z</time>
      </trkpt>
      <trkpt lat="38.208943" lon="-0.752114">
        <ele>22.684</ele>
        <time>2021-05-05T11:52:56Z</time>
      </trkpt>
      <trkpt lat="38.208988" lon="-0.752128">
        <ele>22.407</ele>
        <time>2021-05-05T11:52:57Z</time>
      </trkpt>
      <trkpt lat="38.209078" lon="-0.752156">
        <ele>22.017</ele>
        <time>2021-05-05T11:52:59Z</time>
      </trkpt>
      <trkpt lat="38.209131" lon="-0.752219">
        <ele>21.708</ele>
        <time>2021-05-05T11:53:01Z</time>
      </trkpt>
      <trkpt lat="38.209203" lon="-0.752211">
        <ele>21.795</ele>
        <time>2021-05-05T11:53:02Z</time>
      </trkpt>
      <trkpt lat="38.209260" lon="-0.752205">
        <ele>21.770</ele>
        <time>2021-05-05T11:53:03Z</time>
      </trkpt>
      <trkpt lat="38.209337" lon="-0.752192">
        <ele>21.250</ele>
        <time>2021-05-05T11:53:05Z</time>
      </trkpt>
      <trkpt lat="38.209410" lon="-0.752194">
        <ele>21.293</ele>
        <time>2021-05-05T11:53:06Z</time>
      </trkpt>
      <trkpt lat="38.209472" lon="-0.752194">
        <ele>21.173</ele>
        <time>2021-05-05T11:53:08Z</time>
      </trkpt>
      <trkpt lat="38.209564" lon="-0.752189">
        <ele>21.015</ele>
        <time>2021-05-05T11:53:10Z</time>
      </trkpt>
      <trkpt lat="38.209610" lon="-0.752187">
        <ele>21.032</ele>
        <time>2021-05-05T11:53:11Z</time>
      </trkpt>
      <trkpt lat="38.209676" lon="-0.752189">
        <ele>21.197</ele>
        <time>2021-05-05T11:53:13Z</time>
      </trkpt>
      <trkpt lat="38.209780" lon="-0.752176">
        <ele>21.546</ele>
        <time>2021-05-05T11:53:15Z</time>
      </trkpt>
      <trkpt lat="38.209841" lon="-0.752154">
        <ele>21.988</ele>
        <time>2021-05-05T11:53:16Z</time>
      </trkpt>
      <trkpt lat="38.209903" lon="-0.752148">
        <ele>22.016</ele>
        <time>2021-05-05T11:53:17Z</time>
      </trkpt>
      <trkpt lat="38.210007" lon="-0.752147">
        <ele>22.108</ele>
        <time>2021-05-05T11:53:20Z</time>
      </trkpt>
      <trkpt lat="38.210079" lon="-0.752139">
        <ele>21.931</ele>
        <time>2021-05-05T11:53:21Z</time>
      </trkpt>
      <trkpt lat="38.210126" lon="-0.752119">
        <ele>22.136</ele>
        <time>2021-05-05T11:53:22Z</time>
      </trkpt>
      <trkpt lat="38.210195" lon="-0.752117">
        <ele>22.336</ele>
        <time>2021-05-05T11:53:24Z</time>
      </trkpt>
      <trkpt lat="38.210248" lon="-0.752111">
        <ele>22.489</ele>
        <time>2021-05-05T11:53:25Z</time>
      </trkpt>
      <trkpt lat="38.210319" lon="-0.752103">
        <ele>22.519</ele>
        <time>2021-05-05T11:53:27Z</time>
      </trkpt>
      <trkpt lat="38.210389" lon="-0.752096">
        <ele>22.831</ele>
        <time>2021-05-05T11:53:29Z</time>
      </trkpt>
      <trkpt lat="38.210454" lon="-0.752090">
        <ele>22.728</ele>
        <time>2021-05-05T11:53:31Z</time>
      </trkpt>
      <trkpt lat="38.210519" lon="-0.752083">
        <ele>22.953</ele>
        <time>2021-05-05T11:53:32Z</time>
      </trkpt>
      <trkpt lat="38.210570" lon="-0.752081">
        <ele>23.459</ele>
        <time>2021-05-05T11:53:33Z</time>
      </trkpt>
      <trkpt lat="38.210625" lon="-0.752081">
        <ele>23.703</ele>
        <time>2021-05-05T11:53:35Z</time>
      </trkpt>
      <trkpt lat="38.210684" lon="-0.752085">
        <ele>24.023</ele>
        <time>2021-05-05T11:53:36Z</time>
      </trkpt>
      <trkpt lat="38.210741" lon="-0.752090">
        <ele>24.208</ele>
        <time>2021-05-05T11:53:37Z</time>
      </trkpt>
      <trkpt lat="38.210792" lon="-0.752093">
        <ele>24.362</ele>
        <time>2021-05-05T11:53:38Z</time>
      </trkpt>
      <trkpt lat="38.210842" lon="-0.752099">
        <ele>24.647</ele>
        <time>2021-05-05T11:53:40Z</time>
      </trkpt>
      <trkpt lat="38.210909" lon="-0.752112">
        <ele>24.727</ele>
        <time>2021-05-05T11:53:41Z</time>
      </trkpt>
      <trkpt lat="38.210964" lon="-0.752124">
        <ele>24.870</ele>
        <time>2021-05-05T11:53:42Z</time>
      </trkpt>
      <trkpt lat="38.211013" lon="-0.752138">
        <ele>24.970</ele>
        <time>2021-05-05T11:53:44Z</time>
      </trkpt>
      <trkpt lat="38.211087" lon="-0.752157">
        <ele>25.392</ele>
        <time>2021-05-05T11:53:45Z</time>
      </trkpt>
      <trkpt lat="38.211143" lon="-0.752167">
        <ele>25.489</ele>
        <time>2021-05-05T11:53:47Z</time>
      </trkpt>
      <trkpt lat="38.211218" lon="-0.752182">
        <ele>25.794</ele>
        <time>2021-05-05T11:53:48Z</time>
      </trkpt>
      <trkpt lat="38.211306" lon="-0.752196">
        <ele>25.814</ele>
        <time>2021-05-05T11:53:50Z</time>
      </trkpt>
      <trkpt lat="38.211396" lon="-0.752215">
        <ele>25.954</ele>
        <time>2021-05-05T11:53:52Z</time>
      </trkpt>
      <trkpt lat="38.211442" lon="-0.752223">
        <ele>25.909</ele>
        <time>2021-05-05T11:53:53Z</time>
      </trkpt>
      <trkpt lat="38.211495" lon="-0.752233">
        <ele>25.808</ele>
        <time>2021-05-05T11:53:55Z</time>
      </trkpt>
      <trkpt lat="38.211563" lon="-0.752249">
        <ele>25.748</ele>
        <time>2021-05-05T11:53:56Z</time>
      </trkpt>
      <trkpt lat="38.211612" lon="-0.752258">
        <ele>25.553</ele>
        <time>2021-05-05T11:53:57Z</time>
      </trkpt>
      <trkpt lat="38.211707" lon="-0.752275">
        <ele>25.443</ele>
        <time>2021-05-05T11:53:59Z</time>
      </trkpt>
      <trkpt lat="38.211787" lon="-0.752288">
        <ele>25.556</ele>
        <time>2021-05-05T11:54:01Z</time>
      </trkpt>
      <trkpt lat="38.211840" lon="-0.752302">
        <ele>25.116</ele>
        <time>2021-05-05T11:54:03Z</time>
      </trkpt>
      <trkpt lat="38.211900" lon="-0.752316">
        <ele>24.958</ele>
        <time>2021-05-05T11:54:04Z</time>
      </trkpt>
      <trkpt lat="38.211958" lon="-0.752326">
        <ele>24.985</ele>
        <time>2021-05-05T11:54:06Z</time>
      </trkpt>
      <trkpt lat="38.212019" lon="-0.752331">
        <ele>25.180</ele>
        <time>2021-05-05T11:54:07Z</time>
      </trkpt>
      <trkpt lat="38.212081" lon="-0.752341">
        <ele>25.443</ele>
        <time>2021-05-05T11:54:09Z</time>
      </trkpt>
      <trkpt lat="38.212144" lon="-0.752350">
        <ele>25.464</ele>
        <time>2021-05-05T11:54:10Z</time>
      </trkpt>
      <trkpt lat="38.212198" lon="-0.752362">
        <ele>25.510</ele>
        <time>2021-05-05T11:54:11Z</time>
      </trkpt>
      <trkpt lat="38.212277" lon="-0.752374">
        <ele>25.708</ele>
        <time>2021-05-05T11:54:13Z</time>
      </trkpt>
      <trkpt lat="38.212352" lon="-0.752384">
        <ele>25.741</ele>
        <time>2021-05-05T11:54:15Z</time>
      </trkpt>
      <trkpt lat="38.212440" lon="-0.752402">
        <ele>25.616</ele>
        <time>2021-05-05T11:54:17Z</time>
      </trkpt>
      <trkpt lat="38.212525" lon="-0.752415">
        <ele>25.666</ele>
        <time>2021-05-05T11:54:19Z</time>
      </trkpt>
      <trkpt lat="38.212578" lon="-0.752427">
        <ele>25.989</ele>
        <time>2021-05-05T11:54:20Z</time>
      </trkpt>
      <trkpt lat="38.212623" lon="-0.752438">
        <ele>25.929</ele>
        <time>2021-05-05T11:54:21Z</time>
      </trkpt>
      <trkpt lat="38.212691" lon="-0.752480">
        <ele>25.931</ele>
        <time>2021-05-05T11:54:22Z</time>
      </trkpt>
      <trkpt lat="38.212738" lon="-0.752488">
        <ele>25.928</ele>
        <time>2021-05-05T11:54:23Z</time>
      </trkpt>
      <trkpt lat="38.212798" lon="-0.752486">
        <ele>26.213</ele>
        <time>2021-05-05T11:54:25Z</time>
      </trkpt>
      <trkpt lat="38.212870" lon="-0.752491">
        <ele>26.358</ele>
        <time>2021-05-05T11:54:26Z</time>
      </trkpt>
      <trkpt lat="38.212922" lon="-0.752492">
        <ele>26.552</ele>
        <time>2021-05-05T11:54:27Z</time>
      </trkpt>
      <trkpt lat="38.213004" lon="-0.752506">
        <ele>26.717</ele>
        <time>2021-05-05T11:54:29Z</time>
      </trkpt>
      <trkpt lat="38.213070" lon="-0.752510">
        <ele>26.908</ele>
        <time>2021-05-05T11:54:31Z</time>
      </trkpt>
      <trkpt lat="38.213129" lon="-0.752514">
        <ele>26.982</ele>
        <time>2021-05-05T11:54:32Z</time>
      </trkpt>
      <trkpt lat="38.213202" lon="-0.752513">
        <ele>26.897</ele>
        <time>2021-05-05T11:54:34Z</time>
      </trkpt>
      <trkpt lat="38.213271" lon="-0.752503">
        <ele>26.747</ele>
        <time>2021-05-05T11:54:36Z</time>
      </trkpt>
      <trkpt lat="38.213354" lon="-0.752477">
        <ele>26.710</ele>
        <time>2021-05-05T11:54:37Z</time>
      </trkpt>
      <trkpt lat="38.213402" lon="-0.752461">
        <ele>26.630</ele>
        <time>2021-05-05T11:54:38Z</time>
      </trkpt>
      <trkpt lat="38.213446" lon="-0.752436">
        <ele>26.762</ele>
        <time>2021-05-05T11:54:40Z</time>
      </trkpt>
      <trkpt lat="38.213501" lon="-0.752389">
        <ele>27.099</ele>
        <time>2021-05-05T11:54:41Z</time>
      </trkpt>
      <trkpt lat="38.213577" lon="-0.752322">
        <ele>27.284</ele>
        <time>2021-05-05T11:54:43Z</time>
      </trkpt>
      <trkpt lat="38.213635" lon="-0.752269">
        <ele>27.362</ele>
        <time>2021-05-05T11:54:45Z</time>
      </trkpt>
      <trkpt lat="38.213696" lon="-0.752205">
        <ele>27.683</ele>
        <time>2021-05-05T11:54:47Z</time>
      </trkpt>
      <trkpt lat="38.213739" lon="-0.752163">
        <ele>27.711</ele>
        <time>2021-05-05T11:54:48Z</time>
      </trkpt>
      <trkpt lat="38.213800" lon="-0.752102">
        <ele>28.308</ele>
        <time>2021-05-05T11:54:51Z</time>
      </trkpt>
      <trkpt lat="38.213862" lon="-0.752043">
        <ele>28.563</ele>
        <time>2021-05-05T11:54:53Z</time>
      </trkpt>
      <trkpt lat="38.213926" lon="-0.751983">
        <ele>28.588</ele>
        <time>2021-05-05T11:54:55Z</time>
      </trkpt>
      <trkpt lat="38.213989" lon="-0.751940">
        <ele>28.798</ele>
        <time>2021-05-05T11:54:57Z</time>
      </trkpt>
      <trkpt lat="38.214051" lon="-0.751895">
        <ele>28.991</ele>
        <time>2021-05-05T11:54:58Z</time>
      </trkpt>
      <trkpt lat="38.214112" lon="-0.751846">
        <ele>29.281</ele>
        <time>2021-05-05T11:55:00Z</time>
      </trkpt>
      <trkpt lat="38.214168" lon="-0.751810">
        <ele>29.313</ele>
        <time>2021-05-05T11:55:02Z</time>
      </trkpt>
      <trkpt lat="38.214218" lon="-0.751779">
        <ele>29.590</ele>
        <time>2021-05-05T11:55:04Z</time>
      </trkpt>
      <trkpt lat="38.214280" lon="-0.751741">
        <ele>29.675</ele>
        <time>2021-05-05T11:55:05Z</time>
      </trkpt>
      <trkpt lat="38.214323" lon="-0.751714">
        <ele>29.886</ele>
        <time>2021-05-05T11:55:07Z</time>
      </trkpt>
      <trkpt lat="38.214372" lon="-0.751688">
        <ele>29.860</ele>
        <time>2021-05-05T11:55:08Z</time>
      </trkpt>
      <trkpt lat="38.214429" lon="-0.751654">
        <ele>30.026</ele>
        <time>2021-05-05T11:55:10Z</time>
      </trkpt>
      <trkpt lat="38.214479" lon="-0.751624">
        <ele>30.008</ele>
        <time>2021-05-05T11:55:11Z</time>
      </trkpt>
      <trkpt lat="38.214536" lon="-0.751602">
        <ele>30.095</ele>
        <time>2021-05-05T11:55:13Z</time>
      </trkpt>
      <trkpt lat="38.214580" lon="-0.751587">
        <ele>29.750</ele>
        <time>2021-05-05T11:55:14Z</time>
      </trkpt>
      <trkpt lat="38.214651" lon="-0.751554">
        <ele>29.970</ele>
        <time>2021-05-05T11:55:16Z</time>
      </trkpt>
      <trkpt lat="38.214722" lon="-0.751527">
        <ele>30.063</ele>
        <time>2021-05-05T11:55:18Z</time>
      </trkpt>
      <trkpt lat="38.214791" lon="-0.751505">
        <ele>29.823</ele>
        <time>2021-05-05T11:55:20Z</time>
      </trkpt>
      <trkpt lat="38.214842" lon="-0.751492">
        <ele>29.985</ele>
        <time>2021-05-05T11:55:22Z</time>
      </trkpt>
      <trkpt lat="38.214918" lon="-0.751459">
        <ele>30.092</ele>
        <time>2021-05-05T11:55:24Z</time>
      </trkpt>
      <trkpt lat="38.214968" lon="-0.751443">
        <ele>29.817</ele>
        <time>2021-05-05T11:55:25Z</time>
      </trkpt>
      <trkpt lat="38.215019" lon="-0.751427">
        <ele>29.871</ele>
        <time>2021-05-05T11:55:26Z</time>
      </trkpt>
      <trkpt lat="38.215064" lon="-0.751414">
        <ele>29.941</ele>
        <time>2021-05-05T11:55:28Z</time>
      </trkpt>
      <trkpt lat="38.215130" lon="-0.751387">
        <ele>29.715</ele>
        <time>2021-05-05T11:55:29Z</time>
      </trkpt>
      <trkpt lat="38.215180" lon="-0.751376">
        <ele>29.708</ele>
        <time>2021-05-05T11:55:30Z</time>
      </trkpt>
      <trkpt lat="38.215224" lon="-0.751363">
        <ele>29.644</ele>
        <time>2021-05-05T11:55:32Z</time>
      </trkpt>
      <trkpt lat="38.215272" lon="-0.751345">
        <ele>29.339</ele>
        <time>2021-05-05T11:55:33Z</time>
      </trkpt>
      <trkpt lat="38.215330" lon="-0.751333">
        <ele>29.449</ele>
        <time>2021-05-05T11:55:34Z</time>
      </trkpt>
      <trkpt lat="38.215389" lon="-0.751313">
        <ele>29.412</ele>
        <time>2021-05-05T11:55:36Z</time>
      </trkpt>
      <trkpt lat="38.215455" lon="-0.751292">
        <ele>29.882</ele>
        <time>2021-05-05T11:55:37Z</time>
      </trkpt>
      <trkpt lat="38.215504" lon="-0.751278">
        <ele>29.754</ele>
        <time>2021-05-05T11:55:38Z</time>
      </trkpt>
      <trkpt lat="38.215555" lon="-0.751261">
        <ele>29.871</ele>
        <time>2021-05-05T11:55:39Z</time>
      </trkpt>
      <trkpt lat="38.215634" lon="-0.751234">
        <ele>29.886</ele>
        <time>2021-05-05T11:55:41Z</time>
      </trkpt>
      <trkpt lat="38.215720" lon="-0.751212">
        <ele>29.996</ele>
        <time>2021-05-05T11:55:43Z</time>
      </trkpt>
      <trkpt lat="38.215770" lon="-0.751201">
        <ele>29.831</ele>
        <time>2021-05-05T11:55:45Z</time>
      </trkpt>
      <trkpt lat="38.215850" lon="-0.751179">
        <ele>29.924</ele>
        <time>2021-05-05T11:55:47Z</time>
      </trkpt>
      <trkpt lat="38.215900" lon="-0.751163">
        <ele>29.908</ele>
        <time>2021-05-05T11:55:48Z</time>
      </trkpt>
      <trkpt lat="38.215960" lon="-0.751140">
        <ele>30.146</ele>
        <time>2021-05-05T11:55:50Z</time>
      </trkpt>
      <trkpt lat="38.216012" lon="-0.751115">
        <ele>29.981</ele>
        <time>2021-05-05T11:55:51Z</time>
      </trkpt>
      <trkpt lat="38.216066" lon="-0.751084">
        <ele>30.141</ele>
        <time>2021-05-05T11:55:52Z</time>
      </trkpt>
      <trkpt lat="38.216113" lon="-0.751049">
        <ele>30.334</ele>
        <time>2021-05-05T11:55:54Z</time>
      </trkpt>
      <trkpt lat="38.216167" lon="-0.751007">
        <ele>30.484</ele>
        <time>2021-05-05T11:55:55Z</time>
      </trkpt>
      <trkpt lat="38.216232" lon="-0.750946">
        <ele>30.696</ele>
        <time>2021-05-05T11:55:57Z</time>
      </trkpt>
      <trkpt lat="38.216272" lon="-0.750906">
        <ele>30.493</ele>
        <time>2021-05-05T11:55:59Z</time>
      </trkpt>
      <trkpt lat="38.216333" lon="-0.750851">
        <ele>30.618</ele>
        <time>2021-05-05T11:56:00Z</time>
      </trkpt>
      <trkpt lat="38.216397" lon="-0.750792">
        <ele>30.877</ele>
        <time>2021-05-05T11:56:02Z</time>
      </trkpt>
      <trkpt lat="38.216438" lon="-0.750746">
        <ele>30.761</ele>
        <time>2021-05-05T11:56:04Z</time>
      </trkpt>
      <trkpt lat="38.216489" lon="-0.750692">
        <ele>30.727</ele>
        <time>2021-05-05T11:56:05Z</time>
      </trkpt>
      <trkpt lat="38.216560" lon="-0.750631">
        <ele>31.108</ele>
        <time>2021-05-05T11:56:08Z</time>
      </trkpt>
      <trkpt lat="38.216600" lon="-0.750595">
        <ele>31.264</ele>
        <time>2021-05-05T11:56:09Z</time>
      </trkpt>
      <trkpt lat="38.216648" lon="-0.750548">
        <ele>31.529</ele>
        <time>2021-05-05T11:56:11Z</time>
      </trkpt>
      <trkpt lat="38.216670" lon="-0.750473">
        <ele>31.749</ele>
        <time>2021-05-05T11:56:14Z</time>
      </trkpt>
      <trkpt lat="38.216689" lon="-0.750410">
        <ele>32.262</ele>
        <time>2021-05-05T11:56:17Z</time>
      </trkpt>
      <trkpt lat="38.216726" lon="-0.750348">
        <ele>32.452</ele>
        <time>2021-05-05T11:56:20Z</time>
      </trkpt>
      <trkpt lat="38.216750" lon="-0.750282">
        <ele>32.624</ele>
        <time>2021-05-05T11:56:23Z</time>
      </trkpt>
      <trkpt lat="38.216779" lon="-0.750229">
        <ele>33.271</ele>
        <time>2021-05-05T11:56:25Z</time>
      </trkpt>
      <trkpt lat="38.216818" lon="-0.750172">
        <ele>33.356</ele>
        <time>2021-05-05T11:56:27Z</time>
      </trkpt>
      <trkpt lat="38.216852" lon="-0.750121">
        <ele>33.684</ele>
        <time>2021-05-05T11:56:29Z</time>
      </trkpt>
      <trkpt lat="38.216865" lon="-0.750063">
        <ele>33.507</ele>
        <time>2021-05-05T11:56:32Z</time>
      </trkpt>
      <trkpt lat="38.216899" lon="-0.750024">
        <ele>33.817</ele>
        <time>2021-05-05T11:56:34Z</time>
      </trkpt>
      <trkpt lat="38.216943" lon="-0.749991">
        <ele>34.008</ele>
        <time>2021-05-05T11:56:40Z</time>
      </trkpt>
      <trkpt lat="38.216960" lon="-0.750057">
        <ele>34.165</ele>
        <time>2021-05-05T11:56:43Z</time>
      </trkpt>
      <trkpt lat="38.216950" lon="-0.750126">
        <ele>33.860</ele>
        <time>2021-05-05T11:56:44Z</time>
      </trkpt>
      <trkpt lat="38.216922" lon="-0.750205">
        <ele>33.480</ele>
        <time>2021-05-05T11:56:46Z</time>
      </trkpt>
      <trkpt lat="38.216895" lon="-0.750262">
        <ele>33.343</ele>
        <time>2021-05-05T11:56:48Z</time>
      </trkpt>
      <trkpt lat="38.216870" lon="-0.750312">
        <ele>33.193</ele>
        <time>2021-05-05T11:56:49Z</time>
      </trkpt>
      <trkpt lat="38.216823" lon="-0.750377">
        <ele>32.995</ele>
        <time>2021-05-05T11:56:51Z</time>
      </trkpt>
      <trkpt lat="38.216782" lon="-0.750448">
        <ele>32.422</ele>
        <time>2021-05-05T11:56:54Z</time>
      </trkpt>
      <trkpt lat="38.216757" lon="-0.750520">
        <ele>32.477</ele>
        <time>2021-05-05T11:56:55Z</time>
      </trkpt>
      <trkpt lat="38.216750" lon="-0.750610">
        <ele>31.867</ele>
        <time>2021-05-05T11:56:58Z</time>
      </trkpt>
      <trkpt lat="38.216756" lon="-0.750688">
        <ele>31.581</ele>
        <time>2021-05-05T11:57:00Z</time>
      </trkpt>
      <trkpt lat="38.216759" lon="-0.750749">
        <ele>31.219</ele>
        <time>2021-05-05T11:57:01Z</time>
      </trkpt>
      <trkpt lat="38.216759" lon="-0.750827">
        <ele>31.108</ele>
        <time>2021-05-05T11:57:04Z</time>
      </trkpt>
      <trkpt lat="38.216786" lon="-0.750896">
        <ele>31.173</ele>
        <time>2021-05-05T11:57:06Z</time>
      </trkpt>
      <trkpt lat="38.216810" lon="-0.750974">
        <ele>30.798</ele>
        <time>2021-05-05T11:57:08Z</time>
      </trkpt>
      <trkpt lat="38.216831" lon="-0.751034">
        <ele>30.578</ele>
        <time>2021-05-05T11:57:09Z</time>
      </trkpt>
      <trkpt lat="38.216860" lon="-0.751111">
        <ele>30.691</ele>
        <time>2021-05-05T11:57:11Z</time>
      </trkpt>
      <trkpt lat="38.216883" lon="-0.751180">
        <ele>30.641</ele>
        <time>2021-05-05T11:57:13Z</time>
      </trkpt>
      <trkpt lat="38.216906" lon="-0.751253">
        <ele>30.713</ele>
        <time>2021-05-05T11:57:14Z</time>
      </trkpt>
      <trkpt lat="38.216920" lon="-0.751308">
        <ele>30.720</ele>
        <time>2021-05-05T11:57:15Z</time>
      </trkpt>
      <trkpt lat="38.216952" lon="-0.751373">
        <ele>30.875</ele>
        <time>2021-05-05T11:57:17Z</time>
      </trkpt>
      <trkpt lat="38.216988" lon="-0.751429">
        <ele>31.058</ele>
        <time>2021-05-05T11:57:18Z</time>
      </trkpt>
      <trkpt lat="38.217050" lon="-0.751493">
        <ele>31.352</ele>
        <time>2021-05-05T11:57:21Z</time>
      </trkpt>
      <trkpt lat="38.217108" lon="-0.751536">
        <ele>31.517</ele>
        <time>2021-05-05T11:57:23Z</time>
      </trkpt>
      <trkpt lat="38.217166" lon="-0.751554">
        <ele>31.708</ele>
        <time>2021-05-05T11:57:24Z</time>
      </trkpt>
      <trkpt lat="38.217232" lon="-0.751569">
        <ele>31.752</ele>
        <time>2021-05-05T11:57:26Z</time>
      </trkpt>
      <trkpt lat="38.217286" lon="-0.751569">
        <ele>32.017</ele>
        <time>2021-05-05T11:57:28Z</time>
      </trkpt>
      <trkpt lat="38.217354" lon="-0.751573">
        <ele>32.557</ele>
        <time>2021-05-05T11:57:30Z</time>
      </trkpt>
      <trkpt lat="38.217425" lon="-0.751584">
        <ele>33.110</ele>
        <time>2021-05-05T11:57:32Z</time>
      </trkpt>
      <trkpt lat="38.217484" lon="-0.751596">
        <ele>33.620</ele>
        <time>2021-05-05T11:57:34Z</time>
      </trkpt>
      <trkpt lat="38.217556" lon="-0.751616">
        <ele>34.062</ele>
        <time>2021-05-05T11:57:36Z</time>
      </trkpt>
      <trkpt lat="38.217624" lon="-0.751640">
        <ele>33.749</ele>
        <time>2021-05-05T11:57:38Z</time>
      </trkpt>
      <trkpt lat="38.217670" lon="-0.751664">
        <ele>33.624</ele>
        <time>2021-05-05T11:57:39Z</time>
      </trkpt>
      <trkpt lat="38.217738" lon="-0.751702">
        <ele>33.942</ele>
        <time>2021-05-05T11:57:41Z</time>
      </trkpt>
      <trkpt lat="38.217803" lon="-0.751734">
        <ele>34.122</ele>
        <time>2021-05-05T11:57:43Z</time>
      </trkpt>
      <trkpt lat="38.217856" lon="-0.751758">
        <ele>34.114</ele>
        <time>2021-05-05T11:57:45Z</time>
      </trkpt>
      <trkpt lat="38.217922" lon="-0.751791">
        <ele>34.108</ele>
        <time>2021-05-05T11:57:46Z</time>
      </trkpt>
      <trkpt lat="38.217970" lon="-0.751818">
        <ele>34.081</ele>
        <time>2021-05-05T11:57:48Z</time>
      </trkpt>
      <trkpt lat="38.218022" lon="-0.751845">
        <ele>34.056</ele>
        <time>2021-05-05T11:57:49Z</time>
      </trkpt>
      <trkpt lat="38.218093" lon="-0.751886">
        <ele>34.156</ele>
        <time>2021-05-05T11:57:52Z</time>
      </trkpt>
      <trkpt lat="38.218143" lon="-0.751916">
        <ele>33.999</ele>
        <time>2021-05-05T11:57:53Z</time>
      </trkpt>
      <trkpt lat="38.218210" lon="-0.751956">
        <ele>34.349</ele>
        <time>2021-05-05T11:57:55Z</time>
      </trkpt>
      <trkpt lat="38.218262" lon="-0.751990">
        <ele>34.251</ele>
        <time>2021-05-05T11:57:56Z</time>
      </trkpt>
      <trkpt lat="38.218327" lon="-0.752039">
        <ele>34.498</ele>
        <time>2021-05-05T11:57:58Z</time>
      </trkpt>
      <trkpt lat="38.218384" lon="-0.752076">
        <ele>34.443</ele>
        <time>2021-05-05T11:58:00Z</time>
      </trkpt>
      <trkpt lat="38.218426" lon="-0.752106">
        <ele>34.578</ele>
        <time>2021-05-05T11:58:02Z</time>
      </trkpt>
      <trkpt lat="38.218472" lon="-0.752137">
        <ele>34.533</ele>
        <time>2021-05-05T11:58:03Z</time>
      </trkpt>
      <trkpt lat="38.218512" lon="-0.752164">
        <ele>34.926</ele>
        <time>2021-05-05T11:58:04Z</time>
      </trkpt>
      <trkpt lat="38.218552" lon="-0.752199">
        <ele>34.808</ele>
        <time>2021-05-05T11:58:06Z</time>
      </trkpt>
      <trkpt lat="38.218603" lon="-0.752241">
        <ele>34.824</ele>
        <time>2021-05-05T11:58:07Z</time>
      </trkpt>
      <trkpt lat="38.218663" lon="-0.752288">
        <ele>35.069</ele>
        <time>2021-05-05T11:58:09Z</time>
      </trkpt>
      <trkpt lat="38.218729" lon="-0.752345">
        <ele>35.259</ele>
        <time>2021-05-05T11:58:11Z</time>
      </trkpt>
      <trkpt lat="38.218775" lon="-0.752389">
        <ele>35.372</ele>
        <time>2021-05-05T11:58:13Z</time>
      </trkpt>
      <trkpt lat="38.218841" lon="-0.752435">
        <ele>35.572</ele>
        <time>2021-05-05T11:58:15Z</time>
      </trkpt>
      <trkpt lat="38.218902" lon="-0.752487">
        <ele>35.554</ele>
        <time>2021-05-05T11:58:17Z</time>
      </trkpt>
      <trkpt lat="38.218953" lon="-0.752513">
        <ele>35.831</ele>
        <time>2021-05-05T11:58:18Z</time>
      </trkpt>
      <trkpt lat="38.218997" lon="-0.752532">
        <ele>35.876</ele>
        <time>2021-05-05T11:58:20Z</time>
      </trkpt>
      <trkpt lat="38.219050" lon="-0.752559">
        <ele>35.851</ele>
        <time>2021-05-05T11:58:21Z</time>
      </trkpt>
      <trkpt lat="38.219095" lon="-0.752579">
        <ele>35.901</ele>
        <time>2021-05-05T11:58:23Z</time>
      </trkpt>
      <trkpt lat="38.219148" lon="-0.752592">
        <ele>36.211</ele>
        <time>2021-05-05T11:58:24Z</time>
      </trkpt>
      <trkpt lat="38.219196" lon="-0.752606">
        <ele>36.308</ele>
        <time>2021-05-05T11:58:26Z</time>
      </trkpt>
      <trkpt lat="38.219262" lon="-0.752622">
        <ele>36.222</ele>
        <time>2021-05-05T11:58:27Z</time>
      </trkpt>
      <trkpt lat="38.219335" lon="-0.752632">
        <ele>36.457</ele>
        <time>2021-05-05T11:58:29Z</time>
      </trkpt>
      <trkpt lat="38.219381" lon="-0.752640">
        <ele>36.347</ele>
        <time>2021-05-05T11:58:31Z</time>
      </trkpt>
      <trkpt lat="38.219447" lon="-0.752643">
        <ele>36.160</ele>
        <time>2021-05-05T11:58:32Z</time>
      </trkpt>
      <trkpt lat="38.219519" lon="-0.752646">
        <ele>36.350</ele>
        <time>2021-05-05T11:58:34Z</time>
      </trkpt>
      <trkpt lat="38.219584" lon="-0.752660">
        <ele>36.552</ele>
        <time>2021-05-05T11:58:36Z</time>
      </trkpt>
      <trkpt lat="38.219632" lon="-0.752665">
        <ele>36.679</ele>
        <time>2021-05-05T11:58:38Z</time>
      </trkpt>
      <trkpt lat="38.219682" lon="-0.752676">
        <ele>36.764</ele>
        <time>2021-05-05T11:58:39Z</time>
      </trkpt>
      <trkpt lat="38.219742" lon="-0.752683">
        <ele>36.872</ele>
        <time>2021-05-05T11:58:41Z</time>
      </trkpt>
      <trkpt lat="38.219787" lon="-0.752691">
        <ele>36.813</ele>
        <time>2021-05-05T11:58:42Z</time>
      </trkpt>
      <trkpt lat="38.219862" lon="-0.752699">
        <ele>36.614</ele>
        <time>2021-05-05T11:58:44Z</time>
      </trkpt>
      <trkpt lat="38.219939" lon="-0.752705">
        <ele>37.008</ele>
        <time>2021-05-05T11:58:47Z</time>
      </trkpt>
      <trkpt lat="38.219996" lon="-0.752712">
        <ele>37.274</ele>
        <time>2021-05-05T11:58:48Z</time>
      </trkpt>
      <trkpt lat="38.220065" lon="-0.752731">
        <ele>37.729</ele>
        <time>2021-05-05T11:58:51Z</time>
      </trkpt>
      <trkpt lat="38.220126" lon="-0.752742">
        <ele>38.199</ele>
        <time>2021-05-05T11:58:53Z</time>
      </trkpt>
      <trkpt lat="38.220178" lon="-0.752752">
        <ele>38.042</ele>
        <time>2021-05-05T11:58:54Z</time>
      </trkpt>
      <trkpt lat="38.220255" lon="-0.752767">
        <ele>37.912</ele>
        <time>2021-05-05T11:58:56Z</time>
      </trkpt>
      <trkpt lat="38.220331" lon="-0.752780">
        <ele>38.034</ele>
        <time>2021-05-05T11:58:58Z</time>
      </trkpt>
      <trkpt lat="38.220391" lon="-0.752788">
        <ele>37.891</ele>
        <time>2021-05-05T11:59:00Z</time>
      </trkpt>
      <trkpt lat="38.220437" lon="-0.752797">
        <ele>37.946</ele>
        <time>2021-05-05T11:59:01Z</time>
      </trkpt>
      <trkpt lat="38.220509" lon="-0.752816">
        <ele>37.957</ele>
        <time>2021-05-05T11:59:04Z</time>
      </trkpt>
      <trkpt lat="38.220569" lon="-0.752828">
        <ele>38.000</ele>
        <time>2021-05-05T11:59:05Z</time>
      </trkpt>
      <trkpt lat="38.220629" lon="-0.752838">
        <ele>37.820</ele>
        <time>2021-05-05T11:59:07Z</time>
      </trkpt>
      <trkpt lat="38.220677" lon="-0.752846">
        <ele>37.708</ele>
        <time>2021-05-05T11:59:09Z</time>
      </trkpt>
      <trkpt lat="38.220744" lon="-0.752854">
        <ele>38.022</ele>
        <time>2021-05-05T11:59:11Z</time>
      </trkpt>
      <trkpt lat="38.220812" lon="-0.752867">
        <ele>38.217</ele>
        <time>2021-05-05T11:59:13Z</time>
      </trkpt>
      <trkpt lat="38.220874" lon="-0.752882">
        <ele>38.087</ele>
        <time>2021-05-05T11:59:15Z</time>
      </trkpt>
      <trkpt lat="38.220924" lon="-0.752887">
        <ele>38.110</ele>
        <time>2021-05-05T11:59:16Z</time>
      </trkpt>
      <trkpt lat="38.220991" lon="-0.752902">
        <ele>38.370</ele>
        <time>2021-05-05T11:59:19Z</time>
      </trkpt>
      <trkpt lat="38.221047" lon="-0.752919">
        <ele>38.382</ele>
        <time>2021-05-05T11:59:21Z</time>
      </trkpt>
      <trkpt lat="38.221097" lon="-0.752926">
        <ele>38.489</ele>
        <time>2021-05-05T11:59:23Z</time>
      </trkpt>
      <trkpt lat="38.221169" lon="-0.752932">
        <ele>38.414</ele>
        <time>2021-05-05T11:59:26Z</time>
      </trkpt>
      <trkpt lat="38.221214" lon="-0.752934">
        <ele>38.784</ele>
        <time>2021-05-05T11:59:28Z</time>
      </trkpt>
      <trkpt lat="38.221259" lon="-0.752927">
        <ele>38.407</ele>
        <time>2021-05-05T11:59:29Z</time>
      </trkpt>
      <trkpt lat="38.221296" lon="-0.752865">
        <ele>38.517</ele>
        <time>2021-05-05T11:59:32Z</time>
      </trkpt>
      <trkpt lat="38.221341" lon="-0.752838">
        <ele>38.908</ele>
        <time>2021-05-05T11:59:34Z</time>
      </trkpt>
      <trkpt lat="38.221400" lon="-0.752816">
        <ele>39.395</ele>
        <time>2021-05-05T11:59:37Z</time>
      </trkpt>
      <trkpt lat="38.221455" lon="-0.752833">
        <ele>39.480</ele>
        <time>2021-05-05T11:59:41Z</time>
      </trkpt>
      <trkpt lat="38.221497" lon="-0.752767">
        <ele>39.690</ele>
        <time>2021-05-05T12:00:28Z</time>
      </trkpt>
      <trkpt lat="38.221527" lon="-0.752717">
        <ele>40.053</ele>
        <time>2021-05-05T12:00:30Z</time>
      </trkpt>
      <trkpt lat="38.221558" lon="-0.752675">
        <ele>40.233</ele>
        <time>2021-05-05T12:00:32Z</time>
      </trkpt>
      <trkpt lat="38.221589" lon="-0.752632">
        <ele>40.465</ele>
        <time>2021-05-05T12:00:34Z</time>
      </trkpt>
      <trkpt lat="38.221628" lon="-0.752602">
        <ele>40.612</ele>
        <time>2021-05-05T12:00:36Z</time>
      </trkpt>
      <trkpt lat="38.221673" lon="-0.752557">
        <ele>40.537</ele>
        <time>2021-05-05T12:00:39Z</time>
      </trkpt>
      <trkpt lat="38.221706" lon="-0.752498">
        <ele>40.751</ele>
        <time>2021-05-05T12:00:43Z</time>
      </trkpt>
      <trkpt lat="38.221741" lon="-0.752445">
        <ele>41.001</ele>
        <time>2021-05-05T12:00:46Z</time>
      </trkpt>
      <trkpt lat="38.221776" lon="-0.752370">
        <ele>41.211</ele>
        <time>2021-05-05T12:00:50Z</time>
      </trkpt>
      <trkpt lat="38.221786" lon="-0.752313">
        <ele>41.208</ele>
        <time>2021-05-05T12:00:51Z</time>
      </trkpt>
      <trkpt lat="38.221820" lon="-0.752247">
        <ele>41.512</ele>
        <time>2021-05-05T12:00:54Z</time>
      </trkpt>
      <trkpt lat="38.221857" lon="-0.752197">
        <ele>41.587</ele>
        <time>2021-05-05T12:00:56Z</time>
      </trkpt>
      <trkpt lat="38.221898" lon="-0.752146">
        <ele>41.477</ele>
        <time>2021-05-05T12:00:58Z</time>
      </trkpt>
      <trkpt lat="38.221935" lon="-0.752087">
        <ele>41.590</ele>
        <time>2021-05-05T12:01:00Z</time>
      </trkpt>
      <trkpt lat="38.221968" lon="-0.752029">
        <ele>41.640</ele>
        <time>2021-05-05T12:01:01Z</time>
      </trkpt>
      <trkpt lat="38.222008" lon="-0.751963">
        <ele>41.712</ele>
        <time>2021-05-05T12:01:04Z</time>
      </trkpt>
      <trkpt lat="38.222041" lon="-0.751908">
        <ele>42.039</ele>
        <time>2021-05-05T12:01:05Z</time>
      </trkpt>
      <trkpt lat="38.222093" lon="-0.751877">
        <ele>41.924</ele>
        <time>2021-05-05T12:01:07Z</time>
      </trkpt>
      <trkpt lat="38.222137" lon="-0.751820">
        <ele>41.823</ele>
        <time>2021-05-05T12:01:09Z</time>
      </trkpt>
      <trkpt lat="38.222171" lon="-0.751751">
        <ele>42.183</ele>
        <time>2021-05-05T12:01:11Z</time>
      </trkpt>
      <trkpt lat="38.222209" lon="-0.751677">
        <ele>41.711</ele>
        <time>2021-05-05T12:01:13Z</time>
      </trkpt>
      <trkpt lat="38.222256" lon="-0.751601">
        <ele>41.908</ele>
        <time>2021-05-05T12:01:14Z</time>
      </trkpt>
      <trkpt lat="38.222302" lon="-0.751545">
        <ele>41.969</ele>
        <time>2021-05-05T12:01:16Z</time>
      </trkpt>
      <trkpt lat="38.222333" lon="-0.751497">
        <ele>41.934</ele>
        <time>2021-05-05T12:01:17Z</time>
      </trkpt>
      <trkpt lat="38.222373" lon="-0.751428">
        <ele>41.754</ele>
        <time>2021-05-05T12:01:18Z</time>
      </trkpt>
      <trkpt lat="38.222451" lon="-0.751319">
        <ele>41.847</ele>
        <time>2021-05-05T12:01:22Z</time>
      </trkpt>
      <trkpt lat="38.222493" lon="-0.751247">
        <ele>41.947</ele>
        <time>2021-05-05T12:01:23Z</time>
      </trkpt>
      <trkpt lat="38.222528" lon="-0.751193">
        <ele>41.639</ele>
        <time>2021-05-05T12:01:24Z</time>
      </trkpt>
      <trkpt lat="38.222578" lon="-0.751115">
        <ele>41.646</ele>
        <time>2021-05-05T12:01:26Z</time>
      </trkpt>
      <trkpt lat="38.222619" lon="-0.751049">
        <ele>41.741</ele>
        <time>2021-05-05T12:01:27Z</time>
      </trkpt>
      <trkpt lat="38.222654" lon="-0.750996">
        <ele>41.835</ele>
        <time>2021-05-05T12:01:28Z</time>
      </trkpt>
      <trkpt lat="38.222719" lon="-0.750896">
        <ele>41.786</ele>
        <time>2021-05-05T12:01:30Z</time>
      </trkpt>
      <trkpt lat="38.222771" lon="-0.750833">
        <ele>41.814</ele>
        <time>2021-05-05T12:01:32Z</time>
      </trkpt>
      <trkpt lat="38.222802" lon="-0.750789">
        <ele>41.908</ele>
        <time>2021-05-05T12:01:33Z</time>
      </trkpt>
      <trkpt lat="38.222835" lon="-0.750738">
        <ele>42.050</ele>
        <time>2021-05-05T12:01:34Z</time>
      </trkpt>
      <trkpt lat="38.222874" lon="-0.750684">
        <ele>42.055</ele>
        <time>2021-05-05T12:01:36Z</time>
      </trkpt>
      <trkpt lat="38.222946" lon="-0.750585">
        <ele>42.185</ele>
        <time>2021-05-05T12:01:38Z</time>
      </trkpt>
      <trkpt lat="38.222978" lon="-0.750541">
        <ele>41.988</ele>
        <time>2021-05-05T12:01:39Z</time>
      </trkpt>
      <trkpt lat="38.223040" lon="-0.750451">
        <ele>41.828</ele>
        <time>2021-05-05T12:01:41Z</time>
      </trkpt>
      <trkpt lat="38.223073" lon="-0.750405">
        <ele>41.920</ele>
        <time>2021-05-05T12:01:42Z</time>
      </trkpt>
      <trkpt lat="38.223136" lon="-0.750313">
        <ele>42.157</ele>
        <time>2021-05-05T12:01:44Z</time>
      </trkpt>
      <trkpt lat="38.223167" lon="-0.750269">
        <ele>42.122</ele>
        <time>2021-05-05T12:01:45Z</time>
      </trkpt>
      <trkpt lat="38.223231" lon="-0.750180">
        <ele>41.935</ele>
        <time>2021-05-05T12:01:47Z</time>
      </trkpt>
      <trkpt lat="38.223293" lon="-0.750090">
        <ele>41.986</ele>
        <time>2021-05-05T12:01:49Z</time>
      </trkpt>
      <trkpt lat="38.223322" lon="-0.750044">
        <ele>42.014</ele>
        <time>2021-05-05T12:01:50Z</time>
      </trkpt>
      <trkpt lat="38.223352" lon="-0.750000">
        <ele>42.208</ele>
        <time>2021-05-05T12:01:51Z</time>
      </trkpt>
      <trkpt lat="38.223388" lon="-0.749922">
        <ele>41.880</ele>
        <time>2021-05-05T12:01:53Z</time>
      </trkpt>
      <trkpt lat="38.223445" lon="-0.749837">
        <ele>42.045</ele>
        <time>2021-05-05T12:01:55Z</time>
      </trkpt>
      <trkpt lat="38.223502" lon="-0.749765">
        <ele>41.875</ele>
        <time>2021-05-05T12:01:57Z</time>
      </trkpt>
      <trkpt lat="38.223555" lon="-0.749742">
        <ele>41.828</ele>
        <time>2021-05-05T12:01:59Z</time>
      </trkpt>
      <trkpt lat="38.223599" lon="-0.749664">
        <ele>41.748</ele>
        <time>2021-05-05T12:02:00Z</time>
      </trkpt>
      <trkpt lat="38.223641" lon="-0.749590">
        <ele>41.710</ele>
        <time>2021-05-05T12:02:01Z</time>
      </trkpt>
      <trkpt lat="38.223683" lon="-0.749512">
        <ele>41.897</ele>
        <time>2021-05-05T12:02:03Z</time>
      </trkpt>
      <trkpt lat="38.223720" lon="-0.749452">
        <ele>41.762</ele>
        <time>2021-05-05T12:02:04Z</time>
      </trkpt>
      <trkpt lat="38.223784" lon="-0.749362">
        <ele>42.072</ele>
        <time>2021-05-05T12:02:06Z</time>
      </trkpt>
      <trkpt lat="38.223827" lon="-0.749303">
        <ele>42.113</ele>
        <time>2021-05-05T12:02:08Z</time>
      </trkpt>
      <trkpt lat="38.223860" lon="-0.749256">
        <ele>42.314</ele>
        <time>2021-05-05T12:02:09Z</time>
      </trkpt>
      <trkpt lat="38.223920" lon="-0.749165">
        <ele>42.508</ele>
        <time>2021-05-05T12:02:11Z</time>
      </trkpt>
      <trkpt lat="38.223982" lon="-0.749077">
        <ele>42.794</ele>
        <time>2021-05-05T12:02:13Z</time>
      </trkpt>
      <trkpt lat="38.224013" lon="-0.749034">
        <ele>42.619</ele>
        <time>2021-05-05T12:02:14Z</time>
      </trkpt>
      <trkpt lat="38.224074" lon="-0.748948">
        <ele>42.419</ele>
        <time>2021-05-05T12:02:16Z</time>
      </trkpt>
      <trkpt lat="38.224104" lon="-0.748903">
        <ele>42.452</ele>
        <time>2021-05-05T12:02:17Z</time>
      </trkpt>
      <trkpt lat="38.224133" lon="-0.748859">
        <ele>42.352</ele>
        <time>2021-05-05T12:02:18Z</time>
      </trkpt>
      <trkpt lat="38.224173" lon="-0.748780">
        <ele>42.324</ele>
        <time>2021-05-05T12:02:20Z</time>
      </trkpt>
      <trkpt lat="38.224212" lon="-0.748735">
        <ele>42.611</ele>
        <time>2021-05-05T12:02:21Z</time>
      </trkpt>
      <trkpt lat="38.224246" lon="-0.748697">
        <ele>42.566</ele>
        <time>2021-05-05T12:02:22Z</time>
      </trkpt>
      <trkpt lat="38.224287" lon="-0.748643">
        <ele>42.687</ele>
        <time>2021-05-05T12:02:23Z</time>
      </trkpt>
      <trkpt lat="38.224326" lon="-0.748586">
        <ele>42.842</ele>
        <time>2021-05-05T12:02:25Z</time>
      </trkpt>
      <trkpt lat="38.224364" lon="-0.748533">
        <ele>43.126</ele>
        <time>2021-05-05T12:02:27Z</time>
      </trkpt>
      <trkpt lat="38.224399" lon="-0.748481">
        <ele>43.108</ele>
        <time>2021-05-05T12:02:28Z</time>
      </trkpt>
      <trkpt lat="38.224431" lon="-0.748429">
        <ele>43.315</ele>
        <time>2021-05-05T12:02:30Z</time>
      </trkpt>
      <trkpt lat="38.224477" lon="-0.748366">
        <ele>43.340</ele>
        <time>2021-05-05T12:02:32Z</time>
      </trkpt>
      <trkpt lat="38.224525" lon="-0.748309">
        <ele>43.360</ele>
        <time>2021-05-05T12:02:34Z</time>
      </trkpt>
      <trkpt lat="38.224572" lon="-0.748250">
        <ele>43.433</ele>
        <time>2021-05-05T12:02:36Z</time>
      </trkpt>
      <trkpt lat="38.224606" lon="-0.748204">
        <ele>43.423</ele>
        <time>2021-05-05T12:02:37Z</time>
      </trkpt>
      <trkpt lat="38.224656" lon="-0.748137">
        <ele>43.335</ele>
        <time>2021-05-05T12:02:40Z</time>
      </trkpt>
      <trkpt lat="38.224706" lon="-0.748083">
        <ele>43.082</ele>
        <time>2021-05-05T12:02:42Z</time>
      </trkpt>
      <trkpt lat="38.224745" lon="-0.748041">
        <ele>43.117</ele>
        <time>2021-05-05T12:02:43Z</time>
      </trkpt>
      <trkpt lat="38.224781" lon="-0.748005">
        <ele>43.312</ele>
        <time>2021-05-05T12:02:45Z</time>
      </trkpt>
      <trkpt lat="38.224829" lon="-0.747952">
        <ele>43.132</ele>
        <time>2021-05-05T12:02:47Z</time>
      </trkpt>
      <trkpt lat="38.224879" lon="-0.747898">
        <ele>43.505</ele>
        <time>2021-05-05T12:02:49Z</time>
      </trkpt>
      <trkpt lat="38.224927" lon="-0.747844">
        <ele>43.608</ele>
        <time>2021-05-05T12:02:51Z</time>
      </trkpt>
      <trkpt lat="38.224967" lon="-0.747801">
        <ele>43.978</ele>
        <time>2021-05-05T12:02:52Z</time>
      </trkpt>
      <trkpt lat="38.225027" lon="-0.747744">
        <ele>44.083</ele>
        <time>2021-05-05T12:02:54Z</time>
      </trkpt>
      <trkpt lat="38.225073" lon="-0.747692">
        <ele>44.133</ele>
        <time>2021-05-05T12:02:56Z</time>
      </trkpt>
      <trkpt lat="38.225127" lon="-0.747640">
        <ele>44.296</ele>
        <time>2021-05-05T12:02:59Z</time>
      </trkpt>
      <trkpt lat="38.225166" lon="-0.747599">
        <ele>44.356</ele>
        <time>2021-05-05T12:03:00Z</time>
      </trkpt>
      <trkpt lat="38.225221" lon="-0.747544">
        <ele>44.328</ele>
        <time>2021-05-05T12:03:03Z</time>
      </trkpt>
      <trkpt lat="38.225269" lon="-0.747495">
        <ele>44.495</ele>
        <time>2021-05-05T12:03:05Z</time>
      </trkpt>
      <trkpt lat="38.225317" lon="-0.747434">
        <ele>44.680</ele>
        <time>2021-05-05T12:03:07Z</time>
      </trkpt>
      <trkpt lat="38.225369" lon="-0.747379">
        <ele>44.845</ele>
        <time>2021-05-05T12:03:09Z</time>
      </trkpt>
      <trkpt lat="38.225420" lon="-0.747321">
        <ele>44.747</ele>
        <time>2021-05-05T12:03:11Z</time>
      </trkpt>
      <trkpt lat="38.225458" lon="-0.747277">
        <ele>44.711</ele>
        <time>2021-05-05T12:03:12Z</time>
      </trkpt>
      <trkpt lat="38.225528" lon="-0.747204">
        <ele>44.708</ele>
        <time>2021-05-05T12:03:15Z</time>
      </trkpt>
      <trkpt lat="38.225581" lon="-0.747151">
        <ele>44.931</ele>
        <time>2021-05-05T12:03:17Z</time>
      </trkpt>
      <trkpt lat="38.225620" lon="-0.747106">
        <ele>44.876</ele>
        <time>2021-05-05T12:03:18Z</time>
      </trkpt>
      <trkpt lat="38.225678" lon="-0.747060">
        <ele>44.666</ele>
        <time>2021-05-05T12:03:21Z</time>
      </trkpt>
      <trkpt lat="38.225733" lon="-0.747012">
        <ele>44.719</ele>
        <time>2021-05-05T12:03:23Z</time>
      </trkpt>
      <trkpt lat="38.225777" lon="-0.746939">
        <ele>44.839</ele>
        <time>2021-05-05T12:03:25Z</time>
      </trkpt>
      <trkpt lat="38.225815" lon="-0.746904">
        <ele>44.821</ele>
        <time>2021-05-05T12:03:26Z</time>
      </trkpt>
      <trkpt lat="38.225852" lon="-0.746858">
        <ele>44.948</ele>
        <time>2021-05-05T12:03:27Z</time>
      </trkpt>
      <trkpt lat="38.225887" lon="-0.746819">
        <ele>44.953</ele>
        <time>2021-05-05T12:03:29Z</time>
      </trkpt>
      <trkpt lat="38.225927" lon="-0.746782">
        <ele>44.849</ele>
        <time>2021-05-05T12:03:30Z</time>
      </trkpt>
      <trkpt lat="38.225976" lon="-0.746732">
        <ele>44.702</ele>
        <time>2021-05-05T12:03:32Z</time>
      </trkpt>
      <trkpt lat="38.226028" lon="-0.746681">
        <ele>44.922</ele>
        <time>2021-05-05T12:03:33Z</time>
      </trkpt>
      <trkpt lat="38.226091" lon="-0.746633">
        <ele>45.008</ele>
        <time>2021-05-05T12:03:35Z</time>
      </trkpt>
      <trkpt lat="38.226140" lon="-0.746565">
        <ele>44.851</ele>
        <time>2021-05-05T12:03:37Z</time>
      </trkpt>
      <trkpt lat="38.226182" lon="-0.746515">
        <ele>44.946</ele>
        <time>2021-05-05T12:03:39Z</time>
      </trkpt>
      <trkpt lat="38.226236" lon="-0.746467">
        <ele>45.016</ele>
        <time>2021-05-05T12:03:41Z</time>
      </trkpt>
      <trkpt lat="38.226280" lon="-0.746414">
        <ele>45.249</ele>
        <time>2021-05-05T12:03:42Z</time>
      </trkpt>
      <trkpt lat="38.226340" lon="-0.746351">
        <ele>45.299</ele>
        <time>2021-05-05T12:03:44Z</time>
      </trkpt>
      <trkpt lat="38.226415" lon="-0.746274">
        <ele>45.391</ele>
        <time>2021-05-05T12:03:47Z</time>
      </trkpt>
      <trkpt lat="38.226465" lon="-0.746212">
        <ele>45.498</ele>
        <time>2021-05-05T12:03:48Z</time>
      </trkpt>
      <trkpt lat="38.226508" lon="-0.746157">
        <ele>45.483</ele>
        <time>2021-05-05T12:03:50Z</time>
      </trkpt>
      <trkpt lat="38.226557" lon="-0.746096">
        <ele>45.415</ele>
        <time>2021-05-05T12:03:51Z</time>
      </trkpt>
      <trkpt lat="38.226604" lon="-0.746047">
        <ele>45.265</ele>
        <time>2021-05-05T12:03:53Z</time>
      </trkpt>
      <trkpt lat="38.226675" lon="-0.745964">
        <ele>45.111</ele>
        <time>2021-05-05T12:03:55Z</time>
      </trkpt>
      <trkpt lat="38.226716" lon="-0.745915">
        <ele>45.108</ele>
        <time>2021-05-05T12:03:57Z</time>
      </trkpt>
      <trkpt lat="38.226762" lon="-0.745853">
        <ele>45.148</ele>
        <time>2021-05-05T12:03:58Z</time>
      </trkpt>
      <trkpt lat="38.226800" lon="-0.745802">
        <ele>45.083</ele>
        <time>2021-05-05T12:04:00Z</time>
      </trkpt>
      <trkpt lat="38.226860" lon="-0.745729">
        <ele>45.153</ele>
        <time>2021-05-05T12:04:02Z</time>
      </trkpt>
      <trkpt lat="38.226895" lon="-0.745665">
        <ele>45.076</ele>
        <time>2021-05-05T12:04:03Z</time>
      </trkpt>
      <trkpt lat="38.226929" lon="-0.745581">
        <ele>45.086</ele>
        <time>2021-05-05T12:04:05Z</time>
      </trkpt>
      <trkpt lat="38.226957" lon="-0.745514">
        <ele>44.998</ele>
        <time>2021-05-05T12:04:06Z</time>
      </trkpt>
      <trkpt lat="38.226980" lon="-0.745455">
        <ele>45.055</ele>
        <time>2021-05-05T12:04:07Z</time>
      </trkpt>
      <trkpt lat="38.227002" lon="-0.745391">
        <ele>44.880</ele>
        <time>2021-05-05T12:04:09Z</time>
      </trkpt>
      <trkpt lat="38.227022" lon="-0.745325">
        <ele>45.113</ele>
        <time>2021-05-05T12:04:10Z</time>
      </trkpt>
      <trkpt lat="38.227041" lon="-0.745222">
        <ele>45.443</ele>
        <time>2021-05-05T12:04:12Z</time>
      </trkpt>
      <trkpt lat="38.227074" lon="-0.745183">
        <ele>45.207</ele>
        <time>2021-05-05T12:04:13Z</time>
      </trkpt>
      <trkpt lat="38.227096" lon="-0.745125">
        <ele>45.208</ele>
        <time>2021-05-05T12:04:14Z</time>
      </trkpt>
      <trkpt lat="38.227126" lon="-0.745025">
        <ele>45.478</ele>
        <time>2021-05-05T12:04:16Z</time>
      </trkpt>
      <trkpt lat="38.227113" lon="-0.744966">
        <ele>45.453</ele>
        <time>2021-05-05T12:04:17Z</time>
      </trkpt>
      <trkpt lat="38.227134" lon="-0.744899">
        <ele>45.563</ele>
        <time>2021-05-05T12:04:18Z</time>
      </trkpt>
      <trkpt lat="38.227170" lon="-0.744838">
        <ele>45.516</ele>
        <time>2021-05-05T12:04:20Z</time>
      </trkpt>
      <trkpt lat="38.227218" lon="-0.744765">
        <ele>45.376</ele>
        <time>2021-05-05T12:04:22Z</time>
      </trkpt>
      <trkpt lat="38.227252" lon="-0.744708">
        <ele>45.238</ele>
        <time>2021-05-05T12:04:24Z</time>
      </trkpt>
      <trkpt lat="38.227310" lon="-0.744704">
        <ele>45.455</ele>
        <time>2021-05-05T12:04:27Z</time>
      </trkpt>
      <trkpt lat="38.227309" lon="-0.744786">
        <ele>45.230</ele>
        <time>2021-05-05T12:04:31Z</time>
      </trkpt>
      <trkpt lat="38.227288" lon="-0.744842">
        <ele>45.081</ele>
        <time>2021-05-05T12:04:32Z</time>
      </trkpt>
      <trkpt lat="38.227264" lon="-0.744911">
        <ele>44.661</ele>
        <time>2021-05-05T12:04:35Z</time>
      </trkpt>
      <trkpt lat="38.227231" lon="-0.744996">
        <ele>44.317</ele>
        <time>2021-05-05T12:04:37Z</time>
      </trkpt>
      <trkpt lat="38.227204" lon="-0.745061">
        <ele>44.408</ele>
        <time>2021-05-05T12:04:38Z</time>
      </trkpt>
      <trkpt lat="38.227178" lon="-0.745127">
        <ele>44.115</ele>
        <time>2021-05-05T12:04:40Z</time>
      </trkpt>
      <trkpt lat="38.227146" lon="-0.745208">
        <ele>44.220</ele>
        <time>2021-05-05T12:04:42Z</time>
      </trkpt>
      <trkpt lat="38.227119" lon="-0.745287">
        <ele>44.250</ele>
        <time>2021-05-05T12:04:44Z</time>
      </trkpt>
      <trkpt lat="38.227093" lon="-0.745360">
        <ele>44.013</ele>
        <time>2021-05-05T12:04:46Z</time>
      </trkpt>
      <trkpt lat="38.227071" lon="-0.745428">
        <ele>44.133</ele>
        <time>2021-05-05T12:04:48Z</time>
      </trkpt>
      <trkpt lat="38.227049" lon="-0.745494">
        <ele>43.955</ele>
        <time>2021-05-05T12:04:49Z</time>
      </trkpt>
      <trkpt lat="38.227023" lon="-0.745561">
        <ele>43.882</ele>
        <time>2021-05-05T12:04:51Z</time>
      </trkpt>
      <trkpt lat="38.226998" lon="-0.745630">
        <ele>43.847</ele>
        <time>2021-05-05T12:04:54Z</time>
      </trkpt>
      <trkpt lat="38.226986" lon="-0.745689">
        <ele>43.767</ele>
        <time>2021-05-05T12:04:56Z</time>
      </trkpt>
      <trkpt lat="38.227003" lon="-0.745742">
        <ele>43.781</ele>
        <time>2021-05-05T12:04:58Z</time>
      </trkpt>
      <trkpt lat="38.227037" lon="-0.745801">
        <ele>43.919</ele>
        <time>2021-05-05T12:05:00Z</time>
      </trkpt>
      <trkpt lat="38.227034" lon="-0.745872">
        <ele>44.108</ele>
        <time>2021-05-05T12:05:05Z</time>
      </trkpt>
      <trkpt lat="38.226986" lon="-0.745874">
        <ele>43.913</ele>
        <time>2021-05-05T12:05:07Z</time>
      </trkpt>
      <trkpt lat="38.226924" lon="-0.745869">
        <ele>43.998</ele>
        <time>2021-05-05T12:05:09Z</time>
      </trkpt>
      <trkpt lat="38.226871" lon="-0.745894">
        <ele>43.938</ele>
        <time>2021-05-05T12:05:11Z</time>
      </trkpt>
      <trkpt lat="38.226813" lon="-0.745918">
        <ele>43.851</ele>
        <time>2021-05-05T12:05:14Z</time>
      </trkpt>
      <trkpt lat="38.226751" lon="-0.745879">
        <ele>43.861</ele>
        <time>2021-05-05T12:05:17Z</time>
      </trkpt>
      <trkpt lat="38.226730" lon="-0.745806">
        <ele>43.793</ele>
        <time>2021-05-05T12:05:19Z</time>
      </trkpt>
      <trkpt lat="38.226720" lon="-0.745739">
        <ele>43.730</ele>
        <time>2021-05-05T12:05:20Z</time>
      </trkpt>
      <trkpt lat="38.226693" lon="-0.745663">
        <ele>43.515</ele>
        <time>2021-05-05T12:05:23Z</time>
      </trkpt>
      <trkpt lat="38.226673" lon="-0.745602">
        <ele>43.936</ele>
        <time>2021-05-05T12:05:25Z</time>
      </trkpt>
      <trkpt lat="38.226661" lon="-0.745533">
        <ele>44.117</ele>
        <time>2021-05-05T12:05:27Z</time>
      </trkpt>
      <trkpt lat="38.226643" lon="-0.745478">
        <ele>44.418</ele>
        <time>2021-05-05T12:05:28Z</time>
      </trkpt>
      <trkpt lat="38.226624" lon="-0.745410">
        <ele>44.408</ele>
        <time>2021-05-05T12:05:30Z</time>
      </trkpt>
      <trkpt lat="38.226608" lon="-0.745334">
        <ele>44.410</ele>
        <time>2021-05-05T12:05:32Z</time>
      </trkpt>
      <trkpt lat="38.226588" lon="-0.745251">
        <ele>44.125</ele>
        <time>2021-05-05T12:05:35Z</time>
      </trkpt>
      <trkpt lat="38.226574" lon="-0.745183">
        <ele>43.535</ele>
        <time>2021-05-05T12:05:36Z</time>
      </trkpt>
      <trkpt lat="38.226542" lon="-0.745058">
        <ele>43.368</ele>
        <time>2021-05-05T12:05:38Z</time>
      </trkpt>
      <trkpt lat="38.226527" lon="-0.745003">
        <ele>43.378</ele>
        <time>2021-05-05T12:05:39Z</time>
      </trkpt>
      <trkpt lat="38.226509" lon="-0.744914">
        <ele>43.270</ele>
        <time>2021-05-05T12:05:41Z</time>
      </trkpt>
      <trkpt lat="38.226503" lon="-0.744855">
        <ele>43.057</ele>
        <time>2021-05-05T12:05:42Z</time>
      </trkpt>
      <trkpt lat="38.226494" lon="-0.744784">
        <ele>42.942</ele>
        <time>2021-05-05T12:05:43Z</time>
      </trkpt>
      <trkpt lat="38.226475" lon="-0.744705">
        <ele>43.099</ele>
        <time>2021-05-05T12:05:45Z</time>
      </trkpt>
      <trkpt lat="38.226485" lon="-0.744766">
        <ele>42.807</ele>
        <time>2021-05-05T12:05:51Z</time>
      </trkpt>
      <trkpt lat="38.226517" lon="-0.744814">
        <ele>42.727</ele>
        <time>2021-05-05T12:06:38Z</time>
      </trkpt>
      <trkpt lat="38.226538" lon="-0.744885">
        <ele>42.908</ele>
        <time>2021-05-05T12:06:41Z</time>
      </trkpt>
      <trkpt lat="38.226535" lon="-0.744943">
        <ele>43.116</ele>
        <time>2021-05-05T12:06:43Z</time>
      </trkpt>
      <trkpt lat="38.226528" lon="-0.745024">
        <ele>43.061</ele>
        <time>2021-05-05T12:06:45Z</time>
      </trkpt>
      <trkpt lat="38.226546" lon="-0.745092">
        <ele>42.711</ele>
        <time>2021-05-05T12:06:48Z</time>
      </trkpt>
      <trkpt lat="38.226566" lon="-0.745174">
        <ele>43.124</ele>
        <time>2021-05-05T12:06:50Z</time>
      </trkpt>
      <trkpt lat="38.226577" lon="-0.745236">
        <ele>43.484</ele>
        <time>2021-05-05T12:06:52Z</time>
      </trkpt>
      <trkpt lat="38.226599" lon="-0.745317">
        <ele>43.296</ele>
        <time>2021-05-05T12:06:54Z</time>
      </trkpt>
      <trkpt lat="38.226625" lon="-0.745388">
        <ele>43.023</ele>
        <time>2021-05-05T12:06:55Z</time>
      </trkpt>
      <trkpt lat="38.226652" lon="-0.745473">
        <ele>43.228</ele>
        <time>2021-05-05T12:06:58Z</time>
      </trkpt>
      <trkpt lat="38.226671" lon="-0.745549">
        <ele>43.264</ele>
        <time>2021-05-05T12:06:59Z</time>
      </trkpt>
      <trkpt lat="38.226689" lon="-0.745639">
        <ele>42.906</ele>
        <time>2021-05-05T12:07:01Z</time>
      </trkpt>
      <trkpt lat="38.226706" lon="-0.745713">
        <ele>42.916</ele>
        <time>2021-05-05T12:07:03Z</time>
      </trkpt>
      <trkpt lat="38.226723" lon="-0.745789">
        <ele>42.808</ele>
        <time>2021-05-05T12:07:05Z</time>
      </trkpt>
      <trkpt lat="38.226746" lon="-0.745851">
        <ele>42.843</ele>
        <time>2021-05-05T12:07:07Z</time>
      </trkpt>
      <trkpt lat="38.226788" lon="-0.745885">
        <ele>42.988</ele>
        <time>2021-05-05T12:07:09Z</time>
      </trkpt>
      <trkpt lat="38.226819" lon="-0.745815">
        <ele>42.478</ele>
        <time>2021-05-05T12:07:10Z</time>
      </trkpt>
      <trkpt lat="38.226858" lon="-0.745728">
        <ele>42.431</ele>
        <time>2021-05-05T12:07:12Z</time>
      </trkpt>
      <trkpt lat="38.226889" lon="-0.745672">
        <ele>42.351</ele>
        <time>2021-05-05T12:07:13Z</time>
      </trkpt>
      <trkpt lat="38.226929" lon="-0.745570">
        <ele>42.553</ele>
        <time>2021-05-05T12:07:15Z</time>
      </trkpt>
      <trkpt lat="38.226950" lon="-0.745510">
        <ele>42.620</ele>
        <time>2021-05-05T12:07:17Z</time>
      </trkpt>
      <trkpt lat="38.226981" lon="-0.745412">
        <ele>42.685</ele>
        <time>2021-05-05T12:07:18Z</time>
      </trkpt>
      <trkpt lat="38.227000" lon="-0.745359">
        <ele>42.627</ele>
        <time>2021-05-05T12:07:20Z</time>
      </trkpt>
      <trkpt lat="38.227026" lon="-0.745288">
        <ele>42.868</ele>
        <time>2021-05-05T12:07:21Z</time>
      </trkpt>
      <trkpt lat="38.227051" lon="-0.745223">
        <ele>42.914</ele>
        <time>2021-05-05T12:07:22Z</time>
      </trkpt>
      <trkpt lat="38.227078" lon="-0.745146">
        <ele>43.208</ele>
        <time>2021-05-05T12:07:24Z</time>
      </trkpt>
      <trkpt lat="38.227103" lon="-0.745074">
        <ele>43.149</ele>
        <time>2021-05-05T12:07:25Z</time>
      </trkpt>
      <trkpt lat="38.227141" lon="-0.744979">
        <ele>43.334</ele>
        <time>2021-05-05T12:07:27Z</time>
      </trkpt>
      <trkpt lat="38.227177" lon="-0.744887">
        <ele>43.534</ele>
        <time>2021-05-05T12:07:29Z</time>
      </trkpt>
      <trkpt lat="38.227209" lon="-0.744803">
        <ele>43.797</ele>
        <time>2021-05-05T12:07:31Z</time>
      </trkpt>
      <trkpt lat="38.227235" lon="-0.744748">
        <ele>43.867</ele>
        <time>2021-05-05T12:07:33Z</time>
      </trkpt>
      <trkpt lat="38.227270" lon="-0.744681">
        <ele>43.879</ele>
        <time>2021-05-05T12:07:34Z</time>
      </trkpt>
      <trkpt lat="38.227313" lon="-0.744589">
        <ele>44.236</ele>
        <time>2021-05-05T12:07:37Z</time>
      </trkpt>
      <trkpt lat="38.227341" lon="-0.744527">
        <ele>44.381</ele>
        <time>2021-05-05T12:07:38Z</time>
      </trkpt>
      <trkpt lat="38.227370" lon="-0.744468">
        <ele>44.386</ele>
        <time>2021-05-05T12:07:40Z</time>
      </trkpt>
      <trkpt lat="38.227403" lon="-0.744404">
        <ele>44.660</ele>
        <time>2021-05-05T12:07:41Z</time>
      </trkpt>
      <trkpt lat="38.227444" lon="-0.744337">
        <ele>44.826</ele>
        <time>2021-05-05T12:07:43Z</time>
      </trkpt>
      <trkpt lat="38.227489" lon="-0.744271">
        <ele>44.908</ele>
        <time>2021-05-05T12:07:46Z</time>
      </trkpt>
      <trkpt lat="38.227530" lon="-0.744213">
        <ele>45.545</ele>
        <time>2021-05-05T12:07:48Z</time>
      </trkpt>
      <trkpt lat="38.227559" lon="-0.744168">
        <ele>45.910</ele>
        <time>2021-05-05T12:07:49Z</time>
      </trkpt>
      <trkpt lat="38.227599" lon="-0.744121">
        <ele>46.460</ele>
        <time>2021-05-05T12:07:51Z</time>
      </trkpt>
      <trkpt lat="38.227641" lon="-0.744064">
        <ele>46.423</ele>
        <time>2021-05-05T12:07:52Z</time>
      </trkpt>
      <trkpt lat="38.227681" lon="-0.744013">
        <ele>46.653</ele>
        <time>2021-05-05T12:07:54Z</time>
      </trkpt>
      <trkpt lat="38.227741" lon="-0.743933">
        <ele>46.975</ele>
        <time>2021-05-05T12:07:57Z</time>
      </trkpt>
      <trkpt lat="38.227769" lon="-0.743881">
        <ele>47.142</ele>
        <time>2021-05-05T12:07:58Z</time>
      </trkpt>
      <trkpt lat="38.227814" lon="-0.743805">
        <ele>47.547</ele>
        <time>2021-05-05T12:08:00Z</time>
      </trkpt>
      <trkpt lat="38.227843" lon="-0.743759">
        <ele>47.691</ele>
        <time>2021-05-05T12:08:02Z</time>
      </trkpt>
      <trkpt lat="38.227883" lon="-0.743693">
        <ele>47.881</ele>
        <time>2021-05-05T12:08:04Z</time>
      </trkpt>
      <trkpt lat="38.227911" lon="-0.743642">
        <ele>47.719</ele>
        <time>2021-05-05T12:08:05Z</time>
      </trkpt>
      <trkpt lat="38.227952" lon="-0.743576">
        <ele>47.908</ele>
        <time>2021-05-05T12:08:07Z</time>
      </trkpt>
      <trkpt lat="38.227989" lon="-0.743519">
        <ele>47.636</ele>
        <time>2021-05-05T12:08:09Z</time>
      </trkpt>
      <trkpt lat="38.228017" lon="-0.743468">
        <ele>47.621</ele>
        <time>2021-05-05T12:08:10Z</time>
      </trkpt>
      <trkpt lat="38.228048" lon="-0.743421">
        <ele>47.141</ele>
        <time>2021-05-05T12:08:11Z</time>
      </trkpt>
      <trkpt lat="38.228094" lon="-0.743369">
        <ele>47.034</ele>
        <time>2021-05-05T12:08:13Z</time>
      </trkpt>
      <trkpt lat="38.228142" lon="-0.743314">
        <ele>47.444</ele>
        <time>2021-05-05T12:08:15Z</time>
      </trkpt>
      <trkpt lat="38.228185" lon="-0.743257">
        <ele>47.686</ele>
        <time>2021-05-05T12:08:17Z</time>
      </trkpt>
      <trkpt lat="38.228229" lon="-0.743175">
        <ele>47.753</ele>
        <time>2021-05-05T12:08:20Z</time>
      </trkpt>
      <trkpt lat="38.228265" lon="-0.743112">
        <ele>48.178</ele>
        <time>2021-05-05T12:08:21Z</time>
      </trkpt>
      <trkpt lat="38.228294" lon="-0.743067">
        <ele>48.165</ele>
        <time>2021-05-05T12:08:23Z</time>
      </trkpt>
      <trkpt lat="38.228340" lon="-0.742995">
        <ele>48.268</ele>
        <time>2021-05-05T12:08:25Z</time>
      </trkpt>
      <trkpt lat="38.228377" lon="-0.742932">
        <ele>48.014</ele>
        <time>2021-05-05T12:08:26Z</time>
      </trkpt>
      <trkpt lat="38.228417" lon="-0.742869">
        <ele>48.208</ele>
        <time>2021-05-05T12:08:28Z</time>
      </trkpt>
      <trkpt lat="38.228465" lon="-0.742796">
        <ele>48.053</ele>
        <time>2021-05-05T12:08:31Z</time>
      </trkpt>
      <trkpt lat="38.228496" lon="-0.742729">
        <ele>48.138</ele>
        <time>2021-05-05T12:08:32Z</time>
      </trkpt>
      <trkpt lat="38.228531" lon="-0.742666">
        <ele>48.428</ele>
        <time>2021-05-05T12:08:34Z</time>
      </trkpt>
      <trkpt lat="38.228561" lon="-0.742605">
        <ele>48.381</ele>
        <time>2021-05-05T12:08:36Z</time>
      </trkpt>
      <trkpt lat="38.228596" lon="-0.742543">
        <ele>48.261</ele>
        <time>2021-05-05T12:08:38Z</time>
      </trkpt>
      <trkpt lat="38.228621" lon="-0.742482">
        <ele>48.273</ele>
        <time>2021-05-05T12:08:39Z</time>
      </trkpt>
      <trkpt lat="38.228642" lon="-0.742426">
        <ele>48.180</ele>
        <time>2021-05-05T12:08:41Z</time>
      </trkpt>
      <trkpt lat="38.228668" lon="-0.742374">
        <ele>48.455</ele>
        <time>2021-05-05T12:08:42Z</time>
      </trkpt>
      <trkpt lat="38.228697" lon="-0.742309">
        <ele>48.767</ele>
        <time>2021-05-05T12:08:43Z</time>
      </trkpt>
      <trkpt lat="38.228725" lon="-0.742254">
        <ele>48.581</ele>
        <time>2021-05-05T12:08:45Z</time>
      </trkpt>
      <trkpt lat="38.228760" lon="-0.742174">
        <ele>48.419</ele>
        <time>2021-05-05T12:08:47Z</time>
      </trkpt>
      <trkpt lat="38.228785" lon="-0.742104">
        <ele>48.708</ele>
        <time>2021-05-05T12:08:50Z</time>
      </trkpt>
      <trkpt lat="38.228816" lon="-0.742017">
        <ele>48.133</ele>
        <time>2021-05-05T12:08:52Z</time>
      </trkpt>
      <trkpt lat="38.228844" lon="-0.741962">
        <ele>48.018</ele>
        <time>2021-05-05T12:08:54Z</time>
      </trkpt>
      <trkpt lat="38.228872" lon="-0.741899">
        <ele>48.128</ele>
        <time>2021-05-05T12:08:56Z</time>
      </trkpt>
      <trkpt lat="38.228900" lon="-0.741830">
        <ele>47.981</ele>
        <time>2021-05-05T12:08:58Z</time>
      </trkpt>
      <trkpt lat="38.228925" lon="-0.741764">
        <ele>48.081</ele>
        <time>2021-05-05T12:09:00Z</time>
      </trkpt>
      <trkpt lat="38.228957" lon="-0.741687">
        <ele>48.213</ele>
        <time>2021-05-05T12:09:01Z</time>
      </trkpt>
      <trkpt lat="38.228984" lon="-0.741631">
        <ele>48.350</ele>
        <time>2021-05-05T12:09:03Z</time>
      </trkpt>
      <trkpt lat="38.229023" lon="-0.741551">
        <ele>48.385</ele>
        <time>2021-05-05T12:09:05Z</time>
      </trkpt>
      <trkpt lat="38.229048" lon="-0.741499">
        <ele>48.352</ele>
        <time>2021-05-05T12:09:07Z</time>
      </trkpt>
      <trkpt lat="38.229072" lon="-0.741446">
        <ele>48.353</ele>
        <time>2021-05-05T12:09:08Z</time>
      </trkpt>
      <trkpt lat="38.229099" lon="-0.741386">
        <ele>48.408</ele>
        <time>2021-05-05T12:09:10Z</time>
      </trkpt>
      <trkpt lat="38.229132" lon="-0.741309">
        <ele>48.408</ele>
        <time>2021-05-05T12:09:12Z</time>
      </trkpt>
      <trkpt lat="38.229160" lon="-0.741247">
        <ele>48.552</ele>
        <time>2021-05-05T12:09:13Z</time>
      </trkpt>
      <trkpt lat="38.229202" lon="-0.741170">
        <ele>48.637</ele>
        <time>2021-05-05T12:09:15Z</time>
      </trkpt>
      <trkpt lat="38.229239" lon="-0.741088">
        <ele>48.827</ele>
        <time>2021-05-05T12:09:18Z</time>
      </trkpt>
      <trkpt lat="38.229280" lon="-0.741012">
        <ele>48.920</ele>
        <time>2021-05-05T12:09:20Z</time>
      </trkpt>
      <trkpt lat="38.229317" lon="-0.740954">
        <ele>48.820</ele>
        <time>2021-05-05T12:09:21Z</time>
      </trkpt>
      <trkpt lat="38.229344" lon="-0.740904">
        <ele>49.332</ele>
        <time>2021-05-05T12:09:23Z</time>
      </trkpt>
      <trkpt lat="38.229370" lon="-0.740838">
        <ele>49.649</ele>
        <time>2021-05-05T12:09:24Z</time>
      </trkpt>
      <trkpt lat="38.229393" lon="-0.740781">
        <ele>49.754</ele>
        <time>2021-05-05T12:09:26Z</time>
      </trkpt>
      <trkpt lat="38.229426" lon="-0.740704">
        <ele>49.492</ele>
        <time>2021-05-05T12:09:27Z</time>
      </trkpt>
      <trkpt lat="38.229459" lon="-0.740619">
        <ele>49.373</ele>
        <time>2021-05-05T12:09:30Z</time>
      </trkpt>
      <trkpt lat="38.229488" lon="-0.740556">
        <ele>49.220</ele>
        <time>2021-05-05T12:09:31Z</time>
      </trkpt>
      <trkpt lat="38.229520" lon="-0.740472">
        <ele>49.308</ele>
        <time>2021-05-05T12:09:33Z</time>
      </trkpt>
      <trkpt lat="38.229557" lon="-0.740385">
        <ele>49.196</ele>
        <time>2021-05-05T12:09:35Z</time>
      </trkpt>
      <trkpt lat="38.229577" lon="-0.740332">
        <ele>49.171</ele>
        <time>2021-05-05T12:09:37Z</time>
      </trkpt>
      <trkpt lat="38.229607" lon="-0.740266">
        <ele>49.281</ele>
        <time>2021-05-05T12:09:39Z</time>
      </trkpt>
      <trkpt lat="38.229630" lon="-0.740203">
        <ele>49.444</ele>
        <time>2021-05-05T12:09:40Z</time>
      </trkpt>
      <trkpt lat="38.229651" lon="-0.740132">
        <ele>49.544</ele>
        <time>2021-05-05T12:09:42Z</time>
      </trkpt>
      <trkpt lat="38.229675" lon="-0.740067">
        <ele>49.556</ele>
        <time>2021-05-05T12:09:43Z</time>
      </trkpt>
      <trkpt lat="38.229714" lon="-0.739978">
        <ele>49.713</ele>
        <time>2021-05-05T12:09:46Z</time>
      </trkpt>
      <trkpt lat="38.229747" lon="-0.739897">
        <ele>49.788</ele>
        <time>2021-05-05T12:09:48Z</time>
      </trkpt>
      <trkpt lat="38.229776" lon="-0.739825">
        <ele>49.979</ele>
        <time>2021-05-05T12:09:49Z</time>
      </trkpt>
      <trkpt lat="38.229812" lon="-0.739741">
        <ele>50.105</ele>
        <time>2021-05-05T12:09:51Z</time>
      </trkpt>
      <trkpt lat="38.229864" lon="-0.739666">
        <ele>50.225</ele>
        <time>2021-05-05T12:09:54Z</time>
      </trkpt>
      <trkpt lat="38.229899" lon="-0.739594">
        <ele>50.208</ele>
        <time>2021-05-05T12:09:55Z</time>
      </trkpt>
      <trkpt lat="38.229930" lon="-0.739522">
        <ele>50.394</ele>
        <time>2021-05-05T12:09:57Z</time>
      </trkpt>
      <trkpt lat="38.229957" lon="-0.739465">
        <ele>50.329</ele>
        <time>2021-05-05T12:09:59Z</time>
      </trkpt>
      <trkpt lat="38.229986" lon="-0.739402">
        <ele>50.499</ele>
        <time>2021-05-05T12:10:00Z</time>
      </trkpt>
      <trkpt lat="38.230020" lon="-0.739325">
        <ele>50.572</ele>
        <time>2021-05-05T12:10:02Z</time>
      </trkpt>
      <trkpt lat="38.230059" lon="-0.739245">
        <ele>50.512</ele>
        <time>2021-05-05T12:10:04Z</time>
      </trkpt>
      <trkpt lat="38.230088" lon="-0.739175">
        <ele>50.444</ele>
        <time>2021-05-05T12:10:06Z</time>
      </trkpt>
      <trkpt lat="38.230130" lon="-0.739089">
        <ele>50.911</ele>
        <time>2021-05-05T12:10:08Z</time>
      </trkpt>
      <trkpt lat="38.230155" lon="-0.739014">
        <ele>51.056</ele>
        <time>2021-05-05T12:10:10Z</time>
      </trkpt>
      <trkpt lat="38.230177" lon="-0.738957">
        <ele>51.113</ele>
        <time>2021-05-05T12:10:11Z</time>
      </trkpt>
      <trkpt lat="38.230211" lon="-0.738893">
        <ele>51.243</ele>
        <time>2021-05-05T12:10:13Z</time>
      </trkpt>
      <trkpt lat="38.230245" lon="-0.738821">
        <ele>51.407</ele>
        <time>2021-05-05T12:10:15Z</time>
      </trkpt>
      <trkpt lat="38.230271" lon="-0.738752">
        <ele>51.708</ele>
        <time>2021-05-05T12:10:17Z</time>
      </trkpt>
      <trkpt lat="38.230296" lon="-0.738688">
        <ele>51.528</ele>
        <time>2021-05-05T12:10:19Z</time>
      </trkpt>
      <trkpt lat="38.230314" lon="-0.738635">
        <ele>51.753</ele>
        <time>2021-05-05T12:10:21Z</time>
      </trkpt>
      <trkpt lat="38.230339" lon="-0.738552">
        <ele>52.173</ele>
        <time>2021-05-05T12:10:24Z</time>
      </trkpt>
      <trkpt lat="38.230366" lon="-0.738495">
        <ele>52.246</ele>
        <time>2021-05-05T12:10:26Z</time>
      </trkpt>
      <trkpt lat="38.230394" lon="-0.738436">
        <ele>52.216</ele>
        <time>2021-05-05T12:10:28Z</time>
      </trkpt>
      <trkpt lat="38.230423" lon="-0.738365">
        <ele>52.258</ele>
        <time>2021-05-05T12:10:30Z</time>
      </trkpt>
      <trkpt lat="38.230453" lon="-0.738283">
        <ele>52.325</ele>
        <time>2021-05-05T12:10:33Z</time>
      </trkpt>
      <trkpt lat="38.230483" lon="-0.738226">
        <ele>52.490</ele>
        <time>2021-05-05T12:10:34Z</time>
      </trkpt>
      <trkpt lat="38.230522" lon="-0.738152">
        <ele>52.577</ele>
        <time>2021-05-05T12:10:37Z</time>
      </trkpt>
      <trkpt lat="38.230556" lon="-0.738083">
        <ele>52.561</ele>
        <time>2021-05-05T12:10:39Z</time>
      </trkpt>
      <trkpt lat="38.230584" lon="-0.738010">
        <ele>52.527</ele>
        <time>2021-05-05T12:10:41Z</time>
      </trkpt>
      <trkpt lat="38.230624" lon="-0.737939">
        <ele>52.408</ele>
        <time>2021-05-05T12:10:43Z</time>
      </trkpt>
      <trkpt lat="38.230659" lon="-0.737870">
        <ele>52.574</ele>
        <time>2021-05-05T12:10:45Z</time>
      </trkpt>
      <trkpt lat="38.230681" lon="-0.737816">
        <ele>52.349</ele>
        <time>2021-05-05T12:10:46Z</time>
      </trkpt>
      <trkpt lat="38.230709" lon="-0.737760">
        <ele>52.419</ele>
        <time>2021-05-05T12:10:47Z</time>
      </trkpt>
      <trkpt lat="38.230739" lon="-0.737700">
        <ele>52.562</ele>
        <time>2021-05-05T12:10:49Z</time>
      </trkpt>
      <trkpt lat="38.230777" lon="-0.737609">
        <ele>52.632</ele>
        <time>2021-05-05T12:10:52Z</time>
      </trkpt>
      <trkpt lat="38.230810" lon="-0.737542">
        <ele>52.514</ele>
        <time>2021-05-05T12:10:54Z</time>
      </trkpt>
      <trkpt lat="38.230841" lon="-0.737474">
        <ele>52.721</ele>
        <time>2021-05-05T12:10:56Z</time>
      </trkpt>
      <trkpt lat="38.230879" lon="-0.737414">
        <ele>53.096</ele>
        <time>2021-05-05T12:10:58Z</time>
      </trkpt>
      <trkpt lat="38.230909" lon="-0.737343">
        <ele>53.193</ele>
        <time>2021-05-05T12:11:00Z</time>
      </trkpt>
      <trkpt lat="38.230946" lon="-0.737288">
        <ele>53.365</ele>
        <time>2021-05-05T12:11:02Z</time>
      </trkpt>
      <trkpt lat="38.230981" lon="-0.737233">
        <ele>53.321</ele>
        <time>2021-05-05T12:11:04Z</time>
      </trkpt>
      <trkpt lat="38.231000" lon="-0.737170">
        <ele>53.308</ele>
        <time>2021-05-05T12:11:06Z</time>
      </trkpt>
      <trkpt lat="38.230992" lon="-0.737089">
        <ele>53.656</ele>
        <time>2021-05-05T12:11:08Z</time>
      </trkpt>
      <trkpt lat="38.231064" lon="-0.737070">
        <ele>53.821</ele>
        <time>2021-05-05T12:11:13Z</time>
      </trkpt>
      <trkpt lat="38.231128" lon="-0.737016">
        <ele>54.011</ele>
        <time>2021-05-05T12:11:16Z</time>
      </trkpt>
      <trkpt lat="38.231161" lon="-0.736969">
        <ele>54.134</ele>
        <time>2021-05-05T12:11:18Z</time>
      </trkpt>
      <trkpt lat="38.231158" lon="-0.737029">
        <ele>54.994</ele>
        <time>2021-05-05T12:11:54Z</time>
      </trkpt>
      <trkpt lat="38.231123" lon="-0.737069">
        <ele>54.996</ele>
        <time>2021-05-05T12:11:57Z</time>
      </trkpt>
      <trkpt lat="38.231075" lon="-0.737112">
        <ele>54.843</ele>
        <time>2021-05-05T12:12:00Z</time>
      </trkpt>
      <trkpt lat="38.231038" lon="-0.737146">
        <ele>54.658</ele>
        <time>2021-05-05T12:12:02Z</time>
      </trkpt>
      <trkpt lat="38.230992" lon="-0.737171">
        <ele>54.592</ele>
        <time>2021-05-05T12:12:06Z</time>
      </trkpt>
      <trkpt lat="38.230956" lon="-0.737207">
        <ele>54.473</ele>
        <time>2021-05-05T12:12:19Z</time>
      </trkpt>
      <trkpt lat="38.230924" lon="-0.737268">
        <ele>54.020</ele>
        <time>2021-05-05T12:12:21Z</time>
      </trkpt>
      <trkpt lat="38.230897" lon="-0.737317">
        <ele>54.008</ele>
        <time>2021-05-05T12:12:23Z</time>
      </trkpt>
      <trkpt lat="38.230860" lon="-0.737391">
        <ele>53.826</ele>
        <time>2021-05-05T12:12:24Z</time>
      </trkpt>
      <trkpt lat="38.230834" lon="-0.737440">
        <ele>53.721</ele>
        <time>2021-05-05T12:12:25Z</time>
      </trkpt>
      <trkpt lat="38.230781" lon="-0.737540">
        <ele>53.651</ele>
        <time>2021-05-05T12:12:28Z</time>
      </trkpt>
      <trkpt lat="38.230742" lon="-0.737621">
        <ele>53.654</ele>
        <time>2021-05-05T12:12:29Z</time>
      </trkpt>
      <trkpt lat="38.230705" lon="-0.737704">
        <ele>53.234</ele>
        <time>2021-05-05T12:12:31Z</time>
      </trkpt>
      <trkpt lat="38.230660" lon="-0.737799">
        <ele>52.836</ele>
        <time>2021-05-05T12:12:33Z</time>
      </trkpt>
      <trkpt lat="38.230618" lon="-0.737884">
        <ele>52.893</ele>
        <time>2021-05-05T12:12:35Z</time>
      </trkpt>
      <trkpt lat="38.230592" lon="-0.737932">
        <ele>52.568</ele>
        <time>2021-05-05T12:12:36Z</time>
      </trkpt>
      <trkpt lat="38.230547" lon="-0.738028">
        <ele>52.555</ele>
        <time>2021-05-05T12:12:39Z</time>
      </trkpt>
      <trkpt lat="38.230509" lon="-0.738119">
        <ele>52.107</ele>
        <time>2021-05-05T12:12:41Z</time>
      </trkpt>
      <trkpt lat="38.230477" lon="-0.738201">
        <ele>51.817</ele>
        <time>2021-05-05T12:12:42Z</time>
      </trkpt>
      <trkpt lat="38.230454" lon="-0.738259">
        <ele>51.808</ele>
        <time>2021-05-05T12:12:44Z</time>
      </trkpt>
      <trkpt lat="38.230424" lon="-0.738324">
        <ele>51.612</ele>
        <time>2021-05-05T12:12:46Z</time>
      </trkpt>
      <trkpt lat="38.230396" lon="-0.738390">
        <ele>51.467</ele>
        <time>2021-05-05T12:12:47Z</time>
      </trkpt>
      <trkpt lat="38.230360" lon="-0.738469">
        <ele>51.247</ele>
        <time>2021-05-05T12:12:49Z</time>
      </trkpt>
      <trkpt lat="38.230335" lon="-0.738532">
        <ele>51.290</ele>
        <time>2021-05-05T12:12:51Z</time>
      </trkpt>
      <trkpt lat="38.230313" lon="-0.738590">
        <ele>51.240</ele>
        <time>2021-05-05T12:12:52Z</time>
      </trkpt>
      <trkpt lat="38.230285" lon="-0.738662">
        <ele>51.182</ele>
        <time>2021-05-05T12:12:54Z</time>
      </trkpt>
      <trkpt lat="38.230241" lon="-0.738725">
        <ele>51.159</ele>
        <time>2021-05-05T12:12:57Z</time>
      </trkpt>
      <trkpt lat="38.230194" lon="-0.738722">
        <ele>51.164</ele>
        <time>2021-05-05T12:12:59Z</time>
      </trkpt>
      <trkpt lat="38.230140" lon="-0.738692">
        <ele>51.495</ele>
        <time>2021-05-05T12:13:01Z</time>
      </trkpt>
      <trkpt lat="38.230093" lon="-0.738635">
        <ele>51.549</ele>
        <time>2021-05-05T12:13:04Z</time>
      </trkpt>
      <trkpt lat="38.230041" lon="-0.738602">
        <ele>51.723</ele>
        <time>2021-05-05T12:13:06Z</time>
      </trkpt>
      <trkpt lat="38.229998" lon="-0.738572">
        <ele>51.608</ele>
        <time>2021-05-05T12:13:09Z</time>
      </trkpt>
      <trkpt lat="38.229950" lon="-0.738542">
        <ele>51.376</ele>
        <time>2021-05-05T12:13:21Z</time>
      </trkpt>
      <trkpt lat="38.229902" lon="-0.738519">
        <ele>51.091</ele>
        <time>2021-05-05T12:13:23Z</time>
      </trkpt>
      <trkpt lat="38.229860" lon="-0.738492">
        <ele>51.271</ele>
        <time>2021-05-05T12:13:25Z</time>
      </trkpt>
      <trkpt lat="38.229804" lon="-0.738455">
        <ele>51.084</ele>
        <time>2021-05-05T12:13:28Z</time>
      </trkpt>
      <trkpt lat="38.229756" lon="-0.738442">
        <ele>50.714</ele>
        <time>2021-05-05T12:13:31Z</time>
      </trkpt>
      <trkpt lat="38.229705" lon="-0.738427">
        <ele>50.936</ele>
        <time>2021-05-05T12:13:34Z</time>
      </trkpt>
      <trkpt lat="38.229641" lon="-0.738387">
        <ele>50.893</ele>
        <time>2021-05-05T12:13:37Z</time>
      </trkpt>
      <trkpt lat="38.229587" lon="-0.738352">
        <ele>50.638</ele>
        <time>2021-05-05T12:13:39Z</time>
      </trkpt>
      <trkpt lat="38.229515" lon="-0.738318">
        <ele>50.674</ele>
        <time>2021-05-05T12:13:41Z</time>
      </trkpt>
      <trkpt lat="38.229453" lon="-0.738264">
        <ele>50.356</ele>
        <time>2021-05-05T12:13:43Z</time>
      </trkpt>
      <trkpt lat="38.229384" lon="-0.738225">
        <ele>50.421</ele>
        <time>2021-05-05T12:13:45Z</time>
      </trkpt>
      <trkpt lat="38.229301" lon="-0.738182">
        <ele>50.408</ele>
        <time>2021-05-05T12:13:47Z</time>
      </trkpt>
      <trkpt lat="38.229223" lon="-0.738139">
        <ele>50.494</ele>
        <time>2021-05-05T12:13:49Z</time>
      </trkpt>
      <trkpt lat="38.229147" lon="-0.738101">
        <ele>50.329</ele>
        <time>2021-05-05T12:13:51Z</time>
      </trkpt>
      <trkpt lat="38.229060" lon="-0.738054">
        <ele>50.239</ele>
        <time>2021-05-05T12:13:53Z</time>
      </trkpt>
      <trkpt lat="38.228976" lon="-0.738011">
        <ele>50.332</ele>
        <time>2021-05-05T12:13:55Z</time>
      </trkpt>
      <trkpt lat="38.228887" lon="-0.737964">
        <ele>50.242</ele>
        <time>2021-05-05T12:13:57Z</time>
      </trkpt>
      <trkpt lat="38.228793" lon="-0.737917">
        <ele>50.154</ele>
        <time>2021-05-05T12:13:59Z</time>
      </trkpt>
      <trkpt lat="38.228746" lon="-0.737895">
        <ele>50.071</ele>
        <time>2021-05-05T12:14:00Z</time>
      </trkpt>
      <trkpt lat="38.228699" lon="-0.737875">
        <ele>50.016</ele>
        <time>2021-05-05T12:14:01Z</time>
      </trkpt>
      <trkpt lat="38.228606" lon="-0.737835">
        <ele>49.867</ele>
        <time>2021-05-05T12:14:03Z</time>
      </trkpt>
      <trkpt lat="38.228522" lon="-0.737794">
        <ele>49.681</ele>
        <time>2021-05-05T12:14:05Z</time>
      </trkpt>
      <trkpt lat="38.228458" lon="-0.737755">
        <ele>49.619</ele>
        <time>2021-05-05T12:14:07Z</time>
      </trkpt>
      <trkpt lat="38.228381" lon="-0.737707">
        <ele>49.508</ele>
        <time>2021-05-05T12:14:09Z</time>
      </trkpt>
      <trkpt lat="38.228313" lon="-0.737666">
        <ele>49.453</ele>
        <time>2021-05-05T12:14:11Z</time>
      </trkpt>
      <trkpt lat="38.228230" lon="-0.737622">
        <ele>49.198</ele>
        <time>2021-05-05T12:14:13Z</time>
      </trkpt>
      <trkpt lat="38.228188" lon="-0.737601">
        <ele>48.928</ele>
        <time>2021-05-05T12:14:14Z</time>
      </trkpt>
      <trkpt lat="38.228107" lon="-0.737547">
        <ele>48.671</ele>
        <time>2021-05-05T12:14:16Z</time>
      </trkpt>
      <trkpt lat="38.228032" lon="-0.737507">
        <ele>48.471</ele>
        <time>2021-05-05T12:14:18Z</time>
      </trkpt>
      <trkpt lat="38.227954" lon="-0.737466">
        <ele>48.443</ele>
        <time>2021-05-05T12:14:20Z</time>
      </trkpt>
      <trkpt lat="38.227862" lon="-0.737421">
        <ele>48.440</ele>
        <time>2021-05-05T12:14:22Z</time>
      </trkpt>
      <trkpt lat="38.227775" lon="-0.737378">
        <ele>48.135</ele>
        <time>2021-05-05T12:14:24Z</time>
      </trkpt>
      <trkpt lat="38.227732" lon="-0.737354">
        <ele>48.246</ele>
        <time>2021-05-05T12:14:25Z</time>
      </trkpt>
      <trkpt lat="38.227690" lon="-0.737331">
        <ele>48.388</ele>
        <time>2021-05-05T12:14:26Z</time>
      </trkpt>
      <trkpt lat="38.227646" lon="-0.737309">
        <ele>48.116</ele>
        <time>2021-05-05T12:14:27Z</time>
      </trkpt>
      <trkpt lat="38.227603" lon="-0.737287">
        <ele>48.308</ele>
        <time>2021-05-05T12:14:28Z</time>
      </trkpt>
      <trkpt lat="38.227515" lon="-0.737239">
        <ele>48.651</ele>
        <time>2021-05-05T12:14:30Z</time>
      </trkpt>
      <trkpt lat="38.227470" lon="-0.737215">
        <ele>48.966</ele>
        <time>2021-05-05T12:14:31Z</time>
      </trkpt>
      <trkpt lat="38.227379" lon="-0.737169">
        <ele>49.116</ele>
        <time>2021-05-05T12:14:33Z</time>
      </trkpt>
      <trkpt lat="38.227336" lon="-0.737146">
        <ele>49.239</ele>
        <time>2021-05-05T12:14:34Z</time>
      </trkpt>
      <trkpt lat="38.227249" lon="-0.737097">
        <ele>49.339</ele>
        <time>2021-05-05T12:14:36Z</time>
      </trkpt>
      <trkpt lat="38.227164" lon="-0.737047">
        <ele>49.591</ele>
        <time>2021-05-05T12:14:38Z</time>
      </trkpt>
      <trkpt lat="38.227122" lon="-0.737024">
        <ele>49.828</ele>
        <time>2021-05-05T12:14:39Z</time>
      </trkpt>
      <trkpt lat="38.227079" lon="-0.737000">
        <ele>49.883</ele>
        <time>2021-05-05T12:14:40Z</time>
      </trkpt>
      <trkpt lat="38.227037" lon="-0.736975">
        <ele>50.047</ele>
        <time>2021-05-05T12:14:41Z</time>
      </trkpt>
      <trkpt lat="38.226958" lon="-0.736933">
        <ele>50.329</ele>
        <time>2021-05-05T12:14:43Z</time>
      </trkpt>
      <trkpt lat="38.226896" lon="-0.736908">
        <ele>50.321</ele>
        <time>2021-05-05T12:14:45Z</time>
      </trkpt>
      <trkpt lat="38.226827" lon="-0.736869">
        <ele>50.308</ele>
        <time>2021-05-05T12:14:47Z</time>
      </trkpt>
      <trkpt lat="38.226761" lon="-0.736840">
        <ele>50.441</ele>
        <time>2021-05-05T12:14:49Z</time>
      </trkpt>
      <trkpt lat="38.226695" lon="-0.736807">
        <ele>50.376</ele>
        <time>2021-05-05T12:14:51Z</time>
      </trkpt>
      <trkpt lat="38.226635" lon="-0.736775">
        <ele>50.576</ele>
        <time>2021-05-05T12:14:53Z</time>
      </trkpt>
      <trkpt lat="38.226577" lon="-0.736740">
        <ele>50.649</ele>
        <time>2021-05-05T12:14:55Z</time>
      </trkpt>
      <trkpt lat="38.226522" lon="-0.736708">
        <ele>50.459</ele>
        <time>2021-05-05T12:14:57Z</time>
      </trkpt>
      <trkpt lat="38.226478" lon="-0.736680">
        <ele>50.311</ele>
        <time>2021-05-05T12:14:59Z</time>
      </trkpt>
      <trkpt lat="38.226424" lon="-0.736653">
        <ele>50.388</ele>
        <time>2021-05-05T12:15:01Z</time>
      </trkpt>
      <trkpt lat="38.226370" lon="-0.736623">
        <ele>50.493</ele>
        <time>2021-05-05T12:15:03Z</time>
      </trkpt>
      <trkpt lat="38.226319" lon="-0.736605">
        <ele>50.343</ele>
        <time>2021-05-05T12:15:05Z</time>
      </trkpt>
      <trkpt lat="38.226263" lon="-0.736587">
        <ele>50.364</ele>
        <time>2021-05-05T12:15:07Z</time>
      </trkpt>
      <trkpt lat="38.226221" lon="-0.736564">
        <ele>50.310</ele>
        <time>2021-05-05T12:15:09Z</time>
      </trkpt>
      <trkpt lat="38.226178" lon="-0.736532">
        <ele>50.208</ele>
        <time>2021-05-05T12:15:11Z</time>
      </trkpt>
      <trkpt lat="38.226134" lon="-0.736515">
        <ele>50.281</ele>
        <time>2021-05-05T12:15:13Z</time>
      </trkpt>
      <trkpt lat="38.226089" lon="-0.736485">
        <ele>50.196</ele>
        <time>2021-05-05T12:15:16Z</time>
      </trkpt>
      <trkpt lat="38.226135" lon="-0.736467">
        <ele>49.986</ele>
        <time>2021-05-05T12:15:19Z</time>
      </trkpt>
      <trkpt lat="38.226193" lon="-0.736514">
        <ele>49.539</ele>
        <time>2021-05-05T12:15:21Z</time>
      </trkpt>
      <trkpt lat="38.226247" lon="-0.736550">
        <ele>49.289</ele>
        <time>2021-05-05T12:15:23Z</time>
      </trkpt>
      <trkpt lat="38.226311" lon="-0.736594">
        <ele>49.051</ele>
        <time>2021-05-05T12:15:25Z</time>
      </trkpt>
      <trkpt lat="38.226375" lon="-0.736630">
        <ele>49.128</ele>
        <time>2021-05-05T12:15:27Z</time>
      </trkpt>
      <trkpt lat="38.226432" lon="-0.736666">
        <ele>49.313</ele>
        <time>2021-05-05T12:15:29Z</time>
      </trkpt>
      <trkpt lat="38.226482" lon="-0.736687">
        <ele>49.423</ele>
        <time>2021-05-05T12:15:31Z</time>
      </trkpt>
      <trkpt lat="38.226543" lon="-0.736701">
        <ele>49.483</ele>
        <time>2021-05-05T12:15:34Z</time>
      </trkpt>
      <trkpt lat="38.226578" lon="-0.736663">
        <ele>49.211</ele>
        <time>2021-05-05T12:15:37Z</time>
      </trkpt>
      <trkpt lat="38.226606" lon="-0.736608">
        <ele>49.208</ele>
        <time>2021-05-05T12:15:40Z</time>
      </trkpt>
      <trkpt lat="38.226621" lon="-0.736541">
        <ele>49.199</ele>
        <time>2021-05-05T12:15:43Z</time>
      </trkpt>
      <trkpt lat="38.226656" lon="-0.736477">
        <ele>49.014</ele>
        <time>2021-05-05T12:15:46Z</time>
      </trkpt>
      <trkpt lat="38.226663" lon="-0.736394">
        <ele>48.994</ele>
        <time>2021-05-05T12:15:49Z</time>
      </trkpt>
      <trkpt lat="38.226657" lon="-0.736322">
        <ele>48.957</ele>
        <time>2021-05-05T12:15:51Z</time>
      </trkpt>
      <trkpt lat="38.226644" lon="-0.736257">
        <ele>48.987</ele>
        <time>2021-05-05T12:15:53Z</time>
      </trkpt>
      <trkpt lat="38.226614" lon="-0.736200">
        <ele>48.839</ele>
        <time>2021-05-05T12:15:55Z</time>
      </trkpt>
      <trkpt lat="38.226576" lon="-0.736141">
        <ele>49.036</ele>
        <time>2021-05-05T12:15:57Z</time>
      </trkpt>
      <trkpt lat="38.226556" lon="-0.736074">
        <ele>49.091</ele>
        <time>2021-05-05T12:15:59Z</time>
      </trkpt>
      <trkpt lat="38.226534" lon="-0.736022">
        <ele>50.118</ele>
        <time>2021-05-05T12:16:26Z</time>
      </trkpt>
      <trkpt lat="38.226491" lon="-0.735980">
        <ele>50.598</ele>
        <time>2021-05-05T12:16:32Z</time>
      </trkpt>
      <trkpt lat="38.226437" lon="-0.735963">
        <ele>50.717</ele>
        <time>2021-05-05T12:16:35Z</time>
      </trkpt>
      <trkpt lat="38.226395" lon="-0.735928">
        <ele>50.908</ele>
        <time>2021-05-05T12:16:40Z</time>
      </trkpt>
      <trkpt lat="38.226354" lon="-0.735904">
        <ele>51.358</ele>
        <time>2021-05-05T12:16:43Z</time>
      </trkpt>
      <trkpt lat="38.226307" lon="-0.735884">
        <ele>51.553</ele>
        <time>2021-05-05T12:16:48Z</time>
      </trkpt>
      <trkpt lat="38.226268" lon="-0.735843">
        <ele>50.973</ele>
        <time>2021-05-05T12:17:05Z</time>
      </trkpt>
      <trkpt lat="38.226221" lon="-0.735824">
        <ele>50.796</ele>
        <time>2021-05-05T12:17:09Z</time>
      </trkpt>
      <trkpt lat="38.226176" lon="-0.735798">
        <ele>49.996</ele>
        <time>2021-05-05T12:17:57Z</time>
      </trkpt>
      <trkpt lat="38.226136" lon="-0.735833">
        <ele>49.298</ele>
        <time>2021-05-05T12:18:35Z</time>
      </trkpt>
      <trkpt lat="38.226084" lon="-0.735847">
        <ele>48.735</ele>
        <time>2021-05-05T12:18:38Z</time>
      </trkpt>
      <trkpt lat="38.226030" lon="-0.735869">
        <ele>48.570</ele>
        <time>2021-05-05T12:18:41Z</time>
      </trkpt>
      <trkpt lat="38.225986" lon="-0.735883">
        <ele>48.084</ele>
        <time>2021-05-05T12:18:43Z</time>
      </trkpt>
      <trkpt lat="38.225931" lon="-0.735911">
        <ele>47.807</ele>
        <time>2021-05-05T12:18:45Z</time>
      </trkpt>
      <trkpt lat="38.225877" lon="-0.735928">
        <ele>47.717</ele>
        <time>2021-05-05T12:18:47Z</time>
      </trkpt>
      <trkpt lat="38.225818" lon="-0.735941">
        <ele>47.808</ele>
        <time>2021-05-05T12:18:48Z</time>
      </trkpt>
      <trkpt lat="38.225758" lon="-0.735961">
        <ele>47.755</ele>
        <time>2021-05-05T12:18:50Z</time>
      </trkpt>
      <trkpt lat="38.225684" lon="-0.735991">
        <ele>47.670</ele>
        <time>2021-05-05T12:18:52Z</time>
      </trkpt>
      <trkpt lat="38.225600" lon="-0.736020">
        <ele>47.740</ele>
        <time>2021-05-05T12:18:55Z</time>
      </trkpt>
      <trkpt lat="38.225536" lon="-0.736035">
        <ele>47.593</ele>
        <time>2021-05-05T12:18:56Z</time>
      </trkpt>
      <trkpt lat="38.225479" lon="-0.736045">
        <ele>47.683</ele>
        <time>2021-05-05T12:18:58Z</time>
      </trkpt>
      <trkpt lat="38.225402" lon="-0.736058">
        <ele>47.785</ele>
        <time>2021-05-05T12:18:59Z</time>
      </trkpt>
      <trkpt lat="38.225340" lon="-0.736071">
        <ele>47.792</ele>
        <time>2021-05-05T12:19:01Z</time>
      </trkpt>
      <trkpt lat="38.225294" lon="-0.736071">
        <ele>47.997</ele>
        <time>2021-05-05T12:19:02Z</time>
      </trkpt>
      <trkpt lat="38.225220" lon="-0.736070">
        <ele>48.114</ele>
        <time>2021-05-05T12:19:04Z</time>
      </trkpt>
      <trkpt lat="38.225164" lon="-0.736074">
        <ele>48.054</ele>
        <time>2021-05-05T12:19:06Z</time>
      </trkpt>
      <trkpt lat="38.225107" lon="-0.736080">
        <ele>48.509</ele>
        <time>2021-05-05T12:19:07Z</time>
      </trkpt>
      <trkpt lat="38.225059" lon="-0.736085">
        <ele>48.608</ele>
        <time>2021-05-05T12:19:08Z</time>
      </trkpt>
      <trkpt lat="38.225009" lon="-0.736088">
        <ele>48.788</ele>
        <time>2021-05-05T12:19:10Z</time>
      </trkpt>
      <trkpt lat="38.224934" lon="-0.736090">
        <ele>48.943</ele>
        <time>2021-05-05T12:19:12Z</time>
      </trkpt>
      <trkpt lat="38.224859" lon="-0.736093">
        <ele>49.063</ele>
        <time>2021-05-05T12:19:14Z</time>
      </trkpt>
      <trkpt lat="38.224787" lon="-0.736099">
        <ele>48.836</ele>
        <time>2021-05-05T12:19:16Z</time>
      </trkpt>
      <trkpt lat="38.224732" lon="-0.736096">
        <ele>49.076</ele>
        <time>2021-05-05T12:19:17Z</time>
      </trkpt>
      <trkpt lat="38.224669" lon="-0.736093">
        <ele>48.928</ele>
        <time>2021-05-05T12:19:19Z</time>
      </trkpt>
      <trkpt lat="38.224585" lon="-0.736103">
        <ele>48.795</ele>
        <time>2021-05-05T12:19:21Z</time>
      </trkpt>
      <trkpt lat="38.224492" lon="-0.736109">
        <ele>48.460</ele>
        <time>2021-05-05T12:19:23Z</time>
      </trkpt>
      <trkpt lat="38.224390" lon="-0.736115">
        <ele>48.398</ele>
        <time>2021-05-05T12:19:25Z</time>
      </trkpt>
      <trkpt lat="38.224344" lon="-0.736121">
        <ele>48.215</ele>
        <time>2021-05-05T12:19:26Z</time>
      </trkpt>
      <trkpt lat="38.224298" lon="-0.736126">
        <ele>48.326</ele>
        <time>2021-05-05T12:19:27Z</time>
      </trkpt>
      <trkpt lat="38.224252" lon="-0.736135">
        <ele>48.208</ele>
        <time>2021-05-05T12:19:28Z</time>
      </trkpt>
      <trkpt lat="38.224207" lon="-0.736144">
        <ele>48.046</ele>
        <time>2021-05-05T12:19:29Z</time>
      </trkpt>
      <trkpt lat="38.224118" lon="-0.736163">
        <ele>48.031</ele>
        <time>2021-05-05T12:19:31Z</time>
      </trkpt>
      <trkpt lat="38.224030" lon="-0.736189">
        <ele>47.851</ele>
        <time>2021-05-05T12:19:33Z</time>
      </trkpt>
      <trkpt lat="38.223985" lon="-0.736203">
        <ele>47.824</ele>
        <time>2021-05-05T12:19:34Z</time>
      </trkpt>
      <trkpt lat="38.223896" lon="-0.736232">
        <ele>47.834</ele>
        <time>2021-05-05T12:19:36Z</time>
      </trkpt>
      <trkpt lat="38.223852" lon="-0.736248">
        <ele>47.986</ele>
        <time>2021-05-05T12:19:37Z</time>
      </trkpt>
      <trkpt lat="38.223809" lon="-0.736267">
        <ele>47.773</ele>
        <time>2021-05-05T12:19:38Z</time>
      </trkpt>
      <trkpt lat="38.223766" lon="-0.736286">
        <ele>47.668</ele>
        <time>2021-05-05T12:19:39Z</time>
      </trkpt>
      <trkpt lat="38.223680" lon="-0.736327">
        <ele>47.212</ele>
        <time>2021-05-05T12:19:41Z</time>
      </trkpt>
      <trkpt lat="38.223594" lon="-0.736372">
        <ele>47.032</ele>
        <time>2021-05-05T12:19:43Z</time>
      </trkpt>
      <trkpt lat="38.223551" lon="-0.736395">
        <ele>46.905</ele>
        <time>2021-05-05T12:19:44Z</time>
      </trkpt>
      <trkpt lat="38.223465" lon="-0.736439">
        <ele>46.808</ele>
        <time>2021-05-05T12:19:46Z</time>
      </trkpt>
      <trkpt lat="38.223423" lon="-0.736459">
        <ele>46.968</ele>
        <time>2021-05-05T12:19:47Z</time>
      </trkpt>
      <trkpt lat="38.223341" lon="-0.736502">
        <ele>46.593</ele>
        <time>2021-05-05T12:19:49Z</time>
      </trkpt>
      <trkpt lat="38.223298" lon="-0.736522">
        <ele>46.453</ele>
        <time>2021-05-05T12:19:50Z</time>
      </trkpt>
      <trkpt lat="38.223214" lon="-0.736560">
        <ele>46.696</ele>
        <time>2021-05-05T12:19:52Z</time>
      </trkpt>
      <trkpt lat="38.223132" lon="-0.736598">
        <ele>46.416</ele>
        <time>2021-05-05T12:19:54Z</time>
      </trkpt>
      <trkpt lat="38.223055" lon="-0.736643">
        <ele>46.488</ele>
        <time>2021-05-05T12:19:56Z</time>
      </trkpt>
      <trkpt lat="38.222985" lon="-0.736689">
        <ele>46.385</ele>
        <time>2021-05-05T12:19:58Z</time>
      </trkpt>
      <trkpt lat="38.222908" lon="-0.736741">
        <ele>46.220</ele>
        <time>2021-05-05T12:20:00Z</time>
      </trkpt>
      <trkpt lat="38.222864" lon="-0.736776">
        <ele>46.149</ele>
        <time>2021-05-05T12:20:01Z</time>
      </trkpt>
      <trkpt lat="38.222809" lon="-0.736818">
        <ele>45.902</ele>
        <time>2021-05-05T12:20:02Z</time>
      </trkpt>
      <trkpt lat="38.222762" lon="-0.736855">
        <ele>45.822</ele>
        <time>2021-05-05T12:20:04Z</time>
      </trkpt>
      <trkpt lat="38.222692" lon="-0.736919">
        <ele>45.608</ele>
        <time>2021-05-05T12:20:05Z</time>
      </trkpt>
      <trkpt lat="38.222634" lon="-0.736965">
        <ele>45.541</ele>
        <time>2021-05-05T12:20:07Z</time>
      </trkpt>
      <trkpt lat="38.222585" lon="-0.737000">
        <ele>45.396</ele>
        <time>2021-05-05T12:20:09Z</time>
      </trkpt>
      <trkpt lat="38.222545" lon="-0.737026">
        <ele>45.146</ele>
        <time>2021-05-05T12:20:10Z</time>
      </trkpt>
      <trkpt lat="38.222495" lon="-0.737061">
        <ele>45.029</ele>
        <time>2021-05-05T12:20:11Z</time>
      </trkpt>
      <trkpt lat="38.222444" lon="-0.737107">
        <ele>45.049</ele>
        <time>2021-05-05T12:20:13Z</time>
      </trkpt>
      <trkpt lat="38.222372" lon="-0.737129">
        <ele>44.831</ele>
        <time>2021-05-05T12:20:16Z</time>
      </trkpt>
      <trkpt lat="38.222330" lon="-0.737068">
        <ele>44.648</ele>
        <time>2021-05-05T12:20:17Z</time>
      </trkpt>
      <trkpt lat="38.222322" lon="-0.737011">
        <ele>44.553</ele>
        <time>2021-05-05T12:20:19Z</time>
      </trkpt>
      <trkpt lat="38.222298" lon="-0.736932">
        <ele>44.394</ele>
        <time>2021-05-05T12:20:20Z</time>
      </trkpt>
      <trkpt lat="38.222276" lon="-0.736865">
        <ele>44.357</ele>
        <time>2021-05-05T12:20:22Z</time>
      </trkpt>
      <trkpt lat="38.222263" lon="-0.736802">
        <ele>44.522</ele>
        <time>2021-05-05T12:20:23Z</time>
      </trkpt>
      <trkpt lat="38.222245" lon="-0.736710">
        <ele>44.108</ele>
        <time>2021-05-05T12:20:25Z</time>
      </trkpt>
      <trkpt lat="38.222229" lon="-0.736640">
        <ele>43.916</ele>
        <time>2021-05-05T12:20:26Z</time>
      </trkpt>
      <trkpt lat="38.222213" lon="-0.736574">
        <ele>43.661</ele>
        <time>2021-05-05T12:20:27Z</time>
      </trkpt>
      <trkpt lat="38.222197" lon="-0.736510">
        <ele>43.541</ele>
        <time>2021-05-05T12:20:28Z</time>
      </trkpt>
      <trkpt lat="38.222171" lon="-0.736420">
        <ele>44.054</ele>
        <time>2021-05-05T12:20:30Z</time>
      </trkpt>
      <trkpt lat="38.222143" lon="-0.736302">
        <ele>44.134</ele>
        <time>2021-05-05T12:20:32Z</time>
      </trkpt>
      <trkpt lat="38.222122" lon="-0.736244">
        <ele>43.856</ele>
        <time>2021-05-05T12:20:34Z</time>
      </trkpt>
      <trkpt lat="38.222101" lon="-0.736150">
        <ele>43.813</ele>
        <time>2021-05-05T12:20:35Z</time>
      </trkpt>
      <trkpt lat="38.222089" lon="-0.736084">
        <ele>43.818</ele>
        <time>2021-05-05T12:20:37Z</time>
      </trkpt>
      <trkpt lat="38.222068" lon="-0.736007">
        <ele>43.623</ele>
        <time>2021-05-05T12:20:38Z</time>
      </trkpt>
      <trkpt lat="38.222051" lon="-0.735932">
        <ele>43.883</ele>
        <time>2021-05-05T12:20:40Z</time>
      </trkpt>
      <trkpt lat="38.222032" lon="-0.735841">
        <ele>43.911</ele>
        <time>2021-05-05T12:20:41Z</time>
      </trkpt>
      <trkpt lat="38.222005" lon="-0.735734">
        <ele>44.008</ele>
        <time>2021-05-05T12:20:44Z</time>
      </trkpt>
      <trkpt lat="38.221992" lon="-0.735646">
        <ele>44.389</ele>
        <time>2021-05-05T12:20:45Z</time>
      </trkpt>
      <trkpt lat="38.221979" lon="-0.735587">
        <ele>44.514</ele>
        <time>2021-05-05T12:20:47Z</time>
      </trkpt>
      <trkpt lat="38.221957" lon="-0.735492">
        <ele>44.484</ele>
        <time>2021-05-05T12:20:49Z</time>
      </trkpt>
      <trkpt lat="38.221937" lon="-0.735413">
        <ele>44.687</ele>
        <time>2021-05-05T12:20:50Z</time>
      </trkpt>
      <trkpt lat="38.221921" lon="-0.735347">
        <ele>44.357</ele>
        <time>2021-05-05T12:20:51Z</time>
      </trkpt>
      <trkpt lat="38.221902" lon="-0.735255">
        <ele>44.139</ele>
        <time>2021-05-05T12:20:54Z</time>
      </trkpt>
      <trkpt lat="38.221885" lon="-0.735164">
        <ele>44.376</ele>
        <time>2021-05-05T12:20:56Z</time>
      </trkpt>
      <trkpt lat="38.221872" lon="-0.735087">
        <ele>44.491</ele>
        <time>2021-05-05T12:20:57Z</time>
      </trkpt>
      <trkpt lat="38.221858" lon="-0.734998">
        <ele>44.426</ele>
        <time>2021-05-05T12:20:59Z</time>
      </trkpt>
      <trkpt lat="38.221848" lon="-0.734912">
        <ele>44.347</ele>
        <time>2021-05-05T12:21:01Z</time>
      </trkpt>
      <trkpt lat="38.221836" lon="-0.734810">
        <ele>44.011</ele>
        <time>2021-05-05T12:21:03Z</time>
      </trkpt>
      <trkpt lat="38.221831" lon="-0.734725">
        <ele>44.008</ele>
        <time>2021-05-05T12:21:05Z</time>
      </trkpt>
      <trkpt lat="38.221826" lon="-0.734662">
        <ele>44.229</ele>
        <time>2021-05-05T12:21:07Z</time>
      </trkpt>
      <trkpt lat="38.221820" lon="-0.734589">
        <ele>44.234</ele>
        <time>2021-05-05T12:21:08Z</time>
      </trkpt>
      <trkpt lat="38.221818" lon="-0.734528">
        <ele>44.484</ele>
        <time>2021-05-05T12:21:09Z</time>
      </trkpt>
      <trkpt lat="38.221810" lon="-0.734452">
        <ele>44.247</ele>
        <time>2021-05-05T12:21:11Z</time>
      </trkpt>
      <trkpt lat="38.221799" lon="-0.734389">
        <ele>44.267</ele>
        <time>2021-05-05T12:21:13Z</time>
      </trkpt>
      <trkpt lat="38.221793" lon="-0.734318">
        <ele>44.179</ele>
        <time>2021-05-05T12:21:15Z</time>
      </trkpt>
      <trkpt lat="38.221788" lon="-0.734257">
        <ele>44.126</ele>
        <time>2021-05-05T12:21:16Z</time>
      </trkpt>
      <trkpt lat="38.221782" lon="-0.734181">
        <ele>44.031</ele>
        <time>2021-05-05T12:21:17Z</time>
      </trkpt>
      <trkpt lat="38.221782" lon="-0.734092">
        <ele>43.919</ele>
        <time>2021-05-05T12:21:19Z</time>
      </trkpt>
      <trkpt lat="38.221786" lon="-0.733999">
        <ele>43.709</ele>
        <time>2021-05-05T12:21:21Z</time>
      </trkpt>
      <trkpt lat="38.221784" lon="-0.733913">
        <ele>43.919</ele>
        <time>2021-05-05T12:21:23Z</time>
      </trkpt>
      <trkpt lat="38.221787" lon="-0.733836">
        <ele>43.808</ele>
        <time>2021-05-05T12:21:25Z</time>
      </trkpt>
      <trkpt lat="38.221791" lon="-0.733744">
        <ele>43.948</ele>
        <time>2021-05-05T12:21:28Z</time>
      </trkpt>
      <trkpt lat="38.221790" lon="-0.733659">
        <ele>44.283</ele>
        <time>2021-05-05T12:21:30Z</time>
      </trkpt>
      <trkpt lat="38.221790" lon="-0.733592">
        <ele>44.513</ele>
        <time>2021-05-05T12:21:31Z</time>
      </trkpt>
      <trkpt lat="38.221793" lon="-0.733534">
        <ele>44.426</ele>
        <time>2021-05-05T12:21:33Z</time>
      </trkpt>
      <trkpt lat="38.221796" lon="-0.733453">
        <ele>44.636</ele>
        <time>2021-05-05T12:21:34Z</time>
      </trkpt>
      <trkpt lat="38.221801" lon="-0.733390">
        <ele>44.868</ele>
        <time>2021-05-05T12:21:36Z</time>
      </trkpt>
      <trkpt lat="38.221829" lon="-0.733308">
        <ele>44.655</ele>
        <time>2021-05-05T12:21:38Z</time>
      </trkpt>
      <trkpt lat="38.221848" lon="-0.733252">
        <ele>44.570</ele>
        <time>2021-05-05T12:21:40Z</time>
      </trkpt>
      <trkpt lat="38.221809" lon="-0.733282">
        <ele>44.598</ele>
        <time>2021-05-05T12:23:22Z</time>
      </trkpt>
      <trkpt lat="38.221786" lon="-0.733226">
        <ele>44.315</ele>
        <time>2021-05-05T12:23:27Z</time>
      </trkpt>
      <trkpt lat="38.221776" lon="-0.733150">
        <ele>44.326</ele>
        <time>2021-05-05T12:23:29Z</time>
      </trkpt>
      <trkpt lat="38.221773" lon="-0.733081">
        <ele>44.408</ele>
        <time>2021-05-05T12:23:30Z</time>
      </trkpt>
      <trkpt lat="38.221774" lon="-0.732998">
        <ele>44.596</ele>
        <time>2021-05-05T12:23:32Z</time>
      </trkpt>
      <trkpt lat="38.221777" lon="-0.732934">
        <ele>44.441</ele>
        <time>2021-05-05T12:23:34Z</time>
      </trkpt>
      <trkpt lat="38.221782" lon="-0.732849">
        <ele>44.091</ele>
        <time>2021-05-05T12:23:36Z</time>
      </trkpt>
      <trkpt lat="38.221786" lon="-0.732772">
        <ele>43.854</ele>
        <time>2021-05-05T12:23:39Z</time>
      </trkpt>
      <trkpt lat="38.221788" lon="-0.732690">
        <ele>43.884</ele>
        <time>2021-05-05T12:23:41Z</time>
      </trkpt>
      <trkpt lat="38.221795" lon="-0.732629">
        <ele>43.816</ele>
        <time>2021-05-05T12:23:44Z</time>
      </trkpt>
      <trkpt lat="38.221799" lon="-0.732554">
        <ele>43.753</ele>
        <time>2021-05-05T12:23:46Z</time>
      </trkpt>
      <trkpt lat="38.221802" lon="-0.732485">
        <ele>43.898</ele>
        <time>2021-05-05T12:23:48Z</time>
      </trkpt>
      <trkpt lat="38.221807" lon="-0.732428">
        <ele>43.877</ele>
        <time>2021-05-05T12:23:50Z</time>
      </trkpt>
      <trkpt lat="38.221809" lon="-0.732359">
        <ele>43.861</ele>
        <time>2021-05-05T12:23:51Z</time>
      </trkpt>
      <trkpt lat="38.221810" lon="-0.732297">
        <ele>43.627</ele>
        <time>2021-05-05T12:23:53Z</time>
      </trkpt>
      <trkpt lat="38.221813" lon="-0.732239">
        <ele>43.708</ele>
        <time>2021-05-05T12:23:55Z</time>
      </trkpt>
      <trkpt lat="38.221817" lon="-0.732170">
        <ele>43.914</ele>
        <time>2021-05-05T12:23:57Z</time>
      </trkpt>
      <trkpt lat="38.221813" lon="-0.732072">
        <ele>43.719</ele>
        <time>2021-05-05T12:24:00Z</time>
      </trkpt>
      <trkpt lat="38.221792" lon="-0.731973">
        <ele>43.769</ele>
        <time>2021-05-05T12:24:03Z</time>
      </trkpt>
      <trkpt lat="38.221775" lon="-0.731912">
        <ele>43.782</ele>
        <time>2021-05-05T12:24:04Z</time>
      </trkpt>
      <trkpt lat="38.221753" lon="-0.731838">
        <ele>43.722</ele>
        <time>2021-05-05T12:24:06Z</time>
      </trkpt>
      <trkpt lat="38.221726" lon="-0.731778">
        <ele>43.634</ele>
        <time>2021-05-05T12:24:08Z</time>
      </trkpt>
      <trkpt lat="38.221694" lon="-0.731737">
        <ele>43.491</ele>
        <time>2021-05-05T12:24:10Z</time>
      </trkpt>
      <trkpt lat="38.221648" lon="-0.731674">
        <ele>43.576</ele>
        <time>2021-05-05T12:24:11Z</time>
      </trkpt>
      <trkpt lat="38.221612" lon="-0.731632">
        <ele>43.388</ele>
        <time>2021-05-05T12:24:13Z</time>
      </trkpt>
      <trkpt lat="38.221571" lon="-0.731582">
        <ele>43.224</ele>
        <time>2021-05-05T12:24:15Z</time>
      </trkpt>
      <trkpt lat="38.221527" lon="-0.731528">
        <ele>42.926</ele>
        <time>2021-05-05T12:24:16Z</time>
      </trkpt>
      <trkpt lat="38.221470" lon="-0.731461">
        <ele>43.108</ele>
        <time>2021-05-05T12:24:18Z</time>
      </trkpt>
      <trkpt lat="38.221431" lon="-0.731422">
        <ele>42.845</ele>
        <time>2021-05-05T12:24:20Z</time>
      </trkpt>
      <trkpt lat="38.221382" lon="-0.731366">
        <ele>42.960</ele>
        <time>2021-05-05T12:24:22Z</time>
      </trkpt>
      <trkpt lat="38.221319" lon="-0.731294">
        <ele>42.960</ele>
        <time>2021-05-05T12:24:24Z</time>
      </trkpt>
      <trkpt lat="38.221272" lon="-0.731250">
        <ele>42.773</ele>
        <time>2021-05-05T12:24:26Z</time>
      </trkpt>
      <trkpt lat="38.221223" lon="-0.731206">
        <ele>42.633</ele>
        <time>2021-05-05T12:24:28Z</time>
      </trkpt>
      <trkpt lat="38.221186" lon="-0.731165">
        <ele>42.995</ele>
        <time>2021-05-05T12:24:29Z</time>
      </trkpt>
      <trkpt lat="38.221131" lon="-0.731114">
        <ele>43.022</ele>
        <time>2021-05-05T12:24:31Z</time>
      </trkpt>
      <trkpt lat="38.221082" lon="-0.731067">
        <ele>43.017</ele>
        <time>2021-05-05T12:24:33Z</time>
      </trkpt>
      <trkpt lat="38.221021" lon="-0.730997">
        <ele>42.971</ele>
        <time>2021-05-05T12:24:35Z</time>
      </trkpt>
      <trkpt lat="38.220965" lon="-0.730933">
        <ele>42.541</ele>
        <time>2021-05-05T12:24:38Z</time>
      </trkpt>
      <trkpt lat="38.220928" lon="-0.730878">
        <ele>42.415</ele>
        <time>2021-05-05T12:24:39Z</time>
      </trkpt>
      <trkpt lat="38.220884" lon="-0.730819">
        <ele>42.308</ele>
        <time>2021-05-05T12:24:41Z</time>
      </trkpt>
      <trkpt lat="38.220854" lon="-0.730776">
        <ele>42.324</ele>
        <time>2021-05-05T12:24:43Z</time>
      </trkpt>
      <trkpt lat="38.220823" lon="-0.730716">
        <ele>42.349</ele>
        <time>2021-05-05T12:24:44Z</time>
      </trkpt>
      <trkpt lat="38.220789" lon="-0.730635">
        <ele>42.789</ele>
        <time>2021-05-05T12:24:46Z</time>
      </trkpt>
      <trkpt lat="38.220752" lon="-0.730553">
        <ele>42.942</ele>
        <time>2021-05-05T12:24:49Z</time>
      </trkpt>
      <trkpt lat="38.220723" lon="-0.730502">
        <ele>42.922</ele>
        <time>2021-05-05T12:24:50Z</time>
      </trkpt>
      <trkpt lat="38.220694" lon="-0.730420">
        <ele>43.384</ele>
        <time>2021-05-05T12:24:53Z</time>
      </trkpt>
      <trkpt lat="38.220665" lon="-0.730334">
        <ele>43.421</ele>
        <time>2021-05-05T12:24:55Z</time>
      </trkpt>
      <trkpt lat="38.220644" lon="-0.730268">
        <ele>43.336</ele>
        <time>2021-05-05T12:24:57Z</time>
      </trkpt>
      <trkpt lat="38.220629" lon="-0.730206">
        <ele>43.227</ele>
        <time>2021-05-05T12:24:58Z</time>
      </trkpt>
      <trkpt lat="38.220610" lon="-0.730126">
        <ele>43.368</ele>
        <time>2021-05-05T12:25:00Z</time>
      </trkpt>
      <trkpt lat="38.220590" lon="-0.730056">
        <ele>43.314</ele>
        <time>2021-05-05T12:25:02Z</time>
      </trkpt>
      <trkpt lat="38.220569" lon="-0.729980">
        <ele>43.208</ele>
        <time>2021-05-05T12:25:04Z</time>
      </trkpt>
      <trkpt lat="38.220547" lon="-0.729913">
        <ele>43.359</ele>
        <time>2021-05-05T12:25:06Z</time>
      </trkpt>
      <trkpt lat="38.220527" lon="-0.729843">
        <ele>43.484</ele>
        <time>2021-05-05T12:25:07Z</time>
      </trkpt>
      <trkpt lat="38.220502" lon="-0.729757">
        <ele>43.594</ele>
        <time>2021-05-05T12:25:09Z</time>
      </trkpt>
      <trkpt lat="38.220477" lon="-0.729662">
        <ele>43.717</ele>
        <time>2021-05-05T12:25:12Z</time>
      </trkpt>
      <trkpt lat="38.220454" lon="-0.729585">
        <ele>44.047</ele>
        <time>2021-05-05T12:25:13Z</time>
      </trkpt>
      <trkpt lat="38.220432" lon="-0.729509">
        <ele>43.989</ele>
        <time>2021-05-05T12:25:15Z</time>
      </trkpt>
      <trkpt lat="38.220408" lon="-0.729431">
        <ele>43.976</ele>
        <time>2021-05-05T12:25:17Z</time>
      </trkpt>
      <trkpt lat="38.220386" lon="-0.729341">
        <ele>44.051</ele>
        <time>2021-05-05T12:25:19Z</time>
      </trkpt>
      <trkpt lat="38.220360" lon="-0.729255">
        <ele>43.727</ele>
        <time>2021-05-05T12:25:21Z</time>
      </trkpt>
      <trkpt lat="38.220334" lon="-0.729173">
        <ele>44.068</ele>
        <time>2021-05-05T12:25:23Z</time>
      </trkpt>
      <trkpt lat="38.220310" lon="-0.729092">
        <ele>44.314</ele>
        <time>2021-05-05T12:25:25Z</time>
      </trkpt>
      <trkpt lat="38.220288" lon="-0.729008">
        <ele>44.208</ele>
        <time>2021-05-05T12:25:27Z</time>
      </trkpt>
      <trkpt lat="38.220270" lon="-0.728934">
        <ele>43.869</ele>
        <time>2021-05-05T12:25:29Z</time>
      </trkpt>
      <trkpt lat="38.220254" lon="-0.728870">
        <ele>43.634</ele>
        <time>2021-05-05T12:25:31Z</time>
      </trkpt>
      <trkpt lat="38.220244" lon="-0.728804">
        <ele>43.624</ele>
        <time>2021-05-05T12:25:32Z</time>
      </trkpt>
      <trkpt lat="38.220234" lon="-0.728705">
        <ele>43.527</ele>
        <time>2021-05-05T12:25:34Z</time>
      </trkpt>
      <trkpt lat="38.220228" lon="-0.728646">
        <ele>43.627</ele>
        <time>2021-05-05T12:25:36Z</time>
      </trkpt>
      <trkpt lat="38.220218" lon="-0.728556">
        <ele>43.589</ele>
        <time>2021-05-05T12:25:38Z</time>
      </trkpt>
      <trkpt lat="38.220212" lon="-0.728493">
        <ele>43.516</ele>
        <time>2021-05-05T12:25:39Z</time>
      </trkpt>
      <trkpt lat="38.220208" lon="-0.728395">
        <ele>43.551</ele>
        <time>2021-05-05T12:25:41Z</time>
      </trkpt>
      <trkpt lat="38.220212" lon="-0.728321">
        <ele>43.322</ele>
        <time>2021-05-05T12:25:43Z</time>
      </trkpt>
      <trkpt lat="38.220219" lon="-0.728259">
        <ele>43.662</ele>
        <time>2021-05-05T12:25:45Z</time>
      </trkpt>
      <trkpt lat="38.220217" lon="-0.728186">
        <ele>43.608</ele>
        <time>2021-05-05T12:25:46Z</time>
      </trkpt>
      <trkpt lat="38.220207" lon="-0.728114">
        <ele>43.408</ele>
        <time>2021-05-05T12:25:48Z</time>
      </trkpt>
      <trkpt lat="38.220204" lon="-0.728049">
        <ele>43.589</ele>
        <time>2021-05-05T12:25:49Z</time>
      </trkpt>
      <trkpt lat="38.220201" lon="-0.727982">
        <ele>43.384</ele>
        <time>2021-05-05T12:25:51Z</time>
      </trkpt>
      <trkpt lat="38.220198" lon="-0.727917">
        <ele>43.114</ele>
        <time>2021-05-05T12:25:52Z</time>
      </trkpt>
      <trkpt lat="38.220194" lon="-0.727844">
        <ele>43.127</ele>
        <time>2021-05-05T12:25:54Z</time>
      </trkpt>
      <trkpt lat="38.220191" lon="-0.727781">
        <ele>43.437</ele>
        <time>2021-05-05T12:25:55Z</time>
      </trkpt>
      <trkpt lat="38.220182" lon="-0.727716">
        <ele>43.199</ele>
        <time>2021-05-05T12:25:57Z</time>
      </trkpt>
      <trkpt lat="38.220174" lon="-0.727607">
        <ele>43.346</ele>
        <time>2021-05-05T12:25:59Z</time>
      </trkpt>
      <trkpt lat="38.220172" lon="-0.727535">
        <ele>43.281</ele>
        <time>2021-05-05T12:26:01Z</time>
      </trkpt>
      <trkpt lat="38.220167" lon="-0.727473">
        <ele>43.125</ele>
        <time>2021-05-05T12:26:02Z</time>
      </trkpt>
      <trkpt lat="38.220160" lon="-0.727406">
        <ele>43.226</ele>
        <time>2021-05-05T12:26:03Z</time>
      </trkpt>
      <trkpt lat="38.220153" lon="-0.727345">
        <ele>43.108</ele>
        <time>2021-05-05T12:26:05Z</time>
      </trkpt>
      <trkpt lat="38.220139" lon="-0.727280">
        <ele>43.108</ele>
        <time>2021-05-05T12:26:06Z</time>
      </trkpt>
      <trkpt lat="38.220124" lon="-0.727209">
        <ele>43.159</ele>
        <time>2021-05-05T12:26:07Z</time>
      </trkpt>
      <trkpt lat="38.220107" lon="-0.727121">
        <ele>43.214</ele>
        <time>2021-05-05T12:26:09Z</time>
      </trkpt>
      <trkpt lat="38.220071" lon="-0.727039">
        <ele>43.224</ele>
        <time>2021-05-05T12:26:11Z</time>
      </trkpt>
      <trkpt lat="38.220038" lon="-0.726963">
        <ele>43.237</ele>
        <time>2021-05-05T12:26:13Z</time>
      </trkpt>
      <trkpt lat="38.220004" lon="-0.726887">
        <ele>43.077</ele>
        <time>2021-05-05T12:26:15Z</time>
      </trkpt>
      <trkpt lat="38.219963" lon="-0.726830">
        <ele>43.059</ele>
        <time>2021-05-05T12:26:17Z</time>
      </trkpt>
      <trkpt lat="38.219919" lon="-0.726774">
        <ele>42.866</ele>
        <time>2021-05-05T12:26:19Z</time>
      </trkpt>
      <trkpt lat="38.219871" lon="-0.726710">
        <ele>42.811</ele>
        <time>2021-05-05T12:26:22Z</time>
      </trkpt>
      <trkpt lat="38.219830" lon="-0.726661">
        <ele>42.616</ele>
        <time>2021-05-05T12:26:23Z</time>
      </trkpt>
      <trkpt lat="38.219788" lon="-0.726617">
        <ele>42.676</ele>
        <time>2021-05-05T12:26:25Z</time>
      </trkpt>
      <trkpt lat="38.219728" lon="-0.726564">
        <ele>42.813</ele>
        <time>2021-05-05T12:26:27Z</time>
      </trkpt>
      <trkpt lat="38.219667" lon="-0.726516">
        <ele>42.708</ele>
        <time>2021-05-05T12:26:29Z</time>
      </trkpt>
      <trkpt lat="38.219594" lon="-0.726461">
        <ele>42.518</ele>
        <time>2021-05-05T12:26:31Z</time>
      </trkpt>
      <trkpt lat="38.219543" lon="-0.726422">
        <ele>42.323</ele>
        <time>2021-05-05T12:26:33Z</time>
      </trkpt>
      <trkpt lat="38.219496" lon="-0.726387">
        <ele>42.473</ele>
        <time>2021-05-05T12:26:35Z</time>
      </trkpt>
      <trkpt lat="38.219446" lon="-0.726349">
        <ele>42.456</ele>
        <time>2021-05-05T12:26:36Z</time>
      </trkpt>
      <trkpt lat="38.219408" lon="-0.726318">
        <ele>42.716</ele>
        <time>2021-05-05T12:26:37Z</time>
      </trkpt>
      <trkpt lat="38.219345" lon="-0.726266">
        <ele>43.058</ele>
        <time>2021-05-05T12:26:40Z</time>
      </trkpt>
      <trkpt lat="38.219294" lon="-0.726223">
        <ele>42.845</ele>
        <time>2021-05-05T12:26:41Z</time>
      </trkpt>
      <trkpt lat="38.219255" lon="-0.726192">
        <ele>42.780</ele>
        <time>2021-05-05T12:26:43Z</time>
      </trkpt>
      <trkpt lat="38.219196" lon="-0.726137">
        <ele>42.431</ele>
        <time>2021-05-05T12:26:45Z</time>
      </trkpt>
      <trkpt lat="38.219143" lon="-0.726088">
        <ele>42.461</ele>
        <time>2021-05-05T12:26:46Z</time>
      </trkpt>
      <trkpt lat="38.219088" lon="-0.726039">
        <ele>42.407</ele>
        <time>2021-05-05T12:26:48Z</time>
      </trkpt>
      <trkpt lat="38.219044" lon="-0.726003">
        <ele>42.308</ele>
        <time>2021-05-05T12:26:50Z</time>
      </trkpt>
      <trkpt lat="38.219005" lon="-0.725970">
        <ele>42.170</ele>
        <time>2021-05-05T12:26:51Z</time>
      </trkpt>
      <trkpt lat="38.218961" lon="-0.725934">
        <ele>42.075</ele>
        <time>2021-05-05T12:26:52Z</time>
      </trkpt>
      <trkpt lat="38.218891" lon="-0.725876">
        <ele>41.975</ele>
        <time>2021-05-05T12:26:54Z</time>
      </trkpt>
      <trkpt lat="38.218853" lon="-0.725846">
        <ele>41.928</ele>
        <time>2021-05-05T12:26:56Z</time>
      </trkpt>
      <trkpt lat="38.218808" lon="-0.725805">
        <ele>41.798</ele>
        <time>2021-05-05T12:26:57Z</time>
      </trkpt>
      <trkpt lat="38.218740" lon="-0.725731">
        <ele>41.490</ele>
        <time>2021-05-05T12:26:59Z</time>
      </trkpt>
      <trkpt lat="38.218674" lon="-0.725681">
        <ele>41.367</ele>
        <time>2021-05-05T12:27:01Z</time>
      </trkpt>
      <trkpt lat="38.218614" lon="-0.725640">
        <ele>41.192</ele>
        <time>2021-05-05T12:27:03Z</time>
      </trkpt>
      <trkpt lat="38.218549" lon="-0.725586">
        <ele>41.455</ele>
        <time>2021-05-05T12:27:05Z</time>
      </trkpt>
      <trkpt lat="38.218491" lon="-0.725528">
        <ele>41.207</ele>
        <time>2021-05-05T12:27:08Z</time>
      </trkpt>
      <trkpt lat="38.218443" lon="-0.725479">
        <ele>41.517</ele>
        <time>2021-05-05T12:27:09Z</time>
      </trkpt>
      <trkpt lat="38.218400" lon="-0.725445">
        <ele>41.808</ele>
        <time>2021-05-05T12:27:11Z</time>
      </trkpt>
      <trkpt lat="38.218344" lon="-0.725377">
        <ele>42.132</ele>
        <time>2021-05-05T12:27:13Z</time>
      </trkpt>
      <trkpt lat="38.218306" lon="-0.725331">
        <ele>42.237</ele>
        <time>2021-05-05T12:27:14Z</time>
      </trkpt>
      <trkpt lat="38.218268" lon="-0.725290">
        <ele>42.337</ele>
        <time>2021-05-05T12:27:15Z</time>
      </trkpt>
      <trkpt lat="38.218219" lon="-0.725242">
        <ele>42.450</ele>
        <time>2021-05-05T12:27:17Z</time>
      </trkpt>
      <trkpt lat="38.218181" lon="-0.725206">
        <ele>42.340</ele>
        <time>2021-05-05T12:27:18Z</time>
      </trkpt>
      <trkpt lat="38.218120" lon="-0.725148">
        <ele>42.282</ele>
        <time>2021-05-05T12:27:21Z</time>
      </trkpt>
      <trkpt lat="38.218078" lon="-0.725105">
        <ele>42.319</ele>
        <time>2021-05-05T12:27:22Z</time>
      </trkpt>
      <trkpt lat="38.218030" lon="-0.725049">
        <ele>42.314</ele>
        <time>2021-05-05T12:27:24Z</time>
      </trkpt>
      <trkpt lat="38.217988" lon="-0.725002">
        <ele>42.563</ele>
        <time>2021-05-05T12:27:25Z</time>
      </trkpt>
      <trkpt lat="38.217937" lon="-0.724953">
        <ele>42.644</ele>
        <time>2021-05-05T12:27:27Z</time>
      </trkpt>
      <trkpt lat="38.217901" lon="-0.724913">
        <ele>42.418</ele>
        <time>2021-05-05T12:27:29Z</time>
      </trkpt>
      <trkpt lat="38.217866" lon="-0.724877">
        <ele>42.208</ele>
        <time>2021-05-05T12:27:30Z</time>
      </trkpt>
      <trkpt lat="38.217814" lon="-0.724830">
        <ele>42.233</ele>
        <time>2021-05-05T12:27:31Z</time>
      </trkpt>
      <trkpt lat="38.217776" lon="-0.724793">
        <ele>42.018</ele>
        <time>2021-05-05T12:27:33Z</time>
      </trkpt>
      <trkpt lat="38.217737" lon="-0.724756">
        <ele>42.058</ele>
        <time>2021-05-05T12:27:34Z</time>
      </trkpt>
      <trkpt lat="38.217689" lon="-0.724699">
        <ele>41.711</ele>
        <time>2021-05-05T12:27:36Z</time>
      </trkpt>
      <trkpt lat="38.217653" lon="-0.724656">
        <ele>41.591</ele>
        <time>2021-05-05T12:27:37Z</time>
      </trkpt>
      <trkpt lat="38.217613" lon="-0.724606">
        <ele>41.463</ele>
        <time>2021-05-05T12:27:39Z</time>
      </trkpt>
      <trkpt lat="38.217576" lon="-0.724569">
        <ele>41.390</ele>
        <time>2021-05-05T12:27:40Z</time>
      </trkpt>
      <trkpt lat="38.217519" lon="-0.724514">
        <ele>41.895</ele>
        <time>2021-05-05T12:27:42Z</time>
      </trkpt>
      <trkpt lat="38.217472" lon="-0.724458">
        <ele>42.095</ele>
        <time>2021-05-05T12:27:44Z</time>
      </trkpt>
      <trkpt lat="38.217422" lon="-0.724399">
        <ele>42.449</ele>
        <time>2021-05-05T12:27:46Z</time>
      </trkpt>
      <trkpt lat="38.217373" lon="-0.724350">
        <ele>42.223</ele>
        <time>2021-05-05T12:27:50Z</time>
      </trkpt>
      <trkpt lat="38.217321" lon="-0.724293">
        <ele>41.908</ele>
        <time>2021-05-05T12:27:52Z</time>
      </trkpt>
      <trkpt lat="38.217229" lon="-0.724197">
        <ele>42.056</ele>
        <time>2021-05-05T12:27:53Z</time>
      </trkpt>
      <trkpt lat="38.217161" lon="-0.724152">
        <ele>41.881</ele>
        <time>2021-05-05T12:27:56Z</time>
      </trkpt>
      <trkpt lat="38.217105" lon="-0.724095">
        <ele>42.031</ele>
        <time>2021-05-05T12:27:57Z</time>
      </trkpt>
      <trkpt lat="38.217056" lon="-0.724039">
        <ele>42.284</ele>
        <time>2021-05-05T12:27:59Z</time>
      </trkpt>
      <trkpt lat="38.217021" lon="-0.724000">
        <ele>42.114</ele>
        <time>2021-05-05T12:28:00Z</time>
      </trkpt>
      <trkpt lat="38.216983" lon="-0.723957">
        <ele>42.166</ele>
        <time>2021-05-05T12:28:02Z</time>
      </trkpt>
      <trkpt lat="38.216943" lon="-0.723913">
        <ele>42.133</ele>
        <time>2021-05-05T12:28:04Z</time>
      </trkpt>
      <trkpt lat="38.216904" lon="-0.723871">
        <ele>41.968</ele>
        <time>2021-05-05T12:28:05Z</time>
      </trkpt>
      <trkpt lat="38.216864" lon="-0.723832">
        <ele>42.078</ele>
        <time>2021-05-05T12:28:07Z</time>
      </trkpt>
      <trkpt lat="38.216816" lon="-0.723782">
        <ele>41.833</ele>
        <time>2021-05-05T12:28:09Z</time>
      </trkpt>
      <trkpt lat="38.216758" lon="-0.723722">
        <ele>41.826</ele>
        <time>2021-05-05T12:28:11Z</time>
      </trkpt>
      <trkpt lat="38.216719" lon="-0.723686">
        <ele>41.808</ele>
        <time>2021-05-05T12:28:12Z</time>
      </trkpt>
      <trkpt lat="38.216670" lon="-0.723639">
        <ele>41.954</ele>
        <time>2021-05-05T12:28:14Z</time>
      </trkpt>
      <trkpt lat="38.216604" lon="-0.723579">
        <ele>42.049</ele>
        <time>2021-05-05T12:28:16Z</time>
      </trkpt>
      <trkpt lat="38.216544" lon="-0.723529">
        <ele>41.929</ele>
        <time>2021-05-05T12:28:18Z</time>
      </trkpt>
      <trkpt lat="38.216480" lon="-0.723488">
        <ele>41.982</ele>
        <time>2021-05-05T12:28:20Z</time>
      </trkpt>
      <trkpt lat="38.216416" lon="-0.723452">
        <ele>42.292</ele>
        <time>2021-05-05T12:28:22Z</time>
      </trkpt>
      <trkpt lat="38.216371" lon="-0.723432">
        <ele>42.514</ele>
        <time>2021-05-05T12:28:24Z</time>
      </trkpt>
      <trkpt lat="38.216316" lon="-0.723411">
        <ele>42.731</ele>
        <time>2021-05-05T12:28:25Z</time>
      </trkpt>
      <trkpt lat="38.216249" lon="-0.723390">
        <ele>42.826</ele>
        <time>2021-05-05T12:28:27Z</time>
      </trkpt>
      <trkpt lat="38.216164" lon="-0.723360">
        <ele>43.174</ele>
        <time>2021-05-05T12:28:29Z</time>
      </trkpt>
      <trkpt lat="38.216096" lon="-0.723340">
        <ele>43.156</ele>
        <time>2021-05-05T12:28:31Z</time>
      </trkpt>
      <trkpt lat="38.216017" lon="-0.723313">
        <ele>43.421</ele>
        <time>2021-05-05T12:28:33Z</time>
      </trkpt>
      <trkpt lat="38.215951" lon="-0.723286">
        <ele>43.808</ele>
        <time>2021-05-05T12:28:35Z</time>
      </trkpt>
      <trkpt lat="38.215888" lon="-0.723259">
        <ele>44.014</ele>
        <time>2021-05-05T12:28:37Z</time>
      </trkpt>
      <trkpt lat="38.215811" lon="-0.723227">
        <ele>44.119</ele>
        <time>2021-05-05T12:28:39Z</time>
      </trkpt>
      <trkpt lat="38.215754" lon="-0.723209">
        <ele>43.949</ele>
        <time>2021-05-05T12:28:41Z</time>
      </trkpt>
      <trkpt lat="38.215710" lon="-0.723194">
        <ele>44.052</ele>
        <time>2021-05-05T12:28:43Z</time>
      </trkpt>
      <trkpt lat="38.215652" lon="-0.723174">
        <ele>43.892</ele>
        <time>2021-05-05T12:28:44Z</time>
      </trkpt>
      <trkpt lat="38.215608" lon="-0.723160">
        <ele>43.734</ele>
        <time>2021-05-05T12:28:46Z</time>
      </trkpt>
      <trkpt lat="38.215560" lon="-0.723146">
        <ele>44.091</ele>
        <time>2021-05-05T12:28:47Z</time>
      </trkpt>
      <trkpt lat="38.215506" lon="-0.723126">
        <ele>44.176</ele>
        <time>2021-05-05T12:28:48Z</time>
      </trkpt>
      <trkpt lat="38.215457" lon="-0.723107">
        <ele>44.152</ele>
        <time>2021-05-05T12:28:50Z</time>
      </trkpt>
      <trkpt lat="38.215406" lon="-0.723086">
        <ele>44.353</ele>
        <time>2021-05-05T12:28:51Z</time>
      </trkpt>
      <trkpt lat="38.215360" lon="-0.723067">
        <ele>44.308</ele>
        <time>2021-05-05T12:28:53Z</time>
      </trkpt>
      <trkpt lat="38.215303" lon="-0.723043">
        <ele>44.108</ele>
        <time>2021-05-05T12:28:54Z</time>
      </trkpt>
      <trkpt lat="38.215217" lon="-0.723004">
        <ele>44.492</ele>
        <time>2021-05-05T12:28:56Z</time>
      </trkpt>
      <trkpt lat="38.215160" lon="-0.722980">
        <ele>44.217</ele>
        <time>2021-05-05T12:28:58Z</time>
      </trkpt>
      <trkpt lat="38.215115" lon="-0.722959">
        <ele>44.277</ele>
        <time>2021-05-05T12:29:00Z</time>
      </trkpt>
      <trkpt lat="38.215053" lon="-0.722918">
        <ele>44.410</ele>
        <time>2021-05-05T12:29:02Z</time>
      </trkpt>
      <trkpt lat="38.215005" lon="-0.722899">
        <ele>44.270</ele>
        <time>2021-05-05T12:29:03Z</time>
      </trkpt>
      <trkpt lat="38.214954" lon="-0.722880">
        <ele>44.032</ele>
        <time>2021-05-05T12:29:05Z</time>
      </trkpt>
      <trkpt lat="38.214881" lon="-0.722851">
        <ele>44.149</ele>
        <time>2021-05-05T12:29:08Z</time>
      </trkpt>
      <trkpt lat="38.214833" lon="-0.722833">
        <ele>43.884</ele>
        <time>2021-05-05T12:29:09Z</time>
      </trkpt>
      <trkpt lat="38.214765" lon="-0.722808">
        <ele>43.956</ele>
        <time>2021-05-05T12:29:11Z</time>
      </trkpt>
      <trkpt lat="38.214718" lon="-0.722793">
        <ele>43.459</ele>
        <time>2021-05-05T12:29:12Z</time>
      </trkpt>
      <trkpt lat="38.214670" lon="-0.722783">
        <ele>42.814</ele>
        <time>2021-05-05T12:29:14Z</time>
      </trkpt>
      <trkpt lat="38.214608" lon="-0.722759">
        <ele>42.608</ele>
        <time>2021-05-05T12:29:15Z</time>
      </trkpt>
      <trkpt lat="38.214517" lon="-0.722728">
        <ele>42.672</ele>
        <time>2021-05-05T12:29:18Z</time>
      </trkpt>
      <trkpt lat="38.214464" lon="-0.722711">
        <ele>42.647</ele>
        <time>2021-05-05T12:29:19Z</time>
      </trkpt>
      <trkpt lat="38.214416" lon="-0.722697">
        <ele>42.427</ele>
        <time>2021-05-05T12:29:20Z</time>
      </trkpt>
      <trkpt lat="38.214353" lon="-0.722676">
        <ele>42.220</ele>
        <time>2021-05-05T12:29:22Z</time>
      </trkpt>
      <trkpt lat="38.214297" lon="-0.722652">
        <ele>42.330</ele>
        <time>2021-05-05T12:29:24Z</time>
      </trkpt>
      <trkpt lat="38.214243" lon="-0.722630">
        <ele>42.752</ele>
        <time>2021-05-05T12:29:26Z</time>
      </trkpt>
      <trkpt lat="38.214176" lon="-0.722600">
        <ele>42.819</ele>
        <time>2021-05-05T12:29:28Z</time>
      </trkpt>
      <trkpt lat="38.214122" lon="-0.722569">
        <ele>42.894</ele>
        <time>2021-05-05T12:29:29Z</time>
      </trkpt>
      <trkpt lat="38.214067" lon="-0.722543">
        <ele>42.822</ele>
        <time>2021-05-05T12:29:31Z</time>
      </trkpt>
      <trkpt lat="38.214006" lon="-0.722519">
        <ele>42.762</ele>
        <time>2021-05-05T12:29:33Z</time>
      </trkpt>
      <trkpt lat="38.213951" lon="-0.722497">
        <ele>42.908</ele>
        <time>2021-05-05T12:29:35Z</time>
      </trkpt>
      <trkpt lat="38.213900" lon="-0.722470">
        <ele>43.308</ele>
        <time>2021-05-05T12:29:36Z</time>
      </trkpt>
      <trkpt lat="38.213860" lon="-0.722441">
        <ele>43.249</ele>
        <time>2021-05-05T12:29:38Z</time>
      </trkpt>
      <trkpt lat="38.213808" lon="-0.722397">
        <ele>43.244</ele>
        <time>2021-05-05T12:29:39Z</time>
      </trkpt>
      <trkpt lat="38.213764" lon="-0.722351">
        <ele>43.994</ele>
        <time>2021-05-05T12:29:41Z</time>
      </trkpt>
      <trkpt lat="38.213725" lon="-0.722317">
        <ele>43.847</ele>
        <time>2021-05-05T12:29:43Z</time>
      </trkpt>
      <trkpt lat="38.213669" lon="-0.722281">
        <ele>43.627</ele>
        <time>2021-05-05T12:29:46Z</time>
      </trkpt>
      <trkpt lat="38.213631" lon="-0.722248">
        <ele>43.539</ele>
        <time>2021-05-05T12:29:48Z</time>
      </trkpt>
      <trkpt lat="38.213579" lon="-0.722213">
        <ele>43.616</ele>
        <time>2021-05-05T12:29:50Z</time>
      </trkpt>
      <trkpt lat="38.213517" lon="-0.722213">
        <ele>43.681</ele>
        <time>2021-05-05T12:29:54Z</time>
      </trkpt>
      <trkpt lat="38.213473" lon="-0.722151">
        <ele>43.652</ele>
        <time>2021-05-05T12:29:57Z</time>
      </trkpt>
      <trkpt lat="38.213437" lon="-0.722062">
        <ele>43.553</ele>
        <time>2021-05-05T12:30:00Z</time>
      </trkpt>
      <trkpt lat="38.213413" lon="-0.721995">
        <ele>43.608</ele>
        <time>2021-05-05T12:30:01Z</time>
      </trkpt>
      <trkpt lat="38.213387" lon="-0.721942">
        <ele>43.308</ele>
        <time>2021-05-05T12:30:03Z</time>
      </trkpt>
      <trkpt lat="38.213337" lon="-0.721889">
        <ele>43.312</ele>
        <time>2021-05-05T12:30:05Z</time>
      </trkpt>
      <trkpt lat="38.213284" lon="-0.721858">
        <ele>43.637</ele>
        <time>2021-05-05T12:30:06Z</time>
      </trkpt>
      <trkpt lat="38.213225" lon="-0.721826">
        <ele>43.827</ele>
        <time>2021-05-05T12:30:08Z</time>
      </trkpt>
      <trkpt lat="38.213163" lon="-0.721795">
        <ele>44.070</ele>
        <time>2021-05-05T12:30:10Z</time>
      </trkpt>
      <trkpt lat="38.213102" lon="-0.721761">
        <ele>44.280</ele>
        <time>2021-05-05T12:30:12Z</time>
      </trkpt>
      <trkpt lat="38.213060" lon="-0.721733">
        <ele>44.272</ele>
        <time>2021-05-05T12:30:14Z</time>
      </trkpt>
      <trkpt lat="38.212995" lon="-0.721689">
        <ele>44.169</ele>
        <time>2021-05-05T12:30:16Z</time>
      </trkpt>
      <trkpt lat="38.212930" lon="-0.721640">
        <ele>44.084</ele>
        <time>2021-05-05T12:30:17Z</time>
      </trkpt>
      <trkpt lat="38.212864" lon="-0.721595">
        <ele>43.937</ele>
        <time>2021-05-05T12:30:19Z</time>
      </trkpt>
      <trkpt lat="38.212814" lon="-0.721561">
        <ele>43.749</ele>
        <time>2021-05-05T12:30:21Z</time>
      </trkpt>
      <trkpt lat="38.212741" lon="-0.721508">
        <ele>43.513</ele>
        <time>2021-05-05T12:30:23Z</time>
      </trkpt>
      <trkpt lat="38.212677" lon="-0.721466">
        <ele>43.508</ele>
        <time>2021-05-05T12:30:25Z</time>
      </trkpt>
      <trkpt lat="38.212617" lon="-0.721419">
        <ele>43.140</ele>
        <time>2021-05-05T12:30:27Z</time>
      </trkpt>
      <trkpt lat="38.212557" lon="-0.721381">
        <ele>43.365</ele>
        <time>2021-05-05T12:30:29Z</time>
      </trkpt>
      <trkpt lat="38.212515" lon="-0.721352">
        <ele>43.525</ele>
        <time>2021-05-05T12:30:31Z</time>
      </trkpt>
      <trkpt lat="38.212468" lon="-0.721316">
        <ele>43.688</ele>
        <time>2021-05-05T12:30:32Z</time>
      </trkpt>
      <trkpt lat="38.212400" lon="-0.721277">
        <ele>43.768</ele>
        <time>2021-05-05T12:30:34Z</time>
      </trkpt>
      <trkpt lat="38.212329" lon="-0.721242">
        <ele>43.760</ele>
        <time>2021-05-05T12:30:36Z</time>
      </trkpt>
      <trkpt lat="38.212283" lon="-0.721213">
        <ele>43.967</ele>
        <time>2021-05-05T12:30:37Z</time>
      </trkpt>
      <trkpt lat="38.212239" lon="-0.721186">
        <ele>43.992</ele>
        <time>2021-05-05T12:30:39Z</time>
      </trkpt>
      <trkpt lat="38.212193" lon="-0.721162">
        <ele>43.819</ele>
        <time>2021-05-05T12:30:40Z</time>
      </trkpt>
      <trkpt lat="38.212132" lon="-0.721124">
        <ele>43.809</ele>
        <time>2021-05-05T12:30:42Z</time>
      </trkpt>
      <trkpt lat="38.212061" lon="-0.721084">
        <ele>43.719</ele>
        <time>2021-05-05T12:30:45Z</time>
      </trkpt>
      <trkpt lat="38.212014" lon="-0.721056">
        <ele>43.908</ele>
        <time>2021-05-05T12:30:46Z</time>
      </trkpt>
      <trkpt lat="38.211954" lon="-0.721016">
        <ele>44.038</ele>
        <time>2021-05-05T12:30:48Z</time>
      </trkpt>
      <trkpt lat="38.211904" lon="-0.720990">
        <ele>43.853</ele>
        <time>2021-05-05T12:30:50Z</time>
      </trkpt>
      <trkpt lat="38.211859" lon="-0.720954">
        <ele>43.813</ele>
        <time>2021-05-05T12:30:51Z</time>
      </trkpt>
      <trkpt lat="38.211809" lon="-0.720928">
        <ele>43.816</ele>
        <time>2021-05-05T12:30:53Z</time>
      </trkpt>
      <trkpt lat="38.211758" lon="-0.720895">
        <ele>43.446</ele>
        <time>2021-05-05T12:30:54Z</time>
      </trkpt>
      <trkpt lat="38.211703" lon="-0.720847">
        <ele>43.538</ele>
        <time>2021-05-05T12:30:56Z</time>
      </trkpt>
      <trkpt lat="38.211644" lon="-0.720820">
        <ele>43.735</ele>
        <time>2021-05-05T12:30:57Z</time>
      </trkpt>
      <trkpt lat="38.211600" lon="-0.720800">
        <ele>43.560</ele>
        <time>2021-05-05T12:30:59Z</time>
      </trkpt>
      <trkpt lat="38.211539" lon="-0.720768">
        <ele>43.233</ele>
        <time>2021-05-05T12:31:00Z</time>
      </trkpt>
      <trkpt lat="38.211491" lon="-0.720742">
        <ele>43.123</ele>
        <time>2021-05-05T12:31:02Z</time>
      </trkpt>
      <trkpt lat="38.211423" lon="-0.720700">
        <ele>42.915</ele>
        <time>2021-05-05T12:31:04Z</time>
      </trkpt>
      <trkpt lat="38.211362" lon="-0.720664">
        <ele>42.808</ele>
        <time>2021-05-05T12:31:05Z</time>
      </trkpt>
      <trkpt lat="38.211308" lon="-0.720626">
        <ele>42.570</ele>
        <time>2021-05-05T12:31:07Z</time>
      </trkpt>
      <trkpt lat="38.211255" lon="-0.720590">
        <ele>42.395</ele>
        <time>2021-05-05T12:31:09Z</time>
      </trkpt>
      <trkpt lat="38.211204" lon="-0.720562">
        <ele>42.245</ele>
        <time>2021-05-05T12:31:10Z</time>
      </trkpt>
      <trkpt lat="38.211156" lon="-0.720533">
        <ele>42.148</ele>
        <time>2021-05-05T12:31:11Z</time>
      </trkpt>
      <trkpt lat="38.211109" lon="-0.720507">
        <ele>41.818</ele>
        <time>2021-05-05T12:31:13Z</time>
      </trkpt>
      <trkpt lat="38.211055" lon="-0.720470">
        <ele>41.980</ele>
        <time>2021-05-05T12:31:14Z</time>
      </trkpt>
      <trkpt lat="38.210984" lon="-0.720425">
        <ele>42.137</ele>
        <time>2021-05-05T12:31:16Z</time>
      </trkpt>
      <trkpt lat="38.210923" lon="-0.720390">
        <ele>42.092</ele>
        <time>2021-05-05T12:31:18Z</time>
      </trkpt>
      <trkpt lat="38.210880" lon="-0.720366">
        <ele>41.921</ele>
        <time>2021-05-05T12:31:19Z</time>
      </trkpt>
      <trkpt lat="38.210827" lon="-0.720323">
        <ele>41.841</ele>
        <time>2021-05-05T12:31:21Z</time>
      </trkpt>
      <trkpt lat="38.210768" lon="-0.720276">
        <ele>42.105</ele>
        <time>2021-05-05T12:31:23Z</time>
      </trkpt>
      <trkpt lat="38.210728" lon="-0.720246">
        <ele>42.308</ele>
        <time>2021-05-05T12:31:25Z</time>
      </trkpt>
      <trkpt lat="38.210682" lon="-0.720203">
        <ele>42.369</ele>
        <time>2021-05-05T12:31:26Z</time>
      </trkpt>
      <trkpt lat="38.210650" lon="-0.720158">
        <ele>42.454</ele>
        <time>2021-05-05T12:31:27Z</time>
      </trkpt>
      <trkpt lat="38.210594" lon="-0.720106">
        <ele>42.494</ele>
        <time>2021-05-05T12:31:29Z</time>
      </trkpt>
      <trkpt lat="38.210557" lon="-0.720069">
        <ele>42.737</ele>
        <time>2021-05-05T12:31:31Z</time>
      </trkpt>
      <trkpt lat="38.210504" lon="-0.720026">
        <ele>42.587</ele>
        <time>2021-05-05T12:31:32Z</time>
      </trkpt>
      <trkpt lat="38.210450" lon="-0.719964">
        <ele>42.369</ele>
        <time>2021-05-05T12:31:34Z</time>
      </trkpt>
      <trkpt lat="38.210403" lon="-0.719908">
        <ele>42.266</ele>
        <time>2021-05-05T12:31:36Z</time>
      </trkpt>
      <trkpt lat="38.210353" lon="-0.719848">
        <ele>42.331</ele>
        <time>2021-05-05T12:31:38Z</time>
      </trkpt>
      <trkpt lat="38.210314" lon="-0.719810">
        <ele>42.591</ele>
        <time>2021-05-05T12:31:40Z</time>
      </trkpt>
      <trkpt lat="38.210275" lon="-0.719771">
        <ele>42.581</ele>
        <time>2021-05-05T12:31:41Z</time>
      </trkpt>
      <trkpt lat="38.210225" lon="-0.719726">
        <ele>42.319</ele>
        <time>2021-05-05T12:31:43Z</time>
      </trkpt>
      <trkpt lat="38.210174" lon="-0.719685">
        <ele>42.408</ele>
        <time>2021-05-05T12:31:44Z</time>
      </trkpt>
      <trkpt lat="38.210118" lon="-0.719642">
        <ele>42.476</ele>
        <time>2021-05-05T12:31:46Z</time>
      </trkpt>
      <trkpt lat="38.210074" lon="-0.719603">
        <ele>42.491</ele>
        <time>2021-05-05T12:31:48Z</time>
      </trkpt>
      <trkpt lat="38.210031" lon="-0.719565">
        <ele>42.691</ele>
        <time>2021-05-05T12:31:49Z</time>
      </trkpt>
      <trkpt lat="38.209986" lon="-0.719522">
        <ele>42.614</ele>
        <time>2021-05-05T12:31:50Z</time>
      </trkpt>
      <trkpt lat="38.209929" lon="-0.719469">
        <ele>42.644</ele>
        <time>2021-05-05T12:31:52Z</time>
      </trkpt>
      <trkpt lat="38.209885" lon="-0.719421">
        <ele>42.686</ele>
        <time>2021-05-05T12:31:54Z</time>
      </trkpt>
      <trkpt lat="38.209846" lon="-0.719379">
        <ele>42.693</ele>
        <time>2021-05-05T12:31:56Z</time>
      </trkpt>
      <trkpt lat="38.209784" lon="-0.719330">
        <ele>42.478</ele>
        <time>2021-05-05T12:31:58Z</time>
      </trkpt>
      <trkpt lat="38.209728" lon="-0.719263">
        <ele>42.315</ele>
        <time>2021-05-05T12:32:00Z</time>
      </trkpt>
      <trkpt lat="38.209699" lon="-0.719214">
        <ele>42.065</ele>
        <time>2021-05-05T12:32:01Z</time>
      </trkpt>
      <trkpt lat="38.209674" lon="-0.719163">
        <ele>42.011</ele>
        <time>2021-05-05T12:32:02Z</time>
      </trkpt>
      <trkpt lat="38.209630" lon="-0.719067">
        <ele>41.908</ele>
        <time>2021-05-05T12:32:04Z</time>
      </trkpt>
      <trkpt lat="38.209610" lon="-0.718998">
        <ele>41.848</ele>
        <time>2021-05-05T12:32:06Z</time>
      </trkpt>
      <trkpt lat="38.209577" lon="-0.718889">
        <ele>41.463</ele>
        <time>2021-05-05T12:32:09Z</time>
      </trkpt>
      <trkpt lat="38.209553" lon="-0.718809">
        <ele>41.413</ele>
        <time>2021-05-05T12:32:10Z</time>
      </trkpt>
      <trkpt lat="38.209523" lon="-0.718716">
        <ele>41.496</ele>
        <time>2021-05-05T12:32:12Z</time>
      </trkpt>
      <trkpt lat="38.209489" lon="-0.718611">
        <ele>41.496</ele>
        <time>2021-05-05T12:32:15Z</time>
      </trkpt>
      <trkpt lat="38.209463" lon="-0.718527">
        <ele>41.018</ele>
        <time>2021-05-05T12:32:16Z</time>
      </trkpt>
      <trkpt lat="38.209440" lon="-0.718472">
        <ele>40.875</ele>
        <time>2021-05-05T12:32:18Z</time>
      </trkpt>
      <trkpt lat="38.209417" lon="-0.718405">
        <ele>40.870</ele>
        <time>2021-05-05T12:32:19Z</time>
      </trkpt>
      <trkpt lat="38.209389" lon="-0.718319">
        <ele>40.915</ele>
        <time>2021-05-05T12:32:22Z</time>
      </trkpt>
      <trkpt lat="38.209368" lon="-0.718264">
        <ele>40.965</ele>
        <time>2021-05-05T12:32:23Z</time>
      </trkpt>
      <trkpt lat="38.209348" lon="-0.718199">
        <ele>40.711</ele>
        <time>2021-05-05T12:32:24Z</time>
      </trkpt>
      <trkpt lat="38.209328" lon="-0.718127">
        <ele>40.608</ele>
        <time>2021-05-05T12:32:26Z</time>
      </trkpt>
      <trkpt lat="38.209306" lon="-0.718053">
        <ele>40.648</ele>
        <time>2021-05-05T12:32:28Z</time>
      </trkpt>
      <trkpt lat="38.209276" lon="-0.717951">
        <ele>40.713</ele>
        <time>2021-05-05T12:32:30Z</time>
      </trkpt>
      <trkpt lat="38.209249" lon="-0.717875">
        <ele>40.813</ele>
        <time>2021-05-05T12:32:32Z</time>
      </trkpt>
      <trkpt lat="38.209207" lon="-0.717795">
        <ele>40.746</ele>
        <time>2021-05-05T12:32:34Z</time>
      </trkpt>
      <trkpt lat="38.209175" lon="-0.717736">
        <ele>40.756</ele>
        <time>2021-05-05T12:32:36Z</time>
      </trkpt>
      <trkpt lat="38.209131" lon="-0.717655">
        <ele>40.728</ele>
        <time>2021-05-05T12:32:39Z</time>
      </trkpt>
      <trkpt lat="38.209100" lon="-0.717599">
        <ele>40.645</ele>
        <time>2021-05-05T12:32:40Z</time>
      </trkpt>
      <trkpt lat="38.209073" lon="-0.717546">
        <ele>40.740</ele>
        <time>2021-05-05T12:32:41Z</time>
      </trkpt>
      <trkpt lat="38.209041" lon="-0.717478">
        <ele>40.949</ele>
        <time>2021-05-05T12:32:43Z</time>
      </trkpt>
      <trkpt lat="38.209009" lon="-0.717413">
        <ele>41.002</ele>
        <time>2021-05-05T12:32:45Z</time>
      </trkpt>
      <trkpt lat="38.208977" lon="-0.717361">
        <ele>41.122</ele>
        <time>2021-05-05T12:32:47Z</time>
      </trkpt>
      <trkpt lat="38.208943" lon="-0.717310">
        <ele>40.908</ele>
        <time>2021-05-05T12:32:48Z</time>
      </trkpt>
      <trkpt lat="38.208903" lon="-0.717253">
        <ele>40.941</ele>
        <time>2021-05-05T12:32:50Z</time>
      </trkpt>
      <trkpt lat="38.208871" lon="-0.717206">
        <ele>41.186</ele>
        <time>2021-05-05T12:32:51Z</time>
      </trkpt>
      <trkpt lat="38.208816" lon="-0.717129">
        <ele>41.136</ele>
        <time>2021-05-05T12:32:53Z</time>
      </trkpt>
      <trkpt lat="38.208785" lon="-0.717073">
        <ele>41.319</ele>
        <time>2021-05-05T12:32:55Z</time>
      </trkpt>
      <trkpt lat="38.208746" lon="-0.716993">
        <ele>41.399</ele>
        <time>2021-05-05T12:32:57Z</time>
      </trkpt>
      <trkpt lat="38.208716" lon="-0.716923">
        <ele>41.661</ele>
        <time>2021-05-05T12:32:59Z</time>
      </trkpt>
      <trkpt lat="38.208693" lon="-0.716874">
        <ele>41.898</ele>
        <time>2021-05-05T12:33:00Z</time>
      </trkpt>
      <trkpt lat="38.208649" lon="-0.716793">
        <ele>41.913</ele>
        <time>2021-05-05T12:33:03Z</time>
      </trkpt>
      <trkpt lat="38.208618" lon="-0.716742">
        <ele>41.948</ele>
        <time>2021-05-05T12:33:04Z</time>
      </trkpt>
      <trkpt lat="38.208570" lon="-0.716660">
        <ele>41.961</ele>
        <time>2021-05-05T12:33:06Z</time>
      </trkpt>
      <trkpt lat="38.208520" lon="-0.716603">
        <ele>41.917</ele>
        <time>2021-05-05T12:33:08Z</time>
      </trkpt>
      <trkpt lat="38.208477" lon="-0.716526">
        <ele>41.808</ele>
        <time>2021-05-05T12:33:10Z</time>
      </trkpt>
      <trkpt lat="38.208442" lon="-0.716469">
        <ele>42.041</ele>
        <time>2021-05-05T12:33:12Z</time>
      </trkpt>
      <trkpt lat="38.208398" lon="-0.716371">
        <ele>41.736</ele>
        <time>2021-05-05T12:33:15Z</time>
      </trkpt>
      <trkpt lat="38.208366" lon="-0.716317">
        <ele>41.676</ele>
        <time>2021-05-05T12:33:16Z</time>
      </trkpt>
      <trkpt lat="38.208327" lon="-0.716241">
        <ele>41.729</ele>
        <time>2021-05-05T12:33:18Z</time>
      </trkpt>
      <trkpt lat="38.208295" lon="-0.716158">
        <ele>41.379</ele>
        <time>2021-05-05T12:33:20Z</time>
      </trkpt>
      <trkpt lat="38.208278" lon="-0.716090">
        <ele>41.271</ele>
        <time>2021-05-05T12:33:22Z</time>
      </trkpt>
      <trkpt lat="38.208263" lon="-0.716003">
        <ele>41.298</ele>
        <time>2021-05-05T12:33:23Z</time>
      </trkpt>
      <trkpt lat="38.208253" lon="-0.715893">
        <ele>41.233</ele>
        <time>2021-05-05T12:33:26Z</time>
      </trkpt>
      <trkpt lat="38.208257" lon="-0.715803">
        <ele>41.389</ele>
        <time>2021-05-05T12:33:28Z</time>
      </trkpt>
      <trkpt lat="38.208259" lon="-0.715739">
        <ele>41.406</ele>
        <time>2021-05-05T12:33:29Z</time>
      </trkpt>
      <trkpt lat="38.208265" lon="-0.715671">
        <ele>41.326</ele>
        <time>2021-05-05T12:33:31Z</time>
      </trkpt>
      <trkpt lat="38.208279" lon="-0.715585">
        <ele>41.208</ele>
        <time>2021-05-05T12:33:33Z</time>
      </trkpt>
      <trkpt lat="38.208285" lon="-0.715510">
        <ele>41.115</ele>
        <time>2021-05-05T12:33:36Z</time>
      </trkpt>
      <trkpt lat="38.208307" lon="-0.715449">
        <ele>40.980</ele>
        <time>2021-05-05T12:33:37Z</time>
      </trkpt>
      <trkpt lat="38.208329" lon="-0.715397">
        <ele>40.850</ele>
        <time>2021-05-05T12:33:39Z</time>
      </trkpt>
      <trkpt lat="38.208347" lon="-0.715327">
        <ele>40.573</ele>
        <time>2021-05-05T12:33:41Z</time>
      </trkpt>
      <trkpt lat="38.208366" lon="-0.715236">
        <ele>40.573</ele>
        <time>2021-05-05T12:33:43Z</time>
      </trkpt>
      <trkpt lat="38.208392" lon="-0.715160">
        <ele>40.555</ele>
        <time>2021-05-05T12:33:45Z</time>
      </trkpt>
      <trkpt lat="38.208426" lon="-0.715051">
        <ele>40.262</ele>
        <time>2021-05-05T12:33:48Z</time>
      </trkpt>
      <trkpt lat="38.208444" lon="-0.714988">
        <ele>40.317</ele>
        <time>2021-05-05T12:33:49Z</time>
      </trkpt>
      <trkpt lat="38.208461" lon="-0.714923">
        <ele>40.568</ele>
        <time>2021-05-05T12:33:51Z</time>
      </trkpt>
      <trkpt lat="38.208483" lon="-0.714853">
        <ele>40.442</ele>
        <time>2021-05-05T12:33:52Z</time>
      </trkpt>
      <trkpt lat="38.208504" lon="-0.714775">
        <ele>40.526</ele>
        <time>2021-05-05T12:33:54Z</time>
      </trkpt>
      <trkpt lat="38.208539" lon="-0.714669">
        <ele>40.708</ele>
        <time>2021-05-05T12:33:57Z</time>
      </trkpt>
      <trkpt lat="38.208556" lon="-0.714596">
        <ele>40.913</ele>
        <time>2021-05-05T12:33:58Z</time>
      </trkpt>
      <trkpt lat="38.208583" lon="-0.714506">
        <ele>40.918</ele>
        <time>2021-05-05T12:34:00Z</time>
      </trkpt>
      <trkpt lat="38.208611" lon="-0.714399">
        <ele>40.828</ele>
        <time>2021-05-05T12:34:03Z</time>
      </trkpt>
      <trkpt lat="38.208626" lon="-0.714335">
        <ele>40.981</ele>
        <time>2021-05-05T12:34:04Z</time>
      </trkpt>
      <trkpt lat="38.208639" lon="-0.714267">
        <ele>40.921</ele>
        <time>2021-05-05T12:34:06Z</time>
      </trkpt>
      <trkpt lat="38.208650" lon="-0.714211">
        <ele>40.833</ele>
        <time>2021-05-05T12:34:07Z</time>
      </trkpt>
      <trkpt lat="38.208666" lon="-0.714138">
        <ele>40.790</ele>
        <time>2021-05-05T12:34:08Z</time>
      </trkpt>
      <trkpt lat="38.208678" lon="-0.714060">
        <ele>40.875</ele>
        <time>2021-05-05T12:34:10Z</time>
      </trkpt>
      <trkpt lat="38.208692" lon="-0.713979">
        <ele>40.687</ele>
        <time>2021-05-05T12:34:12Z</time>
      </trkpt>
      <trkpt lat="38.208706" lon="-0.713911">
        <ele>40.642</ele>
        <time>2021-05-05T12:34:14Z</time>
      </trkpt>
      <trkpt lat="38.208719" lon="-0.713823">
        <ele>40.326</ele>
        <time>2021-05-05T12:34:17Z</time>
      </trkpt>
      <trkpt lat="38.208726" lon="-0.713747">
        <ele>40.408</ele>
        <time>2021-05-05T12:34:18Z</time>
      </trkpt>
      <trkpt lat="38.208740" lon="-0.713639">
        <ele>40.665</ele>
        <time>2021-05-05T12:34:20Z</time>
      </trkpt>
      <trkpt lat="38.208749" lon="-0.713557">
        <ele>40.560</ele>
        <time>2021-05-05T12:34:22Z</time>
      </trkpt>
      <trkpt lat="38.208763" lon="-0.713453">
        <ele>40.960</ele>
        <time>2021-05-05T12:34:24Z</time>
      </trkpt>
      <trkpt lat="38.208780" lon="-0.713366">
        <ele>40.733</ele>
        <time>2021-05-05T12:34:26Z</time>
      </trkpt>
      <trkpt lat="38.208791" lon="-0.713306">
        <ele>40.833</ele>
        <time>2021-05-05T12:34:28Z</time>
      </trkpt>
      <trkpt lat="38.208801" lon="-0.713236">
        <ele>40.725</ele>
        <time>2021-05-05T12:34:30Z</time>
      </trkpt>
      <trkpt lat="38.208804" lon="-0.713170">
        <ele>40.792</ele>
        <time>2021-05-05T12:34:32Z</time>
      </trkpt>
      <trkpt lat="38.208812" lon="-0.713113">
        <ele>40.727</ele>
        <time>2021-05-05T12:34:33Z</time>
      </trkpt>
      <trkpt lat="38.208823" lon="-0.713052">
        <ele>40.643</ele>
        <time>2021-05-05T12:34:35Z</time>
      </trkpt>
      <trkpt lat="38.208834" lon="-0.712962">
        <ele>40.464</ele>
        <time>2021-05-05T12:34:37Z</time>
      </trkpt>
      <trkpt lat="38.208844" lon="-0.712895">
        <ele>40.510</ele>
        <time>2021-05-05T12:34:38Z</time>
      </trkpt>
      <trkpt lat="38.208857" lon="-0.712809">
        <ele>40.608</ele>
        <time>2021-05-05T12:34:40Z</time>
      </trkpt>
      <trkpt lat="38.208870" lon="-0.712730">
        <ele>40.651</ele>
        <time>2021-05-05T12:34:42Z</time>
      </trkpt>
      <trkpt lat="38.208890" lon="-0.712620">
        <ele>40.766</ele>
        <time>2021-05-05T12:34:45Z</time>
      </trkpt>
      <trkpt lat="38.208906" lon="-0.712546">
        <ele>40.916</ele>
        <time>2021-05-05T12:34:46Z</time>
      </trkpt>
      <trkpt lat="38.208915" lon="-0.712487">
        <ele>41.089</ele>
        <time>2021-05-05T12:34:48Z</time>
      </trkpt>
      <trkpt lat="38.208925" lon="-0.712428">
        <ele>40.999</ele>
        <time>2021-05-05T12:34:49Z</time>
      </trkpt>
      <trkpt lat="38.208935" lon="-0.712363">
        <ele>41.071</ele>
        <time>2021-05-05T12:34:50Z</time>
      </trkpt>
      <trkpt lat="38.208943" lon="-0.712296">
        <ele>41.048</ele>
        <time>2021-05-05T12:34:52Z</time>
      </trkpt>
      <trkpt lat="38.208949" lon="-0.712229">
        <ele>41.093</ele>
        <time>2021-05-05T12:34:53Z</time>
      </trkpt>
      <trkpt lat="38.208959" lon="-0.712156">
        <ele>41.165</ele>
        <time>2021-05-05T12:34:55Z</time>
      </trkpt>
      <trkpt lat="38.208976" lon="-0.712049">
        <ele>41.268</ele>
        <time>2021-05-05T12:34:57Z</time>
      </trkpt>
      <trkpt lat="38.208987" lon="-0.711959">
        <ele>41.214</ele>
        <time>2021-05-05T12:34:59Z</time>
      </trkpt>
      <trkpt lat="38.209001" lon="-0.711876">
        <ele>41.308</ele>
        <time>2021-05-05T12:35:01Z</time>
      </trkpt>
      <trkpt lat="38.209013" lon="-0.711805">
        <ele>41.213</ele>
        <time>2021-05-05T12:35:03Z</time>
      </trkpt>
      <trkpt lat="38.209024" lon="-0.711732">
        <ele>41.268</ele>
        <time>2021-05-05T12:35:05Z</time>
      </trkpt>
      <trkpt lat="38.209036" lon="-0.711666">
        <ele>40.958</ele>
        <time>2021-05-05T12:35:06Z</time>
      </trkpt>
      <trkpt lat="38.209049" lon="-0.711588">
        <ele>40.741</ele>
        <time>2021-05-05T12:35:08Z</time>
      </trkpt>
      <trkpt lat="38.209057" lon="-0.711525">
        <ele>40.691</ele>
        <time>2021-05-05T12:35:09Z</time>
      </trkpt>
      <trkpt lat="38.209070" lon="-0.711433">
        <ele>40.653</ele>
        <time>2021-05-05T12:35:12Z</time>
      </trkpt>
      <trkpt lat="38.209083" lon="-0.711365">
        <ele>40.520</ele>
        <time>2021-05-05T12:35:13Z</time>
      </trkpt>
      <trkpt lat="38.209099" lon="-0.711291">
        <ele>40.535</ele>
        <time>2021-05-05T12:35:15Z</time>
      </trkpt>
      <trkpt lat="38.209106" lon="-0.711228">
        <ele>40.733</ele>
        <time>2021-05-05T12:35:16Z</time>
      </trkpt>
      <trkpt lat="38.209115" lon="-0.711161">
        <ele>40.723</ele>
        <time>2021-05-05T12:35:17Z</time>
      </trkpt>
      <trkpt lat="38.209123" lon="-0.711096">
        <ele>40.615</ele>
        <time>2021-05-05T12:35:19Z</time>
      </trkpt>
      <trkpt lat="38.209132" lon="-0.711005">
        <ele>40.408</ele>
        <time>2021-05-05T12:35:20Z</time>
      </trkpt>
      <trkpt lat="38.209138" lon="-0.710927">
        <ele>40.320</ele>
        <time>2021-05-05T12:35:22Z</time>
      </trkpt>
      <trkpt lat="38.209144" lon="-0.710840">
        <ele>40.215</ele>
        <time>2021-05-05T12:35:24Z</time>
      </trkpt>
      <trkpt lat="38.209149" lon="-0.710761">
        <ele>40.165</ele>
        <time>2021-05-05T12:35:25Z</time>
      </trkpt>
      <trkpt lat="38.209146" lon="-0.710674">
        <ele>40.158</ele>
        <time>2021-05-05T12:35:27Z</time>
      </trkpt>
      <trkpt lat="38.209136" lon="-0.710602">
        <ele>40.218</ele>
        <time>2021-05-05T12:35:28Z</time>
      </trkpt>
      <trkpt lat="38.209126" lon="-0.710543">
        <ele>40.390</ele>
        <time>2021-05-05T12:35:29Z</time>
      </trkpt>
      <trkpt lat="38.209107" lon="-0.710450">
        <ele>40.467</ele>
        <time>2021-05-05T12:35:31Z</time>
      </trkpt>
      <trkpt lat="38.209081" lon="-0.710358">
        <ele>40.692</ele>
        <time>2021-05-05T12:35:33Z</time>
      </trkpt>
      <trkpt lat="38.209063" lon="-0.710303">
        <ele>40.534</ele>
        <time>2021-05-05T12:35:35Z</time>
      </trkpt>
      <trkpt lat="38.209040" lon="-0.710226">
        <ele>40.755</ele>
        <time>2021-05-05T12:35:37Z</time>
      </trkpt>
      <trkpt lat="38.209018" lon="-0.710155">
        <ele>40.710</ele>
        <time>2021-05-05T12:35:38Z</time>
      </trkpt>
      <trkpt lat="38.208989" lon="-0.710073">
        <ele>40.708</ele>
        <time>2021-05-05T12:35:40Z</time>
      </trkpt>
      <trkpt lat="38.208967" lon="-0.709995">
        <ele>40.630</ele>
        <time>2021-05-05T12:35:42Z</time>
      </trkpt>
      <trkpt lat="38.208949" lon="-0.709935">
        <ele>40.595</ele>
        <time>2021-05-05T12:35:44Z</time>
      </trkpt>
      <trkpt lat="38.208925" lon="-0.709855">
        <ele>40.545</ele>
        <time>2021-05-05T12:35:45Z</time>
      </trkpt>
      <trkpt lat="38.208895" lon="-0.709776">
        <ele>40.458</ele>
        <time>2021-05-05T12:35:47Z</time>
      </trkpt>
      <trkpt lat="38.208878" lon="-0.709723">
        <ele>40.278</ele>
        <time>2021-05-05T12:35:49Z</time>
      </trkpt>
      <trkpt lat="38.208862" lon="-0.709664">
        <ele>40.240</ele>
        <time>2021-05-05T12:35:50Z</time>
      </trkpt>
      <trkpt lat="38.208844" lon="-0.709595">
        <ele>40.387</ele>
        <time>2021-05-05T12:35:51Z</time>
      </trkpt>
      <trkpt lat="38.208829" lon="-0.709536">
        <ele>40.342</ele>
        <time>2021-05-05T12:35:53Z</time>
      </trkpt>
      <trkpt lat="38.208810" lon="-0.709466">
        <ele>40.799</ele>
        <time>2021-05-05T12:35:54Z</time>
      </trkpt>
      <trkpt lat="38.208795" lon="-0.709405">
        <ele>40.807</ele>
        <time>2021-05-05T12:35:56Z</time>
      </trkpt>
      <trkpt lat="38.208769" lon="-0.709309">
        <ele>40.727</ele>
        <time>2021-05-05T12:35:58Z</time>
      </trkpt>
      <trkpt lat="38.208741" lon="-0.709214">
        <ele>40.908</ele>
        <time>2021-05-05T12:36:00Z</time>
      </trkpt>
      <trkpt lat="38.208715" lon="-0.709136">
        <ele>41.256</ele>
        <time>2021-05-05T12:36:02Z</time>
      </trkpt>
      <trkpt lat="38.208694" lon="-0.709056">
        <ele>41.291</ele>
        <time>2021-05-05T12:36:04Z</time>
      </trkpt>
      <trkpt lat="38.208681" lon="-0.708975">
        <ele>41.311</ele>
        <time>2021-05-05T12:36:06Z</time>
      </trkpt>
      <trkpt lat="38.208674" lon="-0.708895">
        <ele>41.294</ele>
        <time>2021-05-05T12:36:09Z</time>
      </trkpt>
      <trkpt lat="38.208673" lon="-0.708834">
        <ele>41.234</ele>
        <time>2021-05-05T12:36:10Z</time>
      </trkpt>
      <trkpt lat="38.208674" lon="-0.708770">
        <ele>41.636</ele>
        <time>2021-05-05T12:36:12Z</time>
      </trkpt>
      <trkpt lat="38.208677" lon="-0.708704">
        <ele>41.673</ele>
        <time>2021-05-05T12:36:13Z</time>
      </trkpt>
      <trkpt lat="38.208677" lon="-0.708626">
        <ele>41.658</ele>
        <time>2021-05-05T12:36:16Z</time>
      </trkpt>
      <trkpt lat="38.208679" lon="-0.708564">
        <ele>41.974</ele>
        <time>2021-05-05T12:36:17Z</time>
      </trkpt>
      <trkpt lat="38.208684" lon="-0.708491">
        <ele>42.156</ele>
        <time>2021-05-05T12:36:19Z</time>
      </trkpt>
      <trkpt lat="38.208691" lon="-0.708413">
        <ele>42.421</ele>
        <time>2021-05-05T12:36:21Z</time>
      </trkpt>
      <trkpt lat="38.208695" lon="-0.708333">
        <ele>42.408</ele>
        <time>2021-05-05T12:36:23Z</time>
      </trkpt>
      <trkpt lat="38.208712" lon="-0.708246">
        <ele>42.394</ele>
        <time>2021-05-05T12:36:25Z</time>
      </trkpt>
      <trkpt lat="38.208729" lon="-0.708166">
        <ele>42.279</ele>
        <time>2021-05-05T12:36:27Z</time>
      </trkpt>
      <trkpt lat="38.208741" lon="-0.708087">
        <ele>42.419</ele>
        <time>2021-05-05T12:36:29Z</time>
      </trkpt>
      <trkpt lat="38.208757" lon="-0.708019">
        <ele>42.562</ele>
        <time>2021-05-05T12:36:31Z</time>
      </trkpt>
      <trkpt lat="38.208768" lon="-0.707960">
        <ele>42.772</ele>
        <time>2021-05-05T12:36:33Z</time>
      </trkpt>
      <trkpt lat="38.208772" lon="-0.707883">
        <ele>42.754</ele>
        <time>2021-05-05T12:36:34Z</time>
      </trkpt>
      <trkpt lat="38.208788" lon="-0.707812">
        <ele>42.731</ele>
        <time>2021-05-05T12:36:36Z</time>
      </trkpt>
      <trkpt lat="38.208792" lon="-0.707730">
        <ele>42.676</ele>
        <time>2021-05-05T12:36:38Z</time>
      </trkpt>
      <trkpt lat="38.208802" lon="-0.707656">
        <ele>42.731</ele>
        <time>2021-05-05T12:36:40Z</time>
      </trkpt>
      <trkpt lat="38.208813" lon="-0.707584">
        <ele>42.961</ele>
        <time>2021-05-05T12:36:42Z</time>
      </trkpt>
      <trkpt lat="38.208824" lon="-0.707522">
        <ele>43.107</ele>
        <time>2021-05-05T12:36:43Z</time>
      </trkpt>
      <trkpt lat="38.208834" lon="-0.707462">
        <ele>43.108</ele>
        <time>2021-05-05T12:36:45Z</time>
      </trkpt>
      <trkpt lat="38.208848" lon="-0.707383">
        <ele>43.260</ele>
        <time>2021-05-05T12:36:47Z</time>
      </trkpt>
      <trkpt lat="38.208857" lon="-0.707302">
        <ele>43.385</ele>
        <time>2021-05-05T12:36:49Z</time>
      </trkpt>
      <trkpt lat="38.208868" lon="-0.707217">
        <ele>43.585</ele>
        <time>2021-05-05T12:36:51Z</time>
      </trkpt>
      <trkpt lat="38.208877" lon="-0.707159">
        <ele>43.658</ele>
        <time>2021-05-05T12:36:53Z</time>
      </trkpt>
      <trkpt lat="38.208893" lon="-0.707079">
        <ele>43.518</ele>
        <time>2021-05-05T12:36:55Z</time>
      </trkpt>
      <trkpt lat="38.208907" lon="-0.707001">
        <ele>43.170</ele>
        <time>2021-05-05T12:36:57Z</time>
      </trkpt>
      <trkpt lat="38.208911" lon="-0.706941">
        <ele>42.987</ele>
        <time>2021-05-05T12:36:58Z</time>
      </trkpt>
      <trkpt lat="38.208931" lon="-0.706845">
        <ele>42.842</ele>
        <time>2021-05-05T12:37:00Z</time>
      </trkpt>
      <trkpt lat="38.208940" lon="-0.706778">
        <ele>42.851</ele>
        <time>2021-05-05T12:37:02Z</time>
      </trkpt>
      <trkpt lat="38.208945" lon="-0.706711">
        <ele>42.901</ele>
        <time>2021-05-05T12:37:04Z</time>
      </trkpt>
      <trkpt lat="38.208957" lon="-0.706647">
        <ele>42.811</ele>
        <time>2021-05-05T12:37:05Z</time>
      </trkpt>
      <trkpt lat="38.208969" lon="-0.706570">
        <ele>42.508</ele>
        <time>2021-05-05T12:37:07Z</time>
      </trkpt>
      <trkpt lat="38.208984" lon="-0.706479">
        <ele>42.862</ele>
        <time>2021-05-05T12:37:09Z</time>
      </trkpt>
      <trkpt lat="38.208999" lon="-0.706408">
        <ele>42.427</ele>
        <time>2021-05-05T12:37:11Z</time>
      </trkpt>
      <trkpt lat="38.209015" lon="-0.706340">
        <ele>42.687</ele>
        <time>2021-05-05T12:37:13Z</time>
      </trkpt>
      <trkpt lat="38.209022" lon="-0.706281">
        <ele>42.580</ele>
        <time>2021-05-05T12:37:15Z</time>
      </trkpt>
      <trkpt lat="38.209030" lon="-0.706217">
        <ele>42.260</ele>
        <time>2021-05-05T12:37:17Z</time>
      </trkpt>
      <trkpt lat="38.209044" lon="-0.706135">
        <ele>41.932</ele>
        <time>2021-05-05T12:37:19Z</time>
      </trkpt>
      <trkpt lat="38.209060" lon="-0.706062">
        <ele>41.719</ele>
        <time>2021-05-05T12:37:20Z</time>
      </trkpt>
      <trkpt lat="38.209041" lon="-0.705994">
        <ele>41.774</ele>
        <time>2021-05-05T12:37:22Z</time>
      </trkpt>
      <trkpt lat="38.209072" lon="-0.705911">
        <ele>41.851</ele>
        <time>2021-05-05T12:37:24Z</time>
      </trkpt>
      <trkpt lat="38.209087" lon="-0.705845">
        <ele>41.701</ele>
        <time>2021-05-05T12:37:26Z</time>
      </trkpt>
      <trkpt lat="38.209103" lon="-0.705778">
        <ele>41.711</ele>
        <time>2021-05-05T12:37:28Z</time>
      </trkpt>
      <trkpt lat="38.209125" lon="-0.705716">
        <ele>41.808</ele>
        <time>2021-05-05T12:37:30Z</time>
      </trkpt>
      <trkpt lat="38.209153" lon="-0.705655">
        <ele>41.762</ele>
        <time>2021-05-05T12:37:32Z</time>
      </trkpt>
      <trkpt lat="38.209176" lon="-0.705587">
        <ele>41.847</ele>
        <time>2021-05-05T12:37:33Z</time>
      </trkpt>
      <trkpt lat="38.209204" lon="-0.705521">
        <ele>41.897</ele>
        <time>2021-05-05T12:37:35Z</time>
      </trkpt>
      <trkpt lat="38.209245" lon="-0.705478">
        <ele>42.170</ele>
        <time>2021-05-05T12:37:37Z</time>
      </trkpt>
      <trkpt lat="38.209292" lon="-0.705428">
        <ele>42.250</ele>
        <time>2021-05-05T12:37:39Z</time>
      </trkpt>
      <trkpt lat="38.209326" lon="-0.705387">
        <ele>42.142</ele>
        <time>2021-05-05T12:37:40Z</time>
      </trkpt>
      <trkpt lat="38.209353" lon="-0.705333">
        <ele>42.299</ele>
        <time>2021-05-05T12:37:42Z</time>
      </trkpt>
      <trkpt lat="38.209415" lon="-0.705276">
        <ele>42.384</ele>
        <time>2021-05-05T12:37:45Z</time>
      </trkpt>
      <trkpt lat="38.209472" lon="-0.705247">
        <ele>42.548</ele>
        <time>2021-05-05T12:37:46Z</time>
      </trkpt>
      <trkpt lat="38.209520" lon="-0.705227">
        <ele>42.561</ele>
        <time>2021-05-05T12:37:48Z</time>
      </trkpt>
      <trkpt lat="38.209577" lon="-0.705196">
        <ele>42.517</ele>
        <time>2021-05-05T12:37:50Z</time>
      </trkpt>
      <trkpt lat="38.209633" lon="-0.705153">
        <ele>42.308</ele>
        <time>2021-05-05T12:37:52Z</time>
      </trkpt>
      <trkpt lat="38.209694" lon="-0.705103">
        <ele>42.171</ele>
        <time>2021-05-05T12:37:55Z</time>
      </trkpt>
      <trkpt lat="38.209743" lon="-0.705062">
        <ele>42.256</ele>
        <time>2021-05-05T12:37:56Z</time>
      </trkpt>
      <trkpt lat="38.209799" lon="-0.705026">
        <ele>42.056</ele>
        <time>2021-05-05T12:37:58Z</time>
      </trkpt>
      <trkpt lat="38.209857" lon="-0.705004">
        <ele>42.029</ele>
        <time>2021-05-05T12:38:00Z</time>
      </trkpt>
      <trkpt lat="38.209918" lon="-0.704991">
        <ele>42.349</ele>
        <time>2021-05-05T12:38:02Z</time>
      </trkpt>
      <trkpt lat="38.209986" lon="-0.704984">
        <ele>42.391</ele>
        <time>2021-05-05T12:38:04Z</time>
      </trkpt>
      <trkpt lat="38.210055" lon="-0.704987">
        <ele>42.878</ele>
        <time>2021-05-05T12:38:07Z</time>
      </trkpt>
      <trkpt lat="38.210101" lon="-0.704995">
        <ele>43.183</ele>
        <time>2021-05-05T12:38:08Z</time>
      </trkpt>
      <trkpt lat="38.210152" lon="-0.705009">
        <ele>43.327</ele>
        <time>2021-05-05T12:38:10Z</time>
      </trkpt>
      <trkpt lat="38.210201" lon="-0.705019">
        <ele>43.368</ele>
        <time>2021-05-05T12:38:12Z</time>
      </trkpt>
      <trkpt lat="38.210260" lon="-0.705037">
        <ele>43.214</ele>
        <time>2021-05-05T12:38:14Z</time>
      </trkpt>
      <trkpt lat="38.210308" lon="-0.705061">
        <ele>43.208</ele>
        <time>2021-05-05T12:38:15Z</time>
      </trkpt>
      <trkpt lat="38.210364" lon="-0.705082">
        <ele>42.919</ele>
        <time>2021-05-05T12:38:17Z</time>
      </trkpt>
      <trkpt lat="38.210415" lon="-0.705097">
        <ele>42.794</ele>
        <time>2021-05-05T12:38:19Z</time>
      </trkpt>
      <trkpt lat="38.210476" lon="-0.705106">
        <ele>42.594</ele>
        <time>2021-05-05T12:38:21Z</time>
      </trkpt>
      <trkpt lat="38.210535" lon="-0.705106">
        <ele>42.337</ele>
        <time>2021-05-05T12:38:22Z</time>
      </trkpt>
      <trkpt lat="38.210607" lon="-0.705113">
        <ele>41.967</ele>
        <time>2021-05-05T12:38:24Z</time>
      </trkpt>
      <trkpt lat="38.210663" lon="-0.705126">
        <ele>41.879</ele>
        <time>2021-05-05T12:38:26Z</time>
      </trkpt>
      <trkpt lat="38.210712" lon="-0.705141">
        <ele>41.726</ele>
        <time>2021-05-05T12:38:27Z</time>
      </trkpt>
      <trkpt lat="38.210763" lon="-0.705155">
        <ele>41.711</ele>
        <time>2021-05-05T12:38:28Z</time>
      </trkpt>
      <trkpt lat="38.210815" lon="-0.705173">
        <ele>41.747</ele>
        <time>2021-05-05T12:38:30Z</time>
      </trkpt>
      <trkpt lat="38.210887" lon="-0.705193">
        <ele>41.429</ele>
        <time>2021-05-05T12:38:32Z</time>
      </trkpt>
      <trkpt lat="38.210946" lon="-0.705206">
        <ele>41.521</ele>
        <time>2021-05-05T12:38:34Z</time>
      </trkpt>
      <trkpt lat="38.210992" lon="-0.705199">
        <ele>41.508</ele>
        <time>2021-05-05T12:38:35Z</time>
      </trkpt>
      <trkpt lat="38.211043" lon="-0.705168">
        <ele>41.541</ele>
        <time>2021-05-05T12:38:37Z</time>
      </trkpt>
      <trkpt lat="38.211081" lon="-0.705118">
        <ele>41.426</ele>
        <time>2021-05-05T12:38:39Z</time>
      </trkpt>
      <trkpt lat="38.211118" lon="-0.705051">
        <ele>41.746</ele>
        <time>2021-05-05T12:38:41Z</time>
      </trkpt>
      <trkpt lat="38.211145" lon="-0.704995">
        <ele>41.939</ele>
        <time>2021-05-05T12:38:43Z</time>
      </trkpt>
      <trkpt lat="38.211167" lon="-0.704941">
        <ele>42.299</ele>
        <time>2021-05-05T12:38:45Z</time>
      </trkpt>
      <trkpt lat="38.211199" lon="-0.704882">
        <ele>42.111</ele>
        <time>2021-05-05T12:38:47Z</time>
      </trkpt>
      <trkpt lat="38.211234" lon="-0.704830">
        <ele>42.128</ele>
        <time>2021-05-05T12:38:49Z</time>
      </trkpt>
      <trkpt lat="38.211269" lon="-0.704777">
        <ele>42.063</ele>
        <time>2021-05-05T12:38:51Z</time>
      </trkpt>
      <trkpt lat="38.211297" lon="-0.704723">
        <ele>41.849</ele>
        <time>2021-05-05T12:38:52Z</time>
      </trkpt>
      <trkpt lat="38.211339" lon="-0.704645">
        <ele>41.502</ele>
        <time>2021-05-05T12:38:54Z</time>
      </trkpt>
      <trkpt lat="38.211379" lon="-0.704589">
        <ele>41.022</ele>
        <time>2021-05-05T12:38:56Z</time>
      </trkpt>
      <trkpt lat="38.211419" lon="-0.704540">
        <ele>40.808</ele>
        <time>2021-05-05T12:38:58Z</time>
      </trkpt>
      <trkpt lat="38.211465" lon="-0.704489">
        <ele>40.351</ele>
        <time>2021-05-05T12:38:59Z</time>
      </trkpt>
      <trkpt lat="38.211505" lon="-0.704460">
        <ele>40.016</ele>
        <time>2021-05-05T12:39:00Z</time>
      </trkpt>
      <trkpt lat="38.211561" lon="-0.704432">
        <ele>39.976</ele>
        <time>2021-05-05T12:39:01Z</time>
      </trkpt>
      <trkpt lat="38.211628" lon="-0.704423">
        <ele>39.539</ele>
        <time>2021-05-05T12:39:03Z</time>
      </trkpt>
      <trkpt lat="38.211677" lon="-0.704416">
        <ele>39.379</ele>
        <time>2021-05-05T12:39:04Z</time>
      </trkpt>
      <trkpt lat="38.211760" lon="-0.704419">
        <ele>39.471</ele>
        <time>2021-05-05T12:39:06Z</time>
      </trkpt>
      <trkpt lat="38.211842" lon="-0.704434">
        <ele>39.298</ele>
        <time>2021-05-05T12:39:08Z</time>
      </trkpt>
      <trkpt lat="38.211885" lon="-0.704456">
        <ele>38.913</ele>
        <time>2021-05-05T12:39:09Z</time>
      </trkpt>
      <trkpt lat="38.211958" lon="-0.704450">
        <ele>38.841</ele>
        <time>2021-05-05T12:39:11Z</time>
      </trkpt>
      <trkpt lat="38.212094" lon="-0.704447">
        <ele>38.981</ele>
        <time>2021-05-05T12:39:14Z</time>
      </trkpt>
      <trkpt lat="38.212180" lon="-0.704434">
        <ele>39.309</ele>
        <time>2021-05-05T12:39:16Z</time>
      </trkpt>
      <trkpt lat="38.212237" lon="-0.704411">
        <ele>39.608</ele>
        <time>2021-05-05T12:39:17Z</time>
      </trkpt>
      <trkpt lat="38.212284" lon="-0.704369">
        <ele>40.141</ele>
        <time>2021-05-05T12:39:19Z</time>
      </trkpt>
      <trkpt lat="38.212331" lon="-0.704315">
        <ele>40.376</ele>
        <time>2021-05-05T12:39:21Z</time>
      </trkpt>
      <trkpt lat="38.212365" lon="-0.704271">
        <ele>40.556</ele>
        <time>2021-05-05T12:39:24Z</time>
      </trkpt>
      <trkpt lat="38.212402" lon="-0.704234">
        <ele>40.729</ele>
        <time>2021-05-05T12:39:25Z</time>
      </trkpt>
      <trkpt lat="38.212452" lon="-0.704186">
        <ele>40.889</ele>
        <time>2021-05-05T12:39:27Z</time>
      </trkpt>
      <trkpt lat="38.212489" lon="-0.704148">
        <ele>41.191</ele>
        <time>2021-05-05T12:39:29Z</time>
      </trkpt>
      <trkpt lat="38.212534" lon="-0.704106">
        <ele>41.118</ele>
        <time>2021-05-05T12:39:30Z</time>
      </trkpt>
      <trkpt lat="38.212585" lon="-0.704050">
        <ele>41.313</ele>
        <time>2021-05-05T12:39:32Z</time>
      </trkpt>
      <trkpt lat="38.212625" lon="-0.704007">
        <ele>41.441</ele>
        <time>2021-05-05T12:39:33Z</time>
      </trkpt>
      <trkpt lat="38.212680" lon="-0.703948">
        <ele>41.681</ele>
        <time>2021-05-05T12:39:35Z</time>
      </trkpt>
      <trkpt lat="38.212716" lon="-0.703910">
        <ele>41.809</ele>
        <time>2021-05-05T12:39:37Z</time>
      </trkpt>
      <trkpt lat="38.212755" lon="-0.703857">
        <ele>42.008</ele>
        <time>2021-05-05T12:39:38Z</time>
      </trkpt>
      <trkpt lat="38.212784" lon="-0.703812">
        <ele>41.971</ele>
        <time>2021-05-05T12:39:39Z</time>
      </trkpt>
      <trkpt lat="38.212838" lon="-0.703752">
        <ele>42.136</ele>
        <time>2021-05-05T12:39:41Z</time>
      </trkpt>
      <trkpt lat="38.212888" lon="-0.703703">
        <ele>42.096</ele>
        <time>2021-05-05T12:39:43Z</time>
      </trkpt>
      <trkpt lat="38.212957" lon="-0.703637">
        <ele>41.849</ele>
        <time>2021-05-05T12:39:46Z</time>
      </trkpt>
      <trkpt lat="38.213003" lon="-0.703588">
        <ele>42.159</ele>
        <time>2021-05-05T12:39:47Z</time>
      </trkpt>
      <trkpt lat="38.213041" lon="-0.703553">
        <ele>42.461</ele>
        <time>2021-05-05T12:39:48Z</time>
      </trkpt>
      <trkpt lat="38.213079" lon="-0.703515">
        <ele>42.598</ele>
        <time>2021-05-05T12:39:50Z</time>
      </trkpt>
      <trkpt lat="38.213127" lon="-0.703466">
        <ele>42.633</ele>
        <time>2021-05-05T12:39:51Z</time>
      </trkpt>
      <trkpt lat="38.213193" lon="-0.703403">
        <ele>42.546</ele>
        <time>2021-05-05T12:39:53Z</time>
      </trkpt>
      <trkpt lat="38.213272" lon="-0.703332">
        <ele>42.588</ele>
        <time>2021-05-05T12:39:55Z</time>
      </trkpt>
      <trkpt lat="38.213333" lon="-0.703268">
        <ele>42.116</ele>
        <time>2021-05-05T12:39:57Z</time>
      </trkpt>
      <trkpt lat="38.213368" lon="-0.703231">
        <ele>41.908</ele>
        <time>2021-05-05T12:39:58Z</time>
      </trkpt>
      <trkpt lat="38.213411" lon="-0.703182">
        <ele>41.911</ele>
        <time>2021-05-05T12:40:00Z</time>
      </trkpt>
      <trkpt lat="38.213460" lon="-0.703110">
        <ele>41.926</ele>
        <time>2021-05-05T12:40:01Z</time>
      </trkpt>
      <trkpt lat="38.213496" lon="-0.703055">
        <ele>42.036</ele>
        <time>2021-05-05T12:40:03Z</time>
      </trkpt>
      <trkpt lat="38.213542" lon="-0.702981">
        <ele>41.999</ele>
        <time>2021-05-05T12:40:04Z</time>
      </trkpt>
      <trkpt lat="38.213587" lon="-0.702869">
        <ele>41.629</ele>
        <time>2021-05-05T12:40:07Z</time>
      </trkpt>
      <trkpt lat="38.213617" lon="-0.702786">
        <ele>41.541</ele>
        <time>2021-05-05T12:40:08Z</time>
      </trkpt>
      <trkpt lat="38.213635" lon="-0.702723">
        <ele>41.438</ele>
        <time>2021-05-05T12:40:10Z</time>
      </trkpt>
      <trkpt lat="38.213651" lon="-0.702648">
        <ele>41.413</ele>
        <time>2021-05-05T12:40:11Z</time>
      </trkpt>
      <trkpt lat="38.213672" lon="-0.702569">
        <ele>41.491</ele>
        <time>2021-05-05T12:40:13Z</time>
      </trkpt>
      <trkpt lat="38.213685" lon="-0.702491">
        <ele>41.581</ele>
        <time>2021-05-05T12:40:14Z</time>
      </trkpt>
      <trkpt lat="38.213696" lon="-0.702431">
        <ele>41.519</ele>
        <time>2021-05-05T12:40:15Z</time>
      </trkpt>
      <trkpt lat="38.213712" lon="-0.702332">
        <ele>41.308</ele>
        <time>2021-05-05T12:40:17Z</time>
      </trkpt>
      <trkpt lat="38.213727" lon="-0.702265">
        <ele>41.436</ele>
        <time>2021-05-05T12:40:18Z</time>
      </trkpt>
      <trkpt lat="38.213742" lon="-0.702201">
        <ele>41.341</ele>
        <time>2021-05-05T12:40:20Z</time>
      </trkpt>
      <trkpt lat="38.213757" lon="-0.702121">
        <ele>41.251</ele>
        <time>2021-05-05T12:40:21Z</time>
      </trkpt>
      <trkpt lat="38.213764" lon="-0.702061">
        <ele>41.254</ele>
        <time>2021-05-05T12:40:22Z</time>
      </trkpt>
      <trkpt lat="38.213778" lon="-0.701993">
        <ele>41.224</ele>
        <time>2021-05-05T12:40:24Z</time>
      </trkpt>
      <trkpt lat="38.213803" lon="-0.701904">
        <ele>41.286</ele>
        <time>2021-05-05T12:40:25Z</time>
      </trkpt>
      <trkpt lat="38.213822" lon="-0.701840">
        <ele>41.173</ele>
        <time>2021-05-05T12:40:26Z</time>
      </trkpt>
      <trkpt lat="38.213864" lon="-0.701740">
        <ele>40.978</ele>
        <time>2021-05-05T12:40:28Z</time>
      </trkpt>
      <trkpt lat="38.213882" lon="-0.701632">
        <ele>40.753</ele>
        <time>2021-05-05T12:40:30Z</time>
      </trkpt>
      <trkpt lat="38.213895" lon="-0.701575">
        <ele>40.604</ele>
        <time>2021-05-05T12:40:32Z</time>
      </trkpt>
      <trkpt lat="38.213909" lon="-0.701495">
        <ele>40.514</ele>
        <time>2021-05-05T12:40:33Z</time>
      </trkpt>
      <trkpt lat="38.213920" lon="-0.701435">
        <ele>40.408</ele>
        <time>2021-05-05T12:40:34Z</time>
      </trkpt>
      <trkpt lat="38.213944" lon="-0.701348">
        <ele>40.572</ele>
        <time>2021-05-05T12:40:36Z</time>
      </trkpt>
      <trkpt lat="38.213964" lon="-0.701243">
        <ele>40.587</ele>
        <time>2021-05-05T12:40:38Z</time>
      </trkpt>
      <trkpt lat="38.213972" lon="-0.701174">
        <ele>40.767</ele>
        <time>2021-05-05T12:40:40Z</time>
      </trkpt>
      <trkpt lat="38.213992" lon="-0.701094">
        <ele>40.850</ele>
        <time>2021-05-05T12:40:41Z</time>
      </trkpt>
      <trkpt lat="38.214014" lon="-0.701005">
        <ele>40.950</ele>
        <time>2021-05-05T12:40:43Z</time>
      </trkpt>
      <trkpt lat="38.214035" lon="-0.700952">
        <ele>40.982</ele>
        <time>2021-05-05T12:40:44Z</time>
      </trkpt>
      <trkpt lat="38.214065" lon="-0.700894">
        <ele>40.849</ele>
        <time>2021-05-05T12:40:46Z</time>
      </trkpt>
      <trkpt lat="38.214085" lon="-0.700784">
        <ele>40.924</ele>
        <time>2021-05-05T12:40:48Z</time>
      </trkpt>
      <trkpt lat="38.214104" lon="-0.700693">
        <ele>40.964</ele>
        <time>2021-05-05T12:40:49Z</time>
      </trkpt>
      <trkpt lat="38.214128" lon="-0.700599">
        <ele>41.106</ele>
        <time>2021-05-05T12:40:51Z</time>
      </trkpt>
      <trkpt lat="38.214147" lon="-0.700525">
        <ele>41.016</ele>
        <time>2021-05-05T12:40:52Z</time>
      </trkpt>
      <trkpt lat="38.214158" lon="-0.700458">
        <ele>40.908</ele>
        <time>2021-05-05T12:40:53Z</time>
      </trkpt>
      <trkpt lat="38.214172" lon="-0.700360">
        <ele>40.763</ele>
        <time>2021-05-05T12:40:55Z</time>
      </trkpt>
      <trkpt lat="38.214179" lon="-0.700299">
        <ele>40.978</ele>
        <time>2021-05-05T12:40:57Z</time>
      </trkpt>
      <trkpt lat="38.214180" lon="-0.700197">
        <ele>40.988</ele>
        <time>2021-05-05T12:40:58Z</time>
      </trkpt>
      <trkpt lat="38.214174" lon="-0.700113">
        <ele>41.061</ele>
        <time>2021-05-05T12:41:00Z</time>
      </trkpt>
      <trkpt lat="38.214170" lon="-0.700049">
        <ele>41.181</ele>
        <time>2021-05-05T12:41:01Z</time>
      </trkpt>
      <trkpt lat="38.214166" lon="-0.699981">
        <ele>41.113</ele>
        <time>2021-05-05T12:41:02Z</time>
      </trkpt>
      <trkpt lat="38.214161" lon="-0.699898">
        <ele>41.310</ele>
        <time>2021-05-05T12:41:04Z</time>
      </trkpt>
      <trkpt lat="38.214158" lon="-0.699821">
        <ele>41.575</ele>
        <time>2021-05-05T12:41:06Z</time>
      </trkpt>
      <trkpt lat="38.214156" lon="-0.699747">
        <ele>41.659</ele>
        <time>2021-05-05T12:41:07Z</time>
      </trkpt>
      <trkpt lat="38.214157" lon="-0.699687">
        <ele>41.703</ele>
        <time>2021-05-05T12:41:08Z</time>
      </trkpt>
      <trkpt lat="38.214156" lon="-0.699630">
        <ele>41.823</ele>
        <time>2021-05-05T12:41:10Z</time>
      </trkpt>
      <trkpt lat="38.214151" lon="-0.699556">
        <ele>42.208</ele>
        <time>2021-05-05T12:41:11Z</time>
      </trkpt>
      <trkpt lat="38.214146" lon="-0.699499">
        <ele>42.572</ele>
        <time>2021-05-05T12:41:12Z</time>
      </trkpt>
      <trkpt lat="38.214138" lon="-0.699412">
        <ele>42.757</ele>
        <time>2021-05-05T12:41:14Z</time>
      </trkpt>
      <trkpt lat="38.214136" lon="-0.699334">
        <ele>42.997</ele>
        <time>2021-05-05T12:41:16Z</time>
      </trkpt>
      <trkpt lat="38.214132" lon="-0.699243">
        <ele>42.970</ele>
        <time>2021-05-05T12:41:18Z</time>
      </trkpt>
      <trkpt lat="38.214132" lon="-0.699176">
        <ele>42.930</ele>
        <time>2021-05-05T12:41:20Z</time>
      </trkpt>
      <trkpt lat="38.214133" lon="-0.699119">
        <ele>42.922</ele>
        <time>2021-05-05T12:41:21Z</time>
      </trkpt>
      <trkpt lat="38.214133" lon="-0.699024">
        <ele>42.679</ele>
        <time>2021-05-05T12:41:24Z</time>
      </trkpt>
      <trkpt lat="38.214124" lon="-0.698948">
        <ele>42.564</ele>
        <time>2021-05-05T12:41:25Z</time>
      </trkpt>
      <trkpt lat="38.214122" lon="-0.698885">
        <ele>42.464</ele>
        <time>2021-05-05T12:41:27Z</time>
      </trkpt>
      <trkpt lat="38.214117" lon="-0.698814">
        <ele>42.406</ele>
        <time>2021-05-05T12:41:28Z</time>
      </trkpt>
      <trkpt lat="38.214105" lon="-0.698699">
        <ele>42.516</ele>
        <time>2021-05-05T12:41:30Z</time>
      </trkpt>
      <trkpt lat="38.214102" lon="-0.698615">
        <ele>42.408</ele>
        <time>2021-05-05T12:41:32Z</time>
      </trkpt>
      <trkpt lat="38.214099" lon="-0.698545">
        <ele>42.413</ele>
        <time>2021-05-05T12:41:34Z</time>
      </trkpt>
      <trkpt lat="38.214099" lon="-0.698448">
        <ele>42.348</ele>
        <time>2021-05-05T12:41:36Z</time>
      </trkpt>
      <trkpt lat="38.214097" lon="-0.698349">
        <ele>42.518</ele>
        <time>2021-05-05T12:41:38Z</time>
      </trkpt>
      <trkpt lat="38.214093" lon="-0.698259">
        <ele>42.761</ele>
        <time>2021-05-05T12:41:40Z</time>
      </trkpt>
      <trkpt lat="38.214085" lon="-0.698159">
        <ele>42.741</ele>
        <time>2021-05-05T12:41:42Z</time>
      </trkpt>
      <trkpt lat="38.214081" lon="-0.698093">
        <ele>42.413</ele>
        <time>2021-05-05T12:41:43Z</time>
      </trkpt>
      <trkpt lat="38.214077" lon="-0.698028">
        <ele>42.340</ele>
        <time>2021-05-05T12:41:45Z</time>
      </trkpt>
      <trkpt lat="38.214072" lon="-0.697955">
        <ele>42.185</ele>
        <time>2021-05-05T12:41:46Z</time>
      </trkpt>
      <trkpt lat="38.214071" lon="-0.697875">
        <ele>42.084</ele>
        <time>2021-05-05T12:41:48Z</time>
      </trkpt>
      <trkpt lat="38.214071" lon="-0.697803">
        <ele>41.807</ele>
        <time>2021-05-05T12:41:50Z</time>
      </trkpt>
      <trkpt lat="38.214070" lon="-0.697719">
        <ele>42.017</ele>
        <time>2021-05-05T12:41:51Z</time>
      </trkpt>
      <trkpt lat="38.214058" lon="-0.697646">
        <ele>42.108</ele>
        <time>2021-05-05T12:41:53Z</time>
      </trkpt>
      <trkpt lat="38.214055" lon="-0.697577">
        <ele>41.825</ele>
        <time>2021-05-05T12:41:55Z</time>
      </trkpt>
      <trkpt lat="38.214061" lon="-0.697517">
        <ele>41.660</ele>
        <time>2021-05-05T12:41:57Z</time>
      </trkpt>
      <trkpt lat="38.214105" lon="-0.697463">
        <ele>41.850</ele>
        <time>2021-05-05T12:41:59Z</time>
      </trkpt>
      <trkpt lat="38.214169" lon="-0.697449">
        <ele>41.533</ele>
        <time>2021-05-05T12:42:01Z</time>
      </trkpt>
      <trkpt lat="38.214228" lon="-0.697409">
        <ele>41.713</ele>
        <time>2021-05-05T12:42:04Z</time>
      </trkpt>
      <trkpt lat="38.214276" lon="-0.697394">
        <ele>41.845</ele>
        <time>2021-05-05T12:42:06Z</time>
      </trkpt>
      <trkpt lat="38.214331" lon="-0.697388">
        <ele>41.842</ele>
        <time>2021-05-05T12:42:10Z</time>
      </trkpt>
      <trkpt lat="38.214382" lon="-0.697410">
        <ele>41.387</ele>
        <time>2021-05-05T12:42:12Z</time>
      </trkpt>
      <trkpt lat="38.214427" lon="-0.697421">
        <ele>40.473</ele>
        <time>2021-05-05T12:42:15Z</time>
      </trkpt>
      <trkpt lat="38.214508" lon="-0.697402">
        <ele>40.185</ele>
        <time>2021-05-05T12:42:17Z</time>
      </trkpt>
      <trkpt lat="38.214578" lon="-0.697361">
        <ele>39.913</ele>
        <time>2021-05-05T12:42:20Z</time>
      </trkpt>
      <trkpt lat="38.214644" lon="-0.697344">
        <ele>40.208</ele>
        <time>2021-05-05T12:42:22Z</time>
      </trkpt>
      <trkpt lat="38.214706" lon="-0.697336">
        <ele>40.264</ele>
        <time>2021-05-05T12:42:24Z</time>
      </trkpt>
      <trkpt lat="38.214737" lon="-0.697255">
        <ele>40.389</ele>
        <time>2021-05-05T12:42:26Z</time>
      </trkpt>
      <trkpt lat="38.214767" lon="-0.697190">
        <ele>40.329</ele>
        <time>2021-05-05T12:42:28Z</time>
      </trkpt>
      <trkpt lat="38.214798" lon="-0.697117">
        <ele>40.242</ele>
        <time>2021-05-05T12:42:30Z</time>
      </trkpt>
      <trkpt lat="38.214779" lon="-0.697018">
        <ele>40.252</ele>
        <time>2021-05-05T12:42:33Z</time>
      </trkpt>
      <trkpt lat="38.214743" lon="-0.696965">
        <ele>40.424</ele>
        <time>2021-05-05T12:42:35Z</time>
      </trkpt>
      <trkpt lat="38.214699" lon="-0.696921">
        <ele>40.521</ele>
        <time>2021-05-05T12:42:36Z</time>
      </trkpt>
      <trkpt lat="38.214643" lon="-0.696863">
        <ele>40.516</ele>
        <time>2021-05-05T12:42:38Z</time>
      </trkpt>
      <trkpt lat="38.214602" lon="-0.696816">
        <ele>40.434</ele>
        <time>2021-05-05T12:42:40Z</time>
      </trkpt>
      <trkpt lat="38.214559" lon="-0.696774">
        <ele>40.355</ele>
        <time>2021-05-05T12:42:41Z</time>
      </trkpt>
      <trkpt lat="38.214507" lon="-0.696716">
        <ele>40.110</ele>
        <time>2021-05-05T12:42:43Z</time>
      </trkpt>
      <trkpt lat="38.214463" lon="-0.696676">
        <ele>39.908</ele>
        <time>2021-05-05T12:42:44Z</time>
      </trkpt>
      <trkpt lat="38.214417" lon="-0.696638">
        <ele>39.850</ele>
        <time>2021-05-05T12:42:46Z</time>
      </trkpt>
      <trkpt lat="38.214364" lon="-0.696607">
        <ele>39.735</ele>
        <time>2021-05-05T12:42:48Z</time>
      </trkpt>
      <trkpt lat="38.214288" lon="-0.696566">
        <ele>39.865</ele>
        <time>2021-05-05T12:42:50Z</time>
      </trkpt>
      <trkpt lat="38.214242" lon="-0.696559">
        <ele>39.778</ele>
        <time>2021-05-05T12:42:52Z</time>
      </trkpt>
      <trkpt lat="38.214170" lon="-0.696567">
        <ele>39.628</ele>
        <time>2021-05-05T12:42:54Z</time>
      </trkpt>
      <trkpt lat="38.214105" lon="-0.696576">
        <ele>39.950</ele>
        <time>2021-05-05T12:42:55Z</time>
      </trkpt>
      <trkpt lat="38.214035" lon="-0.696554">
        <ele>39.997</ele>
        <time>2021-05-05T12:42:58Z</time>
      </trkpt>
      <trkpt lat="38.214014" lon="-0.696482">
        <ele>40.282</ele>
        <time>2021-05-05T12:42:59Z</time>
      </trkpt>
      <trkpt lat="38.214002" lon="-0.696408">
        <ele>40.484</ele>
        <time>2021-05-05T12:43:01Z</time>
      </trkpt>
      <trkpt lat="38.213996" lon="-0.696341">
        <ele>40.307</ele>
        <time>2021-05-05T12:43:03Z</time>
      </trkpt>
      <trkpt lat="38.213991" lon="-0.696255">
        <ele>40.317</ele>
        <time>2021-05-05T12:43:05Z</time>
      </trkpt>
      <trkpt lat="38.213994" lon="-0.696196">
        <ele>40.708</ele>
        <time>2021-05-05T12:43:06Z</time>
      </trkpt>
      <trkpt lat="38.213989" lon="-0.696086">
        <ele>41.035</ele>
        <time>2021-05-05T12:43:09Z</time>
      </trkpt>
      <trkpt lat="38.213983" lon="-0.695989">
        <ele>41.010</ele>
        <time>2021-05-05T12:43:11Z</time>
      </trkpt>
      <trkpt lat="38.213980" lon="-0.695896">
        <ele>41.270</ele>
        <time>2021-05-05T12:43:13Z</time>
      </trkpt>
      <trkpt lat="38.213976" lon="-0.695800">
        <ele>41.223</ele>
        <time>2021-05-05T12:43:15Z</time>
      </trkpt>
      <trkpt lat="38.213968" lon="-0.695713">
        <ele>41.373</ele>
        <time>2021-05-05T12:43:17Z</time>
      </trkpt>
      <trkpt lat="38.213964" lon="-0.695612">
        <ele>41.545</ele>
        <time>2021-05-05T12:43:19Z</time>
      </trkpt>
      <trkpt lat="38.213959" lon="-0.695513">
        <ele>41.122</ele>
        <time>2021-05-05T12:43:21Z</time>
      </trkpt>
      <trkpt lat="38.213950" lon="-0.695405">
        <ele>40.857</ele>
        <time>2021-05-05T12:43:23Z</time>
      </trkpt>
      <trkpt lat="38.213945" lon="-0.695301">
        <ele>40.666</ele>
        <time>2021-05-05T12:43:25Z</time>
      </trkpt>
      <trkpt lat="38.213938" lon="-0.695194">
        <ele>40.529</ele>
        <time>2021-05-05T12:43:27Z</time>
      </trkpt>
      <trkpt lat="38.213935" lon="-0.695103">
        <ele>40.921</ele>
        <time>2021-05-05T12:43:29Z</time>
      </trkpt>
      <trkpt lat="38.213937" lon="-0.695043">
        <ele>40.808</ele>
        <time>2021-05-05T12:43:30Z</time>
      </trkpt>
      <trkpt lat="38.213931" lon="-0.694942">
        <ele>40.873</ele>
        <time>2021-05-05T12:43:32Z</time>
      </trkpt>
      <trkpt lat="38.213922" lon="-0.694849">
        <ele>40.918</ele>
        <time>2021-05-05T12:43:34Z</time>
      </trkpt>
      <trkpt lat="38.213919" lon="-0.694748">
        <ele>41.288</ele>
        <time>2021-05-05T12:43:36Z</time>
      </trkpt>
      <trkpt lat="38.213917" lon="-0.694644">
        <ele>41.491</ele>
        <time>2021-05-05T12:43:38Z</time>
      </trkpt>
      <trkpt lat="38.213916" lon="-0.694548">
        <ele>41.591</ele>
        <time>2021-05-05T12:43:40Z</time>
      </trkpt>
      <trkpt lat="38.213912" lon="-0.694440">
        <ele>41.723</ele>
        <time>2021-05-05T12:43:42Z</time>
      </trkpt>
      <trkpt lat="38.213907" lon="-0.694339">
        <ele>41.650</ele>
        <time>2021-05-05T12:43:44Z</time>
      </trkpt>
      <trkpt lat="38.213904" lon="-0.694279">
        <ele>41.845</ele>
        <time>2021-05-05T12:43:45Z</time>
      </trkpt>
      <trkpt lat="38.213897" lon="-0.694173">
        <ele>41.837</ele>
        <time>2021-05-05T12:43:47Z</time>
      </trkpt>
      <trkpt lat="38.213892" lon="-0.694070">
        <ele>42.049</ele>
        <time>2021-05-05T12:43:49Z</time>
      </trkpt>
      <trkpt lat="38.213889" lon="-0.693968">
        <ele>42.113</ele>
        <time>2021-05-05T12:43:51Z</time>
      </trkpt>
      <trkpt lat="38.213886" lon="-0.693909">
        <ele>41.908</ele>
        <time>2021-05-05T12:43:52Z</time>
      </trkpt>
      <trkpt lat="38.213879" lon="-0.693814">
        <ele>41.750</ele>
        <time>2021-05-05T12:43:54Z</time>
      </trkpt>
      <trkpt lat="38.213865" lon="-0.693719">
        <ele>41.735</ele>
        <time>2021-05-05T12:43:55Z</time>
      </trkpt>
      <trkpt lat="38.213855" lon="-0.693660">
        <ele>42.055</ele>
        <time>2021-05-05T12:43:57Z</time>
      </trkpt>
      <trkpt lat="38.213840" lon="-0.693589">
        <ele>42.328</ele>
        <time>2021-05-05T12:43:58Z</time>
      </trkpt>
      <trkpt lat="38.213830" lon="-0.693519">
        <ele>42.458</ele>
        <time>2021-05-05T12:43:59Z</time>
      </trkpt>
      <trkpt lat="38.213812" lon="-0.693422">
        <ele>42.620</ele>
        <time>2021-05-05T12:44:02Z</time>
      </trkpt>
      <trkpt lat="38.213790" lon="-0.693358">
        <ele>42.487</ele>
        <time>2021-05-05T12:44:03Z</time>
      </trkpt>
      <trkpt lat="38.213771" lon="-0.693289">
        <ele>42.382</ele>
        <time>2021-05-05T12:44:04Z</time>
      </trkpt>
      <trkpt lat="38.213748" lon="-0.693210">
        <ele>42.132</ele>
        <time>2021-05-05T12:44:06Z</time>
      </trkpt>
      <trkpt lat="38.213721" lon="-0.693107">
        <ele>41.692</ele>
        <time>2021-05-05T12:44:08Z</time>
      </trkpt>
      <trkpt lat="38.213704" lon="-0.693052">
        <ele>41.211</ele>
        <time>2021-05-05T12:44:09Z</time>
      </trkpt>
      <trkpt lat="38.213682" lon="-0.692978">
        <ele>41.308</ele>
        <time>2021-05-05T12:44:10Z</time>
      </trkpt>
      <trkpt lat="38.213660" lon="-0.692880">
        <ele>41.250</ele>
        <time>2021-05-05T12:44:12Z</time>
      </trkpt>
      <trkpt lat="38.213642" lon="-0.692808">
        <ele>41.035</ele>
        <time>2021-05-05T12:44:14Z</time>
      </trkpt>
      <trkpt lat="38.213626" lon="-0.692744">
        <ele>41.055</ele>
        <time>2021-05-05T12:44:15Z</time>
      </trkpt>
      <trkpt lat="38.213603" lon="-0.692654">
        <ele>40.958</ele>
        <time>2021-05-05T12:44:17Z</time>
      </trkpt>
      <trkpt lat="38.213580" lon="-0.692545">
        <ele>41.188</ele>
        <time>2021-05-05T12:44:19Z</time>
      </trkpt>
      <trkpt lat="38.213550" lon="-0.692442">
        <ele>41.380</ele>
        <time>2021-05-05T12:44:21Z</time>
      </trkpt>
      <trkpt lat="38.213534" lon="-0.692372">
        <ele>41.387</ele>
        <time>2021-05-05T12:44:23Z</time>
      </trkpt>
      <trkpt lat="38.213513" lon="-0.692279">
        <ele>41.452</ele>
        <time>2021-05-05T12:44:24Z</time>
      </trkpt>
      <trkpt lat="38.213490" lon="-0.692166">
        <ele>41.361</ele>
        <time>2021-05-05T12:44:26Z</time>
      </trkpt>
      <trkpt lat="38.213476" lon="-0.692104">
        <ele>41.321</ele>
        <time>2021-05-05T12:44:28Z</time>
      </trkpt>
      <trkpt lat="38.213457" lon="-0.692037">
        <ele>41.213</ele>
        <time>2021-05-05T12:44:29Z</time>
      </trkpt>
      <trkpt lat="38.213442" lon="-0.691981">
        <ele>41.008</ele>
        <time>2021-05-05T12:44:30Z</time>
      </trkpt>
      <trkpt lat="38.213425" lon="-0.691916">
        <ele>41.063</ele>
        <time>2021-05-05T12:44:31Z</time>
      </trkpt>
      <trkpt lat="38.213399" lon="-0.691835">
        <ele>40.828</ele>
        <time>2021-05-05T12:44:33Z</time>
      </trkpt>
      <trkpt lat="38.213372" lon="-0.691734">
        <ele>40.688</ele>
        <time>2021-05-05T12:44:35Z</time>
      </trkpt>
      <trkpt lat="38.213341" lon="-0.691616">
        <ele>40.471</ele>
        <time>2021-05-05T12:44:37Z</time>
      </trkpt>
      <trkpt lat="38.213315" lon="-0.691503">
        <ele>40.571</ele>
        <time>2021-05-05T12:44:39Z</time>
      </trkpt>
      <trkpt lat="38.213307" lon="-0.691402">
        <ele>40.643</ele>
        <time>2021-05-05T12:44:40Z</time>
      </trkpt>
      <trkpt lat="38.213315" lon="-0.691336">
        <ele>40.980</ele>
        <time>2021-05-05T12:44:42Z</time>
      </trkpt>
      <trkpt lat="38.213281" lon="-0.691242">
        <ele>40.985</ele>
        <time>2021-05-05T12:44:44Z</time>
      </trkpt>
      <trkpt lat="38.213277" lon="-0.691139">
        <ele>40.929</ele>
        <time>2021-05-05T12:44:46Z</time>
      </trkpt>
      <trkpt lat="38.213279" lon="-0.691043">
        <ele>40.800</ele>
        <time>2021-05-05T12:44:48Z</time>
      </trkpt>
      <trkpt lat="38.213283" lon="-0.690947">
        <ele>40.720</ele>
        <time>2021-05-05T12:44:50Z</time>
      </trkpt>
      <trkpt lat="38.213288" lon="-0.690850">
        <ele>41.008</ele>
        <time>2021-05-05T12:44:52Z</time>
      </trkpt>
      <trkpt lat="38.213298" lon="-0.690744">
        <ele>40.829</ele>
        <time>2021-05-05T12:44:54Z</time>
      </trkpt>
      <trkpt lat="38.213308" lon="-0.690647">
        <ele>40.884</ele>
        <time>2021-05-05T12:44:56Z</time>
      </trkpt>
      <trkpt lat="38.213316" lon="-0.690540">
        <ele>40.794</ele>
        <time>2021-05-05T12:44:58Z</time>
      </trkpt>
      <trkpt lat="38.213323" lon="-0.690443">
        <ele>40.617</ele>
        <time>2021-05-05T12:45:00Z</time>
      </trkpt>
      <trkpt lat="38.213331" lon="-0.690342">
        <ele>40.817</ele>
        <time>2021-05-05T12:45:02Z</time>
      </trkpt>
      <trkpt lat="38.213342" lon="-0.690239">
        <ele>40.749</ele>
        <time>2021-05-05T12:45:04Z</time>
      </trkpt>
      <trkpt lat="38.213346" lon="-0.690182">
        <ele>40.726</ele>
        <time>2021-05-05T12:45:05Z</time>
      </trkpt>
      <trkpt lat="38.213355" lon="-0.690078">
        <ele>40.851</ele>
        <time>2021-05-05T12:45:07Z</time>
      </trkpt>
      <trkpt lat="38.213365" lon="-0.689967">
        <ele>40.958</ele>
        <time>2021-05-05T12:45:09Z</time>
      </trkpt>
      <trkpt lat="38.213375" lon="-0.689867">
        <ele>41.252</ele>
        <time>2021-05-05T12:45:11Z</time>
      </trkpt>
      <trkpt lat="38.213378" lon="-0.689774">
        <ele>41.317</ele>
        <time>2021-05-05T12:45:13Z</time>
      </trkpt>
      <trkpt lat="38.213382" lon="-0.689691">
        <ele>41.108</ele>
        <time>2021-05-05T12:45:15Z</time>
      </trkpt>
      <trkpt lat="38.213389" lon="-0.689602">
        <ele>40.982</ele>
        <time>2021-05-05T12:45:17Z</time>
      </trkpt>
      <trkpt lat="38.213398" lon="-0.689508">
        <ele>41.097</ele>
        <time>2021-05-05T12:45:19Z</time>
      </trkpt>
      <trkpt lat="38.213409" lon="-0.689418">
        <ele>41.187</ele>
        <time>2021-05-05T12:45:21Z</time>
      </trkpt>
      <trkpt lat="38.213419" lon="-0.689344">
        <ele>40.820</ele>
        <time>2021-05-05T12:45:23Z</time>
      </trkpt>
      <trkpt lat="38.213429" lon="-0.689249">
        <ele>40.770</ele>
        <time>2021-05-05T12:45:25Z</time>
      </trkpt>
      <trkpt lat="38.213441" lon="-0.689141">
        <ele>40.682</ele>
        <time>2021-05-05T12:45:27Z</time>
      </trkpt>
      <trkpt lat="38.213447" lon="-0.689055">
        <ele>40.829</ele>
        <time>2021-05-05T12:45:29Z</time>
      </trkpt>
      <trkpt lat="38.213455" lon="-0.688950">
        <ele>40.684</ele>
        <time>2021-05-05T12:45:31Z</time>
      </trkpt>
      <trkpt lat="38.213462" lon="-0.688859">
        <ele>40.344</ele>
        <time>2021-05-05T12:45:33Z</time>
      </trkpt>
      <trkpt lat="38.213472" lon="-0.688750">
        <ele>40.405</ele>
        <time>2021-05-05T12:45:35Z</time>
      </trkpt>
      <trkpt lat="38.213482" lon="-0.688651">
        <ele>40.315</ele>
        <time>2021-05-05T12:45:37Z</time>
      </trkpt>
      <trkpt lat="38.213497" lon="-0.688558">
        <ele>40.408</ele>
        <time>2021-05-05T12:45:39Z</time>
      </trkpt>
      <trkpt lat="38.213516" lon="-0.688469">
        <ele>40.351</ele>
        <time>2021-05-05T12:45:41Z</time>
      </trkpt>
      <trkpt lat="38.213528" lon="-0.688386">
        <ele>40.496</ele>
        <time>2021-05-05T12:45:43Z</time>
      </trkpt>
      <trkpt lat="38.213538" lon="-0.688314">
        <ele>40.536</ele>
        <time>2021-05-05T12:45:45Z</time>
      </trkpt>
      <trkpt lat="38.213547" lon="-0.688238">
        <ele>40.739</ele>
        <time>2021-05-05T12:45:47Z</time>
      </trkpt>
      <trkpt lat="38.213557" lon="-0.688160">
        <ele>40.529</ele>
        <time>2021-05-05T12:45:49Z</time>
      </trkpt>
      <trkpt lat="38.213553" lon="-0.688093">
        <ele>40.821</ele>
        <time>2021-05-05T12:45:51Z</time>
      </trkpt>
      <trkpt lat="38.213537" lon="-0.688021">
        <ele>40.918</ele>
        <time>2021-05-05T12:45:53Z</time>
      </trkpt>
      <trkpt lat="38.213534" lon="-0.687949">
        <ele>40.913</ele>
        <time>2021-05-05T12:45:55Z</time>
      </trkpt>
      <trkpt lat="38.213535" lon="-0.687873">
        <ele>41.092</ele>
        <time>2021-05-05T12:45:57Z</time>
      </trkpt>
      <trkpt lat="38.213543" lon="-0.687787">
        <ele>40.973</ele>
        <time>2021-05-05T12:45:59Z</time>
      </trkpt>
      <trkpt lat="38.213547" lon="-0.687712">
        <ele>40.820</ele>
        <time>2021-05-05T12:46:01Z</time>
      </trkpt>
      <trkpt lat="38.213549" lon="-0.687628">
        <ele>40.708</ele>
        <time>2021-05-05T12:46:03Z</time>
      </trkpt>
      <trkpt lat="38.213557" lon="-0.687538">
        <ele>40.736</ele>
        <time>2021-05-05T12:46:05Z</time>
      </trkpt>
      <trkpt lat="38.213568" lon="-0.687442">
        <ele>40.781</ele>
        <time>2021-05-05T12:46:07Z</time>
      </trkpt>
      <trkpt lat="38.213579" lon="-0.687355">
        <ele>40.811</ele>
        <time>2021-05-05T12:46:09Z</time>
      </trkpt>
      <trkpt lat="38.213584" lon="-0.687261">
        <ele>40.884</ele>
        <time>2021-05-05T12:46:11Z</time>
      </trkpt>
      <trkpt lat="38.213591" lon="-0.687167">
        <ele>40.934</ele>
        <time>2021-05-05T12:46:13Z</time>
      </trkpt>
      <trkpt lat="38.213598" lon="-0.687071">
        <ele>40.676</ele>
        <time>2021-05-05T12:46:15Z</time>
      </trkpt>
      <trkpt lat="38.213604" lon="-0.686970">
        <ele>40.383</ele>
        <time>2021-05-05T12:46:17Z</time>
      </trkpt>
      <trkpt lat="38.213611" lon="-0.686863">
        <ele>40.228</ele>
        <time>2021-05-05T12:46:19Z</time>
      </trkpt>
      <trkpt lat="38.213615" lon="-0.686766">
        <ele>40.288</ele>
        <time>2021-05-05T12:46:21Z</time>
      </trkpt>
      <trkpt lat="38.213620" lon="-0.686677">
        <ele>40.424</ele>
        <time>2021-05-05T12:46:23Z</time>
      </trkpt>
      <trkpt lat="38.213631" lon="-0.686587">
        <ele>40.426</ele>
        <time>2021-05-05T12:46:25Z</time>
      </trkpt>
      <trkpt lat="38.213644" lon="-0.686488">
        <ele>40.108</ele>
        <time>2021-05-05T12:46:27Z</time>
      </trkpt>
      <trkpt lat="38.213643" lon="-0.686396">
        <ele>40.255</ele>
        <time>2021-05-05T12:46:29Z</time>
      </trkpt>
      <trkpt lat="38.213651" lon="-0.686305">
        <ele>40.080</ele>
        <time>2021-05-05T12:46:31Z</time>
      </trkpt>
      <trkpt lat="38.213664" lon="-0.686204">
        <ele>40.050</ele>
        <time>2021-05-05T12:46:33Z</time>
      </trkpt>
      <trkpt lat="38.213682" lon="-0.686124">
        <ele>39.893</ele>
        <time>2021-05-05T12:46:35Z</time>
      </trkpt>
      <trkpt lat="38.213695" lon="-0.686037">
        <ele>39.753</ele>
        <time>2021-05-05T12:46:37Z</time>
      </trkpt>
      <trkpt lat="38.213707" lon="-0.685947">
        <ele>39.945</ele>
        <time>2021-05-05T12:46:39Z</time>
      </trkpt>
      <trkpt lat="38.213716" lon="-0.685856">
        <ele>40.072</ele>
        <time>2021-05-05T12:46:41Z</time>
      </trkpt>
      <trkpt lat="38.213721" lon="-0.685765">
        <ele>40.027</ele>
        <time>2021-05-05T12:46:43Z</time>
      </trkpt>
      <trkpt lat="38.213736" lon="-0.685689">
        <ele>40.127</ele>
        <time>2021-05-05T12:46:45Z</time>
      </trkpt>
      <trkpt lat="38.213766" lon="-0.685609">
        <ele>40.368</ele>
        <time>2021-05-05T12:46:47Z</time>
      </trkpt>
      <trkpt lat="38.213798" lon="-0.685535">
        <ele>40.414</ele>
        <time>2021-05-05T12:46:49Z</time>
      </trkpt>
      <trkpt lat="38.213837" lon="-0.685450">
        <ele>40.408</ele>
        <time>2021-05-05T12:46:51Z</time>
      </trkpt>
      <trkpt lat="38.213870" lon="-0.685373">
        <ele>40.419</ele>
        <time>2021-05-05T12:46:53Z</time>
      </trkpt>
      <trkpt lat="38.213914" lon="-0.685283">
        <ele>40.744</ele>
        <time>2021-05-05T12:46:55Z</time>
      </trkpt>
      <trkpt lat="38.213961" lon="-0.685202">
        <ele>41.054</ele>
        <time>2021-05-05T12:46:57Z</time>
      </trkpt>
      <trkpt lat="38.213990" lon="-0.685123">
        <ele>40.937</ele>
        <time>2021-05-05T12:46:59Z</time>
      </trkpt>
      <trkpt lat="38.214031" lon="-0.685039">
        <ele>41.167</ele>
        <time>2021-05-05T12:47:01Z</time>
      </trkpt>
      <trkpt lat="38.214073" lon="-0.684956">
        <ele>41.039</ele>
        <time>2021-05-05T12:47:03Z</time>
      </trkpt>
      <trkpt lat="38.214114" lon="-0.684863">
        <ele>41.176</ele>
        <time>2021-05-05T12:47:05Z</time>
      </trkpt>
      <trkpt lat="38.214149" lon="-0.684778">
        <ele>40.961</ele>
        <time>2021-05-05T12:47:07Z</time>
      </trkpt>
      <trkpt lat="38.214189" lon="-0.684689">
        <ele>40.693</ele>
        <time>2021-05-05T12:47:09Z</time>
      </trkpt>
      <trkpt lat="38.214220" lon="-0.684612">
        <ele>40.765</ele>
        <time>2021-05-05T12:47:11Z</time>
      </trkpt>
      <trkpt lat="38.214249" lon="-0.684539">
        <ele>40.421</ele>
        <time>2021-05-05T12:47:13Z</time>
      </trkpt>
      <trkpt lat="38.214278" lon="-0.684471">
        <ele>40.608</ele>
        <time>2021-05-05T12:47:15Z</time>
      </trkpt>
      <trkpt lat="38.214305" lon="-0.684414">
        <ele>40.556</ele>
        <time>2021-05-05T12:47:17Z</time>
      </trkpt>
      <trkpt lat="38.214332" lon="-0.684346">
        <ele>40.591</ele>
        <time>2021-05-05T12:47:19Z</time>
      </trkpt>
      <trkpt lat="38.214357" lon="-0.684288">
        <ele>40.451</ele>
        <time>2021-05-05T12:47:21Z</time>
      </trkpt>
      <trkpt lat="38.214381" lon="-0.684232">
        <ele>40.414</ele>
        <time>2021-05-05T12:47:23Z</time>
      </trkpt>
      <trkpt lat="38.214401" lon="-0.684173">
        <ele>40.254</ele>
        <time>2021-05-05T12:47:25Z</time>
      </trkpt>
      <trkpt lat="38.214406" lon="-0.684108">
        <ele>39.916</ele>
        <time>2021-05-05T12:47:28Z</time>
      </trkpt>
      <trkpt lat="38.214370" lon="-0.684070">
        <ele>39.983</ele>
        <time>2021-05-05T12:47:44Z</time>
      </trkpt>
      <trkpt lat="38.214303" lon="-0.684056">
        <ele>40.118</ele>
        <time>2021-05-05T12:47:47Z</time>
      </trkpt>
      <trkpt lat="38.214255" lon="-0.684038">
        <ele>40.195</ele>
        <time>2021-05-05T12:47:50Z</time>
      </trkpt>
      <trkpt lat="38.214201" lon="-0.684015">
        <ele>40.449</ele>
        <time>2021-05-05T12:47:53Z</time>
      </trkpt>
      <trkpt lat="38.214169" lon="-0.683940">
        <ele>40.223</ele>
        <time>2021-05-05T12:47:56Z</time>
      </trkpt>
      <trkpt lat="38.214170" lon="-0.683870">
        <ele>40.208</ele>
        <time>2021-05-05T12:47:58Z</time>
      </trkpt>
      <trkpt lat="38.214185" lon="-0.683804">
        <ele>40.086</ele>
        <time>2021-05-05T12:48:00Z</time>
      </trkpt>
      <trkpt lat="38.214204" lon="-0.683734">
        <ele>40.091</ele>
        <time>2021-05-05T12:48:02Z</time>
      </trkpt>
      <trkpt lat="38.214225" lon="-0.683675">
        <ele>40.161</ele>
        <time>2021-05-05T12:48:04Z</time>
      </trkpt>
      <trkpt lat="38.214242" lon="-0.683621">
        <ele>40.134</ele>
        <time>2021-05-05T12:48:06Z</time>
      </trkpt>
      <trkpt lat="38.214224" lon="-0.683483">
        <ele>76.864</ele>
        <time>2021-05-05T13:34:46Z</time>
      </trkpt>
      <trkpt lat="38.214255" lon="-0.683529">
        <ele>61.066</ele>
        <time>2021-05-05T13:35:20Z</time>
      </trkpt>
      <trkpt lat="38.214282" lon="-0.683476">
        <ele>44.573</ele>
        <time>2021-05-05T13:35:26Z</time>
      </trkpt>
      <trkpt lat="38.214283" lon="-0.683407">
        <ele>40.198</ele>
        <time>2021-05-05T13:35:28Z</time>
      </trkpt>
      <trkpt lat="38.214280" lon="-0.683330">
        <ele>40.163</ele>
        <time>2021-05-05T13:35:30Z</time>
      </trkpt>
      <trkpt lat="38.214293" lon="-0.683246">
        <ele>44.144</ele>
        <time>2021-05-05T13:35:33Z</time>
      </trkpt>
      <trkpt lat="38.214305" lon="-0.683189">
        <ele>48.118</ele>
        <time>2021-05-05T13:35:35Z</time>
      </trkpt>
      <trkpt lat="38.214313" lon="-0.683104">
        <ele>52.108</ele>
        <time>2021-05-05T13:35:37Z</time>
      </trkpt>
      <trkpt lat="38.214322" lon="-0.683027">
        <ele>56.123</ele>
        <time>2021-05-05T13:35:39Z</time>
      </trkpt>
      <trkpt lat="38.214333" lon="-0.682951">
        <ele>59.728</ele>
        <time>2021-05-05T13:35:42Z</time>
      </trkpt>
      <trkpt lat="38.214344" lon="-0.682887">
        <ele>60.748</ele>
        <time>2021-05-05T13:35:44Z</time>
      </trkpt>
      <trkpt lat="38.214354" lon="-0.682813">
        <ele>60.841</ele>
        <time>2021-05-05T13:35:46Z</time>
      </trkpt>
      <trkpt lat="38.214354" lon="-0.682747">
        <ele>60.591</ele>
        <time>2021-05-05T13:35:49Z</time>
      </trkpt>
      <trkpt lat="38.214363" lon="-0.682658">
        <ele>59.133</ele>
        <time>2021-05-05T13:35:52Z</time>
      </trkpt>
      <trkpt lat="38.214383" lon="-0.682583">
        <ele>58.030</ele>
        <time>2021-05-05T13:35:54Z</time>
      </trkpt>
      <trkpt lat="38.214399" lon="-0.682495">
        <ele>57.195</ele>
        <time>2021-05-05T13:35:56Z</time>
      </trkpt>
      <trkpt lat="38.214411" lon="-0.682419">
        <ele>57.096</ele>
        <time>2021-05-05T13:35:58Z</time>
      </trkpt>
      <trkpt lat="38.214428" lon="-0.682332">
        <ele>56.431</ele>
        <time>2021-05-05T13:36:01Z</time>
      </trkpt>
      <trkpt lat="38.214458" lon="-0.682286">
        <ele>55.024</ele>
        <time>2021-05-05T13:36:03Z</time>
      </trkpt>
      <trkpt lat="38.214502" lon="-0.682270">
        <ele>54.508</ele>
        <time>2021-05-05T13:36:05Z</time>
      </trkpt>
      <trkpt lat="38.214560" lon="-0.682280">
        <ele>53.936</ele>
        <time>2021-05-05T13:36:08Z</time>
      </trkpt>
      <trkpt lat="38.214611" lon="-0.682282">
        <ele>52.281</ele>
        <time>2021-05-05T13:36:10Z</time>
      </trkpt>
      <trkpt lat="38.214660" lon="-0.682291">
        <ele>51.331</ele>
        <time>2021-05-05T13:36:12Z</time>
      </trkpt>
      <trkpt lat="38.214718" lon="-0.682307">
        <ele>49.934</ele>
        <time>2021-05-05T13:36:14Z</time>
      </trkpt>
      <trkpt lat="38.214770" lon="-0.682322">
        <ele>49.344</ele>
        <time>2021-05-05T13:36:16Z</time>
      </trkpt>
      <trkpt lat="38.214815" lon="-0.682329">
        <ele>48.566</ele>
        <time>2021-05-05T13:36:18Z</time>
      </trkpt>
      <trkpt lat="38.214871" lon="-0.682324">
        <ele>47.663</ele>
        <time>2021-05-05T13:36:20Z</time>
      </trkpt>
      <trkpt lat="38.214904" lon="-0.682257">
        <ele>46.218</ele>
        <time>2021-05-05T13:36:22Z</time>
      </trkpt>
      <trkpt lat="38.214871" lon="-0.682201">
        <ele>45.135</ele>
        <time>2021-05-05T13:36:24Z</time>
      </trkpt>
      <trkpt lat="38.214813" lon="-0.682152">
        <ele>43.986</ele>
        <time>2021-05-05T13:36:26Z</time>
      </trkpt>
      <trkpt lat="38.214772" lon="-0.682105">
        <ele>42.414</ele>
        <time>2021-05-05T13:36:28Z</time>
      </trkpt>
      <trkpt lat="38.214809" lon="-0.682069">
        <ele>41.508</ele>
        <time>2021-05-05T13:36:31Z</time>
      </trkpt>
      <trkpt lat="38.214847" lon="-0.682110">
        <ele>40.610</ele>
        <time>2021-05-05T13:36:33Z</time>
      </trkpt>
      <trkpt lat="38.214887" lon="-0.682148">
        <ele>39.895</ele>
        <time>2021-05-05T13:36:35Z</time>
      </trkpt>
      <trkpt lat="38.214929" lon="-0.682186">
        <ele>39.775</ele>
        <time>2021-05-05T13:36:37Z</time>
      </trkpt>
      <trkpt lat="38.214970" lon="-0.682221">
        <ele>39.698</ele>
        <time>2021-05-05T13:36:39Z</time>
      </trkpt>
      <trkpt lat="38.215029" lon="-0.682205">
        <ele>39.528</ele>
        <time>2021-05-05T13:36:43Z</time>
      </trkpt>
      <trkpt lat="38.215051" lon="-0.682143">
        <ele>39.440</ele>
        <time>2021-05-05T13:36:45Z</time>
      </trkpt>
      <trkpt lat="38.215061" lon="-0.682064">
        <ele>39.687</ele>
        <time>2021-05-05T13:36:47Z</time>
      </trkpt>
      <trkpt lat="38.215074" lon="-0.681995">
        <ele>39.462</ele>
        <time>2021-05-05T13:36:49Z</time>
      </trkpt>
      <trkpt lat="38.215089" lon="-0.681918">
        <ele>39.467</ele>
        <time>2021-05-05T13:36:51Z</time>
      </trkpt>
      <trkpt lat="38.215098" lon="-0.681839">
        <ele>39.381</ele>
        <time>2021-05-05T13:36:53Z</time>
      </trkpt>
      <trkpt lat="38.215106" lon="-0.681768">
        <ele>39.119</ele>
        <time>2021-05-05T13:36:55Z</time>
      </trkpt>
      <trkpt lat="38.215115" lon="-0.681695">
        <ele>39.108</ele>
        <time>2021-05-05T13:36:57Z</time>
      </trkpt>
      <trkpt lat="38.215127" lon="-0.681624">
        <ele>38.823</ele>
        <time>2021-05-05T13:36:59Z</time>
      </trkpt>
      <trkpt lat="38.215141" lon="-0.681550">
        <ele>38.728</ele>
        <time>2021-05-05T13:37:01Z</time>
      </trkpt>
      <trkpt lat="38.215148" lon="-0.681466">
        <ele>38.458</ele>
        <time>2021-05-05T13:37:03Z</time>
      </trkpt>
      <trkpt lat="38.215160" lon="-0.681375">
        <ele>37.881</ele>
        <time>2021-05-05T13:37:05Z</time>
      </trkpt>
      <trkpt lat="38.215170" lon="-0.681294">
        <ele>37.841</ele>
        <time>2021-05-05T13:37:07Z</time>
      </trkpt>
      <trkpt lat="38.215181" lon="-0.681207">
        <ele>37.723</ele>
        <time>2021-05-05T13:37:09Z</time>
      </trkpt>
      <trkpt lat="38.215190" lon="-0.681117">
        <ele>37.550</ele>
        <time>2021-05-05T13:37:11Z</time>
      </trkpt>
      <trkpt lat="38.215205" lon="-0.681030">
        <ele>37.155</ele>
        <time>2021-05-05T13:37:13Z</time>
      </trkpt>
      <trkpt lat="38.215217" lon="-0.680954">
        <ele>36.841</ele>
        <time>2021-05-05T13:37:15Z</time>
      </trkpt>
      <trkpt lat="38.215232" lon="-0.680865">
        <ele>36.781</ele>
        <time>2021-05-05T13:37:17Z</time>
      </trkpt>
      <trkpt lat="38.215246" lon="-0.680782">
        <ele>36.309</ele>
        <time>2021-05-05T13:37:19Z</time>
      </trkpt>
      <trkpt lat="38.215263" lon="-0.680700">
        <ele>36.008</ele>
        <time>2021-05-05T13:37:21Z</time>
      </trkpt>
      <trkpt lat="38.215276" lon="-0.680621">
        <ele>35.911</ele>
        <time>2021-05-05T13:37:23Z</time>
      </trkpt>
      <trkpt lat="38.215288" lon="-0.680540">
        <ele>35.626</ele>
        <time>2021-05-05T13:37:25Z</time>
      </trkpt>
      <trkpt lat="38.215302" lon="-0.680459">
        <ele>35.416</ele>
        <time>2021-05-05T13:37:27Z</time>
      </trkpt>
      <trkpt lat="38.215315" lon="-0.680377">
        <ele>35.249</ele>
        <time>2021-05-05T13:37:29Z</time>
      </trkpt>
      <trkpt lat="38.215329" lon="-0.680292">
        <ele>35.159</ele>
        <time>2021-05-05T13:37:31Z</time>
      </trkpt>
      <trkpt lat="38.215342" lon="-0.680209">
        <ele>34.871</ele>
        <time>2021-05-05T13:37:33Z</time>
      </trkpt>
      <trkpt lat="38.215358" lon="-0.680118">
        <ele>34.528</ele>
        <time>2021-05-05T13:37:35Z</time>
      </trkpt>
      <trkpt lat="38.215367" lon="-0.680038">
        <ele>34.533</ele>
        <time>2021-05-05T13:37:37Z</time>
      </trkpt>
      <trkpt lat="38.215379" lon="-0.679957">
        <ele>34.733</ele>
        <time>2021-05-05T13:37:39Z</time>
      </trkpt>
      <trkpt lat="38.215393" lon="-0.679870">
        <ele>34.723</ele>
        <time>2021-05-05T13:37:41Z</time>
      </trkpt>
      <trkpt lat="38.215407" lon="-0.679801">
        <ele>35.115</ele>
        <time>2021-05-05T13:37:43Z</time>
      </trkpt>
      <trkpt lat="38.215421" lon="-0.679725">
        <ele>34.908</ele>
        <time>2021-05-05T13:37:45Z</time>
      </trkpt>
      <trkpt lat="38.215434" lon="-0.679650">
        <ele>34.960</ele>
        <time>2021-05-05T13:37:47Z</time>
      </trkpt>
      <trkpt lat="38.215446" lon="-0.679568">
        <ele>35.175</ele>
        <time>2021-05-05T13:37:49Z</time>
      </trkpt>
      <trkpt lat="38.215461" lon="-0.679482">
        <ele>35.055</ele>
        <time>2021-05-05T13:37:51Z</time>
      </trkpt>
      <trkpt lat="38.215478" lon="-0.679400">
        <ele>35.078</ele>
        <time>2021-05-05T13:37:53Z</time>
      </trkpt>
      <trkpt lat="38.215493" lon="-0.679318">
        <ele>34.648</ele>
        <time>2021-05-05T13:37:55Z</time>
      </trkpt>
      <trkpt lat="38.215510" lon="-0.679231">
        <ele>34.540</ele>
        <time>2021-05-05T13:37:57Z</time>
      </trkpt>
      <trkpt lat="38.215522" lon="-0.679150">
        <ele>34.517</ele>
        <time>2021-05-05T13:37:59Z</time>
      </trkpt>
      <trkpt lat="38.215533" lon="-0.679070">
        <ele>34.652</ele>
        <time>2021-05-05T13:38:01Z</time>
      </trkpt>
      <trkpt lat="38.215544" lon="-0.678977">
        <ele>35.065</ele>
        <time>2021-05-05T13:38:03Z</time>
      </trkpt>
      <trkpt lat="38.215554" lon="-0.678896">
        <ele>35.068</ele>
        <time>2021-05-05T13:38:05Z</time>
      </trkpt>
      <trkpt lat="38.215567" lon="-0.678810">
        <ele>35.214</ele>
        <time>2021-05-05T13:38:07Z</time>
      </trkpt>
      <trkpt lat="38.215576" lon="-0.678725">
        <ele>35.108</ele>
        <time>2021-05-05T13:38:09Z</time>
      </trkpt>
      <trkpt lat="38.215580" lon="-0.678641">
        <ele>35.163</ele>
        <time>2021-05-05T13:38:11Z</time>
      </trkpt>
      <trkpt lat="38.215583" lon="-0.678572">
        <ele>35.248</ele>
        <time>2021-05-05T13:38:13Z</time>
      </trkpt>
      <trkpt lat="38.215589" lon="-0.678493">
        <ele>35.388</ele>
        <time>2021-05-05T13:38:15Z</time>
      </trkpt>
      <trkpt lat="38.215591" lon="-0.678408">
        <ele>35.061</ele>
        <time>2021-05-05T13:38:17Z</time>
      </trkpt>
      <trkpt lat="38.215597" lon="-0.678331">
        <ele>35.171</ele>
        <time>2021-05-05T13:38:19Z</time>
      </trkpt>
      <trkpt lat="38.215603" lon="-0.678243">
        <ele>35.073</ele>
        <time>2021-05-05T13:38:21Z</time>
      </trkpt>
      <trkpt lat="38.215606" lon="-0.678161">
        <ele>34.810</ele>
        <time>2021-05-05T13:38:23Z</time>
      </trkpt>
      <trkpt lat="38.215613" lon="-0.678073">
        <ele>34.815</ele>
        <time>2021-05-05T13:38:25Z</time>
      </trkpt>
      <trkpt lat="38.215619" lon="-0.677994">
        <ele>34.721</ele>
        <time>2021-05-05T13:38:27Z</time>
      </trkpt>
      <trkpt lat="38.215627" lon="-0.677899">
        <ele>34.941</ele>
        <time>2021-05-05T13:38:29Z</time>
      </trkpt>
      <trkpt lat="38.215625" lon="-0.677812">
        <ele>34.805</ele>
        <time>2021-05-05T13:38:31Z</time>
      </trkpt>
      <trkpt lat="38.215624" lon="-0.677728">
        <ele>34.708</ele>
        <time>2021-05-05T13:38:33Z</time>
      </trkpt>
      <trkpt lat="38.215629" lon="-0.677643">
        <ele>34.529</ele>
        <time>2021-05-05T13:38:35Z</time>
      </trkpt>
      <trkpt lat="38.215634" lon="-0.677553">
        <ele>34.534</ele>
        <time>2021-05-05T13:38:37Z</time>
      </trkpt>
      <trkpt lat="38.215640" lon="-0.677465">
        <ele>34.784</ele>
        <time>2021-05-05T13:38:39Z</time>
      </trkpt>
      <trkpt lat="38.215641" lon="-0.677362">
        <ele>34.247</ele>
        <time>2021-05-05T13:38:41Z</time>
      </trkpt>
      <trkpt lat="38.215641" lon="-0.677269">
        <ele>34.037</ele>
        <time>2021-05-05T13:38:43Z</time>
      </trkpt>
      <trkpt lat="38.215645" lon="-0.677176">
        <ele>33.989</ele>
        <time>2021-05-05T13:38:45Z</time>
      </trkpt>
      <trkpt lat="38.215648" lon="-0.677085">
        <ele>34.016</ele>
        <time>2021-05-05T13:38:47Z</time>
      </trkpt>
      <trkpt lat="38.215654" lon="-0.676999">
        <ele>33.921</ele>
        <time>2021-05-05T13:38:49Z</time>
      </trkpt>
      <trkpt lat="38.215660" lon="-0.676913">
        <ele>33.697</ele>
        <time>2021-05-05T13:38:51Z</time>
      </trkpt>
      <trkpt lat="38.215665" lon="-0.676816">
        <ele>33.223</ele>
        <time>2021-05-05T13:38:53Z</time>
      </trkpt>
      <trkpt lat="38.215673" lon="-0.676733">
        <ele>33.225</ele>
        <time>2021-05-05T13:38:55Z</time>
      </trkpt>
      <trkpt lat="38.215684" lon="-0.676641">
        <ele>33.108</ele>
        <time>2021-05-05T13:38:57Z</time>
      </trkpt>
      <trkpt lat="38.215703" lon="-0.676552">
        <ele>33.256</ele>
        <time>2021-05-05T13:38:59Z</time>
      </trkpt>
      <trkpt lat="38.215728" lon="-0.676461">
        <ele>33.541</ele>
        <time>2021-05-05T13:39:01Z</time>
      </trkpt>
      <trkpt lat="38.215753" lon="-0.676366">
        <ele>33.321</ele>
        <time>2021-05-05T13:39:03Z</time>
      </trkpt>
      <trkpt lat="38.215777" lon="-0.676290">
        <ele>33.574</ele>
        <time>2021-05-05T13:39:05Z</time>
      </trkpt>
      <trkpt lat="38.215800" lon="-0.676204">
        <ele>33.664</ele>
        <time>2021-05-05T13:39:07Z</time>
      </trkpt>
      <trkpt lat="38.215827" lon="-0.676120">
        <ele>33.746</ele>
        <time>2021-05-05T13:39:09Z</time>
      </trkpt>
      <trkpt lat="38.215855" lon="-0.676026">
        <ele>33.783</ele>
        <time>2021-05-05T13:39:11Z</time>
      </trkpt>
      <trkpt lat="38.215881" lon="-0.675946">
        <ele>33.898</ele>
        <time>2021-05-05T13:39:13Z</time>
      </trkpt>
      <trkpt lat="38.215909" lon="-0.675864">
        <ele>33.864</ele>
        <time>2021-05-05T13:39:15Z</time>
      </trkpt>
      <trkpt lat="38.215936" lon="-0.675780">
        <ele>34.006</ele>
        <time>2021-05-05T13:39:17Z</time>
      </trkpt>
      <trkpt lat="38.215959" lon="-0.675700">
        <ele>34.116</ele>
        <time>2021-05-05T13:39:19Z</time>
      </trkpt>
      <trkpt lat="38.215982" lon="-0.675625">
        <ele>33.908</ele>
        <time>2021-05-05T13:39:21Z</time>
      </trkpt>
      <trkpt lat="38.216004" lon="-0.675537">
        <ele>34.093</ele>
        <time>2021-05-05T13:39:23Z</time>
      </trkpt>
      <trkpt lat="38.216032" lon="-0.675454">
        <ele>34.198</ele>
        <time>2021-05-05T13:39:25Z</time>
      </trkpt>
      <trkpt lat="38.216056" lon="-0.675378">
        <ele>34.038</ele>
        <time>2021-05-05T13:39:27Z</time>
      </trkpt>
      <trkpt lat="38.216084" lon="-0.675292">
        <ele>33.911</ele>
        <time>2021-05-05T13:39:29Z</time>
      </trkpt>
      <trkpt lat="38.216111" lon="-0.675210">
        <ele>34.151</ele>
        <time>2021-05-05T13:39:31Z</time>
      </trkpt>
      <trkpt lat="38.216140" lon="-0.675113">
        <ele>34.143</ele>
        <time>2021-05-05T13:39:33Z</time>
      </trkpt>
      <trkpt lat="38.216161" lon="-0.675029">
        <ele>33.860</ele>
        <time>2021-05-05T13:39:35Z</time>
      </trkpt>
      <trkpt lat="38.216185" lon="-0.674950">
        <ele>33.885</ele>
        <time>2021-05-05T13:39:37Z</time>
      </trkpt>
      <trkpt lat="38.216210" lon="-0.674869">
        <ele>33.896</ele>
        <time>2021-05-05T13:39:39Z</time>
      </trkpt>
      <trkpt lat="38.216236" lon="-0.674774">
        <ele>33.931</ele>
        <time>2021-05-05T13:39:41Z</time>
      </trkpt>
      <trkpt lat="38.216260" lon="-0.674686">
        <ele>33.924</ele>
        <time>2021-05-05T13:39:43Z</time>
      </trkpt>
      <trkpt lat="38.216285" lon="-0.674601">
        <ele>33.808</ele>
        <time>2021-05-05T13:39:45Z</time>
      </trkpt>
      <trkpt lat="38.216308" lon="-0.674519">
        <ele>33.716</ele>
        <time>2021-05-05T13:39:47Z</time>
      </trkpt>
      <trkpt lat="38.216333" lon="-0.674439">
        <ele>33.691</ele>
        <time>2021-05-05T13:39:49Z</time>
      </trkpt>
      <trkpt lat="38.216358" lon="-0.674345">
        <ele>33.561</ele>
        <time>2021-05-05T13:39:51Z</time>
      </trkpt>
      <trkpt lat="38.216378" lon="-0.674265">
        <ele>33.734</ele>
        <time>2021-05-05T13:39:53Z</time>
      </trkpt>
      <trkpt lat="38.216398" lon="-0.674168">
        <ele>33.874</ele>
        <time>2021-05-05T13:39:55Z</time>
      </trkpt>
      <trkpt lat="38.216407" lon="-0.674086">
        <ele>33.926</ele>
        <time>2021-05-05T13:39:57Z</time>
      </trkpt>
      <trkpt lat="38.216421" lon="-0.673997">
        <ele>33.863</ele>
        <time>2021-05-05T13:39:59Z</time>
      </trkpt>
      <trkpt lat="38.216432" lon="-0.673924">
        <ele>33.478</ele>
        <time>2021-05-05T13:40:01Z</time>
      </trkpt>
      <trkpt lat="38.216437" lon="-0.673857">
        <ele>33.238</ele>
        <time>2021-05-05T13:40:03Z</time>
      </trkpt>
      <trkpt lat="38.216440" lon="-0.673788">
        <ele>33.370</ele>
        <time>2021-05-05T13:40:07Z</time>
      </trkpt>
      <trkpt lat="38.216454" lon="-0.673729">
        <ele>33.417</ele>
        <time>2021-05-05T13:40:09Z</time>
      </trkpt>
      <trkpt lat="38.216474" lon="-0.673669">
        <ele>33.508</ele>
        <time>2021-05-05T13:40:11Z</time>
      </trkpt>
      <trkpt lat="38.216478" lon="-0.673598">
        <ele>33.510</ele>
        <time>2021-05-05T13:40:13Z</time>
      </trkpt>
      <trkpt lat="38.216482" lon="-0.673527">
        <ele>33.515</ele>
        <time>2021-05-05T13:40:15Z</time>
      </trkpt>
      <trkpt lat="38.216491" lon="-0.673451">
        <ele>33.645</ele>
        <time>2021-05-05T13:40:17Z</time>
      </trkpt>
      <trkpt lat="38.216499" lon="-0.673373">
        <ele>33.598</ele>
        <time>2021-05-05T13:40:19Z</time>
      </trkpt>
      <trkpt lat="38.216508" lon="-0.673291">
        <ele>33.868</ele>
        <time>2021-05-05T13:40:21Z</time>
      </trkpt>
      <trkpt lat="38.216521" lon="-0.673205">
        <ele>33.840</ele>
        <time>2021-05-05T13:40:23Z</time>
      </trkpt>
      <trkpt lat="38.216532" lon="-0.673141">
        <ele>33.817</ele>
        <time>2021-05-05T13:40:25Z</time>
      </trkpt>
      <trkpt lat="38.216545" lon="-0.673063">
        <ele>33.992</ele>
        <time>2021-05-05T13:40:26Z</time>
      </trkpt>
      <trkpt lat="38.216554" lon="-0.672988">
        <ele>34.357</ele>
        <time>2021-05-05T13:40:28Z</time>
      </trkpt>
      <trkpt lat="38.216566" lon="-0.672906">
        <ele>34.800</ele>
        <time>2021-05-05T13:40:30Z</time>
      </trkpt>
      <trkpt lat="38.216576" lon="-0.672836">
        <ele>34.820</ele>
        <time>2021-05-05T13:40:32Z</time>
      </trkpt>
      <trkpt lat="38.216585" lon="-0.672763">
        <ele>34.808</ele>
        <time>2021-05-05T13:40:34Z</time>
      </trkpt>
      <trkpt lat="38.216596" lon="-0.672681">
        <ele>34.942</ele>
        <time>2021-05-05T13:40:35Z</time>
      </trkpt>
      <trkpt lat="38.216607" lon="-0.672599">
        <ele>34.987</ele>
        <time>2021-05-05T13:40:37Z</time>
      </trkpt>
      <trkpt lat="38.216612" lon="-0.672536">
        <ele>35.027</ele>
        <time>2021-05-05T13:40:38Z</time>
      </trkpt>
      <trkpt lat="38.216631" lon="-0.672425">
        <ele>34.860</ele>
        <time>2021-05-05T13:40:41Z</time>
      </trkpt>
      <trkpt lat="38.216643" lon="-0.672341">
        <ele>34.760</ele>
        <time>2021-05-05T13:40:42Z</time>
      </trkpt>
      <trkpt lat="38.216657" lon="-0.672261">
        <ele>34.622</ele>
        <time>2021-05-05T13:40:44Z</time>
      </trkpt>
      <trkpt lat="38.216664" lon="-0.672200">
        <ele>34.829</ele>
        <time>2021-05-05T13:40:46Z</time>
      </trkpt>
      <trkpt lat="38.216674" lon="-0.672139">
        <ele>34.994</ele>
        <time>2021-05-05T13:40:47Z</time>
      </trkpt>
      <trkpt lat="38.216683" lon="-0.672066">
        <ele>34.956</ele>
        <time>2021-05-05T13:40:48Z</time>
      </trkpt>
      <trkpt lat="38.216689" lon="-0.672001">
        <ele>35.059</ele>
        <time>2021-05-05T13:40:50Z</time>
      </trkpt>
      <trkpt lat="38.216696" lon="-0.671935">
        <ele>34.714</ele>
        <time>2021-05-05T13:40:51Z</time>
      </trkpt>
      <trkpt lat="38.216709" lon="-0.671843">
        <ele>34.408</ele>
        <time>2021-05-05T13:40:53Z</time>
      </trkpt>
      <trkpt lat="38.216715" lon="-0.671783">
        <ele>34.362</ele>
        <time>2021-05-05T13:40:54Z</time>
      </trkpt>
      <trkpt lat="38.216725" lon="-0.671715">
        <ele>34.447</ele>
        <time>2021-05-05T13:40:56Z</time>
      </trkpt>
      <trkpt lat="38.216735" lon="-0.671651">
        <ele>34.477</ele>
        <time>2021-05-05T13:40:57Z</time>
      </trkpt>
      <trkpt lat="38.216749" lon="-0.671567">
        <ele>34.770</ele>
        <time>2021-05-05T13:40:59Z</time>
      </trkpt>
      <trkpt lat="38.216760" lon="-0.671496">
        <ele>34.550</ele>
        <time>2021-05-05T13:41:00Z</time>
      </trkpt>
      <trkpt lat="38.216771" lon="-0.671409">
        <ele>34.782</ele>
        <time>2021-05-05T13:41:02Z</time>
      </trkpt>
      <trkpt lat="38.216778" lon="-0.671326">
        <ele>34.459</ele>
        <time>2021-05-05T13:41:03Z</time>
      </trkpt>
      <trkpt lat="38.216788" lon="-0.671230">
        <ele>34.124</ele>
        <time>2021-05-05T13:41:06Z</time>
      </trkpt>
      <trkpt lat="38.216795" lon="-0.671154">
        <ele>34.032</ele>
        <time>2021-05-05T13:41:07Z</time>
      </trkpt>
      <trkpt lat="38.216808" lon="-0.671052">
        <ele>33.992</ele>
        <time>2021-05-05T13:41:09Z</time>
      </trkpt>
      <trkpt lat="38.216813" lon="-0.670994">
        <ele>34.011</ele>
        <time>2021-05-05T13:41:10Z</time>
      </trkpt>
      <trkpt lat="38.216825" lon="-0.670908">
        <ele>34.308</ele>
        <time>2021-05-05T13:41:12Z</time>
      </trkpt>
      <trkpt lat="38.216839" lon="-0.670822">
        <ele>34.140</ele>
        <time>2021-05-05T13:41:14Z</time>
      </trkpt>
      <trkpt lat="38.216855" lon="-0.670717">
        <ele>34.595</ele>
        <time>2021-05-05T13:41:16Z</time>
      </trkpt>
      <trkpt lat="38.216863" lon="-0.670649">
        <ele>34.475</ele>
        <time>2021-05-05T13:41:18Z</time>
      </trkpt>
      <trkpt lat="38.216875" lon="-0.670562">
        <ele>34.918</ele>
        <time>2021-05-05T13:41:19Z</time>
      </trkpt>
      <trkpt lat="38.216887" lon="-0.670472">
        <ele>34.968</ele>
        <time>2021-05-05T13:41:21Z</time>
      </trkpt>
      <trkpt lat="38.216896" lon="-0.670411">
        <ele>35.170</ele>
        <time>2021-05-05T13:41:22Z</time>
      </trkpt>
      <trkpt lat="38.216906" lon="-0.670348">
        <ele>35.077</ele>
        <time>2021-05-05T13:41:24Z</time>
      </trkpt>
      <trkpt lat="38.216917" lon="-0.670279">
        <ele>35.112</ele>
        <time>2021-05-05T13:41:25Z</time>
      </trkpt>
      <trkpt lat="38.216925" lon="-0.670217">
        <ele>35.232</ele>
        <time>2021-05-05T13:41:26Z</time>
      </trkpt>
      <trkpt lat="38.216938" lon="-0.670124">
        <ele>35.492</ele>
        <time>2021-05-05T13:41:28Z</time>
      </trkpt>
      <trkpt lat="38.216953" lon="-0.670045">
        <ele>35.311</ele>
        <time>2021-05-05T13:41:29Z</time>
      </trkpt>
      <trkpt lat="38.216963" lon="-0.669972">
        <ele>35.508</ele>
        <time>2021-05-05T13:41:31Z</time>
      </trkpt>
      <trkpt lat="38.216970" lon="-0.669891">
        <ele>35.640</ele>
        <time>2021-05-05T13:41:32Z</time>
      </trkpt>
      <trkpt lat="38.216976" lon="-0.669832">
        <ele>35.675</ele>
        <time>2021-05-05T13:41:34Z</time>
      </trkpt>
      <trkpt lat="38.216986" lon="-0.669741">
        <ele>35.785</ele>
        <time>2021-05-05T13:41:35Z</time>
      </trkpt>
      <trkpt lat="38.216995" lon="-0.669674">
        <ele>35.748</ele>
        <time>2021-05-05T13:41:37Z</time>
      </trkpt>
      <trkpt lat="38.217007" lon="-0.669591">
        <ele>35.678</ele>
        <time>2021-05-05T13:41:38Z</time>
      </trkpt>
      <trkpt lat="38.217016" lon="-0.669521">
        <ele>35.570</ele>
        <time>2021-05-05T13:41:40Z</time>
      </trkpt>
      <trkpt lat="38.217032" lon="-0.669427">
        <ele>35.637</ele>
        <time>2021-05-05T13:41:41Z</time>
      </trkpt>
      <trkpt lat="38.217042" lon="-0.669367">
        <ele>35.762</ele>
        <time>2021-05-05T13:41:42Z</time>
      </trkpt>
      <trkpt lat="38.217050" lon="-0.669283">
        <ele>35.584</ele>
        <time>2021-05-05T13:41:44Z</time>
      </trkpt>
      <trkpt lat="38.217058" lon="-0.669222">
        <ele>35.407</ele>
        <time>2021-05-05T13:41:45Z</time>
      </trkpt>
      <trkpt lat="38.217064" lon="-0.669145">
        <ele>35.317</ele>
        <time>2021-05-05T13:41:47Z</time>
      </trkpt>
      <trkpt lat="38.217074" lon="-0.669072">
        <ele>34.908</ele>
        <time>2021-05-05T13:41:49Z</time>
      </trkpt>
      <trkpt lat="38.217085" lon="-0.668997">
        <ele>34.885</ele>
        <time>2021-05-05T13:41:50Z</time>
      </trkpt>
      <trkpt lat="38.217092" lon="-0.668914">
        <ele>34.970</ele>
        <time>2021-05-05T13:41:52Z</time>
      </trkpt>
      <trkpt lat="38.217101" lon="-0.668853">
        <ele>34.860</ele>
        <time>2021-05-05T13:41:53Z</time>
      </trkpt>
      <trkpt lat="38.217110" lon="-0.668789">
        <ele>34.843</ele>
        <time>2021-05-05T13:41:54Z</time>
      </trkpt>
      <trkpt lat="38.217123" lon="-0.668707">
        <ele>34.853</ele>
        <time>2021-05-05T13:41:56Z</time>
      </trkpt>
      <trkpt lat="38.217133" lon="-0.668640">
        <ele>35.175</ele>
        <time>2021-05-05T13:41:57Z</time>
      </trkpt>
      <trkpt lat="38.217147" lon="-0.668527">
        <ele>35.362</ele>
        <time>2021-05-05T13:41:59Z</time>
      </trkpt>
      <trkpt lat="38.217155" lon="-0.668464">
        <ele>35.417</ele>
        <time>2021-05-05T13:42:01Z</time>
      </trkpt>
      <trkpt lat="38.217169" lon="-0.668391">
        <ele>35.597</ele>
        <time>2021-05-05T13:42:02Z</time>
      </trkpt>
      <trkpt lat="38.217178" lon="-0.668329">
        <ele>35.623</ele>
        <time>2021-05-05T13:42:03Z</time>
      </trkpt>
      <trkpt lat="38.217186" lon="-0.668263">
        <ele>35.625</ele>
        <time>2021-05-05T13:42:04Z</time>
      </trkpt>
      <trkpt lat="38.217199" lon="-0.668161">
        <ele>35.608</ele>
        <time>2021-05-05T13:42:06Z</time>
      </trkpt>
      <trkpt lat="38.217211" lon="-0.668049">
        <ele>35.316</ele>
        <time>2021-05-05T13:42:08Z</time>
      </trkpt>
      <trkpt lat="38.217221" lon="-0.667988">
        <ele>35.121</ele>
        <time>2021-05-05T13:42:09Z</time>
      </trkpt>
      <trkpt lat="38.217244" lon="-0.667894">
        <ele>35.171</ele>
        <time>2021-05-05T13:42:11Z</time>
      </trkpt>
      <trkpt lat="38.217266" lon="-0.667824">
        <ele>35.144</ele>
        <time>2021-05-05T13:42:12Z</time>
      </trkpt>
      <trkpt lat="38.217303" lon="-0.667722">
        <ele>35.364</ele>
        <time>2021-05-05T13:42:14Z</time>
      </trkpt>
      <trkpt lat="38.217330" lon="-0.667652">
        <ele>35.196</ele>
        <time>2021-05-05T13:42:16Z</time>
      </trkpt>
      <trkpt lat="38.217352" lon="-0.667584">
        <ele>34.963</ele>
        <time>2021-05-05T13:42:17Z</time>
      </trkpt>
      <trkpt lat="38.217374" lon="-0.667509">
        <ele>34.948</ele>
        <time>2021-05-05T13:42:19Z</time>
      </trkpt>
      <trkpt lat="38.217403" lon="-0.667433">
        <ele>35.097</ele>
        <time>2021-05-05T13:42:21Z</time>
      </trkpt>
      <trkpt lat="38.217428" lon="-0.667362">
        <ele>34.923</ele>
        <time>2021-05-05T13:42:23Z</time>
      </trkpt>
      <trkpt lat="38.217448" lon="-0.667307">
        <ele>34.825</ele>
        <time>2021-05-05T13:42:25Z</time>
      </trkpt>
      <trkpt lat="38.217473" lon="-0.667245">
        <ele>35.008</ele>
        <time>2021-05-05T13:42:26Z</time>
      </trkpt>
      <trkpt lat="38.217498" lon="-0.667180">
        <ele>35.296</ele>
        <time>2021-05-05T13:42:29Z</time>
      </trkpt>
      <trkpt lat="38.217527" lon="-0.667122">
        <ele>35.311</ele>
        <time>2021-05-05T13:42:31Z</time>
      </trkpt>
      <trkpt lat="38.217562" lon="-0.667057">
        <ele>35.141</ele>
        <time>2021-05-05T13:42:33Z</time>
      </trkpt>
      <trkpt lat="38.217594" lon="-0.666983">
        <ele>35.054</ele>
        <time>2021-05-05T13:42:35Z</time>
      </trkpt>
      <trkpt lat="38.217621" lon="-0.666905">
        <ele>34.814</ele>
        <time>2021-05-05T13:42:36Z</time>
      </trkpt>
      <trkpt lat="38.217638" lon="-0.666823">
        <ele>34.436</ele>
        <time>2021-05-05T13:42:38Z</time>
      </trkpt>
      <trkpt lat="38.217661" lon="-0.666738">
        <ele>34.243</ele>
        <time>2021-05-05T13:42:40Z</time>
      </trkpt>
      <trkpt lat="38.217688" lon="-0.666654">
        <ele>34.098</ele>
        <time>2021-05-05T13:42:42Z</time>
      </trkpt>
      <trkpt lat="38.217712" lon="-0.666582">
        <ele>34.053</ele>
        <time>2021-05-05T13:42:43Z</time>
      </trkpt>
      <trkpt lat="38.217731" lon="-0.666527">
        <ele>34.104</ele>
        <time>2021-05-05T13:42:44Z</time>
      </trkpt>
      <trkpt lat="38.217752" lon="-0.666462">
        <ele>33.714</ele>
        <time>2021-05-05T13:42:46Z</time>
      </trkpt>
      <trkpt lat="38.217783" lon="-0.666375">
        <ele>33.708</ele>
        <time>2021-05-05T13:42:47Z</time>
      </trkpt>
      <trkpt lat="38.217804" lon="-0.666319">
        <ele>33.822</ele>
        <time>2021-05-05T13:42:48Z</time>
      </trkpt>
      <trkpt lat="38.217836" lon="-0.666232">
        <ele>33.737</ele>
        <time>2021-05-05T13:42:50Z</time>
      </trkpt>
      <trkpt lat="38.217878" lon="-0.666131">
        <ele>33.457</ele>
        <time>2021-05-05T13:42:52Z</time>
      </trkpt>
      <trkpt lat="38.217913" lon="-0.666021">
        <ele>33.510</ele>
        <time>2021-05-05T13:42:55Z</time>
      </trkpt>
      <trkpt lat="38.217933" lon="-0.665944">
        <ele>33.880</ele>
        <time>2021-05-05T13:42:56Z</time>
      </trkpt>
      <trkpt lat="38.217967" lon="-0.665878">
        <ele>33.852</ele>
        <time>2021-05-05T13:42:58Z</time>
      </trkpt>
      <trkpt lat="38.217992" lon="-0.665808">
        <ele>33.859</ele>
        <time>2021-05-05T13:42:59Z</time>
      </trkpt>
      <trkpt lat="38.218017" lon="-0.665737">
        <ele>33.754</ele>
        <time>2021-05-05T13:43:01Z</time>
      </trkpt>
      <trkpt lat="38.218043" lon="-0.665666">
        <ele>33.821</ele>
        <time>2021-05-05T13:43:02Z</time>
      </trkpt>
      <trkpt lat="38.218063" lon="-0.665607">
        <ele>33.941</ele>
        <time>2021-05-05T13:43:03Z</time>
      </trkpt>
      <trkpt lat="38.218102" lon="-0.665521">
        <ele>33.905</ele>
        <time>2021-05-05T13:43:05Z</time>
      </trkpt>
      <trkpt lat="38.218142" lon="-0.665454">
        <ele>33.908</ele>
        <time>2021-05-05T13:43:07Z</time>
      </trkpt>
      <trkpt lat="38.218175" lon="-0.665397">
        <ele>34.049</ele>
        <time>2021-05-05T13:43:08Z</time>
      </trkpt>
      <trkpt lat="38.218208" lon="-0.665341">
        <ele>34.224</ele>
        <time>2021-05-05T13:43:10Z</time>
      </trkpt>
      <trkpt lat="38.218246" lon="-0.665279">
        <ele>34.384</ele>
        <time>2021-05-05T13:43:11Z</time>
      </trkpt>
      <trkpt lat="38.218298" lon="-0.665191">
        <ele>34.697</ele>
        <time>2021-05-05T13:43:13Z</time>
      </trkpt>
      <trkpt lat="38.218357" lon="-0.665097">
        <ele>34.817</ele>
        <time>2021-05-05T13:43:15Z</time>
      </trkpt>
      <trkpt lat="38.218416" lon="-0.665013">
        <ele>34.969</ele>
        <time>2021-05-05T13:43:16Z</time>
      </trkpt>
      <trkpt lat="38.218470" lon="-0.664946">
        <ele>35.046</ele>
        <time>2021-05-05T13:43:19Z</time>
      </trkpt>
      <trkpt lat="38.218521" lon="-0.664866">
        <ele>35.241</ele>
        <time>2021-05-05T13:43:20Z</time>
      </trkpt>
      <trkpt lat="38.218574" lon="-0.664775">
        <ele>34.845</ele>
        <time>2021-05-05T13:43:22Z</time>
      </trkpt>
      <trkpt lat="38.218615" lon="-0.664699">
        <ele>34.547</ele>
        <time>2021-05-05T13:43:24Z</time>
      </trkpt>
      <trkpt lat="38.218654" lon="-0.664643">
        <ele>34.811</ele>
        <time>2021-05-05T13:43:26Z</time>
      </trkpt>
      <trkpt lat="38.218690" lon="-0.664587">
        <ele>35.108</ele>
        <time>2021-05-05T13:43:27Z</time>
      </trkpt>
      <trkpt lat="38.218725" lon="-0.664538">
        <ele>35.131</ele>
        <time>2021-05-05T13:43:28Z</time>
      </trkpt>
      <trkpt lat="38.218759" lon="-0.664490">
        <ele>35.436</ele>
        <time>2021-05-05T13:43:29Z</time>
      </trkpt>
      <trkpt lat="38.218792" lon="-0.664437">
        <ele>35.396</ele>
        <time>2021-05-05T13:43:30Z</time>
      </trkpt>
      <trkpt lat="38.218841" lon="-0.664359">
        <ele>35.519</ele>
        <time>2021-05-05T13:43:32Z</time>
      </trkpt>
      <trkpt lat="38.218876" lon="-0.664310">
        <ele>35.769</ele>
        <time>2021-05-05T13:43:34Z</time>
      </trkpt>
      <trkpt lat="38.218924" lon="-0.664253">
        <ele>35.791</ele>
        <time>2021-05-05T13:43:35Z</time>
      </trkpt>
      <trkpt lat="38.218961" lon="-0.664205">
        <ele>35.728</ele>
        <time>2021-05-05T13:43:36Z</time>
      </trkpt>
      <trkpt lat="38.219009" lon="-0.664125">
        <ele>35.713</ele>
        <time>2021-05-05T13:43:38Z</time>
      </trkpt>
      <trkpt lat="38.219042" lon="-0.664076">
        <ele>35.739</ele>
        <time>2021-05-05T13:43:39Z</time>
      </trkpt>
      <trkpt lat="38.219079" lon="-0.664019">
        <ele>35.601</ele>
        <time>2021-05-05T13:43:40Z</time>
      </trkpt>
      <trkpt lat="38.219109" lon="-0.663972">
        <ele>35.421</ele>
        <time>2021-05-05T13:43:42Z</time>
      </trkpt>
      <trkpt lat="38.219147" lon="-0.663917">
        <ele>35.508</ele>
        <time>2021-05-05T13:43:43Z</time>
      </trkpt>
      <trkpt lat="38.219189" lon="-0.663855">
        <ele>35.430</ele>
        <time>2021-05-05T13:43:44Z</time>
      </trkpt>
      <trkpt lat="38.219231" lon="-0.663798">
        <ele>35.635</ele>
        <time>2021-05-05T13:43:46Z</time>
      </trkpt>
      <trkpt lat="38.219280" lon="-0.663728">
        <ele>35.725</ele>
        <time>2021-05-05T13:43:47Z</time>
      </trkpt>
      <trkpt lat="38.219331" lon="-0.663652">
        <ele>35.838</ele>
        <time>2021-05-05T13:43:49Z</time>
      </trkpt>
      <trkpt lat="38.219361" lon="-0.663606">
        <ele>35.938</ele>
        <time>2021-05-05T13:43:50Z</time>
      </trkpt>
      <trkpt lat="38.219391" lon="-0.663554">
        <ele>35.720</ele>
        <time>2021-05-05T13:43:52Z</time>
      </trkpt>
      <trkpt lat="38.219434" lon="-0.663495">
        <ele>35.687</ele>
        <time>2021-05-05T13:43:53Z</time>
      </trkpt>
      <trkpt lat="38.219491" lon="-0.663414">
        <ele>35.572</ele>
        <time>2021-05-05T13:43:55Z</time>
      </trkpt>
      <trkpt lat="38.219521" lon="-0.663371">
        <ele>35.576</ele>
        <time>2021-05-05T13:43:56Z</time>
      </trkpt>
      <trkpt lat="38.219554" lon="-0.663292">
        <ele>35.390</ele>
        <time>2021-05-05T13:43:57Z</time>
      </trkpt>
      <trkpt lat="38.219587" lon="-0.663241">
        <ele>34.919</ele>
        <time>2021-05-05T13:43:59Z</time>
      </trkpt>
      <trkpt lat="38.219641" lon="-0.663175">
        <ele>34.708</ele>
        <time>2021-05-05T13:44:00Z</time>
      </trkpt>
      <trkpt lat="38.219674" lon="-0.663129">
        <ele>34.784</ele>
        <time>2021-05-05T13:44:01Z</time>
      </trkpt>
      <trkpt lat="38.219719" lon="-0.663066">
        <ele>34.769</ele>
        <time>2021-05-05T13:44:03Z</time>
      </trkpt>
      <trkpt lat="38.219777" lon="-0.662987">
        <ele>34.859</ele>
        <time>2021-05-05T13:44:05Z</time>
      </trkpt>
      <trkpt lat="38.219808" lon="-0.662944">
        <ele>34.742</ele>
        <time>2021-05-05T13:44:06Z</time>
      </trkpt>
      <trkpt lat="38.219870" lon="-0.662858">
        <ele>35.032</ele>
        <time>2021-05-05T13:44:08Z</time>
      </trkpt>
      <trkpt lat="38.219928" lon="-0.662766">
        <ele>35.194</ele>
        <time>2021-05-05T13:44:10Z</time>
      </trkpt>
      <trkpt lat="38.219988" lon="-0.662675">
        <ele>35.011</ele>
        <time>2021-05-05T13:44:12Z</time>
      </trkpt>
      <trkpt lat="38.220021" lon="-0.662631">
        <ele>34.936</ele>
        <time>2021-05-05T13:44:13Z</time>
      </trkpt>
      <trkpt lat="38.220052" lon="-0.662586">
        <ele>34.619</ele>
        <time>2021-05-05T13:44:14Z</time>
      </trkpt>
      <trkpt lat="38.220113" lon="-0.662497">
        <ele>34.509</ele>
        <time>2021-05-05T13:44:16Z</time>
      </trkpt>
      <trkpt lat="38.220176" lon="-0.662412">
        <ele>34.419</ele>
        <time>2021-05-05T13:44:18Z</time>
      </trkpt>
      <trkpt lat="38.220206" lon="-0.662369">
        <ele>34.208</ele>
        <time>2021-05-05T13:44:19Z</time>
      </trkpt>
      <trkpt lat="38.220260" lon="-0.662285">
        <ele>34.528</ele>
        <time>2021-05-05T13:44:21Z</time>
      </trkpt>
      <trkpt lat="38.220290" lon="-0.662239">
        <ele>34.433</ele>
        <time>2021-05-05T13:44:22Z</time>
      </trkpt>
      <trkpt lat="38.220342" lon="-0.662162">
        <ele>34.283</ele>
        <time>2021-05-05T13:44:24Z</time>
      </trkpt>
      <trkpt lat="38.220388" lon="-0.662091">
        <ele>34.466</ele>
        <time>2021-05-05T13:44:25Z</time>
      </trkpt>
      <trkpt lat="38.220394" lon="-0.662024">
        <ele>34.396</ele>
        <time>2021-05-05T13:44:27Z</time>
      </trkpt>
      <trkpt lat="38.220480" lon="-0.661938">
        <ele>34.388</ele>
        <time>2021-05-05T13:44:29Z</time>
      </trkpt>
      <trkpt lat="38.220552" lon="-0.661850">
        <ele>34.345</ele>
        <time>2021-05-05T13:44:31Z</time>
      </trkpt>
      <trkpt lat="38.220617" lon="-0.661756">
        <ele>34.120</ele>
        <time>2021-05-05T13:44:33Z</time>
      </trkpt>
      <trkpt lat="38.220648" lon="-0.661713">
        <ele>33.812</ele>
        <time>2021-05-05T13:44:34Z</time>
      </trkpt>
      <trkpt lat="38.220708" lon="-0.661623">
        <ele>33.832</ele>
        <time>2021-05-05T13:44:36Z</time>
      </trkpt>
      <trkpt lat="38.220771" lon="-0.661533">
        <ele>33.705</ele>
        <time>2021-05-05T13:44:38Z</time>
      </trkpt>
      <trkpt lat="38.220803" lon="-0.661488">
        <ele>33.708</ele>
        <time>2021-05-05T13:44:39Z</time>
      </trkpt>
      <trkpt lat="38.220864" lon="-0.661396">
        <ele>33.838</ele>
        <time>2021-05-05T13:44:41Z</time>
      </trkpt>
      <trkpt lat="38.220923" lon="-0.661300">
        <ele>33.873</ele>
        <time>2021-05-05T13:44:43Z</time>
      </trkpt>
      <trkpt lat="38.220955" lon="-0.661253">
        <ele>34.023</ele>
        <time>2021-05-05T13:44:44Z</time>
      </trkpt>
      <trkpt lat="38.221016" lon="-0.661152">
        <ele>34.036</ele>
        <time>2021-05-05T13:44:46Z</time>
      </trkpt>
      <trkpt lat="38.221069" lon="-0.661044">
        <ele>33.716</ele>
        <time>2021-05-05T13:44:48Z</time>
      </trkpt>
      <trkpt lat="38.221092" lon="-0.660986">
        <ele>33.868</ele>
        <time>2021-05-05T13:44:49Z</time>
      </trkpt>
      <trkpt lat="38.221129" lon="-0.660869">
        <ele>34.185</ele>
        <time>2021-05-05T13:44:51Z</time>
      </trkpt>
      <trkpt lat="38.221155" lon="-0.660756">
        <ele>34.220</ele>
        <time>2021-05-05T13:44:53Z</time>
      </trkpt>
      <trkpt lat="38.221170" lon="-0.660660">
        <ele>34.462</ele>
        <time>2021-05-05T13:44:55Z</time>
      </trkpt>
      <trkpt lat="38.221185" lon="-0.660575">
        <ele>34.783</ele>
        <time>2021-05-05T13:44:57Z</time>
      </trkpt>
      <trkpt lat="38.221188" lon="-0.660509">
        <ele>34.911</ele>
        <time>2021-05-05T13:44:59Z</time>
      </trkpt>
      <trkpt lat="38.221207" lon="-0.660402">
        <ele>34.908</ele>
        <time>2021-05-05T13:45:01Z</time>
      </trkpt>
      <trkpt lat="38.221227" lon="-0.660299">
        <ele>34.893</ele>
        <time>2021-05-05T13:45:04Z</time>
      </trkpt>
      <trkpt lat="38.221242" lon="-0.660231">
        <ele>34.668</ele>
        <time>2021-05-05T13:45:05Z</time>
      </trkpt>
      <trkpt lat="38.221257" lon="-0.660160">
        <ele>34.368</ele>
        <time>2021-05-05T13:45:06Z</time>
      </trkpt>
      <trkpt lat="38.221271" lon="-0.660092">
        <ele>34.261</ele>
        <time>2021-05-05T13:45:07Z</time>
      </trkpt>
      <trkpt lat="38.221292" lon="-0.659995">
        <ele>34.011</ele>
        <time>2021-05-05T13:45:09Z</time>
      </trkpt>
      <trkpt lat="38.221309" lon="-0.659909">
        <ele>34.293</ele>
        <time>2021-05-05T13:45:11Z</time>
      </trkpt>
      <trkpt lat="38.221320" lon="-0.659845">
        <ele>34.290</ele>
        <time>2021-05-05T13:45:12Z</time>
      </trkpt>
      <trkpt lat="38.221331" lon="-0.659783">
        <ele>34.355</ele>
        <time>2021-05-05T13:45:13Z</time>
      </trkpt>
      <trkpt lat="38.221342" lon="-0.659714">
        <ele>34.249</ele>
        <time>2021-05-05T13:45:14Z</time>
      </trkpt>
      <trkpt lat="38.221358" lon="-0.659635">
        <ele>34.202</ele>
        <time>2021-05-05T13:45:16Z</time>
      </trkpt>
      <trkpt lat="38.221379" lon="-0.659549">
        <ele>34.222</ele>
        <time>2021-05-05T13:45:17Z</time>
      </trkpt>
      <trkpt lat="38.221397" lon="-0.659460">
        <ele>33.808</ele>
        <time>2021-05-05T13:45:19Z</time>
      </trkpt>
      <trkpt lat="38.221415" lon="-0.659369">
        <ele>33.731</ele>
        <time>2021-05-05T13:45:21Z</time>
      </trkpt>
      <trkpt lat="38.221428" lon="-0.659310">
        <ele>33.676</ele>
        <time>2021-05-05T13:45:22Z</time>
      </trkpt>
      <trkpt lat="38.221454" lon="-0.659210">
        <ele>33.856</ele>
        <time>2021-05-05T13:45:24Z</time>
      </trkpt>
      <trkpt lat="38.221482" lon="-0.659118">
        <ele>34.059</ele>
        <time>2021-05-05T13:45:26Z</time>
      </trkpt>
      <trkpt lat="38.221493" lon="-0.659061">
        <ele>34.199</ele>
        <time>2021-05-05T13:45:28Z</time>
      </trkpt>
      <trkpt lat="38.221516" lon="-0.658965">
        <ele>34.461</ele>
        <time>2021-05-05T13:45:30Z</time>
      </trkpt>
      <trkpt lat="38.221530" lon="-0.658871">
        <ele>34.668</ele>
        <time>2021-05-05T13:45:33Z</time>
      </trkpt>
      <trkpt lat="38.221543" lon="-0.658802">
        <ele>34.583</ele>
        <time>2021-05-05T13:45:34Z</time>
      </trkpt>
      <trkpt lat="38.221563" lon="-0.658725">
        <ele>34.444</ele>
        <time>2021-05-05T13:45:36Z</time>
      </trkpt>
      <trkpt lat="38.221579" lon="-0.658640">
        <ele>34.305</ele>
        <time>2021-05-05T13:45:38Z</time>
      </trkpt>
      <trkpt lat="38.221587" lon="-0.658583">
        <ele>34.115</ele>
        <time>2021-05-05T13:45:39Z</time>
      </trkpt>
      <trkpt lat="38.221597" lon="-0.658516">
        <ele>34.008</ele>
        <time>2021-05-05T13:45:41Z</time>
      </trkpt>
      <trkpt lat="38.221620" lon="-0.658411">
        <ele>34.071</ele>
        <time>2021-05-05T13:45:43Z</time>
      </trkpt>
      <trkpt lat="38.221645" lon="-0.658337">
        <ele>34.016</ele>
        <time>2021-05-05T13:45:44Z</time>
      </trkpt>
      <trkpt lat="38.221659" lon="-0.658277">
        <ele>34.076</ele>
        <time>2021-05-05T13:45:45Z</time>
      </trkpt>
      <trkpt lat="38.221678" lon="-0.658198">
        <ele>33.739</ele>
        <time>2021-05-05T13:45:47Z</time>
      </trkpt>
      <trkpt lat="38.221691" lon="-0.658127">
        <ele>33.669</ele>
        <time>2021-05-05T13:45:48Z</time>
      </trkpt>
      <trkpt lat="38.221698" lon="-0.658043">
        <ele>33.311</ele>
        <time>2021-05-05T13:45:50Z</time>
      </trkpt>
      <trkpt lat="38.221700" lon="-0.657978">
        <ele>32.918</ele>
        <time>2021-05-05T13:45:51Z</time>
      </trkpt>
      <trkpt lat="38.221704" lon="-0.657917">
        <ele>33.093</ele>
        <time>2021-05-05T13:45:52Z</time>
      </trkpt>
      <trkpt lat="38.221709" lon="-0.657836">
        <ele>32.913</ele>
        <time>2021-05-05T13:45:54Z</time>
      </trkpt>
      <trkpt lat="38.221706" lon="-0.657732">
        <ele>32.743</ele>
        <time>2021-05-05T13:45:55Z</time>
      </trkpt>
      <trkpt lat="38.221699" lon="-0.657658">
        <ele>32.507</ele>
        <time>2021-05-05T13:45:57Z</time>
      </trkpt>
      <trkpt lat="38.221673" lon="-0.657541">
        <ele>32.708</ele>
        <time>2021-05-05T13:45:59Z</time>
      </trkpt>
      <trkpt lat="38.221637" lon="-0.657432">
        <ele>32.758</ele>
        <time>2021-05-05T13:46:01Z</time>
      </trkpt>
      <trkpt lat="38.221640" lon="-0.657339">
        <ele>32.883</ele>
        <time>2021-05-05T13:46:03Z</time>
      </trkpt>
      <trkpt lat="38.221592" lon="-0.657240">
        <ele>32.983</ele>
        <time>2021-05-05T13:46:04Z</time>
      </trkpt>
      <trkpt lat="38.221568" lon="-0.657189">
        <ele>33.196</ele>
        <time>2021-05-05T13:46:06Z</time>
      </trkpt>
      <trkpt lat="38.221538" lon="-0.657116">
        <ele>33.026</ele>
        <time>2021-05-05T13:46:07Z</time>
      </trkpt>
      <trkpt lat="38.221512" lon="-0.657056">
        <ele>33.418</ele>
        <time>2021-05-05T13:46:08Z</time>
      </trkpt>
      <trkpt lat="38.221489" lon="-0.656998">
        <ele>33.585</ele>
        <time>2021-05-05T13:46:09Z</time>
      </trkpt>
      <trkpt lat="38.221460" lon="-0.656926">
        <ele>33.940</ele>
        <time>2021-05-05T13:46:11Z</time>
      </trkpt>
      <trkpt lat="38.221442" lon="-0.656871">
        <ele>34.065</ele>
        <time>2021-05-05T13:46:12Z</time>
      </trkpt>
      <trkpt lat="38.221405" lon="-0.656764">
        <ele>34.268</ele>
        <time>2021-05-05T13:46:14Z</time>
      </trkpt>
      <trkpt lat="38.221372" lon="-0.656652">
        <ele>34.514</ele>
        <time>2021-05-05T13:46:16Z</time>
      </trkpt>
      <trkpt lat="38.221361" lon="-0.656594">
        <ele>34.508</ele>
        <time>2021-05-05T13:46:17Z</time>
      </trkpt>
      <trkpt lat="38.221341" lon="-0.656514">
        <ele>34.673</ele>
        <time>2021-05-05T13:46:18Z</time>
      </trkpt>
      <trkpt lat="38.221332" lon="-0.656389">
        <ele>34.728</ele>
        <time>2021-05-05T13:46:21Z</time>
      </trkpt>
      <trkpt lat="38.221324" lon="-0.656312">
        <ele>34.878</ele>
        <time>2021-05-05T13:46:22Z</time>
      </trkpt>
      <trkpt lat="38.221316" lon="-0.656236">
        <ele>34.681</ele>
        <time>2021-05-05T13:46:23Z</time>
      </trkpt>
      <trkpt lat="38.221315" lon="-0.656144">
        <ele>34.821</ele>
        <time>2021-05-05T13:46:25Z</time>
      </trkpt>
      <trkpt lat="38.221309" lon="-0.656086">
        <ele>35.033</ele>
        <time>2021-05-05T13:46:26Z</time>
      </trkpt>
      <trkpt lat="38.221293" lon="-0.655968">
        <ele>35.120</ele>
        <time>2021-05-05T13:46:28Z</time>
      </trkpt>
      <trkpt lat="38.221285" lon="-0.655850">
        <ele>35.365</ele>
        <time>2021-05-05T13:46:30Z</time>
      </trkpt>
      <trkpt lat="38.221281" lon="-0.655790">
        <ele>35.332</ele>
        <time>2021-05-05T13:46:31Z</time>
      </trkpt>
      <trkpt lat="38.221278" lon="-0.655729">
        <ele>35.892</ele>
        <time>2021-05-05T13:46:32Z</time>
      </trkpt>
      <trkpt lat="38.221268" lon="-0.655610">
        <ele>35.811</ele>
        <time>2021-05-05T13:46:34Z</time>
      </trkpt>
      <trkpt lat="38.221258" lon="-0.655488">
        <ele>35.808</ele>
        <time>2021-05-05T13:46:36Z</time>
      </trkpt>
      <trkpt lat="38.221255" lon="-0.655428">
        <ele>35.880</ele>
        <time>2021-05-05T13:46:37Z</time>
      </trkpt>
      <trkpt lat="38.221247" lon="-0.655308">
        <ele>35.635</ele>
        <time>2021-05-05T13:46:39Z</time>
      </trkpt>
      <trkpt lat="38.221243" lon="-0.655247">
        <ele>35.765</ele>
        <time>2021-05-05T13:46:40Z</time>
      </trkpt>
      <trkpt lat="38.221230" lon="-0.655126">
        <ele>35.328</ele>
        <time>2021-05-05T13:46:42Z</time>
      </trkpt>
      <trkpt lat="38.221217" lon="-0.655034">
        <ele>35.348</ele>
        <time>2021-05-05T13:46:44Z</time>
      </trkpt>
      <trkpt lat="38.221206" lon="-0.654922">
        <ele>35.540</ele>
        <time>2021-05-05T13:46:46Z</time>
      </trkpt>
      <trkpt lat="38.221194" lon="-0.654808">
        <ele>35.297</ele>
        <time>2021-05-05T13:46:48Z</time>
      </trkpt>
      <trkpt lat="38.221185" lon="-0.654733">
        <ele>35.372</ele>
        <time>2021-05-05T13:46:49Z</time>
      </trkpt>
      <trkpt lat="38.221181" lon="-0.654655">
        <ele>35.518</ele>
        <time>2021-05-05T13:46:51Z</time>
      </trkpt>
      <trkpt lat="38.221178" lon="-0.654585">
        <ele>35.498</ele>
        <time>2021-05-05T13:46:52Z</time>
      </trkpt>
      <trkpt lat="38.221175" lon="-0.654518">
        <ele>35.217</ele>
        <time>2021-05-05T13:46:53Z</time>
      </trkpt>
      <trkpt lat="38.221175" lon="-0.654454">
        <ele>35.408</ele>
        <time>2021-05-05T13:46:54Z</time>
      </trkpt>
      <trkpt lat="38.221158" lon="-0.654332">
        <ele>35.438</ele>
        <time>2021-05-05T13:46:56Z</time>
      </trkpt>
      <trkpt lat="38.221154" lon="-0.654216">
        <ele>35.393</ele>
        <time>2021-05-05T13:46:58Z</time>
      </trkpt>
      <trkpt lat="38.221159" lon="-0.654098">
        <ele>35.123</ele>
        <time>2021-05-05T13:47:00Z</time>
      </trkpt>
      <trkpt lat="38.221171" lon="-0.653980">
        <ele>34.756</ele>
        <time>2021-05-05T13:47:02Z</time>
      </trkpt>
      <trkpt lat="38.221191" lon="-0.653865">
        <ele>34.946</ele>
        <time>2021-05-05T13:47:04Z</time>
      </trkpt>
      <trkpt lat="38.221205" lon="-0.653809">
        <ele>35.228</ele>
        <time>2021-05-05T13:47:05Z</time>
      </trkpt>
      <trkpt lat="38.221239" lon="-0.653700">
        <ele>34.725</ele>
        <time>2021-05-05T13:47:07Z</time>
      </trkpt>
      <trkpt lat="38.221285" lon="-0.653595">
        <ele>34.820</ele>
        <time>2021-05-05T13:47:09Z</time>
      </trkpt>
      <trkpt lat="38.221310" lon="-0.653544">
        <ele>34.625</ele>
        <time>2021-05-05T13:47:10Z</time>
      </trkpt>
      <trkpt lat="38.221334" lon="-0.653492">
        <ele>34.626</ele>
        <time>2021-05-05T13:47:11Z</time>
      </trkpt>
      <trkpt lat="38.221377" lon="-0.653387">
        <ele>34.608</ele>
        <time>2021-05-05T13:47:13Z</time>
      </trkpt>
      <trkpt lat="38.221400" lon="-0.653335">
        <ele>34.508</ele>
        <time>2021-05-05T13:47:14Z</time>
      </trkpt>
      <trkpt lat="38.221447" lon="-0.653229">
        <ele>34.689</ele>
        <time>2021-05-05T13:47:16Z</time>
      </trkpt>
      <trkpt lat="38.221472" lon="-0.653176">
        <ele>34.424</ele>
        <time>2021-05-05T13:47:17Z</time>
      </trkpt>
      <trkpt lat="38.221519" lon="-0.653068">
        <ele>34.324</ele>
        <time>2021-05-05T13:47:19Z</time>
      </trkpt>
      <trkpt lat="38.221543" lon="-0.653012">
        <ele>34.477</ele>
        <time>2021-05-05T13:47:20Z</time>
      </trkpt>
      <trkpt lat="38.221594" lon="-0.652900">
        <ele>34.667</ele>
        <time>2021-05-05T13:47:22Z</time>
      </trkpt>
      <trkpt lat="38.221620" lon="-0.652844">
        <ele>34.989</ele>
        <time>2021-05-05T13:47:23Z</time>
      </trkpt>
      <trkpt lat="38.221671" lon="-0.652732">
        <ele>34.966</ele>
        <time>2021-05-05T13:47:25Z</time>
      </trkpt>
      <trkpt lat="38.221697" lon="-0.652678">
        <ele>34.851</ele>
        <time>2021-05-05T13:47:26Z</time>
      </trkpt>
      <trkpt lat="38.221747" lon="-0.652565">
        <ele>34.514</ele>
        <time>2021-05-05T13:47:28Z</time>
      </trkpt>
      <trkpt lat="38.221793" lon="-0.652449">
        <ele>34.354</ele>
        <time>2021-05-05T13:47:30Z</time>
      </trkpt>
      <trkpt lat="38.221817" lon="-0.652390">
        <ele>34.309</ele>
        <time>2021-05-05T13:47:31Z</time>
      </trkpt>
      <trkpt lat="38.221843" lon="-0.652332">
        <ele>34.308</ele>
        <time>2021-05-05T13:47:32Z</time>
      </trkpt>
      <trkpt lat="38.221893" lon="-0.652227">
        <ele>34.288</ele>
        <time>2021-05-05T13:47:34Z</time>
      </trkpt>
      <trkpt lat="38.221916" lon="-0.652173">
        <ele>34.283</ele>
        <time>2021-05-05T13:47:35Z</time>
      </trkpt>
      <trkpt lat="38.221939" lon="-0.652120">
        <ele>34.013</ele>
        <time>2021-05-05T13:47:36Z</time>
      </trkpt>
      <trkpt lat="38.221989" lon="-0.652019">
        <ele>33.656</ele>
        <time>2021-05-05T13:47:38Z</time>
      </trkpt>
      <trkpt lat="38.222018" lon="-0.651972">
        <ele>33.786</ele>
        <time>2021-05-05T13:47:39Z</time>
      </trkpt>
      <trkpt lat="38.222040" lon="-0.651922">
        <ele>33.788</ele>
        <time>2021-05-05T13:47:40Z</time>
      </trkpt>
      <trkpt lat="38.222076" lon="-0.651844">
        <ele>33.745</ele>
        <time>2021-05-05T13:47:42Z</time>
      </trkpt>
      <trkpt lat="38.222100" lon="-0.651785">
        <ele>33.880</ele>
        <time>2021-05-05T13:47:43Z</time>
      </trkpt>
      <trkpt lat="38.222124" lon="-0.651728">
        <ele>34.019</ele>
        <time>2021-05-05T13:47:44Z</time>
      </trkpt>
      <trkpt lat="38.222149" lon="-0.651674">
        <ele>34.109</ele>
        <time>2021-05-05T13:47:45Z</time>
      </trkpt>
      <trkpt lat="38.222203" lon="-0.651575">
        <ele>34.119</ele>
        <time>2021-05-05T13:47:47Z</time>
      </trkpt>
      <trkpt lat="38.222256" lon="-0.651474">
        <ele>34.008</ele>
        <time>2021-05-05T13:47:49Z</time>
      </trkpt>
      <trkpt lat="38.222283" lon="-0.651425">
        <ele>34.138</ele>
        <time>2021-05-05T13:47:50Z</time>
      </trkpt>
      <trkpt lat="38.222335" lon="-0.651323">
        <ele>34.133</ele>
        <time>2021-05-05T13:47:52Z</time>
      </trkpt>
      <trkpt lat="38.222384" lon="-0.651218">
        <ele>34.423</ele>
        <time>2021-05-05T13:47:54Z</time>
      </trkpt>
      <trkpt lat="38.222433" lon="-0.651114">
        <ele>34.726</ele>
        <time>2021-05-05T13:47:56Z</time>
      </trkpt>
      <trkpt lat="38.222482" lon="-0.651012">
        <ele>34.686</ele>
        <time>2021-05-05T13:47:58Z</time>
      </trkpt>
      <trkpt lat="38.222532" lon="-0.650911">
        <ele>34.558</ele>
        <time>2021-05-05T13:48:00Z</time>
      </trkpt>
      <trkpt lat="38.222583" lon="-0.650808">
        <ele>34.635</ele>
        <time>2021-05-05T13:48:02Z</time>
      </trkpt>
      <trkpt lat="38.222631" lon="-0.650702">
        <ele>34.820</ele>
        <time>2021-05-05T13:48:04Z</time>
      </trkpt>
      <trkpt lat="38.222685" lon="-0.650597">
        <ele>35.135</ele>
        <time>2021-05-05T13:48:06Z</time>
      </trkpt>
      <trkpt lat="38.222736" lon="-0.650492">
        <ele>35.286</ele>
        <time>2021-05-05T13:48:08Z</time>
      </trkpt>
      <trkpt lat="38.222784" lon="-0.650387">
        <ele>35.314</ele>
        <time>2021-05-05T13:48:10Z</time>
      </trkpt>
      <trkpt lat="38.222832" lon="-0.650288">
        <ele>35.108</ele>
        <time>2021-05-05T13:48:12Z</time>
      </trkpt>
      <trkpt lat="38.222874" lon="-0.650206">
        <ele>34.870</ele>
        <time>2021-05-05T13:48:14Z</time>
      </trkpt>
      <trkpt lat="38.222898" lon="-0.650125">
        <ele>34.725</ele>
        <time>2021-05-05T13:48:16Z</time>
      </trkpt>
      <trkpt lat="38.222910" lon="-0.650042">
        <ele>34.525</ele>
        <time>2021-05-05T13:48:18Z</time>
      </trkpt>
      <trkpt lat="38.222913" lon="-0.649971">
        <ele>34.578</ele>
        <time>2021-05-05T13:48:20Z</time>
      </trkpt>
      <trkpt lat="38.222907" lon="-0.649901">
        <ele>34.928</ele>
        <time>2021-05-05T13:48:21Z</time>
      </trkpt>
      <trkpt lat="38.222918" lon="-0.649837">
        <ele>35.080</ele>
        <time>2021-05-05T13:48:23Z</time>
      </trkpt>
      <trkpt lat="38.222931" lon="-0.649740">
        <ele>34.947</ele>
        <time>2021-05-05T13:48:24Z</time>
      </trkpt>
      <trkpt lat="38.222937" lon="-0.649682">
        <ele>34.922</ele>
        <time>2021-05-05T13:48:25Z</time>
      </trkpt>
      <trkpt lat="38.222945" lon="-0.649570">
        <ele>35.216</ele>
        <time>2021-05-05T13:48:27Z</time>
      </trkpt>
      <trkpt lat="38.222949" lon="-0.649491">
        <ele>35.576</ele>
        <time>2021-05-05T13:48:29Z</time>
      </trkpt>
      <trkpt lat="38.222955" lon="-0.649423">
        <ele>35.313</ele>
        <time>2021-05-05T13:48:30Z</time>
      </trkpt>
      <trkpt lat="38.222961" lon="-0.649357">
        <ele>35.308</ele>
        <time>2021-05-05T13:48:31Z</time>
      </trkpt>
      <trkpt lat="38.222967" lon="-0.649278">
        <ele>35.148</ele>
        <time>2021-05-05T13:48:33Z</time>
      </trkpt>
      <trkpt lat="38.222980" lon="-0.649151">
        <ele>35.353</ele>
        <time>2021-05-05T13:48:35Z</time>
      </trkpt>
      <trkpt lat="38.222982" lon="-0.649036">
        <ele>35.423</ele>
        <time>2021-05-05T13:48:37Z</time>
      </trkpt>
      <trkpt lat="38.222991" lon="-0.648917">
        <ele>35.586</ele>
        <time>2021-05-05T13:48:39Z</time>
      </trkpt>
      <trkpt lat="38.223001" lon="-0.648798">
        <ele>35.436</ele>
        <time>2021-05-05T13:48:41Z</time>
      </trkpt>
      <trkpt lat="38.223005" lon="-0.648739">
        <ele>35.268</ele>
        <time>2021-05-05T13:48:42Z</time>
      </trkpt>
      <trkpt lat="38.223012" lon="-0.648621">
        <ele>35.495</ele>
        <time>2021-05-05T13:48:44Z</time>
      </trkpt>
      <trkpt lat="38.223017" lon="-0.648561">
        <ele>35.250</ele>
        <time>2021-05-05T13:48:45Z</time>
      </trkpt>
      <trkpt lat="38.223026" lon="-0.648440">
        <ele>35.452</ele>
        <time>2021-05-05T13:48:47Z</time>
      </trkpt>
      <trkpt lat="38.223046" lon="-0.648325">
        <ele>35.353</ele>
        <time>2021-05-05T13:48:49Z</time>
      </trkpt>
      <trkpt lat="38.223069" lon="-0.648235">
        <ele>35.408</ele>
        <time>2021-05-05T13:48:51Z</time>
      </trkpt>
      <trkpt lat="38.223074" lon="-0.648131">
        <ele>35.308</ele>
        <time>2021-05-05T13:48:53Z</time>
      </trkpt>
      <trkpt lat="38.223075" lon="-0.648036">
        <ele>35.042</ele>
        <time>2021-05-05T13:48:55Z</time>
      </trkpt>
      <trkpt lat="38.223090" lon="-0.647960">
        <ele>34.667</ele>
        <time>2021-05-05T13:48:56Z</time>
      </trkpt>
      <trkpt lat="38.223109" lon="-0.647855">
        <ele>34.567</ele>
        <time>2021-05-05T13:48:59Z</time>
      </trkpt>
      <trkpt lat="38.223123" lon="-0.647770">
        <ele>34.690</ele>
        <time>2021-05-05T13:49:00Z</time>
      </trkpt>
      <trkpt lat="38.223145" lon="-0.647698">
        <ele>34.620</ele>
        <time>2021-05-05T13:49:02Z</time>
      </trkpt>
      <trkpt lat="38.223183" lon="-0.647635">
        <ele>34.432</ele>
        <time>2021-05-05T13:49:04Z</time>
      </trkpt>
      <trkpt lat="38.223215" lon="-0.647572">
        <ele>34.569</ele>
        <time>2021-05-05T13:49:06Z</time>
      </trkpt>
      <trkpt lat="38.223237" lon="-0.647511">
        <ele>34.524</ele>
        <time>2021-05-05T13:49:09Z</time>
      </trkpt>
      <trkpt lat="38.223253" lon="-0.647456">
        <ele>34.685</ele>
        <time>2021-05-05T13:49:11Z</time>
      </trkpt>
      <trkpt lat="38.223283" lon="-0.647407">
        <ele>34.789</ele>
        <time>2021-05-05T13:49:12Z</time>
      </trkpt>
      <trkpt lat="38.223320" lon="-0.647351">
        <ele>34.917</ele>
        <time>2021-05-05T13:49:14Z</time>
      </trkpt>
      <trkpt lat="38.223359" lon="-0.647290">
        <ele>35.108</ele>
        <time>2021-05-05T13:49:16Z</time>
      </trkpt>
      <trkpt lat="38.223404" lon="-0.647230">
        <ele>35.365</ele>
        <time>2021-05-05T13:49:17Z</time>
      </trkpt>
      <trkpt lat="38.223452" lon="-0.647162">
        <ele>35.510</ele>
        <time>2021-05-05T13:49:19Z</time>
      </trkpt>
      <trkpt lat="38.223502" lon="-0.647082">
        <ele>35.780</ele>
        <time>2021-05-05T13:49:21Z</time>
      </trkpt>
      <trkpt lat="38.223539" lon="-0.647028">
        <ele>35.853</ele>
        <time>2021-05-05T13:49:23Z</time>
      </trkpt>
      <trkpt lat="38.223588" lon="-0.646977">
        <ele>36.263</ele>
        <time>2021-05-05T13:49:24Z</time>
      </trkpt>
      <trkpt lat="38.223623" lon="-0.646920">
        <ele>36.345</ele>
        <time>2021-05-05T13:49:26Z</time>
      </trkpt>
      <trkpt lat="38.223668" lon="-0.646855">
        <ele>36.242</ele>
        <time>2021-05-05T13:49:27Z</time>
      </trkpt>
      <trkpt lat="38.223720" lon="-0.646782">
        <ele>36.377</ele>
        <time>2021-05-05T13:49:30Z</time>
      </trkpt>
      <trkpt lat="38.223765" lon="-0.646714">
        <ele>36.429</ele>
        <time>2021-05-05T13:49:31Z</time>
      </trkpt>
      <trkpt lat="38.223804" lon="-0.646662">
        <ele>36.500</ele>
        <time>2021-05-05T13:49:32Z</time>
      </trkpt>
      <trkpt lat="38.223854" lon="-0.646599">
        <ele>36.420</ele>
        <time>2021-05-05T13:49:34Z</time>
      </trkpt>
      <trkpt lat="38.223893" lon="-0.646545">
        <ele>36.708</ele>
        <time>2021-05-05T13:49:35Z</time>
      </trkpt>
      <trkpt lat="38.223950" lon="-0.646477">
        <ele>36.629</ele>
        <time>2021-05-05T13:49:37Z</time>
      </trkpt>
      <trkpt lat="38.223990" lon="-0.646432">
        <ele>36.364</ele>
        <time>2021-05-05T13:49:38Z</time>
      </trkpt>
      <trkpt lat="38.224032" lon="-0.646361">
        <ele>36.184</ele>
        <time>2021-05-05T13:49:40Z</time>
      </trkpt>
      <trkpt lat="38.224073" lon="-0.646286">
        <ele>35.927</ele>
        <time>2021-05-05T13:49:42Z</time>
      </trkpt>
      <trkpt lat="38.224131" lon="-0.646189">
        <ele>35.747</ele>
        <time>2021-05-05T13:49:44Z</time>
      </trkpt>
      <trkpt lat="38.224160" lon="-0.646138">
        <ele>35.569</ele>
        <time>2021-05-05T13:49:45Z</time>
      </trkpt>
      <trkpt lat="38.224186" lon="-0.646088">
        <ele>35.796</ele>
        <time>2021-05-05T13:49:46Z</time>
      </trkpt>
      <trkpt lat="38.224214" lon="-0.645964">
        <ele>35.831</ele>
        <time>2021-05-05T13:49:49Z</time>
      </trkpt>
      <trkpt lat="38.224251" lon="-0.645844">
        <ele>35.639</ele>
        <time>2021-05-05T13:49:51Z</time>
      </trkpt>
      <trkpt lat="38.224281" lon="-0.645732">
        <ele>35.601</ele>
        <time>2021-05-05T13:49:53Z</time>
      </trkpt>
      <trkpt lat="38.224303" lon="-0.645648">
        <ele>35.621</ele>
        <time>2021-05-05T13:49:55Z</time>
      </trkpt>
      <trkpt lat="38.224315" lon="-0.645588">
        <ele>35.808</ele>
        <time>2021-05-05T13:49:56Z</time>
      </trkpt>
      <trkpt lat="38.224345" lon="-0.645465">
        <ele>36.070</ele>
        <time>2021-05-05T13:49:58Z</time>
      </trkpt>
      <trkpt lat="38.224360" lon="-0.645408">
        <ele>36.235</ele>
        <time>2021-05-05T13:49:59Z</time>
      </trkpt>
      <trkpt lat="38.224395" lon="-0.645299">
        <ele>36.185</ele>
        <time>2021-05-05T13:50:01Z</time>
      </trkpt>
      <trkpt lat="38.224414" lon="-0.645242">
        <ele>36.158</ele>
        <time>2021-05-05T13:50:02Z</time>
      </trkpt>
      <trkpt lat="38.224433" lon="-0.645185">
        <ele>36.318</ele>
        <time>2021-05-05T13:50:03Z</time>
      </trkpt>
      <trkpt lat="38.224454" lon="-0.645129">
        <ele>36.250</ele>
        <time>2021-05-05T13:50:04Z</time>
      </trkpt>
      <trkpt lat="38.224502" lon="-0.645018">
        <ele>35.837</ele>
        <time>2021-05-05T13:50:06Z</time>
      </trkpt>
      <trkpt lat="38.224562" lon="-0.644917">
        <ele>36.062</ele>
        <time>2021-05-05T13:50:08Z</time>
      </trkpt>
      <trkpt lat="38.224597" lon="-0.644869">
        <ele>36.116</ele>
        <time>2021-05-05T13:50:09Z</time>
      </trkpt>
      <trkpt lat="38.224675" lon="-0.644772">
        <ele>36.076</ele>
        <time>2021-05-05T13:50:11Z</time>
      </trkpt>
      <trkpt lat="38.224715" lon="-0.644722">
        <ele>35.813</ele>
        <time>2021-05-05T13:50:12Z</time>
      </trkpt>
      <trkpt lat="38.224795" lon="-0.644631">
        <ele>35.508</ele>
        <time>2021-05-05T13:50:14Z</time>
      </trkpt>
      <trkpt lat="38.224875" lon="-0.644548">
        <ele>35.758</ele>
        <time>2021-05-05T13:50:16Z</time>
      </trkpt>
      <trkpt lat="38.224950" lon="-0.644475">
        <ele>35.733</ele>
        <time>2021-05-05T13:50:18Z</time>
      </trkpt>
      <trkpt lat="38.225010" lon="-0.644425">
        <ele>35.863</ele>
        <time>2021-05-05T13:50:20Z</time>
      </trkpt>
      <trkpt lat="38.225058" lon="-0.644379">
        <ele>35.776</ele>
        <time>2021-05-05T13:50:22Z</time>
      </trkpt>
      <trkpt lat="38.225110" lon="-0.644320">
        <ele>35.696</ele>
        <time>2021-05-05T13:50:24Z</time>
      </trkpt>
      <trkpt lat="38.225157" lon="-0.644235">
        <ele>35.618</ele>
        <time>2021-05-05T13:50:26Z</time>
      </trkpt>
      <trkpt lat="38.225204" lon="-0.644198">
        <ele>35.545</ele>
        <time>2021-05-05T13:50:27Z</time>
      </trkpt>
      <trkpt lat="38.225265" lon="-0.644129">
        <ele>35.530</ele>
        <time>2021-05-05T13:50:29Z</time>
      </trkpt>
      <trkpt lat="38.225309" lon="-0.644078">
        <ele>35.597</ele>
        <time>2021-05-05T13:50:30Z</time>
      </trkpt>
      <trkpt lat="38.225360" lon="-0.644026">
        <ele>35.323</ele>
        <time>2021-05-05T13:50:32Z</time>
      </trkpt>
      <trkpt lat="38.225420" lon="-0.643968">
        <ele>35.225</ele>
        <time>2021-05-05T13:50:33Z</time>
      </trkpt>
      <trkpt lat="38.225477" lon="-0.643894">
        <ele>35.008</ele>
        <time>2021-05-05T13:50:35Z</time>
      </trkpt>
      <trkpt lat="38.225548" lon="-0.643797">
        <ele>34.996</ele>
        <time>2021-05-05T13:50:37Z</time>
      </trkpt>
      <trkpt lat="38.225624" lon="-0.643706">
        <ele>34.871</ele>
        <time>2021-05-05T13:50:39Z</time>
      </trkpt>
      <trkpt lat="38.225697" lon="-0.643628">
        <ele>34.881</ele>
        <time>2021-05-05T13:50:41Z</time>
      </trkpt>
      <trkpt lat="38.225768" lon="-0.643552">
        <ele>34.854</ele>
        <time>2021-05-05T13:50:43Z</time>
      </trkpt>
      <trkpt lat="38.225818" lon="-0.643537">
        <ele>34.834</ele>
        <time>2021-05-05T13:50:44Z</time>
      </trkpt>
      <trkpt lat="38.225855" lon="-0.643494">
        <ele>34.856</ele>
        <time>2021-05-05T13:50:45Z</time>
      </trkpt>
      <trkpt lat="38.225888" lon="-0.643441">
        <ele>34.913</ele>
        <time>2021-05-05T13:50:47Z</time>
      </trkpt>
      <trkpt lat="38.225937" lon="-0.643359">
        <ele>34.948</ele>
        <time>2021-05-05T13:50:48Z</time>
      </trkpt>
      <trkpt lat="38.225967" lon="-0.643302">
        <ele>35.066</ele>
        <time>2021-05-05T13:50:50Z</time>
      </trkpt>
      <trkpt lat="38.226007" lon="-0.643229">
        <ele>35.129</ele>
        <time>2021-05-05T13:50:51Z</time>
      </trkpt>
      <trkpt lat="38.226033" lon="-0.643174">
        <ele>35.321</ele>
        <time>2021-05-05T13:50:52Z</time>
      </trkpt>
      <trkpt lat="38.226067" lon="-0.643090">
        <ele>35.308</ele>
        <time>2021-05-05T13:50:54Z</time>
      </trkpt>
      <trkpt lat="38.226090" lon="-0.643036">
        <ele>35.743</ele>
        <time>2021-05-05T13:50:55Z</time>
      </trkpt>
      <trkpt lat="38.226110" lon="-0.642981">
        <ele>35.528</ele>
        <time>2021-05-05T13:50:56Z</time>
      </trkpt>
      <trkpt lat="38.226126" lon="-0.642923">
        <ele>35.628</ele>
        <time>2021-05-05T13:50:57Z</time>
      </trkpt>
      <trkpt lat="38.226133" lon="-0.642861">
        <ele>35.591</ele>
        <time>2021-05-05T13:50:58Z</time>
      </trkpt>
      <trkpt lat="38.226137" lon="-0.642736">
        <ele>35.211</ele>
        <time>2021-05-05T13:51:00Z</time>
      </trkpt>
      <trkpt lat="38.226137" lon="-0.642610">
        <ele>34.973</ele>
        <time>2021-05-05T13:51:02Z</time>
      </trkpt>
      <trkpt lat="38.226131" lon="-0.642482">
        <ele>34.720</ele>
        <time>2021-05-05T13:51:04Z</time>
      </trkpt>
      <trkpt lat="38.226115" lon="-0.642358">
        <ele>34.585</ele>
        <time>2021-05-05T13:51:06Z</time>
      </trkpt>
      <trkpt lat="38.226102" lon="-0.642297">
        <ele>34.756</ele>
        <time>2021-05-05T13:51:07Z</time>
      </trkpt>
      <trkpt lat="38.226089" lon="-0.642238">
        <ele>34.759</ele>
        <time>2021-05-05T13:51:08Z</time>
      </trkpt>
      <trkpt lat="38.226077" lon="-0.642178">
        <ele>34.614</ele>
        <time>2021-05-05T13:51:09Z</time>
      </trkpt>
      <trkpt lat="38.226049" lon="-0.642063">
        <ele>34.808</ele>
        <time>2021-05-05T13:51:11Z</time>
      </trkpt>
      <trkpt lat="38.226024" lon="-0.641947">
        <ele>35.012</ele>
        <time>2021-05-05T13:51:13Z</time>
      </trkpt>
      <trkpt lat="38.226011" lon="-0.641889">
        <ele>35.327</ele>
        <time>2021-05-05T13:51:14Z</time>
      </trkpt>
      <trkpt lat="38.225999" lon="-0.641832">
        <ele>35.557</ele>
        <time>2021-05-05T13:51:15Z</time>
      </trkpt>
      <trkpt lat="38.225975" lon="-0.641713">
        <ele>35.840</ele>
        <time>2021-05-05T13:51:17Z</time>
      </trkpt>
      <trkpt lat="38.225963" lon="-0.641651">
        <ele>35.730</ele>
        <time>2021-05-05T13:51:18Z</time>
      </trkpt>
      <trkpt lat="38.225941" lon="-0.641521">
        <ele>35.952</ele>
        <time>2021-05-05T13:51:20Z</time>
      </trkpt>
      <trkpt lat="38.225917" lon="-0.641405">
        <ele>36.119</ele>
        <time>2021-05-05T13:51:22Z</time>
      </trkpt>
      <trkpt lat="38.225894" lon="-0.641309">
        <ele>36.124</ele>
        <time>2021-05-05T13:51:24Z</time>
      </trkpt>
      <trkpt lat="38.225873" lon="-0.641216">
        <ele>36.369</ele>
        <time>2021-05-05T13:51:26Z</time>
      </trkpt>
      <trkpt lat="38.225848" lon="-0.641108">
        <ele>36.504</ele>
        <time>2021-05-05T13:51:28Z</time>
      </trkpt>
      <trkpt lat="38.225826" lon="-0.641016">
        <ele>36.524</ele>
        <time>2021-05-05T13:51:30Z</time>
      </trkpt>
      <trkpt lat="38.225785" lon="-0.640949">
        <ele>36.908</ele>
        <time>2021-05-05T13:51:31Z</time>
      </trkpt>
      <trkpt lat="38.225778" lon="-0.640886">
        <ele>36.913</ele>
        <time>2021-05-05T13:51:32Z</time>
      </trkpt>
      <trkpt lat="38.225767" lon="-0.640789">
        <ele>37.068</ele>
        <time>2021-05-05T13:51:35Z</time>
      </trkpt>
      <trkpt lat="38.225760" lon="-0.640705">
        <ele>36.868</ele>
        <time>2021-05-05T13:51:37Z</time>
      </trkpt>
      <trkpt lat="38.225755" lon="-0.640647">
        <ele>36.511</ele>
        <time>2021-05-05T13:51:38Z</time>
      </trkpt>
      <trkpt lat="38.225746" lon="-0.640591">
        <ele>36.211</ele>
        <time>2021-05-05T13:51:40Z</time>
      </trkpt>
      <trkpt lat="38.225730" lon="-0.640528">
        <ele>36.383</ele>
        <time>2021-05-05T13:51:42Z</time>
      </trkpt>
      <trkpt lat="38.225716" lon="-0.640473">
        <ele>36.330</ele>
        <time>2021-05-05T13:51:43Z</time>
      </trkpt>
      <trkpt lat="38.225701" lon="-0.640404">
        <ele>36.385</ele>
        <time>2021-05-05T13:51:45Z</time>
      </trkpt>
      <trkpt lat="38.225691" lon="-0.640334">
        <ele>36.486</ele>
        <time>2021-05-05T13:51:46Z</time>
      </trkpt>
      <trkpt lat="38.225681" lon="-0.640270">
        <ele>36.560</ele>
        <time>2021-05-05T13:51:48Z</time>
      </trkpt>
      <trkpt lat="38.225668" lon="-0.640181">
        <ele>37.026</ele>
        <time>2021-05-05T13:51:49Z</time>
      </trkpt>
      <trkpt lat="38.225653" lon="-0.640096">
        <ele>37.208</ele>
        <time>2021-05-05T13:51:51Z</time>
      </trkpt>
      <trkpt lat="38.225641" lon="-0.640039">
        <ele>37.475</ele>
        <time>2021-05-05T13:51:52Z</time>
      </trkpt>
      <trkpt lat="38.225615" lon="-0.639971">
        <ele>37.440</ele>
        <time>2021-05-05T13:51:54Z</time>
      </trkpt>
      <trkpt lat="38.225596" lon="-0.639915">
        <ele>37.420</ele>
        <time>2021-05-05T13:51:55Z</time>
      </trkpt>
      <trkpt lat="38.225583" lon="-0.639853">
        <ele>37.643</ele>
        <time>2021-05-05T13:51:56Z</time>
      </trkpt>
      <trkpt lat="38.225565" lon="-0.639754">
        <ele>37.963</ele>
        <time>2021-05-05T13:51:58Z</time>
      </trkpt>
      <trkpt lat="38.225547" lon="-0.639651">
        <ele>37.765</ele>
        <time>2021-05-05T13:52:00Z</time>
      </trkpt>
      <trkpt lat="38.225529" lon="-0.639581">
        <ele>37.992</ele>
        <time>2021-05-05T13:52:02Z</time>
      </trkpt>
      <trkpt lat="38.225515" lon="-0.639517">
        <ele>38.077</ele>
        <time>2021-05-05T13:52:03Z</time>
      </trkpt>
      <trkpt lat="38.225502" lon="-0.639453">
        <ele>38.154</ele>
        <time>2021-05-05T13:52:05Z</time>
      </trkpt>
      <trkpt lat="38.225494" lon="-0.639383">
        <ele>38.056</ele>
        <time>2021-05-05T13:52:06Z</time>
      </trkpt>
      <trkpt lat="38.225487" lon="-0.639297">
        <ele>37.711</ele>
        <time>2021-05-05T13:52:07Z</time>
      </trkpt>
      <trkpt lat="38.225458" lon="-0.639199">
        <ele>37.208</ele>
        <time>2021-05-05T13:52:09Z</time>
      </trkpt>
      <trkpt lat="38.225445" lon="-0.639114">
        <ele>36.852</ele>
        <time>2021-05-05T13:52:11Z</time>
      </trkpt>
      <trkpt lat="38.225440" lon="-0.639052">
        <ele>36.637</ele>
        <time>2021-05-05T13:52:12Z</time>
      </trkpt>
      <trkpt lat="38.225434" lon="-0.638937">
        <ele>36.647</ele>
        <time>2021-05-05T13:52:14Z</time>
      </trkpt>
      <trkpt lat="38.225429" lon="-0.638864">
        <ele>36.440</ele>
        <time>2021-05-05T13:52:15Z</time>
      </trkpt>
      <trkpt lat="38.225426" lon="-0.638806">
        <ele>36.390</ele>
        <time>2021-05-05T13:52:16Z</time>
      </trkpt>
      <trkpt lat="38.225426" lon="-0.638714">
        <ele>36.212</ele>
        <time>2021-05-05T13:52:18Z</time>
      </trkpt>
      <trkpt lat="38.225429" lon="-0.638646">
        <ele>35.999</ele>
        <time>2021-05-05T13:52:19Z</time>
      </trkpt>
      <trkpt lat="38.225437" lon="-0.638575">
        <ele>35.934</ele>
        <time>2021-05-05T13:52:20Z</time>
      </trkpt>
      <trkpt lat="38.225465" lon="-0.638501">
        <ele>35.693</ele>
        <time>2021-05-05T13:52:22Z</time>
      </trkpt>
      <trkpt lat="38.225485" lon="-0.638442">
        <ele>35.365</ele>
        <time>2021-05-05T13:52:23Z</time>
      </trkpt>
      <trkpt lat="38.225508" lon="-0.638371">
        <ele>35.321</ele>
        <time>2021-05-05T13:52:24Z</time>
      </trkpt>
      <trkpt lat="38.225535" lon="-0.638275">
        <ele>35.408</ele>
        <time>2021-05-05T13:52:26Z</time>
      </trkpt>
      <trkpt lat="38.225552" lon="-0.638211">
        <ele>35.026</ele>
        <time>2021-05-05T13:52:27Z</time>
      </trkpt>
      <trkpt lat="38.225580" lon="-0.638110">
        <ele>34.851</ele>
        <time>2021-05-05T13:52:29Z</time>
      </trkpt>
      <trkpt lat="38.225594" lon="-0.638050">
        <ele>34.551</ele>
        <time>2021-05-05T13:52:31Z</time>
      </trkpt>
      <trkpt lat="38.225629" lon="-0.637943">
        <ele>34.444</ele>
        <time>2021-05-05T13:52:33Z</time>
      </trkpt>
      <trkpt lat="38.225659" lon="-0.637833">
        <ele>34.244</ele>
        <time>2021-05-05T13:52:35Z</time>
      </trkpt>
      <trkpt lat="38.225688" lon="-0.637725">
        <ele>34.136</ele>
        <time>2021-05-05T13:52:37Z</time>
      </trkpt>
      <trkpt lat="38.225719" lon="-0.637613">
        <ele>34.133</ele>
        <time>2021-05-05T13:52:39Z</time>
      </trkpt>
      <trkpt lat="38.225735" lon="-0.637557">
        <ele>34.068</ele>
        <time>2021-05-05T13:52:40Z</time>
      </trkpt>
      <trkpt lat="38.225765" lon="-0.637448">
        <ele>33.994</ele>
        <time>2021-05-05T13:52:42Z</time>
      </trkpt>
      <trkpt lat="38.225795" lon="-0.637336">
        <ele>33.657</ele>
        <time>2021-05-05T13:52:44Z</time>
      </trkpt>
      <trkpt lat="38.225812" lon="-0.637281">
        <ele>33.622</ele>
        <time>2021-05-05T13:52:45Z</time>
      </trkpt>
      <trkpt lat="38.225843" lon="-0.637174">
        <ele>33.308</ele>
        <time>2021-05-05T13:52:47Z</time>
      </trkpt>
      <trkpt lat="38.225855" lon="-0.637117">
        <ele>33.396</ele>
        <time>2021-05-05T13:52:48Z</time>
      </trkpt>
      <trkpt lat="38.225867" lon="-0.637060">
        <ele>33.391</ele>
        <time>2021-05-05T13:52:49Z</time>
      </trkpt>
      <trkpt lat="38.225892" lon="-0.636945">
        <ele>33.591</ele>
        <time>2021-05-05T13:52:51Z</time>
      </trkpt>
      <trkpt lat="38.225907" lon="-0.636886">
        <ele>33.784</ele>
        <time>2021-05-05T13:52:52Z</time>
      </trkpt>
      <trkpt lat="38.225940" lon="-0.636771">
        <ele>33.994</ele>
        <time>2021-05-05T13:52:54Z</time>
      </trkpt>
      <trkpt lat="38.225957" lon="-0.636714">
        <ele>33.926</ele>
        <time>2021-05-05T13:52:55Z</time>
      </trkpt>
      <trkpt lat="38.225990" lon="-0.636601">
        <ele>34.043</ele>
        <time>2021-05-05T13:52:57Z</time>
      </trkpt>
      <trkpt lat="38.226022" lon="-0.636489">
        <ele>34.128</ele>
        <time>2021-05-05T13:52:59Z</time>
      </trkpt>
      <trkpt lat="38.226038" lon="-0.636433">
        <ele>34.045</ele>
        <time>2021-05-05T13:53:00Z</time>
      </trkpt>
      <trkpt lat="38.226071" lon="-0.636322">
        <ele>34.047</ele>
        <time>2021-05-05T13:53:02Z</time>
      </trkpt>
      <trkpt lat="38.226086" lon="-0.636267">
        <ele>34.311</ele>
        <time>2021-05-05T13:53:03Z</time>
      </trkpt>
      <trkpt lat="38.226117" lon="-0.636166">
        <ele>34.608</ele>
        <time>2021-05-05T13:53:05Z</time>
      </trkpt>
      <trkpt lat="38.226136" lon="-0.636110">
        <ele>34.751</ele>
        <time>2021-05-05T13:53:06Z</time>
      </trkpt>
      <trkpt lat="38.226152" lon="-0.636044">
        <ele>34.866</ele>
        <time>2021-05-05T13:53:08Z</time>
      </trkpt>
      <trkpt lat="38.226183" lon="-0.635923">
        <ele>34.736</ele>
        <time>2021-05-05T13:53:10Z</time>
      </trkpt>
      <trkpt lat="38.226201" lon="-0.635849">
        <ele>34.369</ele>
        <time>2021-05-05T13:53:11Z</time>
      </trkpt>
      <trkpt lat="38.226232" lon="-0.635723">
        <ele>34.589</ele>
        <time>2021-05-05T13:53:13Z</time>
      </trkpt>
      <trkpt lat="38.226247" lon="-0.635663">
        <ele>34.491</ele>
        <time>2021-05-05T13:53:14Z</time>
      </trkpt>
      <trkpt lat="38.226262" lon="-0.635603">
        <ele>34.348</ele>
        <time>2021-05-05T13:53:15Z</time>
      </trkpt>
      <trkpt lat="38.226288" lon="-0.635485">
        <ele>34.433</ele>
        <time>2021-05-05T13:53:17Z</time>
      </trkpt>
      <trkpt lat="38.226310" lon="-0.635373">
        <ele>34.596</ele>
        <time>2021-05-05T13:53:19Z</time>
      </trkpt>
      <trkpt lat="38.226323" lon="-0.635256">
        <ele>34.731</ele>
        <time>2021-05-05T13:53:21Z</time>
      </trkpt>
      <trkpt lat="38.226321" lon="-0.635137">
        <ele>34.224</ele>
        <time>2021-05-05T13:53:23Z</time>
      </trkpt>
      <trkpt lat="38.226314" lon="-0.635078">
        <ele>34.008</ele>
        <time>2021-05-05T13:53:24Z</time>
      </trkpt>
      <trkpt lat="38.226308" lon="-0.635019">
        <ele>33.696</ele>
        <time>2021-05-05T13:53:25Z</time>
      </trkpt>
      <trkpt lat="38.226294" lon="-0.634912">
        <ele>33.771</ele>
        <time>2021-05-05T13:53:27Z</time>
      </trkpt>
      <trkpt lat="38.226277" lon="-0.634801">
        <ele>33.681</ele>
        <time>2021-05-05T13:53:29Z</time>
      </trkpt>
      <trkpt lat="38.226262" lon="-0.634690">
        <ele>33.414</ele>
        <time>2021-05-05T13:53:31Z</time>
      </trkpt>
      <trkpt lat="38.226223" lon="-0.634610">
        <ele>33.224</ele>
        <time>2021-05-05T13:53:32Z</time>
      </trkpt>
      <trkpt lat="38.226204" lon="-0.634541">
        <ele>33.236</ele>
        <time>2021-05-05T13:53:33Z</time>
      </trkpt>
      <trkpt lat="38.226203" lon="-0.634467">
        <ele>33.433</ele>
        <time>2021-05-05T13:53:35Z</time>
      </trkpt>
      <trkpt lat="38.226198" lon="-0.634349">
        <ele>33.648</ele>
        <time>2021-05-05T13:53:37Z</time>
      </trkpt>
      <trkpt lat="38.226179" lon="-0.634230">
        <ele>33.947</ele>
        <time>2021-05-05T13:53:39Z</time>
      </trkpt>
      <trkpt lat="38.226169" lon="-0.634170">
        <ele>34.329</ele>
        <time>2021-05-05T13:53:40Z</time>
      </trkpt>
      <trkpt lat="38.226160" lon="-0.634108">
        <ele>34.221</ele>
        <time>2021-05-05T13:53:41Z</time>
      </trkpt>
      <trkpt lat="38.226139" lon="-0.633989">
        <ele>34.308</ele>
        <time>2021-05-05T13:53:43Z</time>
      </trkpt>
      <trkpt lat="38.226128" lon="-0.633930">
        <ele>34.581</ele>
        <time>2021-05-05T13:53:44Z</time>
      </trkpt>
      <trkpt lat="38.226107" lon="-0.633815">
        <ele>34.476</ele>
        <time>2021-05-05T13:53:46Z</time>
      </trkpt>
      <trkpt lat="38.226097" lon="-0.633756">
        <ele>34.396</ele>
        <time>2021-05-05T13:53:47Z</time>
      </trkpt>
      <trkpt lat="38.226080" lon="-0.633652">
        <ele>34.279</ele>
        <time>2021-05-05T13:53:49Z</time>
      </trkpt>
      <trkpt lat="38.226058" lon="-0.633535">
        <ele>34.389</ele>
        <time>2021-05-05T13:53:51Z</time>
      </trkpt>
      <trkpt lat="38.226037" lon="-0.633423">
        <ele>34.691</ele>
        <time>2021-05-05T13:53:53Z</time>
      </trkpt>
      <trkpt lat="38.226026" lon="-0.633366">
        <ele>34.618</ele>
        <time>2021-05-05T13:53:54Z</time>
      </trkpt>
      <trkpt lat="38.226016" lon="-0.633308">
        <ele>34.553</ele>
        <time>2021-05-05T13:53:55Z</time>
      </trkpt>
      <trkpt lat="38.225993" lon="-0.633192">
        <ele>34.697</ele>
        <time>2021-05-05T13:53:57Z</time>
      </trkpt>
      <trkpt lat="38.225985" lon="-0.633133">
        <ele>34.723</ele>
        <time>2021-05-05T13:53:58Z</time>
      </trkpt>
      <trkpt lat="38.225978" lon="-0.633075">
        <ele>34.925</ele>
        <time>2021-05-05T13:53:59Z</time>
      </trkpt>
      <trkpt lat="38.225968" lon="-0.633018">
        <ele>34.808</ele>
        <time>2021-05-05T13:54:00Z</time>
      </trkpt>
      <trkpt lat="38.225942" lon="-0.632908">
        <ele>34.986</ele>
        <time>2021-05-05T13:54:02Z</time>
      </trkpt>
      <trkpt lat="38.225926" lon="-0.632810">
        <ele>35.081</ele>
        <time>2021-05-05T13:54:04Z</time>
      </trkpt>
      <trkpt lat="38.225918" lon="-0.632750">
        <ele>35.191</ele>
        <time>2021-05-05T13:54:05Z</time>
      </trkpt>
      <trkpt lat="38.225907" lon="-0.632663">
        <ele>35.344</ele>
        <time>2021-05-05T13:54:07Z</time>
      </trkpt>
      <trkpt lat="38.225899" lon="-0.632558">
        <ele>35.374</ele>
        <time>2021-05-05T13:54:09Z</time>
      </trkpt>
      <trkpt lat="38.225892" lon="-0.632462">
        <ele>35.256</ele>
        <time>2021-05-05T13:54:10Z</time>
      </trkpt>
      <trkpt lat="38.225861" lon="-0.632376">
        <ele>35.063</ele>
        <time>2021-05-05T13:54:12Z</time>
      </trkpt>
      <trkpt lat="38.225838" lon="-0.632260">
        <ele>34.858</ele>
        <time>2021-05-05T13:54:14Z</time>
      </trkpt>
      <trkpt lat="38.225835" lon="-0.632197">
        <ele>34.647</ele>
        <time>2021-05-05T13:54:16Z</time>
      </trkpt>
      <trkpt lat="38.225820" lon="-0.632127">
        <ele>34.629</ele>
        <time>2021-05-05T13:54:17Z</time>
      </trkpt>
      <trkpt lat="38.225792" lon="-0.631989">
        <ele>34.521</ele>
        <time>2021-05-05T13:54:19Z</time>
      </trkpt>
      <trkpt lat="38.225782" lon="-0.631924">
        <ele>34.608</ele>
        <time>2021-05-05T13:54:20Z</time>
      </trkpt>
      <trkpt lat="38.225764" lon="-0.631801">
        <ele>34.771</ele>
        <time>2021-05-05T13:54:22Z</time>
      </trkpt>
      <trkpt lat="38.225754" lon="-0.631741">
        <ele>34.646</ele>
        <time>2021-05-05T13:54:23Z</time>
      </trkpt>
      <trkpt lat="38.225751" lon="-0.631637">
        <ele>34.646</ele>
        <time>2021-05-05T13:54:25Z</time>
      </trkpt>
      <trkpt lat="38.225760" lon="-0.631577">
        <ele>34.899</ele>
        <time>2021-05-05T13:54:26Z</time>
      </trkpt>
      <trkpt lat="38.225738" lon="-0.631516">
        <ele>34.669</ele>
        <time>2021-05-05T13:54:27Z</time>
      </trkpt>
      <trkpt lat="38.225716" lon="-0.631461">
        <ele>34.641</ele>
        <time>2021-05-05T13:54:28Z</time>
      </trkpt>
      <trkpt lat="38.225685" lon="-0.631370">
        <ele>34.868</ele>
        <time>2021-05-05T13:54:31Z</time>
      </trkpt>
      <trkpt lat="38.225669" lon="-0.631308">
        <ele>34.873</ele>
        <time>2021-05-05T13:54:32Z</time>
      </trkpt>
      <trkpt lat="38.225660" lon="-0.631237">
        <ele>35.033</ele>
        <time>2021-05-05T13:54:34Z</time>
      </trkpt>
      <trkpt lat="38.225651" lon="-0.631155">
        <ele>34.923</ele>
        <time>2021-05-05T13:54:37Z</time>
      </trkpt>
      <trkpt lat="38.225641" lon="-0.631085">
        <ele>35.215</ele>
        <time>2021-05-05T13:54:39Z</time>
      </trkpt>
      <trkpt lat="38.225623" lon="-0.631023">
        <ele>35.208</ele>
        <time>2021-05-05T13:54:41Z</time>
      </trkpt>
      <trkpt lat="38.225607" lon="-0.630957">
        <ele>35.260</ele>
        <time>2021-05-05T13:54:42Z</time>
      </trkpt>
      <trkpt lat="38.225590" lon="-0.630867">
        <ele>34.955</ele>
        <time>2021-05-05T13:54:44Z</time>
      </trkpt>
      <trkpt lat="38.225580" lon="-0.630808">
        <ele>34.855</ele>
        <time>2021-05-05T13:54:45Z</time>
      </trkpt>
      <trkpt lat="38.225566" lon="-0.630739">
        <ele>34.598</ele>
        <time>2021-05-05T13:54:47Z</time>
      </trkpt>
      <trkpt lat="38.225553" lon="-0.630680">
        <ele>34.248</ele>
        <time>2021-05-05T13:54:48Z</time>
      </trkpt>
      <trkpt lat="38.225533" lon="-0.630569">
        <ele>34.160</ele>
        <time>2021-05-05T13:54:51Z</time>
      </trkpt>
      <trkpt lat="38.225512" lon="-0.630468">
        <ele>34.077</ele>
        <time>2021-05-05T13:54:53Z</time>
      </trkpt>
      <trkpt lat="38.225490" lon="-0.630376">
        <ele>34.082</ele>
        <time>2021-05-05T13:54:54Z</time>
      </trkpt>
      <trkpt lat="38.225465" lon="-0.630260">
        <ele>34.042</ele>
        <time>2021-05-05T13:54:57Z</time>
      </trkpt>
      <trkpt lat="38.225448" lon="-0.630144">
        <ele>33.922</ele>
        <time>2021-05-05T13:54:59Z</time>
      </trkpt>
      <trkpt lat="38.225432" lon="-0.630051">
        <ele>33.814</ele>
        <time>2021-05-05T13:55:00Z</time>
      </trkpt>
      <trkpt lat="38.225415" lon="-0.629947">
        <ele>33.808</ele>
        <time>2021-05-05T13:55:02Z</time>
      </trkpt>
      <trkpt lat="38.225400" lon="-0.629863">
        <ele>33.661</ele>
        <time>2021-05-05T13:55:04Z</time>
      </trkpt>
      <trkpt lat="38.225385" lon="-0.629772">
        <ele>33.596</ele>
        <time>2021-05-05T13:55:06Z</time>
      </trkpt>
      <trkpt lat="38.225372" lon="-0.629683">
        <ele>33.656</ele>
        <time>2021-05-05T13:55:07Z</time>
      </trkpt>
      <trkpt lat="38.225353" lon="-0.629554">
        <ele>33.699</ele>
        <time>2021-05-05T13:55:10Z</time>
      </trkpt>
      <trkpt lat="38.225340" lon="-0.629497">
        <ele>33.819</ele>
        <time>2021-05-05T13:55:11Z</time>
      </trkpt>
      <trkpt lat="38.225328" lon="-0.629439">
        <ele>33.951</ele>
        <time>2021-05-05T13:55:12Z</time>
      </trkpt>
      <trkpt lat="38.225317" lon="-0.629380">
        <ele>34.158</ele>
        <time>2021-05-05T13:55:13Z</time>
      </trkpt>
      <trkpt lat="38.225300" lon="-0.629267">
        <ele>34.243</ele>
        <time>2021-05-05T13:55:15Z</time>
      </trkpt>
      <trkpt lat="38.225285" lon="-0.629175">
        <ele>34.279</ele>
        <time>2021-05-05T13:55:16Z</time>
      </trkpt>
      <trkpt lat="38.225279" lon="-0.629098">
        <ele>33.905</ele>
        <time>2021-05-05T13:55:18Z</time>
      </trkpt>
      <trkpt lat="38.225274" lon="-0.628983">
        <ele>33.925</ele>
        <time>2021-05-05T13:55:20Z</time>
      </trkpt>
      <trkpt lat="38.225270" lon="-0.628894">
        <ele>33.508</ele>
        <time>2021-05-05T13:55:22Z</time>
      </trkpt>
      <trkpt lat="38.225268" lon="-0.628823">
        <ele>33.464</ele>
        <time>2021-05-05T13:55:23Z</time>
      </trkpt>
      <trkpt lat="38.225286" lon="-0.628742">
        <ele>33.149</ele>
        <time>2021-05-05T13:55:24Z</time>
      </trkpt>
      <trkpt lat="38.225324" lon="-0.628604">
        <ele>32.869</ele>
        <time>2021-05-05T13:55:27Z</time>
      </trkpt>
      <trkpt lat="38.225337" lon="-0.628543">
        <ele>32.752</ele>
        <time>2021-05-05T13:55:28Z</time>
      </trkpt>
      <trkpt lat="38.225373" lon="-0.628428">
        <ele>32.742</ele>
        <time>2021-05-05T13:55:30Z</time>
      </trkpt>
      <trkpt lat="38.225393" lon="-0.628373">
        <ele>32.524</ele>
        <time>2021-05-05T13:55:31Z</time>
      </trkpt>
      <trkpt lat="38.225415" lon="-0.628320">
        <ele>32.511</ele>
        <time>2021-05-05T13:55:32Z</time>
      </trkpt>
      <trkpt lat="38.225471" lon="-0.628226">
        <ele>32.856</ele>
        <time>2021-05-05T13:55:34Z</time>
      </trkpt>
      <trkpt lat="38.225502" lon="-0.628181">
        <ele>32.971</ele>
        <time>2021-05-05T13:55:35Z</time>
      </trkpt>
      <trkpt lat="38.225566" lon="-0.628089">
        <ele>33.341</ele>
        <time>2021-05-05T13:55:37Z</time>
      </trkpt>
      <trkpt lat="38.225603" lon="-0.628049">
        <ele>33.615</ele>
        <time>2021-05-05T13:55:38Z</time>
      </trkpt>
      <trkpt lat="38.225684" lon="-0.627976">
        <ele>33.908</ele>
        <time>2021-05-05T13:55:40Z</time>
      </trkpt>
      <trkpt lat="38.225765" lon="-0.627904">
        <ele>33.844</ele>
        <time>2021-05-05T13:55:42Z</time>
      </trkpt>
      <trkpt lat="38.225807" lon="-0.627871">
        <ele>33.979</ele>
        <time>2021-05-05T13:55:43Z</time>
      </trkpt>
      <trkpt lat="38.225849" lon="-0.627840">
        <ele>33.889</ele>
        <time>2021-05-05T13:55:44Z</time>
      </trkpt>
      <trkpt lat="38.225936" lon="-0.627781">
        <ele>33.822</ele>
        <time>2021-05-05T13:55:46Z</time>
      </trkpt>
      <trkpt lat="38.225980" lon="-0.627754">
        <ele>33.752</ele>
        <time>2021-05-05T13:55:47Z</time>
      </trkpt>
      <trkpt lat="38.226061" lon="-0.627704">
        <ele>33.954</ele>
        <time>2021-05-05T13:55:49Z</time>
      </trkpt>
      <trkpt lat="38.226127" lon="-0.627653">
        <ele>33.791</ele>
        <time>2021-05-05T13:55:51Z</time>
      </trkpt>
      <trkpt lat="38.226197" lon="-0.627598">
        <ele>33.976</ele>
        <time>2021-05-05T13:55:53Z</time>
      </trkpt>
      <trkpt lat="38.226268" lon="-0.627547">
        <ele>34.165</ele>
        <time>2021-05-05T13:55:55Z</time>
      </trkpt>
      <trkpt lat="38.226291" lon="-0.627479">
        <ele>33.868</ele>
        <time>2021-05-05T13:55:57Z</time>
      </trkpt>
      <trkpt lat="38.226340" lon="-0.627457">
        <ele>33.914</ele>
        <time>2021-05-05T13:55:58Z</time>
      </trkpt>
      <trkpt lat="38.226400" lon="-0.627448">
        <ele>34.108</ele>
        <time>2021-05-05T13:56:00Z</time>
      </trkpt>
      <trkpt lat="38.226444" lon="-0.627420">
        <ele>34.243</ele>
        <time>2021-05-05T13:56:03Z</time>
      </trkpt>
      <trkpt lat="38.226488" lon="-0.627400">
        <ele>34.078</ele>
        <time>2021-05-05T13:56:06Z</time>
      </trkpt>
      <trkpt lat="38.226549" lon="-0.627394">
        <ele>34.118</ele>
        <time>2021-05-05T13:56:08Z</time>
      </trkpt>
      <trkpt lat="38.226598" lon="-0.627367">
        <ele>34.021</ele>
        <time>2021-05-05T13:56:09Z</time>
      </trkpt>
      <trkpt lat="38.226643" lon="-0.627317">
        <ele>33.821</ele>
        <time>2021-05-05T13:56:11Z</time>
      </trkpt>
      <trkpt lat="38.226685" lon="-0.627272">
        <ele>33.953</ele>
        <time>2021-05-05T13:56:13Z</time>
      </trkpt>
      <trkpt lat="38.226729" lon="-0.627221">
        <ele>34.010</ele>
        <time>2021-05-05T13:56:15Z</time>
      </trkpt>
      <trkpt lat="38.226761" lon="-0.627177">
        <ele>34.075</ele>
        <time>2021-05-05T13:56:16Z</time>
      </trkpt>
      <trkpt lat="38.226794" lon="-0.627128">
        <ele>34.253</ele>
        <time>2021-05-05T13:56:18Z</time>
      </trkpt>
      <trkpt lat="38.226830" lon="-0.627079">
        <ele>34.104</ele>
        <time>2021-05-05T13:56:19Z</time>
      </trkpt>
      <trkpt lat="38.226862" lon="-0.627034">
        <ele>34.014</ele>
        <time>2021-05-05T13:56:20Z</time>
      </trkpt>
      <trkpt lat="38.226908" lon="-0.626963">
        <ele>33.808</ele>
        <time>2021-05-05T13:56:22Z</time>
      </trkpt>
      <trkpt lat="38.226941" lon="-0.626918">
        <ele>33.552</ele>
        <time>2021-05-05T13:56:23Z</time>
      </trkpt>
      <trkpt lat="38.226975" lon="-0.626858">
        <ele>33.587</ele>
        <time>2021-05-05T13:56:25Z</time>
      </trkpt>
      <trkpt lat="38.227008" lon="-0.626797">
        <ele>33.057</ele>
        <time>2021-05-05T13:56:26Z</time>
      </trkpt>
      <trkpt lat="38.227045" lon="-0.626731">
        <ele>32.980</ele>
        <time>2021-05-05T13:56:28Z</time>
      </trkpt>
      <trkpt lat="38.227085" lon="-0.626670">
        <ele>32.820</ele>
        <time>2021-05-05T13:56:29Z</time>
      </trkpt>
      <trkpt lat="38.227131" lon="-0.626601">
        <ele>32.842</ele>
        <time>2021-05-05T13:56:31Z</time>
      </trkpt>
      <trkpt lat="38.227202" lon="-0.626512">
        <ele>33.059</ele>
        <time>2021-05-05T13:56:33Z</time>
      </trkpt>
      <trkpt lat="38.227263" lon="-0.626424">
        <ele>33.264</ele>
        <time>2021-05-05T13:56:35Z</time>
      </trkpt>
      <trkpt lat="38.227321" lon="-0.626333">
        <ele>33.118</ele>
        <time>2021-05-05T13:56:37Z</time>
      </trkpt>
      <trkpt lat="38.227349" lon="-0.626284">
        <ele>33.098</ele>
        <time>2021-05-05T13:56:38Z</time>
      </trkpt>
      <trkpt lat="38.227400" lon="-0.626184">
        <ele>33.117</ele>
        <time>2021-05-05T13:56:40Z</time>
      </trkpt>
      <trkpt lat="38.227451" lon="-0.626085">
        <ele>33.308</ele>
        <time>2021-05-05T13:56:42Z</time>
      </trkpt>
      <trkpt lat="38.227499" lon="-0.625980">
        <ele>33.328</ele>
        <time>2021-05-05T13:56:44Z</time>
      </trkpt>
      <trkpt lat="38.227550" lon="-0.625877">
        <ele>33.663</ele>
        <time>2021-05-05T13:56:46Z</time>
      </trkpt>
      <trkpt lat="38.227598" lon="-0.625774">
        <ele>33.963</ele>
        <time>2021-05-05T13:56:48Z</time>
      </trkpt>
      <trkpt lat="38.227635" lon="-0.625691">
        <ele>34.016</ele>
        <time>2021-05-05T13:56:50Z</time>
      </trkpt>
      <trkpt lat="38.227695" lon="-0.625588">
        <ele>34.376</ele>
        <time>2021-05-05T13:56:52Z</time>
      </trkpt>
      <trkpt lat="38.227727" lon="-0.625544">
        <ele>34.648</ele>
        <time>2021-05-05T13:56:53Z</time>
      </trkpt>
      <trkpt lat="38.227793" lon="-0.625461">
        <ele>35.035</ele>
        <time>2021-05-05T13:56:55Z</time>
      </trkpt>
      <trkpt lat="38.227827" lon="-0.625420">
        <ele>35.070</ele>
        <time>2021-05-05T13:56:56Z</time>
      </trkpt>
      <trkpt lat="38.227901" lon="-0.625344">
        <ele>35.588</ele>
        <time>2021-05-05T13:56:58Z</time>
      </trkpt>
      <trkpt lat="38.227941" lon="-0.625309">
        <ele>35.624</ele>
        <time>2021-05-05T13:56:59Z</time>
      </trkpt>
      <trkpt lat="38.228028" lon="-0.625240">
        <ele>35.326</ele>
        <time>2021-05-05T13:57:01Z</time>
      </trkpt>
      <trkpt lat="38.228073" lon="-0.625209">
        <ele>35.208</ele>
        <time>2021-05-05T13:57:02Z</time>
      </trkpt>
      <trkpt lat="38.228119" lon="-0.625179">
        <ele>35.375</ele>
        <time>2021-05-05T13:57:03Z</time>
      </trkpt>
      <trkpt lat="38.228213" lon="-0.625124">
        <ele>35.440</ele>
        <time>2021-05-05T13:57:05Z</time>
      </trkpt>
      <trkpt lat="38.228261" lon="-0.625101">
        <ele>35.290</ele>
        <time>2021-05-05T13:57:06Z</time>
      </trkpt>
      <trkpt lat="38.228310" lon="-0.625074">
        <ele>35.283</ele>
        <time>2021-05-05T13:57:07Z</time>
      </trkpt>
      <trkpt lat="38.228358" lon="-0.625047">
        <ele>35.373</ele>
        <time>2021-05-05T13:57:08Z</time>
      </trkpt>
      <trkpt lat="38.228455" lon="-0.624995">
        <ele>35.215</ele>
        <time>2021-05-05T13:57:10Z</time>
      </trkpt>
      <trkpt lat="38.228504" lon="-0.624968">
        <ele>35.022</ele>
        <time>2021-05-05T13:57:11Z</time>
      </trkpt>
      <trkpt lat="38.228553" lon="-0.624940">
        <ele>34.997</ele>
        <time>2021-05-05T13:57:12Z</time>
      </trkpt>
      <trkpt lat="38.228649" lon="-0.624885">
        <ele>34.742</ele>
        <time>2021-05-05T13:57:14Z</time>
      </trkpt>
      <trkpt lat="38.228740" lon="-0.624826">
        <ele>34.822</ele>
        <time>2021-05-05T13:57:16Z</time>
      </trkpt>
      <trkpt lat="38.228783" lon="-0.624790">
        <ele>35.014</ele>
        <time>2021-05-05T13:57:17Z</time>
      </trkpt>
      <trkpt lat="38.228822" lon="-0.624751">
        <ele>35.208</ele>
        <time>2021-05-05T13:57:18Z</time>
      </trkpt>
      <trkpt lat="38.228887" lon="-0.624665">
        <ele>35.581</ele>
        <time>2021-05-05T13:57:20Z</time>
      </trkpt>
      <trkpt lat="38.228916" lon="-0.624619">
        <ele>35.846</ele>
        <time>2021-05-05T13:57:21Z</time>
      </trkpt>
      <trkpt lat="38.228950" lon="-0.624540">
        <ele>35.976</ele>
        <time>2021-05-05T13:57:23Z</time>
      </trkpt>
      <trkpt lat="38.228980" lon="-0.624495">
        <ele>35.969</ele>
        <time>2021-05-05T13:57:24Z</time>
      </trkpt>
      <trkpt lat="38.229022" lon="-0.624424">
        <ele>35.819</ele>
        <time>2021-05-05T13:57:26Z</time>
      </trkpt>
      <trkpt lat="38.229072" lon="-0.624360">
        <ele>35.671</ele>
        <time>2021-05-05T13:57:28Z</time>
      </trkpt>
      <trkpt lat="38.229104" lon="-0.624303">
        <ele>35.558</ele>
        <time>2021-05-05T13:57:29Z</time>
      </trkpt>
      <trkpt lat="38.229143" lon="-0.624250">
        <ele>35.413</ele>
        <time>2021-05-05T13:57:31Z</time>
      </trkpt>
      <trkpt lat="38.229184" lon="-0.624178">
        <ele>35.163</ele>
        <time>2021-05-05T13:57:34Z</time>
      </trkpt>
      <trkpt lat="38.229202" lon="-0.624110">
        <ele>34.744</ele>
        <time>2021-05-05T13:57:36Z</time>
      </trkpt>
      <trkpt lat="38.229223" lon="-0.624057">
        <ele>34.518</ele>
        <time>2021-05-05T13:57:37Z</time>
      </trkpt>
      <trkpt lat="38.229250" lon="-0.623995">
        <ele>34.308</ele>
        <time>2021-05-05T13:57:39Z</time>
      </trkpt>
      <trkpt lat="38.229278" lon="-0.623938">
        <ele>34.153</ele>
        <time>2021-05-05T13:57:40Z</time>
      </trkpt>
      <trkpt lat="38.229307" lon="-0.623880">
        <ele>34.038</ele>
        <time>2021-05-05T13:57:41Z</time>
      </trkpt>
      <trkpt lat="38.229344" lon="-0.623823">
        <ele>34.188</ele>
        <time>2021-05-05T13:57:42Z</time>
      </trkpt>
      <trkpt lat="38.229383" lon="-0.623758">
        <ele>34.171</ele>
        <time>2021-05-05T13:57:44Z</time>
      </trkpt>
      <trkpt lat="38.229413" lon="-0.623708">
        <ele>34.311</ele>
        <time>2021-05-05T13:57:45Z</time>
      </trkpt>
      <trkpt lat="38.229444" lon="-0.623656">
        <ele>34.193</ele>
        <time>2021-05-05T13:57:47Z</time>
      </trkpt>
      <trkpt lat="38.229483" lon="-0.623594">
        <ele>34.120</ele>
        <time>2021-05-05T13:57:48Z</time>
      </trkpt>
      <trkpt lat="38.229534" lon="-0.623510">
        <ele>34.415</ele>
        <time>2021-05-05T13:57:50Z</time>
      </trkpt>
      <trkpt lat="38.229574" lon="-0.623432">
        <ele>34.939</ele>
        <time>2021-05-05T13:57:52Z</time>
      </trkpt>
      <trkpt lat="38.229598" lon="-0.623381">
        <ele>35.101</ele>
        <time>2021-05-05T13:57:53Z</time>
      </trkpt>
      <trkpt lat="38.229638" lon="-0.623311">
        <ele>35.321</ele>
        <time>2021-05-05T13:57:55Z</time>
      </trkpt>
      <trkpt lat="38.229693" lon="-0.623215">
        <ele>35.608</ele>
        <time>2021-05-05T13:57:57Z</time>
      </trkpt>
      <trkpt lat="38.229750" lon="-0.623117">
        <ele>35.820</ele>
        <time>2021-05-05T13:57:59Z</time>
      </trkpt>
      <trkpt lat="38.229777" lon="-0.623069">
        <ele>35.895</ele>
        <time>2021-05-05T13:58:00Z</time>
      </trkpt>
      <trkpt lat="38.229831" lon="-0.622967">
        <ele>36.095</ele>
        <time>2021-05-05T13:58:02Z</time>
      </trkpt>
      <trkpt lat="38.229885" lon="-0.622866">
        <ele>36.488</ele>
        <time>2021-05-05T13:58:04Z</time>
      </trkpt>
      <trkpt lat="38.229940" lon="-0.622763">
        <ele>36.738</ele>
        <time>2021-05-05T13:58:06Z</time>
      </trkpt>
      <trkpt lat="38.229968" lon="-0.622711">
        <ele>36.760</ele>
        <time>2021-05-05T13:58:07Z</time>
      </trkpt>
      <trkpt lat="38.230024" lon="-0.622612">
        <ele>36.637</ele>
        <time>2021-05-05T13:58:09Z</time>
      </trkpt>
      <trkpt lat="38.230052" lon="-0.622562">
        <ele>36.582</ele>
        <time>2021-05-05T13:58:10Z</time>
      </trkpt>
      <trkpt lat="38.230077" lon="-0.622513">
        <ele>36.756</ele>
        <time>2021-05-05T13:58:11Z</time>
      </trkpt>
      <trkpt lat="38.230100" lon="-0.622463">
        <ele>36.859</ele>
        <time>2021-05-05T13:58:12Z</time>
      </trkpt>
      <trkpt lat="38.230148" lon="-0.622364">
        <ele>36.614</ele>
        <time>2021-05-05T13:58:14Z</time>
      </trkpt>
      <trkpt lat="38.230203" lon="-0.622281">
        <ele>36.308</ele>
        <time>2021-05-05T13:58:16Z</time>
      </trkpt>
      <trkpt lat="38.230253" lon="-0.622186">
        <ele>36.162</ele>
        <time>2021-05-05T13:58:18Z</time>
      </trkpt>
      <trkpt lat="38.230293" lon="-0.622113">
        <ele>36.167</ele>
        <time>2021-05-05T13:58:20Z</time>
      </trkpt>
      <trkpt lat="38.230327" lon="-0.622051">
        <ele>35.557</ele>
        <time>2021-05-05T13:58:21Z</time>
      </trkpt>
      <trkpt lat="38.230366" lon="-0.621979">
        <ele>35.450</ele>
        <time>2021-05-05T13:58:23Z</time>
      </trkpt>
      <trkpt lat="38.230403" lon="-0.621912">
        <ele>35.310</ele>
        <time>2021-05-05T13:58:24Z</time>
      </trkpt>
      <trkpt lat="38.230436" lon="-0.621855">
        <ele>35.142</ele>
        <time>2021-05-05T13:58:26Z</time>
      </trkpt>
      <trkpt lat="38.230463" lon="-0.621798">
        <ele>35.179</ele>
        <time>2021-05-05T13:58:27Z</time>
      </trkpt>
      <trkpt lat="38.230492" lon="-0.621739">
        <ele>35.244</ele>
        <time>2021-05-05T13:58:28Z</time>
      </trkpt>
      <trkpt lat="38.230525" lon="-0.621664">
        <ele>34.861</ele>
        <time>2021-05-05T13:58:30Z</time>
      </trkpt>
      <trkpt lat="38.230550" lon="-0.621582">
        <ele>34.821</ele>
        <time>2021-05-05T13:58:31Z</time>
      </trkpt>
      <trkpt lat="38.230571" lon="-0.621493">
        <ele>34.613</ele>
        <time>2021-05-05T13:58:33Z</time>
      </trkpt>
      <trkpt lat="38.230585" lon="-0.621417">
        <ele>34.308</ele>
        <time>2021-05-05T13:58:35Z</time>
      </trkpt>
      <trkpt lat="38.230593" lon="-0.621344">
        <ele>34.223</ele>
        <time>2021-05-05T13:58:36Z</time>
      </trkpt>
      <trkpt lat="38.230596" lon="-0.621272">
        <ele>34.148</ele>
        <time>2021-05-05T13:58:37Z</time>
      </trkpt>
      <trkpt lat="38.230600" lon="-0.621208">
        <ele>34.168</ele>
        <time>2021-05-05T13:58:38Z</time>
      </trkpt>
      <trkpt lat="38.230605" lon="-0.621126">
        <ele>33.971</ele>
        <time>2021-05-05T13:58:40Z</time>
      </trkpt>
      <trkpt lat="38.230608" lon="-0.621067">
        <ele>33.891</ele>
        <time>2021-05-05T13:58:41Z</time>
      </trkpt>
      <trkpt lat="38.230613" lon="-0.621007">
        <ele>33.843</ele>
        <time>2021-05-05T13:58:42Z</time>
      </trkpt>
      <trkpt lat="38.230618" lon="-0.620948">
        <ele>33.510</ele>
        <time>2021-05-05T13:58:43Z</time>
      </trkpt>
      <trkpt lat="38.230630" lon="-0.620831">
        <ele>33.855</ele>
        <time>2021-05-05T13:58:45Z</time>
      </trkpt>
      <trkpt lat="38.230641" lon="-0.620713">
        <ele>33.654</ele>
        <time>2021-05-05T13:58:47Z</time>
      </trkpt>
      <trkpt lat="38.230646" lon="-0.620652">
        <ele>33.956</ele>
        <time>2021-05-05T13:58:48Z</time>
      </trkpt>
      <trkpt lat="38.230657" lon="-0.620531">
        <ele>33.711</ele>
        <time>2021-05-05T13:58:50Z</time>
      </trkpt>
      <trkpt lat="38.230669" lon="-0.620411">
        <ele>33.608</ele>
        <time>2021-05-05T13:58:52Z</time>
      </trkpt>
      <trkpt lat="38.230681" lon="-0.620289">
        <ele>33.392</ele>
        <time>2021-05-05T13:58:54Z</time>
      </trkpt>
      <trkpt lat="38.230685" lon="-0.620230">
        <ele>33.437</ele>
        <time>2021-05-05T13:58:55Z</time>
      </trkpt>
      <trkpt lat="38.230693" lon="-0.620112">
        <ele>33.687</ele>
        <time>2021-05-05T13:58:57Z</time>
      </trkpt>
      <trkpt lat="38.230697" lon="-0.620051">
        <ele>33.580</ele>
        <time>2021-05-05T13:58:58Z</time>
      </trkpt>
      <trkpt lat="38.230709" lon="-0.619931">
        <ele>33.950</ele>
        <time>2021-05-05T13:59:00Z</time>
      </trkpt>
      <trkpt lat="38.230720" lon="-0.619810">
        <ele>33.942</ele>
        <time>2021-05-05T13:59:02Z</time>
      </trkpt>
      <trkpt lat="38.230732" lon="-0.619690">
        <ele>33.959</ele>
        <time>2021-05-05T13:59:04Z</time>
      </trkpt>
      <trkpt lat="38.230738" lon="-0.619630">
        <ele>34.224</ele>
        <time>2021-05-05T13:59:05Z</time>
      </trkpt>
      <trkpt lat="38.230742" lon="-0.619573">
        <ele>34.466</ele>
        <time>2021-05-05T13:59:06Z</time>
      </trkpt>
      <trkpt lat="38.230752" lon="-0.619483">
        <ele>34.329</ele>
        <time>2021-05-05T13:59:08Z</time>
      </trkpt>
      <trkpt lat="38.230766" lon="-0.619377">
        <ele>34.521</ele>
        <time>2021-05-05T13:59:10Z</time>
      </trkpt>
      <trkpt lat="38.230772" lon="-0.619278">
        <ele>34.208</ele>
        <time>2021-05-05T13:59:12Z</time>
      </trkpt>
      <trkpt lat="38.230784" lon="-0.619171">
        <ele>33.843</ele>
        <time>2021-05-05T13:59:13Z</time>
      </trkpt>
      <trkpt lat="38.230794" lon="-0.619110">
        <ele>33.578</ele>
        <time>2021-05-05T13:59:15Z</time>
      </trkpt>
      <trkpt lat="38.230813" lon="-0.619054">
        <ele>33.418</ele>
        <time>2021-05-05T13:59:16Z</time>
      </trkpt>
      <trkpt lat="38.230830" lon="-0.618982">
        <ele>33.181</ele>
        <time>2021-05-05T13:59:17Z</time>
      </trkpt>
      <trkpt lat="38.230858" lon="-0.618882">
        <ele>33.111</ele>
        <time>2021-05-05T13:59:19Z</time>
      </trkpt>
      <trkpt lat="38.230882" lon="-0.618833">
        <ele>33.153</ele>
        <time>2021-05-05T13:59:21Z</time>
      </trkpt>
      <trkpt lat="38.230909" lon="-0.618761">
        <ele>33.150</ele>
        <time>2021-05-05T13:59:23Z</time>
      </trkpt>
      <trkpt lat="38.230940" lon="-0.618701">
        <ele>33.255</ele>
        <time>2021-05-05T13:59:25Z</time>
      </trkpt>
      <trkpt lat="38.230982" lon="-0.618651">
        <ele>33.682</ele>
        <time>2021-05-05T13:59:27Z</time>
      </trkpt>
      <trkpt lat="38.230995" lon="-0.618593">
        <ele>33.643</ele>
        <time>2021-05-05T13:59:29Z</time>
      </trkpt>
      <trkpt lat="38.230987" lon="-0.618521">
        <ele>33.717</ele>
        <time>2021-05-05T13:59:32Z</time>
      </trkpt>
      <trkpt lat="38.231027" lon="-0.618470">
        <ele>33.708</ele>
        <time>2021-05-05T13:59:35Z</time>
      </trkpt>
      <trkpt lat="38.231075" lon="-0.618432">
        <ele>33.955</ele>
        <time>2021-05-05T13:59:37Z</time>
      </trkpt>
      <trkpt lat="38.231122" lon="-0.618383">
        <ele>34.020</ele>
        <time>2021-05-05T13:59:41Z</time>
      </trkpt>
      <trkpt lat="38.231164" lon="-0.618327">
        <ele>34.270</ele>
        <time>2021-05-05T13:59:44Z</time>
      </trkpt>
      <trkpt lat="38.231203" lon="-0.618256">
        <ele>34.413</ele>
        <time>2021-05-05T13:59:47Z</time>
      </trkpt>
      <trkpt lat="38.231234" lon="-0.618183">
        <ele>34.433</ele>
        <time>2021-05-05T13:59:50Z</time>
      </trkpt>
      <trkpt lat="38.231265" lon="-0.618139">
        <ele>34.515</ele>
        <time>2021-05-05T13:59:52Z</time>
      </trkpt>
      <trkpt lat="38.231291" lon="-0.618084">
        <ele>34.762</ele>
        <time>2021-05-05T13:59:54Z</time>
      </trkpt>
      <trkpt lat="38.231316" lon="-0.618019">
        <ele>35.027</ele>
        <time>2021-05-05T13:59:56Z</time>
      </trkpt>
      <trkpt lat="38.231349" lon="-0.617952">
        <ele>35.115</ele>
        <time>2021-05-05T13:59:58Z</time>
      </trkpt>
      <trkpt lat="38.231379" lon="-0.617888">
        <ele>35.265</ele>
        <time>2021-05-05T14:00:00Z</time>
      </trkpt>
      <trkpt lat="38.231416" lon="-0.617817">
        <ele>35.511</ele>
        <time>2021-05-05T14:00:02Z</time>
      </trkpt>
      <trkpt lat="38.231454" lon="-0.617754">
        <ele>35.708</ele>
        <time>2021-05-05T14:00:04Z</time>
      </trkpt>
      <trkpt lat="38.231490" lon="-0.617677">
        <ele>35.758</ele>
        <time>2021-05-05T14:00:06Z</time>
      </trkpt>
      <trkpt lat="38.231524" lon="-0.617614">
        <ele>35.733</ele>
        <time>2021-05-05T14:00:08Z</time>
      </trkpt>
      <trkpt lat="38.231550" lon="-0.617545">
        <ele>35.533</ele>
        <time>2021-05-05T14:00:10Z</time>
      </trkpt>
      <trkpt lat="38.231580" lon="-0.617486">
        <ele>35.626</ele>
        <time>2021-05-05T14:00:12Z</time>
      </trkpt>
      <trkpt lat="38.231619" lon="-0.617437">
        <ele>35.456</ele>
        <time>2021-05-05T14:00:14Z</time>
      </trkpt>
      <trkpt lat="38.231654" lon="-0.617368">
        <ele>35.568</ele>
        <time>2021-05-05T14:00:16Z</time>
      </trkpt>
      <trkpt lat="38.231686" lon="-0.617292">
        <ele>35.545</ele>
        <time>2021-05-05T14:00:18Z</time>
      </trkpt>
      <trkpt lat="38.231718" lon="-0.617208">
        <ele>35.540</ele>
        <time>2021-05-05T14:00:20Z</time>
      </trkpt>
      <trkpt lat="38.231761" lon="-0.617112">
        <ele>35.145</ele>
        <time>2021-05-05T14:00:22Z</time>
      </trkpt>
      <trkpt lat="38.231805" lon="-0.617018">
        <ele>34.947</ele>
        <time>2021-05-05T14:00:24Z</time>
      </trkpt>
      <trkpt lat="38.231831" lon="-0.616971">
        <ele>35.011</ele>
        <time>2021-05-05T14:00:25Z</time>
      </trkpt>
      <trkpt lat="38.231877" lon="-0.616887">
        <ele>34.908</ele>
        <time>2021-05-05T14:00:27Z</time>
      </trkpt>
      <trkpt lat="38.231907" lon="-0.616832">
        <ele>34.871</ele>
        <time>2021-05-05T14:00:28Z</time>
      </trkpt>
      <trkpt lat="38.231958" lon="-0.616733">
        <ele>34.946</ele>
        <time>2021-05-05T14:00:30Z</time>
      </trkpt>
      <trkpt lat="38.232004" lon="-0.616640">
        <ele>34.946</ele>
        <time>2021-05-05T14:00:32Z</time>
      </trkpt>
      <trkpt lat="38.232065" lon="-0.616549">
        <ele>34.779</ele>
        <time>2021-05-05T14:00:34Z</time>
      </trkpt>
      <trkpt lat="38.232137" lon="-0.616450">
        <ele>34.789</ele>
        <time>2021-05-05T14:00:35Z</time>
      </trkpt>
      <trkpt lat="38.232175" lon="-0.616410">
        <ele>34.591</ele>
        <time>2021-05-05T14:00:37Z</time>
      </trkpt>
      <trkpt lat="38.232237" lon="-0.616347">
        <ele>34.968</ele>
        <time>2021-05-05T14:00:39Z</time>
      </trkpt>
      <trkpt lat="38.232308" lon="-0.616288">
        <ele>35.323</ele>
        <time>2021-05-05T14:00:41Z</time>
      </trkpt>
      <trkpt lat="38.232382" lon="-0.616237">
        <ele>35.123</ele>
        <time>2021-05-05T14:00:43Z</time>
      </trkpt>
      <trkpt lat="38.232455" lon="-0.616198">
        <ele>35.283</ele>
        <time>2021-05-05T14:00:45Z</time>
      </trkpt>
      <trkpt lat="38.232541" lon="-0.616155">
        <ele>35.111</ele>
        <time>2021-05-05T14:00:47Z</time>
      </trkpt>
      <trkpt lat="38.232588" lon="-0.616125">
        <ele>34.908</ele>
        <time>2021-05-05T14:00:48Z</time>
      </trkpt>
      <trkpt lat="38.232633" lon="-0.616097">
        <ele>34.959</ele>
        <time>2021-05-05T14:00:49Z</time>
      </trkpt>
      <trkpt lat="38.232722" lon="-0.616048">
        <ele>34.724</ele>
        <time>2021-05-05T14:00:51Z</time>
      </trkpt>
      <trkpt lat="38.232805" lon="-0.615997">
        <ele>34.834</ele>
        <time>2021-05-05T14:00:53Z</time>
      </trkpt>
      <trkpt lat="38.232879" lon="-0.615955">
        <ele>34.617</ele>
        <time>2021-05-05T14:00:55Z</time>
      </trkpt>
      <trkpt lat="38.232954" lon="-0.615919">
        <ele>34.817</ele>
        <time>2021-05-05T14:00:57Z</time>
      </trkpt>
      <trkpt lat="38.232999" lon="-0.615897">
        <ele>34.949</ele>
        <time>2021-05-05T14:00:58Z</time>
      </trkpt>
      <trkpt lat="38.233070" lon="-0.615869">
        <ele>35.076</ele>
        <time>2021-05-05T14:01:00Z</time>
      </trkpt>
      <trkpt lat="38.233144" lon="-0.615831">
        <ele>35.361</ele>
        <time>2021-05-05T14:01:02Z</time>
      </trkpt>
      <trkpt lat="38.233205" lon="-0.615788">
        <ele>35.475</ele>
        <time>2021-05-05T14:01:04Z</time>
      </trkpt>
      <trkpt lat="38.233265" lon="-0.615761">
        <ele>35.228</ele>
        <time>2021-05-05T14:01:06Z</time>
      </trkpt>
      <trkpt lat="38.233318" lon="-0.615739">
        <ele>35.120</ele>
        <time>2021-05-05T14:01:08Z</time>
      </trkpt>
      <trkpt lat="38.233366" lon="-0.615719">
        <ele>35.108</ele>
        <time>2021-05-05T14:01:10Z</time>
      </trkpt>
      <trkpt lat="38.233417" lon="-0.615694">
        <ele>34.744</ele>
        <time>2021-05-05T14:01:11Z</time>
      </trkpt>
      <trkpt lat="38.233484" lon="-0.615668">
        <ele>34.689</ele>
        <time>2021-05-05T14:01:14Z</time>
      </trkpt>
      <trkpt lat="38.233547" lon="-0.615644">
        <ele>34.219</ele>
        <time>2021-05-05T14:01:15Z</time>
      </trkpt>
      <trkpt lat="38.233607" lon="-0.615605">
        <ele>34.442</ele>
        <time>2021-05-05T14:01:17Z</time>
      </trkpt>
      <trkpt lat="38.233651" lon="-0.615578">
        <ele>34.462</ele>
        <time>2021-05-05T14:01:18Z</time>
      </trkpt>
      <trkpt lat="38.233707" lon="-0.615546">
        <ele>34.584</ele>
        <time>2021-05-05T14:01:20Z</time>
      </trkpt>
      <trkpt lat="38.233761" lon="-0.615514">
        <ele>34.571</ele>
        <time>2021-05-05T14:01:21Z</time>
      </trkpt>
      <trkpt lat="38.233806" lon="-0.615486">
        <ele>34.476</ele>
        <time>2021-05-05T14:01:23Z</time>
      </trkpt>
      <trkpt lat="38.233877" lon="-0.615443">
        <ele>34.478</ele>
        <time>2021-05-05T14:01:24Z</time>
      </trkpt>
      <trkpt lat="38.233952" lon="-0.615398">
        <ele>34.333</ele>
        <time>2021-05-05T14:01:27Z</time>
      </trkpt>
      <trkpt lat="38.234030" lon="-0.615352">
        <ele>34.526</ele>
        <time>2021-05-05T14:01:28Z</time>
      </trkpt>
      <trkpt lat="38.234131" lon="-0.615295">
        <ele>34.008</ele>
        <time>2021-05-05T14:01:31Z</time>
      </trkpt>
      <trkpt lat="38.234221" lon="-0.615244">
        <ele>34.094</ele>
        <time>2021-05-05T14:01:33Z</time>
      </trkpt>
      <trkpt lat="38.234306" lon="-0.615188">
        <ele>33.749</ele>
        <time>2021-05-05T14:01:35Z</time>
      </trkpt>
      <trkpt lat="38.234381" lon="-0.615117">
        <ele>33.739</ele>
        <time>2021-05-05T14:01:37Z</time>
      </trkpt>
      <trkpt lat="38.234415" lon="-0.615075">
        <ele>33.762</ele>
        <time>2021-05-05T14:01:38Z</time>
      </trkpt>
      <trkpt lat="38.234443" lon="-0.615020">
        <ele>33.362</ele>
        <time>2021-05-05T14:01:39Z</time>
      </trkpt>
      <trkpt lat="38.234499" lon="-0.614909">
        <ele>33.334</ele>
        <time>2021-05-05T14:01:41Z</time>
      </trkpt>
      <trkpt lat="38.234539" lon="-0.614788">
        <ele>33.051</ele>
        <time>2021-05-05T14:01:43Z</time>
      </trkpt>
      <trkpt lat="38.234553" lon="-0.614725">
        <ele>32.976</ele>
        <time>2021-05-05T14:01:44Z</time>
      </trkpt>
      <trkpt lat="38.234565" lon="-0.614663">
        <ele>32.621</ele>
        <time>2021-05-05T14:01:45Z</time>
      </trkpt>
      <trkpt lat="38.234586" lon="-0.614539">
        <ele>32.841</ele>
        <time>2021-05-05T14:01:47Z</time>
      </trkpt>
      <trkpt lat="38.234598" lon="-0.614478">
        <ele>32.705</ele>
        <time>2021-05-05T14:01:48Z</time>
      </trkpt>
      <trkpt lat="38.234608" lon="-0.614417">
        <ele>33.008</ele>
        <time>2021-05-05T14:01:49Z</time>
      </trkpt>
      <trkpt lat="38.234635" lon="-0.614294">
        <ele>32.819</ele>
        <time>2021-05-05T14:01:51Z</time>
      </trkpt>
      <trkpt lat="38.234659" lon="-0.614169">
        <ele>33.164</ele>
        <time>2021-05-05T14:01:53Z</time>
      </trkpt>
      <trkpt lat="38.234684" lon="-0.614043">
        <ele>33.414</ele>
        <time>2021-05-05T14:01:55Z</time>
      </trkpt>
      <trkpt lat="38.234717" lon="-0.613913">
        <ele>33.247</ele>
        <time>2021-05-05T14:01:57Z</time>
      </trkpt>
      <trkpt lat="38.234746" lon="-0.613784">
        <ele>32.717</ele>
        <time>2021-05-05T14:01:59Z</time>
      </trkpt>
      <trkpt lat="38.234759" lon="-0.613718">
        <ele>32.719</ele>
        <time>2021-05-05T14:02:00Z</time>
      </trkpt>
      <trkpt lat="38.234787" lon="-0.613590">
        <ele>32.926</ele>
        <time>2021-05-05T14:02:02Z</time>
      </trkpt>
      <trkpt lat="38.234804" lon="-0.613526">
        <ele>33.331</ele>
        <time>2021-05-05T14:02:03Z</time>
      </trkpt>
      <trkpt lat="38.234820" lon="-0.613463">
        <ele>33.566</ele>
        <time>2021-05-05T14:02:04Z</time>
      </trkpt>
      <trkpt lat="38.234833" lon="-0.613402">
        <ele>33.529</ele>
        <time>2021-05-05T14:02:05Z</time>
      </trkpt>
      <trkpt lat="38.234859" lon="-0.613283">
        <ele>34.121</ele>
        <time>2021-05-05T14:02:07Z</time>
      </trkpt>
      <trkpt lat="38.234874" lon="-0.613163">
        <ele>34.608</ele>
        <time>2021-05-05T14:02:09Z</time>
      </trkpt>
      <trkpt lat="38.234882" lon="-0.613105">
        <ele>35.073</ele>
        <time>2021-05-05T14:02:10Z</time>
      </trkpt>
      <trkpt lat="38.234905" lon="-0.613012">
        <ele>35.248</ele>
        <time>2021-05-05T14:02:12Z</time>
      </trkpt>
      <trkpt lat="38.234936" lon="-0.612919">
        <ele>35.478</ele>
        <time>2021-05-05T14:02:14Z</time>
      </trkpt>
      <trkpt lat="38.234967" lon="-0.612811">
        <ele>35.481</ele>
        <time>2021-05-05T14:02:16Z</time>
      </trkpt>
      <trkpt lat="38.234997" lon="-0.612710">
        <ele>35.661</ele>
        <time>2021-05-05T14:02:18Z</time>
      </trkpt>
      <trkpt lat="38.235019" lon="-0.612642">
        <ele>36.053</ele>
        <time>2021-05-05T14:02:19Z</time>
      </trkpt>
      <trkpt lat="38.235040" lon="-0.612575">
        <ele>36.190</ele>
        <time>2021-05-05T14:02:20Z</time>
      </trkpt>
      <trkpt lat="38.235060" lon="-0.612517">
        <ele>36.375</ele>
        <time>2021-05-05T14:02:22Z</time>
      </trkpt>
      <trkpt lat="38.235079" lon="-0.612465">
        <ele>36.479</ele>
        <time>2021-05-05T14:02:23Z</time>
      </trkpt>
      <trkpt lat="38.235111" lon="-0.612392">
        <ele>36.505</ele>
        <time>2021-05-05T14:02:25Z</time>
      </trkpt>
      <trkpt lat="38.235137" lon="-0.612339">
        <ele>36.625</ele>
        <time>2021-05-05T14:02:26Z</time>
      </trkpt>
      <trkpt lat="38.235168" lon="-0.612280">
        <ele>36.908</ele>
        <time>2021-05-05T14:02:27Z</time>
      </trkpt>
      <trkpt lat="38.235219" lon="-0.612205">
        <ele>36.994</ele>
        <time>2021-05-05T14:02:30Z</time>
      </trkpt>
      <trkpt lat="38.235277" lon="-0.612145">
        <ele>36.939</ele>
        <time>2021-05-05T14:02:31Z</time>
      </trkpt>
      <trkpt lat="38.235333" lon="-0.612094">
        <ele>36.619</ele>
        <time>2021-05-05T14:02:33Z</time>
      </trkpt>
      <trkpt lat="38.235394" lon="-0.612044">
        <ele>36.932</ele>
        <time>2021-05-05T14:02:36Z</time>
      </trkpt>
      <trkpt lat="38.235446" lon="-0.612006">
        <ele>37.252</ele>
        <time>2021-05-05T14:02:38Z</time>
      </trkpt>
      <trkpt lat="38.235497" lon="-0.611953">
        <ele>37.254</ele>
        <time>2021-05-05T14:02:40Z</time>
      </trkpt>
      <trkpt lat="38.235551" lon="-0.611898">
        <ele>37.121</ele>
        <time>2021-05-05T14:02:42Z</time>
      </trkpt>
      <trkpt lat="38.235603" lon="-0.611850">
        <ele>37.436</ele>
        <time>2021-05-05T14:02:43Z</time>
      </trkpt>
      <trkpt lat="38.235644" lon="-0.611809">
        <ele>37.434</ele>
        <time>2021-05-05T14:02:45Z</time>
      </trkpt>
      <trkpt lat="38.235689" lon="-0.611765">
        <ele>37.855</ele>
        <time>2021-05-05T14:02:46Z</time>
      </trkpt>
      <trkpt lat="38.235740" lon="-0.611720">
        <ele>37.610</ele>
        <time>2021-05-05T14:02:48Z</time>
      </trkpt>
      <trkpt lat="38.235803" lon="-0.611677">
        <ele>37.508</ele>
        <time>2021-05-05T14:02:49Z</time>
      </trkpt>
      <trkpt lat="38.235851" lon="-0.611641">
        <ele>37.490</ele>
        <time>2021-05-05T14:02:50Z</time>
      </trkpt>
      <trkpt lat="38.235896" lon="-0.611613">
        <ele>37.145</ele>
        <time>2021-05-05T14:02:52Z</time>
      </trkpt>
      <trkpt lat="38.235950" lon="-0.611568">
        <ele>37.085</ele>
        <time>2021-05-05T14:02:53Z</time>
      </trkpt>
      <trkpt lat="38.235991" lon="-0.611522">
        <ele>36.828</ele>
        <time>2021-05-05T14:02:54Z</time>
      </trkpt>
      <trkpt lat="38.236031" lon="-0.611482">
        <ele>36.668</ele>
        <time>2021-05-05T14:02:55Z</time>
      </trkpt>
      <trkpt lat="38.236085" lon="-0.611437">
        <ele>36.270</ele>
        <time>2021-05-05T14:02:57Z</time>
      </trkpt>
      <trkpt lat="38.236164" lon="-0.611371">
        <ele>36.047</ele>
        <time>2021-05-05T14:02:59Z</time>
      </trkpt>
      <trkpt lat="38.236232" lon="-0.611320">
        <ele>35.922</ele>
        <time>2021-05-05T14:03:01Z</time>
      </trkpt>
      <trkpt lat="38.236301" lon="-0.611257">
        <ele>35.648</ele>
        <time>2021-05-05T14:03:02Z</time>
      </trkpt>
      <trkpt lat="38.236342" lon="-0.611219">
        <ele>35.861</ele>
        <time>2021-05-05T14:03:04Z</time>
      </trkpt>
      <trkpt lat="38.236407" lon="-0.611164">
        <ele>35.617</ele>
        <time>2021-05-05T14:03:05Z</time>
      </trkpt>
      <trkpt lat="38.236461" lon="-0.611115">
        <ele>35.608</ele>
        <time>2021-05-05T14:03:07Z</time>
      </trkpt>
      <trkpt lat="38.236528" lon="-0.611054">
        <ele>35.661</ele>
        <time>2021-05-05T14:03:09Z</time>
      </trkpt>
      <trkpt lat="38.236592" lon="-0.610999">
        <ele>35.886</ele>
        <time>2021-05-05T14:03:11Z</time>
      </trkpt>
      <trkpt lat="38.236652" lon="-0.610955">
        <ele>35.426</ele>
        <time>2021-05-05T14:03:13Z</time>
      </trkpt>
      <trkpt lat="38.236709" lon="-0.610908">
        <ele>35.419</ele>
        <time>2021-05-05T14:03:15Z</time>
      </trkpt>
      <trkpt lat="38.236747" lon="-0.610869">
        <ele>35.439</ele>
        <time>2021-05-05T14:03:16Z</time>
      </trkpt>
      <trkpt lat="38.236783" lon="-0.610830">
        <ele>35.331</ele>
        <time>2021-05-05T14:03:17Z</time>
      </trkpt>
      <trkpt lat="38.236825" lon="-0.610760">
        <ele>35.368</ele>
        <time>2021-05-05T14:03:19Z</time>
      </trkpt>
      <trkpt lat="38.236885" lon="-0.610669">
        <ele>35.413</ele>
        <time>2021-05-05T14:03:21Z</time>
      </trkpt>
      <trkpt lat="38.236949" lon="-0.610583">
        <ele>35.415</ele>
        <time>2021-05-05T14:03:23Z</time>
      </trkpt>
      <trkpt lat="38.237011" lon="-0.610493">
        <ele>35.365</ele>
        <time>2021-05-05T14:03:25Z</time>
      </trkpt>
      <trkpt lat="38.237070" lon="-0.610405">
        <ele>35.311</ele>
        <time>2021-05-05T14:03:27Z</time>
      </trkpt>
      <trkpt lat="38.237119" lon="-0.610372">
        <ele>35.208</ele>
        <time>2021-05-05T14:03:28Z</time>
      </trkpt>
      <trkpt lat="38.237152" lon="-0.610293">
        <ele>35.338</ele>
        <time>2021-05-05T14:03:30Z</time>
      </trkpt>
      <trkpt lat="38.237202" lon="-0.610249">
        <ele>35.513</ele>
        <time>2021-05-05T14:03:31Z</time>
      </trkpt>
      <trkpt lat="38.237239" lon="-0.610152">
        <ele>35.693</ele>
        <time>2021-05-05T14:03:33Z</time>
      </trkpt>
      <trkpt lat="38.237269" lon="-0.610103">
        <ele>35.486</ele>
        <time>2021-05-05T14:03:34Z</time>
      </trkpt>
      <trkpt lat="38.237298" lon="-0.610054">
        <ele>35.496</ele>
        <time>2021-05-05T14:03:35Z</time>
      </trkpt>
      <trkpt lat="38.237358" lon="-0.609959">
        <ele>35.448</ele>
        <time>2021-05-05T14:03:37Z</time>
      </trkpt>
      <trkpt lat="38.237426" lon="-0.609873">
        <ele>35.255</ele>
        <time>2021-05-05T14:03:39Z</time>
      </trkpt>
      <trkpt lat="38.237489" lon="-0.609785">
        <ele>35.330</ele>
        <time>2021-05-05T14:03:41Z</time>
      </trkpt>
      <trkpt lat="38.237550" lon="-0.609694">
        <ele>35.174</ele>
        <time>2021-05-05T14:03:43Z</time>
      </trkpt>
      <trkpt lat="38.237611" lon="-0.609603">
        <ele>35.256</ele>
        <time>2021-05-05T14:03:45Z</time>
      </trkpt>
      <trkpt lat="38.237673" lon="-0.609507">
        <ele>35.121</ele>
        <time>2021-05-05T14:03:46Z</time>
      </trkpt>
      <trkpt lat="38.237707" lon="-0.609455">
        <ele>35.208</ele>
        <time>2021-05-05T14:03:48Z</time>
      </trkpt>
      <trkpt lat="38.237741" lon="-0.609405">
        <ele>35.314</ele>
        <time>2021-05-05T14:03:49Z</time>
      </trkpt>
      <trkpt lat="38.237777" lon="-0.609358">
        <ele>35.399</ele>
        <time>2021-05-05T14:03:50Z</time>
      </trkpt>
      <trkpt lat="38.237837" lon="-0.609270">
        <ele>35.199</ele>
        <time>2021-05-05T14:03:52Z</time>
      </trkpt>
      <trkpt lat="38.237894" lon="-0.609181">
        <ele>34.912</ele>
        <time>2021-05-05T14:03:54Z</time>
      </trkpt>
      <trkpt lat="38.237938" lon="-0.609091">
        <ele>34.752</ele>
        <time>2021-05-05T14:03:56Z</time>
      </trkpt>
      <trkpt lat="38.237980" lon="-0.608991">
        <ele>34.634</ele>
        <time>2021-05-05T14:03:58Z</time>
      </trkpt>
      <trkpt lat="38.238007" lon="-0.608899">
        <ele>34.851</ele>
        <time>2021-05-05T14:04:00Z</time>
      </trkpt>
      <trkpt lat="38.238021" lon="-0.608841">
        <ele>34.636</ele>
        <time>2021-05-05T14:04:01Z</time>
      </trkpt>
      <trkpt lat="38.238044" lon="-0.608739">
        <ele>34.532</ele>
        <time>2021-05-05T14:04:03Z</time>
      </trkpt>
      <trkpt lat="38.238051" lon="-0.608658">
        <ele>34.792</ele>
        <time>2021-05-05T14:04:04Z</time>
      </trkpt>
      <trkpt lat="38.238049" lon="-0.608571">
        <ele>34.711</ele>
        <time>2021-05-05T14:04:05Z</time>
      </trkpt>
      <trkpt lat="38.238047" lon="-0.608496">
        <ele>34.408</ele>
        <time>2021-05-05T14:04:07Z</time>
      </trkpt>
      <trkpt lat="38.238051" lon="-0.608378">
        <ele>34.440</ele>
        <time>2021-05-05T14:04:09Z</time>
      </trkpt>
      <trkpt lat="38.238061" lon="-0.608258">
        <ele>34.265</ele>
        <time>2021-05-05T14:04:10Z</time>
      </trkpt>
      <trkpt lat="38.238067" lon="-0.608198">
        <ele>34.125</ele>
        <time>2021-05-05T14:04:12Z</time>
      </trkpt>
      <trkpt lat="38.238076" lon="-0.608079">
        <ele>34.428</ele>
        <time>2021-05-05T14:04:14Z</time>
      </trkpt>
      <trkpt lat="38.238087" lon="-0.607961">
        <ele>34.148</ele>
        <time>2021-05-05T14:04:16Z</time>
      </trkpt>
      <trkpt lat="38.238094" lon="-0.607901">
        <ele>34.440</ele>
        <time>2021-05-05T14:04:17Z</time>
      </trkpt>
      <trkpt lat="38.238107" lon="-0.607780">
        <ele>34.837</ele>
        <time>2021-05-05T14:04:19Z</time>
      </trkpt>
      <trkpt lat="38.238114" lon="-0.607719">
        <ele>34.912</ele>
        <time>2021-05-05T14:04:20Z</time>
      </trkpt>
      <trkpt lat="38.238128" lon="-0.607599">
        <ele>35.138</ele>
        <time>2021-05-05T14:04:22Z</time>
      </trkpt>
      <trkpt lat="38.238134" lon="-0.607538">
        <ele>34.770</ele>
        <time>2021-05-05T14:04:23Z</time>
      </trkpt>
      <trkpt lat="38.238139" lon="-0.607479">
        <ele>35.017</ele>
        <time>2021-05-05T14:04:24Z</time>
      </trkpt>
      <trkpt lat="38.238145" lon="-0.607419">
        <ele>35.008</ele>
        <time>2021-05-05T14:04:25Z</time>
      </trkpt>
      <trkpt lat="38.238155" lon="-0.607300">
        <ele>35.260</ele>
        <time>2021-05-05T14:04:27Z</time>
      </trkpt>
      <trkpt lat="38.238168" lon="-0.607182">
        <ele>35.125</ele>
        <time>2021-05-05T14:04:29Z</time>
      </trkpt>
      <trkpt lat="38.238173" lon="-0.607097">
        <ele>35.295</ele>
        <time>2021-05-05T14:04:31Z</time>
      </trkpt>
      <trkpt lat="38.238179" lon="-0.606993">
        <ele>34.978</ele>
        <time>2021-05-05T14:04:33Z</time>
      </trkpt>
      <trkpt lat="38.238183" lon="-0.606909">
        <ele>34.798</ele>
        <time>2021-05-05T14:04:35Z</time>
      </trkpt>
      <trkpt lat="38.238163" lon="-0.606830">
        <ele>34.570</ele>
        <time>2021-05-05T14:04:37Z</time>
      </trkpt>
      <trkpt lat="38.238178" lon="-0.606769">
        <ele>34.627</ele>
        <time>2021-05-05T14:04:38Z</time>
      </trkpt>
      <trkpt lat="38.238197" lon="-0.606689">
        <ele>34.792</ele>
        <time>2021-05-05T14:04:40Z</time>
      </trkpt>
      <trkpt lat="38.238220" lon="-0.606607">
        <ele>34.762</ele>
        <time>2021-05-05T14:04:41Z</time>
      </trkpt>
      <trkpt lat="38.238245" lon="-0.606541">
        <ele>34.583</ele>
        <time>2021-05-05T14:04:42Z</time>
      </trkpt>
      <trkpt lat="38.238270" lon="-0.606478">
        <ele>33.911</ele>
        <time>2021-05-05T14:04:43Z</time>
      </trkpt>
      <trkpt lat="38.238308" lon="-0.606395">
        <ele>33.508</ele>
        <time>2021-05-05T14:04:45Z</time>
      </trkpt>
      <trkpt lat="38.238354" lon="-0.606310">
        <ele>33.613</ele>
        <time>2021-05-05T14:04:47Z</time>
      </trkpt>
      <trkpt lat="38.238382" lon="-0.606258">
        <ele>33.848</ele>
        <time>2021-05-05T14:04:48Z</time>
      </trkpt>
      <trkpt lat="38.238437" lon="-0.606156">
        <ele>33.768</ele>
        <time>2021-05-05T14:04:50Z</time>
      </trkpt>
      <trkpt lat="38.238492" lon="-0.606054">
        <ele>33.721</ele>
        <time>2021-05-05T14:04:52Z</time>
      </trkpt>
      <trkpt lat="38.238538" lon="-0.605949">
        <ele>33.981</ele>
        <time>2021-05-05T14:04:54Z</time>
      </trkpt>
      <trkpt lat="38.238558" lon="-0.605895">
        <ele>34.123</ele>
        <time>2021-05-05T14:04:55Z</time>
      </trkpt>
      <trkpt lat="38.238590" lon="-0.605783">
        <ele>33.920</ele>
        <time>2021-05-05T14:04:57Z</time>
      </trkpt>
      <trkpt lat="38.238605" lon="-0.605729">
        <ele>34.075</ele>
        <time>2021-05-05T14:04:58Z</time>
      </trkpt>
      <trkpt lat="38.238631" lon="-0.605619">
        <ele>34.434</ele>
        <time>2021-05-05T14:05:00Z</time>
      </trkpt>
      <trkpt lat="38.238654" lon="-0.605505">
        <ele>34.355</ele>
        <time>2021-05-05T14:05:02Z</time>
      </trkpt>
      <trkpt lat="38.238664" lon="-0.605387">
        <ele>34.310</ele>
        <time>2021-05-05T14:05:04Z</time>
      </trkpt>
      <trkpt lat="38.238683" lon="-0.605270">
        <ele>34.408</ele>
        <time>2021-05-05T14:05:06Z</time>
      </trkpt>
      <trkpt lat="38.238690" lon="-0.605210">
        <ele>34.630</ele>
        <time>2021-05-05T14:05:07Z</time>
      </trkpt>
      <trkpt lat="38.238707" lon="-0.605086">
        <ele>34.335</ele>
        <time>2021-05-05T14:05:09Z</time>
      </trkpt>
      <trkpt lat="38.238726" lon="-0.604962">
        <ele>34.235</ele>
        <time>2021-05-05T14:05:11Z</time>
      </trkpt>
      <trkpt lat="38.238734" lon="-0.604900">
        <ele>34.028</ele>
        <time>2021-05-05T14:05:12Z</time>
      </trkpt>
      <trkpt lat="38.238737" lon="-0.604839">
        <ele>33.838</ele>
        <time>2021-05-05T14:05:13Z</time>
      </trkpt>
      <trkpt lat="38.238729" lon="-0.604717">
        <ele>33.650</ele>
        <time>2021-05-05T14:05:15Z</time>
      </trkpt>
      <trkpt lat="38.238717" lon="-0.604594">
        <ele>33.287</ele>
        <time>2021-05-05T14:05:17Z</time>
      </trkpt>
      <trkpt lat="38.238698" lon="-0.604467">
        <ele>32.892</ele>
        <time>2021-05-05T14:05:19Z</time>
      </trkpt>
      <trkpt lat="38.238689" lon="-0.604402">
        <ele>32.735</ele>
        <time>2021-05-05T14:05:20Z</time>
      </trkpt>
      <trkpt lat="38.238673" lon="-0.604275">
        <ele>32.986</ele>
        <time>2021-05-05T14:05:22Z</time>
      </trkpt>
      <trkpt lat="38.238658" lon="-0.604150">
        <ele>32.914</ele>
        <time>2021-05-05T14:05:24Z</time>
      </trkpt>
      <trkpt lat="38.238649" lon="-0.604087">
        <ele>32.808</ele>
        <time>2021-05-05T14:05:25Z</time>
      </trkpt>
      <trkpt lat="38.238631" lon="-0.603959">
        <ele>32.850</ele>
        <time>2021-05-05T14:05:27Z</time>
      </trkpt>
      <trkpt lat="38.238621" lon="-0.603834">
        <ele>32.635</ele>
        <time>2021-05-05T14:05:29Z</time>
      </trkpt>
      <trkpt lat="38.238618" lon="-0.603774">
        <ele>32.355</ele>
        <time>2021-05-05T14:05:30Z</time>
      </trkpt>
      <trkpt lat="38.238618" lon="-0.603650">
        <ele>32.038</ele>
        <time>2021-05-05T14:05:32Z</time>
      </trkpt>
      <trkpt lat="38.238622" lon="-0.603588">
        <ele>31.888</ele>
        <time>2021-05-05T14:05:33Z</time>
      </trkpt>
      <trkpt lat="38.238636" lon="-0.603465">
        <ele>32.180</ele>
        <time>2021-05-05T14:05:35Z</time>
      </trkpt>
      <trkpt lat="38.238660" lon="-0.603350">
        <ele>32.117</ele>
        <time>2021-05-05T14:05:37Z</time>
      </trkpt>
      <trkpt lat="38.238686" lon="-0.603242">
        <ele>32.452</ele>
        <time>2021-05-05T14:05:39Z</time>
      </trkpt>
      <trkpt lat="38.238709" lon="-0.603150">
        <ele>32.986</ele>
        <time>2021-05-05T14:05:41Z</time>
      </trkpt>
      <trkpt lat="38.238733" lon="-0.603053">
        <ele>33.660</ele>
        <time>2021-05-05T14:05:43Z</time>
      </trkpt>
      <trkpt lat="38.238755" lon="-0.602968">
        <ele>34.026</ele>
        <time>2021-05-05T14:05:45Z</time>
      </trkpt>
      <trkpt lat="38.238771" lon="-0.602888">
        <ele>34.208</ele>
        <time>2021-05-05T14:05:47Z</time>
      </trkpt>
      <trkpt lat="38.238788" lon="-0.602779">
        <ele>34.345</ele>
        <time>2021-05-05T14:05:49Z</time>
      </trkpt>
      <trkpt lat="38.238803" lon="-0.602709">
        <ele>34.420</ele>
        <time>2021-05-05T14:05:51Z</time>
      </trkpt>
      <trkpt lat="38.238822" lon="-0.602641">
        <ele>34.690</ele>
        <time>2021-05-05T14:05:52Z</time>
      </trkpt>
      <trkpt lat="38.238839" lon="-0.602586">
        <ele>34.853</ele>
        <time>2021-05-05T14:05:53Z</time>
      </trkpt>
      <trkpt lat="38.238859" lon="-0.602499">
        <ele>34.863</ele>
        <time>2021-05-05T14:05:55Z</time>
      </trkpt>
      <trkpt lat="38.238873" lon="-0.602434">
        <ele>34.925</ele>
        <time>2021-05-05T14:05:57Z</time>
      </trkpt>
      <trkpt lat="38.238888" lon="-0.602375">
        <ele>34.982</ele>
        <time>2021-05-05T14:05:58Z</time>
      </trkpt>
      <trkpt lat="38.238909" lon="-0.602286">
        <ele>35.087</ele>
        <time>2021-05-05T14:06:00Z</time>
      </trkpt>
      <trkpt lat="38.238925" lon="-0.602207">
        <ele>35.097</ele>
        <time>2021-05-05T14:06:02Z</time>
      </trkpt>
      <trkpt lat="38.238940" lon="-0.602148">
        <ele>35.123</ele>
        <time>2021-05-05T14:06:04Z</time>
      </trkpt>
      <trkpt lat="38.238953" lon="-0.602070">
        <ele>35.225</ele>
        <time>2021-05-05T14:06:06Z</time>
      </trkpt>
      <trkpt lat="38.238969" lon="-0.601992">
        <ele>35.308</ele>
        <time>2021-05-05T14:06:07Z</time>
      </trkpt>
      <trkpt lat="38.239000" lon="-0.601939">
        <ele>35.466</ele>
        <time>2021-05-05T14:06:09Z</time>
      </trkpt>
      <trkpt lat="38.239060" lon="-0.601889">
        <ele>35.421</ele>
        <time>2021-05-05T14:06:11Z</time>
      </trkpt>
      <trkpt lat="38.239107" lon="-0.601850">
        <ele>35.661</ele>
        <time>2021-05-05T14:06:13Z</time>
      </trkpt>
      <trkpt lat="38.239148" lon="-0.601820">
        <ele>35.924</ele>
        <time>2021-05-05T14:06:15Z</time>
      </trkpt>
      <trkpt lat="38.239193" lon="-0.601790">
        <ele>36.194</ele>
        <time>2021-05-05T14:06:16Z</time>
      </trkpt>
      <trkpt lat="38.239229" lon="-0.601756">
        <ele>36.256</ele>
        <time>2021-05-05T14:06:18Z</time>
      </trkpt>
      <trkpt lat="38.239274" lon="-0.601712">
        <ele>36.213</ele>
        <time>2021-05-05T14:06:19Z</time>
      </trkpt>
      <trkpt lat="38.239306" lon="-0.601666">
        <ele>36.038</ele>
        <time>2021-05-05T14:06:20Z</time>
      </trkpt>
      <trkpt lat="38.239342" lon="-0.601603">
        <ele>36.462</ele>
        <time>2021-05-05T14:06:22Z</time>
      </trkpt>
      <trkpt lat="38.239365" lon="-0.601552">
        <ele>36.783</ele>
        <time>2021-05-05T14:06:23Z</time>
      </trkpt>
      <trkpt lat="38.239400" lon="-0.601486">
        <ele>36.911</ele>
        <time>2021-05-05T14:06:25Z</time>
      </trkpt>
      <trkpt lat="38.239429" lon="-0.601435">
        <ele>37.308</ele>
        <time>2021-05-05T14:06:26Z</time>
      </trkpt>
      <trkpt lat="38.239465" lon="-0.601373">
        <ele>37.323</ele>
        <time>2021-05-05T14:06:28Z</time>
      </trkpt>
      <trkpt lat="38.239498" lon="-0.601312">
        <ele>36.918</ele>
        <time>2021-05-05T14:06:29Z</time>
      </trkpt>
      <trkpt lat="38.239543" lon="-0.601215">
        <ele>36.938</ele>
        <time>2021-05-05T14:06:31Z</time>
      </trkpt>
      <trkpt lat="38.239598" lon="-0.601121">
        <ele>36.671</ele>
        <time>2021-05-05T14:06:33Z</time>
      </trkpt>
      <trkpt lat="38.239656" lon="-0.601007">
        <ele>36.491</ele>
        <time>2021-05-05T14:06:36Z</time>
      </trkpt>
      <trkpt lat="38.239707" lon="-0.600888">
        <ele>36.233</ele>
        <time>2021-05-05T14:06:38Z</time>
      </trkpt>
      <trkpt lat="38.239733" lon="-0.600830">
        <ele>36.210</ele>
        <time>2021-05-05T14:06:39Z</time>
      </trkpt>
      <trkpt lat="38.239762" lon="-0.600776">
        <ele>36.085</ele>
        <time>2021-05-05T14:06:40Z</time>
      </trkpt>
      <trkpt lat="38.239791" lon="-0.600725">
        <ele>36.049</ele>
        <time>2021-05-05T14:06:41Z</time>
      </trkpt>
      <trkpt lat="38.239841" lon="-0.600627">
        <ele>36.202</ele>
        <time>2021-05-05T14:06:43Z</time>
      </trkpt>
      <trkpt lat="38.239882" lon="-0.600554">
        <ele>36.322</ele>
        <time>2021-05-05T14:06:45Z</time>
      </trkpt>
      <trkpt lat="38.239909" lon="-0.600490">
        <ele>36.208</ele>
        <time>2021-05-05T14:06:46Z</time>
      </trkpt>
      <trkpt lat="38.239939" lon="-0.600439">
        <ele>36.151</ele>
        <time>2021-05-05T14:06:47Z</time>
      </trkpt>
      <trkpt lat="38.239961" lon="-0.600381">
        <ele>36.176</ele>
        <time>2021-05-05T14:06:49Z</time>
      </trkpt>
      <trkpt lat="38.239982" lon="-0.600297">
        <ele>35.746</ele>
        <time>2021-05-05T14:06:50Z</time>
      </trkpt>
      <trkpt lat="38.240002" lon="-0.600222">
        <ele>35.419</ele>
        <time>2021-05-05T14:06:52Z</time>
      </trkpt>
      <trkpt lat="38.240031" lon="-0.600153">
        <ele>35.379</ele>
        <time>2021-05-05T14:06:54Z</time>
      </trkpt>
      <trkpt lat="38.240049" lon="-0.600094">
        <ele>35.491</ele>
        <time>2021-05-05T14:06:55Z</time>
      </trkpt>
      <trkpt lat="38.240064" lon="-0.600009">
        <ele>35.488</ele>
        <time>2021-05-05T14:06:57Z</time>
      </trkpt>
      <trkpt lat="38.240071" lon="-0.599951">
        <ele>35.423</ele>
        <time>2021-05-05T14:06:58Z</time>
      </trkpt>
      <trkpt lat="38.240075" lon="-0.599890">
        <ele>35.696</ele>
        <time>2021-05-05T14:07:00Z</time>
      </trkpt>
      <trkpt lat="38.240077" lon="-0.599830">
        <ele>35.731</ele>
        <time>2021-05-05T14:07:01Z</time>
      </trkpt>
      <trkpt lat="38.240075" lon="-0.599769">
        <ele>35.624</ele>
        <time>2021-05-05T14:07:02Z</time>
      </trkpt>
      <trkpt lat="38.240073" lon="-0.599697">
        <ele>35.408</ele>
        <time>2021-05-05T14:07:04Z</time>
      </trkpt>
      <trkpt lat="38.240072" lon="-0.599630">
        <ele>35.476</ele>
        <time>2021-05-05T14:07:05Z</time>
      </trkpt>
      <trkpt lat="38.240069" lon="-0.599504">
        <ele>35.161</ele>
        <time>2021-05-05T14:07:07Z</time>
      </trkpt>
      <trkpt lat="38.240074" lon="-0.599377">
        <ele>34.961</ele>
        <time>2021-05-05T14:07:09Z</time>
      </trkpt>
      <trkpt lat="38.240075" lon="-0.599255">
        <ele>34.534</ele>
        <time>2021-05-05T14:07:11Z</time>
      </trkpt>
      <trkpt lat="38.240075" lon="-0.599193">
        <ele>34.594</ele>
        <time>2021-05-05T14:07:12Z</time>
      </trkpt>
      <trkpt lat="38.240079" lon="-0.599070">
        <ele>34.446</ele>
        <time>2021-05-05T14:07:14Z</time>
      </trkpt>
      <trkpt lat="38.240080" lon="-0.598945">
        <ele>34.853</ele>
        <time>2021-05-05T14:07:16Z</time>
      </trkpt>
      <trkpt lat="38.240080" lon="-0.598882">
        <ele>35.058</ele>
        <time>2021-05-05T14:07:17Z</time>
      </trkpt>
      <trkpt lat="38.240081" lon="-0.598818">
        <ele>35.096</ele>
        <time>2021-05-05T14:07:18Z</time>
      </trkpt>
      <trkpt lat="38.240088" lon="-0.598691">
        <ele>34.931</ele>
        <time>2021-05-05T14:07:20Z</time>
      </trkpt>
      <trkpt lat="38.240102" lon="-0.598571">
        <ele>34.924</ele>
        <time>2021-05-05T14:07:22Z</time>
      </trkpt>
      <trkpt lat="38.240110" lon="-0.598475">
        <ele>35.208</ele>
        <time>2021-05-05T14:07:24Z</time>
      </trkpt>
      <trkpt lat="38.240116" lon="-0.598382">
        <ele>35.856</ele>
        <time>2021-05-05T14:07:26Z</time>
      </trkpt>
      <trkpt lat="38.240126" lon="-0.598294">
        <ele>36.211</ele>
        <time>2021-05-05T14:07:28Z</time>
      </trkpt>
      <trkpt lat="38.240124" lon="-0.598230">
        <ele>36.321</ele>
        <time>2021-05-05T14:07:29Z</time>
      </trkpt>
      <trkpt lat="38.240133" lon="-0.598149">
        <ele>37.074</ele>
        <time>2021-05-05T14:07:31Z</time>
      </trkpt>
      <trkpt lat="38.240140" lon="-0.598087">
        <ele>37.074</ele>
        <time>2021-05-05T14:07:33Z</time>
      </trkpt>
      <trkpt lat="38.240143" lon="-0.598020">
        <ele>36.946</ele>
        <time>2021-05-05T14:07:34Z</time>
      </trkpt>
      <trkpt lat="38.240142" lon="-0.597954">
        <ele>37.093</ele>
        <time>2021-05-05T14:07:36Z</time>
      </trkpt>
      <trkpt lat="38.240125" lon="-0.597883">
        <ele>37.138</ele>
        <time>2021-05-05T14:07:39Z</time>
      </trkpt>
      <trkpt lat="38.240107" lon="-0.597814">
        <ele>37.192</ele>
        <time>2021-05-05T14:07:41Z</time>
      </trkpt>
      <trkpt lat="38.240084" lon="-0.597750">
        <ele>37.273</ele>
        <time>2021-05-05T14:07:42Z</time>
      </trkpt>
      <trkpt lat="38.240064" lon="-0.597698">
        <ele>37.220</ele>
        <time>2021-05-05T14:07:44Z</time>
      </trkpt>
      <trkpt lat="38.240032" lon="-0.597622">
        <ele>37.308</ele>
        <time>2021-05-05T14:07:46Z</time>
      </trkpt>
      <trkpt lat="38.239996" lon="-0.597542">
        <ele>37.036</ele>
        <time>2021-05-05T14:07:48Z</time>
      </trkpt>
      <trkpt lat="38.239956" lon="-0.597462">
        <ele>37.161</ele>
        <time>2021-05-05T14:07:49Z</time>
      </trkpt>
      <trkpt lat="38.239918" lon="-0.597395">
        <ele>37.181</ele>
        <time>2021-05-05T14:07:51Z</time>
      </trkpt>
      <trkpt lat="38.239886" lon="-0.597343">
        <ele>37.034</ele>
        <time>2021-05-05T14:07:52Z</time>
      </trkpt>
      <trkpt lat="38.239852" lon="-0.597288">
        <ele>36.924</ele>
        <time>2021-05-05T14:07:54Z</time>
      </trkpt>
      <trkpt lat="38.239809" lon="-0.597207">
        <ele>36.916</ele>
        <time>2021-05-05T14:07:55Z</time>
      </trkpt>
      <trkpt lat="38.239762" lon="-0.597125">
        <ele>36.873</ele>
        <time>2021-05-05T14:07:57Z</time>
      </trkpt>
      <trkpt lat="38.239727" lon="-0.597061">
        <ele>36.678</ele>
        <time>2021-05-05T14:07:58Z</time>
      </trkpt>
      <trkpt lat="38.239703" lon="-0.597011">
        <ele>36.556</ele>
        <time>2021-05-05T14:07:59Z</time>
      </trkpt>
      <trkpt lat="38.239652" lon="-0.596928">
        <ele>36.459</ele>
        <time>2021-05-05T14:08:01Z</time>
      </trkpt>
      <trkpt lat="38.239644" lon="-0.596855">
        <ele>36.514</ele>
        <time>2021-05-05T14:08:03Z</time>
      </trkpt>
      <trkpt lat="38.239685" lon="-0.596815">
        <ele>36.608</ele>
        <time>2021-05-05T14:08:04Z</time>
      </trkpt>
      <trkpt lat="38.239738" lon="-0.596811">
        <ele>36.732</ele>
        <time>2021-05-05T14:08:06Z</time>
      </trkpt>
      <trkpt lat="38.239794" lon="-0.596816">
        <ele>36.457</ele>
        <time>2021-05-05T14:08:07Z</time>
      </trkpt>
      <trkpt lat="38.239853" lon="-0.596850">
        <ele>36.327</ele>
        <time>2021-05-05T14:08:09Z</time>
      </trkpt>
      <trkpt lat="38.239905" lon="-0.596888">
        <ele>36.510</ele>
        <time>2021-05-05T14:08:12Z</time>
      </trkpt>
      <trkpt lat="38.239963" lon="-0.596913">
        <ele>36.310</ele>
        <time>2021-05-05T14:08:13Z</time>
      </trkpt>
      <trkpt lat="38.240016" lon="-0.596947">
        <ele>36.322</ele>
        <time>2021-05-05T14:08:15Z</time>
      </trkpt>
      <trkpt lat="38.240066" lon="-0.596977">
        <ele>36.239</ele>
        <time>2021-05-05T14:08:17Z</time>
      </trkpt>
      <trkpt lat="38.240110" lon="-0.597003">
        <ele>36.244</ele>
        <time>2021-05-05T14:08:19Z</time>
      </trkpt>
      <trkpt lat="38.240172" lon="-0.597033">
        <ele>36.125</ele>
        <time>2021-05-05T14:08:21Z</time>
      </trkpt>
      <trkpt lat="38.240230" lon="-0.597012">
        <ele>35.626</ele>
        <time>2021-05-05T14:08:22Z</time>
      </trkpt>
      <trkpt lat="38.240259" lon="-0.596959">
        <ele>35.308</ele>
        <time>2021-05-05T14:08:24Z</time>
      </trkpt>
      <trkpt lat="38.240292" lon="-0.596903">
        <ele>35.108</ele>
        <time>2021-05-05T14:08:26Z</time>
      </trkpt>
      <trkpt lat="38.240333" lon="-0.596852">
        <ele>34.819</ele>
        <time>2021-05-05T14:08:27Z</time>
      </trkpt>
      <trkpt lat="38.240370" lon="-0.596816">
        <ele>34.774</ele>
        <time>2021-05-05T14:08:28Z</time>
      </trkpt>
      <trkpt lat="38.240431" lon="-0.596749">
        <ele>35.024</ele>
        <time>2021-05-05T14:08:30Z</time>
      </trkpt>
      <trkpt lat="38.240468" lon="-0.596699">
        <ele>35.177</ele>
        <time>2021-05-05T14:08:32Z</time>
      </trkpt>
      <trkpt lat="38.240515" lon="-0.596636">
        <ele>35.137</ele>
        <time>2021-05-05T14:08:33Z</time>
      </trkpt>
      <trkpt lat="38.240565" lon="-0.596560">
        <ele>35.099</ele>
        <time>2021-05-05T14:08:35Z</time>
      </trkpt>
      <trkpt lat="38.240627" lon="-0.596459">
        <ele>34.796</ele>
        <time>2021-05-05T14:08:37Z</time>
      </trkpt>
      <trkpt lat="38.240691" lon="-0.596350">
        <ele>34.571</ele>
        <time>2021-05-05T14:08:39Z</time>
      </trkpt>
      <trkpt lat="38.240727" lon="-0.596300">
        <ele>34.261</ele>
        <time>2021-05-05T14:08:40Z</time>
      </trkpt>
      <trkpt lat="38.240763" lon="-0.596252">
        <ele>33.621</ele>
        <time>2021-05-05T14:08:41Z</time>
      </trkpt>
      <trkpt lat="38.240798" lon="-0.596206">
        <ele>33.413</ele>
        <time>2021-05-05T14:08:42Z</time>
      </trkpt>
      <trkpt lat="38.240865" lon="-0.596113">
        <ele>33.308</ele>
        <time>2021-05-05T14:08:44Z</time>
      </trkpt>
      <trkpt lat="38.240899" lon="-0.596065">
        <ele>33.153</ele>
        <time>2021-05-05T14:08:45Z</time>
      </trkpt>
      <trkpt lat="38.240932" lon="-0.596019">
        <ele>33.198</ele>
        <time>2021-05-05T14:08:46Z</time>
      </trkpt>
      <trkpt lat="38.241000" lon="-0.595933">
        <ele>32.768</ele>
        <time>2021-05-05T14:08:48Z</time>
      </trkpt>
      <trkpt lat="38.241034" lon="-0.595893">
        <ele>32.461</ele>
        <time>2021-05-05T14:08:49Z</time>
      </trkpt>
      <trkpt lat="38.241067" lon="-0.595851">
        <ele>32.311</ele>
        <time>2021-05-05T14:08:50Z</time>
      </trkpt>
      <trkpt lat="38.241134" lon="-0.595762">
        <ele>32.683</ele>
        <time>2021-05-05T14:08:52Z</time>
      </trkpt>
      <trkpt lat="38.241197" lon="-0.595673">
        <ele>33.010</ele>
        <time>2021-05-05T14:08:54Z</time>
      </trkpt>
      <trkpt lat="38.241229" lon="-0.595627">
        <ele>32.835</ele>
        <time>2021-05-05T14:08:55Z</time>
      </trkpt>
      <trkpt lat="38.241289" lon="-0.595532">
        <ele>33.054</ele>
        <time>2021-05-05T14:08:57Z</time>
      </trkpt>
      <trkpt lat="38.241312" lon="-0.595477">
        <ele>32.856</ele>
        <time>2021-05-05T14:08:58Z</time>
      </trkpt>
      <trkpt lat="38.241347" lon="-0.595358">
        <ele>33.011</ele>
        <time>2021-05-05T14:09:00Z</time>
      </trkpt>
      <trkpt lat="38.241371" lon="-0.595239">
        <ele>32.908</ele>
        <time>2021-05-05T14:09:02Z</time>
      </trkpt>
      <trkpt lat="38.241394" lon="-0.595116">
        <ele>32.962</ele>
        <time>2021-05-05T14:09:04Z</time>
      </trkpt>
      <trkpt lat="38.241419" lon="-0.594994">
        <ele>33.147</ele>
        <time>2021-05-05T14:09:06Z</time>
      </trkpt>
      <trkpt lat="38.241442" lon="-0.594871">
        <ele>33.277</ele>
        <time>2021-05-05T14:09:08Z</time>
      </trkpt>
      <trkpt lat="38.241442" lon="-0.594741">
        <ele>33.320</ele>
        <time>2021-05-05T14:09:10Z</time>
      </trkpt>
      <trkpt lat="38.241442" lon="-0.594678">
        <ele>33.250</ele>
        <time>2021-05-05T14:09:11Z</time>
      </trkpt>
      <trkpt lat="38.241446" lon="-0.594614">
        <ele>33.012</ele>
        <time>2021-05-05T14:09:12Z</time>
      </trkpt>
      <trkpt lat="38.241456" lon="-0.594486">
        <ele>32.989</ele>
        <time>2021-05-05T14:09:14Z</time>
      </trkpt>
      <trkpt lat="38.241455" lon="-0.594421">
        <ele>32.694</ele>
        <time>2021-05-05T14:09:15Z</time>
      </trkpt>
      <trkpt lat="38.241445" lon="-0.594289">
        <ele>32.249</ele>
        <time>2021-05-05T14:09:17Z</time>
      </trkpt>
      <trkpt lat="38.241431" lon="-0.594163">
        <ele>32.202</ele>
        <time>2021-05-05T14:09:19Z</time>
      </trkpt>
      <trkpt lat="38.241421" lon="-0.594101">
        <ele>32.122</ele>
        <time>2021-05-05T14:09:20Z</time>
      </trkpt>
      <trkpt lat="38.241411" lon="-0.594041">
        <ele>32.108</ele>
        <time>2021-05-05T14:09:21Z</time>
      </trkpt>
      <trkpt lat="38.241389" lon="-0.593922">
        <ele>32.461</ele>
        <time>2021-05-05T14:09:23Z</time>
      </trkpt>
      <trkpt lat="38.241376" lon="-0.593863">
        <ele>32.336</ele>
        <time>2021-05-05T14:09:24Z</time>
      </trkpt>
      <trkpt lat="38.241353" lon="-0.593749">
        <ele>32.336</ele>
        <time>2021-05-05T14:09:25Z</time>
      </trkpt>
      <trkpt lat="38.241340" lon="-0.593690">
        <ele>32.229</ele>
        <time>2021-05-05T14:09:27Z</time>
      </trkpt>
      <trkpt lat="38.241315" lon="-0.593576">
        <ele>32.279</ele>
        <time>2021-05-05T14:09:29Z</time>
      </trkpt>
      <trkpt lat="38.241293" lon="-0.593460">
        <ele>32.061</ele>
        <time>2021-05-05T14:09:31Z</time>
      </trkpt>
      <trkpt lat="38.241281" lon="-0.593405">
        <ele>32.128</ele>
        <time>2021-05-05T14:09:32Z</time>
      </trkpt>
      <trkpt lat="38.241265" lon="-0.593321">
        <ele>31.933</ele>
        <time>2021-05-05T14:09:34Z</time>
      </trkpt>
      <trkpt lat="38.241243" lon="-0.593201">
        <ele>32.044</ele>
        <time>2021-05-05T14:09:36Z</time>
      </trkpt>
      <trkpt lat="38.241225" lon="-0.593097">
        <ele>32.205</ele>
        <time>2021-05-05T14:09:38Z</time>
      </trkpt>
      <trkpt lat="38.241205" lon="-0.593015">
        <ele>32.515</ele>
        <time>2021-05-05T14:09:39Z</time>
      </trkpt>
      <trkpt lat="38.241176" lon="-0.592934">
        <ele>32.608</ele>
        <time>2021-05-05T14:09:41Z</time>
      </trkpt>
      <trkpt lat="38.241176" lon="-0.592860">
        <ele>32.471</ele>
        <time>2021-05-05T14:09:43Z</time>
      </trkpt>
      <trkpt lat="38.241172" lon="-0.592756">
        <ele>32.726</ele>
        <time>2021-05-05T14:09:44Z</time>
      </trkpt>
      <trkpt lat="38.241153" lon="-0.592662">
        <ele>32.696</ele>
        <time>2021-05-05T14:09:46Z</time>
      </trkpt>
      <trkpt lat="38.241135" lon="-0.592589">
        <ele>32.999</ele>
        <time>2021-05-05T14:09:48Z</time>
      </trkpt>
      <trkpt lat="38.241118" lon="-0.592522">
        <ele>33.069</ele>
        <time>2021-05-05T14:09:49Z</time>
      </trkpt>
      <trkpt lat="38.241100" lon="-0.592463">
        <ele>33.111</ele>
        <time>2021-05-05T14:09:50Z</time>
      </trkpt>
      <trkpt lat="38.241078" lon="-0.592383">
        <ele>33.448</ele>
        <time>2021-05-05T14:09:52Z</time>
      </trkpt>
      <trkpt lat="38.241058" lon="-0.592305">
        <ele>33.433</ele>
        <time>2021-05-05T14:09:54Z</time>
      </trkpt>
      <trkpt lat="38.241045" lon="-0.592250">
        <ele>33.816</ele>
        <time>2021-05-05T14:09:55Z</time>
      </trkpt>
      <trkpt lat="38.241034" lon="-0.592191">
        <ele>34.176</ele>
        <time>2021-05-05T14:09:56Z</time>
      </trkpt>
      <trkpt lat="38.241023" lon="-0.592134">
        <ele>34.213</ele>
        <time>2021-05-05T14:09:57Z</time>
      </trkpt>
      <trkpt lat="38.241001" lon="-0.592037">
        <ele>34.208</ele>
        <time>2021-05-05T14:09:59Z</time>
      </trkpt>
      <trkpt lat="38.240987" lon="-0.591977">
        <ele>34.318</ele>
        <time>2021-05-05T14:10:00Z</time>
      </trkpt>
      <trkpt lat="38.240972" lon="-0.591914">
        <ele>34.373</ele>
        <time>2021-05-05T14:10:01Z</time>
      </trkpt>
      <trkpt lat="38.240951" lon="-0.591801">
        <ele>34.483</ele>
        <time>2021-05-05T14:10:04Z</time>
      </trkpt>
      <trkpt lat="38.240940" lon="-0.591731">
        <ele>34.256</ele>
        <time>2021-05-05T14:10:05Z</time>
      </trkpt>
      <trkpt lat="38.240915" lon="-0.591628">
        <ele>34.026</ele>
        <time>2021-05-05T14:10:07Z</time>
      </trkpt>
      <trkpt lat="38.240888" lon="-0.591523">
        <ele>34.298</ele>
        <time>2021-05-05T14:10:09Z</time>
      </trkpt>
      <trkpt lat="38.240864" lon="-0.591399">
        <ele>34.355</ele>
        <time>2021-05-05T14:10:11Z</time>
      </trkpt>
      <trkpt lat="38.240852" lon="-0.591338">
        <ele>34.550</ele>
        <time>2021-05-05T14:10:12Z</time>
      </trkpt>
      <trkpt lat="38.240827" lon="-0.591224">
        <ele>34.862</ele>
        <time>2021-05-05T14:10:14Z</time>
      </trkpt>
      <trkpt lat="38.240810" lon="-0.591115">
        <ele>34.883</ele>
        <time>2021-05-05T14:10:15Z</time>
      </trkpt>
      <trkpt lat="38.240800" lon="-0.591056">
        <ele>34.811</ele>
        <time>2021-05-05T14:10:17Z</time>
      </trkpt>
      <trkpt lat="38.240781" lon="-0.590941">
        <ele>34.508</ele>
        <time>2021-05-05T14:10:19Z</time>
      </trkpt>
      <trkpt lat="38.240777" lon="-0.590882">
        <ele>34.663</ele>
        <time>2021-05-05T14:10:20Z</time>
      </trkpt>
      <trkpt lat="38.240782" lon="-0.590767">
        <ele>34.338</ele>
        <time>2021-05-05T14:10:21Z</time>
      </trkpt>
      <trkpt lat="38.240789" lon="-0.590709">
        <ele>34.358</ele>
        <time>2021-05-05T14:10:23Z</time>
      </trkpt>
      <trkpt lat="38.240799" lon="-0.590652">
        <ele>34.251</ele>
        <time>2021-05-05T14:10:24Z</time>
      </trkpt>
      <trkpt lat="38.240820" lon="-0.590534">
        <ele>34.061</ele>
        <time>2021-05-05T14:10:26Z</time>
      </trkpt>
      <trkpt lat="38.240836" lon="-0.590475">
        <ele>33.943</ele>
        <time>2021-05-05T14:10:27Z</time>
      </trkpt>
      <trkpt lat="38.240877" lon="-0.590361">
        <ele>34.030</ele>
        <time>2021-05-05T14:10:29Z</time>
      </trkpt>
      <trkpt lat="38.240918" lon="-0.590249">
        <ele>33.965</ele>
        <time>2021-05-05T14:10:31Z</time>
      </trkpt>
      <trkpt lat="38.240961" lon="-0.590141">
        <ele>33.932</ele>
        <time>2021-05-05T14:10:33Z</time>
      </trkpt>
      <trkpt lat="38.240984" lon="-0.590087">
        <ele>33.992</ele>
        <time>2021-05-05T14:10:34Z</time>
      </trkpt>
      <trkpt lat="38.241006" lon="-0.590034">
        <ele>34.011</ele>
        <time>2021-05-05T14:10:35Z</time>
      </trkpt>
      <trkpt lat="38.241048" lon="-0.589923">
        <ele>34.308</ele>
        <time>2021-05-05T14:10:37Z</time>
      </trkpt>
      <trkpt lat="38.241098" lon="-0.589810">
        <ele>34.460</ele>
        <time>2021-05-05T14:10:39Z</time>
      </trkpt>
      <trkpt lat="38.241123" lon="-0.589752">
        <ele>34.125</ele>
        <time>2021-05-05T14:10:40Z</time>
      </trkpt>
      <trkpt lat="38.241147" lon="-0.589691">
        <ele>34.055</ele>
        <time>2021-05-05T14:10:41Z</time>
      </trkpt>
      <trkpt lat="38.241197" lon="-0.589573">
        <ele>34.068</ele>
        <time>2021-05-05T14:10:43Z</time>
      </trkpt>
      <trkpt lat="38.241247" lon="-0.589460">
        <ele>33.898</ele>
        <time>2021-05-05T14:10:45Z</time>
      </trkpt>
      <trkpt lat="38.241273" lon="-0.589403">
        <ele>34.070</ele>
        <time>2021-05-05T14:10:46Z</time>
      </trkpt>
      <trkpt lat="38.241320" lon="-0.589288">
        <ele>34.347</ele>
        <time>2021-05-05T14:10:48Z</time>
      </trkpt>
      <trkpt lat="38.241365" lon="-0.589175">
        <ele>34.572</ele>
        <time>2021-05-05T14:10:50Z</time>
      </trkpt>
      <trkpt lat="38.241411" lon="-0.589058">
        <ele>34.388</ele>
        <time>2021-05-05T14:10:52Z</time>
      </trkpt>
      <trkpt lat="38.241433" lon="-0.589000">
        <ele>34.324</ele>
        <time>2021-05-05T14:10:53Z</time>
      </trkpt>
      <trkpt lat="38.241477" lon="-0.588889">
        <ele>34.326</ele>
        <time>2021-05-05T14:10:55Z</time>
      </trkpt>
      <trkpt lat="38.241521" lon="-0.588783">
        <ele>34.408</ele>
        <time>2021-05-05T14:10:57Z</time>
      </trkpt>
      <trkpt lat="38.241542" lon="-0.588729">
        <ele>34.595</ele>
        <time>2021-05-05T14:10:58Z</time>
      </trkpt>
      <trkpt lat="38.241580" lon="-0.588619">
        <ele>34.390</ele>
        <time>2021-05-05T14:11:00Z</time>
      </trkpt>
      <trkpt lat="38.241615" lon="-0.588505">
        <ele>34.640</ele>
        <time>2021-05-05T14:11:02Z</time>
      </trkpt>
      <trkpt lat="38.241643" lon="-0.588393">
        <ele>34.443</ele>
        <time>2021-05-05T14:11:04Z</time>
      </trkpt>
      <trkpt lat="38.241653" lon="-0.588332">
        <ele>34.133</ele>
        <time>2021-05-05T14:11:05Z</time>
      </trkpt>
      <trkpt lat="38.241661" lon="-0.588270">
        <ele>34.075</ele>
        <time>2021-05-05T14:11:06Z</time>
      </trkpt>
      <trkpt lat="38.241668" lon="-0.588208">
        <ele>34.122</ele>
        <time>2021-05-05T14:11:07Z</time>
      </trkpt>
      <trkpt lat="38.241669" lon="-0.588084">
        <ele>33.937</ele>
        <time>2021-05-05T14:11:09Z</time>
      </trkpt>
      <trkpt lat="38.241648" lon="-0.587957">
        <ele>33.762</ele>
        <time>2021-05-05T14:11:11Z</time>
      </trkpt>
      <trkpt lat="38.241635" lon="-0.587891">
        <ele>33.683</ele>
        <time>2021-05-05T14:11:12Z</time>
      </trkpt>
      <trkpt lat="38.241618" lon="-0.587761">
        <ele>33.511</ele>
        <time>2021-05-05T14:11:14Z</time>
      </trkpt>
      <trkpt lat="38.241604" lon="-0.587641">
        <ele>33.108</ele>
        <time>2021-05-05T14:11:16Z</time>
      </trkpt>
      <trkpt lat="38.241588" lon="-0.587549">
        <ele>32.993</ele>
        <time>2021-05-05T14:11:18Z</time>
      </trkpt>
      <trkpt lat="38.241575" lon="-0.587470">
        <ele>32.868</ele>
        <time>2021-05-05T14:11:20Z</time>
      </trkpt>
      <trkpt lat="38.241562" lon="-0.587378">
        <ele>32.798</ele>
        <time>2021-05-05T14:11:22Z</time>
      </trkpt>
      <trkpt lat="38.241558" lon="-0.587312">
        <ele>32.891</ele>
        <time>2021-05-05T14:11:24Z</time>
      </trkpt>
      <trkpt lat="38.241560" lon="-0.587240">
        <ele>32.751</ele>
        <time>2021-05-05T14:11:26Z</time>
      </trkpt>
      <trkpt lat="38.241560" lon="-0.587168">
        <ele>32.973</ele>
        <time>2021-05-05T14:11:27Z</time>
      </trkpt>
      <trkpt lat="38.241567" lon="-0.587099">
        <ele>32.850</ele>
        <time>2021-05-05T14:11:30Z</time>
      </trkpt>
      <trkpt lat="38.241566" lon="-0.587017">
        <ele>32.845</ele>
        <time>2021-05-05T14:11:33Z</time>
      </trkpt>
      <trkpt lat="38.241565" lon="-0.586921">
        <ele>32.737</ele>
        <time>2021-05-05T14:11:35Z</time>
      </trkpt>
      <trkpt lat="38.241585" lon="-0.586869">
        <ele>32.949</ele>
        <time>2021-05-05T14:11:37Z</time>
      </trkpt>
      <trkpt lat="38.241591" lon="-0.586789">
        <ele>32.813</ele>
        <time>2021-05-05T14:11:39Z</time>
      </trkpt>
      <trkpt lat="38.241590" lon="-0.586710">
        <ele>33.008</ele>
        <time>2021-05-05T14:11:41Z</time>
      </trkpt>
      <trkpt lat="38.241603" lon="-0.586627">
        <ele>33.060</ele>
        <time>2021-05-05T14:11:42Z</time>
      </trkpt>
      <trkpt lat="38.241625" lon="-0.586555">
        <ele>33.255</ele>
        <time>2021-05-05T14:11:45Z</time>
      </trkpt>
      <trkpt lat="38.241640" lon="-0.586486">
        <ele>33.055</ele>
        <time>2021-05-05T14:11:46Z</time>
      </trkpt>
      <trkpt lat="38.241656" lon="-0.586417">
        <ele>33.048</ele>
        <time>2021-05-05T14:11:49Z</time>
      </trkpt>
      <trkpt lat="38.241677" lon="-0.586356">
        <ele>32.818</ele>
        <time>2021-05-05T14:11:51Z</time>
      </trkpt>
      <trkpt lat="38.241692" lon="-0.586290">
        <ele>32.970</ele>
        <time>2021-05-05T14:11:53Z</time>
      </trkpt>
      <trkpt lat="38.241700" lon="-0.586218">
        <ele>32.957</ele>
        <time>2021-05-05T14:11:55Z</time>
      </trkpt>
      <trkpt lat="38.241715" lon="-0.586155">
        <ele>33.182</ele>
        <time>2021-05-05T14:11:57Z</time>
      </trkpt>
      <trkpt lat="38.241728" lon="-0.586095">
        <ele>33.168</ele>
        <time>2021-05-05T14:11:58Z</time>
      </trkpt>
      <trkpt lat="38.241750" lon="-0.586022">
        <ele>33.242</ele>
        <time>2021-05-05T14:12:01Z</time>
      </trkpt>
      <trkpt lat="38.241774" lon="-0.585945">
        <ele>33.026</ele>
        <time>2021-05-05T14:12:04Z</time>
      </trkpt>
      <trkpt lat="38.241785" lon="-0.585883">
        <ele>32.808</ele>
        <time>2021-05-05T14:12:07Z</time>
      </trkpt>
      <trkpt lat="38.241800" lon="-0.585818">
        <ele>32.723</ele>
        <time>2021-05-05T14:12:08Z</time>
      </trkpt>
      <trkpt lat="38.241817" lon="-0.585731">
        <ele>32.348</ele>
        <time>2021-05-05T14:12:10Z</time>
      </trkpt>
      <trkpt lat="38.241842" lon="-0.585650">
        <ele>32.738</ele>
        <time>2021-05-05T14:12:12Z</time>
      </trkpt>
      <trkpt lat="38.241862" lon="-0.585571">
        <ele>32.961</ele>
        <time>2021-05-05T14:12:14Z</time>
      </trkpt>
      <trkpt lat="38.241878" lon="-0.585499">
        <ele>32.981</ele>
        <time>2021-05-05T14:12:16Z</time>
      </trkpt>
      <trkpt lat="38.241894" lon="-0.585432">
        <ele>33.043</ele>
        <time>2021-05-05T14:12:17Z</time>
      </trkpt>
      <trkpt lat="38.241914" lon="-0.585374">
        <ele>33.060</ele>
        <time>2021-05-05T14:12:19Z</time>
      </trkpt>
      <trkpt lat="38.241928" lon="-0.585281">
        <ele>33.085</ele>
        <time>2021-05-05T14:12:21Z</time>
      </trkpt>
      <trkpt lat="38.241949" lon="-0.585188">
        <ele>32.853</ele>
        <time>2021-05-05T14:12:22Z</time>
      </trkpt>
      <trkpt lat="38.241970" lon="-0.585086">
        <ele>33.004</ele>
        <time>2021-05-05T14:12:25Z</time>
      </trkpt>
      <trkpt lat="38.241990" lon="-0.585002">
        <ele>33.214</ele>
        <time>2021-05-05T14:12:26Z</time>
      </trkpt>
      <trkpt lat="38.242004" lon="-0.584936">
        <ele>33.308</ele>
        <time>2021-05-05T14:12:28Z</time>
      </trkpt>
      <trkpt lat="38.242030" lon="-0.584836">
        <ele>33.062</ele>
        <time>2021-05-05T14:12:30Z</time>
      </trkpt>
      <trkpt lat="38.242049" lon="-0.584757">
        <ele>33.117</ele>
        <time>2021-05-05T14:12:31Z</time>
      </trkpt>
      <trkpt lat="38.242064" lon="-0.584683">
        <ele>32.957</ele>
        <time>2021-05-05T14:12:33Z</time>
      </trkpt>
      <trkpt lat="38.242091" lon="-0.584578">
        <ele>32.510</ele>
        <time>2021-05-05T14:12:34Z</time>
      </trkpt>
      <trkpt lat="38.242121" lon="-0.584484">
        <ele>32.360</ele>
        <time>2021-05-05T14:12:36Z</time>
      </trkpt>
      <trkpt lat="38.242158" lon="-0.584404">
        <ele>32.122</ele>
        <time>2021-05-05T14:12:38Z</time>
      </trkpt>
      <trkpt lat="38.242192" lon="-0.584343">
        <ele>31.879</ele>
        <time>2021-05-05T14:12:39Z</time>
      </trkpt>
      <trkpt lat="38.242226" lon="-0.584273">
        <ele>31.814</ele>
        <time>2021-05-05T14:12:41Z</time>
      </trkpt>
      <trkpt lat="38.242254" lon="-0.584188">
        <ele>31.941</ele>
        <time>2021-05-05T14:12:43Z</time>
      </trkpt>
      <trkpt lat="38.242291" lon="-0.584148">
        <ele>32.181</ele>
        <time>2021-05-05T14:12:46Z</time>
      </trkpt>
      <trkpt lat="38.242325" lon="-0.584107">
        <ele>32.209</ele>
        <time>2021-05-05T14:12:47Z</time>
      </trkpt>
      <trkpt lat="38.242369" lon="-0.584066">
        <ele>32.108</ele>
        <time>2021-05-05T14:12:49Z</time>
      </trkpt>
      <trkpt lat="38.242410" lon="-0.584024">
        <ele>31.751</ele>
        <time>2021-05-05T14:12:52Z</time>
      </trkpt>
      <trkpt lat="38.242461" lon="-0.583978">
        <ele>31.786</ele>
        <time>2021-05-05T14:12:54Z</time>
      </trkpt>
      <trkpt lat="38.242507" lon="-0.583942">
        <ele>31.836</ele>
        <time>2021-05-05T14:12:56Z</time>
      </trkpt>
      <trkpt lat="38.242550" lon="-0.583912">
        <ele>31.949</ele>
        <time>2021-05-05T14:12:58Z</time>
      </trkpt>
      <trkpt lat="38.242609" lon="-0.583863">
        <ele>31.829</ele>
        <time>2021-05-05T14:13:00Z</time>
      </trkpt>
      <trkpt lat="38.242659" lon="-0.583813">
        <ele>31.841</ele>
        <time>2021-05-05T14:13:02Z</time>
      </trkpt>
      <trkpt lat="38.242710" lon="-0.583762">
        <ele>32.278</ele>
        <time>2021-05-05T14:13:04Z</time>
      </trkpt>
      <trkpt lat="38.242750" lon="-0.583731">
        <ele>32.683</ele>
        <time>2021-05-05T14:13:05Z</time>
      </trkpt>
      <trkpt lat="38.242802" lon="-0.583687">
        <ele>33.087</ele>
        <time>2021-05-05T14:13:07Z</time>
      </trkpt>
      <trkpt lat="38.242843" lon="-0.583651">
        <ele>33.242</ele>
        <time>2021-05-05T14:13:09Z</time>
      </trkpt>
      <trkpt lat="38.242892" lon="-0.583606">
        <ele>33.426</ele>
        <time>2021-05-05T14:13:10Z</time>
      </trkpt>
      <trkpt lat="38.242943" lon="-0.583564">
        <ele>33.908</ele>
        <time>2021-05-05T14:13:12Z</time>
      </trkpt>
      <trkpt lat="38.242999" lon="-0.583524">
        <ele>34.195</ele>
        <time>2021-05-05T14:13:13Z</time>
      </trkpt>
      <trkpt lat="38.243053" lon="-0.583474">
        <ele>34.130</ele>
        <time>2021-05-05T14:13:15Z</time>
      </trkpt>
      <trkpt lat="38.243099" lon="-0.583437">
        <ele>34.320</ele>
        <time>2021-05-05T14:13:17Z</time>
      </trkpt>
      <trkpt lat="38.243153" lon="-0.583380">
        <ele>34.583</ele>
        <time>2021-05-05T14:13:18Z</time>
      </trkpt>
      <trkpt lat="38.243215" lon="-0.583301">
        <ele>34.483</ele>
        <time>2021-05-05T14:13:20Z</time>
      </trkpt>
      <trkpt lat="38.243269" lon="-0.583258">
        <ele>34.585</ele>
        <time>2021-05-05T14:13:22Z</time>
      </trkpt>
      <trkpt lat="38.243313" lon="-0.583222">
        <ele>34.732</ele>
        <time>2021-05-05T14:13:23Z</time>
      </trkpt>
      <trkpt lat="38.243374" lon="-0.583165">
        <ele>34.937</ele>
        <time>2021-05-05T14:13:25Z</time>
      </trkpt>
      <trkpt lat="38.243442" lon="-0.583099">
        <ele>35.051</ele>
        <time>2021-05-05T14:13:27Z</time>
      </trkpt>
      <trkpt lat="38.243510" lon="-0.583025">
        <ele>35.201</ele>
        <time>2021-05-05T14:13:29Z</time>
      </trkpt>
      <trkpt lat="38.243579" lon="-0.582945">
        <ele>35.411</ele>
        <time>2021-05-05T14:13:31Z</time>
      </trkpt>
      <trkpt lat="38.243635" lon="-0.582848">
        <ele>35.308</ele>
        <time>2021-05-05T14:13:33Z</time>
      </trkpt>
      <trkpt lat="38.243696" lon="-0.582756">
        <ele>35.382</ele>
        <time>2021-05-05T14:13:35Z</time>
      </trkpt>
      <trkpt lat="38.243758" lon="-0.582664">
        <ele>35.587</ele>
        <time>2021-05-05T14:13:37Z</time>
      </trkpt>
      <trkpt lat="38.243790" lon="-0.582615">
        <ele>35.467</ele>
        <time>2021-05-05T14:13:38Z</time>
      </trkpt>
      <trkpt lat="38.243853" lon="-0.582522">
        <ele>35.550</ele>
        <time>2021-05-05T14:13:40Z</time>
      </trkpt>
      <trkpt lat="38.243915" lon="-0.582433">
        <ele>35.450</ele>
        <time>2021-05-05T14:13:41Z</time>
      </trkpt>
      <trkpt lat="38.243950" lon="-0.582388">
        <ele>35.022</ele>
        <time>2021-05-05T14:13:43Z</time>
      </trkpt>
      <trkpt lat="38.244013" lon="-0.582298">
        <ele>35.089</ele>
        <time>2021-05-05T14:13:45Z</time>
      </trkpt>
      <trkpt lat="38.244062" lon="-0.582225">
        <ele>34.824</ele>
        <time>2021-05-05T14:13:47Z</time>
      </trkpt>
      <trkpt lat="38.244108" lon="-0.582152">
        <ele>34.527</ele>
        <time>2021-05-05T14:13:49Z</time>
      </trkpt>
      <trkpt lat="38.244149" lon="-0.582097">
        <ele>34.768</ele>
        <time>2021-05-05T14:13:51Z</time>
      </trkpt>
      <trkpt lat="38.244177" lon="-0.582029">
        <ele>34.514</ele>
        <time>2021-05-05T14:13:52Z</time>
      </trkpt>
      <trkpt lat="38.244242" lon="-0.581963">
        <ele>34.508</ele>
        <time>2021-05-05T14:13:54Z</time>
      </trkpt>
      <trkpt lat="38.244336" lon="-0.581869">
        <ele>34.799</ele>
        <time>2021-05-05T14:13:55Z</time>
      </trkpt>
      <trkpt lat="38.244377" lon="-0.581830">
        <ele>34.784</ele>
        <time>2021-05-05T14:13:57Z</time>
      </trkpt>
      <trkpt lat="38.244456" lon="-0.581757">
        <ele>34.674</ele>
        <time>2021-05-05T14:13:58Z</time>
      </trkpt>
      <trkpt lat="38.244495" lon="-0.581723">
        <ele>34.667</ele>
        <time>2021-05-05T14:14:00Z</time>
      </trkpt>
      <trkpt lat="38.244573" lon="-0.581653">
        <ele>34.547</ele>
        <time>2021-05-05T14:14:02Z</time>
      </trkpt>
      <trkpt lat="38.244652" lon="-0.581584">
        <ele>34.379</ele>
        <time>2021-05-05T14:14:04Z</time>
      </trkpt>
      <trkpt lat="38.244694" lon="-0.581553">
        <ele>34.296</ele>
        <time>2021-05-05T14:14:05Z</time>
      </trkpt>
      <trkpt lat="38.244736" lon="-0.581521">
        <ele>34.151</ele>
        <time>2021-05-05T14:14:06Z</time>
      </trkpt>
      <trkpt lat="38.244816" lon="-0.581455">
        <ele>34.046</ele>
        <time>2021-05-05T14:14:08Z</time>
      </trkpt>
      <trkpt lat="38.244892" lon="-0.581386">
        <ele>34.188</ele>
        <time>2021-05-05T14:14:10Z</time>
      </trkpt>
      <trkpt lat="38.244957" lon="-0.581334">
        <ele>33.716</ele>
        <time>2021-05-05T14:14:12Z</time>
      </trkpt>
      <trkpt lat="38.245026" lon="-0.581272">
        <ele>33.808</ele>
        <time>2021-05-05T14:14:14Z</time>
      </trkpt>
      <trkpt lat="38.245087" lon="-0.581218">
        <ele>33.521</ele>
        <time>2021-05-05T14:14:16Z</time>
      </trkpt>
      <trkpt lat="38.245144" lon="-0.581183">
        <ele>33.676</ele>
        <time>2021-05-05T14:14:17Z</time>
      </trkpt>
      <trkpt lat="38.245202" lon="-0.581145">
        <ele>33.636</ele>
        <time>2021-05-05T14:14:19Z</time>
      </trkpt>
      <trkpt lat="38.245241" lon="-0.581096">
        <ele>33.379</ele>
        <time>2021-05-05T14:14:21Z</time>
      </trkpt>
      <trkpt lat="38.245294" lon="-0.581057">
        <ele>33.159</ele>
        <time>2021-05-05T14:14:22Z</time>
      </trkpt>
      <trkpt lat="38.245340" lon="-0.581038">
        <ele>33.241</ele>
        <time>2021-05-05T14:14:23Z</time>
      </trkpt>
      <trkpt lat="38.245386" lon="-0.581015">
        <ele>33.488</ele>
        <time>2021-05-05T14:14:24Z</time>
      </trkpt>
      <trkpt lat="38.245441" lon="-0.580989">
        <ele>33.423</ele>
        <time>2021-05-05T14:14:26Z</time>
      </trkpt>
      <trkpt lat="38.245503" lon="-0.580968">
        <ele>33.551</ele>
        <time>2021-05-05T14:14:27Z</time>
      </trkpt>
      <trkpt lat="38.245554" lon="-0.580960">
        <ele>33.601</ele>
        <time>2021-05-05T14:14:29Z</time>
      </trkpt>
      <trkpt lat="38.245610" lon="-0.580949">
        <ele>33.411</ele>
        <time>2021-05-05T14:14:30Z</time>
      </trkpt>
      <trkpt lat="38.245696" lon="-0.580930">
        <ele>33.708</ele>
        <time>2021-05-05T14:14:32Z</time>
      </trkpt>
      <trkpt lat="38.245773" lon="-0.580913">
        <ele>33.932</ele>
        <time>2021-05-05T14:14:34Z</time>
      </trkpt>
      <trkpt lat="38.245867" lon="-0.580896">
        <ele>33.957</ele>
        <time>2021-05-05T14:14:36Z</time>
      </trkpt>
      <trkpt lat="38.245913" lon="-0.580886">
        <ele>34.127</ele>
        <time>2021-05-05T14:14:37Z</time>
      </trkpt>
      <trkpt lat="38.246008" lon="-0.580866">
        <ele>34.310</ele>
        <time>2021-05-05T14:14:39Z</time>
      </trkpt>
      <trkpt lat="38.246104" lon="-0.580847">
        <ele>34.430</ele>
        <time>2021-05-05T14:14:41Z</time>
      </trkpt>
      <trkpt lat="38.246200" lon="-0.580829">
        <ele>34.582</ele>
        <time>2021-05-05T14:14:43Z</time>
      </trkpt>
      <trkpt lat="38.246247" lon="-0.580820">
        <ele>34.879</ele>
        <time>2021-05-05T14:14:44Z</time>
      </trkpt>
      <trkpt lat="38.246340" lon="-0.580798">
        <ele>35.284</ele>
        <time>2021-05-05T14:14:46Z</time>
      </trkpt>
      <trkpt lat="38.246433" lon="-0.580781">
        <ele>35.215</ele>
        <time>2021-05-05T14:14:48Z</time>
      </trkpt>
      <trkpt lat="38.246526" lon="-0.580769">
        <ele>35.265</ele>
        <time>2021-05-05T14:14:50Z</time>
      </trkpt>
      <trkpt lat="38.246572" lon="-0.580767">
        <ele>35.411</ele>
        <time>2021-05-05T14:14:51Z</time>
      </trkpt>
      <trkpt lat="38.246655" lon="-0.580759">
        <ele>35.608</ele>
        <time>2021-05-05T14:14:53Z</time>
      </trkpt>
      <trkpt lat="38.246703" lon="-0.580755">
        <ele>35.698</ele>
        <time>2021-05-05T14:14:54Z</time>
      </trkpt>
      <trkpt lat="38.246800" lon="-0.580760">
        <ele>35.683</ele>
        <time>2021-05-05T14:14:56Z</time>
      </trkpt>
      <trkpt lat="38.246898" lon="-0.580764">
        <ele>35.673</ele>
        <time>2021-05-05T14:14:58Z</time>
      </trkpt>
      <trkpt lat="38.246947" lon="-0.580769">
        <ele>35.826</ele>
        <time>2021-05-05T14:14:59Z</time>
      </trkpt>
      <trkpt lat="38.246997" lon="-0.580776">
        <ele>35.976</ele>
        <time>2021-05-05T14:15:00Z</time>
      </trkpt>
      <trkpt lat="38.247097" lon="-0.580794">
        <ele>36.178</ele>
        <time>2021-05-05T14:15:02Z</time>
      </trkpt>
      <trkpt lat="38.247198" lon="-0.580812">
        <ele>36.345</ele>
        <time>2021-05-05T14:15:04Z</time>
      </trkpt>
      <trkpt lat="38.247303" lon="-0.580830">
        <ele>36.750</ele>
        <time>2021-05-05T14:15:06Z</time>
      </trkpt>
      <trkpt lat="38.247355" lon="-0.580836">
        <ele>36.685</ele>
        <time>2021-05-05T14:15:07Z</time>
      </trkpt>
      <trkpt lat="38.247456" lon="-0.580855">
        <ele>36.889</ele>
        <time>2021-05-05T14:15:09Z</time>
      </trkpt>
      <trkpt lat="38.247553" lon="-0.580881">
        <ele>37.017</ele>
        <time>2021-05-05T14:15:11Z</time>
      </trkpt>
      <trkpt lat="38.247603" lon="-0.580895">
        <ele>37.008</ele>
        <time>2021-05-05T14:15:12Z</time>
      </trkpt>
      <trkpt lat="38.247651" lon="-0.580911">
        <ele>37.135</ele>
        <time>2021-05-05T14:15:13Z</time>
      </trkpt>
      <trkpt lat="38.247747" lon="-0.580943">
        <ele>37.130</ele>
        <time>2021-05-05T14:15:15Z</time>
      </trkpt>
      <trkpt lat="38.247838" lon="-0.580978">
        <ele>37.170</ele>
        <time>2021-05-05T14:15:17Z</time>
      </trkpt>
      <trkpt lat="38.247929" lon="-0.581019">
        <ele>37.053</ele>
        <time>2021-05-05T14:15:19Z</time>
      </trkpt>
      <trkpt lat="38.248018" lon="-0.581068">
        <ele>37.053</ele>
        <time>2021-05-05T14:15:20Z</time>
      </trkpt>
      <trkpt lat="38.248064" lon="-0.581093">
        <ele>37.095</ele>
        <time>2021-05-05T14:15:22Z</time>
      </trkpt>
      <trkpt lat="38.248155" lon="-0.581141">
        <ele>36.992</ele>
        <time>2021-05-05T14:15:23Z</time>
      </trkpt>
      <trkpt lat="38.248200" lon="-0.581165">
        <ele>36.887</ele>
        <time>2021-05-05T14:15:25Z</time>
      </trkpt>
      <trkpt lat="38.248244" lon="-0.581190">
        <ele>36.746</ele>
        <time>2021-05-05T14:15:26Z</time>
      </trkpt>
      <trkpt lat="38.248336" lon="-0.581238">
        <ele>36.788</ele>
        <time>2021-05-05T14:15:28Z</time>
      </trkpt>
      <trkpt lat="38.248429" lon="-0.581285">
        <ele>36.816</ele>
        <time>2021-05-05T14:15:30Z</time>
      </trkpt>
      <trkpt lat="38.248525" lon="-0.581322">
        <ele>36.908</ele>
        <time>2021-05-05T14:15:32Z</time>
      </trkpt>
      <trkpt lat="38.248623" lon="-0.581356">
        <ele>37.351</ele>
        <time>2021-05-05T14:15:34Z</time>
      </trkpt>
      <trkpt lat="38.248722" lon="-0.581381">
        <ele>37.576</ele>
        <time>2021-05-05T14:15:36Z</time>
      </trkpt>
      <trkpt lat="38.248772" lon="-0.581385">
        <ele>38.086</ele>
        <time>2021-05-05T14:15:37Z</time>
      </trkpt>
      <trkpt lat="38.248822" lon="-0.581384">
        <ele>38.069</ele>
        <time>2021-05-05T14:15:38Z</time>
      </trkpt>
      <trkpt lat="38.248922" lon="-0.581375">
        <ele>37.829</ele>
        <time>2021-05-05T14:15:40Z</time>
      </trkpt>
      <trkpt lat="38.249023" lon="-0.581362">
        <ele>37.631</ele>
        <time>2021-05-05T14:15:42Z</time>
      </trkpt>
      <trkpt lat="38.249124" lon="-0.581349">
        <ele>37.458</ele>
        <time>2021-05-05T14:15:44Z</time>
      </trkpt>
      <trkpt lat="38.249227" lon="-0.581340">
        <ele>37.583</ele>
        <time>2021-05-05T14:15:46Z</time>
      </trkpt>
      <trkpt lat="38.249329" lon="-0.581329">
        <ele>37.818</ele>
        <time>2021-05-05T14:15:48Z</time>
      </trkpt>
      <trkpt lat="38.249381" lon="-0.581327">
        <ele>38.098</ele>
        <time>2021-05-05T14:15:49Z</time>
      </trkpt>
      <trkpt lat="38.249432" lon="-0.581326">
        <ele>38.117</ele>
        <time>2021-05-05T14:15:50Z</time>
      </trkpt>
      <trkpt lat="38.249535" lon="-0.581329">
        <ele>37.808</ele>
        <time>2021-05-05T14:15:52Z</time>
      </trkpt>
      <trkpt lat="38.249641" lon="-0.581340">
        <ele>37.538</ele>
        <time>2021-05-05T14:15:54Z</time>
      </trkpt>
      <trkpt lat="38.249695" lon="-0.581348">
        <ele>37.353</ele>
        <time>2021-05-05T14:15:55Z</time>
      </trkpt>
      <trkpt lat="38.249804" lon="-0.581362">
        <ele>36.773</ele>
        <time>2021-05-05T14:15:57Z</time>
      </trkpt>
      <trkpt lat="38.249912" lon="-0.581369">
        <ele>35.996</ele>
        <time>2021-05-05T14:15:59Z</time>
      </trkpt>
      <trkpt lat="38.249968" lon="-0.581371">
        <ele>35.376</ele>
        <time>2021-05-05T14:16:00Z</time>
      </trkpt>
      <trkpt lat="38.250077" lon="-0.581375">
        <ele>34.888</ele>
        <time>2021-05-05T14:16:02Z</time>
      </trkpt>
      <trkpt lat="38.250185" lon="-0.581372">
        <ele>34.165</ele>
        <time>2021-05-05T14:16:04Z</time>
      </trkpt>
      <trkpt lat="38.250290" lon="-0.581362">
        <ele>34.060</ele>
        <time>2021-05-05T14:16:06Z</time>
      </trkpt>
      <trkpt lat="38.250387" lon="-0.581346">
        <ele>33.858</ele>
        <time>2021-05-05T14:16:08Z</time>
      </trkpt>
      <trkpt lat="38.250482" lon="-0.581337">
        <ele>33.852</ele>
        <time>2021-05-05T14:16:10Z</time>
      </trkpt>
      <trkpt lat="38.250576" lon="-0.581332">
        <ele>34.217</ele>
        <time>2021-05-05T14:16:11Z</time>
      </trkpt>
      <trkpt lat="38.250625" lon="-0.581332">
        <ele>34.008</ele>
        <time>2021-05-05T14:16:13Z</time>
      </trkpt>
      <trkpt lat="38.250725" lon="-0.581337">
        <ele>34.162</ele>
        <time>2021-05-05T14:16:15Z</time>
      </trkpt>
      <trkpt lat="38.250828" lon="-0.581359">
        <ele>34.197</ele>
        <time>2021-05-05T14:16:17Z</time>
      </trkpt>
      <trkpt lat="38.250929" lon="-0.581398">
        <ele>34.147</ele>
        <time>2021-05-05T14:16:19Z</time>
      </trkpt>
      <trkpt lat="38.250980" lon="-0.581421">
        <ele>33.790</ele>
        <time>2021-05-05T14:16:20Z</time>
      </trkpt>
      <trkpt lat="38.251032" lon="-0.581444">
        <ele>33.590</ele>
        <time>2021-05-05T14:16:21Z</time>
      </trkpt>
      <trkpt lat="38.251084" lon="-0.581467">
        <ele>33.522</ele>
        <time>2021-05-05T14:16:22Z</time>
      </trkpt>
      <trkpt lat="38.251184" lon="-0.581521">
        <ele>33.939</ele>
        <time>2021-05-05T14:16:24Z</time>
      </trkpt>
      <trkpt lat="38.251235" lon="-0.581548">
        <ele>34.344</ele>
        <time>2021-05-05T14:16:25Z</time>
      </trkpt>
      <trkpt lat="38.251338" lon="-0.581605">
        <ele>33.986</ele>
        <time>2021-05-05T14:16:27Z</time>
      </trkpt>
      <trkpt lat="38.251390" lon="-0.581634">
        <ele>34.160</ele>
        <time>2021-05-05T14:16:28Z</time>
      </trkpt>
      <trkpt lat="38.251493" lon="-0.581692">
        <ele>34.026</ele>
        <time>2021-05-05T14:16:30Z</time>
      </trkpt>
      <trkpt lat="38.251595" lon="-0.581749">
        <ele>34.508</ele>
        <time>2021-05-05T14:16:32Z</time>
      </trkpt>
      <trkpt lat="38.251697" lon="-0.581803">
        <ele>34.865</ele>
        <time>2021-05-05T14:16:34Z</time>
      </trkpt>
      <trkpt lat="38.251802" lon="-0.581861">
        <ele>35.070</ele>
        <time>2021-05-05T14:16:35Z</time>
      </trkpt>
      <trkpt lat="38.251854" lon="-0.581891">
        <ele>35.430</ele>
        <time>2021-05-05T14:16:37Z</time>
      </trkpt>
      <trkpt lat="38.251959" lon="-0.581951">
        <ele>35.733</ele>
        <time>2021-05-05T14:16:39Z</time>
      </trkpt>
      <trkpt lat="38.252065" lon="-0.582010">
        <ele>36.293</ele>
        <time>2021-05-05T14:16:41Z</time>
      </trkpt>
      <trkpt lat="38.252118" lon="-0.582040">
        <ele>36.435</ele>
        <time>2021-05-05T14:16:42Z</time>
      </trkpt>
      <trkpt lat="38.252224" lon="-0.582099">
        <ele>36.822</ele>
        <time>2021-05-05T14:16:43Z</time>
      </trkpt>
      <trkpt lat="38.252278" lon="-0.582129">
        <ele>36.947</ele>
        <time>2021-05-05T14:16:45Z</time>
      </trkpt>
      <trkpt lat="38.252390" lon="-0.582198">
        <ele>37.134</ele>
        <time>2021-05-05T14:16:47Z</time>
      </trkpt>
      <trkpt lat="38.252445" lon="-0.582232">
        <ele>37.355</ele>
        <time>2021-05-05T14:16:48Z</time>
      </trkpt>
      <trkpt lat="38.252552" lon="-0.582295">
        <ele>37.310</ele>
        <time>2021-05-05T14:16:50Z</time>
      </trkpt>
      <trkpt lat="38.252658" lon="-0.582361">
        <ele>37.608</ele>
        <time>2021-05-05T14:16:52Z</time>
      </trkpt>
      <trkpt lat="38.252713" lon="-0.582397">
        <ele>37.480</ele>
        <time>2021-05-05T14:16:53Z</time>
      </trkpt>
      <trkpt lat="38.252822" lon="-0.582475">
        <ele>36.585</ele>
        <time>2021-05-05T14:16:55Z</time>
      </trkpt>
      <trkpt lat="38.252877" lon="-0.582513">
        <ele>35.935</ele>
        <time>2021-05-05T14:16:56Z</time>
      </trkpt>
      <trkpt lat="38.252987" lon="-0.582568">
        <ele>35.538</ele>
        <time>2021-05-05T14:16:58Z</time>
      </trkpt>
      <trkpt lat="38.253102" lon="-0.582575">
        <ele>35.218</ele>
        <time>2021-05-05T14:17:00Z</time>
      </trkpt>
      <trkpt lat="38.253159" lon="-0.582562">
        <ele>35.270</ele>
        <time>2021-05-05T14:17:01Z</time>
      </trkpt>
      <trkpt lat="38.253268" lon="-0.582525">
        <ele>35.457</ele>
        <time>2021-05-05T14:17:03Z</time>
      </trkpt>
      <trkpt lat="38.253369" lon="-0.582485">
        <ele>35.522</ele>
        <time>2021-05-05T14:17:05Z</time>
      </trkpt>
      <trkpt lat="38.253464" lon="-0.582439">
        <ele>35.637</ele>
        <time>2021-05-05T14:17:07Z</time>
      </trkpt>
      <trkpt lat="38.253511" lon="-0.582417">
        <ele>35.549</ele>
        <time>2021-05-05T14:17:08Z</time>
      </trkpt>
      <trkpt lat="38.253558" lon="-0.582395">
        <ele>35.313</ele>
        <time>2021-05-05T14:17:09Z</time>
      </trkpt>
      <trkpt lat="38.253650" lon="-0.582351">
        <ele>35.508</ele>
        <time>2021-05-05T14:17:10Z</time>
      </trkpt>
      <trkpt lat="38.253698" lon="-0.582330">
        <ele>35.770</ele>
        <time>2021-05-05T14:17:12Z</time>
      </trkpt>
      <trkpt lat="38.253746" lon="-0.582310">
        <ele>35.875</ele>
        <time>2021-05-05T14:17:13Z</time>
      </trkpt>
      <trkpt lat="38.253841" lon="-0.582269">
        <ele>35.955</ele>
        <time>2021-05-05T14:17:15Z</time>
      </trkpt>
      <trkpt lat="38.253939" lon="-0.582231">
        <ele>36.168</ele>
        <time>2021-05-05T14:17:16Z</time>
      </trkpt>
      <trkpt lat="38.253989" lon="-0.582210">
        <ele>36.228</ele>
        <time>2021-05-05T14:17:18Z</time>
      </trkpt>
      <trkpt lat="38.254037" lon="-0.582189">
        <ele>36.230</ele>
        <time>2021-05-05T14:17:19Z</time>
      </trkpt>
      <trkpt lat="38.254137" lon="-0.582150">
        <ele>36.497</ele>
        <time>2021-05-05T14:17:20Z</time>
      </trkpt>
      <trkpt lat="38.254188" lon="-0.582131">
        <ele>36.592</ele>
        <time>2021-05-05T14:17:22Z</time>
      </trkpt>
      <trkpt lat="38.254238" lon="-0.582111">
        <ele>36.675</ele>
        <time>2021-05-05T14:17:23Z</time>
      </trkpt>
      <trkpt lat="38.254339" lon="-0.582070">
        <ele>36.828</ele>
        <time>2021-05-05T14:17:25Z</time>
      </trkpt>
      <trkpt lat="38.254390" lon="-0.582049">
        <ele>36.720</ele>
        <time>2021-05-05T14:17:26Z</time>
      </trkpt>
      <trkpt lat="38.254441" lon="-0.582027">
        <ele>36.908</ele>
        <time>2021-05-05T14:17:27Z</time>
      </trkpt>
      <trkpt lat="38.254490" lon="-0.582006">
        <ele>37.034</ele>
        <time>2021-05-05T14:17:28Z</time>
      </trkpt>
      <trkpt lat="38.254590" lon="-0.581967">
        <ele>37.179</ele>
        <time>2021-05-05T14:17:29Z</time>
      </trkpt>
      <trkpt lat="38.254639" lon="-0.581948">
        <ele>37.259</ele>
        <time>2021-05-05T14:17:31Z</time>
      </trkpt>
      <trkpt lat="38.254738" lon="-0.581911">
        <ele>37.192</ele>
        <time>2021-05-05T14:17:32Z</time>
      </trkpt>
      <trkpt lat="38.254787" lon="-0.581892">
        <ele>37.322</ele>
        <time>2021-05-05T14:17:34Z</time>
      </trkpt>
      <trkpt lat="38.254888" lon="-0.581859">
        <ele>37.484</ele>
        <time>2021-05-05T14:17:36Z</time>
      </trkpt>
      <trkpt lat="38.254987" lon="-0.581823">
        <ele>37.871</ele>
        <time>2021-05-05T14:17:37Z</time>
      </trkpt>
      <trkpt lat="38.255037" lon="-0.581805">
        <ele>38.016</ele>
        <time>2021-05-05T14:17:39Z</time>
      </trkpt>
      <trkpt lat="38.255134" lon="-0.581773">
        <ele>38.173</ele>
        <time>2021-05-05T14:17:41Z</time>
      </trkpt>
      <trkpt lat="38.255183" lon="-0.581754">
        <ele>38.585</ele>
        <time>2021-05-05T14:17:42Z</time>
      </trkpt>
      <trkpt lat="38.255279" lon="-0.581712">
        <ele>38.513</ele>
        <time>2021-05-05T14:17:44Z</time>
      </trkpt>
      <trkpt lat="38.255326" lon="-0.581693">
        <ele>38.608</ele>
        <time>2021-05-05T14:17:45Z</time>
      </trkpt>
      <trkpt lat="38.255419" lon="-0.581661">
        <ele>38.734</ele>
        <time>2021-05-05T14:17:47Z</time>
      </trkpt>
      <trkpt lat="38.255514" lon="-0.581623">
        <ele>38.759</ele>
        <time>2021-05-05T14:17:49Z</time>
      </trkpt>
      <trkpt lat="38.255561" lon="-0.581605">
        <ele>38.689</ele>
        <time>2021-05-05T14:17:50Z</time>
      </trkpt>
      <trkpt lat="38.255655" lon="-0.581572">
        <ele>38.912</ele>
        <time>2021-05-05T14:17:52Z</time>
      </trkpt>
      <trkpt lat="38.255750" lon="-0.581537">
        <ele>38.962</ele>
        <time>2021-05-05T14:17:54Z</time>
      </trkpt>
      <trkpt lat="38.255844" lon="-0.581503">
        <ele>38.924</ele>
        <time>2021-05-05T14:17:56Z</time>
      </trkpt>
      <trkpt lat="38.255936" lon="-0.581469">
        <ele>38.951</ele>
        <time>2021-05-05T14:17:57Z</time>
      </trkpt>
      <trkpt lat="38.255981" lon="-0.581452">
        <ele>39.276</ele>
        <time>2021-05-05T14:17:59Z</time>
      </trkpt>
      <trkpt lat="38.256026" lon="-0.581432">
        <ele>39.468</ele>
        <time>2021-05-05T14:18:00Z</time>
      </trkpt>
      <trkpt lat="38.256116" lon="-0.581402">
        <ele>39.642</ele>
        <time>2021-05-05T14:18:01Z</time>
      </trkpt>
      <trkpt lat="38.256164" lon="-0.581389">
        <ele>40.026</ele>
        <time>2021-05-05T14:18:03Z</time>
      </trkpt>
      <trkpt lat="38.256239" lon="-0.581358">
        <ele>39.708</ele>
        <time>2021-05-05T14:18:05Z</time>
      </trkpt>
      <trkpt lat="38.256343" lon="-0.581316">
        <ele>39.593</ele>
        <time>2021-05-05T14:18:07Z</time>
      </trkpt>
      <trkpt lat="38.256436" lon="-0.581275">
        <ele>39.838</ele>
        <time>2021-05-05T14:18:09Z</time>
      </trkpt>
      <trkpt lat="38.256529" lon="-0.581242">
        <ele>39.938</ele>
        <time>2021-05-05T14:18:11Z</time>
      </trkpt>
      <trkpt lat="38.256629" lon="-0.581211">
        <ele>40.361</ele>
        <time>2021-05-05T14:18:13Z</time>
      </trkpt>
      <trkpt lat="38.256731" lon="-0.581194">
        <ele>40.331</ele>
        <time>2021-05-05T14:18:15Z</time>
      </trkpt>
      <trkpt lat="38.256832" lon="-0.581188">
        <ele>40.083</ele>
        <time>2021-05-05T14:18:17Z</time>
      </trkpt>
      <trkpt lat="38.256937" lon="-0.581184">
        <ele>40.250</ele>
        <time>2021-05-05T14:18:19Z</time>
      </trkpt>
      <trkpt lat="38.256993" lon="-0.581182">
        <ele>40.065</ele>
        <time>2021-05-05T14:18:20Z</time>
      </trkpt>
      <trkpt lat="38.257100" lon="-0.581184">
        <ele>39.966</ele>
        <time>2021-05-05T14:18:22Z</time>
      </trkpt>
      <trkpt lat="38.257210" lon="-0.581193">
        <ele>39.629</ele>
        <time>2021-05-05T14:18:24Z</time>
      </trkpt>
      <trkpt lat="38.257322" lon="-0.581197">
        <ele>39.121</ele>
        <time>2021-05-05T14:18:26Z</time>
      </trkpt>
      <trkpt lat="38.257380" lon="-0.581196">
        <ele>39.108</ele>
        <time>2021-05-05T14:18:27Z</time>
      </trkpt>
      <trkpt lat="38.257490" lon="-0.581199">
        <ele>38.813</ele>
        <time>2021-05-05T14:18:28Z</time>
      </trkpt>
      <trkpt lat="38.257544" lon="-0.581200">
        <ele>39.048</ele>
        <time>2021-05-05T14:18:30Z</time>
      </trkpt>
      <trkpt lat="38.257651" lon="-0.581200">
        <ele>38.938</ele>
        <time>2021-05-05T14:18:32Z</time>
      </trkpt>
      <trkpt lat="38.257703" lon="-0.581200">
        <ele>38.831</ele>
        <time>2021-05-05T14:18:33Z</time>
      </trkpt>
      <trkpt lat="38.257805" lon="-0.581199">
        <ele>39.081</ele>
        <time>2021-05-05T14:18:35Z</time>
      </trkpt>
      <trkpt lat="38.257856" lon="-0.581198">
        <ele>39.123</ele>
        <time>2021-05-05T14:18:36Z</time>
      </trkpt>
      <trkpt lat="38.257959" lon="-0.581204">
        <ele>39.050</ele>
        <time>2021-05-05T14:18:38Z</time>
      </trkpt>
      <trkpt lat="38.258058" lon="-0.581208">
        <ele>39.045</ele>
        <time>2021-05-05T14:18:40Z</time>
      </trkpt>
      <trkpt lat="38.258107" lon="-0.581210">
        <ele>38.872</ele>
        <time>2021-05-05T14:18:41Z</time>
      </trkpt>
      <trkpt lat="38.258203" lon="-0.581221">
        <ele>38.813</ele>
        <time>2021-05-05T14:18:43Z</time>
      </trkpt>
      <trkpt lat="38.258251" lon="-0.581226">
        <ele>39.114</ele>
        <time>2021-05-05T14:18:44Z</time>
      </trkpt>
      <trkpt lat="38.258345" lon="-0.581236">
        <ele>39.508</ele>
        <time>2021-05-05T14:18:46Z</time>
      </trkpt>
      <trkpt lat="38.258393" lon="-0.581247">
        <ele>39.844</ele>
        <time>2021-05-05T14:18:47Z</time>
      </trkpt>
      <trkpt lat="38.258442" lon="-0.581261">
        <ele>39.719</ele>
        <time>2021-05-05T14:18:48Z</time>
      </trkpt>
      <trkpt lat="38.258544" lon="-0.581285">
        <ele>39.489</ele>
        <time>2021-05-05T14:18:50Z</time>
      </trkpt>
      <trkpt lat="38.258648" lon="-0.581309">
        <ele>39.392</ele>
        <time>2021-05-05T14:18:52Z</time>
      </trkpt>
      <trkpt lat="38.258752" lon="-0.581339">
        <ele>39.622</ele>
        <time>2021-05-05T14:18:54Z</time>
      </trkpt>
      <trkpt lat="38.258804" lon="-0.581353">
        <ele>39.794</ele>
        <time>2021-05-05T14:18:55Z</time>
      </trkpt>
      <trkpt lat="38.258911" lon="-0.581377">
        <ele>40.031</ele>
        <time>2021-05-05T14:18:57Z</time>
      </trkpt>
      <trkpt lat="38.259018" lon="-0.581405">
        <ele>39.996</ele>
        <time>2021-05-05T14:18:59Z</time>
      </trkpt>
      <trkpt lat="38.259072" lon="-0.581420">
        <ele>39.892</ele>
        <time>2021-05-05T14:19:00Z</time>
      </trkpt>
      <trkpt lat="38.259176" lon="-0.581453">
        <ele>40.073</ele>
        <time>2021-05-05T14:19:02Z</time>
      </trkpt>
      <trkpt lat="38.259225" lon="-0.581475">
        <ele>39.920</ele>
        <time>2021-05-05T14:19:03Z</time>
      </trkpt>
      <trkpt lat="38.259321" lon="-0.581524">
        <ele>39.608</ele>
        <time>2021-05-05T14:19:05Z</time>
      </trkpt>
      <trkpt lat="38.259415" lon="-0.581577">
        <ele>39.546</ele>
        <time>2021-05-05T14:19:07Z</time>
      </trkpt>
      <trkpt lat="38.259461" lon="-0.581609">
        <ele>39.711</ele>
        <time>2021-05-05T14:19:08Z</time>
      </trkpt>
      <trkpt lat="38.259508" lon="-0.581640">
        <ele>40.021</ele>
        <time>2021-05-05T14:19:09Z</time>
      </trkpt>
      <trkpt lat="38.259601" lon="-0.581704">
        <ele>40.454</ele>
        <time>2021-05-05T14:19:11Z</time>
      </trkpt>
      <trkpt lat="38.259691" lon="-0.581770">
        <ele>40.774</ele>
        <time>2021-05-05T14:19:12Z</time>
      </trkpt>
      <trkpt lat="38.259736" lon="-0.581798">
        <ele>41.066</ele>
        <time>2021-05-05T14:19:14Z</time>
      </trkpt>
      <trkpt lat="38.259781" lon="-0.581829">
        <ele>41.313</ele>
        <time>2021-05-05T14:19:15Z</time>
      </trkpt>
      <trkpt lat="38.259872" lon="-0.581889">
        <ele>41.098</ele>
        <time>2021-05-05T14:19:17Z</time>
      </trkpt>
      <trkpt lat="38.259919" lon="-0.581916">
        <ele>40.886</ele>
        <time>2021-05-05T14:19:18Z</time>
      </trkpt>
      <trkpt lat="38.259967" lon="-0.581944">
        <ele>40.360</ele>
        <time>2021-05-05T14:19:19Z</time>
      </trkpt>
      <trkpt lat="38.260014" lon="-0.581973">
        <ele>40.026</ele>
        <time>2021-05-05T14:19:20Z</time>
      </trkpt>
      <trkpt lat="38.260061" lon="-0.582003">
        <ele>40.108</ele>
        <time>2021-05-05T14:19:21Z</time>
      </trkpt>
      <trkpt lat="38.260158" lon="-0.582059">
        <ele>39.935</ele>
        <time>2021-05-05T14:19:23Z</time>
      </trkpt>
      <trkpt lat="38.260252" lon="-0.582123">
        <ele>39.530</ele>
        <time>2021-05-05T14:19:25Z</time>
      </trkpt>
      <trkpt lat="38.260344" lon="-0.582185">
        <ele>39.030</ele>
        <time>2021-05-05T14:19:27Z</time>
      </trkpt>
      <trkpt lat="38.260434" lon="-0.582248">
        <ele>38.533</ele>
        <time>2021-05-05T14:19:28Z</time>
      </trkpt>
      <trkpt lat="38.260479" lon="-0.582280">
        <ele>38.363</ele>
        <time>2021-05-05T14:19:30Z</time>
      </trkpt>
      <trkpt lat="38.260568" lon="-0.582334">
        <ele>38.355</ele>
        <time>2021-05-05T14:19:31Z</time>
      </trkpt>
      <trkpt lat="38.260614" lon="-0.582350">
        <ele>38.342</ele>
        <time>2021-05-05T14:19:33Z</time>
      </trkpt>
      <trkpt lat="38.260710" lon="-0.582343">
        <ele>38.487</ele>
        <time>2021-05-05T14:19:35Z</time>
      </trkpt>
      <trkpt lat="38.260787" lon="-0.582310">
        <ele>38.639</ele>
        <time>2021-05-05T14:19:36Z</time>
      </trkpt>
      <trkpt lat="38.260855" lon="-0.582288">
        <ele>39.101</ele>
        <time>2021-05-05T14:19:39Z</time>
      </trkpt>
      <trkpt lat="38.260939" lon="-0.582266">
        <ele>39.121</ele>
        <time>2021-05-05T14:19:40Z</time>
      </trkpt>
      <trkpt lat="38.260985" lon="-0.582264">
        <ele>40.308</ele>
        <time>2021-05-05T14:19:41Z</time>
      </trkpt>
      <trkpt lat="38.261063" lon="-0.582266">
        <ele>41.280</ele>
        <time>2021-05-05T14:19:43Z</time>
      </trkpt>
      <trkpt lat="38.261135" lon="-0.582285">
        <ele>42.175</ele>
        <time>2021-05-05T14:19:45Z</time>
      </trkpt>
      <trkpt lat="38.261235" lon="-0.582290">
        <ele>43.125</ele>
        <time>2021-05-05T14:19:47Z</time>
      </trkpt>
      <trkpt lat="38.261281" lon="-0.582296">
        <ele>43.918</ele>
        <time>2021-05-05T14:19:48Z</time>
      </trkpt>
      <trkpt lat="38.261328" lon="-0.582301">
        <ele>44.088</ele>
        <time>2021-05-05T14:19:49Z</time>
      </trkpt>
      <trkpt lat="38.261413" lon="-0.582314">
        <ele>44.190</ele>
        <time>2021-05-05T14:19:51Z</time>
      </trkpt>
      <trkpt lat="38.261477" lon="-0.582323">
        <ele>44.457</ele>
        <time>2021-05-05T14:19:53Z</time>
      </trkpt>
      <trkpt lat="38.261566" lon="-0.582336">
        <ele>44.392</ele>
        <time>2021-05-05T14:19:55Z</time>
      </trkpt>
      <trkpt lat="38.261626" lon="-0.582333">
        <ele>44.738</ele>
        <time>2021-05-05T14:19:56Z</time>
      </trkpt>
      <trkpt lat="38.261711" lon="-0.582351">
        <ele>44.570</ele>
        <time>2021-05-05T14:19:58Z</time>
      </trkpt>
      <trkpt lat="38.261778" lon="-0.582360">
        <ele>44.217</ele>
        <time>2021-05-05T14:20:00Z</time>
      </trkpt>
      <trkpt lat="38.261834" lon="-0.582367">
        <ele>44.108</ele>
        <time>2021-05-05T14:20:01Z</time>
      </trkpt>
      <trkpt lat="38.261897" lon="-0.582380">
        <ele>43.930</ele>
        <time>2021-05-05T14:20:03Z</time>
      </trkpt>
      <trkpt lat="38.261943" lon="-0.582376">
        <ele>43.665</ele>
        <time>2021-05-05T14:20:04Z</time>
      </trkpt>
      <trkpt lat="38.261994" lon="-0.582384">
        <ele>43.445</ele>
        <time>2021-05-05T14:20:05Z</time>
      </trkpt>
      <trkpt lat="38.262048" lon="-0.582394">
        <ele>42.978</ele>
        <time>2021-05-05T14:20:06Z</time>
      </trkpt>
      <trkpt lat="38.262107" lon="-0.582409">
        <ele>42.828</ele>
        <time>2021-05-05T14:20:08Z</time>
      </trkpt>
      <trkpt lat="38.262196" lon="-0.582430">
        <ele>43.150</ele>
        <time>2021-05-05T14:20:10Z</time>
      </trkpt>
      <trkpt lat="38.262286" lon="-0.582446">
        <ele>43.867</ele>
        <time>2021-05-05T14:20:12Z</time>
      </trkpt>
      <trkpt lat="38.262380" lon="-0.582461">
        <ele>44.682</ele>
        <time>2021-05-05T14:20:14Z</time>
      </trkpt>
      <trkpt lat="38.262482" lon="-0.582474">
        <ele>45.129</ele>
        <time>2021-05-05T14:20:16Z</time>
      </trkpt>
      <trkpt lat="38.262551" lon="-0.582483">
        <ele>45.100</ele>
        <time>2021-05-05T14:20:17Z</time>
      </trkpt>
      <trkpt lat="38.262610" lon="-0.582497">
        <ele>45.220</ele>
        <time>2021-05-05T14:20:19Z</time>
      </trkpt>
      <trkpt lat="38.262715" lon="-0.582512">
        <ele>45.708</ele>
        <time>2021-05-05T14:20:21Z</time>
      </trkpt>
      <trkpt lat="38.262816" lon="-0.582523">
        <ele>45.859</ele>
        <time>2021-05-05T14:20:23Z</time>
      </trkpt>
      <trkpt lat="38.262920" lon="-0.582536">
        <ele>46.194</ele>
        <time>2021-05-05T14:20:25Z</time>
      </trkpt>
      <trkpt lat="38.262969" lon="-0.582544">
        <ele>46.214</ele>
        <time>2021-05-05T14:20:26Z</time>
      </trkpt>
      <trkpt lat="38.263069" lon="-0.582562">
        <ele>46.157</ele>
        <time>2021-05-05T14:20:28Z</time>
      </trkpt>
      <trkpt lat="38.263166" lon="-0.582582">
        <ele>46.467</ele>
        <time>2021-05-05T14:20:30Z</time>
      </trkpt>
      <trkpt lat="38.263260" lon="-0.582600">
        <ele>46.779</ele>
        <time>2021-05-05T14:20:32Z</time>
      </trkpt>
      <trkpt lat="38.263353" lon="-0.582618">
        <ele>46.796</ele>
        <time>2021-05-05T14:20:34Z</time>
      </trkpt>
      <trkpt lat="38.263400" lon="-0.582625">
        <ele>46.851</ele>
        <time>2021-05-05T14:20:35Z</time>
      </trkpt>
      <trkpt lat="38.263492" lon="-0.582641">
        <ele>46.628</ele>
        <time>2021-05-05T14:20:37Z</time>
      </trkpt>
      <trkpt lat="38.263586" lon="-0.582649">
        <ele>46.489</ele>
        <time>2021-05-05T14:20:39Z</time>
      </trkpt>
      <trkpt lat="38.263635" lon="-0.582653">
        <ele>46.317</ele>
        <time>2021-05-05T14:20:40Z</time>
      </trkpt>
      <trkpt lat="38.263727" lon="-0.582656">
        <ele>45.808</ele>
        <time>2021-05-05T14:20:42Z</time>
      </trkpt>
      <trkpt lat="38.263774" lon="-0.582653">
        <ele>45.939</ele>
        <time>2021-05-05T14:20:43Z</time>
      </trkpt>
      <trkpt lat="38.263823" lon="-0.582645">
        <ele>45.894</ele>
        <time>2021-05-05T14:20:44Z</time>
      </trkpt>
      <trkpt lat="38.263913" lon="-0.582622">
        <ele>46.084</ele>
        <time>2021-05-05T14:20:46Z</time>
      </trkpt>
      <trkpt lat="38.263998" lon="-0.582593">
        <ele>46.157</ele>
        <time>2021-05-05T14:20:48Z</time>
      </trkpt>
      <trkpt lat="38.264062" lon="-0.582570">
        <ele>46.127</ele>
        <time>2021-05-05T14:20:50Z</time>
      </trkpt>
      <trkpt lat="38.264161" lon="-0.582540">
        <ele>46.089</ele>
        <time>2021-05-05T14:20:52Z</time>
      </trkpt>
      <trkpt lat="38.264252" lon="-0.582505">
        <ele>45.796</ele>
        <time>2021-05-05T14:20:53Z</time>
      </trkpt>
      <trkpt lat="38.264300" lon="-0.582489">
        <ele>45.281</ele>
        <time>2021-05-05T14:20:55Z</time>
      </trkpt>
      <trkpt lat="38.264396" lon="-0.582464">
        <ele>45.388</ele>
        <time>2021-05-05T14:20:56Z</time>
      </trkpt>
      <trkpt lat="38.264445" lon="-0.582450">
        <ele>45.424</ele>
        <time>2021-05-05T14:20:57Z</time>
      </trkpt>
      <trkpt lat="38.264497" lon="-0.582431">
        <ele>45.826</ele>
        <time>2021-05-05T14:20:59Z</time>
      </trkpt>
      <trkpt lat="38.264550" lon="-0.582415">
        <ele>46.308</ele>
        <time>2021-05-05T14:21:00Z</time>
      </trkpt>
      <trkpt lat="38.264648" lon="-0.582386">
        <ele>46.425</ele>
        <time>2021-05-05T14:21:02Z</time>
      </trkpt>
      <trkpt lat="38.264744" lon="-0.582353">
        <ele>46.770</ele>
        <time>2021-05-05T14:21:03Z</time>
      </trkpt>
      <trkpt lat="38.264789" lon="-0.582337">
        <ele>46.840</ele>
        <time>2021-05-05T14:21:05Z</time>
      </trkpt>
      <trkpt lat="38.264879" lon="-0.582313">
        <ele>46.553</ele>
        <time>2021-05-05T14:21:07Z</time>
      </trkpt>
      <trkpt lat="38.264934" lon="-0.582300">
        <ele>47.053</ele>
        <time>2021-05-05T14:21:08Z</time>
      </trkpt>
      <trkpt lat="38.265034" lon="-0.582274">
        <ele>47.675</ele>
        <time>2021-05-05T14:21:10Z</time>
      </trkpt>
      <trkpt lat="38.265082" lon="-0.582258">
        <ele>47.842</ele>
        <time>2021-05-05T14:21:11Z</time>
      </trkpt>
      <trkpt lat="38.265181" lon="-0.582227">
        <ele>47.837</ele>
        <time>2021-05-05T14:21:13Z</time>
      </trkpt>
      <trkpt lat="38.265278" lon="-0.582195">
        <ele>48.254</ele>
        <time>2021-05-05T14:21:15Z</time>
      </trkpt>
      <trkpt lat="38.265372" lon="-0.582164">
        <ele>47.756</ele>
        <time>2021-05-05T14:21:17Z</time>
      </trkpt>
      <trkpt lat="38.265417" lon="-0.582146">
        <ele>47.811</ele>
        <time>2021-05-05T14:21:18Z</time>
      </trkpt>
      <trkpt lat="38.265464" lon="-0.582128">
        <ele>47.608</ele>
        <time>2021-05-05T14:21:19Z</time>
      </trkpt>
      <trkpt lat="38.265562" lon="-0.582099">
        <ele>47.612</ele>
        <time>2021-05-05T14:21:21Z</time>
      </trkpt>
      <trkpt lat="38.265660" lon="-0.582074">
        <ele>47.997</ele>
        <time>2021-05-05T14:21:23Z</time>
      </trkpt>
      <trkpt lat="38.265753" lon="-0.582047">
        <ele>48.297</ele>
        <time>2021-05-05T14:21:25Z</time>
      </trkpt>
      <trkpt lat="38.265848" lon="-0.582024">
        <ele>48.320</ele>
        <time>2021-05-05T14:21:27Z</time>
      </trkpt>
      <trkpt lat="38.265943" lon="-0.581993">
        <ele>47.560</ele>
        <time>2021-05-05T14:21:29Z</time>
      </trkpt>
      <trkpt lat="38.265989" lon="-0.581979">
        <ele>46.942</ele>
        <time>2021-05-05T14:21:30Z</time>
      </trkpt>
      <trkpt lat="38.266077" lon="-0.581949">
        <ele>46.519</ele>
        <time>2021-05-05T14:21:31Z</time>
      </trkpt>
      <trkpt lat="38.266124" lon="-0.581933">
        <ele>46.584</ele>
        <time>2021-05-05T14:21:33Z</time>
      </trkpt>
      <trkpt lat="38.266219" lon="-0.581904">
        <ele>46.427</ele>
        <time>2021-05-05T14:21:35Z</time>
      </trkpt>
      <trkpt lat="38.266315" lon="-0.581880">
        <ele>46.268</ele>
        <time>2021-05-05T14:21:36Z</time>
      </trkpt>
      <trkpt lat="38.266407" lon="-0.581856">
        <ele>46.314</ele>
        <time>2021-05-05T14:21:38Z</time>
      </trkpt>
      <trkpt lat="38.266502" lon="-0.581828">
        <ele>46.808</ele>
        <time>2021-05-05T14:21:41Z</time>
      </trkpt>
      <trkpt lat="38.266597" lon="-0.581798">
        <ele>47.289</ele>
        <time>2021-05-05T14:21:43Z</time>
      </trkpt>
      <trkpt lat="38.266686" lon="-0.581765">
        <ele>47.154</ele>
        <time>2021-05-05T14:21:45Z</time>
      </trkpt>
      <trkpt lat="38.266784" lon="-0.581734">
        <ele>47.334</ele>
        <time>2021-05-05T14:21:47Z</time>
      </trkpt>
      <trkpt lat="38.266880" lon="-0.581703">
        <ele>47.687</ele>
        <time>2021-05-05T14:21:49Z</time>
      </trkpt>
      <trkpt lat="38.266979" lon="-0.581673">
        <ele>47.747</ele>
        <time>2021-05-05T14:21:51Z</time>
      </trkpt>
      <trkpt lat="38.267028" lon="-0.581662">
        <ele>48.199</ele>
        <time>2021-05-05T14:21:52Z</time>
      </trkpt>
      <trkpt lat="38.267122" lon="-0.581631">
        <ele>48.616</ele>
        <time>2021-05-05T14:21:54Z</time>
      </trkpt>
      <trkpt lat="38.267169" lon="-0.581617">
        <ele>49.171</ele>
        <time>2021-05-05T14:21:55Z</time>
      </trkpt>
      <trkpt lat="38.267265" lon="-0.581586">
        <ele>49.323</ele>
        <time>2021-05-05T14:21:56Z</time>
      </trkpt>
      <trkpt lat="38.267312" lon="-0.581570">
        <ele>49.283</ele>
        <time>2021-05-05T14:21:58Z</time>
      </trkpt>
      <trkpt lat="38.267359" lon="-0.581555">
        <ele>49.211</ele>
        <time>2021-05-05T14:21:59Z</time>
      </trkpt>
      <trkpt lat="38.267406" lon="-0.581537">
        <ele>49.108</ele>
        <time>2021-05-05T14:22:00Z</time>
      </trkpt>
      <trkpt lat="38.267502" lon="-0.581508">
        <ele>49.259</ele>
        <time>2021-05-05T14:22:02Z</time>
      </trkpt>
      <trkpt lat="38.267602" lon="-0.581480">
        <ele>48.874</ele>
        <time>2021-05-05T14:22:04Z</time>
      </trkpt>
      <trkpt lat="38.267699" lon="-0.581447">
        <ele>48.794</ele>
        <time>2021-05-05T14:22:06Z</time>
      </trkpt>
      <trkpt lat="38.267749" lon="-0.581432">
        <ele>48.387</ele>
        <time>2021-05-05T14:22:07Z</time>
      </trkpt>
      <trkpt lat="38.267845" lon="-0.581403">
        <ele>48.657</ele>
        <time>2021-05-05T14:22:09Z</time>
      </trkpt>
      <trkpt lat="38.267936" lon="-0.581373">
        <ele>48.889</ele>
        <time>2021-05-05T14:22:11Z</time>
      </trkpt>
      <trkpt lat="38.268011" lon="-0.581352">
        <ele>49.276</ele>
        <time>2021-05-05T14:22:12Z</time>
      </trkpt>
      <trkpt lat="38.268063" lon="-0.581338">
        <ele>49.591</ele>
        <time>2021-05-05T14:22:13Z</time>
      </trkpt>
      <trkpt lat="38.268155" lon="-0.581315">
        <ele>49.536</ele>
        <time>2021-05-05T14:22:16Z</time>
      </trkpt>
      <trkpt lat="38.268251" lon="-0.581288">
        <ele>49.417</ele>
        <time>2021-05-05T14:22:18Z</time>
      </trkpt>
      <trkpt lat="38.268315" lon="-0.581277">
        <ele>49.618</ele>
        <time>2021-05-05T14:22:20Z</time>
      </trkpt>
      <trkpt lat="38.268368" lon="-0.581320">
        <ele>49.408</ele>
        <time>2021-05-05T14:22:21Z</time>
      </trkpt>
      <trkpt lat="38.268445" lon="-0.581309">
        <ele>49.380</ele>
        <time>2021-05-05T14:22:23Z</time>
      </trkpt>
      <trkpt lat="38.268510" lon="-0.581300">
        <ele>48.735</ele>
        <time>2021-05-05T14:22:24Z</time>
      </trkpt>
      <trkpt lat="38.268566" lon="-0.581308">
        <ele>48.575</ele>
        <time>2021-05-05T14:22:26Z</time>
      </trkpt>
      <trkpt lat="38.268632" lon="-0.581323">
        <ele>48.098</ele>
        <time>2021-05-05T14:22:28Z</time>
      </trkpt>
      <trkpt lat="38.268710" lon="-0.581349">
        <ele>47.998</ele>
        <time>2021-05-05T14:22:29Z</time>
      </trkpt>
      <trkpt lat="38.268766" lon="-0.581384">
        <ele>47.970</ele>
        <time>2021-05-05T14:22:31Z</time>
      </trkpt>
      <trkpt lat="38.268816" lon="-0.581410">
        <ele>47.677</ele>
        <time>2021-05-05T14:22:32Z</time>
      </trkpt>
      <trkpt lat="38.268859" lon="-0.581430">
        <ele>47.692</ele>
        <time>2021-05-05T14:22:33Z</time>
      </trkpt>
      <trkpt lat="38.268937" lon="-0.581457">
        <ele>47.395</ele>
        <time>2021-05-05T14:22:34Z</time>
      </trkpt>
      <trkpt lat="38.268980" lon="-0.581474">
        <ele>47.349</ele>
        <time>2021-05-05T14:22:36Z</time>
      </trkpt>
      <trkpt lat="38.269048" lon="-0.581513">
        <ele>46.623</ele>
        <time>2021-05-05T14:22:38Z</time>
      </trkpt>
      <trkpt lat="38.269145" lon="-0.581541">
        <ele>46.208</ele>
        <time>2021-05-05T14:22:40Z</time>
      </trkpt>
      <trkpt lat="38.269190" lon="-0.581556">
        <ele>45.476</ele>
        <time>2021-05-05T14:22:41Z</time>
      </trkpt>
      <trkpt lat="38.269278" lon="-0.581583">
        <ele>45.411</ele>
        <time>2021-05-05T14:22:43Z</time>
      </trkpt>
      <trkpt lat="38.269327" lon="-0.581597">
        <ele>45.311</ele>
        <time>2021-05-05T14:22:44Z</time>
      </trkpt>
      <trkpt lat="38.269422" lon="-0.581625">
        <ele>45.164</ele>
        <time>2021-05-05T14:22:46Z</time>
      </trkpt>
      <trkpt lat="38.269515" lon="-0.581653">
        <ele>44.744</ele>
        <time>2021-05-05T14:22:48Z</time>
      </trkpt>
      <trkpt lat="38.269562" lon="-0.581672">
        <ele>44.716</ele>
        <time>2021-05-05T14:22:49Z</time>
      </trkpt>
      <trkpt lat="38.269609" lon="-0.581690">
        <ele>44.463</ele>
        <time>2021-05-05T14:22:50Z</time>
      </trkpt>
      <trkpt lat="38.269702" lon="-0.581717">
        <ele>44.668</ele>
        <time>2021-05-05T14:22:52Z</time>
      </trkpt>
      <trkpt lat="38.269794" lon="-0.581750">
        <ele>44.968</ele>
        <time>2021-05-05T14:22:54Z</time>
      </trkpt>
      <trkpt lat="38.269844" lon="-0.581767">
        <ele>45.242</ele>
        <time>2021-05-05T14:22:55Z</time>
      </trkpt>
      <trkpt lat="38.269895" lon="-0.581783">
        <ele>45.826</ele>
        <time>2021-05-05T14:22:56Z</time>
      </trkpt>
      <trkpt lat="38.269992" lon="-0.581822">
        <ele>46.208</ele>
        <time>2021-05-05T14:22:58Z</time>
      </trkpt>
      <trkpt lat="38.270039" lon="-0.581840">
        <ele>46.893</ele>
        <time>2021-05-05T14:22:59Z</time>
      </trkpt>
      <trkpt lat="38.270085" lon="-0.581859">
        <ele>47.118</ele>
        <time>2021-05-05T14:23:00Z</time>
      </trkpt>
      <trkpt lat="38.270130" lon="-0.581879">
        <ele>47.258</ele>
        <time>2021-05-05T14:23:01Z</time>
      </trkpt>
      <trkpt lat="38.270175" lon="-0.581895">
        <ele>47.241</ele>
        <time>2021-05-05T14:23:02Z</time>
      </trkpt>
      <trkpt lat="38.270266" lon="-0.581928">
        <ele>47.851</ele>
        <time>2021-05-05T14:23:03Z</time>
      </trkpt>
      <trkpt lat="38.270310" lon="-0.581943">
        <ele>48.263</ele>
        <time>2021-05-05T14:23:05Z</time>
      </trkpt>
      <trkpt lat="38.270399" lon="-0.581974">
        <ele>47.950</ele>
        <time>2021-05-05T14:23:07Z</time>
      </trkpt>
      <trkpt lat="38.270444" lon="-0.581992">
        <ele>47.865</ele>
        <time>2021-05-05T14:23:08Z</time>
      </trkpt>
      <trkpt lat="38.270536" lon="-0.582019">
        <ele>47.781</ele>
        <time>2021-05-05T14:23:10Z</time>
      </trkpt>
      <trkpt lat="38.270583" lon="-0.582033">
        <ele>48.361</ele>
        <time>2021-05-05T14:23:11Z</time>
      </trkpt>
      <trkpt lat="38.270659" lon="-0.582056">
        <ele>48.017</ele>
        <time>2021-05-05T14:23:13Z</time>
      </trkpt>
      <trkpt lat="38.270751" lon="-0.582071">
        <ele>47.708</ele>
        <time>2021-05-05T14:23:15Z</time>
      </trkpt>
      <trkpt lat="38.270799" lon="-0.582079">
        <ele>47.855</ele>
        <time>2021-05-05T14:23:16Z</time>
      </trkpt>
      <trkpt lat="38.270878" lon="-0.582091">
        <ele>47.890</ele>
        <time>2021-05-05T14:23:18Z</time>
      </trkpt>
      <trkpt lat="38.270976" lon="-0.582098">
        <ele>48.290</ele>
        <time>2021-05-05T14:23:20Z</time>
      </trkpt>
      <trkpt lat="38.271071" lon="-0.582110">
        <ele>48.253</ele>
        <time>2021-05-05T14:23:21Z</time>
      </trkpt>
      <trkpt lat="38.271160" lon="-0.582120">
        <ele>48.583</ele>
        <time>2021-05-05T14:23:24Z</time>
      </trkpt>
      <trkpt lat="38.271250" lon="-0.582131">
        <ele>48.355</ele>
        <time>2021-05-05T14:23:25Z</time>
      </trkpt>
      <trkpt lat="38.271309" lon="-0.582135">
        <ele>48.532</ele>
        <time>2021-05-05T14:23:27Z</time>
      </trkpt>
      <trkpt lat="38.271364" lon="-0.582144">
        <ele>48.687</ele>
        <time>2021-05-05T14:23:28Z</time>
      </trkpt>
      <trkpt lat="38.271416" lon="-0.582149">
        <ele>48.831</ele>
        <time>2021-05-05T14:23:29Z</time>
      </trkpt>
      <trkpt lat="38.271472" lon="-0.582160">
        <ele>48.761</ele>
        <time>2021-05-05T14:23:31Z</time>
      </trkpt>
      <trkpt lat="38.271548" lon="-0.582172">
        <ele>48.807</ele>
        <time>2021-05-05T14:23:33Z</time>
      </trkpt>
      <trkpt lat="38.271605" lon="-0.582173">
        <ele>49.108</ele>
        <time>2021-05-05T14:23:35Z</time>
      </trkpt>
      <trkpt lat="38.271662" lon="-0.582181">
        <ele>49.170</ele>
        <time>2021-05-05T14:23:36Z</time>
      </trkpt>
      <trkpt lat="38.271745" lon="-0.582185">
        <ele>49.245</ele>
        <time>2021-05-05T14:23:39Z</time>
      </trkpt>
      <trkpt lat="38.271813" lon="-0.582196">
        <ele>49.035</ele>
        <time>2021-05-05T14:23:40Z</time>
      </trkpt>
      <trkpt lat="38.271872" lon="-0.582207">
        <ele>49.298</ele>
        <time>2021-05-05T14:23:42Z</time>
      </trkpt>
      <trkpt lat="38.271934" lon="-0.582223">
        <ele>49.918</ele>
        <time>2021-05-05T14:23:45Z</time>
      </trkpt>
      <trkpt lat="38.271988" lon="-0.582218">
        <ele>50.490</ele>
        <time>2021-05-05T14:23:46Z</time>
      </trkpt>
      <trkpt lat="38.272046" lon="-0.582219">
        <ele>50.367</ele>
        <time>2021-05-05T14:23:48Z</time>
      </trkpt>
      <trkpt lat="38.272105" lon="-0.582223">
        <ele>49.632</ele>
        <time>2021-05-05T14:23:51Z</time>
      </trkpt>
      <trkpt lat="38.272173" lon="-0.582222">
        <ele>49.262</ele>
        <time>2021-05-05T14:23:53Z</time>
      </trkpt>
      <trkpt lat="38.272227" lon="-0.582236">
        <ele>49.283</ele>
        <time>2021-05-05T14:23:54Z</time>
      </trkpt>
      <trkpt lat="38.272275" lon="-0.582241">
        <ele>49.011</ele>
        <time>2021-05-05T14:23:55Z</time>
      </trkpt>
      <trkpt lat="38.272341" lon="-0.582236">
        <ele>48.708</ele>
        <time>2021-05-05T14:23:58Z</time>
      </trkpt>
      <trkpt lat="38.272417" lon="-0.582246">
        <ele>48.493</ele>
        <time>2021-05-05T14:24:01Z</time>
      </trkpt>
      <trkpt lat="38.272464" lon="-0.582254">
        <ele>48.138</ele>
        <time>2021-05-05T14:24:03Z</time>
      </trkpt>
      <trkpt lat="38.272531" lon="-0.582247">
        <ele>48.478</ele>
        <time>2021-05-05T14:24:06Z</time>
      </trkpt>
      <trkpt lat="38.272585" lon="-0.582234">
        <ele>48.491</ele>
        <time>2021-05-05T14:24:07Z</time>
      </trkpt>
      <trkpt lat="38.272634" lon="-0.582235">
        <ele>48.521</ele>
        <time>2021-05-05T14:24:09Z</time>
      </trkpt>
      <trkpt lat="38.272680" lon="-0.582244">
        <ele>48.743</ele>
        <time>2021-05-05T14:24:10Z</time>
      </trkpt>
      <trkpt lat="38.272762" lon="-0.582255">
        <ele>48.890</ele>
        <time>2021-05-05T14:24:13Z</time>
      </trkpt>
      <trkpt lat="38.272826" lon="-0.582274">
        <ele>48.985</ele>
        <time>2021-05-05T14:24:14Z</time>
      </trkpt>
      <trkpt lat="38.272905" lon="-0.582300">
        <ele>48.887</ele>
        <time>2021-05-05T14:24:17Z</time>
      </trkpt>
      <trkpt lat="38.272977" lon="-0.582321">
        <ele>48.842</ele>
        <time>2021-05-05T14:24:19Z</time>
      </trkpt>
      <trkpt lat="38.273049" lon="-0.582338">
        <ele>48.826</ele>
        <time>2021-05-05T14:24:21Z</time>
      </trkpt>
      <trkpt lat="38.273121" lon="-0.582359">
        <ele>48.908</ele>
        <time>2021-05-05T14:24:23Z</time>
      </trkpt>
      <trkpt lat="38.273193" lon="-0.582383">
        <ele>48.825</ele>
        <time>2021-05-05T14:24:25Z</time>
      </trkpt>
      <trkpt lat="38.273275" lon="-0.582410">
        <ele>48.870</ele>
        <time>2021-05-05T14:24:27Z</time>
      </trkpt>
      <trkpt lat="38.273357" lon="-0.582443">
        <ele>48.940</ele>
        <time>2021-05-05T14:24:29Z</time>
      </trkpt>
      <trkpt lat="38.273430" lon="-0.582493">
        <ele>48.923</ele>
        <time>2021-05-05T14:24:31Z</time>
      </trkpt>
      <trkpt lat="38.273500" lon="-0.582540">
        <ele>48.853</ele>
        <time>2021-05-05T14:24:33Z</time>
      </trkpt>
      <trkpt lat="38.273580" lon="-0.582599">
        <ele>48.865</ele>
        <time>2021-05-05T14:24:35Z</time>
      </trkpt>
      <trkpt lat="38.273649" lon="-0.582666">
        <ele>49.222</ele>
        <time>2021-05-05T14:24:37Z</time>
      </trkpt>
      <trkpt lat="38.273730" lon="-0.582748">
        <ele>49.387</ele>
        <time>2021-05-05T14:24:39Z</time>
      </trkpt>
      <trkpt lat="38.273769" lon="-0.582788">
        <ele>49.414</ele>
        <time>2021-05-05T14:24:40Z</time>
      </trkpt>
      <trkpt lat="38.273844" lon="-0.582867">
        <ele>49.654</ele>
        <time>2021-05-05T14:24:42Z</time>
      </trkpt>
      <trkpt lat="38.273918" lon="-0.582943">
        <ele>50.009</ele>
        <time>2021-05-05T14:24:44Z</time>
      </trkpt>
      <trkpt lat="38.273993" lon="-0.583016">
        <ele>50.408</ele>
        <time>2021-05-05T14:24:45Z</time>
      </trkpt>
      <trkpt lat="38.274031" lon="-0.583053">
        <ele>50.558</ele>
        <time>2021-05-05T14:24:46Z</time>
      </trkpt>
      <trkpt lat="38.274069" lon="-0.583089">
        <ele>50.713</ele>
        <time>2021-05-05T14:24:48Z</time>
      </trkpt>
      <trkpt lat="38.274149" lon="-0.583165">
        <ele>51.193</ele>
        <time>2021-05-05T14:24:50Z</time>
      </trkpt>
      <trkpt lat="38.274227" lon="-0.583241">
        <ele>51.326</ele>
        <time>2021-05-05T14:24:52Z</time>
      </trkpt>
      <trkpt lat="38.274267" lon="-0.583276">
        <ele>51.626</ele>
        <time>2021-05-05T14:24:53Z</time>
      </trkpt>
      <trkpt lat="38.274344" lon="-0.583351">
        <ele>52.498</ele>
        <time>2021-05-05T14:24:55Z</time>
      </trkpt>
      <trkpt lat="38.274384" lon="-0.583386">
        <ele>52.855</ele>
        <time>2021-05-05T14:24:56Z</time>
      </trkpt>
      <trkpt lat="38.274463" lon="-0.583454">
        <ele>53.770</ele>
        <time>2021-05-05T14:24:58Z</time>
      </trkpt>
      <trkpt lat="38.274539" lon="-0.583522">
        <ele>54.446</ele>
        <time>2021-05-05T14:25:00Z</time>
      </trkpt>
      <trkpt lat="38.274611" lon="-0.583583">
        <ele>54.888</ele>
        <time>2021-05-05T14:25:02Z</time>
      </trkpt>
      <trkpt lat="38.274672" lon="-0.583642">
        <ele>54.916</ele>
        <time>2021-05-05T14:25:03Z</time>
      </trkpt>
      <trkpt lat="38.274731" lon="-0.583696">
        <ele>54.908</ele>
        <time>2021-05-05T14:25:05Z</time>
      </trkpt>
      <trkpt lat="38.274776" lon="-0.583730">
        <ele>54.821</ele>
        <time>2021-05-05T14:25:07Z</time>
      </trkpt>
      <trkpt lat="38.274846" lon="-0.583788">
        <ele>54.946</ele>
        <time>2021-05-05T14:25:09Z</time>
      </trkpt>
      <trkpt lat="38.274910" lon="-0.583841">
        <ele>54.386</ele>
        <time>2021-05-05T14:25:10Z</time>
      </trkpt>
      <trkpt lat="38.274979" lon="-0.583898">
        <ele>54.079</ele>
        <time>2021-05-05T14:25:12Z</time>
      </trkpt>
      <trkpt lat="38.275022" lon="-0.583928">
        <ele>53.679</ele>
        <time>2021-05-05T14:25:14Z</time>
      </trkpt>
      <trkpt lat="38.275087" lon="-0.583977">
        <ele>53.441</ele>
        <time>2021-05-05T14:25:16Z</time>
      </trkpt>
      <trkpt lat="38.275153" lon="-0.584021">
        <ele>53.528</ele>
        <time>2021-05-05T14:25:18Z</time>
      </trkpt>
      <trkpt lat="38.275224" lon="-0.584072">
        <ele>54.013</ele>
        <time>2021-05-05T14:25:20Z</time>
      </trkpt>
      <trkpt lat="38.275286" lon="-0.584106">
        <ele>54.229</ele>
        <time>2021-05-05T14:25:21Z</time>
      </trkpt>
      <trkpt lat="38.275361" lon="-0.584157">
        <ele>54.200</ele>
        <time>2021-05-05T14:25:23Z</time>
      </trkpt>
      <trkpt lat="38.275428" lon="-0.584201">
        <ele>54.520</ele>
        <time>2021-05-05T14:25:25Z</time>
      </trkpt>
      <trkpt lat="38.275508" lon="-0.584248">
        <ele>54.208</ele>
        <time>2021-05-05T14:25:28Z</time>
      </trkpt>
      <trkpt lat="38.275580" lon="-0.584290">
        <ele>54.339</ele>
        <time>2021-05-05T14:25:29Z</time>
      </trkpt>
      <trkpt lat="38.275655" lon="-0.584336">
        <ele>54.274</ele>
        <time>2021-05-05T14:25:31Z</time>
      </trkpt>
      <trkpt lat="38.275697" lon="-0.584361">
        <ele>54.174</ele>
        <time>2021-05-05T14:25:33Z</time>
      </trkpt>
      <trkpt lat="38.275775" lon="-0.584408">
        <ele>53.997</ele>
        <time>2021-05-05T14:25:34Z</time>
      </trkpt>
      <trkpt lat="38.275861" lon="-0.584463">
        <ele>54.017</ele>
        <time>2021-05-05T14:25:37Z</time>
      </trkpt>
      <trkpt lat="38.275953" lon="-0.584521">
        <ele>54.189</ele>
        <time>2021-05-05T14:25:39Z</time>
      </trkpt>
      <trkpt lat="38.276041" lon="-0.584583">
        <ele>54.156</ele>
        <time>2021-05-05T14:25:40Z</time>
      </trkpt>
      <trkpt lat="38.276086" lon="-0.584610">
        <ele>54.211</ele>
        <time>2021-05-05T14:25:42Z</time>
      </trkpt>
      <trkpt lat="38.276132" lon="-0.584638">
        <ele>54.189</ele>
        <time>2021-05-05T14:25:43Z</time>
      </trkpt>
      <trkpt lat="38.276222" lon="-0.584695">
        <ele>54.206</ele>
        <time>2021-05-05T14:25:44Z</time>
      </trkpt>
      <trkpt lat="38.276266" lon="-0.584722">
        <ele>54.126</ele>
        <time>2021-05-05T14:25:46Z</time>
      </trkpt>
      <trkpt lat="38.276351" lon="-0.584772">
        <ele>54.308</ele>
        <time>2021-05-05T14:25:48Z</time>
      </trkpt>
      <trkpt lat="38.276433" lon="-0.584822">
        <ele>54.385</ele>
        <time>2021-05-05T14:25:49Z</time>
      </trkpt>
      <trkpt lat="38.276474" lon="-0.584847">
        <ele>54.380</ele>
        <time>2021-05-05T14:25:51Z</time>
      </trkpt>
      <trkpt lat="38.276516" lon="-0.584873">
        <ele>54.320</ele>
        <time>2021-05-05T14:25:52Z</time>
      </trkpt>
      <trkpt lat="38.276599" lon="-0.584922">
        <ele>54.433</ele>
        <time>2021-05-05T14:25:54Z</time>
      </trkpt>
      <trkpt lat="38.276682" lon="-0.584975">
        <ele>54.553</ele>
        <time>2021-05-05T14:25:55Z</time>
      </trkpt>
      <trkpt lat="38.276725" lon="-0.585004">
        <ele>54.515</ele>
        <time>2021-05-05T14:25:57Z</time>
      </trkpt>
      <trkpt lat="38.276810" lon="-0.585061">
        <ele>54.552</ele>
        <time>2021-05-05T14:25:59Z</time>
      </trkpt>
      <trkpt lat="38.276894" lon="-0.585117">
        <ele>54.377</ele>
        <time>2021-05-05T14:26:00Z</time>
      </trkpt>
      <trkpt lat="38.276937" lon="-0.585144">
        <ele>54.155</ele>
        <time>2021-05-05T14:26:02Z</time>
      </trkpt>
      <trkpt lat="38.276980" lon="-0.585171">
        <ele>54.107</ele>
        <time>2021-05-05T14:26:03Z</time>
      </trkpt>
      <trkpt lat="38.277069" lon="-0.585224">
        <ele>54.317</ele>
        <time>2021-05-05T14:26:04Z</time>
      </trkpt>
      <trkpt lat="38.277114" lon="-0.585250">
        <ele>54.408</ele>
        <time>2021-05-05T14:26:06Z</time>
      </trkpt>
      <trkpt lat="38.277159" lon="-0.585276">
        <ele>54.512</ele>
        <time>2021-05-05T14:26:07Z</time>
      </trkpt>
      <trkpt lat="38.277248" lon="-0.585332">
        <ele>54.797</ele>
        <time>2021-05-05T14:26:09Z</time>
      </trkpt>
      <trkpt lat="38.277337" lon="-0.585388">
        <ele>54.617</ele>
        <time>2021-05-05T14:26:10Z</time>
      </trkpt>
      <trkpt lat="38.277383" lon="-0.585417">
        <ele>54.590</ele>
        <time>2021-05-05T14:26:11Z</time>
      </trkpt>
      <trkpt lat="38.277427" lon="-0.585445">
        <ele>54.380</ele>
        <time>2021-05-05T14:26:13Z</time>
      </trkpt>
      <trkpt lat="38.277513" lon="-0.585503">
        <ele>54.492</ele>
        <time>2021-05-05T14:26:14Z</time>
      </trkpt>
      <trkpt lat="38.277557" lon="-0.585532">
        <ele>54.839</ele>
        <time>2021-05-05T14:26:15Z</time>
      </trkpt>
      <trkpt lat="38.277646" lon="-0.585592">
        <ele>55.034</ele>
        <time>2021-05-05T14:26:18Z</time>
      </trkpt>
      <trkpt lat="38.277690" lon="-0.585621">
        <ele>55.385</ele>
        <time>2021-05-05T14:26:19Z</time>
      </trkpt>
      <trkpt lat="38.277779" lon="-0.585675">
        <ele>55.689</ele>
        <time>2021-05-05T14:26:21Z</time>
      </trkpt>
      <trkpt lat="38.277823" lon="-0.585704">
        <ele>55.717</ele>
        <time>2021-05-05T14:26:22Z</time>
      </trkpt>
      <trkpt lat="38.277913" lon="-0.585761">
        <ele>55.808</ele>
        <time>2021-05-05T14:26:23Z</time>
      </trkpt>
      <trkpt lat="38.277959" lon="-0.585789">
        <ele>55.845</ele>
        <time>2021-05-05T14:26:25Z</time>
      </trkpt>
      <trkpt lat="38.278004" lon="-0.585817">
        <ele>55.830</ele>
        <time>2021-05-05T14:26:26Z</time>
      </trkpt>
      <trkpt lat="38.278094" lon="-0.585872">
        <ele>55.650</ele>
        <time>2021-05-05T14:26:28Z</time>
      </trkpt>
      <trkpt lat="38.278140" lon="-0.585901">
        <ele>55.313</ele>
        <time>2021-05-05T14:26:29Z</time>
      </trkpt>
      <trkpt lat="38.278233" lon="-0.585958">
        <ele>55.493</ele>
        <time>2021-05-05T14:26:30Z</time>
      </trkpt>
      <trkpt lat="38.278281" lon="-0.585985">
        <ele>55.565</ele>
        <time>2021-05-05T14:26:32Z</time>
      </trkpt>
      <trkpt lat="38.278379" lon="-0.586041">
        <ele>55.322</ele>
        <time>2021-05-05T14:26:34Z</time>
      </trkpt>
      <trkpt lat="38.278430" lon="-0.586067">
        <ele>55.367</ele>
        <time>2021-05-05T14:26:35Z</time>
      </trkpt>
      <trkpt lat="38.278534" lon="-0.586120">
        <ele>55.324</ele>
        <time>2021-05-05T14:26:37Z</time>
      </trkpt>
      <trkpt lat="38.278586" lon="-0.586144">
        <ele>55.504</ele>
        <time>2021-05-05T14:26:38Z</time>
      </trkpt>
      <trkpt lat="38.278688" lon="-0.586176">
        <ele>55.714</ele>
        <time>2021-05-05T14:26:39Z</time>
      </trkpt>
      <trkpt lat="38.278738" lon="-0.586174">
        <ele>56.008</ele>
        <time>2021-05-05T14:26:41Z</time>
      </trkpt>
      <trkpt lat="38.278787" lon="-0.586184">
        <ele>56.329</ele>
        <time>2021-05-05T14:26:42Z</time>
      </trkpt>
      <trkpt lat="38.278865" lon="-0.586179">
        <ele>56.464</ele>
        <time>2021-05-05T14:26:43Z</time>
      </trkpt>
      <trkpt lat="38.278914" lon="-0.586175">
        <ele>56.614</ele>
        <time>2021-05-05T14:26:45Z</time>
      </trkpt>
      <trkpt lat="38.278967" lon="-0.586172">
        <ele>56.477</ele>
        <time>2021-05-05T14:26:46Z</time>
      </trkpt>
      <trkpt lat="38.279063" lon="-0.586156">
        <ele>56.497</ele>
        <time>2021-05-05T14:26:48Z</time>
      </trkpt>
      <trkpt lat="38.279156" lon="-0.586136">
        <ele>56.329</ele>
        <time>2021-05-05T14:26:49Z</time>
      </trkpt>
      <trkpt lat="38.279211" lon="-0.586122">
        <ele>56.216</ele>
        <time>2021-05-05T14:26:51Z</time>
      </trkpt>
      <trkpt lat="38.279263" lon="-0.586106">
        <ele>56.571</ele>
        <time>2021-05-05T14:26:52Z</time>
      </trkpt>
      <trkpt lat="38.279358" lon="-0.586065">
        <ele>56.681</ele>
        <time>2021-05-05T14:26:53Z</time>
      </trkpt>
      <trkpt lat="38.279406" lon="-0.586040">
        <ele>56.561</ele>
        <time>2021-05-05T14:26:54Z</time>
      </trkpt>
      <trkpt lat="38.279494" lon="-0.585976">
        <ele>56.617</ele>
        <time>2021-05-05T14:26:57Z</time>
      </trkpt>
      <trkpt lat="38.279580" lon="-0.585909">
        <ele>57.008</ele>
        <time>2021-05-05T14:26:59Z</time>
      </trkpt>
      <trkpt lat="38.279621" lon="-0.585874">
        <ele>56.995</ele>
        <time>2021-05-05T14:27:00Z</time>
      </trkpt>
      <trkpt lat="38.279703" lon="-0.585811">
        <ele>57.290</ele>
        <time>2021-05-05T14:27:02Z</time>
      </trkpt>
      <trkpt lat="38.279783" lon="-0.585749">
        <ele>57.540</ele>
        <time>2021-05-05T14:27:04Z</time>
      </trkpt>
      <trkpt lat="38.279822" lon="-0.585718">
        <ele>57.923</ele>
        <time>2021-05-05T14:27:05Z</time>
      </trkpt>
      <trkpt lat="38.279904" lon="-0.585665">
        <ele>58.023</ele>
        <time>2021-05-05T14:27:07Z</time>
      </trkpt>
      <trkpt lat="38.279946" lon="-0.585640">
        <ele>58.065</ele>
        <time>2021-05-05T14:27:08Z</time>
      </trkpt>
      <trkpt lat="38.280033" lon="-0.585591">
        <ele>57.842</ele>
        <time>2021-05-05T14:27:10Z</time>
      </trkpt>
      <trkpt lat="38.280078" lon="-0.585571">
        <ele>57.657</ele>
        <time>2021-05-05T14:27:11Z</time>
      </trkpt>
      <trkpt lat="38.280166" lon="-0.585532">
        <ele>57.937</ele>
        <time>2021-05-05T14:27:13Z</time>
      </trkpt>
      <trkpt lat="38.280255" lon="-0.585491">
        <ele>57.849</ele>
        <time>2021-05-05T14:27:15Z</time>
      </trkpt>
      <trkpt lat="38.280344" lon="-0.585461">
        <ele>58.213</ele>
        <time>2021-05-05T14:27:17Z</time>
      </trkpt>
      <trkpt lat="38.280433" lon="-0.585435">
        <ele>58.608</ele>
        <time>2021-05-05T14:27:19Z</time>
      </trkpt>
      <trkpt lat="38.280479" lon="-0.585423">
        <ele>58.760</ele>
        <time>2021-05-05T14:27:20Z</time>
      </trkpt>
      <trkpt lat="38.280573" lon="-0.585396">
        <ele>58.795</ele>
        <time>2021-05-05T14:27:22Z</time>
      </trkpt>
      <trkpt lat="38.280668" lon="-0.585369">
        <ele>58.675</ele>
        <time>2021-05-05T14:27:24Z</time>
      </trkpt>
      <trkpt lat="38.280762" lon="-0.585339">
        <ele>58.568</ele>
        <time>2021-05-05T14:27:26Z</time>
      </trkpt>
      <trkpt lat="38.280808" lon="-0.585325">
        <ele>58.518</ele>
        <time>2021-05-05T14:27:27Z</time>
      </trkpt>
      <trkpt lat="38.280901" lon="-0.585297">
        <ele>58.840</ele>
        <time>2021-05-05T14:27:29Z</time>
      </trkpt>
      <trkpt lat="38.280945" lon="-0.585282">
        <ele>59.227</ele>
        <time>2021-05-05T14:27:30Z</time>
      </trkpt>
      <trkpt lat="38.281038" lon="-0.585258">
        <ele>59.472</ele>
        <time>2021-05-05T14:27:32Z</time>
      </trkpt>
      <trkpt lat="38.281132" lon="-0.585235">
        <ele>59.655</ele>
        <time>2021-05-05T14:27:34Z</time>
      </trkpt>
      <trkpt lat="38.281177" lon="-0.585222">
        <ele>60.207</ele>
        <time>2021-05-05T14:27:35Z</time>
      </trkpt>
      <trkpt lat="38.281221" lon="-0.585210">
        <ele>60.117</ele>
        <time>2021-05-05T14:27:36Z</time>
      </trkpt>
      <trkpt lat="38.281266" lon="-0.585201">
        <ele>60.308</ele>
        <time>2021-05-05T14:27:37Z</time>
      </trkpt>
      <trkpt lat="38.281354" lon="-0.585174">
        <ele>60.452</ele>
        <time>2021-05-05T14:27:38Z</time>
      </trkpt>
      <trkpt lat="38.281441" lon="-0.585149">
        <ele>60.367</ele>
        <time>2021-05-05T14:27:41Z</time>
      </trkpt>
      <trkpt lat="38.281525" lon="-0.585127">
        <ele>60.127</ele>
        <time>2021-05-05T14:27:43Z</time>
      </trkpt>
      <trkpt lat="38.281594" lon="-0.585106">
        <ele>60.130</ele>
        <time>2021-05-05T14:27:45Z</time>
      </trkpt>
      <trkpt lat="38.281686" lon="-0.585082">
        <ele>60.020</ele>
        <time>2021-05-05T14:27:47Z</time>
      </trkpt>
      <trkpt lat="38.281773" lon="-0.585054">
        <ele>60.252</ele>
        <time>2021-05-05T14:27:49Z</time>
      </trkpt>
      <trkpt lat="38.281850" lon="-0.585028">
        <ele>60.619</ele>
        <time>2021-05-05T14:27:50Z</time>
      </trkpt>
      <trkpt lat="38.281931" lon="-0.584997">
        <ele>60.514</ele>
        <time>2021-05-05T14:27:52Z</time>
      </trkpt>
      <trkpt lat="38.281972" lon="-0.584971">
        <ele>60.441</ele>
        <time>2021-05-05T14:27:53Z</time>
      </trkpt>
      <trkpt lat="38.282039" lon="-0.584917">
        <ele>60.381</ele>
        <time>2021-05-05T14:27:55Z</time>
      </trkpt>
      <trkpt lat="38.282091" lon="-0.584870">
        <ele>60.209</ele>
        <time>2021-05-05T14:27:57Z</time>
      </trkpt>
      <trkpt lat="38.282136" lon="-0.584807">
        <ele>60.308</ele>
        <time>2021-05-05T14:27:59Z</time>
      </trkpt>
      <trkpt lat="38.282184" lon="-0.584739">
        <ele>60.341</ele>
        <time>2021-05-05T14:28:01Z</time>
      </trkpt>
      <trkpt lat="38.282218" lon="-0.584693">
        <ele>60.666</ele>
        <time>2021-05-05T14:28:02Z</time>
      </trkpt>
      <trkpt lat="38.282268" lon="-0.584626">
        <ele>60.656</ele>
        <time>2021-05-05T14:28:04Z</time>
      </trkpt>
      <trkpt lat="38.282300" lon="-0.584577">
        <ele>60.679</ele>
        <time>2021-05-05T14:28:05Z</time>
      </trkpt>
      <trkpt lat="38.282333" lon="-0.584524">
        <ele>60.669</ele>
        <time>2021-05-05T14:28:06Z</time>
      </trkpt>
      <trkpt lat="38.282379" lon="-0.584461">
        <ele>60.691</ele>
        <time>2021-05-05T14:28:08Z</time>
      </trkpt>
      <trkpt lat="38.282414" lon="-0.584419">
        <ele>60.828</ele>
        <time>2021-05-05T14:28:09Z</time>
      </trkpt>
      <trkpt lat="38.282453" lon="-0.584363">
        <ele>60.913</ele>
        <time>2021-05-05T14:28:10Z</time>
      </trkpt>
      <trkpt lat="38.282487" lon="-0.584319">
        <ele>61.398</ele>
        <time>2021-05-05T14:28:11Z</time>
      </trkpt>
      <trkpt lat="38.282530" lon="-0.584258">
        <ele>61.415</ele>
        <time>2021-05-05T14:28:13Z</time>
      </trkpt>
      <trkpt lat="38.282573" lon="-0.584198">
        <ele>61.426</ele>
        <time>2021-05-05T14:28:14Z</time>
      </trkpt>
      <trkpt lat="38.282609" lon="-0.584150">
        <ele>61.308</ele>
        <time>2021-05-05T14:28:15Z</time>
      </trkpt>
      <trkpt lat="38.282660" lon="-0.584079">
        <ele>61.356</ele>
        <time>2021-05-05T14:28:17Z</time>
      </trkpt>
      <trkpt lat="38.282688" lon="-0.584034">
        <ele>61.261</ele>
        <time>2021-05-05T14:28:18Z</time>
      </trkpt>
      <trkpt lat="38.282745" lon="-0.583953">
        <ele>61.191</ele>
        <time>2021-05-05T14:28:20Z</time>
      </trkpt>
      <trkpt lat="38.282783" lon="-0.583911">
        <ele>61.084</ele>
        <time>2021-05-05T14:28:21Z</time>
      </trkpt>
      <trkpt lat="38.282821" lon="-0.583861">
        <ele>61.144</ele>
        <time>2021-05-05T14:28:22Z</time>
      </trkpt>
      <trkpt lat="38.282872" lon="-0.583794">
        <ele>61.356</ele>
        <time>2021-05-05T14:28:24Z</time>
      </trkpt>
      <trkpt lat="38.282910" lon="-0.583749">
        <ele>61.673</ele>
        <time>2021-05-05T14:28:25Z</time>
      </trkpt>
      <trkpt lat="38.282953" lon="-0.583696">
        <ele>61.728</ele>
        <time>2021-05-05T14:28:27Z</time>
      </trkpt>
      <trkpt lat="38.282988" lon="-0.583653">
        <ele>61.861</ele>
        <time>2021-05-05T14:28:28Z</time>
      </trkpt>
      <trkpt lat="38.283043" lon="-0.583585">
        <ele>61.721</ele>
        <time>2021-05-05T14:28:30Z</time>
      </trkpt>
      <trkpt lat="38.283110" lon="-0.583504">
        <ele>61.913</ele>
        <time>2021-05-05T14:28:32Z</time>
      </trkpt>
      <trkpt lat="38.283147" lon="-0.583470">
        <ele>61.908</ele>
        <time>2021-05-05T14:28:33Z</time>
      </trkpt>
      <trkpt lat="38.283195" lon="-0.583409">
        <ele>61.663</ele>
        <time>2021-05-05T14:28:34Z</time>
      </trkpt>
      <trkpt lat="38.283260" lon="-0.583341">
        <ele>61.428</ele>
        <time>2021-05-05T14:28:37Z</time>
      </trkpt>
      <trkpt lat="38.283330" lon="-0.583277">
        <ele>61.418</ele>
        <time>2021-05-05T14:28:39Z</time>
      </trkpt>
      <trkpt lat="38.283392" lon="-0.583221">
        <ele>61.541</ele>
        <time>2021-05-05T14:28:41Z</time>
      </trkpt>
      <trkpt lat="38.283434" lon="-0.583183">
        <ele>61.361</ele>
        <time>2021-05-05T14:28:42Z</time>
      </trkpt>
      <trkpt lat="38.283508" lon="-0.583115">
        <ele>61.093</ele>
        <time>2021-05-05T14:28:44Z</time>
      </trkpt>
      <trkpt lat="38.283577" lon="-0.583045">
        <ele>60.910</ele>
        <time>2021-05-05T14:28:46Z</time>
      </trkpt>
      <trkpt lat="38.283647" lon="-0.582979">
        <ele>60.955</ele>
        <time>2021-05-05T14:28:47Z</time>
      </trkpt>
      <trkpt lat="38.283712" lon="-0.582920">
        <ele>60.617</ele>
        <time>2021-05-05T14:28:50Z</time>
      </trkpt>
      <trkpt lat="38.283759" lon="-0.582870">
        <ele>60.887</ele>
        <time>2021-05-05T14:28:51Z</time>
      </trkpt>
      <trkpt lat="38.283811" lon="-0.582821">
        <ele>61.015</ele>
        <time>2021-05-05T14:28:54Z</time>
      </trkpt>
      <trkpt lat="38.283852" lon="-0.582782">
        <ele>60.808</ele>
        <time>2021-05-05T14:28:55Z</time>
      </trkpt>
      <trkpt lat="38.283895" lon="-0.582735">
        <ele>60.818</ele>
        <time>2021-05-05T14:28:59Z</time>
      </trkpt>
      <trkpt lat="38.283932" lon="-0.582698">
        <ele>61.063</ele>
        <time>2021-05-05T14:29:01Z</time>
      </trkpt>
      <trkpt lat="38.283969" lon="-0.582658">
        <ele>60.843</ele>
        <time>2021-05-05T14:29:07Z</time>
      </trkpt>
      <trkpt lat="38.284006" lon="-0.582619">
        <ele>60.926</ele>
        <time>2021-05-05T14:29:10Z</time>
      </trkpt>
      <trkpt lat="38.284046" lon="-0.582650">
        <ele>60.986</ele>
        <time>2021-05-05T14:29:12Z</time>
      </trkpt>
      <trkpt lat="38.284073" lon="-0.582719">
        <ele>61.128</ele>
        <time>2021-05-05T14:29:15Z</time>
      </trkpt>
      <trkpt lat="38.284084" lon="-0.582802">
        <ele>61.025</ele>
        <time>2021-05-05T14:29:17Z</time>
      </trkpt>
      <trkpt lat="38.284094" lon="-0.582884">
        <ele>60.620</ele>
        <time>2021-05-05T14:29:18Z</time>
      </trkpt>
      <trkpt lat="38.284108" lon="-0.582972">
        <ele>60.898</ele>
        <time>2021-05-05T14:29:20Z</time>
      </trkpt>
      <trkpt lat="38.284120" lon="-0.583071">
        <ele>60.815</ele>
        <time>2021-05-05T14:29:23Z</time>
      </trkpt>
      <trkpt lat="38.284133" lon="-0.583182">
        <ele>61.226</ele>
        <time>2021-05-05T14:29:24Z</time>
      </trkpt>
      <trkpt lat="38.284148" lon="-0.583284">
        <ele>61.308</ele>
        <time>2021-05-05T14:29:26Z</time>
      </trkpt>
      <trkpt lat="38.284164" lon="-0.583373">
        <ele>61.576</ele>
        <time>2021-05-05T14:29:29Z</time>
      </trkpt>
      <trkpt lat="38.284179" lon="-0.583476">
        <ele>61.741</ele>
        <time>2021-05-05T14:29:30Z</time>
      </trkpt>
      <trkpt lat="38.284187" lon="-0.583538">
        <ele>61.791</ele>
        <time>2021-05-05T14:29:32Z</time>
      </trkpt>
      <trkpt lat="38.284207" lon="-0.583650">
        <ele>61.714</ele>
        <time>2021-05-05T14:29:34Z</time>
      </trkpt>
      <trkpt lat="38.284229" lon="-0.583766">
        <ele>62.024</ele>
        <time>2021-05-05T14:29:35Z</time>
      </trkpt>
      <trkpt lat="38.284237" lon="-0.583828">
        <ele>62.016</ele>
        <time>2021-05-05T14:29:37Z</time>
      </trkpt>
      <trkpt lat="38.284257" lon="-0.583948">
        <ele>62.383</ele>
        <time>2021-05-05T14:29:39Z</time>
      </trkpt>
      <trkpt lat="38.284275" lon="-0.584063">
        <ele>62.138</ele>
        <time>2021-05-05T14:29:40Z</time>
      </trkpt>
      <trkpt lat="38.284283" lon="-0.584124">
        <ele>62.167</ele>
        <time>2021-05-05T14:29:41Z</time>
      </trkpt>
      <trkpt lat="38.284302" lon="-0.584246">
        <ele>62.181</ele>
        <time>2021-05-05T14:29:43Z</time>
      </trkpt>
      <trkpt lat="38.284309" lon="-0.584307">
        <ele>62.019</ele>
        <time>2021-05-05T14:29:45Z</time>
      </trkpt>
      <trkpt lat="38.284331" lon="-0.584427">
        <ele>62.008</ele>
        <time>2021-05-05T14:29:46Z</time>
      </trkpt>
      <trkpt lat="38.284351" lon="-0.584546">
        <ele>62.183</ele>
        <time>2021-05-05T14:29:49Z</time>
      </trkpt>
      <trkpt lat="38.284368" lon="-0.584660">
        <ele>62.218</ele>
        <time>2021-05-05T14:29:51Z</time>
      </trkpt>
      <trkpt lat="38.284382" lon="-0.584749">
        <ele>62.028</ele>
        <time>2021-05-05T14:29:52Z</time>
      </trkpt>
      <trkpt lat="38.284399" lon="-0.584865">
        <ele>61.961</ele>
        <time>2021-05-05T14:29:55Z</time>
      </trkpt>
      <trkpt lat="38.284421" lon="-0.584992">
        <ele>61.871</ele>
        <time>2021-05-05T14:29:56Z</time>
      </trkpt>
      <trkpt lat="38.284437" lon="-0.585111">
        <ele>62.033</ele>
        <time>2021-05-05T14:29:58Z</time>
      </trkpt>
      <trkpt lat="38.284444" lon="-0.585170">
        <ele>62.110</ele>
        <time>2021-05-05T14:30:00Z</time>
      </trkpt>
      <trkpt lat="38.284464" lon="-0.585285">
        <ele>61.865</ele>
        <time>2021-05-05T14:30:01Z</time>
      </trkpt>
      <trkpt lat="38.284481" lon="-0.585380">
        <ele>61.825</ele>
        <time>2021-05-05T14:30:04Z</time>
      </trkpt>
      <trkpt lat="38.284497" lon="-0.585508">
        <ele>61.926</ele>
        <time>2021-05-05T14:30:06Z</time>
      </trkpt>
      <trkpt lat="38.284506" lon="-0.585570">
        <ele>61.908</ele>
        <time>2021-05-05T14:30:07Z</time>
      </trkpt>
      <trkpt lat="38.284528" lon="-0.585688">
        <ele>62.008</ele>
        <time>2021-05-05T14:30:08Z</time>
      </trkpt>
      <trkpt lat="38.284553" lon="-0.585807">
        <ele>62.039</ele>
        <time>2021-05-05T14:30:10Z</time>
      </trkpt>
      <trkpt lat="38.284571" lon="-0.585928">
        <ele>61.974</ele>
        <time>2021-05-05T14:30:12Z</time>
      </trkpt>
      <trkpt lat="38.284581" lon="-0.585989">
        <ele>61.894</ele>
        <time>2021-05-05T14:30:14Z</time>
      </trkpt>
      <trkpt lat="38.284597" lon="-0.586108">
        <ele>62.297</ele>
        <time>2021-05-05T14:30:16Z</time>
      </trkpt>
      <trkpt lat="38.284605" lon="-0.586167">
        <ele>62.297</ele>
        <time>2021-05-05T14:30:17Z</time>
      </trkpt>
      <trkpt lat="38.284627" lon="-0.586291">
        <ele>62.539</ele>
        <time>2021-05-05T14:30:19Z</time>
      </trkpt>
      <trkpt lat="38.284651" lon="-0.586415">
        <ele>62.666</ele>
        <time>2021-05-05T14:30:21Z</time>
      </trkpt>
      <trkpt lat="38.284679" lon="-0.586535">
        <ele>62.691</ele>
        <time>2021-05-05T14:30:23Z</time>
      </trkpt>
      <trkpt lat="38.284707" lon="-0.586652">
        <ele>62.989</ele>
        <time>2021-05-05T14:30:24Z</time>
      </trkpt>
      <trkpt lat="38.284723" lon="-0.586713">
        <ele>63.106</ele>
        <time>2021-05-05T14:30:26Z</time>
      </trkpt>
      <trkpt lat="38.284760" lon="-0.586829">
        <ele>63.426</ele>
        <time>2021-05-05T14:30:28Z</time>
      </trkpt>
      <trkpt lat="38.284779" lon="-0.586885">
        <ele>64.208</ele>
        <time>2021-05-05T14:30:29Z</time>
      </trkpt>
      <trkpt lat="38.284816" lon="-0.586995">
        <ele>64.485</ele>
        <time>2021-05-05T14:30:31Z</time>
      </trkpt>
      <trkpt lat="38.284860" lon="-0.587096">
        <ele>64.650</ele>
        <time>2021-05-05T14:30:32Z</time>
      </trkpt>
      <trkpt lat="38.284906" lon="-0.587180">
        <ele>64.710</ele>
        <time>2021-05-05T14:30:35Z</time>
      </trkpt>
      <trkpt lat="38.284954" lon="-0.587266">
        <ele>64.823</ele>
        <time>2021-05-05T14:30:36Z</time>
      </trkpt>
      <trkpt lat="38.285002" lon="-0.587346">
        <ele>64.973</ele>
        <time>2021-05-05T14:30:38Z</time>
      </trkpt>
      <trkpt lat="38.285055" lon="-0.587433">
        <ele>64.855</ele>
        <time>2021-05-05T14:30:41Z</time>
      </trkpt>
      <trkpt lat="38.285100" lon="-0.587500">
        <ele>64.832</ele>
        <time>2021-05-05T14:30:43Z</time>
      </trkpt>
      <trkpt lat="38.285159" lon="-0.587582">
        <ele>64.857</ele>
        <time>2021-05-05T14:30:45Z</time>
      </trkpt>
      <trkpt lat="38.285210" lon="-0.587654">
        <ele>64.782</ele>
        <time>2021-05-05T14:30:47Z</time>
      </trkpt>
      <trkpt lat="38.285265" lon="-0.587720">
        <ele>64.543</ele>
        <time>2021-05-05T14:30:49Z</time>
      </trkpt>
      <trkpt lat="38.285311" lon="-0.587784">
        <ele>64.317</ele>
        <time>2021-05-05T14:30:51Z</time>
      </trkpt>
      <trkpt lat="38.285367" lon="-0.587857">
        <ele>64.008</ele>
        <time>2021-05-05T14:30:53Z</time>
      </trkpt>
      <trkpt lat="38.285424" lon="-0.587933">
        <ele>63.845</ele>
        <time>2021-05-05T14:30:55Z</time>
      </trkpt>
      <trkpt lat="38.285475" lon="-0.588001">
        <ele>63.930</ele>
        <time>2021-05-05T14:30:56Z</time>
      </trkpt>
      <trkpt lat="38.285530" lon="-0.588075">
        <ele>63.810</ele>
        <time>2021-05-05T14:30:59Z</time>
      </trkpt>
      <trkpt lat="38.285583" lon="-0.588146">
        <ele>63.923</ele>
        <time>2021-05-05T14:31:00Z</time>
      </trkpt>
      <trkpt lat="38.285642" lon="-0.588223">
        <ele>63.733</ele>
        <time>2021-05-05T14:31:02Z</time>
      </trkpt>
      <trkpt lat="38.285693" lon="-0.588294">
        <ele>64.415</ele>
        <time>2021-05-05T14:31:05Z</time>
      </trkpt>
      <trkpt lat="38.285746" lon="-0.588365">
        <ele>64.282</ele>
        <time>2021-05-05T14:31:06Z</time>
      </trkpt>
      <trkpt lat="38.285778" lon="-0.588409">
        <ele>64.767</ele>
        <time>2021-05-05T14:31:08Z</time>
      </trkpt>
      <trkpt lat="38.285834" lon="-0.588483">
        <ele>64.992</ele>
        <time>2021-05-05T14:31:10Z</time>
      </trkpt>
      <trkpt lat="38.285889" lon="-0.588558">
        <ele>65.173</ele>
        <time>2021-05-05T14:31:11Z</time>
      </trkpt>
      <trkpt lat="38.285940" lon="-0.588623">
        <ele>65.320</ele>
        <time>2021-05-05T14:31:14Z</time>
      </trkpt>
      <trkpt lat="38.285984" lon="-0.588683">
        <ele>65.508</ele>
        <time>2021-05-05T14:31:15Z</time>
      </trkpt>
      <trkpt lat="38.286035" lon="-0.588748">
        <ele>65.786</ele>
        <time>2021-05-05T14:31:17Z</time>
      </trkpt>
      <trkpt lat="38.286093" lon="-0.588822">
        <ele>65.921</ele>
        <time>2021-05-05T14:31:20Z</time>
      </trkpt>
      <trkpt lat="38.286146" lon="-0.588890">
        <ele>66.151</ele>
        <time>2021-05-05T14:31:22Z</time>
      </trkpt>
      <trkpt lat="38.286191" lon="-0.588948">
        <ele>66.234</ele>
        <time>2021-05-05T14:31:23Z</time>
      </trkpt>
      <trkpt lat="38.286246" lon="-0.589017">
        <ele>66.824</ele>
        <time>2021-05-05T14:31:25Z</time>
      </trkpt>
      <trkpt lat="38.286294" lon="-0.589080">
        <ele>67.396</ele>
        <time>2021-05-05T14:31:28Z</time>
      </trkpt>
      <trkpt lat="38.286344" lon="-0.589147">
        <ele>67.513</ele>
        <time>2021-05-05T14:31:30Z</time>
      </trkpt>
      <trkpt lat="38.286389" lon="-0.589210">
        <ele>67.788</ele>
        <time>2021-05-05T14:31:32Z</time>
      </trkpt>
      <trkpt lat="38.286447" lon="-0.589288">
        <ele>67.927</ele>
        <time>2021-05-05T14:31:33Z</time>
      </trkpt>
      <trkpt lat="38.286493" lon="-0.589347">
        <ele>68.168</ele>
        <time>2021-05-05T14:31:36Z</time>
      </trkpt>
      <trkpt lat="38.286553" lon="-0.589425">
        <ele>68.314</ele>
        <time>2021-05-05T14:31:38Z</time>
      </trkpt>
      <trkpt lat="38.286596" lon="-0.589485">
        <ele>68.308</ele>
        <time>2021-05-05T14:31:40Z</time>
      </trkpt>
      <trkpt lat="38.286652" lon="-0.589557">
        <ele>68.819</ele>
        <time>2021-05-05T14:31:42Z</time>
      </trkpt>
      <trkpt lat="38.286707" lon="-0.589629">
        <ele>69.114</ele>
        <time>2021-05-05T14:31:43Z</time>
      </trkpt>
      <trkpt lat="38.286760" lon="-0.589695">
        <ele>69.334</ele>
        <time>2021-05-05T14:31:46Z</time>
      </trkpt>
      <trkpt lat="38.286812" lon="-0.589760">
        <ele>69.777</ele>
        <time>2021-05-05T14:31:48Z</time>
      </trkpt>
      <trkpt lat="38.286866" lon="-0.589827">
        <ele>69.897</ele>
        <time>2021-05-05T14:31:49Z</time>
      </trkpt>
      <trkpt lat="38.286920" lon="-0.589889">
        <ele>70.029</ele>
        <time>2021-05-05T14:31:51Z</time>
      </trkpt>
      <trkpt lat="38.286984" lon="-0.589938">
        <ele>70.226</ele>
        <time>2021-05-05T14:31:53Z</time>
      </trkpt>
      <trkpt lat="38.287036" lon="-0.589960">
        <ele>69.961</ele>
        <time>2021-05-05T14:31:55Z</time>
      </trkpt>
      <trkpt lat="38.287090" lon="-0.589967">
        <ele>69.785</ele>
        <time>2021-05-05T14:31:56Z</time>
      </trkpt>
      <trkpt lat="38.287143" lon="-0.589947">
        <ele>69.689</ele>
        <time>2021-05-05T14:31:58Z</time>
      </trkpt>
      <trkpt lat="38.287194" lon="-0.589900">
        <ele>69.817</ele>
        <time>2021-05-05T14:31:59Z</time>
      </trkpt>
      <trkpt lat="38.287240" lon="-0.589811">
        <ele>69.608</ele>
        <time>2021-05-05T14:32:01Z</time>
      </trkpt>
      <trkpt lat="38.287260" lon="-0.589743">
        <ele>69.615</ele>
        <time>2021-05-05T14:32:03Z</time>
      </trkpt>
      <trkpt lat="38.287280" lon="-0.589678">
        <ele>69.460</ele>
        <time>2021-05-05T14:32:04Z</time>
      </trkpt>
      <trkpt lat="38.287305" lon="-0.589588">
        <ele>69.450</ele>
        <time>2021-05-05T14:32:06Z</time>
      </trkpt>
      <trkpt lat="38.287322" lon="-0.589525">
        <ele>69.633</ele>
        <time>2021-05-05T14:32:08Z</time>
      </trkpt>
      <trkpt lat="38.287343" lon="-0.589448">
        <ele>69.583</ele>
        <time>2021-05-05T14:32:09Z</time>
      </trkpt>
      <trkpt lat="38.287363" lon="-0.589376">
        <ele>69.675</ele>
        <time>2021-05-05T14:32:11Z</time>
      </trkpt>
      <trkpt lat="38.287380" lon="-0.589321">
        <ele>69.872</ele>
        <time>2021-05-05T14:32:12Z</time>
      </trkpt>
      <trkpt lat="38.287397" lon="-0.589265">
        <ele>69.867</ele>
        <time>2021-05-05T14:32:13Z</time>
      </trkpt>
      <trkpt lat="38.287413" lon="-0.589209">
        <ele>70.072</ele>
        <time>2021-05-05T14:32:14Z</time>
      </trkpt>
      <trkpt lat="38.287440" lon="-0.589130">
        <ele>70.113</ele>
        <time>2021-05-05T14:32:16Z</time>
      </trkpt>
      <trkpt lat="38.287461" lon="-0.589066">
        <ele>70.014</ele>
        <time>2021-05-05T14:32:17Z</time>
      </trkpt>
      <trkpt lat="38.287497" lon="-0.588978">
        <ele>69.908</ele>
        <time>2021-05-05T14:32:20Z</time>
      </trkpt>
      <trkpt lat="38.287518" lon="-0.588897">
        <ele>70.124</ele>
        <time>2021-05-05T14:32:21Z</time>
      </trkpt>
      <trkpt lat="38.287536" lon="-0.588841">
        <ele>70.439</ele>
        <time>2021-05-05T14:32:22Z</time>
      </trkpt>
      <trkpt lat="38.287555" lon="-0.588777">
        <ele>70.339</ele>
        <time>2021-05-05T14:32:24Z</time>
      </trkpt>
      <trkpt lat="38.287577" lon="-0.588704">
        <ele>70.652</ele>
        <time>2021-05-05T14:32:25Z</time>
      </trkpt>
      <trkpt lat="38.287598" lon="-0.588630">
        <ele>70.692</ele>
        <time>2021-05-05T14:32:26Z</time>
      </trkpt>
      <trkpt lat="38.287625" lon="-0.588550">
        <ele>70.454</ele>
        <time>2021-05-05T14:32:28Z</time>
      </trkpt>
      <trkpt lat="38.287644" lon="-0.588486">
        <ele>70.371</ele>
        <time>2021-05-05T14:32:29Z</time>
      </trkpt>
      <trkpt lat="38.287683" lon="-0.588378">
        <ele>70.226</ele>
        <time>2021-05-05T14:32:31Z</time>
      </trkpt>
      <trkpt lat="38.287703" lon="-0.588320">
        <ele>70.373</ele>
        <time>2021-05-05T14:32:33Z</time>
      </trkpt>
      <trkpt lat="38.287726" lon="-0.588229">
        <ele>70.485</ele>
        <time>2021-05-05T14:32:34Z</time>
      </trkpt>
      <trkpt lat="38.287746" lon="-0.588164">
        <ele>70.213</ele>
        <time>2021-05-05T14:32:36Z</time>
      </trkpt>
      <trkpt lat="38.287781" lon="-0.588055">
        <ele>70.408</ele>
        <time>2021-05-05T14:32:37Z</time>
      </trkpt>
      <trkpt lat="38.287797" lon="-0.587999">
        <ele>70.264</ele>
        <time>2021-05-05T14:32:39Z</time>
      </trkpt>
      <trkpt lat="38.287829" lon="-0.587888">
        <ele>70.369</ele>
        <time>2021-05-05T14:32:41Z</time>
      </trkpt>
      <trkpt lat="38.287863" lon="-0.587775">
        <ele>70.069</ele>
        <time>2021-05-05T14:32:42Z</time>
      </trkpt>
      <trkpt lat="38.287881" lon="-0.587714">
        <ele>70.362</ele>
        <time>2021-05-05T14:32:43Z</time>
      </trkpt>
      <trkpt lat="38.287900" lon="-0.587656">
        <ele>70.052</ele>
        <time>2021-05-05T14:32:45Z</time>
      </trkpt>
      <trkpt lat="38.287932" lon="-0.587545">
        <ele>70.314</ele>
        <time>2021-05-05T14:32:47Z</time>
      </trkpt>
      <trkpt lat="38.287960" lon="-0.587445">
        <ele>70.171</ele>
        <time>2021-05-05T14:32:48Z</time>
      </trkpt>
      <trkpt lat="38.287990" lon="-0.587340">
        <ele>70.016</ele>
        <time>2021-05-05T14:32:51Z</time>
      </trkpt>
      <trkpt lat="38.288005" lon="-0.587279">
        <ele>69.868</ele>
        <time>2021-05-05T14:32:52Z</time>
      </trkpt>
      <trkpt lat="38.288032" lon="-0.587158">
        <ele>70.142</ele>
        <time>2021-05-05T14:32:53Z</time>
      </trkpt>
      <trkpt lat="38.288042" lon="-0.587097">
        <ele>70.026</ele>
        <time>2021-05-05T14:32:55Z</time>
      </trkpt>
      <trkpt lat="38.288063" lon="-0.586979">
        <ele>69.708</ele>
        <time>2021-05-05T14:32:57Z</time>
      </trkpt>
      <trkpt lat="38.288078" lon="-0.586850">
        <ele>69.653</ele>
        <time>2021-05-05T14:32:59Z</time>
      </trkpt>
      <trkpt lat="38.288071" lon="-0.586719">
        <ele>69.318</ele>
        <time>2021-05-05T14:33:01Z</time>
      </trkpt>
      <trkpt lat="38.288063" lon="-0.586651">
        <ele>69.388</ele>
        <time>2021-05-05T14:33:02Z</time>
      </trkpt>
      <trkpt lat="38.288041" lon="-0.586510">
        <ele>69.221</ele>
        <time>2021-05-05T14:33:03Z</time>
      </trkpt>
      <trkpt lat="38.288030" lon="-0.586439">
        <ele>68.851</ele>
        <time>2021-05-05T14:33:04Z</time>
      </trkpt>
      <trkpt lat="38.288019" lon="-0.586366">
        <ele>68.653</ele>
        <time>2021-05-05T14:33:05Z</time>
      </trkpt>
      <trkpt lat="38.288004" lon="-0.586295">
        <ele>68.430</ele>
        <time>2021-05-05T14:33:07Z</time>
      </trkpt>
      <trkpt lat="38.287986" lon="-0.586227">
        <ele>68.325</ele>
        <time>2021-05-05T14:33:08Z</time>
      </trkpt>
      <trkpt lat="38.287964" lon="-0.586088">
        <ele>68.411</ele>
        <time>2021-05-05T14:33:09Z</time>
      </trkpt>
      <trkpt lat="38.287950" lon="-0.586022">
        <ele>68.321</ele>
        <time>2021-05-05T14:33:10Z</time>
      </trkpt>
      <trkpt lat="38.287935" lon="-0.585957">
        <ele>68.103</ele>
        <time>2021-05-05T14:33:12Z</time>
      </trkpt>
      <trkpt lat="38.287912" lon="-0.585892">
        <ele>67.908</ele>
        <time>2021-05-05T14:33:13Z</time>
      </trkpt>
      <trkpt lat="38.287882" lon="-0.585827">
        <ele>67.948</ele>
        <time>2021-05-05T14:33:14Z</time>
      </trkpt>
      <trkpt lat="38.287854" lon="-0.585760">
        <ele>68.153</ele>
        <time>2021-05-05T14:33:15Z</time>
      </trkpt>
      <trkpt lat="38.287814" lon="-0.585622">
        <ele>68.243</ele>
        <time>2021-05-05T14:33:17Z</time>
      </trkpt>
      <trkpt lat="38.287800" lon="-0.585555">
        <ele>67.846</ele>
        <time>2021-05-05T14:33:18Z</time>
      </trkpt>
      <trkpt lat="38.287768" lon="-0.585423">
        <ele>67.696</ele>
        <time>2021-05-05T14:33:19Z</time>
      </trkpt>
      <trkpt lat="38.287751" lon="-0.585358">
        <ele>67.468</ele>
        <time>2021-05-05T14:33:21Z</time>
      </trkpt>
      <trkpt lat="38.287734" lon="-0.585295">
        <ele>67.545</ele>
        <time>2021-05-05T14:33:22Z</time>
      </trkpt>
      <trkpt lat="38.287718" lon="-0.585234">
        <ele>67.370</ele>
        <time>2021-05-05T14:33:23Z</time>
      </trkpt>
      <trkpt lat="38.287702" lon="-0.585171">
        <ele>67.262</ele>
        <time>2021-05-05T14:33:24Z</time>
      </trkpt>
      <trkpt lat="38.287667" lon="-0.585040">
        <ele>66.983</ele>
        <time>2021-05-05T14:33:26Z</time>
      </trkpt>
      <trkpt lat="38.287631" lon="-0.584906">
        <ele>66.711</ele>
        <time>2021-05-05T14:33:27Z</time>
      </trkpt>
      <trkpt lat="38.287615" lon="-0.584838">
        <ele>66.608</ele>
        <time>2021-05-05T14:33:28Z</time>
      </trkpt>
      <trkpt lat="38.287598" lon="-0.584770">
        <ele>66.433</ele>
        <time>2021-05-05T14:33:30Z</time>
      </trkpt>
      <trkpt lat="38.287581" lon="-0.584702">
        <ele>66.168</ele>
        <time>2021-05-05T14:33:31Z</time>
      </trkpt>
      <trkpt lat="38.287542" lon="-0.584564">
        <ele>66.128</ele>
        <time>2021-05-05T14:33:33Z</time>
      </trkpt>
      <trkpt lat="38.287505" lon="-0.584422">
        <ele>65.991</ele>
        <time>2021-05-05T14:33:35Z</time>
      </trkpt>
      <trkpt lat="38.287490" lon="-0.584352">
        <ele>65.821</ele>
        <time>2021-05-05T14:33:36Z</time>
      </trkpt>
      <trkpt lat="38.287455" lon="-0.584214">
        <ele>65.363</ele>
        <time>2021-05-05T14:33:38Z</time>
      </trkpt>
      <trkpt lat="38.287424" lon="-0.584081">
        <ele>65.130</ele>
        <time>2021-05-05T14:33:40Z</time>
      </trkpt>
      <trkpt lat="38.287393" lon="-0.583948">
        <ele>65.195</ele>
        <time>2021-05-05T14:33:41Z</time>
      </trkpt>
      <trkpt lat="38.287378" lon="-0.583883">
        <ele>65.295</ele>
        <time>2021-05-05T14:33:42Z</time>
      </trkpt>
      <trkpt lat="38.287366" lon="-0.583819">
        <ele>65.249</ele>
        <time>2021-05-05T14:33:44Z</time>
      </trkpt>
      <trkpt lat="38.287350" lon="-0.583696">
        <ele>65.023</ele>
        <time>2021-05-05T14:33:46Z</time>
      </trkpt>
      <trkpt lat="38.287338" lon="-0.583573">
        <ele>64.908</ele>
        <time>2021-05-05T14:33:48Z</time>
      </trkpt>
      <trkpt lat="38.287338" lon="-0.583450">
        <ele>64.736</ele>
        <time>2021-05-05T14:33:50Z</time>
      </trkpt>
      <trkpt lat="38.287365" lon="-0.583328">
        <ele>64.461</ele>
        <time>2021-05-05T14:33:51Z</time>
      </trkpt>
      <trkpt lat="38.287381" lon="-0.583269">
        <ele>64.431</ele>
        <time>2021-05-05T14:33:52Z</time>
      </trkpt>
      <trkpt lat="38.287425" lon="-0.583165">
        <ele>64.454</ele>
        <time>2021-05-05T14:33:54Z</time>
      </trkpt>
      <trkpt lat="38.287473" lon="-0.583068">
        <ele>64.534</ele>
        <time>2021-05-05T14:33:57Z</time>
      </trkpt>
      <trkpt lat="38.287493" lon="-0.582948">
        <ele>64.596</ele>
        <time>2021-05-05T14:33:59Z</time>
      </trkpt>
      <trkpt lat="38.287491" lon="-0.582883">
        <ele>64.673</ele>
        <time>2021-05-05T14:34:00Z</time>
      </trkpt>
      <trkpt lat="38.287506" lon="-0.582748">
        <ele>64.658</ele>
        <time>2021-05-05T14:34:01Z</time>
      </trkpt>
      <trkpt lat="38.287531" lon="-0.582687">
        <ele>64.885</ele>
        <time>2021-05-05T14:34:03Z</time>
      </trkpt>
      <trkpt lat="38.287568" lon="-0.582636">
        <ele>64.489</ele>
        <time>2021-05-05T14:34:04Z</time>
      </trkpt>
      <trkpt lat="38.287609" lon="-0.582595">
        <ele>64.317</ele>
        <time>2021-05-05T14:34:05Z</time>
      </trkpt>
      <trkpt lat="38.287703" lon="-0.582559">
        <ele>64.108</ele>
        <time>2021-05-05T14:34:07Z</time>
      </trkpt>
      <trkpt lat="38.287801" lon="-0.582578">
        <ele>64.185</ele>
        <time>2021-05-05T14:34:09Z</time>
      </trkpt>
      <trkpt lat="38.287868" lon="-0.582640">
        <ele>64.090</ele>
        <time>2021-05-05T14:34:11Z</time>
      </trkpt>
      <trkpt lat="38.287931" lon="-0.582742">
        <ele>64.160</ele>
        <time>2021-05-05T14:34:12Z</time>
      </trkpt>
      <trkpt lat="38.287957" lon="-0.582843">
        <ele>64.363</ele>
        <time>2021-05-05T14:34:15Z</time>
      </trkpt>
      <trkpt lat="38.287973" lon="-0.582934">
        <ele>64.233</ele>
        <time>2021-05-05T14:34:16Z</time>
      </trkpt>
      <trkpt lat="38.287986" lon="-0.582990">
        <ele>64.195</ele>
        <time>2021-05-05T14:34:17Z</time>
      </trkpt>
      <trkpt lat="38.288014" lon="-0.583080">
        <ele>63.622</ele>
        <time>2021-05-05T14:34:19Z</time>
      </trkpt>
      <trkpt lat="38.288055" lon="-0.583159">
        <ele>63.347</ele>
        <time>2021-05-05T14:34:21Z</time>
      </trkpt>
      <trkpt lat="38.288096" lon="-0.583195">
        <ele>63.423</ele>
        <time>2021-05-05T14:34:22Z</time>
      </trkpt>
      <trkpt lat="38.288142" lon="-0.583231">
        <ele>63.583</ele>
        <time>2021-05-05T14:34:24Z</time>
      </trkpt>
      <trkpt lat="38.288204" lon="-0.583289">
        <ele>63.411</ele>
        <time>2021-05-05T14:34:26Z</time>
      </trkpt>
      <trkpt lat="38.288246" lon="-0.583328">
        <ele>63.308</ele>
        <time>2021-05-05T14:34:27Z</time>
      </trkpt>
      <trkpt lat="38.288288" lon="-0.583371">
        <ele>63.219</ele>
        <time>2021-05-05T14:34:28Z</time>
      </trkpt>
      <trkpt lat="38.288324" lon="-0.583408">
        <ele>63.194</ele>
        <time>2021-05-05T14:34:29Z</time>
      </trkpt>
      <trkpt lat="38.288374" lon="-0.583471">
        <ele>63.544</ele>
        <time>2021-05-05T14:34:31Z</time>
      </trkpt>
      <trkpt lat="38.288420" lon="-0.583529">
        <ele>63.577</ele>
        <time>2021-05-05T14:34:32Z</time>
      </trkpt>
      <trkpt lat="38.288469" lon="-0.583583">
        <ele>63.567</ele>
        <time>2021-05-05T14:34:34Z</time>
      </trkpt>
      <trkpt lat="38.288523" lon="-0.583625">
        <ele>63.629</ele>
        <time>2021-05-05T14:34:35Z</time>
      </trkpt>
      <trkpt lat="38.288579" lon="-0.583652">
        <ele>63.436</ele>
        <time>2021-05-05T14:34:37Z</time>
      </trkpt>
      <trkpt lat="38.288631" lon="-0.583676">
        <ele>63.591</ele>
        <time>2021-05-05T14:34:38Z</time>
      </trkpt>
      <trkpt lat="38.288688" lon="-0.583697">
        <ele>63.825</ele>
        <time>2021-05-05T14:34:39Z</time>
      </trkpt>
      <trkpt lat="38.288769" lon="-0.583717">
        <ele>63.726</ele>
        <time>2021-05-05T14:34:41Z</time>
      </trkpt>
      <trkpt lat="38.288845" lon="-0.583714">
        <ele>63.908</ele>
        <time>2021-05-05T14:34:43Z</time>
      </trkpt>
      <trkpt lat="38.288927" lon="-0.583706">
        <ele>63.708</ele>
        <time>2021-05-05T14:34:45Z</time>
      </trkpt>
      <trkpt lat="38.288980" lon="-0.583707">
        <ele>64.129</ele>
        <time>2021-05-05T14:34:47Z</time>
      </trkpt>
      <trkpt lat="38.289040" lon="-0.583695">
        <ele>63.974</ele>
        <time>2021-05-05T14:34:48Z</time>
      </trkpt>
      <trkpt lat="38.289120" lon="-0.583682">
        <ele>64.574</ele>
        <time>2021-05-05T14:34:50Z</time>
      </trkpt>
      <trkpt lat="38.289199" lon="-0.583667">
        <ele>64.667</ele>
        <time>2021-05-05T14:34:52Z</time>
      </trkpt>
      <trkpt lat="38.289258" lon="-0.583661">
        <ele>64.527</ele>
        <time>2021-05-05T14:34:54Z</time>
      </trkpt>
      <trkpt lat="38.289322" lon="-0.583667">
        <ele>64.439</ele>
        <time>2021-05-05T14:34:56Z</time>
      </trkpt>
      <trkpt lat="38.289385" lon="-0.583682">
        <ele>64.756</ele>
        <time>2021-05-05T14:34:58Z</time>
      </trkpt>
      <trkpt lat="38.289450" lon="-0.583706">
        <ele>64.651</ele>
        <time>2021-05-05T14:35:01Z</time>
      </trkpt>
      <trkpt lat="38.289505" lon="-0.583737">
        <ele>64.683</ele>
        <time>2021-05-05T14:35:03Z</time>
      </trkpt>
      <trkpt lat="38.289564" lon="-0.583778">
        <ele>64.725</ele>
        <time>2021-05-05T14:35:05Z</time>
      </trkpt>
      <trkpt lat="38.289618" lon="-0.583807">
        <ele>65.017</ele>
        <time>2021-05-05T14:35:07Z</time>
      </trkpt>
      <trkpt lat="38.289674" lon="-0.583838">
        <ele>65.008</ele>
        <time>2021-05-05T14:35:08Z</time>
      </trkpt>
      <trkpt lat="38.289732" lon="-0.583867">
        <ele>65.345</ele>
        <time>2021-05-05T14:35:11Z</time>
      </trkpt>
      <trkpt lat="38.289772" lon="-0.583896">
        <ele>65.690</ele>
        <time>2021-05-05T14:35:12Z</time>
      </trkpt>
      <trkpt lat="38.289825" lon="-0.583937">
        <ele>65.840</ele>
        <time>2021-05-05T14:35:14Z</time>
      </trkpt>
      <trkpt lat="38.289872" lon="-0.583952">
        <ele>66.323</ele>
        <time>2021-05-05T14:35:17Z</time>
      </trkpt>
      <trkpt lat="38.289942" lon="-0.583974">
        <ele>66.283</ele>
        <time>2021-05-05T14:35:20Z</time>
      </trkpt>
      <trkpt lat="38.289987" lon="-0.583957">
        <ele>66.095</ele>
        <time>2021-05-05T14:35:23Z</time>
      </trkpt>
      <trkpt lat="38.289953" lon="-0.583996">
        <ele>65.732</ele>
        <time>2021-05-05T14:35:59Z</time>
      </trkpt>
      <trkpt lat="38.289991" lon="-0.583958">
        <ele>66.747</ele>
        <time>2021-05-05T14:36:41Z</time>
      </trkpt>
      <trkpt lat="38.289944" lon="-0.583910">
        <ele>66.825</ele>
        <time>2021-05-05T14:38:31Z</time>
      </trkpt>
      <trkpt lat="38.289921" lon="-0.583972">
        <ele>66.626</ele>
        <time>2021-05-05T14:38:36Z</time>
      </trkpt>
      <trkpt lat="38.289952" lon="-0.584026">
        <ele>66.508</ele>
        <time>2021-05-05T14:38:38Z</time>
      </trkpt>
      <trkpt lat="38.290007" lon="-0.584076">
        <ele>66.408</ele>
        <time>2021-05-05T14:38:40Z</time>
      </trkpt>
      <trkpt lat="38.290061" lon="-0.584129">
        <ele>66.719</ele>
        <time>2021-05-05T14:38:42Z</time>
      </trkpt>
      <trkpt lat="38.290104" lon="-0.584169">
        <ele>66.854</ele>
        <time>2021-05-05T14:38:45Z</time>
      </trkpt>
      <trkpt lat="38.290151" lon="-0.584216">
        <ele>67.064</ele>
        <time>2021-05-05T14:38:47Z</time>
      </trkpt>
      <trkpt lat="38.290201" lon="-0.584249">
        <ele>67.227</ele>
        <time>2021-05-05T14:38:50Z</time>
      </trkpt>
      <trkpt lat="38.290253" lon="-0.584278">
        <ele>67.337</ele>
        <time>2021-05-05T14:38:55Z</time>
      </trkpt>
      <trkpt lat="38.290289" lon="-0.584319">
        <ele>67.179</ele>
        <time>2021-05-05T14:38:59Z</time>
      </trkpt>
      <trkpt lat="38.290339" lon="-0.584336">
        <ele>67.416</ele>
        <time>2021-05-05T14:39:16Z</time>
      </trkpt>
      <trkpt lat="38.290378" lon="-0.584379">
        <ele>67.481</ele>
        <time>2021-05-05T14:39:20Z</time>
      </trkpt>
      <trkpt lat="38.290404" lon="-0.584433">
        <ele>67.395</ele>
        <time>2021-05-05T14:39:25Z</time>
      </trkpt>
      <trkpt lat="38.290450" lon="-0.584463">
        <ele>67.549</ele>
        <time>2021-05-05T14:39:28Z</time>
      </trkpt>
      <trkpt lat="38.290502" lon="-0.584501">
        <ele>67.723</ele>
        <time>2021-05-05T14:39:31Z</time>
      </trkpt>
      <trkpt lat="38.290546" lon="-0.584539">
        <ele>68.408</ele>
        <time>2021-05-05T14:39:33Z</time>
      </trkpt>
      <trkpt lat="38.290597" lon="-0.584575">
        <ele>68.896</ele>
        <time>2021-05-05T14:39:36Z</time>
      </trkpt>
      <trkpt lat="38.290637" lon="-0.584617">
        <ele>69.071</ele>
        <time>2021-05-05T14:39:39Z</time>
      </trkpt>
      <trkpt lat="38.290688" lon="-0.584643">
        <ele>69.591</ele>
        <time>2021-05-05T14:39:42Z</time>
      </trkpt>
      <trkpt lat="38.290736" lon="-0.584672">
        <ele>70.094</ele>
        <time>2021-05-05T14:39:46Z</time>
      </trkpt>
      <trkpt lat="38.290780" lon="-0.584695">
        <ele>71.054</ele>
        <time>2021-05-05T14:39:50Z</time>
      </trkpt>
      <trkpt lat="38.290826" lon="-0.584715">
        <ele>72.396</ele>
        <time>2021-05-05T14:39:52Z</time>
      </trkpt>
      <trkpt lat="38.290885" lon="-0.584732">
        <ele>72.693</ele>
        <time>2021-05-05T14:39:55Z</time>
      </trkpt>
      <trkpt lat="38.290950" lon="-0.584763">
        <ele>72.368</ele>
        <time>2021-05-05T14:39:58Z</time>
      </trkpt>
      <trkpt lat="38.290996" lon="-0.584787">
        <ele>71.846</ele>
        <time>2021-05-05T14:40:00Z</time>
      </trkpt>
      <trkpt lat="38.291037" lon="-0.584813">
        <ele>71.588</ele>
        <time>2021-05-05T14:40:02Z</time>
      </trkpt>
      <trkpt lat="38.291094" lon="-0.584847">
        <ele>71.216</ele>
        <time>2021-05-05T14:40:04Z</time>
      </trkpt>
      <trkpt lat="38.291154" lon="-0.584883">
        <ele>71.408</ele>
        <time>2021-05-05T14:40:07Z</time>
      </trkpt>
      <trkpt lat="38.291196" lon="-0.584910">
        <ele>71.561</ele>
        <time>2021-05-05T14:40:10Z</time>
      </trkpt>
      <trkpt lat="38.291255" lon="-0.584950">
        <ele>71.086</ele>
        <time>2021-05-05T14:40:13Z</time>
      </trkpt>
      <trkpt lat="38.291296" lon="-0.584993">
        <ele>71.156</ele>
        <time>2021-05-05T14:40:15Z</time>
      </trkpt>
      <trkpt lat="38.291354" lon="-0.585029">
        <ele>71.399</ele>
        <time>2021-05-05T14:40:18Z</time>
      </trkpt>
      <trkpt lat="38.291398" lon="-0.585055">
        <ele>71.489</ele>
        <time>2021-05-05T14:40:20Z</time>
      </trkpt>
      <trkpt lat="38.291447" lon="-0.585093">
        <ele>72.151</ele>
        <time>2021-05-05T14:40:25Z</time>
      </trkpt>
      <trkpt lat="38.291495" lon="-0.585120">
        <ele>72.138</ele>
        <time>2021-05-05T14:40:27Z</time>
      </trkpt>
      <trkpt lat="38.291551" lon="-0.585145">
        <ele>73.033</ele>
        <time>2021-05-05T14:40:28Z</time>
      </trkpt>
      <trkpt lat="38.291609" lon="-0.585176">
        <ele>73.638</ele>
        <time>2021-05-05T14:40:31Z</time>
      </trkpt>
      <trkpt lat="38.291668" lon="-0.585201">
        <ele>74.170</ele>
        <time>2021-05-05T14:40:33Z</time>
      </trkpt>
      <trkpt lat="38.291719" lon="-0.585221">
        <ele>74.117</ele>
        <time>2021-05-05T14:40:34Z</time>
      </trkpt>
      <trkpt lat="38.291790" lon="-0.585257">
        <ele>74.708</ele>
        <time>2021-05-05T14:40:37Z</time>
      </trkpt>
      <trkpt lat="38.291837" lon="-0.585289">
        <ele>75.050</ele>
        <time>2021-05-05T14:40:38Z</time>
      </trkpt>
      <trkpt lat="38.291888" lon="-0.585330">
        <ele>74.655</ele>
        <time>2021-05-05T14:40:41Z</time>
      </trkpt>
      <trkpt lat="38.291931" lon="-0.585353">
        <ele>74.145</ele>
        <time>2021-05-05T14:40:43Z</time>
      </trkpt>
      <trkpt lat="38.291998" lon="-0.585386">
        <ele>74.088</ele>
        <time>2021-05-05T14:40:45Z</time>
      </trkpt>
      <trkpt lat="38.292039" lon="-0.585419">
        <ele>74.158</ele>
        <time>2021-05-05T14:40:47Z</time>
      </trkpt>
      <trkpt lat="38.292084" lon="-0.585454">
        <ele>74.580</ele>
        <time>2021-05-05T14:40:51Z</time>
      </trkpt>
      <trkpt lat="38.292125" lon="-0.585481">
        <ele>74.617</ele>
        <time>2021-05-05T14:40:53Z</time>
      </trkpt>
      <trkpt lat="38.292176" lon="-0.585506">
        <ele>74.762</ele>
        <time>2021-05-05T14:40:57Z</time>
      </trkpt>
      <trkpt lat="38.292224" lon="-0.585525">
        <ele>75.231</ele>
        <time>2021-05-05T14:41:00Z</time>
      </trkpt>
      <trkpt lat="38.292275" lon="-0.585543">
        <ele>75.161</ele>
        <time>2021-05-05T14:41:04Z</time>
      </trkpt>
      <trkpt lat="38.292325" lon="-0.585551">
        <ele>75.107</ele>
        <time>2021-05-05T14:41:12Z</time>
      </trkpt>
      <trkpt lat="38.292348" lon="-0.585604">
        <ele>74.908</ele>
        <time>2021-05-05T14:41:20Z</time>
      </trkpt>
      <trkpt lat="38.292330" lon="-0.585659">
        <ele>74.420</ele>
        <time>2021-05-05T14:41:35Z</time>
      </trkpt>
      <trkpt lat="38.292302" lon="-0.585628">
        <ele>86.975</ele>
        <time>2021-05-05T15:54:42Z</time>
      </trkpt>
      <trkpt lat="38.292347" lon="-0.585640">
        <ele>75.045</ele>
        <time>2021-05-05T15:56:55Z</time>
      </trkpt>
      <trkpt lat="38.292375" lon="-0.585691">
        <ele>75.358</ele>
        <time>2021-05-05T15:56:59Z</time>
      </trkpt>
      <trkpt lat="38.292422" lon="-0.585690">
        <ele>75.448</ele>
        <time>2021-05-05T15:57:05Z</time>
      </trkpt>
      <trkpt lat="38.292464" lon="-0.585716">
        <ele>76.170</ele>
        <time>2021-05-05T15:57:07Z</time>
      </trkpt>
      <trkpt lat="38.292502" lon="-0.585752">
        <ele>76.947</ele>
        <time>2021-05-05T15:57:10Z</time>
      </trkpt>
      <trkpt lat="38.292547" lon="-0.585766">
        <ele>77.022</ele>
        <time>2021-05-05T15:57:13Z</time>
      </trkpt>
      <trkpt lat="38.292581" lon="-0.585725">
        <ele>77.045</ele>
        <time>2021-05-05T15:57:17Z</time>
      </trkpt>
      <trkpt lat="38.292597" lon="-0.585666">
        <ele>77.247</ele>
        <time>2021-05-05T15:57:20Z</time>
      </trkpt>
      <trkpt lat="38.292605" lon="-0.585598">
        <ele>77.511</ele>
        <time>2021-05-05T15:57:22Z</time>
      </trkpt>
      <trkpt lat="38.292627" lon="-0.585528">
        <ele>77.608</ele>
        <time>2021-05-05T15:57:24Z</time>
      </trkpt>
      <trkpt lat="38.292651" lon="-0.585463">
        <ele>77.551</ele>
        <time>2021-05-05T15:57:26Z</time>
      </trkpt>
      <trkpt lat="38.292676" lon="-0.585401">
        <ele>77.696</ele>
        <time>2021-05-05T15:57:28Z</time>
      </trkpt>
      <trkpt lat="38.292703" lon="-0.585335">
        <ele>78.066</ele>
        <time>2021-05-05T15:57:30Z</time>
      </trkpt>
      <trkpt lat="38.292722" lon="-0.585261">
        <ele>78.219</ele>
        <time>2021-05-05T15:57:32Z</time>
      </trkpt>
      <trkpt lat="38.292748" lon="-0.585184">
        <ele>78.789</ele>
        <time>2021-05-05T15:57:34Z</time>
      </trkpt>
      <trkpt lat="38.292771" lon="-0.585119">
        <ele>78.961</ele>
        <time>2021-05-05T15:57:36Z</time>
      </trkpt>
      <trkpt lat="38.292791" lon="-0.585059">
        <ele>78.728</ele>
        <time>2021-05-05T15:57:38Z</time>
      </trkpt>
      <trkpt lat="38.292805" lon="-0.584977">
        <ele>79.023</ele>
        <time>2021-05-05T15:57:41Z</time>
      </trkpt>
      <trkpt lat="38.292812" lon="-0.584913">
        <ele>79.289</ele>
        <time>2021-05-05T15:57:43Z</time>
      </trkpt>
      <trkpt lat="38.292842" lon="-0.584863">
        <ele>79.006</ele>
        <time>2021-05-05T15:57:45Z</time>
      </trkpt>
      <trkpt lat="38.292877" lon="-0.584798">
        <ele>78.526</ele>
        <time>2021-05-05T15:57:48Z</time>
      </trkpt>
      <trkpt lat="38.292901" lon="-0.584747">
        <ele>78.208</ele>
        <time>2021-05-05T15:57:50Z</time>
      </trkpt>
      <trkpt lat="38.292925" lon="-0.584687">
        <ele>78.515</ele>
        <time>2021-05-05T15:57:52Z</time>
      </trkpt>
      <trkpt lat="38.292948" lon="-0.584622">
        <ele>78.610</ele>
        <time>2021-05-05T15:57:54Z</time>
      </trkpt>
      <trkpt lat="38.292968" lon="-0.584561">
        <ele>78.680</ele>
        <time>2021-05-05T15:57:56Z</time>
      </trkpt>
      <trkpt lat="38.292990" lon="-0.584509">
        <ele>78.683</ele>
        <time>2021-05-05T15:57:58Z</time>
      </trkpt>
      <trkpt lat="38.293013" lon="-0.584429">
        <ele>78.553</ele>
        <time>2021-05-05T15:58:01Z</time>
      </trkpt>
      <trkpt lat="38.293050" lon="-0.584362">
        <ele>77.985</ele>
        <time>2021-05-05T15:58:04Z</time>
      </trkpt>
      <trkpt lat="38.293118" lon="-0.584336">
        <ele>77.632</ele>
        <time>2021-05-05T15:58:07Z</time>
      </trkpt>
      <trkpt lat="38.293174" lon="-0.584338">
        <ele>77.537</ele>
        <time>2021-05-05T15:58:10Z</time>
      </trkpt>
      <trkpt lat="38.293229" lon="-0.584361">
        <ele>77.436</ele>
        <time>2021-05-05T15:58:12Z</time>
      </trkpt>
      <trkpt lat="38.293279" lon="-0.584385">
        <ele>78.017</ele>
        <time>2021-05-05T15:58:14Z</time>
      </trkpt>
      <trkpt lat="38.293326" lon="-0.584402">
        <ele>78.418</ele>
        <time>2021-05-05T15:58:16Z</time>
      </trkpt>
      <trkpt lat="38.293373" lon="-0.584427">
        <ele>78.808</ele>
        <time>2021-05-05T15:58:18Z</time>
      </trkpt>
      <trkpt lat="38.293426" lon="-0.584461">
        <ele>79.270</ele>
        <time>2021-05-05T15:58:20Z</time>
      </trkpt>
      <trkpt lat="38.293487" lon="-0.584476">
        <ele>79.575</ele>
        <time>2021-05-05T15:58:22Z</time>
      </trkpt>
      <trkpt lat="38.293540" lon="-0.584496">
        <ele>80.065</ele>
        <time>2021-05-05T15:58:24Z</time>
      </trkpt>
      <trkpt lat="38.293594" lon="-0.584518">
        <ele>79.938</ele>
        <time>2021-05-05T15:58:26Z</time>
      </trkpt>
      <trkpt lat="38.293647" lon="-0.584544">
        <ele>79.938</ele>
        <time>2021-05-05T15:58:28Z</time>
      </trkpt>
      <trkpt lat="38.293695" lon="-0.584565">
        <ele>80.270</ele>
        <time>2021-05-05T15:58:30Z</time>
      </trkpt>
      <trkpt lat="38.293742" lon="-0.584570">
        <ele>80.577</ele>
        <time>2021-05-05T15:58:32Z</time>
      </trkpt>
      <trkpt lat="38.293800" lon="-0.584562">
        <ele>80.512</ele>
        <time>2021-05-05T15:58:34Z</time>
      </trkpt>
      <trkpt lat="38.293855" lon="-0.584573">
        <ele>80.268</ele>
        <time>2021-05-05T15:58:36Z</time>
      </trkpt>
      <trkpt lat="38.293902" lon="-0.584601">
        <ele>80.542</ele>
        <time>2021-05-05T15:58:38Z</time>
      </trkpt>
      <trkpt lat="38.293951" lon="-0.584627">
        <ele>80.826</ele>
        <time>2021-05-05T15:58:40Z</time>
      </trkpt>
      <trkpt lat="38.293993" lon="-0.584653">
        <ele>81.208</ele>
        <time>2021-05-05T15:58:42Z</time>
      </trkpt>
      <trkpt lat="38.294042" lon="-0.584683">
        <ele>81.473</ele>
        <time>2021-05-05T15:58:44Z</time>
      </trkpt>
      <trkpt lat="38.294086" lon="-0.584713">
        <ele>81.658</ele>
        <time>2021-05-05T15:58:46Z</time>
      </trkpt>
      <trkpt lat="38.294136" lon="-0.584733">
        <ele>81.668</ele>
        <time>2021-05-05T15:58:48Z</time>
      </trkpt>
      <trkpt lat="38.294190" lon="-0.584753">
        <ele>81.661</ele>
        <time>2021-05-05T15:58:50Z</time>
      </trkpt>
      <trkpt lat="38.294232" lon="-0.584778">
        <ele>82.031</ele>
        <time>2021-05-05T15:58:52Z</time>
      </trkpt>
      <trkpt lat="38.294277" lon="-0.584805">
        <ele>82.413</ele>
        <time>2021-05-05T15:58:54Z</time>
      </trkpt>
      <trkpt lat="38.294329" lon="-0.584824">
        <ele>82.780</ele>
        <time>2021-05-05T15:58:56Z</time>
      </trkpt>
      <trkpt lat="38.294392" lon="-0.584798">
        <ele>82.715</ele>
        <time>2021-05-05T15:58:59Z</time>
      </trkpt>
      <trkpt lat="38.294426" lon="-0.584740">
        <ele>82.611</ele>
        <time>2021-05-05T15:59:01Z</time>
      </trkpt>
      <trkpt lat="38.294455" lon="-0.584677">
        <ele>82.221</ele>
        <time>2021-05-05T15:59:03Z</time>
      </trkpt>
      <trkpt lat="38.294478" lon="-0.584615">
        <ele>82.203</ele>
        <time>2021-05-05T15:59:05Z</time>
      </trkpt>
      <trkpt lat="38.294500" lon="-0.584555">
        <ele>81.608</ele>
        <time>2021-05-05T15:59:07Z</time>
      </trkpt>
      <trkpt lat="38.294533" lon="-0.584489">
        <ele>81.198</ele>
        <time>2021-05-05T15:59:09Z</time>
      </trkpt>
      <trkpt lat="38.294562" lon="-0.584431">
        <ele>80.783</ele>
        <time>2021-05-05T15:59:11Z</time>
      </trkpt>
      <trkpt lat="38.294587" lon="-0.584378">
        <ele>80.773</ele>
        <time>2021-05-05T15:59:13Z</time>
      </trkpt>
      <trkpt lat="38.294628" lon="-0.584308">
        <ele>80.746</ele>
        <time>2021-05-05T15:59:16Z</time>
      </trkpt>
      <trkpt lat="38.294629" lon="-0.584247">
        <ele>80.826</ele>
        <time>2021-05-05T15:59:18Z</time>
      </trkpt>
      <trkpt lat="38.294597" lon="-0.584195">
        <ele>80.598</ele>
        <time>2021-05-05T15:59:21Z</time>
      </trkpt>
      <trkpt lat="38.294593" lon="-0.584135">
        <ele>80.025</ele>
        <time>2021-05-05T15:59:26Z</time>
      </trkpt>
      <trkpt lat="38.294628" lon="-0.584062">
        <ele>79.790</ele>
        <time>2021-05-05T15:59:29Z</time>
      </trkpt>
      <trkpt lat="38.294684" lon="-0.584009">
        <ele>79.545</ele>
        <time>2021-05-05T15:59:32Z</time>
      </trkpt>
      <trkpt lat="38.294726" lon="-0.583975">
        <ele>79.447</ele>
        <time>2021-05-05T15:59:34Z</time>
      </trkpt>
      <trkpt lat="38.294763" lon="-0.583928">
        <ele>79.411</ele>
        <time>2021-05-05T15:59:37Z</time>
      </trkpt>
      <trkpt lat="38.294792" lon="-0.583863">
        <ele>79.208</ele>
        <time>2021-05-05T15:59:39Z</time>
      </trkpt>
      <trkpt lat="38.294809" lon="-0.583791">
        <ele>79.431</ele>
        <time>2021-05-05T15:59:41Z</time>
      </trkpt>
      <trkpt lat="38.294824" lon="-0.583735">
        <ele>79.666</ele>
        <time>2021-05-05T15:59:43Z</time>
      </trkpt>
      <trkpt lat="38.294858" lon="-0.583692">
        <ele>78.826</ele>
        <time>2021-05-05T15:59:49Z</time>
      </trkpt>
      <trkpt lat="38.294899" lon="-0.583651">
        <ele>78.149</ele>
        <time>2021-05-05T16:01:23Z</time>
      </trkpt>
      <trkpt lat="38.294946" lon="-0.583626">
        <ele>78.029</ele>
        <time>2021-05-05T16:01:27Z</time>
      </trkpt>
      <trkpt lat="38.294962" lon="-0.583566">
        <ele>77.911</ele>
        <time>2021-05-05T16:01:30Z</time>
      </trkpt>
      <trkpt lat="38.294990" lon="-0.583509">
        <ele>78.198</ele>
        <time>2021-05-05T16:01:32Z</time>
      </trkpt>
      <trkpt lat="38.295030" lon="-0.583457">
        <ele>78.043</ele>
        <time>2021-05-05T16:01:34Z</time>
      </trkpt>
      <trkpt lat="38.295080" lon="-0.583372">
        <ele>78.135</ele>
        <time>2021-05-05T16:01:36Z</time>
      </trkpt>
      <trkpt lat="38.295091" lon="-0.583316">
        <ele>78.286</ele>
        <time>2021-05-05T16:01:38Z</time>
      </trkpt>
      <trkpt lat="38.295107" lon="-0.583250">
        <ele>78.314</ele>
        <time>2021-05-05T16:01:40Z</time>
      </trkpt>
      <trkpt lat="38.295127" lon="-0.583190">
        <ele>78.408</ele>
        <time>2021-05-05T16:01:42Z</time>
      </trkpt>
      <trkpt lat="38.295164" lon="-0.583127">
        <ele>78.480</ele>
        <time>2021-05-05T16:01:44Z</time>
      </trkpt>
      <trkpt lat="38.295184" lon="-0.583053">
        <ele>78.295</ele>
        <time>2021-05-05T16:01:47Z</time>
      </trkpt>
      <trkpt lat="38.295208" lon="-0.582988">
        <ele>78.375</ele>
        <time>2021-05-05T16:01:49Z</time>
      </trkpt>
      <trkpt lat="38.295224" lon="-0.582906">
        <ele>78.228</ele>
        <time>2021-05-05T16:01:51Z</time>
      </trkpt>
      <trkpt lat="38.295254" lon="-0.582831">
        <ele>77.988</ele>
        <time>2021-05-05T16:01:53Z</time>
      </trkpt>
      <trkpt lat="38.295287" lon="-0.582765">
        <ele>77.770</ele>
        <time>2021-05-05T16:01:55Z</time>
      </trkpt>
      <trkpt lat="38.295313" lon="-0.582717">
        <ele>77.747</ele>
        <time>2021-05-05T16:01:57Z</time>
      </trkpt>
      <trkpt lat="38.295348" lon="-0.582654">
        <ele>77.562</ele>
        <time>2021-05-05T16:01:59Z</time>
      </trkpt>
      <trkpt lat="38.295377" lon="-0.582582">
        <ele>77.526</ele>
        <time>2021-05-05T16:02:01Z</time>
      </trkpt>
      <trkpt lat="38.295406" lon="-0.582501">
        <ele>77.747</ele>
        <time>2021-05-05T16:02:03Z</time>
      </trkpt>
      <trkpt lat="38.295433" lon="-0.582421">
        <ele>77.611</ele>
        <time>2021-05-05T16:02:05Z</time>
      </trkpt>
      <trkpt lat="38.295473" lon="-0.582365">
        <ele>78.108</ele>
        <time>2021-05-05T16:02:08Z</time>
      </trkpt>
      <trkpt lat="38.295504" lon="-0.582299">
        <ele>78.279</ele>
        <time>2021-05-05T16:02:11Z</time>
      </trkpt>
      <trkpt lat="38.295526" lon="-0.582239">
        <ele>77.934</ele>
        <time>2021-05-05T16:02:12Z</time>
      </trkpt>
      <trkpt lat="38.295548" lon="-0.582179">
        <ele>77.724</ele>
        <time>2021-05-05T16:02:14Z</time>
      </trkpt>
      <trkpt lat="38.295575" lon="-0.582098">
        <ele>77.467</ele>
        <time>2021-05-05T16:02:16Z</time>
      </trkpt>
      <trkpt lat="38.295601" lon="-0.582040">
        <ele>77.477</ele>
        <time>2021-05-05T16:02:17Z</time>
      </trkpt>
      <trkpt lat="38.295629" lon="-0.581990">
        <ele>77.349</ele>
        <time>2021-05-05T16:02:18Z</time>
      </trkpt>
      <trkpt lat="38.295673" lon="-0.581906">
        <ele>77.266</ele>
        <time>2021-05-05T16:02:20Z</time>
      </trkpt>
      <trkpt lat="38.295721" lon="-0.581808">
        <ele>76.981</ele>
        <time>2021-05-05T16:02:21Z</time>
      </trkpt>
      <trkpt lat="38.295775" lon="-0.581706">
        <ele>77.046</ele>
        <time>2021-05-05T16:02:23Z</time>
      </trkpt>
      <trkpt lat="38.295780" lon="-0.581647">
        <ele>76.988</ele>
        <time>2021-05-05T16:02:25Z</time>
      </trkpt>
      <trkpt lat="38.295814" lon="-0.581570">
        <ele>76.916</ele>
        <time>2021-05-05T16:02:26Z</time>
      </trkpt>
      <trkpt lat="38.295856" lon="-0.581495">
        <ele>76.908</ele>
        <time>2021-05-05T16:02:28Z</time>
      </trkpt>
      <trkpt lat="38.295892" lon="-0.581430">
        <ele>76.681</ele>
        <time>2021-05-05T16:02:29Z</time>
      </trkpt>
      <trkpt lat="38.295913" lon="-0.581378">
        <ele>76.456</ele>
        <time>2021-05-05T16:02:31Z</time>
      </trkpt>
      <trkpt lat="38.295947" lon="-0.581307">
        <ele>76.256</ele>
        <time>2021-05-05T16:02:34Z</time>
      </trkpt>
      <trkpt lat="38.295975" lon="-0.581250">
        <ele>75.979</ele>
        <time>2021-05-05T16:02:35Z</time>
      </trkpt>
      <trkpt lat="38.296011" lon="-0.581163">
        <ele>76.479</ele>
        <time>2021-05-05T16:02:37Z</time>
      </trkpt>
      <trkpt lat="38.296039" lon="-0.581089">
        <ele>76.791</ele>
        <time>2021-05-05T16:02:38Z</time>
      </trkpt>
      <trkpt lat="38.296062" lon="-0.581034">
        <ele>77.088</ele>
        <time>2021-05-05T16:02:39Z</time>
      </trkpt>
      <trkpt lat="38.296088" lon="-0.580973">
        <ele>76.923</ele>
        <time>2021-05-05T16:02:40Z</time>
      </trkpt>
      <trkpt lat="38.296126" lon="-0.580889">
        <ele>76.688</ele>
        <time>2021-05-05T16:02:42Z</time>
      </trkpt>
      <trkpt lat="38.296165" lon="-0.580808">
        <ele>76.724</ele>
        <time>2021-05-05T16:02:44Z</time>
      </trkpt>
      <trkpt lat="38.296192" lon="-0.580743">
        <ele>76.726</ele>
        <time>2021-05-05T16:02:46Z</time>
      </trkpt>
      <trkpt lat="38.296232" lon="-0.580646">
        <ele>77.008</ele>
        <time>2021-05-05T16:02:48Z</time>
      </trkpt>
      <trkpt lat="38.296260" lon="-0.580586">
        <ele>77.025</ele>
        <time>2021-05-05T16:02:50Z</time>
      </trkpt>
      <trkpt lat="38.296286" lon="-0.580535">
        <ele>77.030</ele>
        <time>2021-05-05T16:02:51Z</time>
      </trkpt>
      <trkpt lat="38.296311" lon="-0.580478">
        <ele>77.460</ele>
        <time>2021-05-05T16:02:53Z</time>
      </trkpt>
      <trkpt lat="38.296341" lon="-0.580406">
        <ele>77.863</ele>
        <time>2021-05-05T16:02:54Z</time>
      </trkpt>
      <trkpt lat="38.296364" lon="-0.580355">
        <ele>78.173</ele>
        <time>2021-05-05T16:02:56Z</time>
      </trkpt>
      <trkpt lat="38.296392" lon="-0.580295">
        <ele>78.695</ele>
        <time>2021-05-05T16:02:57Z</time>
      </trkpt>
      <trkpt lat="38.296422" lon="-0.580237">
        <ele>78.852</ele>
        <time>2021-05-05T16:02:59Z</time>
      </trkpt>
      <trkpt lat="38.296444" lon="-0.580186">
        <ele>79.167</ele>
        <time>2021-05-05T16:03:00Z</time>
      </trkpt>
      <trkpt lat="38.296481" lon="-0.580089">
        <ele>79.614</ele>
        <time>2021-05-05T16:03:02Z</time>
      </trkpt>
      <trkpt lat="38.296511" lon="-0.580016">
        <ele>79.954</ele>
        <time>2021-05-05T16:03:04Z</time>
      </trkpt>
      <trkpt lat="38.296535" lon="-0.579937">
        <ele>80.509</ele>
        <time>2021-05-05T16:03:06Z</time>
      </trkpt>
      <trkpt lat="38.296560" lon="-0.579880">
        <ele>80.708</ele>
        <time>2021-05-05T16:03:08Z</time>
      </trkpt>
      <trkpt lat="38.296588" lon="-0.579812">
        <ele>80.588</ele>
        <time>2021-05-05T16:03:10Z</time>
      </trkpt>
      <trkpt lat="38.296607" lon="-0.579745">
        <ele>80.193</ele>
        <time>2021-05-05T16:03:12Z</time>
      </trkpt>
      <trkpt lat="38.296622" lon="-0.579685">
        <ele>79.973</ele>
        <time>2021-05-05T16:03:13Z</time>
      </trkpt>
      <trkpt lat="38.296642" lon="-0.579622">
        <ele>79.756</ele>
        <time>2021-05-05T16:03:15Z</time>
      </trkpt>
      <trkpt lat="38.296653" lon="-0.579562">
        <ele>79.666</ele>
        <time>2021-05-05T16:03:17Z</time>
      </trkpt>
      <trkpt lat="38.296651" lon="-0.579489">
        <ele>79.118</ele>
        <time>2021-05-05T16:03:19Z</time>
      </trkpt>
      <trkpt lat="38.296634" lon="-0.579390">
        <ele>78.795</ele>
        <time>2021-05-05T16:03:21Z</time>
      </trkpt>
      <trkpt lat="38.296657" lon="-0.579318">
        <ele>78.490</ele>
        <time>2021-05-05T16:03:23Z</time>
      </trkpt>
      <trkpt lat="38.296687" lon="-0.579261">
        <ele>78.168</ele>
        <time>2021-05-05T16:03:24Z</time>
      </trkpt>
      <trkpt lat="38.296698" lon="-0.579183">
        <ele>78.142</ele>
        <time>2021-05-05T16:03:26Z</time>
      </trkpt>
      <trkpt lat="38.296721" lon="-0.579103">
        <ele>78.026</ele>
        <time>2021-05-05T16:03:28Z</time>
      </trkpt>
      <trkpt lat="38.296740" lon="-0.579044">
        <ele>78.208</ele>
        <time>2021-05-05T16:03:30Z</time>
      </trkpt>
      <trkpt lat="38.296766" lon="-0.578975">
        <ele>78.473</ele>
        <time>2021-05-05T16:03:32Z</time>
      </trkpt>
      <trkpt lat="38.296793" lon="-0.578924">
        <ele>78.528</ele>
        <time>2021-05-05T16:03:34Z</time>
      </trkpt>
      <trkpt lat="38.296831" lon="-0.578886">
        <ele>78.888</ele>
        <time>2021-05-05T16:03:36Z</time>
      </trkpt>
      <trkpt lat="38.296891" lon="-0.578869">
        <ele>79.061</ele>
        <time>2021-05-05T16:03:38Z</time>
      </trkpt>
      <trkpt lat="38.296940" lon="-0.578865">
        <ele>78.741</ele>
        <time>2021-05-05T16:03:40Z</time>
      </trkpt>
      <trkpt lat="38.297002" lon="-0.578811">
        <ele>79.093</ele>
        <time>2021-05-05T16:03:43Z</time>
      </trkpt>
      <trkpt lat="38.297032" lon="-0.578761">
        <ele>79.550</ele>
        <time>2021-05-05T16:03:45Z</time>
      </trkpt>
      <trkpt lat="38.297069" lon="-0.578690">
        <ele>80.395</ele>
        <time>2021-05-05T16:03:47Z</time>
      </trkpt>
      <trkpt lat="38.297094" lon="-0.578635">
        <ele>80.917</ele>
        <time>2021-05-05T16:03:50Z</time>
      </trkpt>
      <trkpt lat="38.297118" lon="-0.578569">
        <ele>81.487</ele>
        <time>2021-05-05T16:03:53Z</time>
      </trkpt>
      <trkpt lat="38.297133" lon="-0.578510">
        <ele>81.915</ele>
        <time>2021-05-05T16:03:55Z</time>
      </trkpt>
      <trkpt lat="38.297114" lon="-0.578433">
        <ele>82.008</ele>
        <time>2021-05-05T16:03:59Z</time>
      </trkpt>
      <trkpt lat="38.297087" lon="-0.578382">
        <ele>82.138</ele>
        <time>2021-05-05T16:04:02Z</time>
      </trkpt>
      <trkpt lat="38.297054" lon="-0.578331">
        <ele>82.113</ele>
        <time>2021-05-05T16:04:04Z</time>
      </trkpt>
      <trkpt lat="38.297008" lon="-0.578250">
        <ele>82.343</ele>
        <time>2021-05-05T16:04:06Z</time>
      </trkpt>
      <trkpt lat="38.296976" lon="-0.578196">
        <ele>82.416</ele>
        <time>2021-05-05T16:04:08Z</time>
      </trkpt>
      <trkpt lat="38.296954" lon="-0.578128">
        <ele>82.736</ele>
        <time>2021-05-05T16:04:10Z</time>
      </trkpt>
      <trkpt lat="38.296930" lon="-0.578062">
        <ele>82.528</ele>
        <time>2021-05-05T16:04:12Z</time>
      </trkpt>
      <trkpt lat="38.296915" lon="-0.578003">
        <ele>82.575</ele>
        <time>2021-05-05T16:04:14Z</time>
      </trkpt>
      <trkpt lat="38.296902" lon="-0.577943">
        <ele>82.240</ele>
        <time>2021-05-05T16:04:16Z</time>
      </trkpt>
      <trkpt lat="38.296892" lon="-0.577885">
        <ele>82.029</ele>
        <time>2021-05-05T16:04:18Z</time>
      </trkpt>
      <trkpt lat="38.296889" lon="-0.577805">
        <ele>81.900</ele>
        <time>2021-05-05T16:04:21Z</time>
      </trkpt>
      <trkpt lat="38.296887" lon="-0.577726">
        <ele>81.820</ele>
        <time>2021-05-05T16:04:23Z</time>
      </trkpt>
      <trkpt lat="38.296886" lon="-0.577657">
        <ele>81.408</ele>
        <time>2021-05-05T16:04:25Z</time>
      </trkpt>
      <trkpt lat="38.296896" lon="-0.577590">
        <ele>81.119</ele>
        <time>2021-05-05T16:04:28Z</time>
      </trkpt>
      <trkpt lat="38.296909" lon="-0.577511">
        <ele>80.674</ele>
        <time>2021-05-05T16:04:30Z</time>
      </trkpt>
      <trkpt lat="38.296928" lon="-0.577415">
        <ele>80.654</ele>
        <time>2021-05-05T16:04:33Z</time>
      </trkpt>
      <trkpt lat="38.296946" lon="-0.577362">
        <ele>80.527</ele>
        <time>2021-05-05T16:04:35Z</time>
      </trkpt>
      <trkpt lat="38.296971" lon="-0.577306">
        <ele>80.717</ele>
        <time>2021-05-05T16:04:37Z</time>
      </trkpt>
      <trkpt lat="38.296983" lon="-0.577241">
        <ele>81.089</ele>
        <time>2021-05-05T16:04:39Z</time>
      </trkpt>
      <trkpt lat="38.296993" lon="-0.577168">
        <ele>81.026</ele>
        <time>2021-05-05T16:04:41Z</time>
      </trkpt>
      <trkpt lat="38.297008" lon="-0.577114">
        <ele>80.951</ele>
        <time>2021-05-05T16:04:43Z</time>
      </trkpt>
      <trkpt lat="38.297029" lon="-0.577044">
        <ele>80.328</ele>
        <time>2021-05-05T16:04:46Z</time>
      </trkpt>
      <trkpt lat="38.297047" lon="-0.576970">
        <ele>80.389</ele>
        <time>2021-05-05T16:04:49Z</time>
      </trkpt>
      <trkpt lat="38.297063" lon="-0.576892">
        <ele>80.317</ele>
        <time>2021-05-05T16:04:53Z</time>
      </trkpt>
      <trkpt lat="38.297114" lon="-0.576870">
        <ele>80.708</ele>
        <time>2021-05-05T16:05:05Z</time>
      </trkpt>
      <trkpt lat="38.297159" lon="-0.576848">
        <ele>81.379</ele>
        <time>2021-05-05T16:05:08Z</time>
      </trkpt>
      <trkpt lat="38.297187" lon="-0.576784">
        <ele>81.934</ele>
        <time>2021-05-05T16:05:12Z</time>
      </trkpt>
      <trkpt lat="38.297186" lon="-0.576718">
        <ele>82.214</ele>
        <time>2021-05-05T16:05:15Z</time>
      </trkpt>
      <trkpt lat="38.297184" lon="-0.576634">
        <ele>82.037</ele>
        <time>2021-05-05T16:05:17Z</time>
      </trkpt>
      <trkpt lat="38.297205" lon="-0.576558">
        <ele>81.797</ele>
        <time>2021-05-05T16:05:20Z</time>
      </trkpt>
      <trkpt lat="38.297247" lon="-0.576489">
        <ele>81.549</ele>
        <time>2021-05-05T16:05:22Z</time>
      </trkpt>
      <trkpt lat="38.297302" lon="-0.576465">
        <ele>81.846</ele>
        <time>2021-05-05T16:05:23Z</time>
      </trkpt>
      <trkpt lat="38.297364" lon="-0.576471">
        <ele>82.181</ele>
        <time>2021-05-05T16:05:25Z</time>
      </trkpt>
      <trkpt lat="38.297414" lon="-0.576501">
        <ele>82.241</ele>
        <time>2021-05-05T16:05:27Z</time>
      </trkpt>
      <trkpt lat="38.297457" lon="-0.576532">
        <ele>82.581</ele>
        <time>2021-05-05T16:05:29Z</time>
      </trkpt>
      <trkpt lat="38.297504" lon="-0.576553">
        <ele>82.609</ele>
        <time>2021-05-05T16:05:31Z</time>
      </trkpt>
      <trkpt lat="38.297555" lon="-0.576559">
        <ele>82.508</ele>
        <time>2021-05-05T16:05:33Z</time>
      </trkpt>
      <trkpt lat="38.297606" lon="-0.576552">
        <ele>82.571</ele>
        <time>2021-05-05T16:05:35Z</time>
      </trkpt>
      <trkpt lat="38.297661" lon="-0.576526">
        <ele>82.566</ele>
        <time>2021-05-05T16:05:38Z</time>
      </trkpt>
      <trkpt lat="38.297693" lon="-0.576484">
        <ele>82.896</ele>
        <time>2021-05-05T16:05:40Z</time>
      </trkpt>
      <trkpt lat="38.297735" lon="-0.576430">
        <ele>83.059</ele>
        <time>2021-05-05T16:05:42Z</time>
      </trkpt>
      <trkpt lat="38.297761" lon="-0.576365">
        <ele>83.169</ele>
        <time>2021-05-05T16:05:45Z</time>
      </trkpt>
      <trkpt lat="38.297802" lon="-0.576336">
        <ele>83.241</ele>
        <time>2021-05-05T16:05:48Z</time>
      </trkpt>
      <trkpt lat="38.297844" lon="-0.576360">
        <ele>83.478</ele>
        <time>2021-05-05T16:05:51Z</time>
      </trkpt>
      <trkpt lat="38.297864" lon="-0.576424">
        <ele>83.643</ele>
        <time>2021-05-05T16:05:54Z</time>
      </trkpt>
      <trkpt lat="38.297877" lon="-0.576480">
        <ele>83.978</ele>
        <time>2021-05-05T16:05:57Z</time>
      </trkpt>
      <trkpt lat="38.297904" lon="-0.576542">
        <ele>84.233</ele>
        <time>2021-05-05T16:06:00Z</time>
      </trkpt>
      <trkpt lat="38.297949" lon="-0.576566">
        <ele>84.626</ele>
        <time>2021-05-05T16:06:02Z</time>
      </trkpt>
      <trkpt lat="38.297996" lon="-0.576557">
        <ele>85.108</ele>
        <time>2021-05-05T16:06:04Z</time>
      </trkpt>
      <trkpt lat="38.298040" lon="-0.576536">
        <ele>85.334</ele>
        <time>2021-05-05T16:06:06Z</time>
      </trkpt>
      <trkpt lat="38.298082" lon="-0.576516">
        <ele>85.299</ele>
        <time>2021-05-05T16:06:08Z</time>
      </trkpt>
      <trkpt lat="38.298129" lon="-0.576487">
        <ele>85.239</ele>
        <time>2021-05-05T16:06:10Z</time>
      </trkpt>
      <trkpt lat="38.298174" lon="-0.576450">
        <ele>84.972</ele>
        <time>2021-05-05T16:06:12Z</time>
      </trkpt>
      <trkpt lat="38.298226" lon="-0.576393">
        <ele>84.972</ele>
        <time>2021-05-05T16:06:15Z</time>
      </trkpt>
      <trkpt lat="38.298263" lon="-0.576339">
        <ele>85.054</ele>
        <time>2021-05-05T16:06:17Z</time>
      </trkpt>
      <trkpt lat="38.298299" lon="-0.576281">
        <ele>85.231</ele>
        <time>2021-05-05T16:06:19Z</time>
      </trkpt>
      <trkpt lat="38.298330" lon="-0.576231">
        <ele>85.496</ele>
        <time>2021-05-05T16:06:22Z</time>
      </trkpt>
      <trkpt lat="38.298368" lon="-0.576168">
        <ele>85.784</ele>
        <time>2021-05-05T16:06:25Z</time>
      </trkpt>
      <trkpt lat="38.298403" lon="-0.576118">
        <ele>86.007</ele>
        <time>2021-05-05T16:06:27Z</time>
      </trkpt>
      <trkpt lat="38.298434" lon="-0.576065">
        <ele>86.017</ele>
        <time>2021-05-05T16:06:29Z</time>
      </trkpt>
      <trkpt lat="38.298464" lon="-0.576015">
        <ele>85.808</ele>
        <time>2021-05-05T16:06:31Z</time>
      </trkpt>
      <trkpt lat="38.298499" lon="-0.575950">
        <ele>85.955</ele>
        <time>2021-05-05T16:06:34Z</time>
      </trkpt>
      <trkpt lat="38.298537" lon="-0.575885">
        <ele>85.790</ele>
        <time>2021-05-05T16:06:36Z</time>
      </trkpt>
      <trkpt lat="38.298569" lon="-0.575839">
        <ele>85.550</ele>
        <time>2021-05-05T16:06:38Z</time>
      </trkpt>
      <trkpt lat="38.298604" lon="-0.575793">
        <ele>85.533</ele>
        <time>2021-05-05T16:06:40Z</time>
      </trkpt>
      <trkpt lat="38.298636" lon="-0.575742">
        <ele>85.493</ele>
        <time>2021-05-05T16:06:42Z</time>
      </trkpt>
      <trkpt lat="38.298682" lon="-0.575666">
        <ele>85.225</ele>
        <time>2021-05-05T16:06:45Z</time>
      </trkpt>
      <trkpt lat="38.298729" lon="-0.575590">
        <ele>85.262</ele>
        <time>2021-05-05T16:06:48Z</time>
      </trkpt>
      <trkpt lat="38.298758" lon="-0.575539">
        <ele>85.057</ele>
        <time>2021-05-05T16:06:50Z</time>
      </trkpt>
      <trkpt lat="38.298798" lon="-0.575482">
        <ele>84.622</ele>
        <time>2021-05-05T16:06:53Z</time>
      </trkpt>
      <trkpt lat="38.298836" lon="-0.575428">
        <ele>84.462</ele>
        <time>2021-05-05T16:06:55Z</time>
      </trkpt>
      <trkpt lat="38.298865" lon="-0.575383">
        <ele>84.308</ele>
        <time>2021-05-05T16:06:57Z</time>
      </trkpt>
      <trkpt lat="38.298902" lon="-0.575312">
        <ele>84.308</ele>
        <time>2021-05-05T16:07:00Z</time>
      </trkpt>
      <trkpt lat="38.298934" lon="-0.575262">
        <ele>84.379</ele>
        <time>2021-05-05T16:07:02Z</time>
      </trkpt>
      <trkpt lat="38.298968" lon="-0.575202">
        <ele>84.684</ele>
        <time>2021-05-05T16:07:05Z</time>
      </trkpt>
      <trkpt lat="38.299002" lon="-0.575153">
        <ele>84.884</ele>
        <time>2021-05-05T16:07:07Z</time>
      </trkpt>
      <trkpt lat="38.299034" lon="-0.575109">
        <ele>85.377</ele>
        <time>2021-05-05T16:07:09Z</time>
      </trkpt>
      <trkpt lat="38.299072" lon="-0.575059">
        <ele>85.627</ele>
        <time>2021-05-05T16:07:12Z</time>
      </trkpt>
      <trkpt lat="38.299108" lon="-0.575003">
        <ele>86.459</ele>
        <time>2021-05-05T16:07:14Z</time>
      </trkpt>
      <trkpt lat="38.299137" lon="-0.574957">
        <ele>86.766</ele>
        <time>2021-05-05T16:07:16Z</time>
      </trkpt>
      <trkpt lat="38.299167" lon="-0.574911">
        <ele>87.171</ele>
        <time>2021-05-05T16:07:18Z</time>
      </trkpt>
      <trkpt lat="38.299204" lon="-0.574856">
        <ele>87.618</ele>
        <time>2021-05-05T16:07:20Z</time>
      </trkpt>
      <trkpt lat="38.299238" lon="-0.574809">
        <ele>87.998</ele>
        <time>2021-05-05T16:07:22Z</time>
      </trkpt>
      <trkpt lat="38.299273" lon="-0.574749">
        <ele>88.317</ele>
        <time>2021-05-05T16:07:25Z</time>
      </trkpt>
      <trkpt lat="38.299312" lon="-0.574699">
        <ele>89.008</ele>
        <time>2021-05-05T16:07:27Z</time>
      </trkpt>
      <trkpt lat="38.299359" lon="-0.574633">
        <ele>89.368</ele>
        <time>2021-05-05T16:07:30Z</time>
      </trkpt>
      <trkpt lat="38.299394" lon="-0.574585">
        <ele>90.053</ele>
        <time>2021-05-05T16:07:33Z</time>
      </trkpt>
      <trkpt lat="38.299431" lon="-0.574535">
        <ele>90.563</ele>
        <time>2021-05-05T16:07:35Z</time>
      </trkpt>
      <trkpt lat="38.299467" lon="-0.574485">
        <ele>90.986</ele>
        <time>2021-05-05T16:07:38Z</time>
      </trkpt>
      <trkpt lat="38.299506" lon="-0.574441">
        <ele>91.796</ele>
        <time>2021-05-05T16:07:41Z</time>
      </trkpt>
      <trkpt lat="38.299541" lon="-0.574386">
        <ele>92.388</ele>
        <time>2021-05-05T16:07:44Z</time>
      </trkpt>
      <trkpt lat="38.299576" lon="-0.574332">
        <ele>92.655</ele>
        <time>2021-05-05T16:07:47Z</time>
      </trkpt>
      <trkpt lat="38.299610" lon="-0.574271">
        <ele>92.790</ele>
        <time>2021-05-05T16:07:50Z</time>
      </trkpt>
      <trkpt lat="38.299645" lon="-0.574203">
        <ele>92.934</ele>
        <time>2021-05-05T16:07:53Z</time>
      </trkpt>
      <trkpt lat="38.299685" lon="-0.574140">
        <ele>93.555</ele>
        <time>2021-05-05T16:07:56Z</time>
      </trkpt>
      <trkpt lat="38.299721" lon="-0.574077">
        <ele>94.210</ele>
        <time>2021-05-05T16:07:59Z</time>
      </trkpt>
      <trkpt lat="38.299752" lon="-0.574032">
        <ele>94.408</ele>
        <time>2021-05-05T16:08:01Z</time>
      </trkpt>
      <trkpt lat="38.299799" lon="-0.573970">
        <ele>94.860</ele>
        <time>2021-05-05T16:08:04Z</time>
      </trkpt>
      <trkpt lat="38.299844" lon="-0.573909">
        <ele>95.435</ele>
        <time>2021-05-05T16:08:07Z</time>
      </trkpt>
      <trkpt lat="38.299884" lon="-0.573842">
        <ele>96.015</ele>
        <time>2021-05-05T16:08:10Z</time>
      </trkpt>
      <trkpt lat="38.299923" lon="-0.573775">
        <ele>96.718</ele>
        <time>2021-05-05T16:08:13Z</time>
      </trkpt>
      <trkpt lat="38.299955" lon="-0.573728">
        <ele>97.178</ele>
        <time>2021-05-05T16:08:15Z</time>
      </trkpt>
      <trkpt lat="38.299987" lon="-0.573684">
        <ele>97.770</ele>
        <time>2021-05-05T16:08:17Z</time>
      </trkpt>
      <trkpt lat="38.300017" lon="-0.573639">
        <ele>98.197</ele>
        <time>2021-05-05T16:08:19Z</time>
      </trkpt>
      <trkpt lat="38.300047" lon="-0.573586">
        <ele>98.382</ele>
        <time>2021-05-05T16:08:21Z</time>
      </trkpt>
      <trkpt lat="38.300080" lon="-0.573544">
        <ele>98.588</ele>
        <time>2021-05-05T16:08:23Z</time>
      </trkpt>
      <trkpt lat="38.300110" lon="-0.573500">
        <ele>98.924</ele>
        <time>2021-05-05T16:08:25Z</time>
      </trkpt>
      <trkpt lat="38.300137" lon="-0.573453">
        <ele>99.026</ele>
        <time>2021-05-05T16:08:27Z</time>
      </trkpt>
      <trkpt lat="38.300181" lon="-0.573381">
        <ele>99.108</ele>
        <time>2021-05-05T16:08:30Z</time>
      </trkpt>
      <trkpt lat="38.300221" lon="-0.573308">
        <ele>99.255</ele>
        <time>2021-05-05T16:08:33Z</time>
      </trkpt>
      <trkpt lat="38.300249" lon="-0.573258">
        <ele>99.150</ele>
        <time>2021-05-05T16:08:35Z</time>
      </trkpt>
      <trkpt lat="38.300277" lon="-0.573211">
        <ele>99.430</ele>
        <time>2021-05-05T16:08:37Z</time>
      </trkpt>
      <trkpt lat="38.300323" lon="-0.573140">
        <ele>99.563</ele>
        <time>2021-05-05T16:08:40Z</time>
      </trkpt>
      <trkpt lat="38.300367" lon="-0.573075">
        <ele>99.653</ele>
        <time>2021-05-05T16:08:43Z</time>
      </trkpt>
      <trkpt lat="38.300404" lon="-0.573020">
        <ele>99.635</ele>
        <time>2021-05-05T16:08:45Z</time>
      </trkpt>
      <trkpt lat="38.300436" lon="-0.572970">
        <ele>99.842</ele>
        <time>2021-05-05T16:08:47Z</time>
      </trkpt>
      <trkpt lat="38.300486" lon="-0.572895">
        <ele>99.677</ele>
        <time>2021-05-05T16:08:50Z</time>
      </trkpt>
      <trkpt lat="38.300518" lon="-0.572841">
        <ele>99.375</ele>
        <time>2021-05-05T16:08:52Z</time>
      </trkpt>
      <trkpt lat="38.300551" lon="-0.572789">
        <ele>99.228</ele>
        <time>2021-05-05T16:08:54Z</time>
      </trkpt>
      <trkpt lat="38.300584" lon="-0.572740">
        <ele>98.720</ele>
        <time>2021-05-05T16:08:56Z</time>
      </trkpt>
      <trkpt lat="38.300619" lon="-0.572694">
        <ele>98.808</ele>
        <time>2021-05-05T16:08:58Z</time>
      </trkpt>
      <trkpt lat="38.300653" lon="-0.572636">
        <ele>98.744</ele>
        <time>2021-05-05T16:09:00Z</time>
      </trkpt>
      <trkpt lat="38.300684" lon="-0.572589">
        <ele>98.799</ele>
        <time>2021-05-05T16:09:02Z</time>
      </trkpt>
      <trkpt lat="38.300717" lon="-0.572527">
        <ele>98.699</ele>
        <time>2021-05-05T16:09:04Z</time>
      </trkpt>
      <trkpt lat="38.300755" lon="-0.572476">
        <ele>98.632</ele>
        <time>2021-05-05T16:09:06Z</time>
      </trkpt>
      <trkpt lat="38.300810" lon="-0.572388">
        <ele>98.622</ele>
        <time>2021-05-05T16:09:09Z</time>
      </trkpt>
      <trkpt lat="38.300851" lon="-0.572326">
        <ele>98.734</ele>
        <time>2021-05-05T16:09:11Z</time>
      </trkpt>
      <trkpt lat="38.300896" lon="-0.572265">
        <ele>98.581</ele>
        <time>2021-05-05T16:09:13Z</time>
      </trkpt>
      <trkpt lat="38.300939" lon="-0.572204">
        <ele>98.736</ele>
        <time>2021-05-05T16:09:15Z</time>
      </trkpt>
      <trkpt lat="38.300986" lon="-0.572127">
        <ele>98.695</ele>
        <time>2021-05-05T16:09:17Z</time>
      </trkpt>
      <trkpt lat="38.301023" lon="-0.572065">
        <ele>98.549</ele>
        <time>2021-05-05T16:09:19Z</time>
      </trkpt>
      <trkpt lat="38.301079" lon="-0.571984">
        <ele>98.323</ele>
        <time>2021-05-05T16:09:21Z</time>
      </trkpt>
      <trkpt lat="38.301117" lon="-0.571916">
        <ele>98.308</ele>
        <time>2021-05-05T16:09:23Z</time>
      </trkpt>
      <trkpt lat="38.301151" lon="-0.571862">
        <ele>97.996</ele>
        <time>2021-05-05T16:09:25Z</time>
      </trkpt>
      <trkpt lat="38.301196" lon="-0.571796">
        <ele>98.091</ele>
        <time>2021-05-05T16:09:26Z</time>
      </trkpt>
      <trkpt lat="38.301228" lon="-0.571731">
        <ele>97.821</ele>
        <time>2021-05-05T16:09:28Z</time>
      </trkpt>
      <trkpt lat="38.301269" lon="-0.571657">
        <ele>97.914</ele>
        <time>2021-05-05T16:09:29Z</time>
      </trkpt>
      <trkpt lat="38.301333" lon="-0.571566">
        <ele>97.834</ele>
        <time>2021-05-05T16:09:31Z</time>
      </trkpt>
      <trkpt lat="38.301392" lon="-0.571471">
        <ele>97.816</ele>
        <time>2021-05-05T16:09:33Z</time>
      </trkpt>
      <trkpt lat="38.301424" lon="-0.571418">
        <ele>98.043</ele>
        <time>2021-05-05T16:09:34Z</time>
      </trkpt>
      <trkpt lat="38.301490" lon="-0.571312">
        <ele>97.698</ele>
        <time>2021-05-05T16:09:36Z</time>
      </trkpt>
      <trkpt lat="38.301558" lon="-0.571207">
        <ele>97.028</ele>
        <time>2021-05-05T16:09:38Z</time>
      </trkpt>
      <trkpt lat="38.301628" lon="-0.571096">
        <ele>96.489</ele>
        <time>2021-05-05T16:09:40Z</time>
      </trkpt>
      <trkpt lat="38.301708" lon="-0.570987">
        <ele>95.417</ele>
        <time>2021-05-05T16:09:42Z</time>
      </trkpt>
      <trkpt lat="38.301739" lon="-0.570930">
        <ele>94.308</ele>
        <time>2021-05-05T16:09:43Z</time>
      </trkpt>
      <trkpt lat="38.301811" lon="-0.570815">
        <ele>93.439</ele>
        <time>2021-05-05T16:09:45Z</time>
      </trkpt>
      <trkpt lat="38.301892" lon="-0.570682">
        <ele>92.324</ele>
        <time>2021-05-05T16:09:47Z</time>
      </trkpt>
      <trkpt lat="38.301977" lon="-0.570543">
        <ele>92.434</ele>
        <time>2021-05-05T16:09:49Z</time>
      </trkpt>
      <trkpt lat="38.302068" lon="-0.570402">
        <ele>92.187</ele>
        <time>2021-05-05T16:09:51Z</time>
      </trkpt>
      <trkpt lat="38.302111" lon="-0.570326">
        <ele>91.777</ele>
        <time>2021-05-05T16:09:52Z</time>
      </trkpt>
      <trkpt lat="38.302197" lon="-0.570172">
        <ele>90.959</ele>
        <time>2021-05-05T16:09:54Z</time>
      </trkpt>
      <trkpt lat="38.302278" lon="-0.570019">
        <ele>89.436</ele>
        <time>2021-05-05T16:09:56Z</time>
      </trkpt>
      <trkpt lat="38.302320" lon="-0.569936">
        <ele>88.151</ele>
        <time>2021-05-05T16:09:57Z</time>
      </trkpt>
      <trkpt lat="38.302410" lon="-0.569769">
        <ele>87.097</ele>
        <time>2021-05-05T16:09:59Z</time>
      </trkpt>
      <trkpt lat="38.302456" lon="-0.569684">
        <ele>86.323</ele>
        <time>2021-05-05T16:10:00Z</time>
      </trkpt>
      <trkpt lat="38.302542" lon="-0.569520">
        <ele>85.925</ele>
        <time>2021-05-05T16:10:02Z</time>
      </trkpt>
      <trkpt lat="38.302584" lon="-0.569433">
        <ele>85.308</ele>
        <time>2021-05-05T16:10:03Z</time>
      </trkpt>
      <trkpt lat="38.302627" lon="-0.569347">
        <ele>85.066</ele>
        <time>2021-05-05T16:10:04Z</time>
      </trkpt>
      <trkpt lat="38.302672" lon="-0.569265">
        <ele>84.511</ele>
        <time>2021-05-05T16:10:05Z</time>
      </trkpt>
      <trkpt lat="38.302717" lon="-0.569179">
        <ele>84.021</ele>
        <time>2021-05-05T16:10:06Z</time>
      </trkpt>
      <trkpt lat="38.302763" lon="-0.569090">
        <ele>83.744</ele>
        <time>2021-05-05T16:10:07Z</time>
      </trkpt>
      <trkpt lat="38.302857" lon="-0.568919">
        <ele>83.574</ele>
        <time>2021-05-05T16:10:09Z</time>
      </trkpt>
      <trkpt lat="38.302903" lon="-0.568833">
        <ele>82.616</ele>
        <time>2021-05-05T16:10:10Z</time>
      </trkpt>
      <trkpt lat="38.302950" lon="-0.568745">
        <ele>82.243</ele>
        <time>2021-05-05T16:10:11Z</time>
      </trkpt>
      <trkpt lat="38.303044" lon="-0.568585">
        <ele>81.918</ele>
        <time>2021-05-05T16:10:13Z</time>
      </trkpt>
      <trkpt lat="38.303131" lon="-0.568438">
        <ele>80.185</ele>
        <time>2021-05-05T16:10:15Z</time>
      </trkpt>
      <trkpt lat="38.303224" lon="-0.568279">
        <ele>79.189</ele>
        <time>2021-05-05T16:10:17Z</time>
      </trkpt>
      <trkpt lat="38.303313" lon="-0.568119">
        <ele>78.617</ele>
        <time>2021-05-05T16:10:19Z</time>
      </trkpt>
      <trkpt lat="38.303359" lon="-0.568037">
        <ele>78.208</ele>
        <time>2021-05-05T16:10:20Z</time>
      </trkpt>
      <trkpt lat="38.303399" lon="-0.567955">
        <ele>77.855</ele>
        <time>2021-05-05T16:10:21Z</time>
      </trkpt>
      <trkpt lat="38.303442" lon="-0.567876">
        <ele>77.490</ele>
        <time>2021-05-05T16:10:22Z</time>
      </trkpt>
      <trkpt lat="38.303488" lon="-0.567798">
        <ele>77.540</ele>
        <time>2021-05-05T16:10:23Z</time>
      </trkpt>
      <trkpt lat="38.303580" lon="-0.567637">
        <ele>76.653</ele>
        <time>2021-05-05T16:10:25Z</time>
      </trkpt>
      <trkpt lat="38.303623" lon="-0.567555">
        <ele>76.073</ele>
        <time>2021-05-05T16:10:26Z</time>
      </trkpt>
      <trkpt lat="38.303709" lon="-0.567396">
        <ele>75.865</ele>
        <time>2021-05-05T16:10:28Z</time>
      </trkpt>
      <trkpt lat="38.303754" lon="-0.567320">
        <ele>75.692</ele>
        <time>2021-05-05T16:10:29Z</time>
      </trkpt>
      <trkpt lat="38.303798" lon="-0.567242">
        <ele>75.487</ele>
        <time>2021-05-05T16:10:30Z</time>
      </trkpt>
      <trkpt lat="38.303836" lon="-0.567166">
        <ele>75.199</ele>
        <time>2021-05-05T16:10:31Z</time>
      </trkpt>
      <trkpt lat="38.303878" lon="-0.567089">
        <ele>75.307</ele>
        <time>2021-05-05T16:10:32Z</time>
      </trkpt>
      <trkpt lat="38.303963" lon="-0.566933">
        <ele>74.927</ele>
        <time>2021-05-05T16:10:34Z</time>
      </trkpt>
      <trkpt lat="38.304041" lon="-0.566786">
        <ele>75.008</ele>
        <time>2021-05-05T16:10:36Z</time>
      </trkpt>
      <trkpt lat="38.304082" lon="-0.566712">
        <ele>75.276</ele>
        <time>2021-05-05T16:10:37Z</time>
      </trkpt>
      <trkpt lat="38.304158" lon="-0.566563">
        <ele>74.261</ele>
        <time>2021-05-05T16:10:39Z</time>
      </trkpt>
      <trkpt lat="38.304196" lon="-0.566494">
        <ele>73.211</ele>
        <time>2021-05-05T16:10:40Z</time>
      </trkpt>
      <trkpt lat="38.304268" lon="-0.566364">
        <ele>72.394</ele>
        <time>2021-05-05T16:10:42Z</time>
      </trkpt>
      <trkpt lat="38.304306" lon="-0.566301">
        <ele>72.034</ele>
        <time>2021-05-05T16:10:43Z</time>
      </trkpt>
      <trkpt lat="38.304379" lon="-0.566171">
        <ele>71.456</ele>
        <time>2021-05-05T16:10:45Z</time>
      </trkpt>
      <trkpt lat="38.304410" lon="-0.566110">
        <ele>70.623</ele>
        <time>2021-05-05T16:10:46Z</time>
      </trkpt>
      <trkpt lat="38.304475" lon="-0.565982">
        <ele>69.958</ele>
        <time>2021-05-05T16:10:48Z</time>
      </trkpt>
      <trkpt lat="38.304507" lon="-0.565915">
        <ele>69.237</ele>
        <time>2021-05-05T16:10:49Z</time>
      </trkpt>
      <trkpt lat="38.304575" lon="-0.565786">
        <ele>68.149</ele>
        <time>2021-05-05T16:10:51Z</time>
      </trkpt>
      <trkpt lat="38.304613" lon="-0.565717">
        <ele>67.613</ele>
        <time>2021-05-05T16:10:52Z</time>
      </trkpt>
      <trkpt lat="38.304691" lon="-0.565579">
        <ele>67.308</ele>
        <time>2021-05-05T16:10:54Z</time>
      </trkpt>
      <trkpt lat="38.304728" lon="-0.565513">
        <ele>66.710</ele>
        <time>2021-05-05T16:10:55Z</time>
      </trkpt>
      <trkpt lat="38.304763" lon="-0.565442">
        <ele>66.155</ele>
        <time>2021-05-05T16:10:56Z</time>
      </trkpt>
      <trkpt lat="38.304839" lon="-0.565315">
        <ele>65.495</ele>
        <time>2021-05-05T16:10:58Z</time>
      </trkpt>
      <trkpt lat="38.304871" lon="-0.565255">
        <ele>64.848</ele>
        <time>2021-05-05T16:10:59Z</time>
      </trkpt>
      <trkpt lat="38.304902" lon="-0.565192">
        <ele>64.328</ele>
        <time>2021-05-05T16:11:00Z</time>
      </trkpt>
      <trkpt lat="38.304945" lon="-0.565069">
        <ele>64.230</ele>
        <time>2021-05-05T16:11:02Z</time>
      </trkpt>
      <trkpt lat="38.304966" lon="-0.564951">
        <ele>64.237</ele>
        <time>2021-05-05T16:11:04Z</time>
      </trkpt>
      <trkpt lat="38.304965" lon="-0.564892">
        <ele>64.222</ele>
        <time>2021-05-05T16:11:05Z</time>
      </trkpt>
      <trkpt lat="38.304952" lon="-0.564795">
        <ele>64.461</ele>
        <time>2021-05-05T16:11:07Z</time>
      </trkpt>
      <trkpt lat="38.304956" lon="-0.564736">
        <ele>64.421</ele>
        <time>2021-05-05T16:11:08Z</time>
      </trkpt>
      <trkpt lat="38.304978" lon="-0.564630">
        <ele>64.013</ele>
        <time>2021-05-05T16:11:10Z</time>
      </trkpt>
      <trkpt lat="38.305012" lon="-0.564535">
        <ele>63.208</ele>
        <time>2021-05-05T16:11:12Z</time>
      </trkpt>
      <trkpt lat="38.304982" lon="-0.564471">
        <ele>62.093</ele>
        <time>2021-05-05T16:11:14Z</time>
      </trkpt>
      <trkpt lat="38.304954" lon="-0.564366">
        <ele>61.398</ele>
        <time>2021-05-05T16:11:16Z</time>
      </trkpt>
      <trkpt lat="38.304947" lon="-0.564282">
        <ele>60.928</ele>
        <time>2021-05-05T16:11:18Z</time>
      </trkpt>
      <trkpt lat="38.304991" lon="-0.564201">
        <ele>61.171</ele>
        <time>2021-05-05T16:11:20Z</time>
      </trkpt>
      <trkpt lat="38.305036" lon="-0.564166">
        <ele>60.931</ele>
        <time>2021-05-05T16:11:21Z</time>
      </trkpt>
      <trkpt lat="38.305110" lon="-0.564123">
        <ele>61.813</ele>
        <time>2021-05-05T16:11:23Z</time>
      </trkpt>
      <trkpt lat="38.305165" lon="-0.564096">
        <ele>63.450</ele>
        <time>2021-05-05T16:11:25Z</time>
      </trkpt>
      <trkpt lat="38.305214" lon="-0.564070">
        <ele>65.175</ele>
        <time>2021-05-05T16:11:26Z</time>
      </trkpt>
      <trkpt lat="38.305283" lon="-0.564043">
        <ele>65.695</ele>
        <time>2021-05-05T16:11:28Z</time>
      </trkpt>
      <trkpt lat="38.305339" lon="-0.563999">
        <ele>65.649</ele>
        <time>2021-05-05T16:11:29Z</time>
      </trkpt>
      <trkpt lat="38.305409" lon="-0.563949">
        <ele>65.923</ele>
        <time>2021-05-05T16:11:31Z</time>
      </trkpt>
      <trkpt lat="38.305474" lon="-0.563884">
        <ele>66.208</ele>
        <time>2021-05-05T16:11:32Z</time>
      </trkpt>
      <trkpt lat="38.305546" lon="-0.563802">
        <ele>66.016</ele>
        <time>2021-05-05T16:11:34Z</time>
      </trkpt>
      <trkpt lat="38.305626" lon="-0.563705">
        <ele>66.251</ele>
        <time>2021-05-05T16:11:36Z</time>
      </trkpt>
      <trkpt lat="38.305706" lon="-0.563607">
        <ele>65.951</ele>
        <time>2021-05-05T16:11:38Z</time>
      </trkpt>
      <trkpt lat="38.305740" lon="-0.563552">
        <ele>65.084</ele>
        <time>2021-05-05T16:11:39Z</time>
      </trkpt>
      <trkpt lat="38.305807" lon="-0.563436">
        <ele>64.384</ele>
        <time>2021-05-05T16:11:41Z</time>
      </trkpt>
      <trkpt lat="38.305841" lon="-0.563380">
        <ele>63.576</ele>
        <time>2021-05-05T16:11:42Z</time>
      </trkpt>
      <trkpt lat="38.305901" lon="-0.563269">
        <ele>63.253</ele>
        <time>2021-05-05T16:11:44Z</time>
      </trkpt>
      <trkpt lat="38.305929" lon="-0.563211">
        <ele>62.818</ele>
        <time>2021-05-05T16:11:45Z</time>
      </trkpt>
      <trkpt lat="38.305988" lon="-0.563115">
        <ele>62.058</ele>
        <time>2021-05-05T16:11:47Z</time>
      </trkpt>
      <trkpt lat="38.306016" lon="-0.563066">
        <ele>61.652</ele>
        <time>2021-05-05T16:11:48Z</time>
      </trkpt>
      <trkpt lat="38.306064" lon="-0.562986">
        <ele>60.817</ele>
        <time>2021-05-05T16:11:50Z</time>
      </trkpt>
      <trkpt lat="38.306126" lon="-0.562883">
        <ele>60.108</ele>
        <time>2021-05-05T16:11:52Z</time>
      </trkpt>
      <trkpt lat="38.306180" lon="-0.562783">
        <ele>60.382</ele>
        <time>2021-05-05T16:11:54Z</time>
      </trkpt>
      <trkpt lat="38.306238" lon="-0.562678">
        <ele>60.737</ele>
        <time>2021-05-05T16:11:56Z</time>
      </trkpt>
      <trkpt lat="38.306290" lon="-0.562569">
        <ele>61.337</ele>
        <time>2021-05-05T16:11:58Z</time>
      </trkpt>
      <trkpt lat="38.306316" lon="-0.562516">
        <ele>61.620</ele>
        <time>2021-05-05T16:11:59Z</time>
      </trkpt>
      <trkpt lat="38.306375" lon="-0.562410">
        <ele>62.170</ele>
        <time>2021-05-05T16:12:01Z</time>
      </trkpt>
      <trkpt lat="38.306434" lon="-0.562306">
        <ele>62.242</ele>
        <time>2021-05-05T16:12:03Z</time>
      </trkpt>
      <trkpt lat="38.306495" lon="-0.562206">
        <ele>62.639</ele>
        <time>2021-05-05T16:12:05Z</time>
      </trkpt>
      <trkpt lat="38.306565" lon="-0.562102">
        <ele>62.824</ele>
        <time>2021-05-05T16:12:07Z</time>
      </trkpt>
      <trkpt lat="38.306625" lon="-0.561990">
        <ele>63.125</ele>
        <time>2021-05-05T16:12:09Z</time>
      </trkpt>
      <trkpt lat="38.306657" lon="-0.561931">
        <ele>63.526</ele>
        <time>2021-05-05T16:12:10Z</time>
      </trkpt>
      <trkpt lat="38.306690" lon="-0.561877">
        <ele>63.208</ele>
        <time>2021-05-05T16:12:11Z</time>
      </trkpt>
      <trkpt lat="38.306754" lon="-0.561771">
        <ele>63.108</ele>
        <time>2021-05-05T16:12:13Z</time>
      </trkpt>
      <trkpt lat="38.306817" lon="-0.561661">
        <ele>63.499</ele>
        <time>2021-05-05T16:12:15Z</time>
      </trkpt>
      <trkpt lat="38.306852" lon="-0.561611">
        <ele>63.094</ele>
        <time>2021-05-05T16:12:16Z</time>
      </trkpt>
      <trkpt lat="38.306885" lon="-0.561567">
        <ele>62.844</ele>
        <time>2021-05-05T16:12:17Z</time>
      </trkpt>
      <trkpt lat="38.306917" lon="-0.561520">
        <ele>62.827</ele>
        <time>2021-05-05T16:12:18Z</time>
      </trkpt>
      <trkpt lat="38.306978" lon="-0.561423">
        <ele>63.157</ele>
        <time>2021-05-05T16:12:20Z</time>
      </trkpt>
      <trkpt lat="38.307007" lon="-0.561375">
        <ele>63.559</ele>
        <time>2021-05-05T16:12:21Z</time>
      </trkpt>
      <trkpt lat="38.307037" lon="-0.561327">
        <ele>63.486</ele>
        <time>2021-05-05T16:12:22Z</time>
      </trkpt>
      <trkpt lat="38.307094" lon="-0.561221">
        <ele>63.021</ele>
        <time>2021-05-05T16:12:24Z</time>
      </trkpt>
      <trkpt lat="38.307125" lon="-0.561167">
        <ele>62.865</ele>
        <time>2021-05-05T16:12:25Z</time>
      </trkpt>
      <trkpt lat="38.307156" lon="-0.561117">
        <ele>62.768</ele>
        <time>2021-05-05T16:12:26Z</time>
      </trkpt>
      <trkpt lat="38.307218" lon="-0.561021">
        <ele>62.814</ele>
        <time>2021-05-05T16:12:28Z</time>
      </trkpt>
      <trkpt lat="38.307277" lon="-0.560931">
        <ele>62.308</ele>
        <time>2021-05-05T16:12:30Z</time>
      </trkpt>
      <trkpt lat="38.307339" lon="-0.560831">
        <ele>62.393</ele>
        <time>2021-05-05T16:12:32Z</time>
      </trkpt>
      <trkpt lat="38.307371" lon="-0.560779">
        <ele>62.118</ele>
        <time>2021-05-05T16:12:33Z</time>
      </trkpt>
      <trkpt lat="38.307431" lon="-0.560671">
        <ele>62.568</ele>
        <time>2021-05-05T16:12:35Z</time>
      </trkpt>
      <trkpt lat="38.307495" lon="-0.560565">
        <ele>62.551</ele>
        <time>2021-05-05T16:12:37Z</time>
      </trkpt>
      <trkpt lat="38.307559" lon="-0.560487">
        <ele>63.641</ele>
        <time>2021-05-05T16:12:39Z</time>
      </trkpt>
      <trkpt lat="38.307608" lon="-0.560425">
        <ele>64.113</ele>
        <time>2021-05-05T16:12:41Z</time>
      </trkpt>
      <trkpt lat="38.307653" lon="-0.560385">
        <ele>63.990</ele>
        <time>2021-05-05T16:12:43Z</time>
      </trkpt>
      <trkpt lat="38.307707" lon="-0.560320">
        <ele>64.055</ele>
        <time>2021-05-05T16:12:45Z</time>
      </trkpt>
      <trkpt lat="38.307765" lon="-0.560248">
        <ele>64.683</ele>
        <time>2021-05-05T16:12:47Z</time>
      </trkpt>
      <trkpt lat="38.307803" lon="-0.560204">
        <ele>64.625</ele>
        <time>2021-05-05T16:12:49Z</time>
      </trkpt>
      <trkpt lat="38.307842" lon="-0.560154">
        <ele>64.317</ele>
        <time>2021-05-05T16:12:50Z</time>
      </trkpt>
      <trkpt lat="38.307905" lon="-0.560029">
        <ele>63.908</ele>
        <time>2021-05-05T16:12:52Z</time>
      </trkpt>
      <trkpt lat="38.307957" lon="-0.559920">
        <ele>62.935</ele>
        <time>2021-05-05T16:12:54Z</time>
      </trkpt>
      <trkpt lat="38.308025" lon="-0.559772">
        <ele>62.040</ele>
        <time>2021-05-05T16:12:56Z</time>
      </trkpt>
      <trkpt lat="38.308066" lon="-0.559695">
        <ele>61.170</ele>
        <time>2021-05-05T16:12:57Z</time>
      </trkpt>
      <trkpt lat="38.308108" lon="-0.559614">
        <ele>60.483</ele>
        <time>2021-05-05T16:12:58Z</time>
      </trkpt>
      <trkpt lat="38.308202" lon="-0.559459">
        <ele>60.863</ele>
        <time>2021-05-05T16:13:00Z</time>
      </trkpt>
      <trkpt lat="38.308251" lon="-0.559392">
        <ele>60.785</ele>
        <time>2021-05-05T16:13:01Z</time>
      </trkpt>
      <trkpt lat="38.308345" lon="-0.559259">
        <ele>60.232</ele>
        <time>2021-05-05T16:13:03Z</time>
      </trkpt>
      <trkpt lat="38.308433" lon="-0.559135">
        <ele>60.487</ele>
        <time>2021-05-05T16:13:05Z</time>
      </trkpt>
      <trkpt lat="38.308524" lon="-0.559017">
        <ele>59.675</ele>
        <time>2021-05-05T16:13:07Z</time>
      </trkpt>
      <trkpt lat="38.308561" lon="-0.558959">
        <ele>59.028</ele>
        <time>2021-05-05T16:13:08Z</time>
      </trkpt>
      <trkpt lat="38.308599" lon="-0.558903">
        <ele>58.120</ele>
        <time>2021-05-05T16:13:09Z</time>
      </trkpt>
      <trkpt lat="38.308669" lon="-0.558786">
        <ele>57.508</ele>
        <time>2021-05-05T16:13:11Z</time>
      </trkpt>
      <trkpt lat="38.308704" lon="-0.558727">
        <ele>57.474</ele>
        <time>2021-05-05T16:13:12Z</time>
      </trkpt>
      <trkpt lat="38.308736" lon="-0.558666">
        <ele>57.429</ele>
        <time>2021-05-05T16:13:13Z</time>
      </trkpt>
      <trkpt lat="38.308769" lon="-0.558613">
        <ele>57.499</ele>
        <time>2021-05-05T16:13:14Z</time>
      </trkpt>
      <trkpt lat="38.308844" lon="-0.558504">
        <ele>56.992</ele>
        <time>2021-05-05T16:13:16Z</time>
      </trkpt>
      <trkpt lat="38.308919" lon="-0.558399">
        <ele>56.682</ele>
        <time>2021-05-05T16:13:18Z</time>
      </trkpt>
      <trkpt lat="38.308993" lon="-0.558294">
        <ele>56.854</ele>
        <time>2021-05-05T16:13:20Z</time>
      </trkpt>
      <trkpt lat="38.309030" lon="-0.558241">
        <ele>57.231</ele>
        <time>2021-05-05T16:13:21Z</time>
      </trkpt>
      <trkpt lat="38.309098" lon="-0.558139">
        <ele>57.496</ele>
        <time>2021-05-05T16:13:23Z</time>
      </trkpt>
      <trkpt lat="38.309130" lon="-0.558090">
        <ele>58.087</ele>
        <time>2021-05-05T16:13:24Z</time>
      </trkpt>
      <trkpt lat="38.309164" lon="-0.558040">
        <ele>58.442</ele>
        <time>2021-05-05T16:13:25Z</time>
      </trkpt>
      <trkpt lat="38.309231" lon="-0.557935">
        <ele>57.926</ele>
        <time>2021-05-05T16:13:27Z</time>
      </trkpt>
      <trkpt lat="38.309290" lon="-0.557834">
        <ele>57.008</ele>
        <time>2021-05-05T16:13:29Z</time>
      </trkpt>
      <trkpt lat="38.309324" lon="-0.557782">
        <ele>56.975</ele>
        <time>2021-05-05T16:13:30Z</time>
      </trkpt>
      <trkpt lat="38.309395" lon="-0.557683">
        <ele>56.580</ele>
        <time>2021-05-05T16:13:32Z</time>
      </trkpt>
      <trkpt lat="38.309433" lon="-0.557631">
        <ele>56.720</ele>
        <time>2021-05-05T16:13:33Z</time>
      </trkpt>
      <trkpt lat="38.309470" lon="-0.557580">
        <ele>56.823</ele>
        <time>2021-05-05T16:13:34Z</time>
      </trkpt>
      <trkpt lat="38.309542" lon="-0.557481">
        <ele>56.943</ele>
        <time>2021-05-05T16:13:36Z</time>
      </trkpt>
      <trkpt lat="38.309611" lon="-0.557375">
        <ele>56.695</ele>
        <time>2021-05-05T16:13:38Z</time>
      </trkpt>
      <trkpt lat="38.309685" lon="-0.557267">
        <ele>56.112</ele>
        <time>2021-05-05T16:13:40Z</time>
      </trkpt>
      <trkpt lat="38.309724" lon="-0.557209">
        <ele>55.467</ele>
        <time>2021-05-05T16:13:41Z</time>
      </trkpt>
      <trkpt lat="38.309803" lon="-0.557096">
        <ele>54.989</ele>
        <time>2021-05-05T16:13:43Z</time>
      </trkpt>
      <trkpt lat="38.309842" lon="-0.557040">
        <ele>54.706</ele>
        <time>2021-05-05T16:13:44Z</time>
      </trkpt>
      <trkpt lat="38.309920" lon="-0.556942">
        <ele>53.826</ele>
        <time>2021-05-05T16:13:46Z</time>
      </trkpt>
      <trkpt lat="38.309962" lon="-0.556889">
        <ele>53.608</ele>
        <time>2021-05-05T16:13:47Z</time>
      </trkpt>
      <trkpt lat="38.310005" lon="-0.556833">
        <ele>53.785</ele>
        <time>2021-05-05T16:13:48Z</time>
      </trkpt>
      <trkpt lat="38.310050" lon="-0.556781">
        <ele>53.490</ele>
        <time>2021-05-05T16:13:49Z</time>
      </trkpt>
      <trkpt lat="38.310138" lon="-0.556676">
        <ele>52.850</ele>
        <time>2021-05-05T16:13:51Z</time>
      </trkpt>
      <trkpt lat="38.310220" lon="-0.556578">
        <ele>52.463</ele>
        <time>2021-05-05T16:13:53Z</time>
      </trkpt>
      <trkpt lat="38.310261" lon="-0.556527">
        <ele>52.473</ele>
        <time>2021-05-05T16:13:54Z</time>
      </trkpt>
      <trkpt lat="38.310332" lon="-0.556430">
        <ele>52.855</ele>
        <time>2021-05-05T16:13:56Z</time>
      </trkpt>
      <trkpt lat="38.310366" lon="-0.556386">
        <ele>53.252</ele>
        <time>2021-05-05T16:13:57Z</time>
      </trkpt>
      <trkpt lat="38.310436" lon="-0.556286">
        <ele>53.817</ele>
        <time>2021-05-05T16:13:59Z</time>
      </trkpt>
      <trkpt lat="38.310518" lon="-0.556180">
        <ele>53.742</ele>
        <time>2021-05-05T16:14:01Z</time>
      </trkpt>
      <trkpt lat="38.310605" lon="-0.556079">
        <ele>53.722</ele>
        <time>2021-05-05T16:14:03Z</time>
      </trkpt>
      <trkpt lat="38.310641" lon="-0.556034">
        <ele>53.414</ele>
        <time>2021-05-05T16:14:04Z</time>
      </trkpt>
      <trkpt lat="38.310678" lon="-0.555987">
        <ele>53.408</ele>
        <time>2021-05-05T16:14:05Z</time>
      </trkpt>
      <trkpt lat="38.310760" lon="-0.555884">
        <ele>53.251</ele>
        <time>2021-05-05T16:14:07Z</time>
      </trkpt>
      <trkpt lat="38.310841" lon="-0.555777">
        <ele>53.186</ele>
        <time>2021-05-05T16:14:09Z</time>
      </trkpt>
      <trkpt lat="38.310878" lon="-0.555729">
        <ele>52.796</ele>
        <time>2021-05-05T16:14:10Z</time>
      </trkpt>
      <trkpt lat="38.310953" lon="-0.555640">
        <ele>52.189</ele>
        <time>2021-05-05T16:14:12Z</time>
      </trkpt>
      <trkpt lat="38.311029" lon="-0.555544">
        <ele>51.419</ele>
        <time>2021-05-05T16:14:14Z</time>
      </trkpt>
      <trkpt lat="38.311065" lon="-0.555497">
        <ele>51.291</ele>
        <time>2021-05-05T16:14:15Z</time>
      </trkpt>
      <trkpt lat="38.311103" lon="-0.555447">
        <ele>51.598</ele>
        <time>2021-05-05T16:14:16Z</time>
      </trkpt>
      <trkpt lat="38.311177" lon="-0.555351">
        <ele>52.233</ele>
        <time>2021-05-05T16:14:18Z</time>
      </trkpt>
      <trkpt lat="38.311249" lon="-0.555249">
        <ele>52.537</ele>
        <time>2021-05-05T16:14:20Z</time>
      </trkpt>
      <trkpt lat="38.311287" lon="-0.555202">
        <ele>52.849</ele>
        <time>2021-05-05T16:14:21Z</time>
      </trkpt>
      <trkpt lat="38.311357" lon="-0.555134">
        <ele>51.613</ele>
        <time>2021-05-05T16:14:23Z</time>
      </trkpt>
      <trkpt lat="38.311423" lon="-0.555056">
        <ele>51.608</ele>
        <time>2021-05-05T16:14:25Z</time>
      </trkpt>
      <trkpt lat="38.311464" lon="-0.554993">
        <ele>52.220</ele>
        <time>2021-05-05T16:14:27Z</time>
      </trkpt>
      <trkpt lat="38.311522" lon="-0.554914">
        <ele>52.825</ele>
        <time>2021-05-05T16:14:29Z</time>
      </trkpt>
      <trkpt lat="38.311556" lon="-0.554876">
        <ele>53.995</ele>
        <time>2021-05-05T16:14:30Z</time>
      </trkpt>
      <trkpt lat="38.311610" lon="-0.554821">
        <ele>55.578</ele>
        <time>2021-05-05T16:14:32Z</time>
      </trkpt>
      <trkpt lat="38.311653" lon="-0.554784">
        <ele>56.428</ele>
        <time>2021-05-05T16:14:34Z</time>
      </trkpt>
      <trkpt lat="38.311695" lon="-0.554749">
        <ele>57.340</ele>
        <time>2021-05-05T16:14:36Z</time>
      </trkpt>
      <trkpt lat="38.311746" lon="-0.554668">
        <ele>57.947</ele>
        <time>2021-05-05T16:14:38Z</time>
      </trkpt>
      <trkpt lat="38.311779" lon="-0.554609">
        <ele>58.322</ele>
        <time>2021-05-05T16:14:40Z</time>
      </trkpt>
      <trkpt lat="38.311815" lon="-0.554561">
        <ele>58.616</ele>
        <time>2021-05-05T16:14:41Z</time>
      </trkpt>
      <trkpt lat="38.311853" lon="-0.554475">
        <ele>57.776</ele>
        <time>2021-05-05T16:14:42Z</time>
      </trkpt>
      <trkpt lat="38.311884" lon="-0.554420">
        <ele>56.713</ele>
        <time>2021-05-05T16:14:43Z</time>
      </trkpt>
      <trkpt lat="38.311917" lon="-0.554361">
        <ele>56.508</ele>
        <time>2021-05-05T16:14:44Z</time>
      </trkpt>
      <trkpt lat="38.311985" lon="-0.554244">
        <ele>56.158</ele>
        <time>2021-05-05T16:14:46Z</time>
      </trkpt>
      <trkpt lat="38.312023" lon="-0.554188">
        <ele>55.823</ele>
        <time>2021-05-05T16:14:47Z</time>
      </trkpt>
      <trkpt lat="38.312096" lon="-0.554073">
        <ele>54.943</ele>
        <time>2021-05-05T16:14:49Z</time>
      </trkpt>
      <trkpt lat="38.312133" lon="-0.554017">
        <ele>54.596</ele>
        <time>2021-05-05T16:14:50Z</time>
      </trkpt>
      <trkpt lat="38.312197" lon="-0.553924">
        <ele>53.926</ele>
        <time>2021-05-05T16:14:52Z</time>
      </trkpt>
      <trkpt lat="38.312255" lon="-0.553830">
        <ele>53.628</ele>
        <time>2021-05-05T16:14:54Z</time>
      </trkpt>
      <trkpt lat="38.312316" lon="-0.553736">
        <ele>53.265</ele>
        <time>2021-05-05T16:14:56Z</time>
      </trkpt>
      <trkpt lat="38.312375" lon="-0.553638">
        <ele>53.350</ele>
        <time>2021-05-05T16:14:58Z</time>
      </trkpt>
      <trkpt lat="38.312408" lon="-0.553587">
        <ele>53.251</ele>
        <time>2021-05-05T16:14:59Z</time>
      </trkpt>
      <trkpt lat="38.312464" lon="-0.553493">
        <ele>52.701</ele>
        <time>2021-05-05T16:15:01Z</time>
      </trkpt>
      <trkpt lat="38.312522" lon="-0.553399">
        <ele>52.511</ele>
        <time>2021-05-05T16:15:03Z</time>
      </trkpt>
      <trkpt lat="38.312552" lon="-0.553349">
        <ele>52.508</ele>
        <time>2021-05-05T16:15:04Z</time>
      </trkpt>
      <trkpt lat="38.312612" lon="-0.553255">
        <ele>52.832</ele>
        <time>2021-05-05T16:15:06Z</time>
      </trkpt>
      <trkpt lat="38.312643" lon="-0.553206">
        <ele>53.067</ele>
        <time>2021-05-05T16:15:07Z</time>
      </trkpt>
      <trkpt lat="38.312707" lon="-0.553107">
        <ele>53.447</ele>
        <time>2021-05-05T16:15:09Z</time>
      </trkpt>
      <trkpt lat="38.312740" lon="-0.553054">
        <ele>53.360</ele>
        <time>2021-05-05T16:15:10Z</time>
      </trkpt>
      <trkpt lat="38.312776" lon="-0.553000">
        <ele>53.650</ele>
        <time>2021-05-05T16:15:11Z</time>
      </trkpt>
      <trkpt lat="38.312850" lon="-0.552889">
        <ele>53.532</ele>
        <time>2021-05-05T16:15:13Z</time>
      </trkpt>
      <trkpt lat="38.312886" lon="-0.552834">
        <ele>53.379</ele>
        <time>2021-05-05T16:15:14Z</time>
      </trkpt>
      <trkpt lat="38.312921" lon="-0.552780">
        <ele>53.244</ele>
        <time>2021-05-05T16:15:15Z</time>
      </trkpt>
      <trkpt lat="38.312987" lon="-0.552678">
        <ele>53.814</ele>
        <time>2021-05-05T16:15:17Z</time>
      </trkpt>
      <trkpt lat="38.313020" lon="-0.552629">
        <ele>54.354</ele>
        <time>2021-05-05T16:15:18Z</time>
      </trkpt>
      <trkpt lat="38.313052" lon="-0.552582">
        <ele>54.409</ele>
        <time>2021-05-05T16:15:19Z</time>
      </trkpt>
      <trkpt lat="38.313113" lon="-0.552489">
        <ele>53.408</ele>
        <time>2021-05-05T16:15:21Z</time>
      </trkpt>
      <trkpt lat="38.313171" lon="-0.552398">
        <ele>53.738</ele>
        <time>2021-05-05T16:15:23Z</time>
      </trkpt>
      <trkpt lat="38.313203" lon="-0.552351">
        <ele>53.443</ele>
        <time>2021-05-05T16:15:24Z</time>
      </trkpt>
      <trkpt lat="38.313264" lon="-0.552258">
        <ele>53.573</ele>
        <time>2021-05-05T16:15:26Z</time>
      </trkpt>
      <trkpt lat="38.313320" lon="-0.552173">
        <ele>53.486</ele>
        <time>2021-05-05T16:15:28Z</time>
      </trkpt>
      <trkpt lat="38.313376" lon="-0.552085">
        <ele>52.496</ele>
        <time>2021-05-05T16:15:30Z</time>
      </trkpt>
      <trkpt lat="38.313438" lon="-0.551986">
        <ele>51.848</ele>
        <time>2021-05-05T16:15:32Z</time>
      </trkpt>
      <trkpt lat="38.313471" lon="-0.551933">
        <ele>51.335</ele>
        <time>2021-05-05T16:15:33Z</time>
      </trkpt>
      <trkpt lat="38.313535" lon="-0.551825">
        <ele>51.180</ele>
        <time>2021-05-05T16:15:35Z</time>
      </trkpt>
      <trkpt lat="38.313570" lon="-0.551769">
        <ele>51.138</ele>
        <time>2021-05-05T16:15:36Z</time>
      </trkpt>
      <trkpt lat="38.313600" lon="-0.551715">
        <ele>50.970</ele>
        <time>2021-05-05T16:15:37Z</time>
      </trkpt>
      <trkpt lat="38.313669" lon="-0.551599">
        <ele>51.517</ele>
        <time>2021-05-05T16:15:39Z</time>
      </trkpt>
      <trkpt lat="38.313708" lon="-0.551540">
        <ele>51.308</ele>
        <time>2021-05-05T16:15:40Z</time>
      </trkpt>
      <trkpt lat="38.313774" lon="-0.551422">
        <ele>52.050</ele>
        <time>2021-05-05T16:15:42Z</time>
      </trkpt>
      <trkpt lat="38.313807" lon="-0.551364">
        <ele>52.315</ele>
        <time>2021-05-05T16:15:43Z</time>
      </trkpt>
      <trkpt lat="38.313843" lon="-0.551302">
        <ele>52.485</ele>
        <time>2021-05-05T16:15:44Z</time>
      </trkpt>
      <trkpt lat="38.313907" lon="-0.551176">
        <ele>52.788</ele>
        <time>2021-05-05T16:15:46Z</time>
      </trkpt>
      <trkpt lat="38.313943" lon="-0.551115">
        <ele>53.098</ele>
        <time>2021-05-05T16:15:47Z</time>
      </trkpt>
      <trkpt lat="38.313973" lon="-0.551055">
        <ele>53.150</ele>
        <time>2021-05-05T16:15:48Z</time>
      </trkpt>
      <trkpt lat="38.314027" lon="-0.550941">
        <ele>52.877</ele>
        <time>2021-05-05T16:15:50Z</time>
      </trkpt>
      <trkpt lat="38.314077" lon="-0.550835">
        <ele>52.912</ele>
        <time>2021-05-05T16:15:52Z</time>
      </trkpt>
      <trkpt lat="38.314126" lon="-0.550734">
        <ele>52.681</ele>
        <time>2021-05-05T16:15:54Z</time>
      </trkpt>
      <trkpt lat="38.314180" lon="-0.550629">
        <ele>52.661</ele>
        <time>2021-05-05T16:15:56Z</time>
      </trkpt>
      <trkpt lat="38.314208" lon="-0.550575">
        <ele>52.617</ele>
        <time>2021-05-05T16:15:57Z</time>
      </trkpt>
      <trkpt lat="38.314261" lon="-0.550464">
        <ele>53.108</ele>
        <time>2021-05-05T16:15:59Z</time>
      </trkpt>
      <trkpt lat="38.314287" lon="-0.550411">
        <ele>53.685</ele>
        <time>2021-05-05T16:16:00Z</time>
      </trkpt>
      <trkpt lat="38.314345" lon="-0.550314">
        <ele>53.220</ele>
        <time>2021-05-05T16:16:02Z</time>
      </trkpt>
      <trkpt lat="38.314395" lon="-0.550207">
        <ele>53.540</ele>
        <time>2021-05-05T16:16:04Z</time>
      </trkpt>
      <trkpt lat="38.314447" lon="-0.550105">
        <ele>53.243</ele>
        <time>2021-05-05T16:16:06Z</time>
      </trkpt>
      <trkpt lat="38.314477" lon="-0.550056">
        <ele>53.093</ele>
        <time>2021-05-05T16:16:07Z</time>
      </trkpt>
      <trkpt lat="38.314524" lon="-0.549956">
        <ele>51.625</ele>
        <time>2021-05-05T16:16:09Z</time>
      </trkpt>
      <trkpt lat="38.314552" lon="-0.549877">
        <ele>50.662</ele>
        <time>2021-05-05T16:16:11Z</time>
      </trkpt>
      <trkpt lat="38.314589" lon="-0.549767">
        <ele>50.727</ele>
        <time>2021-05-05T16:16:13Z</time>
      </trkpt>
      <trkpt lat="38.314614" lon="-0.549715">
        <ele>50.929</ele>
        <time>2021-05-05T16:16:14Z</time>
      </trkpt>
      <trkpt lat="38.314646" lon="-0.549652">
        <ele>51.400</ele>
        <time>2021-05-05T16:16:16Z</time>
      </trkpt>
      <trkpt lat="38.314678" lon="-0.549593">
        <ele>52.320</ele>
        <time>2021-05-05T16:16:17Z</time>
      </trkpt>
      <trkpt lat="38.314721" lon="-0.549509">
        <ele>52.308</ele>
        <time>2021-05-05T16:16:19Z</time>
      </trkpt>
      <trkpt lat="38.314764" lon="-0.549420">
        <ele>50.949</ele>
        <time>2021-05-05T16:16:21Z</time>
      </trkpt>
      <trkpt lat="38.314788" lon="-0.549366">
        <ele>49.844</ele>
        <time>2021-05-05T16:16:23Z</time>
      </trkpt>
      <trkpt lat="38.314824" lon="-0.549296">
        <ele>49.694</ele>
        <time>2021-05-05T16:16:24Z</time>
      </trkpt>
      <trkpt lat="38.314857" lon="-0.549223">
        <ele>49.137</ele>
        <time>2021-05-05T16:16:26Z</time>
      </trkpt>
      <trkpt lat="38.314878" lon="-0.549170">
        <ele>49.037</ele>
        <time>2021-05-05T16:16:27Z</time>
      </trkpt>
      <trkpt lat="38.314928" lon="-0.549046">
        <ele>48.669</ele>
        <time>2021-05-05T16:16:29Z</time>
      </trkpt>
      <trkpt lat="38.314971" lon="-0.548919">
        <ele>48.646</ele>
        <time>2021-05-05T16:16:31Z</time>
      </trkpt>
      <trkpt lat="38.315021" lon="-0.548791">
        <ele>49.351</ele>
        <time>2021-05-05T16:16:33Z</time>
      </trkpt>
      <trkpt lat="38.315046" lon="-0.548730">
        <ele>50.114</ele>
        <time>2021-05-05T16:16:34Z</time>
      </trkpt>
      <trkpt lat="38.315096" lon="-0.548605">
        <ele>50.854</ele>
        <time>2021-05-05T16:16:36Z</time>
      </trkpt>
      <trkpt lat="38.315140" lon="-0.548494">
        <ele>51.009</ele>
        <time>2021-05-05T16:16:38Z</time>
      </trkpt>
      <trkpt lat="38.315162" lon="-0.548439">
        <ele>51.208</ele>
        <time>2021-05-05T16:16:39Z</time>
      </trkpt>
      <trkpt lat="38.315183" lon="-0.548386">
        <ele>51.788</ele>
        <time>2021-05-05T16:16:40Z</time>
      </trkpt>
      <trkpt lat="38.315237" lon="-0.548302">
        <ele>52.193</ele>
        <time>2021-05-05T16:16:42Z</time>
      </trkpt>
      <trkpt lat="38.315294" lon="-0.548229">
        <ele>53.193</ele>
        <time>2021-05-05T16:16:44Z</time>
      </trkpt>
      <trkpt lat="38.315329" lon="-0.548134">
        <ele>53.336</ele>
        <time>2021-05-05T16:16:46Z</time>
      </trkpt>
      <trkpt lat="38.315352" lon="-0.548065">
        <ele>53.566</ele>
        <time>2021-05-05T16:16:48Z</time>
      </trkpt>
      <trkpt lat="38.315377" lon="-0.547979">
        <ele>53.388</ele>
        <time>2021-05-05T16:16:49Z</time>
      </trkpt>
      <trkpt lat="38.315423" lon="-0.547869">
        <ele>53.365</ele>
        <time>2021-05-05T16:16:51Z</time>
      </trkpt>
      <trkpt lat="38.315468" lon="-0.547785">
        <ele>52.960</ele>
        <time>2021-05-05T16:16:53Z</time>
      </trkpt>
      <trkpt lat="38.315485" lon="-0.547715">
        <ele>53.198</ele>
        <time>2021-05-05T16:16:55Z</time>
      </trkpt>
      <trkpt lat="38.315492" lon="-0.547642">
        <ele>53.115</ele>
        <time>2021-05-05T16:16:56Z</time>
      </trkpt>
      <trkpt lat="38.315519" lon="-0.547537">
        <ele>52.626</ele>
        <time>2021-05-05T16:16:58Z</time>
      </trkpt>
      <trkpt lat="38.315536" lon="-0.547476">
        <ele>52.608</ele>
        <time>2021-05-05T16:17:00Z</time>
      </trkpt>
      <trkpt lat="38.315569" lon="-0.547366">
        <ele>51.936</ele>
        <time>2021-05-05T16:17:01Z</time>
      </trkpt>
      <trkpt lat="38.315587" lon="-0.547310">
        <ele>51.361</ele>
        <time>2021-05-05T16:17:02Z</time>
      </trkpt>
      <trkpt lat="38.315628" lon="-0.547197">
        <ele>51.031</ele>
        <time>2021-05-05T16:17:04Z</time>
      </trkpt>
      <trkpt lat="38.315648" lon="-0.547141">
        <ele>50.824</ele>
        <time>2021-05-05T16:17:05Z</time>
      </trkpt>
      <trkpt lat="38.315667" lon="-0.547088">
        <ele>50.944</ele>
        <time>2021-05-05T16:17:06Z</time>
      </trkpt>
      <trkpt lat="38.315691" lon="-0.547034">
        <ele>50.876</ele>
        <time>2021-05-05T16:17:07Z</time>
      </trkpt>
      <trkpt lat="38.315736" lon="-0.546921">
        <ele>50.623</ele>
        <time>2021-05-05T16:17:09Z</time>
      </trkpt>
      <trkpt lat="38.315786" lon="-0.546804">
        <ele>49.858</ele>
        <time>2021-05-05T16:17:11Z</time>
      </trkpt>
      <trkpt lat="38.315810" lon="-0.546742">
        <ele>49.255</ele>
        <time>2021-05-05T16:17:12Z</time>
      </trkpt>
      <trkpt lat="38.315857" lon="-0.546630">
        <ele>48.807</ele>
        <time>2021-05-05T16:17:14Z</time>
      </trkpt>
      <trkpt lat="38.315882" lon="-0.546578">
        <ele>48.217</ele>
        <time>2021-05-05T16:17:15Z</time>
      </trkpt>
      <trkpt lat="38.315927" lon="-0.546475">
        <ele>47.508</ele>
        <time>2021-05-05T16:17:17Z</time>
      </trkpt>
      <trkpt lat="38.315951" lon="-0.546422">
        <ele>46.942</ele>
        <time>2021-05-05T16:17:18Z</time>
      </trkpt>
      <trkpt lat="38.315975" lon="-0.546368">
        <ele>47.027</ele>
        <time>2021-05-05T16:17:19Z</time>
      </trkpt>
      <trkpt lat="38.316025" lon="-0.546258">
        <ele>47.117</ele>
        <time>2021-05-05T16:17:21Z</time>
      </trkpt>
      <trkpt lat="38.316052" lon="-0.546203">
        <ele>47.020</ele>
        <time>2021-05-05T16:17:22Z</time>
      </trkpt>
      <trkpt lat="38.316113" lon="-0.546102">
        <ele>46.770</ele>
        <time>2021-05-05T16:17:24Z</time>
      </trkpt>
      <trkpt lat="38.316174" lon="-0.546000">
        <ele>46.292</ele>
        <time>2021-05-05T16:17:26Z</time>
      </trkpt>
      <trkpt lat="38.316206" lon="-0.545949">
        <ele>45.999</ele>
        <time>2021-05-05T16:17:27Z</time>
      </trkpt>
      <trkpt lat="38.316233" lon="-0.545898">
        <ele>46.054</ele>
        <time>2021-05-05T16:17:28Z</time>
      </trkpt>
      <trkpt lat="38.316288" lon="-0.545791">
        <ele>46.444</ele>
        <time>2021-05-05T16:17:30Z</time>
      </trkpt>
      <trkpt lat="38.316316" lon="-0.545738">
        <ele>46.805</ele>
        <time>2021-05-05T16:17:31Z</time>
      </trkpt>
      <trkpt lat="38.316377" lon="-0.545631">
        <ele>47.315</ele>
        <time>2021-05-05T16:17:33Z</time>
      </trkpt>
      <trkpt lat="38.316433" lon="-0.545533">
        <ele>48.308</ele>
        <time>2021-05-05T16:17:35Z</time>
      </trkpt>
      <trkpt lat="38.316457" lon="-0.545483">
        <ele>48.691</ele>
        <time>2021-05-05T16:17:36Z</time>
      </trkpt>
      <trkpt lat="38.316492" lon="-0.545399">
        <ele>48.736</ele>
        <time>2021-05-05T16:17:38Z</time>
      </trkpt>
      <trkpt lat="38.316512" lon="-0.545347">
        <ele>48.926</ele>
        <time>2021-05-05T16:17:39Z</time>
      </trkpt>
      <trkpt lat="38.316542" lon="-0.545251">
        <ele>49.239</ele>
        <time>2021-05-05T16:17:41Z</time>
      </trkpt>
      <trkpt lat="38.316564" lon="-0.545155">
        <ele>49.769</ele>
        <time>2021-05-05T16:17:43Z</time>
      </trkpt>
      <trkpt lat="38.316580" lon="-0.545075">
        <ele>50.451</ele>
        <time>2021-05-05T16:17:45Z</time>
      </trkpt>
      <trkpt lat="38.316599" lon="-0.545023">
        <ele>49.498</ele>
        <time>2021-05-05T16:17:46Z</time>
      </trkpt>
      <trkpt lat="38.316601" lon="-0.544935">
        <ele>49.053</ele>
        <time>2021-05-05T16:17:48Z</time>
      </trkpt>
      <trkpt lat="38.316587" lon="-0.544865">
        <ele>48.781</ele>
        <time>2021-05-05T16:17:50Z</time>
      </trkpt>
      <trkpt lat="38.316582" lon="-0.544806">
        <ele>48.461</ele>
        <time>2021-05-05T16:17:51Z</time>
      </trkpt>
      <trkpt lat="38.316599" lon="-0.544741">
        <ele>48.317</ele>
        <time>2021-05-05T16:17:53Z</time>
      </trkpt>
      <trkpt lat="38.316634" lon="-0.544673">
        <ele>48.008</ele>
        <time>2021-05-05T16:17:56Z</time>
      </trkpt>
      <trkpt lat="38.316627" lon="-0.544607">
        <ele>47.395</ele>
        <time>2021-05-05T16:17:59Z</time>
      </trkpt>
      <trkpt lat="38.316613" lon="-0.544548">
        <ele>46.770</ele>
        <time>2021-05-05T16:18:01Z</time>
      </trkpt>
      <trkpt lat="38.316605" lon="-0.544462">
        <ele>46.370</ele>
        <time>2021-05-05T16:18:03Z</time>
      </trkpt>
      <trkpt lat="38.316604" lon="-0.544374">
        <ele>46.073</ele>
        <time>2021-05-05T16:18:05Z</time>
      </trkpt>
      <trkpt lat="38.316618" lon="-0.544272">
        <ele>46.383</ele>
        <time>2021-05-05T16:18:07Z</time>
      </trkpt>
      <trkpt lat="38.316641" lon="-0.544183">
        <ele>47.345</ele>
        <time>2021-05-05T16:18:09Z</time>
      </trkpt>
      <trkpt lat="38.316671" lon="-0.544092">
        <ele>47.532</ele>
        <time>2021-05-05T16:18:11Z</time>
      </trkpt>
      <trkpt lat="38.316710" lon="-0.544011">
        <ele>47.327</ele>
        <time>2021-05-05T16:18:13Z</time>
      </trkpt>
      <trkpt lat="38.316736" lon="-0.543963">
        <ele>47.784</ele>
        <time>2021-05-05T16:18:14Z</time>
      </trkpt>
      <trkpt lat="38.316768" lon="-0.543915">
        <ele>47.507</ele>
        <time>2021-05-05T16:18:15Z</time>
      </trkpt>
      <trkpt lat="38.316812" lon="-0.543852">
        <ele>47.017</ele>
        <time>2021-05-05T16:18:17Z</time>
      </trkpt>
      <trkpt lat="38.316859" lon="-0.543802">
        <ele>46.808</ele>
        <time>2021-05-05T16:18:18Z</time>
      </trkpt>
      <trkpt lat="38.316915" lon="-0.543753">
        <ele>47.055</ele>
        <time>2021-05-05T16:18:20Z</time>
      </trkpt>
      <trkpt lat="38.316980" lon="-0.543702">
        <ele>47.410</ele>
        <time>2021-05-05T16:18:21Z</time>
      </trkpt>
      <trkpt lat="38.317061" lon="-0.543655">
        <ele>47.050</ele>
        <time>2021-05-05T16:18:23Z</time>
      </trkpt>
      <trkpt lat="38.317151" lon="-0.543630">
        <ele>46.953</ele>
        <time>2021-05-05T16:18:25Z</time>
      </trkpt>
      <trkpt lat="38.317232" lon="-0.543606">
        <ele>47.253</ele>
        <time>2021-05-05T16:18:27Z</time>
      </trkpt>
      <trkpt lat="38.317286" lon="-0.543567">
        <ele>47.475</ele>
        <time>2021-05-05T16:18:29Z</time>
      </trkpt>
      <trkpt lat="38.317352" lon="-0.543521">
        <ele>47.452</ele>
        <time>2021-05-05T16:18:30Z</time>
      </trkpt>
      <trkpt lat="38.317394" lon="-0.543487">
        <ele>47.857</ele>
        <time>2021-05-05T16:18:33Z</time>
      </trkpt>
      <trkpt lat="38.317483" lon="-0.543383">
        <ele>47.844</ele>
        <time>2021-05-05T16:18:34Z</time>
      </trkpt>
      <trkpt lat="38.317552" lon="-0.543278">
        <ele>49.005</ele>
        <time>2021-05-05T16:18:36Z</time>
      </trkpt>
      <trkpt lat="38.317583" lon="-0.543222">
        <ele>48.815</ele>
        <time>2021-05-05T16:18:37Z</time>
      </trkpt>
      <trkpt lat="38.317648" lon="-0.543121">
        <ele>49.208</ele>
        <time>2021-05-05T16:18:39Z</time>
      </trkpt>
      <trkpt lat="38.317682" lon="-0.543073">
        <ele>50.061</ele>
        <time>2021-05-05T16:18:40Z</time>
      </trkpt>
      <trkpt lat="38.317742" lon="-0.542996">
        <ele>50.086</ele>
        <time>2021-05-05T16:18:42Z</time>
      </trkpt>
      <trkpt lat="38.317800" lon="-0.542917">
        <ele>49.726</ele>
        <time>2021-05-05T16:18:44Z</time>
      </trkpt>
      <trkpt lat="38.317851" lon="-0.542870">
        <ele>49.789</ele>
        <time>2021-05-05T16:18:47Z</time>
      </trkpt>
      <trkpt lat="38.317916" lon="-0.542763">
        <ele>49.569</ele>
        <time>2021-05-05T16:18:48Z</time>
      </trkpt>
      <trkpt lat="38.317950" lon="-0.542718">
        <ele>49.691</ele>
        <time>2021-05-05T16:18:49Z</time>
      </trkpt>
      <trkpt lat="38.318012" lon="-0.542625">
        <ele>49.678</ele>
        <time>2021-05-05T16:18:51Z</time>
      </trkpt>
      <trkpt lat="38.318073" lon="-0.542542">
        <ele>49.863</ele>
        <time>2021-05-05T16:18:53Z</time>
      </trkpt>
      <trkpt lat="38.318120" lon="-0.542461">
        <ele>49.557</ele>
        <time>2021-05-05T16:18:55Z</time>
      </trkpt>
      <trkpt lat="38.318187" lon="-0.542380">
        <ele>49.400</ele>
        <time>2021-05-05T16:18:57Z</time>
      </trkpt>
      <trkpt lat="38.318249" lon="-0.542302">
        <ele>49.520</ele>
        <time>2021-05-05T16:18:59Z</time>
      </trkpt>
      <trkpt lat="38.318284" lon="-0.542258">
        <ele>49.608</ele>
        <time>2021-05-05T16:19:00Z</time>
      </trkpt>
      <trkpt lat="38.318363" lon="-0.542163">
        <ele>49.082</ele>
        <time>2021-05-05T16:19:02Z</time>
      </trkpt>
      <trkpt lat="38.318433" lon="-0.542077">
        <ele>49.067</ele>
        <time>2021-05-05T16:19:04Z</time>
      </trkpt>
      <trkpt lat="38.318468" lon="-0.542035">
        <ele>49.157</ele>
        <time>2021-05-05T16:19:05Z</time>
      </trkpt>
      <trkpt lat="38.318542" lon="-0.541944">
        <ele>49.480</ele>
        <time>2021-05-05T16:19:07Z</time>
      </trkpt>
      <trkpt lat="38.318617" lon="-0.541852">
        <ele>49.510</ele>
        <time>2021-05-05T16:19:09Z</time>
      </trkpt>
      <trkpt lat="38.318654" lon="-0.541809">
        <ele>49.642</ele>
        <time>2021-05-05T16:19:10Z</time>
      </trkpt>
      <trkpt lat="38.318733" lon="-0.541726">
        <ele>49.919</ele>
        <time>2021-05-05T16:19:12Z</time>
      </trkpt>
      <trkpt lat="38.318804" lon="-0.541650">
        <ele>50.314</ele>
        <time>2021-05-05T16:19:14Z</time>
      </trkpt>
      <trkpt lat="38.318863" lon="-0.541595">
        <ele>51.484</ele>
        <time>2021-05-05T16:19:16Z</time>
      </trkpt>
      <trkpt lat="38.318909" lon="-0.541571">
        <ele>51.007</ele>
        <time>2021-05-05T16:19:17Z</time>
      </trkpt>
      <trkpt lat="38.318952" lon="-0.541551">
        <ele>50.917</ele>
        <time>2021-05-05T16:19:18Z</time>
      </trkpt>
      <trkpt lat="38.319012" lon="-0.541519">
        <ele>51.508</ele>
        <time>2021-05-05T16:19:20Z</time>
      </trkpt>
      <trkpt lat="38.319065" lon="-0.541485">
        <ele>51.955</ele>
        <time>2021-05-05T16:19:22Z</time>
      </trkpt>
      <trkpt lat="38.319110" lon="-0.541454">
        <ele>52.890</ele>
        <time>2021-05-05T16:19:24Z</time>
      </trkpt>
      <trkpt lat="38.319162" lon="-0.541393">
        <ele>54.480</ele>
        <time>2021-05-05T16:19:26Z</time>
      </trkpt>
      <trkpt lat="38.319205" lon="-0.541344">
        <ele>54.983</ele>
        <time>2021-05-05T16:19:28Z</time>
      </trkpt>
      <trkpt lat="38.319252" lon="-0.541293">
        <ele>56.113</ele>
        <time>2021-05-05T16:19:30Z</time>
      </trkpt>
      <trkpt lat="38.319302" lon="-0.541244">
        <ele>55.965</ele>
        <time>2021-05-05T16:19:32Z</time>
      </trkpt>
      <trkpt lat="38.319353" lon="-0.541187">
        <ele>55.222</ele>
        <time>2021-05-05T16:19:34Z</time>
      </trkpt>
      <trkpt lat="38.319410" lon="-0.541126">
        <ele>54.457</ele>
        <time>2021-05-05T16:19:36Z</time>
      </trkpt>
      <trkpt lat="38.319451" lon="-0.541065">
        <ele>53.914</ele>
        <time>2021-05-05T16:19:38Z</time>
      </trkpt>
      <trkpt lat="38.319493" lon="-0.540988">
        <ele>53.554</ele>
        <time>2021-05-05T16:19:39Z</time>
      </trkpt>
      <trkpt lat="38.319561" lon="-0.540909">
        <ele>52.609</ele>
        <time>2021-05-05T16:19:41Z</time>
      </trkpt>
      <trkpt lat="38.319598" lon="-0.540870">
        <ele>52.308</ele>
        <time>2021-05-05T16:19:42Z</time>
      </trkpt>
      <trkpt lat="38.319681" lon="-0.540792">
        <ele>51.528</ele>
        <time>2021-05-05T16:19:44Z</time>
      </trkpt>
      <trkpt lat="38.319723" lon="-0.540755">
        <ele>50.483</ele>
        <time>2021-05-05T16:19:45Z</time>
      </trkpt>
      <trkpt lat="38.319766" lon="-0.540722">
        <ele>50.293</ele>
        <time>2021-05-05T16:19:46Z</time>
      </trkpt>
      <trkpt lat="38.319848" lon="-0.540644">
        <ele>50.256</ele>
        <time>2021-05-05T16:19:48Z</time>
      </trkpt>
      <trkpt lat="38.319921" lon="-0.540584">
        <ele>50.026</ele>
        <time>2021-05-05T16:19:50Z</time>
      </trkpt>
      <trkpt lat="38.319996" lon="-0.540523">
        <ele>49.398</ele>
        <time>2021-05-05T16:19:52Z</time>
      </trkpt>
      <trkpt lat="38.320067" lon="-0.540463">
        <ele>48.295</ele>
        <time>2021-05-05T16:19:54Z</time>
      </trkpt>
      <trkpt lat="38.320149" lon="-0.540396">
        <ele>48.130</ele>
        <time>2021-05-05T16:19:56Z</time>
      </trkpt>
      <trkpt lat="38.320238" lon="-0.540326">
        <ele>48.614</ele>
        <time>2021-05-05T16:19:58Z</time>
      </trkpt>
      <trkpt lat="38.320325" lon="-0.540246">
        <ele>49.254</ele>
        <time>2021-05-05T16:20:00Z</time>
      </trkpt>
      <trkpt lat="38.320364" lon="-0.540206">
        <ele>49.709</ele>
        <time>2021-05-05T16:20:01Z</time>
      </trkpt>
      <trkpt lat="38.320442" lon="-0.540135">
        <ele>49.608</ele>
        <time>2021-05-05T16:20:03Z</time>
      </trkpt>
      <trkpt lat="38.320483" lon="-0.540101">
        <ele>49.628</ele>
        <time>2021-05-05T16:20:04Z</time>
      </trkpt>
      <trkpt lat="38.320525" lon="-0.540067">
        <ele>49.343</ele>
        <time>2021-05-05T16:20:05Z</time>
      </trkpt>
      <trkpt lat="38.320608" lon="-0.540006">
        <ele>48.093</ele>
        <time>2021-05-05T16:20:07Z</time>
      </trkpt>
      <trkpt lat="38.320652" lon="-0.539977">
        <ele>47.386</ele>
        <time>2021-05-05T16:20:08Z</time>
      </trkpt>
      <trkpt lat="38.320737" lon="-0.539922">
        <ele>46.696</ele>
        <time>2021-05-05T16:20:10Z</time>
      </trkpt>
      <trkpt lat="38.320782" lon="-0.539891">
        <ele>46.018</ele>
        <time>2021-05-05T16:20:11Z</time>
      </trkpt>
      <trkpt lat="38.320829" lon="-0.539855">
        <ele>45.415</ele>
        <time>2021-05-05T16:20:12Z</time>
      </trkpt>
      <trkpt lat="38.320919" lon="-0.539790">
        <ele>45.360</ele>
        <time>2021-05-05T16:20:14Z</time>
      </trkpt>
      <trkpt lat="38.320962" lon="-0.539758">
        <ele>45.177</ele>
        <time>2021-05-05T16:20:15Z</time>
      </trkpt>
      <trkpt lat="38.321050" lon="-0.539699">
        <ele>44.861</ele>
        <time>2021-05-05T16:20:17Z</time>
      </trkpt>
      <trkpt lat="38.321138" lon="-0.539635">
        <ele>44.327</ele>
        <time>2021-05-05T16:20:19Z</time>
      </trkpt>
      <trkpt lat="38.321182" lon="-0.539602">
        <ele>44.308</ele>
        <time>2021-05-05T16:20:20Z</time>
      </trkpt>
      <trkpt lat="38.321224" lon="-0.539572">
        <ele>44.674</ele>
        <time>2021-05-05T16:20:21Z</time>
      </trkpt>
      <trkpt lat="38.321283" lon="-0.539529">
        <ele>44.589</ele>
        <time>2021-05-05T16:20:23Z</time>
      </trkpt>
      <trkpt lat="38.321368" lon="-0.539477">
        <ele>43.979</ele>
        <time>2021-05-05T16:20:25Z</time>
      </trkpt>
      <trkpt lat="38.321441" lon="-0.539426">
        <ele>44.052</ele>
        <time>2021-05-05T16:20:27Z</time>
      </trkpt>
      <trkpt lat="38.321506" lon="-0.539386">
        <ele>44.062</ele>
        <time>2021-05-05T16:20:29Z</time>
      </trkpt>
      <trkpt lat="38.321566" lon="-0.539349">
        <ele>44.644</ele>
        <time>2021-05-05T16:20:31Z</time>
      </trkpt>
      <trkpt lat="38.321608" lon="-0.539325">
        <ele>44.621</ele>
        <time>2021-05-05T16:20:32Z</time>
      </trkpt>
      <trkpt lat="38.321650" lon="-0.539303">
        <ele>45.286</ele>
        <time>2021-05-05T16:20:34Z</time>
      </trkpt>
      <trkpt lat="38.321714" lon="-0.539272">
        <ele>46.048</ele>
        <time>2021-05-05T16:20:36Z</time>
      </trkpt>
      <trkpt lat="38.321761" lon="-0.539242">
        <ele>46.761</ele>
        <time>2021-05-05T16:20:38Z</time>
      </trkpt>
      <trkpt lat="38.321819" lon="-0.539218">
        <ele>47.017</ele>
        <time>2021-05-05T16:20:40Z</time>
      </trkpt>
      <trkpt lat="38.321871" lon="-0.539242">
        <ele>47.008</ele>
        <time>2021-05-05T16:20:43Z</time>
      </trkpt>
      <trkpt lat="38.321862" lon="-0.539313">
        <ele>47.391</ele>
        <time>2021-05-05T16:20:46Z</time>
      </trkpt>
      <trkpt lat="38.321856" lon="-0.539381">
        <ele>48.096</ele>
        <time>2021-05-05T16:20:50Z</time>
      </trkpt>
      <trkpt lat="38.321873" lon="-0.539438">
        <ele>48.346</ele>
        <time>2021-05-05T16:20:52Z</time>
      </trkpt>
      <trkpt lat="38.321902" lon="-0.539511">
        <ele>48.319</ele>
        <time>2021-05-05T16:20:54Z</time>
      </trkpt>
      <trkpt lat="38.321934" lon="-0.539598">
        <ele>48.629</ele>
        <time>2021-05-05T16:20:56Z</time>
      </trkpt>
      <trkpt lat="38.321975" lon="-0.539692">
        <ele>48.581</ele>
        <time>2021-05-05T16:20:58Z</time>
      </trkpt>
      <trkpt lat="38.322028" lon="-0.539771">
        <ele>48.838</ele>
        <time>2021-05-05T16:21:00Z</time>
      </trkpt>
      <trkpt lat="38.322078" lon="-0.539824">
        <ele>48.873</ele>
        <time>2021-05-05T16:21:02Z</time>
      </trkpt>
      <trkpt lat="38.322131" lon="-0.539865">
        <ele>49.175</ele>
        <time>2021-05-05T16:21:03Z</time>
      </trkpt>
      <trkpt lat="38.322207" lon="-0.539911">
        <ele>49.028</ele>
        <time>2021-05-05T16:21:05Z</time>
      </trkpt>
      <trkpt lat="38.322258" lon="-0.539935">
        <ele>49.020</ele>
        <time>2021-05-05T16:21:06Z</time>
      </trkpt>
      <trkpt lat="38.322319" lon="-0.539953">
        <ele>49.108</ele>
        <time>2021-05-05T16:21:07Z</time>
      </trkpt>
      <trkpt lat="38.322371" lon="-0.539967">
        <ele>49.034</ele>
        <time>2021-05-05T16:21:08Z</time>
      </trkpt>
      <trkpt lat="38.322442" lon="-0.539994">
        <ele>49.469</ele>
        <time>2021-05-05T16:21:10Z</time>
      </trkpt>
      <trkpt lat="38.322514" lon="-0.539982">
        <ele>49.429</ele>
        <time>2021-05-05T16:21:11Z</time>
      </trkpt>
      <trkpt lat="38.322623" lon="-0.539963">
        <ele>49.322</ele>
        <time>2021-05-05T16:21:13Z</time>
      </trkpt>
      <trkpt lat="38.322680" lon="-0.539941">
        <ele>49.062</ele>
        <time>2021-05-05T16:21:14Z</time>
      </trkpt>
      <trkpt lat="38.322729" lon="-0.539917">
        <ele>48.944</ele>
        <time>2021-05-05T16:21:15Z</time>
      </trkpt>
      <trkpt lat="38.322815" lon="-0.539864">
        <ele>48.871</ele>
        <time>2021-05-05T16:21:17Z</time>
      </trkpt>
      <trkpt lat="38.322881" lon="-0.539817">
        <ele>49.386</ele>
        <time>2021-05-05T16:21:19Z</time>
      </trkpt>
      <trkpt lat="38.322919" lon="-0.539764">
        <ele>49.511</ele>
        <time>2021-05-05T16:21:21Z</time>
      </trkpt>
      <trkpt lat="38.322958" lon="-0.539731">
        <ele>49.321</ele>
        <time>2021-05-05T16:21:22Z</time>
      </trkpt>
      <trkpt lat="38.323003" lon="-0.539669">
        <ele>49.303</ele>
        <time>2021-05-05T16:21:24Z</time>
      </trkpt>
      <trkpt lat="38.323040" lon="-0.539607">
        <ele>49.308</ele>
        <time>2021-05-05T16:21:25Z</time>
      </trkpt>
      <trkpt lat="38.323073" lon="-0.539519">
        <ele>48.688</ele>
        <time>2021-05-05T16:21:27Z</time>
      </trkpt>
      <trkpt lat="38.323100" lon="-0.539431">
        <ele>47.963</ele>
        <time>2021-05-05T16:21:29Z</time>
      </trkpt>
      <trkpt lat="38.323124" lon="-0.539372">
        <ele>47.883</ele>
        <time>2021-05-05T16:21:30Z</time>
      </trkpt>
      <trkpt lat="38.323149" lon="-0.539309">
        <ele>47.376</ele>
        <time>2021-05-05T16:21:32Z</time>
      </trkpt>
      <trkpt lat="38.323188" lon="-0.539256">
        <ele>47.666</ele>
        <time>2021-05-05T16:21:33Z</time>
      </trkpt>
      <trkpt lat="38.323232" lon="-0.539220">
        <ele>47.978</ele>
        <time>2021-05-05T16:21:35Z</time>
      </trkpt>
      <trkpt lat="38.323274" lon="-0.539179">
        <ele>47.975</ele>
        <time>2021-05-05T16:21:36Z</time>
      </trkpt>
      <trkpt lat="38.323313" lon="-0.539132">
        <ele>48.020</ele>
        <time>2021-05-05T16:21:37Z</time>
      </trkpt>
      <trkpt lat="38.323374" lon="-0.539075">
        <ele>48.484</ele>
        <time>2021-05-05T16:21:39Z</time>
      </trkpt>
      <trkpt lat="38.323442" lon="-0.539040">
        <ele>48.707</ele>
        <time>2021-05-05T16:21:41Z</time>
      </trkpt>
      <trkpt lat="38.323484" lon="-0.539014">
        <ele>49.117</ele>
        <time>2021-05-05T16:21:42Z</time>
      </trkpt>
      <trkpt lat="38.323542" lon="-0.538981">
        <ele>49.408</ele>
        <time>2021-05-05T16:21:44Z</time>
      </trkpt>
      <trkpt lat="38.323587" lon="-0.538951">
        <ele>49.585</ele>
        <time>2021-05-05T16:21:45Z</time>
      </trkpt>
      <trkpt lat="38.323634" lon="-0.538921">
        <ele>49.440</ele>
        <time>2021-05-05T16:21:46Z</time>
      </trkpt>
      <trkpt lat="38.323704" lon="-0.538877">
        <ele>49.890</ele>
        <time>2021-05-05T16:21:48Z</time>
      </trkpt>
      <trkpt lat="38.323769" lon="-0.538838">
        <ele>50.363</ele>
        <time>2021-05-05T16:21:50Z</time>
      </trkpt>
      <trkpt lat="38.323833" lon="-0.538810">
        <ele>50.723</ele>
        <time>2021-05-05T16:21:51Z</time>
      </trkpt>
      <trkpt lat="38.323885" lon="-0.538782">
        <ele>50.795</ele>
        <time>2021-05-05T16:21:53Z</time>
      </trkpt>
      <trkpt lat="38.323929" lon="-0.538756">
        <ele>50.242</ele>
        <time>2021-05-05T16:21:54Z</time>
      </trkpt>
      <trkpt lat="38.323991" lon="-0.538707">
        <ele>49.447</ele>
        <time>2021-05-05T16:21:55Z</time>
      </trkpt>
      <trkpt lat="38.324034" lon="-0.538683">
        <ele>48.977</ele>
        <time>2021-05-05T16:21:56Z</time>
      </trkpt>
      <trkpt lat="38.324078" lon="-0.538663">
        <ele>48.661</ele>
        <time>2021-05-05T16:21:57Z</time>
      </trkpt>
      <trkpt lat="38.324160" lon="-0.538618">
        <ele>48.327</ele>
        <time>2021-05-05T16:21:59Z</time>
      </trkpt>
      <trkpt lat="38.324218" lon="-0.538606">
        <ele>48.208</ele>
        <time>2021-05-05T16:22:01Z</time>
      </trkpt>
      <trkpt lat="38.324267" lon="-0.538578">
        <ele>48.114</ele>
        <time>2021-05-05T16:22:02Z</time>
      </trkpt>
      <trkpt lat="38.324325" lon="-0.538534">
        <ele>47.989</ele>
        <time>2021-05-05T16:22:04Z</time>
      </trkpt>
      <trkpt lat="38.324368" lon="-0.538508">
        <ele>47.849</ele>
        <time>2021-05-05T16:22:05Z</time>
      </trkpt>
      <trkpt lat="38.324417" lon="-0.538474">
        <ele>48.162</ele>
        <time>2021-05-05T16:22:06Z</time>
      </trkpt>
      <trkpt lat="38.324512" lon="-0.538408">
        <ele>47.842</ele>
        <time>2021-05-05T16:22:08Z</time>
      </trkpt>
      <trkpt lat="38.324599" lon="-0.538345">
        <ele>47.634</ele>
        <time>2021-05-05T16:22:10Z</time>
      </trkpt>
      <trkpt lat="38.324646" lon="-0.538317">
        <ele>47.671</ele>
        <time>2021-05-05T16:22:11Z</time>
      </trkpt>
      <trkpt lat="38.324736" lon="-0.538260">
        <ele>47.336</ele>
        <time>2021-05-05T16:22:13Z</time>
      </trkpt>
      <trkpt lat="38.324782" lon="-0.538228">
        <ele>47.622</ele>
        <time>2021-05-05T16:22:14Z</time>
      </trkpt>
      <trkpt lat="38.324830" lon="-0.538197">
        <ele>48.062</ele>
        <time>2021-05-05T16:22:15Z</time>
      </trkpt>
      <trkpt lat="38.324925" lon="-0.538142">
        <ele>47.708</ele>
        <time>2021-05-05T16:22:17Z</time>
      </trkpt>
      <trkpt lat="38.325013" lon="-0.538083">
        <ele>47.508</ele>
        <time>2021-05-05T16:22:19Z</time>
      </trkpt>
      <trkpt lat="38.325057" lon="-0.538053">
        <ele>47.699</ele>
        <time>2021-05-05T16:22:20Z</time>
      </trkpt>
      <trkpt lat="38.325136" lon="-0.538002">
        <ele>47.624</ele>
        <time>2021-05-05T16:22:22Z</time>
      </trkpt>
      <trkpt lat="38.325218" lon="-0.537951">
        <ele>47.654</ele>
        <time>2021-05-05T16:22:24Z</time>
      </trkpt>
      <trkpt lat="38.325303" lon="-0.537890">
        <ele>47.537</ele>
        <time>2021-05-05T16:22:26Z</time>
      </trkpt>
      <trkpt lat="38.325344" lon="-0.537856">
        <ele>47.877</ele>
        <time>2021-05-05T16:22:27Z</time>
      </trkpt>
      <trkpt lat="38.325425" lon="-0.537795">
        <ele>47.749</ele>
        <time>2021-05-05T16:22:29Z</time>
      </trkpt>
      <trkpt lat="38.325485" lon="-0.537745">
        <ele>47.826</ele>
        <time>2021-05-05T16:22:31Z</time>
      </trkpt>
      <trkpt lat="38.325553" lon="-0.537692">
        <ele>47.791</ele>
        <time>2021-05-05T16:22:33Z</time>
      </trkpt>
      <trkpt lat="38.325630" lon="-0.537633">
        <ele>47.597</ele>
        <time>2021-05-05T16:22:35Z</time>
      </trkpt>
      <trkpt lat="38.325687" lon="-0.537581">
        <ele>47.423</ele>
        <time>2021-05-05T16:22:37Z</time>
      </trkpt>
      <trkpt lat="38.325743" lon="-0.537537">
        <ele>47.425</ele>
        <time>2021-05-05T16:22:39Z</time>
      </trkpt>
      <trkpt lat="38.325792" lon="-0.537502">
        <ele>47.608</ele>
        <time>2021-05-05T16:22:40Z</time>
      </trkpt>
      <trkpt lat="38.325854" lon="-0.537450">
        <ele>47.426</ele>
        <time>2021-05-05T16:22:42Z</time>
      </trkpt>
      <trkpt lat="38.325904" lon="-0.537411">
        <ele>47.261</ele>
        <time>2021-05-05T16:22:43Z</time>
      </trkpt>
      <trkpt lat="38.325971" lon="-0.537367">
        <ele>47.511</ele>
        <time>2021-05-05T16:22:45Z</time>
      </trkpt>
      <trkpt lat="38.326042" lon="-0.537301">
        <ele>47.584</ele>
        <time>2021-05-05T16:22:47Z</time>
      </trkpt>
      <trkpt lat="38.326112" lon="-0.537244">
        <ele>47.514</ele>
        <time>2021-05-05T16:22:49Z</time>
      </trkpt>
      <trkpt lat="38.326172" lon="-0.537196">
        <ele>47.696</ele>
        <time>2021-05-05T16:22:51Z</time>
      </trkpt>
      <trkpt lat="38.326259" lon="-0.537127">
        <ele>47.883</ele>
        <time>2021-05-05T16:22:53Z</time>
      </trkpt>
      <trkpt lat="38.326315" lon="-0.537080">
        <ele>47.878</ele>
        <time>2021-05-05T16:22:55Z</time>
      </trkpt>
      <trkpt lat="38.326362" lon="-0.537038">
        <ele>47.963</ele>
        <time>2021-05-05T16:22:56Z</time>
      </trkpt>
      <trkpt lat="38.326423" lon="-0.536978">
        <ele>47.844</ele>
        <time>2021-05-05T16:22:58Z</time>
      </trkpt>
      <trkpt lat="38.326465" lon="-0.536935">
        <ele>47.918</ele>
        <time>2021-05-05T16:22:59Z</time>
      </trkpt>
      <trkpt lat="38.326510" lon="-0.536884">
        <ele>48.108</ele>
        <time>2021-05-05T16:23:00Z</time>
      </trkpt>
      <trkpt lat="38.326546" lon="-0.536848">
        <ele>48.123</ele>
        <time>2021-05-05T16:23:01Z</time>
      </trkpt>
      <trkpt lat="38.326616" lon="-0.536800">
        <ele>48.458</ele>
        <time>2021-05-05T16:23:03Z</time>
      </trkpt>
      <trkpt lat="38.326677" lon="-0.536758">
        <ele>48.428</ele>
        <time>2021-05-05T16:23:05Z</time>
      </trkpt>
      <trkpt lat="38.326738" lon="-0.536701">
        <ele>48.611</ele>
        <time>2021-05-05T16:23:07Z</time>
      </trkpt>
      <trkpt lat="38.326780" lon="-0.536664">
        <ele>48.691</ele>
        <time>2021-05-05T16:23:08Z</time>
      </trkpt>
      <trkpt lat="38.326867" lon="-0.536581">
        <ele>48.163</ele>
        <time>2021-05-05T16:23:10Z</time>
      </trkpt>
      <trkpt lat="38.326901" lon="-0.536542">
        <ele>47.460</ele>
        <time>2021-05-05T16:23:11Z</time>
      </trkpt>
      <trkpt lat="38.326970" lon="-0.536477">
        <ele>46.825</ele>
        <time>2021-05-05T16:23:13Z</time>
      </trkpt>
      <trkpt lat="38.327045" lon="-0.536397">
        <ele>46.545</ele>
        <time>2021-05-05T16:23:15Z</time>
      </trkpt>
      <trkpt lat="38.327122" lon="-0.536329">
        <ele>46.447</ele>
        <time>2021-05-05T16:23:17Z</time>
      </trkpt>
      <trkpt lat="38.327139" lon="-0.536265">
        <ele>46.211</ele>
        <time>2021-05-05T16:23:20Z</time>
      </trkpt>
      <trkpt lat="38.327199" lon="-0.536210">
        <ele>46.108</ele>
        <time>2021-05-05T16:23:21Z</time>
      </trkpt>
      <trkpt lat="38.327247" lon="-0.536163">
        <ele>46.021</ele>
        <time>2021-05-05T16:23:22Z</time>
      </trkpt>
      <trkpt lat="38.327320" lon="-0.536104">
        <ele>45.926</ele>
        <time>2021-05-05T16:23:24Z</time>
      </trkpt>
      <trkpt lat="38.327381" lon="-0.536054">
        <ele>45.916</ele>
        <time>2021-05-05T16:23:26Z</time>
      </trkpt>
      <trkpt lat="38.327422" lon="-0.535999">
        <ele>45.949</ele>
        <time>2021-05-05T16:23:27Z</time>
      </trkpt>
      <trkpt lat="38.327461" lon="-0.535949">
        <ele>45.849</ele>
        <time>2021-05-05T16:23:28Z</time>
      </trkpt>
      <trkpt lat="38.327537" lon="-0.535864">
        <ele>46.191</ele>
        <time>2021-05-05T16:23:30Z</time>
      </trkpt>
      <trkpt lat="38.327594" lon="-0.535781">
        <ele>46.828</ele>
        <time>2021-05-05T16:23:32Z</time>
      </trkpt>
      <trkpt lat="38.327641" lon="-0.535718">
        <ele>47.113</ele>
        <time>2021-05-05T16:23:34Z</time>
      </trkpt>
      <trkpt lat="38.327689" lon="-0.535658">
        <ele>47.445</ele>
        <time>2021-05-05T16:23:35Z</time>
      </trkpt>
      <trkpt lat="38.327749" lon="-0.535599">
        <ele>48.247</ele>
        <time>2021-05-05T16:23:38Z</time>
      </trkpt>
      <trkpt lat="38.327837" lon="-0.535469">
        <ele>48.411</ele>
        <time>2021-05-05T16:23:40Z</time>
      </trkpt>
      <trkpt lat="38.327871" lon="-0.535429">
        <ele>47.708</ele>
        <time>2021-05-05T16:23:41Z</time>
      </trkpt>
      <trkpt lat="38.327905" lon="-0.535385">
        <ele>47.891</ele>
        <time>2021-05-05T16:23:42Z</time>
      </trkpt>
      <trkpt lat="38.327983" lon="-0.535316">
        <ele>47.996</ele>
        <time>2021-05-05T16:23:44Z</time>
      </trkpt>
      <trkpt lat="38.328064" lon="-0.535250">
        <ele>48.046</ele>
        <time>2021-05-05T16:23:46Z</time>
      </trkpt>
      <trkpt lat="38.328106" lon="-0.535217">
        <ele>48.299</ele>
        <time>2021-05-05T16:23:47Z</time>
      </trkpt>
      <trkpt lat="38.328185" lon="-0.535148">
        <ele>48.319</ele>
        <time>2021-05-05T16:23:49Z</time>
      </trkpt>
      <trkpt lat="38.328223" lon="-0.535113">
        <ele>48.441</ele>
        <time>2021-05-05T16:23:50Z</time>
      </trkpt>
      <trkpt lat="38.328299" lon="-0.535038">
        <ele>48.548</ele>
        <time>2021-05-05T16:23:52Z</time>
      </trkpt>
      <trkpt lat="38.328338" lon="-0.534997">
        <ele>48.533</ele>
        <time>2021-05-05T16:23:53Z</time>
      </trkpt>
      <trkpt lat="38.328378" lon="-0.534954">
        <ele>48.748</ele>
        <time>2021-05-05T16:23:54Z</time>
      </trkpt>
      <trkpt lat="38.328418" lon="-0.534915">
        <ele>48.761</ele>
        <time>2021-05-05T16:23:55Z</time>
      </trkpt>
      <trkpt lat="38.328501" lon="-0.534838">
        <ele>48.817</ele>
        <time>2021-05-05T16:23:57Z</time>
      </trkpt>
      <trkpt lat="38.328568" lon="-0.534754">
        <ele>48.708</ele>
        <time>2021-05-05T16:23:59Z</time>
      </trkpt>
      <trkpt lat="38.328639" lon="-0.534670">
        <ele>48.711</ele>
        <time>2021-05-05T16:24:01Z</time>
      </trkpt>
      <trkpt lat="38.328675" lon="-0.534628">
        <ele>49.096</ele>
        <time>2021-05-05T16:24:02Z</time>
      </trkpt>
      <trkpt lat="38.328712" lon="-0.534587">
        <ele>49.396</ele>
        <time>2021-05-05T16:24:03Z</time>
      </trkpt>
      <trkpt lat="38.328790" lon="-0.534503">
        <ele>48.879</ele>
        <time>2021-05-05T16:24:05Z</time>
      </trkpt>
      <trkpt lat="38.328824" lon="-0.534460">
        <ele>49.059</ele>
        <time>2021-05-05T16:24:06Z</time>
      </trkpt>
      <trkpt lat="38.328858" lon="-0.534416">
        <ele>49.141</ele>
        <time>2021-05-05T16:24:07Z</time>
      </trkpt>
      <trkpt lat="38.328893" lon="-0.534377">
        <ele>49.158</ele>
        <time>2021-05-05T16:24:08Z</time>
      </trkpt>
      <trkpt lat="38.328969" lon="-0.534305">
        <ele>48.813</ele>
        <time>2021-05-05T16:24:10Z</time>
      </trkpt>
      <trkpt lat="38.329048" lon="-0.534229">
        <ele>48.233</ele>
        <time>2021-05-05T16:24:12Z</time>
      </trkpt>
      <trkpt lat="38.329088" lon="-0.534186">
        <ele>48.323</ele>
        <time>2021-05-05T16:24:13Z</time>
      </trkpt>
      <trkpt lat="38.329167" lon="-0.534099">
        <ele>49.015</ele>
        <time>2021-05-05T16:24:15Z</time>
      </trkpt>
      <trkpt lat="38.329244" lon="-0.534017">
        <ele>49.308</ele>
        <time>2021-05-05T16:24:17Z</time>
      </trkpt>
      <trkpt lat="38.329281" lon="-0.533978">
        <ele>49.760</ele>
        <time>2021-05-05T16:24:18Z</time>
      </trkpt>
      <trkpt lat="38.329317" lon="-0.533940">
        <ele>49.455</ele>
        <time>2021-05-05T16:24:19Z</time>
      </trkpt>
      <trkpt lat="38.329388" lon="-0.533864">
        <ele>48.735</ele>
        <time>2021-05-05T16:24:21Z</time>
      </trkpt>
      <trkpt lat="38.329455" lon="-0.533793">
        <ele>47.678</ele>
        <time>2021-05-05T16:24:23Z</time>
      </trkpt>
      <trkpt lat="38.329525" lon="-0.533716">
        <ele>46.458</ele>
        <time>2021-05-05T16:24:25Z</time>
      </trkpt>
      <trkpt lat="38.329592" lon="-0.533627">
        <ele>45.660</ele>
        <time>2021-05-05T16:24:27Z</time>
      </trkpt>
      <trkpt lat="38.329665" lon="-0.533554">
        <ele>45.097</ele>
        <time>2021-05-05T16:24:29Z</time>
      </trkpt>
      <trkpt lat="38.329724" lon="-0.533470">
        <ele>45.382</ele>
        <time>2021-05-05T16:24:31Z</time>
      </trkpt>
      <trkpt lat="38.329776" lon="-0.533405">
        <ele>45.084</ele>
        <time>2021-05-05T16:24:33Z</time>
      </trkpt>
      <trkpt lat="38.329842" lon="-0.533332">
        <ele>44.907</ele>
        <time>2021-05-05T16:24:35Z</time>
      </trkpt>
      <trkpt lat="38.329917" lon="-0.533259">
        <ele>45.017</ele>
        <time>2021-05-05T16:24:37Z</time>
      </trkpt>
      <trkpt lat="38.329996" lon="-0.533190">
        <ele>44.308</ele>
        <time>2021-05-05T16:24:39Z</time>
      </trkpt>
      <trkpt lat="38.330046" lon="-0.533134">
        <ele>44.495</ele>
        <time>2021-05-05T16:24:41Z</time>
      </trkpt>
      <trkpt lat="38.330099" lon="-0.533091">
        <ele>44.510</ele>
        <time>2021-05-05T16:24:42Z</time>
      </trkpt>
      <trkpt lat="38.330188" lon="-0.533012">
        <ele>44.110</ele>
        <time>2021-05-05T16:24:44Z</time>
      </trkpt>
      <trkpt lat="38.330221" lon="-0.532971">
        <ele>44.223</ele>
        <time>2021-05-05T16:24:45Z</time>
      </trkpt>
      <trkpt lat="38.330256" lon="-0.532935">
        <ele>43.953</ele>
        <time>2021-05-05T16:24:46Z</time>
      </trkpt>
      <trkpt lat="38.330313" lon="-0.532910">
        <ele>43.545</ele>
        <time>2021-05-05T16:24:49Z</time>
      </trkpt>
      <trkpt lat="38.330362" lon="-0.532850">
        <ele>43.632</ele>
        <time>2021-05-05T16:24:50Z</time>
      </trkpt>
      <trkpt lat="38.330426" lon="-0.532755">
        <ele>44.137</ele>
        <time>2021-05-05T16:24:51Z</time>
      </trkpt>
      <trkpt lat="38.330461" lon="-0.532710">
        <ele>43.714</ele>
        <time>2021-05-05T16:24:52Z</time>
      </trkpt>
      <trkpt lat="38.330497" lon="-0.532672">
        <ele>43.554</ele>
        <time>2021-05-05T16:24:53Z</time>
      </trkpt>
      <trkpt lat="38.330574" lon="-0.532588">
        <ele>43.709</ele>
        <time>2021-05-05T16:24:55Z</time>
      </trkpt>
      <trkpt lat="38.330612" lon="-0.532546">
        <ele>43.908</ele>
        <time>2021-05-05T16:24:56Z</time>
      </trkpt>
      <trkpt lat="38.330687" lon="-0.532471">
        <ele>44.178</ele>
        <time>2021-05-05T16:24:58Z</time>
      </trkpt>
      <trkpt lat="38.330761" lon="-0.532399">
        <ele>44.033</ele>
        <time>2021-05-05T16:25:00Z</time>
      </trkpt>
      <trkpt lat="38.330832" lon="-0.532327">
        <ele>43.873</ele>
        <time>2021-05-05T16:25:02Z</time>
      </trkpt>
      <trkpt lat="38.330904" lon="-0.532258">
        <ele>43.866</ele>
        <time>2021-05-05T16:25:04Z</time>
      </trkpt>
      <trkpt lat="38.330975" lon="-0.532181">
        <ele>43.676</ele>
        <time>2021-05-05T16:25:06Z</time>
      </trkpt>
      <trkpt lat="38.331047" lon="-0.532110">
        <ele>43.578</ele>
        <time>2021-05-05T16:25:08Z</time>
      </trkpt>
      <trkpt lat="38.331121" lon="-0.532032">
        <ele>43.685</ele>
        <time>2021-05-05T16:25:10Z</time>
      </trkpt>
      <trkpt lat="38.331192" lon="-0.531949">
        <ele>43.960</ele>
        <time>2021-05-05T16:25:12Z</time>
      </trkpt>
      <trkpt lat="38.331228" lon="-0.531908">
        <ele>44.157</ele>
        <time>2021-05-05T16:25:13Z</time>
      </trkpt>
      <trkpt lat="38.331307" lon="-0.531831">
        <ele>44.700</ele>
        <time>2021-05-05T16:25:15Z</time>
      </trkpt>
      <trkpt lat="38.331381" lon="-0.531752">
        <ele>44.920</ele>
        <time>2021-05-05T16:25:17Z</time>
      </trkpt>
      <trkpt lat="38.331452" lon="-0.531668">
        <ele>45.208</ele>
        <time>2021-05-05T16:25:19Z</time>
      </trkpt>
      <trkpt lat="38.331517" lon="-0.531592">
        <ele>45.162</ele>
        <time>2021-05-05T16:25:21Z</time>
      </trkpt>
      <trkpt lat="38.331576" lon="-0.531543">
        <ele>44.757</ele>
        <time>2021-05-05T16:25:23Z</time>
      </trkpt>
      <trkpt lat="38.331616" lon="-0.531502">
        <ele>44.587</ele>
        <time>2021-05-05T16:25:24Z</time>
      </trkpt>
      <trkpt lat="38.331689" lon="-0.531423">
        <ele>44.870</ele>
        <time>2021-05-05T16:25:26Z</time>
      </trkpt>
      <trkpt lat="38.331759" lon="-0.531358">
        <ele>45.140</ele>
        <time>2021-05-05T16:25:28Z</time>
      </trkpt>
      <trkpt lat="38.331821" lon="-0.531278">
        <ele>45.412</ele>
        <time>2021-05-05T16:25:30Z</time>
      </trkpt>
      <trkpt lat="38.331857" lon="-0.531241">
        <ele>46.079</ele>
        <time>2021-05-05T16:25:31Z</time>
      </trkpt>
      <trkpt lat="38.331934" lon="-0.531160">
        <ele>46.114</ele>
        <time>2021-05-05T16:25:33Z</time>
      </trkpt>
      <trkpt lat="38.332005" lon="-0.531097">
        <ele>46.016</ele>
        <time>2021-05-05T16:25:35Z</time>
      </trkpt>
      <trkpt lat="38.332052" lon="-0.531054">
        <ele>46.276</ele>
        <time>2021-05-05T16:25:37Z</time>
      </trkpt>
      <trkpt lat="38.332091" lon="-0.531014">
        <ele>46.213</ele>
        <time>2021-05-05T16:25:38Z</time>
      </trkpt>
      <trkpt lat="38.332130" lon="-0.530962">
        <ele>45.908</ele>
        <time>2021-05-05T16:25:39Z</time>
      </trkpt>
      <trkpt lat="38.332197" lon="-0.530888">
        <ele>45.438</ele>
        <time>2021-05-05T16:25:41Z</time>
      </trkpt>
      <trkpt lat="38.332273" lon="-0.530825">
        <ele>45.863</ele>
        <time>2021-05-05T16:25:43Z</time>
      </trkpt>
      <trkpt lat="38.332346" lon="-0.530750">
        <ele>45.863</ele>
        <time>2021-05-05T16:25:45Z</time>
      </trkpt>
      <trkpt lat="38.332383" lon="-0.530709">
        <ele>45.736</ele>
        <time>2021-05-05T16:25:46Z</time>
      </trkpt>
      <trkpt lat="38.332452" lon="-0.530629">
        <ele>45.766</ele>
        <time>2021-05-05T16:25:48Z</time>
      </trkpt>
      <trkpt lat="38.332486" lon="-0.530591">
        <ele>45.538</ele>
        <time>2021-05-05T16:25:49Z</time>
      </trkpt>
      <trkpt lat="38.332506" lon="-0.530520">
        <ele>45.395</ele>
        <time>2021-05-05T16:25:51Z</time>
      </trkpt>
      <trkpt lat="38.332577" lon="-0.530467">
        <ele>45.340</ele>
        <time>2021-05-05T16:25:53Z</time>
      </trkpt>
      <trkpt lat="38.332631" lon="-0.530429">
        <ele>45.149</ele>
        <time>2021-05-05T16:25:54Z</time>
      </trkpt>
      <trkpt lat="38.332704" lon="-0.530400">
        <ele>44.402</ele>
        <time>2021-05-05T16:25:55Z</time>
      </trkpt>
      <trkpt lat="38.332795" lon="-0.530375">
        <ele>44.122</ele>
        <time>2021-05-05T16:25:57Z</time>
      </trkpt>
      <trkpt lat="38.332894" lon="-0.530383">
        <ele>44.808</ele>
        <time>2021-05-05T16:25:59Z</time>
      </trkpt>
      <trkpt lat="38.332972" lon="-0.530381">
        <ele>45.521</ele>
        <time>2021-05-05T16:26:01Z</time>
      </trkpt>
      <trkpt lat="38.333038" lon="-0.530369">
        <ele>45.676</ele>
        <time>2021-05-05T16:26:03Z</time>
      </trkpt>
      <trkpt lat="38.333089" lon="-0.530394">
        <ele>46.076</ele>
        <time>2021-05-05T16:26:04Z</time>
      </trkpt>
      <trkpt lat="38.333170" lon="-0.530404">
        <ele>45.939</ele>
        <time>2021-05-05T16:26:06Z</time>
      </trkpt>
      <trkpt lat="38.333261" lon="-0.530407">
        <ele>45.479</ele>
        <time>2021-05-05T16:26:08Z</time>
      </trkpt>
      <trkpt lat="38.333335" lon="-0.530387">
        <ele>45.461</ele>
        <time>2021-05-05T16:26:10Z</time>
      </trkpt>
      <trkpt lat="38.333408" lon="-0.530352">
        <ele>45.438</ele>
        <time>2021-05-05T16:26:12Z</time>
      </trkpt>
      <trkpt lat="38.333463" lon="-0.530323">
        <ele>45.233</ele>
        <time>2021-05-05T16:26:14Z</time>
      </trkpt>
      <trkpt lat="38.333509" lon="-0.530293">
        <ele>45.999</ele>
        <time>2021-05-05T16:26:15Z</time>
      </trkpt>
      <trkpt lat="38.333554" lon="-0.530261">
        <ele>46.607</ele>
        <time>2021-05-05T16:26:16Z</time>
      </trkpt>
      <trkpt lat="38.333597" lon="-0.530224">
        <ele>47.027</ele>
        <time>2021-05-05T16:26:17Z</time>
      </trkpt>
      <trkpt lat="38.333654" lon="-0.530169">
        <ele>47.008</ele>
        <time>2021-05-05T16:26:19Z</time>
      </trkpt>
      <trkpt lat="38.333701" lon="-0.530146">
        <ele>47.076</ele>
        <time>2021-05-05T16:26:21Z</time>
      </trkpt>
      <trkpt lat="38.333737" lon="-0.530047">
        <ele>46.761</ele>
        <time>2021-05-05T16:26:22Z</time>
      </trkpt>
      <trkpt lat="38.333788" lon="-0.529931">
        <ele>47.691</ele>
        <time>2021-05-05T16:26:24Z</time>
      </trkpt>
      <trkpt lat="38.333835" lon="-0.529812">
        <ele>47.894</ele>
        <time>2021-05-05T16:26:26Z</time>
      </trkpt>
      <trkpt lat="38.333868" lon="-0.529678">
        <ele>47.484</ele>
        <time>2021-05-05T16:26:28Z</time>
      </trkpt>
      <trkpt lat="38.333879" lon="-0.529606">
        <ele>46.986</ele>
        <time>2021-05-05T16:26:29Z</time>
      </trkpt>
      <trkpt lat="38.333888" lon="-0.529473">
        <ele>46.553</ele>
        <time>2021-05-05T16:26:31Z</time>
      </trkpt>
      <trkpt lat="38.333904" lon="-0.529340">
        <ele>45.188</ele>
        <time>2021-05-05T16:26:33Z</time>
      </trkpt>
      <trkpt lat="38.333916" lon="-0.529283">
        <ele>44.751</ele>
        <time>2021-05-05T16:26:34Z</time>
      </trkpt>
      <trkpt lat="38.333935" lon="-0.529198">
        <ele>44.901</ele>
        <time>2021-05-05T16:26:36Z</time>
      </trkpt>
      <trkpt lat="38.333969" lon="-0.529104">
        <ele>44.311</ele>
        <time>2021-05-05T16:26:38Z</time>
      </trkpt>
      <trkpt lat="38.334006" lon="-0.529024">
        <ele>43.108</ele>
        <time>2021-05-05T16:26:40Z</time>
      </trkpt>
      <trkpt lat="38.333995" lon="-0.528965">
        <ele>42.192</ele>
        <time>2021-05-05T16:26:42Z</time>
      </trkpt>
      <trkpt lat="38.334045" lon="-0.528883">
        <ele>41.887</ele>
        <time>2021-05-05T16:26:44Z</time>
      </trkpt>
      <trkpt lat="38.334084" lon="-0.528825">
        <ele>41.567</ele>
        <time>2021-05-05T16:26:45Z</time>
      </trkpt>
      <trkpt lat="38.334118" lon="-0.528777">
        <ele>41.540</ele>
        <time>2021-05-05T16:26:46Z</time>
      </trkpt>
      <trkpt lat="38.334169" lon="-0.528693">
        <ele>40.580</ele>
        <time>2021-05-05T16:26:48Z</time>
      </trkpt>
      <trkpt lat="38.334209" lon="-0.528612">
        <ele>40.122</ele>
        <time>2021-05-05T16:26:50Z</time>
      </trkpt>
      <trkpt lat="38.334277" lon="-0.528564">
        <ele>39.819</ele>
        <time>2021-05-05T16:26:51Z</time>
      </trkpt>
      <trkpt lat="38.334373" lon="-0.528530">
        <ele>38.984</ele>
        <time>2021-05-05T16:26:53Z</time>
      </trkpt>
      <trkpt lat="38.334481" lon="-0.528527">
        <ele>38.165</ele>
        <time>2021-05-05T16:26:55Z</time>
      </trkpt>
      <trkpt lat="38.334531" lon="-0.528539">
        <ele>37.268</ele>
        <time>2021-05-05T16:26:56Z</time>
      </trkpt>
      <trkpt lat="38.334592" lon="-0.528540">
        <ele>36.014</ele>
        <time>2021-05-05T16:26:58Z</time>
      </trkpt>
      <trkpt lat="38.334650" lon="-0.528560">
        <ele>35.008</ele>
        <time>2021-05-05T16:27:00Z</time>
      </trkpt>
      <trkpt lat="38.334699" lon="-0.528542">
        <ele>34.453</ele>
        <time>2021-05-05T16:27:02Z</time>
      </trkpt>
      <trkpt lat="38.334756" lon="-0.528514">
        <ele>33.848</ele>
        <time>2021-05-05T16:27:04Z</time>
      </trkpt>
      <trkpt lat="38.334808" lon="-0.528471">
        <ele>34.268</ele>
        <time>2021-05-05T16:27:06Z</time>
      </trkpt>
      <trkpt lat="38.334832" lon="-0.528395">
        <ele>33.191</ele>
        <time>2021-05-05T16:27:07Z</time>
      </trkpt>
      <trkpt lat="38.334859" lon="-0.528310">
        <ele>32.611</ele>
        <time>2021-05-05T16:27:08Z</time>
      </trkpt>
      <trkpt lat="38.334896" lon="-0.528190">
        <ele>32.753</ele>
        <time>2021-05-05T16:27:10Z</time>
      </trkpt>
      <trkpt lat="38.334921" lon="-0.528124">
        <ele>32.230</ele>
        <time>2021-05-05T16:27:11Z</time>
      </trkpt>
      <trkpt lat="38.334948" lon="-0.528037">
        <ele>32.525</ele>
        <time>2021-05-05T16:27:13Z</time>
      </trkpt>
      <trkpt lat="38.334987" lon="-0.527936">
        <ele>32.754</ele>
        <time>2021-05-05T16:27:15Z</time>
      </trkpt>
      <trkpt lat="38.335014" lon="-0.527869">
        <ele>33.656</ele>
        <time>2021-05-05T16:27:17Z</time>
      </trkpt>
      <trkpt lat="38.335047" lon="-0.527791">
        <ele>34.311</ele>
        <time>2021-05-05T16:27:19Z</time>
      </trkpt>
      <trkpt lat="38.335100" lon="-0.527751">
        <ele>34.608</ele>
        <time>2021-05-05T16:27:22Z</time>
      </trkpt>
      <trkpt lat="38.335149" lon="-0.527726">
        <ele>34.812</ele>
        <time>2021-05-05T16:27:25Z</time>
      </trkpt>
      <trkpt lat="38.335215" lon="-0.527692">
        <ele>34.927</ele>
        <time>2021-05-05T16:27:29Z</time>
      </trkpt>
      <trkpt lat="38.335263" lon="-0.527667">
        <ele>35.077</ele>
        <time>2021-05-05T16:27:31Z</time>
      </trkpt>
      <trkpt lat="38.335194" lon="-0.527689">
        <ele>36.270</ele>
        <time>2021-05-05T16:27:39Z</time>
      </trkpt>
      <trkpt lat="38.335493" lon="-0.527486">
        <ele>36.820</ele>
        <time>2021-05-05T16:27:41Z</time>
      </trkpt>
      <trkpt lat="38.335567" lon="-0.527417">
        <ele>37.072</ele>
        <time>2021-05-05T16:27:42Z</time>
      </trkpt>
      <trkpt lat="38.335610" lon="-0.527371">
        <ele>37.169</ele>
        <time>2021-05-05T16:27:43Z</time>
      </trkpt>
      <trkpt lat="38.335670" lon="-0.527310">
        <ele>37.114</ele>
        <time>2021-05-05T16:27:45Z</time>
      </trkpt>
      <trkpt lat="38.335714" lon="-0.527267">
        <ele>36.849</ele>
        <time>2021-05-05T16:27:47Z</time>
      </trkpt>
      <trkpt lat="38.335750" lon="-0.527226">
        <ele>36.502</ele>
        <time>2021-05-05T16:27:49Z</time>
      </trkpt>
      <trkpt lat="38.335781" lon="-0.527175">
        <ele>37.122</ele>
        <time>2021-05-05T16:27:51Z</time>
      </trkpt>
      <trkpt lat="38.335811" lon="-0.527130">
        <ele>37.108</ele>
        <time>2021-05-05T16:27:52Z</time>
      </trkpt>
      <trkpt lat="38.335836" lon="-0.527068">
        <ele>36.841</ele>
        <time>2021-05-05T16:27:54Z</time>
      </trkpt>
      <trkpt lat="38.335847" lon="-0.526996">
        <ele>36.396</ele>
        <time>2021-05-05T16:28:01Z</time>
      </trkpt>
      <trkpt lat="38.335870" lon="-0.526939">
        <ele>35.996</ele>
        <time>2021-05-05T16:28:03Z</time>
      </trkpt>
      <trkpt lat="38.335888" lon="-0.526882">
        <ele>36.059</ele>
        <time>2021-05-05T16:28:04Z</time>
      </trkpt>
      <trkpt lat="38.335899" lon="-0.526823">
        <ele>35.219</ele>
        <time>2021-05-05T16:28:05Z</time>
      </trkpt>
      <trkpt lat="38.335903" lon="-0.526753">
        <ele>34.561</ele>
        <time>2021-05-05T16:28:07Z</time>
      </trkpt>
      <trkpt lat="38.335914" lon="-0.526669">
        <ele>34.048</ele>
        <time>2021-05-05T16:28:08Z</time>
      </trkpt>
      <trkpt lat="38.335923" lon="-0.526590">
        <ele>33.153</ele>
        <time>2021-05-05T16:28:10Z</time>
      </trkpt>
      <trkpt lat="38.335945" lon="-0.526509">
        <ele>32.623</ele>
        <time>2021-05-05T16:28:12Z</time>
      </trkpt>
      <trkpt lat="38.335965" lon="-0.526455">
        <ele>32.683</ele>
        <time>2021-05-05T16:28:13Z</time>
      </trkpt>
      <trkpt lat="38.336005" lon="-0.526388">
        <ele>32.211</ele>
        <time>2021-05-05T16:28:15Z</time>
      </trkpt>
      <trkpt lat="38.336043" lon="-0.526350">
        <ele>32.108</ele>
        <time>2021-05-05T16:28:17Z</time>
      </trkpt>
      <trkpt lat="38.336082" lon="-0.526307">
        <ele>31.999</ele>
        <time>2021-05-05T16:28:20Z</time>
      </trkpt>
      <trkpt lat="38.336138" lon="-0.526231">
        <ele>31.994</ele>
        <time>2021-05-05T16:28:22Z</time>
      </trkpt>
      <trkpt lat="38.336175" lon="-0.526193">
        <ele>32.164</ele>
        <time>2021-05-05T16:28:23Z</time>
      </trkpt>
      <trkpt lat="38.336237" lon="-0.526122">
        <ele>32.557</ele>
        <time>2021-05-05T16:28:25Z</time>
      </trkpt>
      <trkpt lat="38.336283" lon="-0.526066">
        <ele>32.777</ele>
        <time>2021-05-05T16:28:26Z</time>
      </trkpt>
      <trkpt lat="38.336323" lon="-0.526016">
        <ele>32.729</ele>
        <time>2021-05-05T16:28:27Z</time>
      </trkpt>
      <trkpt lat="38.336392" lon="-0.525929">
        <ele>32.616</ele>
        <time>2021-05-05T16:28:29Z</time>
      </trkpt>
      <trkpt lat="38.336448" lon="-0.525859">
        <ele>32.281</ele>
        <time>2021-05-05T16:28:31Z</time>
      </trkpt>
      <trkpt lat="38.336486" lon="-0.525811">
        <ele>32.158</ele>
        <time>2021-05-05T16:28:33Z</time>
      </trkpt>
      <trkpt lat="38.336518" lon="-0.525768">
        <ele>32.252</ele>
        <time>2021-05-05T16:28:34Z</time>
      </trkpt>
      <trkpt lat="38.336561" lon="-0.525728">
        <ele>32.217</ele>
        <time>2021-05-05T16:28:36Z</time>
      </trkpt>
      <trkpt lat="38.336617" lon="-0.525658">
        <ele>32.208</ele>
        <time>2021-05-05T16:28:38Z</time>
      </trkpt>
      <trkpt lat="38.336655" lon="-0.525612">
        <ele>32.472</ele>
        <time>2021-05-05T16:28:40Z</time>
      </trkpt>
      <trkpt lat="38.336698" lon="-0.525557">
        <ele>32.497</ele>
        <time>2021-05-05T16:28:41Z</time>
      </trkpt>
      <trkpt lat="38.336741" lon="-0.525502">
        <ele>32.117</ele>
        <time>2021-05-05T16:28:43Z</time>
      </trkpt>
      <trkpt lat="38.336782" lon="-0.525460">
        <ele>32.290</ele>
        <time>2021-05-05T16:28:45Z</time>
      </trkpt>
      <trkpt lat="38.336833" lon="-0.525407">
        <ele>31.970</ele>
        <time>2021-05-05T16:28:47Z</time>
      </trkpt>
      <trkpt lat="38.336875" lon="-0.525356">
        <ele>31.622</ele>
        <time>2021-05-05T16:28:49Z</time>
      </trkpt>
      <trkpt lat="38.336912" lon="-0.525311">
        <ele>31.519</ele>
        <time>2021-05-05T16:28:51Z</time>
      </trkpt>
      <trkpt lat="38.336960" lon="-0.525255">
        <ele>31.374</ele>
        <time>2021-05-05T16:28:53Z</time>
      </trkpt>
      <trkpt lat="38.336994" lon="-0.525203">
        <ele>31.413</ele>
        <time>2021-05-05T16:28:55Z</time>
      </trkpt>
      <trkpt lat="38.337026" lon="-0.525156">
        <ele>31.643</ele>
        <time>2021-05-05T16:28:57Z</time>
      </trkpt>
      <trkpt lat="38.337061" lon="-0.525114">
        <ele>31.307</ele>
        <time>2021-05-05T16:28:59Z</time>
      </trkpt>
      <trkpt lat="38.337101" lon="-0.525058">
        <ele>31.408</ele>
        <time>2021-05-05T16:29:02Z</time>
      </trkpt>
      <trkpt lat="38.337112" lon="-0.525115">
        <ele>32.058</ele>
        <time>2021-05-05T16:29:19Z</time>
      </trkpt>
      <trkpt lat="38.337066" lon="-0.525169">
        <ele>32.463</ele>
        <time>2021-05-05T16:29:23Z</time>
      </trkpt>
      <trkpt lat="38.337027" lon="-0.525205">
        <ele>32.343</ele>
        <time>2021-05-05T16:29:25Z</time>
      </trkpt>
      <trkpt lat="38.336977" lon="-0.525251">
        <ele>32.476</ele>
        <time>2021-05-05T16:29:28Z</time>
      </trkpt>
      <trkpt lat="38.336937" lon="-0.525311">
        <ele>32.946</ele>
        <time>2021-05-05T16:29:30Z</time>
      </trkpt>
      <trkpt lat="38.336900" lon="-0.525354">
        <ele>32.928</ele>
        <time>2021-05-05T16:29:32Z</time>
      </trkpt>
      <trkpt lat="38.336852" lon="-0.525394">
        <ele>33.045</ele>
        <time>2021-05-05T16:29:34Z</time>
      </trkpt>
      <trkpt lat="38.336815" lon="-0.525433">
        <ele>33.210</ele>
        <time>2021-05-05T16:29:36Z</time>
      </trkpt>
      <trkpt lat="38.336776" lon="-0.525474">
        <ele>33.459</ele>
        <time>2021-05-05T16:29:38Z</time>
      </trkpt>
      <trkpt lat="38.336737" lon="-0.525528">
        <ele>33.603</ele>
        <time>2021-05-05T16:29:40Z</time>
      </trkpt>
      <trkpt lat="38.336678" lon="-0.525574">
        <ele>33.823</ele>
        <time>2021-05-05T16:29:42Z</time>
      </trkpt>
      <trkpt lat="38.336633" lon="-0.525650">
        <ele>34.008</ele>
        <time>2021-05-05T16:29:45Z</time>
      </trkpt>
      <trkpt lat="38.336580" lon="-0.525702">
        <ele>34.252</ele>
        <time>2021-05-05T16:29:47Z</time>
      </trkpt>
      <trkpt lat="38.336538" lon="-0.525755">
        <ele>34.787</ele>
        <time>2021-05-05T16:29:49Z</time>
      </trkpt>
      <trkpt lat="38.336502" lon="-0.525799">
        <ele>34.977</ele>
        <time>2021-05-05T16:29:51Z</time>
      </trkpt>
      <trkpt lat="38.336457" lon="-0.525838">
        <ele>34.980</ele>
        <time>2021-05-05T16:29:53Z</time>
      </trkpt>
      <trkpt lat="38.336405" lon="-0.525893">
        <ele>35.140</ele>
        <time>2021-05-05T16:29:55Z</time>
      </trkpt>
      <trkpt lat="38.336355" lon="-0.525965">
        <ele>35.432</ele>
        <time>2021-05-05T16:29:57Z</time>
      </trkpt>
      <trkpt lat="38.336306" lon="-0.526041">
        <ele>35.559</ele>
        <time>2021-05-05T16:30:00Z</time>
      </trkpt>
      <trkpt lat="38.336268" lon="-0.526078">
        <ele>35.734</ele>
        <time>2021-05-05T16:30:01Z</time>
      </trkpt>
      <trkpt lat="38.336227" lon="-0.526125">
        <ele>35.792</ele>
        <time>2021-05-05T16:30:03Z</time>
      </trkpt>
      <trkpt lat="38.336176" lon="-0.526184">
        <ele>35.973</ele>
        <time>2021-05-05T16:30:06Z</time>
      </trkpt>
      <trkpt lat="38.336144" lon="-0.526224">
        <ele>35.820</ele>
        <time>2021-05-05T16:30:08Z</time>
      </trkpt>
      <trkpt lat="38.336142" lon="-0.526291">
        <ele>35.708</ele>
        <time>2021-05-05T16:30:11Z</time>
      </trkpt>
      <trkpt lat="38.336193" lon="-0.526297">
        <ele>35.246</ele>
        <time>2021-05-05T16:30:18Z</time>
      </trkpt>
      <trkpt lat="38.336239" lon="-0.526228">
        <ele>35.181</ele>
        <time>2021-05-05T16:30:20Z</time>
      </trkpt>
      <trkpt lat="38.336286" lon="-0.526166">
        <ele>34.821</ele>
        <time>2021-05-05T16:30:22Z</time>
      </trkpt>
      <trkpt lat="38.336335" lon="-0.526113">
        <ele>34.824</ele>
        <time>2021-05-05T16:30:23Z</time>
      </trkpt>
      <trkpt lat="38.336397" lon="-0.526035">
        <ele>34.984</ele>
        <time>2021-05-05T16:30:25Z</time>
      </trkpt>
      <trkpt lat="38.336433" lon="-0.525989">
        <ele>35.086</ele>
        <time>2021-05-05T16:30:26Z</time>
      </trkpt>
      <trkpt lat="38.336485" lon="-0.525927">
        <ele>35.133</ele>
        <time>2021-05-05T16:30:28Z</time>
      </trkpt>
      <trkpt lat="38.336520" lon="-0.525888">
        <ele>35.278</ele>
        <time>2021-05-05T16:30:29Z</time>
      </trkpt>
      <trkpt lat="38.336569" lon="-0.525808">
        <ele>35.243</ele>
        <time>2021-05-05T16:30:30Z</time>
      </trkpt>
      <trkpt lat="38.336638" lon="-0.525727">
        <ele>34.964</ele>
        <time>2021-05-05T16:30:32Z</time>
      </trkpt>
      <trkpt lat="38.336653" lon="-0.525664">
        <ele>35.010</ele>
        <time>2021-05-05T16:30:34Z</time>
      </trkpt>
      <trkpt lat="38.336692" lon="-0.525625">
        <ele>35.108</ele>
        <time>2021-05-05T16:30:35Z</time>
      </trkpt>
      <trkpt lat="38.336735" lon="-0.525588">
        <ele>35.491</ele>
        <time>2021-05-05T16:30:36Z</time>
      </trkpt>
      <trkpt lat="38.336790" lon="-0.525536">
        <ele>35.316</ele>
        <time>2021-05-05T16:30:38Z</time>
      </trkpt>
      <trkpt lat="38.336839" lon="-0.525487">
        <ele>35.686</ele>
        <time>2021-05-05T16:30:39Z</time>
      </trkpt>
      <trkpt lat="38.336901" lon="-0.525434">
        <ele>35.539</ele>
        <time>2021-05-05T16:30:41Z</time>
      </trkpt>
      <trkpt lat="38.336942" lon="-0.525399">
        <ele>35.979</ele>
        <time>2021-05-05T16:30:43Z</time>
      </trkpt>
      <trkpt lat="38.336989" lon="-0.525350">
        <ele>36.311</ele>
        <time>2021-05-05T16:30:45Z</time>
      </trkpt>
      <trkpt lat="38.337039" lon="-0.525307">
        <ele>36.668</ele>
        <time>2021-05-05T16:30:46Z</time>
      </trkpt>
      <trkpt lat="38.337092" lon="-0.525257">
        <ele>36.923</ele>
        <time>2021-05-05T16:30:48Z</time>
      </trkpt>
      <trkpt lat="38.337139" lon="-0.525215">
        <ele>37.093</ele>
        <time>2021-05-05T16:30:54Z</time>
      </trkpt>
      <trkpt lat="38.337179" lon="-0.525181">
        <ele>37.465</ele>
        <time>2021-05-05T16:30:56Z</time>
      </trkpt>
      <trkpt lat="38.337232" lon="-0.525119">
        <ele>37.421</ele>
        <time>2021-05-05T16:30:58Z</time>
      </trkpt>
      <trkpt lat="38.337282" lon="-0.525057">
        <ele>37.408</ele>
        <time>2021-05-05T16:31:00Z</time>
      </trkpt>
      <trkpt lat="38.337320" lon="-0.525007">
        <ele>37.316</ele>
        <time>2021-05-05T16:31:01Z</time>
      </trkpt>
      <trkpt lat="38.337371" lon="-0.524942">
        <ele>37.181</ele>
        <time>2021-05-05T16:31:03Z</time>
      </trkpt>
      <trkpt lat="38.337433" lon="-0.524875">
        <ele>37.371</ele>
        <time>2021-05-05T16:31:05Z</time>
      </trkpt>
      <trkpt lat="38.337481" lon="-0.524821">
        <ele>37.554</ele>
        <time>2021-05-05T16:31:07Z</time>
      </trkpt>
      <trkpt lat="38.337514" lon="-0.524774">
        <ele>37.554</ele>
        <time>2021-05-05T16:31:08Z</time>
      </trkpt>
      <trkpt lat="38.337566" lon="-0.524714">
        <ele>37.516</ele>
        <time>2021-05-05T16:31:10Z</time>
      </trkpt>
      <trkpt lat="38.337619" lon="-0.524660">
        <ele>36.913</ele>
        <time>2021-05-05T16:31:12Z</time>
      </trkpt>
      <trkpt lat="38.337665" lon="-0.524612">
        <ele>37.118</ele>
        <time>2021-05-05T16:31:14Z</time>
      </trkpt>
      <trkpt lat="38.337719" lon="-0.524551">
        <ele>37.629</ele>
        <time>2021-05-05T16:31:16Z</time>
      </trkpt>
      <trkpt lat="38.337758" lon="-0.524498">
        <ele>37.700</ele>
        <time>2021-05-05T16:31:18Z</time>
      </trkpt>
      <trkpt lat="38.337783" lon="-0.524450">
        <ele>37.920</ele>
        <time>2021-05-05T16:31:20Z</time>
      </trkpt>
      <trkpt lat="38.337799" lon="-0.524380">
        <ele>38.408</ele>
        <time>2021-05-05T16:31:23Z</time>
      </trkpt>
      <trkpt lat="38.337835" lon="-0.524330">
        <ele>38.659</ele>
        <time>2021-05-05T16:31:26Z</time>
      </trkpt>
      <trkpt lat="38.337873" lon="-0.524279">
        <ele>39.094</ele>
        <time>2021-05-05T16:31:31Z</time>
      </trkpt>
      <trkpt lat="38.337894" lon="-0.524227">
        <ele>39.524</ele>
        <time>2021-05-05T16:31:36Z</time>
      </trkpt>
      <trkpt lat="38.337835" lon="-0.524211">
        <ele>40.597</ele>
        <time>2021-05-05T16:31:40Z</time>
      </trkpt>
      <trkpt lat="38.337782" lon="-0.524192">
        <ele>40.877</ele>
        <time>2021-05-05T16:31:43Z</time>
      </trkpt>
      <trkpt lat="38.337710" lon="-0.524153">
        <ele>41.579</ele>
        <time>2021-05-05T16:31:46Z</time>
      </trkpt>
      <trkpt lat="38.337669" lon="-0.524116">
        <ele>41.916</ele>
        <time>2021-05-05T16:31:48Z</time>
      </trkpt>
      <trkpt lat="38.337620" lon="-0.524051">
        <ele>42.121</ele>
        <time>2021-05-05T16:31:50Z</time>
      </trkpt>
      <trkpt lat="38.337589" lon="-0.523978">
        <ele>42.119</ele>
        <time>2021-05-05T16:31:52Z</time>
      </trkpt>
      <trkpt lat="38.337572" lon="-0.523913">
        <ele>42.009</ele>
        <time>2021-05-05T16:31:53Z</time>
      </trkpt>
      <trkpt lat="38.337571" lon="-0.523828">
        <ele>42.019</ele>
        <time>2021-05-05T16:31:55Z</time>
      </trkpt>
      <trkpt lat="38.337582" lon="-0.523740">
        <ele>41.708</ele>
        <time>2021-05-05T16:31:57Z</time>
      </trkpt>
      <trkpt lat="38.337614" lon="-0.523638">
        <ele>41.518</ele>
        <time>2021-05-05T16:31:59Z</time>
      </trkpt>
      <trkpt lat="38.337638" lon="-0.523548">
        <ele>41.343</ele>
        <time>2021-05-05T16:32:01Z</time>
      </trkpt>
      <trkpt lat="38.337626" lon="-0.523464">
        <ele>40.713</ele>
        <time>2021-05-05T16:32:03Z</time>
      </trkpt>
      <trkpt lat="38.337584" lon="-0.523382">
        <ele>40.676</ele>
        <time>2021-05-05T16:32:05Z</time>
      </trkpt>
      <trkpt lat="38.337546" lon="-0.523307">
        <ele>40.416</ele>
        <time>2021-05-05T16:32:07Z</time>
      </trkpt>
      <trkpt lat="38.337519" lon="-0.523237">
        <ele>40.138</ele>
        <time>2021-05-05T16:32:08Z</time>
      </trkpt>
      <trkpt lat="38.337491" lon="-0.523141">
        <ele>39.945</ele>
        <time>2021-05-05T16:32:10Z</time>
      </trkpt>
      <trkpt lat="38.337474" lon="-0.523040">
        <ele>39.750</ele>
        <time>2021-05-05T16:32:12Z</time>
      </trkpt>
      <trkpt lat="38.337450" lon="-0.522942">
        <ele>39.868</ele>
        <time>2021-05-05T16:32:14Z</time>
      </trkpt>
      <trkpt lat="38.337440" lon="-0.522852">
        <ele>39.942</ele>
        <time>2021-05-05T16:32:16Z</time>
      </trkpt>
      <trkpt lat="38.337434" lon="-0.522766">
        <ele>39.926</ele>
        <time>2021-05-05T16:32:18Z</time>
      </trkpt>
      <trkpt lat="38.337432" lon="-0.522709">
        <ele>39.908</ele>
        <time>2021-05-05T16:32:19Z</time>
      </trkpt>
      <trkpt lat="38.337438" lon="-0.522616">
        <ele>40.293</ele>
        <time>2021-05-05T16:32:21Z</time>
      </trkpt>
      <trkpt lat="38.337449" lon="-0.522544">
        <ele>39.888</ele>
        <time>2021-05-05T16:32:22Z</time>
      </trkpt>
      <trkpt lat="38.337465" lon="-0.522449">
        <ele>40.038</ele>
        <time>2021-05-05T16:32:24Z</time>
      </trkpt>
      <trkpt lat="38.337482" lon="-0.522364">
        <ele>40.091</ele>
        <time>2021-05-05T16:32:26Z</time>
      </trkpt>
      <trkpt lat="38.337495" lon="-0.522297">
        <ele>39.831</ele>
        <time>2021-05-05T16:32:28Z</time>
      </trkpt>
      <trkpt lat="38.337501" lon="-0.522225">
        <ele>40.023</ele>
        <time>2021-05-05T16:32:29Z</time>
      </trkpt>
      <trkpt lat="38.337505" lon="-0.522149">
        <ele>40.040</ele>
        <time>2021-05-05T16:32:31Z</time>
      </trkpt>
      <trkpt lat="38.337513" lon="-0.522086">
        <ele>39.645</ele>
        <time>2021-05-05T16:32:32Z</time>
      </trkpt>
      <trkpt lat="38.337526" lon="-0.522004">
        <ele>39.828</ele>
        <time>2021-05-05T16:32:34Z</time>
      </trkpt>
      <trkpt lat="38.337547" lon="-0.521908">
        <ele>39.989</ele>
        <time>2021-05-05T16:32:36Z</time>
      </trkpt>
      <trkpt lat="38.337565" lon="-0.521822">
        <ele>40.017</ele>
        <time>2021-05-05T16:32:38Z</time>
      </trkpt>
      <trkpt lat="38.337576" lon="-0.521760">
        <ele>39.808</ele>
        <time>2021-05-05T16:32:40Z</time>
      </trkpt>
      <trkpt lat="38.337594" lon="-0.521676">
        <ele>40.269</ele>
        <time>2021-05-05T16:32:42Z</time>
      </trkpt>
      <trkpt lat="38.337615" lon="-0.521586">
        <ele>40.774</ele>
        <time>2021-05-05T16:32:44Z</time>
      </trkpt>
      <trkpt lat="38.337632" lon="-0.521510">
        <ele>41.014</ele>
        <time>2021-05-05T16:32:46Z</time>
      </trkpt>
      <trkpt lat="38.337646" lon="-0.521454">
        <ele>41.227</ele>
        <time>2021-05-05T16:32:48Z</time>
      </trkpt>
      <trkpt lat="38.337665" lon="-0.521375">
        <ele>41.337</ele>
        <time>2021-05-05T16:32:50Z</time>
      </trkpt>
      <trkpt lat="38.337675" lon="-0.521306">
        <ele>41.539</ele>
        <time>2021-05-05T16:32:52Z</time>
      </trkpt>
      <trkpt lat="38.337692" lon="-0.521241">
        <ele>41.776</ele>
        <time>2021-05-05T16:32:54Z</time>
      </trkpt>
      <trkpt lat="38.337711" lon="-0.521187">
        <ele>41.881</ele>
        <time>2021-05-05T16:32:55Z</time>
      </trkpt>
      <trkpt lat="38.337718" lon="-0.521123">
        <ele>41.324</ele>
        <time>2021-05-05T16:32:57Z</time>
      </trkpt>
      <trkpt lat="38.337721" lon="-0.521057">
        <ele>41.204</ele>
        <time>2021-05-05T16:32:59Z</time>
      </trkpt>
      <trkpt lat="38.337741" lon="-0.521000">
        <ele>41.414</ele>
        <time>2021-05-05T16:33:01Z</time>
      </trkpt>
      <trkpt lat="38.337755" lon="-0.520938">
        <ele>41.708</ele>
        <time>2021-05-05T16:33:02Z</time>
      </trkpt>
      <trkpt lat="38.337772" lon="-0.520866">
        <ele>42.279</ele>
        <time>2021-05-05T16:33:04Z</time>
      </trkpt>
      <trkpt lat="38.337782" lon="-0.520799">
        <ele>42.174</ele>
        <time>2021-05-05T16:33:06Z</time>
      </trkpt>
      <trkpt lat="38.337786" lon="-0.520720">
        <ele>42.164</ele>
        <time>2021-05-05T16:33:08Z</time>
      </trkpt>
      <trkpt lat="38.337797" lon="-0.520631">
        <ele>42.087</ele>
        <time>2021-05-05T16:33:10Z</time>
      </trkpt>
      <trkpt lat="38.337806" lon="-0.520570">
        <ele>42.347</ele>
        <time>2021-05-05T16:33:12Z</time>
      </trkpt>
      <trkpt lat="38.337818" lon="-0.520493">
        <ele>42.719</ele>
        <time>2021-05-05T16:33:14Z</time>
      </trkpt>
      <trkpt lat="38.337826" lon="-0.520418">
        <ele>43.156</ele>
        <time>2021-05-05T16:33:16Z</time>
      </trkpt>
      <trkpt lat="38.337836" lon="-0.520335">
        <ele>43.221</ele>
        <time>2021-05-05T16:33:18Z</time>
      </trkpt>
      <trkpt lat="38.337851" lon="-0.520258">
        <ele>43.547</ele>
        <time>2021-05-05T16:33:20Z</time>
      </trkpt>
      <trkpt lat="38.337865" lon="-0.520165">
        <ele>43.329</ele>
        <time>2021-05-05T16:33:22Z</time>
      </trkpt>
      <trkpt lat="38.337873" lon="-0.520101">
        <ele>43.721</ele>
        <time>2021-05-05T16:33:24Z</time>
      </trkpt>
      <trkpt lat="38.337881" lon="-0.520043">
        <ele>43.708</ele>
        <time>2021-05-05T16:33:25Z</time>
      </trkpt>
      <trkpt lat="38.337890" lon="-0.519968">
        <ele>43.781</ele>
        <time>2021-05-05T16:33:27Z</time>
      </trkpt>
      <trkpt lat="38.337900" lon="-0.519881">
        <ele>44.166</ele>
        <time>2021-05-05T16:33:29Z</time>
      </trkpt>
      <trkpt lat="38.337917" lon="-0.519784">
        <ele>44.346</ele>
        <time>2021-05-05T16:33:31Z</time>
      </trkpt>
      <trkpt lat="38.337925" lon="-0.519715">
        <ele>44.449</ele>
        <time>2021-05-05T16:33:33Z</time>
      </trkpt>
      <trkpt lat="38.337936" lon="-0.519645">
        <ele>44.329</ele>
        <time>2021-05-05T16:33:34Z</time>
      </trkpt>
      <trkpt lat="38.337945" lon="-0.519568">
        <ele>44.361</ele>
        <time>2021-05-05T16:33:36Z</time>
      </trkpt>
      <trkpt lat="38.337944" lon="-0.519508">
        <ele>44.418</ele>
        <time>2021-05-05T16:33:37Z</time>
      </trkpt>
      <trkpt lat="38.337939" lon="-0.519442">
        <ele>44.153</ele>
        <time>2021-05-05T16:33:39Z</time>
      </trkpt>
      <trkpt lat="38.337939" lon="-0.519373">
        <ele>43.944</ele>
        <time>2021-05-05T16:33:41Z</time>
      </trkpt>
      <trkpt lat="38.337946" lon="-0.519291">
        <ele>44.005</ele>
        <time>2021-05-05T16:33:43Z</time>
      </trkpt>
      <trkpt lat="38.337950" lon="-0.519198">
        <ele>44.215</ele>
        <time>2021-05-05T16:33:45Z</time>
      </trkpt>
      <trkpt lat="38.337958" lon="-0.519123">
        <ele>44.408</ele>
        <time>2021-05-05T16:33:47Z</time>
      </trkpt>
      <trkpt lat="38.337965" lon="-0.519048">
        <ele>45.061</ele>
        <time>2021-05-05T16:33:49Z</time>
      </trkpt>
      <trkpt lat="38.337970" lon="-0.518985">
        <ele>45.686</ele>
        <time>2021-05-05T16:33:50Z</time>
      </trkpt>
      <trkpt lat="38.337976" lon="-0.518927">
        <ele>46.326</ele>
        <time>2021-05-05T16:33:52Z</time>
      </trkpt>
      <trkpt lat="38.337983" lon="-0.518862">
        <ele>46.959</ele>
        <time>2021-05-05T16:33:53Z</time>
      </trkpt>
      <trkpt lat="38.337990" lon="-0.518794">
        <ele>47.029</ele>
        <time>2021-05-05T16:33:55Z</time>
      </trkpt>
      <trkpt lat="38.338000" lon="-0.518712">
        <ele>47.361</ele>
        <time>2021-05-05T16:33:57Z</time>
      </trkpt>
      <trkpt lat="38.338001" lon="-0.518627">
        <ele>47.638</ele>
        <time>2021-05-05T16:34:00Z</time>
      </trkpt>
      <trkpt lat="38.337979" lon="-0.518558">
        <ele>47.673</ele>
        <time>2021-05-05T16:34:02Z</time>
      </trkpt>
      <trkpt lat="38.337936" lon="-0.518505">
        <ele>47.256</ele>
        <time>2021-05-05T16:34:04Z</time>
      </trkpt>
      <trkpt lat="38.337882" lon="-0.518473">
        <ele>46.759</ele>
        <time>2021-05-05T16:34:06Z</time>
      </trkpt>
      <trkpt lat="38.337837" lon="-0.518465">
        <ele>46.814</ele>
        <time>2021-05-05T16:34:07Z</time>
      </trkpt>
      <trkpt lat="38.337766" lon="-0.518471">
        <ele>46.508</ele>
        <time>2021-05-05T16:34:09Z</time>
      </trkpt>
      <trkpt lat="38.337716" lon="-0.518505">
        <ele>46.422</ele>
        <time>2021-05-05T16:34:11Z</time>
      </trkpt>
      <trkpt lat="38.337642" lon="-0.518560">
        <ele>46.427</ele>
        <time>2021-05-05T16:34:13Z</time>
      </trkpt>
      <trkpt lat="38.337586" lon="-0.518603">
        <ele>46.337</ele>
        <time>2021-05-05T16:34:15Z</time>
      </trkpt>
      <trkpt lat="38.337543" lon="-0.518633">
        <ele>46.430</ele>
        <time>2021-05-05T16:34:16Z</time>
      </trkpt>
      <trkpt lat="38.337496" lon="-0.518658">
        <ele>45.260</ele>
        <time>2021-05-05T16:34:17Z</time>
      </trkpt>
      <trkpt lat="38.337445" lon="-0.518682">
        <ele>44.642</ele>
        <time>2021-05-05T16:34:19Z</time>
      </trkpt>
      <trkpt lat="38.337385" lon="-0.518712">
        <ele>43.769</ele>
        <time>2021-05-05T16:34:20Z</time>
      </trkpt>
      <trkpt lat="38.337324" lon="-0.518750">
        <ele>43.534</ele>
        <time>2021-05-05T16:34:22Z</time>
      </trkpt>
      <trkpt lat="38.337256" lon="-0.518787">
        <ele>44.525</ele>
        <time>2021-05-05T16:34:24Z</time>
      </trkpt>
      <trkpt lat="38.337195" lon="-0.518809">
        <ele>45.026</ele>
        <time>2021-05-05T16:34:26Z</time>
      </trkpt>
      <trkpt lat="38.337149" lon="-0.518827">
        <ele>44.608</ele>
        <time>2021-05-05T16:34:27Z</time>
      </trkpt>
      <trkpt lat="38.337073" lon="-0.518842">
        <ele>44.608</ele>
        <time>2021-05-05T16:34:29Z</time>
      </trkpt>
      <trkpt lat="38.337010" lon="-0.518844">
        <ele>45.399</ele>
        <time>2021-05-05T16:34:31Z</time>
      </trkpt>
      <trkpt lat="38.336951" lon="-0.518852">
        <ele>46.594</ele>
        <time>2021-05-05T16:34:32Z</time>
      </trkpt>
      <trkpt lat="38.336906" lon="-0.518866">
        <ele>47.014</ele>
        <time>2021-05-05T16:34:34Z</time>
      </trkpt>
      <trkpt lat="38.336857" lon="-0.518885">
        <ele>47.137</ele>
        <time>2021-05-05T16:34:37Z</time>
      </trkpt>
      <trkpt lat="38.336870" lon="-0.518823">
        <ele>47.337</ele>
        <time>2021-05-05T16:34:41Z</time>
      </trkpt>
      <trkpt lat="38.336928" lon="-0.518803">
        <ele>47.639</ele>
        <time>2021-05-05T16:34:43Z</time>
      </trkpt>
      <trkpt lat="38.336981" lon="-0.518801">
        <ele>47.546</ele>
        <time>2021-05-05T16:34:45Z</time>
      </trkpt>
      <trkpt lat="38.337038" lon="-0.518795">
        <ele>47.671</ele>
        <time>2021-05-05T16:34:47Z</time>
      </trkpt>
      <trkpt lat="38.337105" lon="-0.518783">
        <ele>47.996</ele>
        <time>2021-05-05T16:34:49Z</time>
      </trkpt>
      <trkpt lat="38.337167" lon="-0.518767">
        <ele>48.931</ele>
        <time>2021-05-05T16:34:51Z</time>
      </trkpt>
      <trkpt lat="38.337211" lon="-0.518749">
        <ele>48.824</ele>
        <time>2021-05-05T16:34:53Z</time>
      </trkpt>
      <trkpt lat="38.337256" lon="-0.518730">
        <ele>49.508</ele>
        <time>2021-05-05T16:34:54Z</time>
      </trkpt>
      <trkpt lat="38.337318" lon="-0.518698">
        <ele>50.326</ele>
        <time>2021-05-05T16:34:56Z</time>
      </trkpt>
      <trkpt lat="38.337387" lon="-0.518663">
        <ele>50.611</ele>
        <time>2021-05-05T16:34:58Z</time>
      </trkpt>
      <trkpt lat="38.337440" lon="-0.518624">
        <ele>50.871</ele>
        <time>2021-05-05T16:35:00Z</time>
      </trkpt>
      <trkpt lat="38.337489" lon="-0.518581">
        <ele>49.844</ele>
        <time>2021-05-05T16:35:02Z</time>
      </trkpt>
      <trkpt lat="38.337544" lon="-0.518560">
        <ele>48.164</ele>
        <time>2021-05-05T16:35:04Z</time>
      </trkpt>
      <trkpt lat="38.337614" lon="-0.518536">
        <ele>47.636</ele>
        <time>2021-05-05T16:35:06Z</time>
      </trkpt>
      <trkpt lat="38.337668" lon="-0.518495">
        <ele>47.663</ele>
        <time>2021-05-05T16:35:09Z</time>
      </trkpt>
      <trkpt lat="38.337717" lon="-0.518471">
        <ele>47.718</ele>
        <time>2021-05-05T16:35:12Z</time>
      </trkpt>
      <trkpt lat="38.337765" lon="-0.518459">
        <ele>47.787</ele>
        <time>2021-05-05T16:35:15Z</time>
      </trkpt>
      <trkpt lat="38.337813" lon="-0.518442">
        <ele>48.042</ele>
        <time>2021-05-05T16:35:18Z</time>
      </trkpt>
      <trkpt lat="38.337869" lon="-0.518453">
        <ele>48.026</ele>
        <time>2021-05-05T16:35:20Z</time>
      </trkpt>
      <trkpt lat="38.337924" lon="-0.518489">
        <ele>48.408</ele>
        <time>2021-05-05T16:35:23Z</time>
      </trkpt>
      <trkpt lat="38.337973" lon="-0.518494">
        <ele>48.465</ele>
        <time>2021-05-05T16:35:26Z</time>
      </trkpt>
      <trkpt lat="38.338018" lon="-0.518500">
        <ele>48.840</ele>
        <time>2021-05-05T16:35:28Z</time>
      </trkpt>
      <trkpt lat="38.338058" lon="-0.518532">
        <ele>49.880</ele>
        <time>2021-05-05T16:35:30Z</time>
      </trkpt>
      <trkpt lat="38.338119" lon="-0.518559">
        <ele>50.783</ele>
        <time>2021-05-05T16:35:32Z</time>
      </trkpt>
      <trkpt lat="38.338150" lon="-0.518507">
        <ele>51.353</ele>
        <time>2021-05-05T16:35:35Z</time>
      </trkpt>
      <trkpt lat="38.338146" lon="-0.518444">
        <ele>51.615</ele>
        <time>2021-05-05T16:35:57Z</time>
      </trkpt>
      <trkpt lat="38.338168" lon="-0.518388">
        <ele>51.412</ele>
        <time>2021-05-05T16:36:00Z</time>
      </trkpt>
      <trkpt lat="38.338197" lon="-0.518332">
        <ele>51.497</ele>
        <time>2021-05-05T16:36:03Z</time>
      </trkpt>
      <trkpt lat="38.338227" lon="-0.518258">
        <ele>51.449</ele>
        <time>2021-05-05T16:36:06Z</time>
      </trkpt>
      <trkpt lat="38.338251" lon="-0.518204">
        <ele>51.602</ele>
        <time>2021-05-05T16:36:08Z</time>
      </trkpt>
      <trkpt lat="38.338282" lon="-0.518138">
        <ele>51.322</ele>
        <time>2021-05-05T16:36:11Z</time>
      </trkpt>
      <trkpt lat="38.338305" lon="-0.518085">
        <ele>51.208</ele>
        <time>2021-05-05T16:36:13Z</time>
      </trkpt>
      <trkpt lat="38.338333" lon="-0.518010">
        <ele>50.811</ele>
        <time>2021-05-05T16:36:16Z</time>
      </trkpt>
      <trkpt lat="38.338362" lon="-0.517950">
        <ele>50.796</ele>
        <time>2021-05-05T16:36:19Z</time>
      </trkpt>
      <trkpt lat="38.338415" lon="-0.517927">
        <ele>50.676</ele>
        <time>2021-05-05T16:36:22Z</time>
      </trkpt>
      <trkpt lat="38.338468" lon="-0.517910">
        <ele>50.789</ele>
        <time>2021-05-05T16:36:25Z</time>
      </trkpt>
      <trkpt lat="38.338510" lon="-0.517875">
        <ele>50.439</ele>
        <time>2021-05-05T16:36:27Z</time>
      </trkpt>
      <trkpt lat="38.338573" lon="-0.517835">
        <ele>50.231</ele>
        <time>2021-05-05T16:36:29Z</time>
      </trkpt>
      <trkpt lat="38.338620" lon="-0.517807">
        <ele>49.638</ele>
        <time>2021-05-05T16:36:31Z</time>
      </trkpt>
      <trkpt lat="38.338672" lon="-0.517784">
        <ele>49.293</ele>
        <time>2021-05-05T16:36:33Z</time>
      </trkpt>
      <trkpt lat="38.338731" lon="-0.517751">
        <ele>48.414</ele>
        <time>2021-05-05T16:36:35Z</time>
      </trkpt>
      <trkpt lat="38.338775" lon="-0.517723">
        <ele>47.754</ele>
        <time>2021-05-05T16:36:36Z</time>
      </trkpt>
      <trkpt lat="38.338818" lon="-0.517677">
        <ele>47.109</ele>
        <time>2021-05-05T16:36:38Z</time>
      </trkpt>
      <trkpt lat="38.338866" lon="-0.517636">
        <ele>47.308</ele>
        <time>2021-05-05T16:36:42Z</time>
      </trkpt>
      <trkpt lat="38.338917" lon="-0.517617">
        <ele>47.318</ele>
        <time>2021-05-05T16:36:45Z</time>
      </trkpt>
      <trkpt lat="38.338931" lon="-0.517551">
        <ele>46.983</ele>
        <time>2021-05-05T16:36:49Z</time>
      </trkpt>
      <trkpt lat="38.338904" lon="-0.517474">
        <ele>46.253</ele>
        <time>2021-05-05T16:36:52Z</time>
      </trkpt>
      <trkpt lat="38.338882" lon="-0.517413">
        <ele>45.896</ele>
        <time>2021-05-05T16:36:54Z</time>
      </trkpt>
      <trkpt lat="38.338871" lon="-0.517330">
        <ele>45.586</ele>
        <time>2021-05-05T16:36:56Z</time>
      </trkpt>
      <trkpt lat="38.338871" lon="-0.517262">
        <ele>45.398</ele>
        <time>2021-05-05T16:36:58Z</time>
      </trkpt>
      <trkpt lat="38.338860" lon="-0.517206">
        <ele>45.635</ele>
        <time>2021-05-05T16:37:00Z</time>
      </trkpt>
      <trkpt lat="38.338832" lon="-0.517132">
        <ele>45.810</ele>
        <time>2021-05-05T16:37:03Z</time>
      </trkpt>
      <trkpt lat="38.338806" lon="-0.517077">
        <ele>46.212</ele>
        <time>2021-05-05T16:37:06Z</time>
      </trkpt>
      <trkpt lat="38.338794" lon="-0.517001">
        <ele>45.732</ele>
        <time>2021-05-05T16:37:09Z</time>
      </trkpt>
      <trkpt lat="38.338841" lon="-0.516948">
        <ele>45.705</ele>
        <time>2021-05-05T16:37:12Z</time>
      </trkpt>
      <trkpt lat="38.338877" lon="-0.516886">
        <ele>45.308</ele>
        <time>2021-05-05T16:37:14Z</time>
      </trkpt>
      <trkpt lat="38.338901" lon="-0.516815">
        <ele>45.218</ele>
        <time>2021-05-05T16:37:16Z</time>
      </trkpt>
      <trkpt lat="38.338908" lon="-0.516756">
        <ele>45.223</ele>
        <time>2021-05-05T16:37:18Z</time>
      </trkpt>
      <trkpt lat="38.338907" lon="-0.516681">
        <ele>45.063</ele>
        <time>2021-05-05T16:37:20Z</time>
      </trkpt>
      <trkpt lat="38.338895" lon="-0.516610">
        <ele>45.166</ele>
        <time>2021-05-05T16:37:22Z</time>
      </trkpt>
      <trkpt lat="38.338887" lon="-0.516550">
        <ele>45.126</ele>
        <time>2021-05-05T16:37:24Z</time>
      </trkpt>
      <trkpt lat="38.338870" lon="-0.516468">
        <ele>45.328</ele>
        <time>2021-05-05T16:37:26Z</time>
      </trkpt>
      <trkpt lat="38.338858" lon="-0.516385">
        <ele>45.235</ele>
        <time>2021-05-05T16:37:28Z</time>
      </trkpt>
      <trkpt lat="38.338851" lon="-0.516327">
        <ele>45.380</ele>
        <time>2021-05-05T16:37:30Z</time>
      </trkpt>
      <trkpt lat="38.338839" lon="-0.516251">
        <ele>45.655</ele>
        <time>2021-05-05T16:37:32Z</time>
      </trkpt>
      <trkpt lat="38.338837" lon="-0.516177">
        <ele>45.907</ele>
        <time>2021-05-05T16:37:34Z</time>
      </trkpt>
      <trkpt lat="38.338837" lon="-0.516105">
        <ele>46.017</ele>
        <time>2021-05-05T16:37:36Z</time>
      </trkpt>
      <trkpt lat="38.338827" lon="-0.516037">
        <ele>46.108</ele>
        <time>2021-05-05T16:37:38Z</time>
      </trkpt>
      <trkpt lat="38.338802" lon="-0.515984">
        <ele>46.152</ele>
        <time>2021-05-05T16:37:40Z</time>
      </trkpt>
      <trkpt lat="38.338793" lon="-0.515927">
        <ele>46.397</ele>
        <time>2021-05-05T16:37:42Z</time>
      </trkpt>
      <trkpt lat="38.338792" lon="-0.515838">
        <ele>46.417</ele>
        <time>2021-05-05T16:37:44Z</time>
      </trkpt>
      <trkpt lat="38.338791" lon="-0.515770">
        <ele>46.420</ele>
        <time>2021-05-05T16:37:46Z</time>
      </trkpt>
      <trkpt lat="38.338786" lon="-0.515687">
        <ele>46.670</ele>
        <time>2021-05-05T16:37:48Z</time>
      </trkpt>
      <trkpt lat="38.338776" lon="-0.515620">
        <ele>46.742</ele>
        <time>2021-05-05T16:37:50Z</time>
      </trkpt>
      <trkpt lat="38.338764" lon="-0.515546">
        <ele>46.289</ele>
        <time>2021-05-05T16:37:52Z</time>
      </trkpt>
      <trkpt lat="38.338746" lon="-0.515442">
        <ele>45.994</ele>
        <time>2021-05-05T16:37:54Z</time>
      </trkpt>
      <trkpt lat="38.338748" lon="-0.515351">
        <ele>45.988</ele>
        <time>2021-05-05T16:37:57Z</time>
      </trkpt>
      <trkpt lat="38.338738" lon="-0.515262">
        <ele>46.024</ele>
        <time>2021-05-05T16:37:59Z</time>
      </trkpt>
      <trkpt lat="38.338730" lon="-0.515177">
        <ele>46.026</ele>
        <time>2021-05-05T16:38:01Z</time>
      </trkpt>
      <trkpt lat="38.338727" lon="-0.515107">
        <ele>45.908</ele>
        <time>2021-05-05T16:38:03Z</time>
      </trkpt>
      <trkpt lat="38.338717" lon="-0.515044">
        <ele>45.955</ele>
        <time>2021-05-05T16:38:04Z</time>
      </trkpt>
      <trkpt lat="38.338712" lon="-0.514967">
        <ele>45.820</ele>
        <time>2021-05-05T16:38:06Z</time>
      </trkpt>
      <trkpt lat="38.338722" lon="-0.514900">
        <ele>46.070</ele>
        <time>2021-05-05T16:38:08Z</time>
      </trkpt>
      <trkpt lat="38.338712" lon="-0.514825">
        <ele>46.723</ele>
        <time>2021-05-05T16:38:10Z</time>
      </trkpt>
      <trkpt lat="38.338696" lon="-0.514768">
        <ele>47.253</ele>
        <time>2021-05-05T16:38:12Z</time>
      </trkpt>
      <trkpt lat="38.338685" lon="-0.514691">
        <ele>47.495</ele>
        <time>2021-05-05T16:38:14Z</time>
      </trkpt>
      <trkpt lat="38.338672" lon="-0.514634">
        <ele>47.712</ele>
        <time>2021-05-05T16:38:16Z</time>
      </trkpt>
      <trkpt lat="38.338668" lon="-0.514558">
        <ele>47.287</ele>
        <time>2021-05-05T16:38:18Z</time>
      </trkpt>
      <trkpt lat="38.338660" lon="-0.514489">
        <ele>46.745</ele>
        <time>2021-05-05T16:38:20Z</time>
      </trkpt>
      <trkpt lat="38.338654" lon="-0.514400">
        <ele>46.547</ele>
        <time>2021-05-05T16:38:22Z</time>
      </trkpt>
      <trkpt lat="38.338645" lon="-0.514321">
        <ele>46.411</ele>
        <time>2021-05-05T16:38:24Z</time>
      </trkpt>
      <trkpt lat="38.338646" lon="-0.514246">
        <ele>46.508</ele>
        <time>2021-05-05T16:38:26Z</time>
      </trkpt>
      <trkpt lat="38.338649" lon="-0.514160">
        <ele>46.431</ele>
        <time>2021-05-05T16:38:28Z</time>
      </trkpt>
      <trkpt lat="38.338652" lon="-0.514080">
        <ele>46.216</ele>
        <time>2021-05-05T16:38:30Z</time>
      </trkpt>
      <trkpt lat="38.338647" lon="-0.514006">
        <ele>46.226</ele>
        <time>2021-05-05T16:38:32Z</time>
      </trkpt>
      <trkpt lat="38.338650" lon="-0.513924">
        <ele>46.089</ele>
        <time>2021-05-05T16:38:34Z</time>
      </trkpt>
      <trkpt lat="38.338643" lon="-0.513858">
        <ele>45.919</ele>
        <time>2021-05-05T16:38:36Z</time>
      </trkpt>
      <trkpt lat="38.338641" lon="-0.513800">
        <ele>46.191</ele>
        <time>2021-05-05T16:38:38Z</time>
      </trkpt>
      <trkpt lat="38.338639" lon="-0.513724">
        <ele>45.888</ele>
        <time>2021-05-05T16:38:41Z</time>
      </trkpt>
      <trkpt lat="38.338636" lon="-0.513651">
        <ele>45.833</ele>
        <time>2021-05-05T16:38:43Z</time>
      </trkpt>
      <trkpt lat="38.338640" lon="-0.513590">
        <ele>45.558</ele>
        <time>2021-05-05T16:38:45Z</time>
      </trkpt>
      <trkpt lat="38.338635" lon="-0.513529">
        <ele>45.752</ele>
        <time>2021-05-05T16:38:47Z</time>
      </trkpt>
      <trkpt lat="38.338633" lon="-0.513442">
        <ele>45.717</ele>
        <time>2021-05-05T16:38:50Z</time>
      </trkpt>
      <trkpt lat="38.338628" lon="-0.513378">
        <ele>45.708</ele>
        <time>2021-05-05T16:38:53Z</time>
      </trkpt>
      <trkpt lat="38.338638" lon="-0.513319">
        <ele>45.432</ele>
        <time>2021-05-05T16:38:55Z</time>
      </trkpt>
      <trkpt lat="38.338686" lon="-0.513277">
        <ele>45.527</ele>
        <time>2021-05-05T16:38:58Z</time>
      </trkpt>
      <trkpt lat="38.338754" lon="-0.513255">
        <ele>44.867</ele>
        <time>2021-05-05T16:39:01Z</time>
      </trkpt>
      <trkpt lat="38.338831" lon="-0.513260">
        <ele>44.420</ele>
        <time>2021-05-05T16:39:04Z</time>
      </trkpt>
      <trkpt lat="38.338888" lon="-0.513281">
        <ele>43.870</ele>
        <time>2021-05-05T16:39:06Z</time>
      </trkpt>
      <trkpt lat="38.338930" lon="-0.513333">
        <ele>43.242</ele>
        <time>2021-05-05T16:39:08Z</time>
      </trkpt>
      <trkpt lat="38.338945" lon="-0.513394">
        <ele>42.499</ele>
        <time>2021-05-05T16:39:10Z</time>
      </trkpt>
      <trkpt lat="38.338942" lon="-0.513470">
        <ele>42.354</ele>
        <time>2021-05-05T16:39:12Z</time>
      </trkpt>
      <trkpt lat="38.338969" lon="-0.513525">
        <ele>42.235</ele>
        <time>2021-05-05T16:39:14Z</time>
      </trkpt>
      <trkpt lat="38.339008" lon="-0.513556">
        <ele>42.286</ele>
        <time>2021-05-05T16:39:17Z</time>
      </trkpt>
      <trkpt lat="38.338961" lon="-0.513547">
        <ele>41.914</ele>
        <time>2021-05-05T16:39:28Z</time>
      </trkpt>
      <trkpt lat="38.338945" lon="-0.513491">
        <ele>42.208</ele>
        <time>2021-05-05T16:39:30Z</time>
      </trkpt>
      <trkpt lat="38.338946" lon="-0.513429">
        <ele>42.040</ele>
        <time>2021-05-05T16:39:33Z</time>
      </trkpt>
      <trkpt lat="38.338942" lon="-0.513360">
        <ele>41.975</ele>
        <time>2021-05-05T16:39:36Z</time>
      </trkpt>
      <trkpt lat="38.338948" lon="-0.513294">
        <ele>42.185</ele>
        <time>2021-05-05T16:39:39Z</time>
      </trkpt>
      <trkpt lat="38.338945" lon="-0.513227">
        <ele>42.048</ele>
        <time>2021-05-05T16:39:42Z</time>
      </trkpt>
      <trkpt lat="38.338952" lon="-0.513160">
        <ele>41.238</ele>
        <time>2021-05-05T16:39:44Z</time>
      </trkpt>
      <trkpt lat="38.338981" lon="-0.513099">
        <ele>41.250</ele>
        <time>2021-05-05T16:39:46Z</time>
      </trkpt>
      <trkpt lat="38.339028" lon="-0.513065">
        <ele>41.217</ele>
        <time>2021-05-05T16:39:48Z</time>
      </trkpt>
      <trkpt lat="38.339070" lon="-0.513035">
        <ele>41.732</ele>
        <time>2021-05-05T16:39:50Z</time>
      </trkpt>
      <trkpt lat="38.339115" lon="-0.513006">
        <ele>42.251</ele>
        <time>2021-05-05T16:39:53Z</time>
      </trkpt>
      <trkpt lat="38.339138" lon="-0.512948">
        <ele>44.101</ele>
        <time>2021-05-05T16:40:53Z</time>
      </trkpt>
      <trkpt lat="38.339138" lon="-0.512890">
        <ele>45.811</ele>
        <time>2021-05-05T16:40:55Z</time>
      </trkpt>
      <trkpt lat="38.339100" lon="-0.512843">
        <ele>46.608</ele>
        <time>2021-05-05T16:40:57Z</time>
      </trkpt>
      <trkpt lat="38.339057" lon="-0.512792">
        <ele>47.332</ele>
        <time>2021-05-05T16:40:59Z</time>
      </trkpt>
      <trkpt lat="38.339032" lon="-0.512743">
        <ele>47.667</ele>
        <time>2021-05-05T16:41:01Z</time>
      </trkpt>
      <trkpt lat="38.339012" lon="-0.512659">
        <ele>47.547</ele>
        <time>2021-05-05T16:41:03Z</time>
      </trkpt>
      <trkpt lat="38.339006" lon="-0.512583">
        <ele>47.520</ele>
        <time>2021-05-05T16:41:05Z</time>
      </trkpt>
      <trkpt lat="38.339013" lon="-0.512517">
        <ele>47.530</ele>
        <time>2021-05-05T16:41:07Z</time>
      </trkpt>
      <trkpt lat="38.339020" lon="-0.512442">
        <ele>47.492</ele>
        <time>2021-05-05T16:41:09Z</time>
      </trkpt>
      <trkpt lat="38.339020" lon="-0.512373">
        <ele>46.899</ele>
        <time>2021-05-05T16:41:10Z</time>
      </trkpt>
      <trkpt lat="38.339016" lon="-0.512290">
        <ele>46.524</ele>
        <time>2021-05-05T16:41:12Z</time>
      </trkpt>
      <trkpt lat="38.339019" lon="-0.512225">
        <ele>46.139</ele>
        <time>2021-05-05T16:41:14Z</time>
      </trkpt>
      <trkpt lat="38.339021" lon="-0.512161">
        <ele>45.801</ele>
        <time>2021-05-05T16:41:15Z</time>
      </trkpt>
      <trkpt lat="38.339018" lon="-0.512084">
        <ele>45.021</ele>
        <time>2021-05-05T16:41:17Z</time>
      </trkpt>
      <trkpt lat="38.339019" lon="-0.512026">
        <ele>43.508</ele>
        <time>2021-05-05T16:41:19Z</time>
      </trkpt>
      <trkpt lat="38.339022" lon="-0.511949">
        <ele>42.650</ele>
        <time>2021-05-05T16:41:21Z</time>
      </trkpt>
      <trkpt lat="38.339024" lon="-0.511886">
        <ele>42.285</ele>
        <time>2021-05-05T16:41:22Z</time>
      </trkpt>
      <trkpt lat="38.339025" lon="-0.511817">
        <ele>41.645</ele>
        <time>2021-05-05T16:41:24Z</time>
      </trkpt>
      <trkpt lat="38.339023" lon="-0.511724">
        <ele>41.088</ele>
        <time>2021-05-05T16:41:26Z</time>
      </trkpt>
      <trkpt lat="38.339027" lon="-0.511623">
        <ele>40.768</ele>
        <time>2021-05-05T16:41:28Z</time>
      </trkpt>
      <trkpt lat="38.339029" lon="-0.511535">
        <ele>40.130</ele>
        <time>2021-05-05T16:41:30Z</time>
      </trkpt>
      <trkpt lat="38.339032" lon="-0.511445">
        <ele>40.127</ele>
        <time>2021-05-05T16:41:31Z</time>
      </trkpt>
      <trkpt lat="38.339035" lon="-0.511372">
        <ele>39.882</ele>
        <time>2021-05-05T16:41:33Z</time>
      </trkpt>
      <trkpt lat="38.339040" lon="-0.511262">
        <ele>39.533</ele>
        <time>2021-05-05T16:41:35Z</time>
      </trkpt>
      <trkpt lat="38.339046" lon="-0.511179">
        <ele>39.023</ele>
        <time>2021-05-05T16:41:37Z</time>
      </trkpt>
      <trkpt lat="38.339050" lon="-0.511090">
        <ele>38.915</ele>
        <time>2021-05-05T16:41:39Z</time>
      </trkpt>
      <trkpt lat="38.339054" lon="-0.511001">
        <ele>38.808</ele>
        <time>2021-05-05T16:41:41Z</time>
      </trkpt>
      <trkpt lat="38.339059" lon="-0.510909">
        <ele>39.070</ele>
        <time>2021-05-05T16:41:43Z</time>
      </trkpt>
      <trkpt lat="38.339065" lon="-0.510815">
        <ele>39.255</ele>
        <time>2021-05-05T16:41:45Z</time>
      </trkpt>
      <trkpt lat="38.339071" lon="-0.510745">
        <ele>38.795</ele>
        <time>2021-05-05T16:41:47Z</time>
      </trkpt>
      <trkpt lat="38.339074" lon="-0.510679">
        <ele>38.478</ele>
        <time>2021-05-05T16:41:48Z</time>
      </trkpt>
      <trkpt lat="38.339075" lon="-0.510621">
        <ele>38.318</ele>
        <time>2021-05-05T16:41:49Z</time>
      </trkpt>
      <trkpt lat="38.339080" lon="-0.510541">
        <ele>38.320</ele>
        <time>2021-05-05T16:41:51Z</time>
      </trkpt>
      <trkpt lat="38.339080" lon="-0.510480">
        <ele>38.357</ele>
        <time>2021-05-05T16:41:52Z</time>
      </trkpt>
      <trkpt lat="38.339081" lon="-0.510413">
        <ele>38.482</ele>
        <time>2021-05-05T16:41:54Z</time>
      </trkpt>
      <trkpt lat="38.339085" lon="-0.510323">
        <ele>38.255</ele>
        <time>2021-05-05T16:41:56Z</time>
      </trkpt>
      <trkpt lat="38.339092" lon="-0.510265">
        <ele>38.307</ele>
        <time>2021-05-05T16:41:57Z</time>
      </trkpt>
      <trkpt lat="38.339097" lon="-0.510197">
        <ele>38.617</ele>
        <time>2021-05-05T16:41:59Z</time>
      </trkpt>
      <trkpt lat="38.339099" lon="-0.510130">
        <ele>38.908</ele>
        <time>2021-05-05T16:42:00Z</time>
      </trkpt>
      <trkpt lat="38.339103" lon="-0.510064">
        <ele>39.032</ele>
        <time>2021-05-05T16:42:02Z</time>
      </trkpt>
      <trkpt lat="38.339104" lon="-0.509993">
        <ele>38.987</ele>
        <time>2021-05-05T16:42:03Z</time>
      </trkpt>
      <trkpt lat="38.339109" lon="-0.509911">
        <ele>38.967</ele>
        <time>2021-05-05T16:42:05Z</time>
      </trkpt>
      <trkpt lat="38.339114" lon="-0.509823">
        <ele>38.940</ele>
        <time>2021-05-05T16:42:07Z</time>
      </trkpt>
      <trkpt lat="38.339124" lon="-0.509744">
        <ele>39.230</ele>
        <time>2021-05-05T16:42:09Z</time>
      </trkpt>
      <trkpt lat="38.339133" lon="-0.509674">
        <ele>39.582</ele>
        <time>2021-05-05T16:42:10Z</time>
      </trkpt>
      <trkpt lat="38.339143" lon="-0.509617">
        <ele>39.659</ele>
        <time>2021-05-05T16:42:12Z</time>
      </trkpt>
      <trkpt lat="38.339147" lon="-0.509549">
        <ele>39.894</ele>
        <time>2021-05-05T16:42:13Z</time>
      </trkpt>
      <trkpt lat="38.339143" lon="-0.509469">
        <ele>39.758</ele>
        <time>2021-05-05T16:42:15Z</time>
      </trkpt>
      <trkpt lat="38.339154" lon="-0.509368">
        <ele>39.452</ele>
        <time>2021-05-05T16:42:17Z</time>
      </trkpt>
      <trkpt lat="38.339157" lon="-0.509287">
        <ele>38.917</ele>
        <time>2021-05-05T16:42:19Z</time>
      </trkpt>
      <trkpt lat="38.339158" lon="-0.509226">
        <ele>38.808</ele>
        <time>2021-05-05T16:42:20Z</time>
      </trkpt>
      <trkpt lat="38.339161" lon="-0.509157">
        <ele>38.942</ele>
        <time>2021-05-05T16:42:22Z</time>
      </trkpt>
      <trkpt lat="38.339165" lon="-0.509088">
        <ele>39.287</ele>
        <time>2021-05-05T16:42:23Z</time>
      </trkpt>
      <trkpt lat="38.339173" lon="-0.508998">
        <ele>39.197</ele>
        <time>2021-05-05T16:42:25Z</time>
      </trkpt>
      <trkpt lat="38.339177" lon="-0.508935">
        <ele>39.010</ele>
        <time>2021-05-05T16:42:27Z</time>
      </trkpt>
      <trkpt lat="38.339178" lon="-0.508865">
        <ele>38.840</ele>
        <time>2021-05-05T16:42:28Z</time>
      </trkpt>
      <trkpt lat="38.339182" lon="-0.508779">
        <ele>38.732</ele>
        <time>2021-05-05T16:42:30Z</time>
      </trkpt>
      <trkpt lat="38.339189" lon="-0.508689">
        <ele>38.589</ele>
        <time>2021-05-05T16:42:32Z</time>
      </trkpt>
      <trkpt lat="38.339192" lon="-0.508593">
        <ele>37.774</ele>
        <time>2021-05-05T16:42:34Z</time>
      </trkpt>
      <trkpt lat="38.339189" lon="-0.508504">
        <ele>37.336</ele>
        <time>2021-05-05T16:42:36Z</time>
      </trkpt>
      <trkpt lat="38.339219" lon="-0.508422">
        <ele>37.217</ele>
        <time>2021-05-05T16:42:38Z</time>
      </trkpt>
      <trkpt lat="38.339238" lon="-0.508365">
        <ele>37.118</ele>
        <time>2021-05-05T16:42:40Z</time>
      </trkpt>
      <trkpt lat="38.339282" lon="-0.508315">
        <ele>37.108</ele>
        <time>2021-05-05T16:42:42Z</time>
      </trkpt>
      <trkpt lat="38.339334" lon="-0.508280">
        <ele>37.290</ele>
        <time>2021-05-05T16:42:44Z</time>
      </trkpt>
      <trkpt lat="38.339386" lon="-0.508262">
        <ele>37.545</ele>
        <time>2021-05-05T16:42:46Z</time>
      </trkpt>
      <trkpt lat="38.339438" lon="-0.508259">
        <ele>38.045</ele>
        <time>2021-05-05T16:42:48Z</time>
      </trkpt>
      <trkpt lat="38.339471" lon="-0.508213">
        <ele>38.778</ele>
        <time>2021-05-05T16:43:32Z</time>
      </trkpt>
      <trkpt lat="38.339479" lon="-0.508116">
        <ele>39.368</ele>
        <time>2021-05-05T16:43:34Z</time>
      </trkpt>
      <trkpt lat="38.339492" lon="-0.508031">
        <ele>40.060</ele>
        <time>2021-05-05T16:43:36Z</time>
      </trkpt>
      <trkpt lat="38.339538" lon="-0.508007">
        <ele>40.787</ele>
        <time>2021-05-05T16:43:38Z</time>
      </trkpt>
      <trkpt lat="38.339604" lon="-0.507991">
        <ele>40.942</ele>
        <time>2021-05-05T16:43:41Z</time>
      </trkpt>
      <trkpt lat="38.339650" lon="-0.507987">
        <ele>41.455</ele>
        <time>2021-05-05T16:43:44Z</time>
      </trkpt>
      <trkpt lat="38.339703" lon="-0.507981">
        <ele>41.607</ele>
        <time>2021-05-05T16:43:46Z</time>
      </trkpt>
      <trkpt lat="38.339758" lon="-0.508003">
        <ele>41.517</ele>
        <time>2021-05-05T16:43:48Z</time>
      </trkpt>
      <trkpt lat="38.339815" lon="-0.508023">
        <ele>41.408</ele>
        <time>2021-05-05T16:43:50Z</time>
      </trkpt>
      <trkpt lat="38.339881" lon="-0.508030">
        <ele>41.522</ele>
        <time>2021-05-05T16:43:52Z</time>
      </trkpt>
      <trkpt lat="38.339961" lon="-0.508036">
        <ele>41.577</ele>
        <time>2021-05-05T16:43:54Z</time>
      </trkpt>
      <trkpt lat="38.340016" lon="-0.508034">
        <ele>41.627</ele>
        <time>2021-05-05T16:43:56Z</time>
      </trkpt>
      <trkpt lat="38.340070" lon="-0.508028">
        <ele>41.970</ele>
        <time>2021-05-05T16:43:57Z</time>
      </trkpt>
      <trkpt lat="38.340132" lon="-0.508024">
        <ele>42.140</ele>
        <time>2021-05-05T16:43:59Z</time>
      </trkpt>
      <trkpt lat="38.340191" lon="-0.508022">
        <ele>42.192</ele>
        <time>2021-05-05T16:44:01Z</time>
      </trkpt>
      <trkpt lat="38.340254" lon="-0.508018">
        <ele>41.989</ele>
        <time>2021-05-05T16:44:03Z</time>
      </trkpt>
      <trkpt lat="38.340307" lon="-0.508015">
        <ele>41.954</ele>
        <time>2021-05-05T16:44:05Z</time>
      </trkpt>
      <trkpt lat="38.340365" lon="-0.508002">
        <ele>42.147</ele>
        <time>2021-05-05T16:44:07Z</time>
      </trkpt>
      <trkpt lat="38.340430" lon="-0.507996">
        <ele>42.229</ele>
        <time>2021-05-05T16:44:09Z</time>
      </trkpt>
      <trkpt lat="38.340499" lon="-0.507992">
        <ele>42.421</ele>
        <time>2021-05-05T16:44:11Z</time>
      </trkpt>
      <trkpt lat="38.340563" lon="-0.507984">
        <ele>42.708</ele>
        <time>2021-05-05T16:44:13Z</time>
      </trkpt>
      <trkpt lat="38.340634" lon="-0.507970">
        <ele>43.341</ele>
        <time>2021-05-05T16:44:15Z</time>
      </trkpt>
      <trkpt lat="38.340702" lon="-0.507960">
        <ele>43.626</ele>
        <time>2021-05-05T16:44:17Z</time>
      </trkpt>
      <trkpt lat="38.340761" lon="-0.507952">
        <ele>43.766</ele>
        <time>2021-05-05T16:44:19Z</time>
      </trkpt>
      <trkpt lat="38.340827" lon="-0.507946">
        <ele>43.839</ele>
        <time>2021-05-05T16:44:21Z</time>
      </trkpt>
      <trkpt lat="38.340884" lon="-0.507937">
        <ele>44.189</ele>
        <time>2021-05-05T16:44:23Z</time>
      </trkpt>
      <trkpt lat="38.340931" lon="-0.507928">
        <ele>44.191</ele>
        <time>2021-05-05T16:44:24Z</time>
      </trkpt>
      <trkpt lat="38.340979" lon="-0.507921">
        <ele>44.278</ele>
        <time>2021-05-05T16:44:25Z</time>
      </trkpt>
      <trkpt lat="38.341040" lon="-0.507910">
        <ele>44.083</ele>
        <time>2021-05-05T16:44:27Z</time>
      </trkpt>
      <trkpt lat="38.341092" lon="-0.507888">
        <ele>44.246</ele>
        <time>2021-05-05T16:44:29Z</time>
      </trkpt>
      <trkpt lat="38.341131" lon="-0.507851">
        <ele>44.588</ele>
        <time>2021-05-05T16:44:31Z</time>
      </trkpt>
      <trkpt lat="38.341178" lon="-0.507809">
        <ele>44.516</ele>
        <time>2021-05-05T16:44:33Z</time>
      </trkpt>
      <trkpt lat="38.341224" lon="-0.507768">
        <ele>44.508</ele>
        <time>2021-05-05T16:44:35Z</time>
      </trkpt>
      <trkpt lat="38.341274" lon="-0.507745">
        <ele>44.621</ele>
        <time>2021-05-05T16:44:37Z</time>
      </trkpt>
      <trkpt lat="38.341328" lon="-0.507714">
        <ele>44.666</ele>
        <time>2021-05-05T16:44:40Z</time>
      </trkpt>
      <trkpt lat="38.341383" lon="-0.507698">
        <ele>44.636</ele>
        <time>2021-05-05T16:44:42Z</time>
      </trkpt>
      <trkpt lat="38.341431" lon="-0.507684">
        <ele>44.269</ele>
        <time>2021-05-05T16:44:43Z</time>
      </trkpt>
      <trkpt lat="38.341482" lon="-0.507676">
        <ele>44.399</ele>
        <time>2021-05-05T16:44:45Z</time>
      </trkpt>
      <trkpt lat="38.341544" lon="-0.507666">
        <ele>44.361</ele>
        <time>2021-05-05T16:44:47Z</time>
      </trkpt>
      <trkpt lat="38.341615" lon="-0.507650">
        <ele>44.348</ele>
        <time>2021-05-05T16:44:50Z</time>
      </trkpt>
      <trkpt lat="38.341663" lon="-0.507637">
        <ele>44.453</ele>
        <time>2021-05-05T16:44:53Z</time>
      </trkpt>
      <trkpt lat="38.341712" lon="-0.507632">
        <ele>44.118</ele>
        <time>2021-05-05T16:44:54Z</time>
      </trkpt>
      <trkpt lat="38.341767" lon="-0.507615">
        <ele>44.298</ele>
        <time>2021-05-05T16:44:56Z</time>
      </trkpt>
      <trkpt lat="38.341831" lon="-0.507600">
        <ele>44.617</ele>
        <time>2021-05-05T16:44:58Z</time>
      </trkpt>
      <trkpt lat="38.341863" lon="-0.507515">
        <ele>44.708</ele>
        <time>2021-05-05T16:45:01Z</time>
      </trkpt>
      <trkpt lat="38.341886" lon="-0.507457">
        <ele>44.528</ele>
        <time>2021-05-05T16:45:03Z</time>
      </trkpt>
      <trkpt lat="38.341902" lon="-0.507398">
        <ele>44.343</ele>
        <time>2021-05-05T16:45:04Z</time>
      </trkpt>
      <trkpt lat="38.341919" lon="-0.507320">
        <ele>44.323</ele>
        <time>2021-05-05T16:45:06Z</time>
      </trkpt>
      <trkpt lat="38.341938" lon="-0.507245">
        <ele>44.296</ele>
        <time>2021-05-05T16:45:08Z</time>
      </trkpt>
      <trkpt lat="38.341960" lon="-0.507165">
        <ele>44.096</ele>
        <time>2021-05-05T16:45:10Z</time>
      </trkpt>
      <trkpt lat="38.341986" lon="-0.507092">
        <ele>43.698</ele>
        <time>2021-05-05T16:45:12Z</time>
      </trkpt>
      <trkpt lat="38.342004" lon="-0.507010">
        <ele>43.815</ele>
        <time>2021-05-05T16:45:14Z</time>
      </trkpt>
      <trkpt lat="38.342021" lon="-0.506942">
        <ele>43.630</ele>
        <time>2021-05-05T16:45:15Z</time>
      </trkpt>
      <trkpt lat="38.342052" lon="-0.506856">
        <ele>43.313</ele>
        <time>2021-05-05T16:45:17Z</time>
      </trkpt>
      <trkpt lat="38.342070" lon="-0.506776">
        <ele>43.343</ele>
        <time>2021-05-05T16:45:19Z</time>
      </trkpt>
      <trkpt lat="38.342094" lon="-0.506696">
        <ele>43.307</ele>
        <time>2021-05-05T16:45:21Z</time>
      </trkpt>
      <trkpt lat="38.342107" lon="-0.506635">
        <ele>43.308</ele>
        <time>2021-05-05T16:45:23Z</time>
      </trkpt>
      <trkpt lat="38.342133" lon="-0.506546">
        <ele>43.268</ele>
        <time>2021-05-05T16:45:25Z</time>
      </trkpt>
      <trkpt lat="38.342147" lon="-0.506485">
        <ele>43.013</ele>
        <time>2021-05-05T16:45:26Z</time>
      </trkpt>
      <trkpt lat="38.342177" lon="-0.506393">
        <ele>42.833</ele>
        <time>2021-05-05T16:45:28Z</time>
      </trkpt>
      <trkpt lat="38.342197" lon="-0.506309">
        <ele>42.676</ele>
        <time>2021-05-05T16:45:30Z</time>
      </trkpt>
      <trkpt lat="38.342212" lon="-0.506237">
        <ele>42.056</ele>
        <time>2021-05-05T16:45:32Z</time>
      </trkpt>
      <trkpt lat="38.342232" lon="-0.506166">
        <ele>41.688</ele>
        <time>2021-05-05T16:45:34Z</time>
      </trkpt>
      <trkpt lat="38.342256" lon="-0.506089">
        <ele>41.575</ele>
        <time>2021-05-05T16:45:36Z</time>
      </trkpt>
      <trkpt lat="38.342273" lon="-0.506018">
        <ele>40.990</ele>
        <time>2021-05-05T16:45:38Z</time>
      </trkpt>
      <trkpt lat="38.342310" lon="-0.505928">
        <ele>39.914</ele>
        <time>2021-05-05T16:45:40Z</time>
      </trkpt>
      <trkpt lat="38.342328" lon="-0.505871">
        <ele>39.854</ele>
        <time>2021-05-05T16:45:42Z</time>
      </trkpt>
      <trkpt lat="38.342341" lon="-0.505816">
        <ele>39.709</ele>
        <time>2021-05-05T16:45:43Z</time>
      </trkpt>
      <trkpt lat="38.342356" lon="-0.505757">
        <ele>39.808</ele>
        <time>2021-05-05T16:45:45Z</time>
      </trkpt>
      <trkpt lat="38.342371" lon="-0.505699">
        <ele>39.548</ele>
        <time>2021-05-05T16:45:46Z</time>
      </trkpt>
      <trkpt lat="38.342392" lon="-0.505637">
        <ele>39.083</ele>
        <time>2021-05-05T16:45:48Z</time>
      </trkpt>
      <trkpt lat="38.342418" lon="-0.505556">
        <ele>38.863</ele>
        <time>2021-05-05T16:45:51Z</time>
      </trkpt>
      <trkpt lat="38.342454" lon="-0.505505">
        <ele>38.616</ele>
        <time>2021-05-05T16:45:53Z</time>
      </trkpt>
      <trkpt lat="38.342499" lon="-0.505457">
        <ele>38.296</ele>
        <time>2021-05-05T16:45:55Z</time>
      </trkpt>
      <trkpt lat="38.342539" lon="-0.505416">
        <ele>38.038</ele>
        <time>2021-05-05T16:45:57Z</time>
      </trkpt>
      <trkpt lat="38.342605" lon="-0.505390">
        <ele>37.655</ele>
        <time>2021-05-05T16:46:00Z</time>
      </trkpt>
      <trkpt lat="38.342649" lon="-0.505358">
        <ele>37.740</ele>
        <time>2021-05-05T16:46:03Z</time>
      </trkpt>
      <trkpt lat="38.342702" lon="-0.505327">
        <ele>38.554</ele>
        <time>2021-05-05T16:46:06Z</time>
      </trkpt>
      <trkpt lat="38.342766" lon="-0.505321">
        <ele>39.156</ele>
        <time>2021-05-05T16:46:09Z</time>
      </trkpt>
      <trkpt lat="38.342821" lon="-0.505311">
        <ele>39.911</ele>
        <time>2021-05-05T16:46:11Z</time>
      </trkpt>
      <trkpt lat="38.342867" lon="-0.505291">
        <ele>39.908</ele>
        <time>2021-05-05T16:46:14Z</time>
      </trkpt>
      <trkpt lat="38.342874" lon="-0.505232">
        <ele>40.762</ele>
        <time>2021-05-05T16:46:23Z</time>
      </trkpt>
      <trkpt lat="38.342870" lon="-0.505170">
        <ele>41.537</ele>
        <time>2021-05-05T16:46:27Z</time>
      </trkpt>
      <trkpt lat="38.342827" lon="-0.505138">
        <ele>41.977</ele>
        <time>2021-05-05T16:46:29Z</time>
      </trkpt>
      <trkpt lat="38.342783" lon="-0.505104">
        <ele>42.440</ele>
        <time>2021-05-05T16:46:31Z</time>
      </trkpt>
      <trkpt lat="38.342738" lon="-0.505070">
        <ele>41.950</ele>
        <time>2021-05-05T16:46:33Z</time>
      </trkpt>
      <trkpt lat="38.342715" lon="-0.505008">
        <ele>41.862</ele>
        <time>2021-05-05T16:46:36Z</time>
      </trkpt>
      <trkpt lat="38.342713" lon="-0.504944">
        <ele>41.129</ele>
        <time>2021-05-05T16:46:39Z</time>
      </trkpt>
      <trkpt lat="38.342704" lon="-0.504870">
        <ele>40.224</ele>
        <time>2021-05-05T16:46:42Z</time>
      </trkpt>
      <trkpt lat="38.342728" lon="-0.504806">
        <ele>39.842</ele>
        <time>2021-05-05T16:46:44Z</time>
      </trkpt>
      <trkpt lat="38.342785" lon="-0.504784">
        <ele>39.522</ele>
        <time>2021-05-05T16:46:46Z</time>
      </trkpt>
      <trkpt lat="38.342855" lon="-0.504796">
        <ele>38.814</ele>
        <time>2021-05-05T16:46:48Z</time>
      </trkpt>
      <trkpt lat="38.342912" lon="-0.504840">
        <ele>38.208</ele>
        <time>2021-05-05T16:46:50Z</time>
      </trkpt>
      <trkpt lat="38.342948" lon="-0.504899">
        <ele>37.891</ele>
        <time>2021-05-05T16:46:51Z</time>
      </trkpt>
      <trkpt lat="38.342968" lon="-0.504950">
        <ele>37.546</ele>
        <time>2021-05-05T16:46:52Z</time>
      </trkpt>
      <trkpt lat="38.343015" lon="-0.505045">
        <ele>37.716</ele>
        <time>2021-05-05T16:46:54Z</time>
      </trkpt>
      <trkpt lat="38.343062" lon="-0.505125">
        <ele>37.689</ele>
        <time>2021-05-05T16:46:56Z</time>
      </trkpt>
      <trkpt lat="38.343120" lon="-0.505207">
        <ele>37.439</ele>
        <time>2021-05-05T16:46:58Z</time>
      </trkpt>
      <trkpt lat="38.343169" lon="-0.505277">
        <ele>36.841</ele>
        <time>2021-05-05T16:47:00Z</time>
      </trkpt>
      <trkpt lat="38.343206" lon="-0.505334">
        <ele>36.538</ele>
        <time>2021-05-05T16:47:01Z</time>
      </trkpt>
      <trkpt lat="38.343243" lon="-0.505385">
        <ele>36.393</ele>
        <time>2021-05-05T16:47:02Z</time>
      </trkpt>
      <trkpt lat="38.343299" lon="-0.505461">
        <ele>36.882</ele>
        <time>2021-05-05T16:47:04Z</time>
      </trkpt>
      <trkpt lat="38.343333" lon="-0.505503">
        <ele>37.543</ele>
        <time>2021-05-05T16:47:05Z</time>
      </trkpt>
      <trkpt lat="38.343365" lon="-0.505546">
        <ele>38.017</ele>
        <time>2021-05-05T16:47:06Z</time>
      </trkpt>
      <trkpt lat="38.343407" lon="-0.505607">
        <ele>38.108</ele>
        <time>2021-05-05T16:47:08Z</time>
      </trkpt>
      <trkpt lat="38.343449" lon="-0.505664">
        <ele>38.615</ele>
        <time>2021-05-05T16:47:09Z</time>
      </trkpt>
      <trkpt lat="38.343495" lon="-0.505738">
        <ele>39.260</ele>
        <time>2021-05-05T16:47:11Z</time>
      </trkpt>
      <trkpt lat="38.343531" lon="-0.505790">
        <ele>39.460</ele>
        <time>2021-05-05T16:47:12Z</time>
      </trkpt>
      <trkpt lat="38.343579" lon="-0.505860">
        <ele>39.393</ele>
        <time>2021-05-05T16:47:14Z</time>
      </trkpt>
      <trkpt lat="38.343616" lon="-0.505917">
        <ele>39.483</ele>
        <time>2021-05-05T16:47:15Z</time>
      </trkpt>
      <trkpt lat="38.343647" lon="-0.505963">
        <ele>39.965</ele>
        <time>2021-05-05T16:47:16Z</time>
      </trkpt>
      <trkpt lat="38.343691" lon="-0.506028">
        <ele>40.272</ele>
        <time>2021-05-05T16:47:18Z</time>
      </trkpt>
      <trkpt lat="38.343730" lon="-0.506087">
        <ele>40.187</ele>
        <time>2021-05-05T16:47:19Z</time>
      </trkpt>
      <trkpt lat="38.343774" lon="-0.506155">
        <ele>39.874</ele>
        <time>2021-05-05T16:47:21Z</time>
      </trkpt>
      <trkpt lat="38.343808" lon="-0.506206">
        <ele>40.156</ele>
        <time>2021-05-05T16:47:22Z</time>
      </trkpt>
      <trkpt lat="38.343873" lon="-0.506268">
        <ele>40.521</ele>
        <time>2021-05-05T16:47:24Z</time>
      </trkpt>
      <trkpt lat="38.343936" lon="-0.506253">
        <ele>40.708</ele>
        <time>2021-05-05T16:47:26Z</time>
      </trkpt>
      <trkpt lat="38.343985" lon="-0.506193">
        <ele>40.374</ele>
        <time>2021-05-05T16:47:28Z</time>
      </trkpt>
      <trkpt lat="38.344024" lon="-0.506135">
        <ele>40.269</ele>
        <time>2021-05-05T16:47:30Z</time>
      </trkpt>
      <trkpt lat="38.344068" lon="-0.506047">
        <ele>40.059</ele>
        <time>2021-05-05T16:47:32Z</time>
      </trkpt>
      <trkpt lat="38.344101" lon="-0.505958">
        <ele>40.252</ele>
        <time>2021-05-05T16:47:34Z</time>
      </trkpt>
      <trkpt lat="38.344129" lon="-0.505868">
        <ele>40.312</ele>
        <time>2021-05-05T16:47:36Z</time>
      </trkpt>
      <trkpt lat="38.344160" lon="-0.505777">
        <ele>40.874</ele>
        <time>2021-05-05T16:47:38Z</time>
      </trkpt>
      <trkpt lat="38.344190" lon="-0.505696">
        <ele>41.691</ele>
        <time>2021-05-05T16:47:40Z</time>
      </trkpt>
      <trkpt lat="38.344221" lon="-0.505614">
        <ele>42.476</ele>
        <time>2021-05-05T16:47:42Z</time>
      </trkpt>
      <trkpt lat="38.344243" lon="-0.505537">
        <ele>43.051</ele>
        <time>2021-05-05T16:47:44Z</time>
      </trkpt>
      <trkpt lat="38.344274" lon="-0.505464">
        <ele>42.901</ele>
        <time>2021-05-05T16:47:46Z</time>
      </trkpt>
      <trkpt lat="38.344294" lon="-0.505411">
        <ele>42.811</ele>
        <time>2021-05-05T16:47:47Z</time>
      </trkpt>
      <trkpt lat="38.344318" lon="-0.505340">
        <ele>43.008</ele>
        <time>2021-05-05T16:47:49Z</time>
      </trkpt>
      <trkpt lat="38.344354" lon="-0.505250">
        <ele>43.482</ele>
        <time>2021-05-05T16:47:51Z</time>
      </trkpt>
      <trkpt lat="38.344390" lon="-0.505152">
        <ele>43.777</ele>
        <time>2021-05-05T16:47:53Z</time>
      </trkpt>
      <trkpt lat="38.344417" lon="-0.505086">
        <ele>44.187</ele>
        <time>2021-05-05T16:47:55Z</time>
      </trkpt>
      <trkpt lat="38.344441" lon="-0.505030">
        <ele>44.150</ele>
        <time>2021-05-05T16:47:56Z</time>
      </trkpt>
      <trkpt lat="38.344480" lon="-0.504947">
        <ele>44.340</ele>
        <time>2021-05-05T16:47:58Z</time>
      </trkpt>
      <trkpt lat="38.344511" lon="-0.504865">
        <ele>44.132</ele>
        <time>2021-05-05T16:48:00Z</time>
      </trkpt>
      <trkpt lat="38.344529" lon="-0.504805">
        <ele>44.279</ele>
        <time>2021-05-05T16:48:01Z</time>
      </trkpt>
      <trkpt lat="38.344565" lon="-0.504721">
        <ele>44.834</ele>
        <time>2021-05-05T16:48:03Z</time>
      </trkpt>
      <trkpt lat="38.344594" lon="-0.504675">
        <ele>44.833</ele>
        <time>2021-05-05T16:48:05Z</time>
      </trkpt>
      <trkpt lat="38.344627" lon="-0.504614">
        <ele>44.923</ele>
        <time>2021-05-05T16:48:06Z</time>
      </trkpt>
      <trkpt lat="38.344669" lon="-0.504516">
        <ele>44.615</ele>
        <time>2021-05-05T16:48:08Z</time>
      </trkpt>
      <trkpt lat="38.344706" lon="-0.504410">
        <ele>44.308</ele>
        <time>2021-05-05T16:48:10Z</time>
      </trkpt>
      <trkpt lat="38.344733" lon="-0.504337">
        <ele>43.820</ele>
        <time>2021-05-05T16:48:12Z</time>
      </trkpt>
      <trkpt lat="38.344762" lon="-0.504278">
        <ele>43.335</ele>
        <time>2021-05-05T16:48:13Z</time>
      </trkpt>
      <trkpt lat="38.344801" lon="-0.504193">
        <ele>43.155</ele>
        <time>2021-05-05T16:48:15Z</time>
      </trkpt>
      <trkpt lat="38.344834" lon="-0.504105">
        <ele>43.558</ele>
        <time>2021-05-05T16:48:17Z</time>
      </trkpt>
      <trkpt lat="38.344871" lon="-0.504021">
        <ele>43.558</ele>
        <time>2021-05-05T16:48:19Z</time>
      </trkpt>
      <trkpt lat="38.344906" lon="-0.503943">
        <ele>43.660</ele>
        <time>2021-05-05T16:48:21Z</time>
      </trkpt>
      <trkpt lat="38.344942" lon="-0.503882">
        <ele>43.557</ele>
        <time>2021-05-05T16:48:23Z</time>
      </trkpt>
      <trkpt lat="38.344977" lon="-0.503799">
        <ele>43.232</ele>
        <time>2021-05-05T16:48:25Z</time>
      </trkpt>
      <trkpt lat="38.344964" lon="-0.503715">
        <ele>43.398</ele>
        <time>2021-05-05T16:48:27Z</time>
      </trkpt>
      <trkpt lat="38.344938" lon="-0.503653">
        <ele>43.315</ele>
        <time>2021-05-05T16:48:29Z</time>
      </trkpt>
      <trkpt lat="38.344959" lon="-0.503577">
        <ele>43.126</ele>
        <time>2021-05-05T16:48:30Z</time>
      </trkpt>
      <trkpt lat="38.345000" lon="-0.503526">
        <ele>43.008</ele>
        <time>2021-05-05T16:48:32Z</time>
      </trkpt>
      <trkpt lat="38.345041" lon="-0.503478">
        <ele>42.766</ele>
        <time>2021-05-05T16:48:33Z</time>
      </trkpt>
      <trkpt lat="38.345078" lon="-0.503432">
        <ele>42.581</ele>
        <time>2021-05-05T16:48:34Z</time>
      </trkpt>
      <trkpt lat="38.345142" lon="-0.503413">
        <ele>43.871</ele>
        <time>2021-05-05T16:48:35Z</time>
      </trkpt>
      <trkpt lat="38.345238" lon="-0.503390">
        <ele>44.944</ele>
        <time>2021-05-05T16:48:37Z</time>
      </trkpt>
      <trkpt lat="38.345283" lon="-0.503377">
        <ele>45.614</ele>
        <time>2021-05-05T16:48:38Z</time>
      </trkpt>
      <trkpt lat="38.345335" lon="-0.503366">
        <ele>46.996</ele>
        <time>2021-05-05T16:48:39Z</time>
      </trkpt>
      <trkpt lat="38.345435" lon="-0.503347">
        <ele>48.243</ele>
        <time>2021-05-05T16:48:41Z</time>
      </trkpt>
      <trkpt lat="38.345481" lon="-0.503336">
        <ele>49.128</ele>
        <time>2021-05-05T16:48:42Z</time>
      </trkpt>
      <trkpt lat="38.345570" lon="-0.503314">
        <ele>50.332</ele>
        <time>2021-05-05T16:48:44Z</time>
      </trkpt>
      <trkpt lat="38.345614" lon="-0.503299">
        <ele>50.692</ele>
        <time>2021-05-05T16:48:45Z</time>
      </trkpt>
      <trkpt lat="38.345693" lon="-0.503281">
        <ele>50.311</ele>
        <time>2021-05-05T16:48:47Z</time>
      </trkpt>
      <trkpt lat="38.345759" lon="-0.503256">
        <ele>49.508</ele>
        <time>2021-05-05T16:48:49Z</time>
      </trkpt>
      <trkpt lat="38.345815" lon="-0.503236">
        <ele>49.150</ele>
        <time>2021-05-05T16:48:50Z</time>
      </trkpt>
      <trkpt lat="38.345862" lon="-0.503209">
        <ele>48.685</ele>
        <time>2021-05-05T16:48:51Z</time>
      </trkpt>
      <trkpt lat="38.345939" lon="-0.503192">
        <ele>48.485</ele>
        <time>2021-05-05T16:48:53Z</time>
      </trkpt>
      <trkpt lat="38.345995" lon="-0.503214">
        <ele>47.458</ele>
        <time>2021-05-05T16:48:55Z</time>
      </trkpt>
      <trkpt lat="38.346068" lon="-0.503175">
        <ele>46.828</ele>
        <time>2021-05-05T16:48:57Z</time>
      </trkpt>
      <trkpt lat="38.346121" lon="-0.503198">
        <ele>46.410</ele>
        <time>2021-05-05T16:48:58Z</time>
      </trkpt>
      <trkpt lat="38.346164" lon="-0.503252">
        <ele>46.127</ele>
        <time>2021-05-05T16:49:00Z</time>
      </trkpt>
      <trkpt lat="38.346196" lon="-0.503303">
        <ele>45.872</ele>
        <time>2021-05-05T16:49:02Z</time>
      </trkpt>
      <trkpt lat="38.346226" lon="-0.503353">
        <ele>45.587</ele>
        <time>2021-05-05T16:49:04Z</time>
      </trkpt>
      <trkpt lat="38.346253" lon="-0.503405">
        <ele>45.242</ele>
        <time>2021-05-05T16:49:05Z</time>
      </trkpt>
      <trkpt lat="38.346279" lon="-0.503467">
        <ele>44.826</ele>
        <time>2021-05-05T16:49:07Z</time>
      </trkpt>
      <trkpt lat="38.346307" lon="-0.503528">
        <ele>44.008</ele>
        <time>2021-05-05T16:49:09Z</time>
      </trkpt>
      <trkpt lat="38.346317" lon="-0.503590">
        <ele>44.035</ele>
        <time>2021-05-05T16:49:12Z</time>
      </trkpt>
      <trkpt lat="38.346317" lon="-0.503662">
        <ele>44.160</ele>
        <time>2021-05-05T16:49:31Z</time>
      </trkpt>
      <trkpt lat="38.346363" lon="-0.503690">
        <ele>44.190</ele>
        <time>2021-05-05T16:49:34Z</time>
      </trkpt>
      <trkpt lat="38.346414" lon="-0.503675">
        <ele>44.373</ele>
        <time>2021-05-05T16:49:36Z</time>
      </trkpt>
      <trkpt lat="38.346454" lon="-0.503628">
        <ele>44.453</ele>
        <time>2021-05-05T16:49:39Z</time>
      </trkpt>
      <trkpt lat="38.346481" lon="-0.503580">
        <ele>44.315</ele>
        <time>2021-05-05T16:49:41Z</time>
      </trkpt>
      <trkpt lat="38.346521" lon="-0.503542">
        <ele>44.452</ele>
        <time>2021-05-05T16:49:43Z</time>
      </trkpt>
      <trkpt lat="38.346568" lon="-0.503547">
        <ele>44.467</ele>
        <time>2021-05-05T16:49:45Z</time>
      </trkpt>
      <trkpt lat="38.346610" lon="-0.503597">
        <ele>44.555</ele>
        <time>2021-05-05T16:49:48Z</time>
      </trkpt>
      <trkpt lat="38.346633" lon="-0.503664">
        <ele>44.407</ele>
        <time>2021-05-05T16:49:51Z</time>
      </trkpt>
      <trkpt lat="38.346654" lon="-0.503739">
        <ele>44.517</ele>
        <time>2021-05-05T16:49:54Z</time>
      </trkpt>
      <trkpt lat="38.346676" lon="-0.503809">
        <ele>44.908</ele>
        <time>2021-05-05T16:49:57Z</time>
      </trkpt>
      <trkpt lat="38.346701" lon="-0.503864">
        <ele>45.312</ele>
        <time>2021-05-05T16:50:00Z</time>
      </trkpt>
      <trkpt lat="38.346736" lon="-0.503913">
        <ele>45.177</ele>
        <time>2021-05-05T16:50:04Z</time>
      </trkpt>
      <trkpt lat="38.346779" lon="-0.503856">
        <ele>45.267</ele>
        <time>2021-05-05T16:50:24Z</time>
      </trkpt>
      <trkpt lat="38.346833" lon="-0.503826">
        <ele>45.540</ele>
        <time>2021-05-05T16:50:28Z</time>
      </trkpt>
      <trkpt lat="38.346874" lon="-0.503775">
        <ele>45.360</ele>
        <time>2021-05-05T16:50:30Z</time>
      </trkpt>
      <trkpt lat="38.346913" lon="-0.503728">
        <ele>45.692</ele>
        <time>2021-05-05T16:50:31Z</time>
      </trkpt>
      <trkpt lat="38.347021" lon="-0.503666">
        <ele>46.139</ele>
        <time>2021-05-05T16:50:33Z</time>
      </trkpt>
      <trkpt lat="38.347123" lon="-0.503662">
        <ele>46.094</ele>
        <time>2021-05-05T16:50:35Z</time>
      </trkpt>
      <trkpt lat="38.347175" lon="-0.503688">
        <ele>45.941</ele>
        <time>2021-05-05T16:50:37Z</time>
      </trkpt>
      <trkpt lat="38.347246" lon="-0.503721">
        <ele>45.881</ele>
        <time>2021-05-05T16:50:38Z</time>
      </trkpt>
      <trkpt lat="38.347337" lon="-0.503704">
        <ele>45.809</ele>
        <time>2021-05-05T16:50:40Z</time>
      </trkpt>
      <trkpt lat="38.347397" lon="-0.503657">
        <ele>45.308</ele>
        <time>2021-05-05T16:50:42Z</time>
      </trkpt>
      <trkpt lat="38.347442" lon="-0.503627">
        <ele>44.351</ele>
        <time>2021-05-05T16:50:43Z</time>
      </trkpt>
      <trkpt lat="38.347495" lon="-0.503593">
        <ele>43.676</ele>
        <time>2021-05-05T16:50:44Z</time>
      </trkpt>
      <trkpt lat="38.347538" lon="-0.503559">
        <ele>43.246</ele>
        <time>2021-05-05T16:50:45Z</time>
      </trkpt>
      <trkpt lat="38.347591" lon="-0.503522">
        <ele>43.149</ele>
        <time>2021-05-05T16:50:47Z</time>
      </trkpt>
      <trkpt lat="38.347657" lon="-0.503488">
        <ele>43.129</ele>
        <time>2021-05-05T16:50:48Z</time>
      </trkpt>
      <trkpt lat="38.347717" lon="-0.503456">
        <ele>43.221</ele>
        <time>2021-05-05T16:50:50Z</time>
      </trkpt>
      <trkpt lat="38.347807" lon="-0.503407">
        <ele>43.128</ele>
        <time>2021-05-05T16:50:52Z</time>
      </trkpt>
      <trkpt lat="38.347872" lon="-0.503379">
        <ele>43.513</ele>
        <time>2021-05-05T16:50:54Z</time>
      </trkpt>
      <trkpt lat="38.347935" lon="-0.503349">
        <ele>43.918</ele>
        <time>2021-05-05T16:50:55Z</time>
      </trkpt>
      <trkpt lat="38.347981" lon="-0.503330">
        <ele>44.398</ele>
        <time>2021-05-05T16:50:56Z</time>
      </trkpt>
      <trkpt lat="38.348041" lon="-0.503303">
        <ele>44.617</ele>
        <time>2021-05-05T16:50:58Z</time>
      </trkpt>
      <trkpt lat="38.348106" lon="-0.503273">
        <ele>45.008</ele>
        <time>2021-05-05T16:50:59Z</time>
      </trkpt>
      <trkpt lat="38.348171" lon="-0.503244">
        <ele>45.378</ele>
        <time>2021-05-05T16:51:01Z</time>
      </trkpt>
      <trkpt lat="38.348217" lon="-0.503224">
        <ele>45.833</ele>
        <time>2021-05-05T16:51:02Z</time>
      </trkpt>
      <trkpt lat="38.348285" lon="-0.503194">
        <ele>46.313</ele>
        <time>2021-05-05T16:51:04Z</time>
      </trkpt>
      <trkpt lat="38.348333" lon="-0.503174">
        <ele>46.736</ele>
        <time>2021-05-05T16:51:05Z</time>
      </trkpt>
      <trkpt lat="38.348383" lon="-0.503151">
        <ele>46.976</ele>
        <time>2021-05-05T16:51:06Z</time>
      </trkpt>
      <trkpt lat="38.348469" lon="-0.503112">
        <ele>46.728</ele>
        <time>2021-05-05T16:51:08Z</time>
      </trkpt>
      <trkpt lat="38.348531" lon="-0.503092">
        <ele>47.065</ele>
        <time>2021-05-05T16:51:10Z</time>
      </trkpt>
      <trkpt lat="38.348594" lon="-0.503069">
        <ele>47.430</ele>
        <time>2021-05-05T16:51:12Z</time>
      </trkpt>
      <trkpt lat="38.348665" lon="-0.503038">
        <ele>48.083</ele>
        <time>2021-05-05T16:51:14Z</time>
      </trkpt>
      <trkpt lat="38.348727" lon="-0.503006">
        <ele>47.925</ele>
        <time>2021-05-05T16:51:16Z</time>
      </trkpt>
      <trkpt lat="38.348784" lon="-0.502978">
        <ele>47.917</ele>
        <time>2021-05-05T16:51:18Z</time>
      </trkpt>
      <trkpt lat="38.348826" lon="-0.502957">
        <ele>48.008</ele>
        <time>2021-05-05T16:51:20Z</time>
      </trkpt>
      <trkpt lat="38.348879" lon="-0.502917">
        <ele>48.025</ele>
        <time>2021-05-05T16:51:22Z</time>
      </trkpt>
      <trkpt lat="38.348935" lon="-0.502850">
        <ele>48.270</ele>
        <time>2021-05-05T16:51:24Z</time>
      </trkpt>
      <trkpt lat="38.348971" lon="-0.502768">
        <ele>48.160</ele>
        <time>2021-05-05T16:51:26Z</time>
      </trkpt>
      <trkpt lat="38.349000" lon="-0.502694">
        <ele>48.143</ele>
        <time>2021-05-05T16:51:28Z</time>
      </trkpt>
      <trkpt lat="38.349027" lon="-0.502641">
        <ele>48.443</ele>
        <time>2021-05-05T16:51:29Z</time>
      </trkpt>
      <trkpt lat="38.349059" lon="-0.502563">
        <ele>48.465</ele>
        <time>2021-05-05T16:51:31Z</time>
      </trkpt>
      <trkpt lat="38.349090" lon="-0.502484">
        <ele>48.322</ele>
        <time>2021-05-05T16:51:33Z</time>
      </trkpt>
      <trkpt lat="38.349121" lon="-0.502407">
        <ele>48.537</ele>
        <time>2021-05-05T16:51:35Z</time>
      </trkpt>
      <trkpt lat="38.349157" lon="-0.502329">
        <ele>48.679</ele>
        <time>2021-05-05T16:51:37Z</time>
      </trkpt>
      <trkpt lat="38.349192" lon="-0.502249">
        <ele>48.805</ele>
        <time>2021-05-05T16:51:39Z</time>
      </trkpt>
      <trkpt lat="38.349224" lon="-0.502178">
        <ele>49.125</ele>
        <time>2021-05-05T16:51:41Z</time>
      </trkpt>
      <trkpt lat="38.349251" lon="-0.502117">
        <ele>49.608</ele>
        <time>2021-05-05T16:51:43Z</time>
      </trkpt>
      <trkpt lat="38.349274" lon="-0.502064">
        <ele>49.874</ele>
        <time>2021-05-05T16:51:44Z</time>
      </trkpt>
      <trkpt lat="38.349311" lon="-0.501993">
        <ele>49.599</ele>
        <time>2021-05-05T16:51:46Z</time>
      </trkpt>
      <trkpt lat="38.349341" lon="-0.501934">
        <ele>49.369</ele>
        <time>2021-05-05T16:51:48Z</time>
      </trkpt>
      <trkpt lat="38.349380" lon="-0.501854">
        <ele>49.082</ele>
        <time>2021-05-05T16:51:50Z</time>
      </trkpt>
      <trkpt lat="38.349400" lon="-0.501800">
        <ele>48.962</ele>
        <time>2021-05-05T16:51:52Z</time>
      </trkpt>
      <trkpt lat="38.349445" lon="-0.501741">
        <ele>48.834</ele>
        <time>2021-05-05T16:51:54Z</time>
      </trkpt>
      <trkpt lat="38.349485" lon="-0.501671">
        <ele>49.151</ele>
        <time>2021-05-05T16:51:56Z</time>
      </trkpt>
      <trkpt lat="38.349524" lon="-0.501608">
        <ele>49.586</ele>
        <time>2021-05-05T16:51:58Z</time>
      </trkpt>
      <trkpt lat="38.349560" lon="-0.501552">
        <ele>49.639</ele>
        <time>2021-05-05T16:52:00Z</time>
      </trkpt>
      <trkpt lat="38.349595" lon="-0.501495">
        <ele>49.601</ele>
        <time>2021-05-05T16:52:02Z</time>
      </trkpt>
      <trkpt lat="38.349629" lon="-0.501434">
        <ele>49.821</ele>
        <time>2021-05-05T16:52:04Z</time>
      </trkpt>
      <trkpt lat="38.349665" lon="-0.501374">
        <ele>49.908</ele>
        <time>2021-05-05T16:52:06Z</time>
      </trkpt>
      <trkpt lat="38.349704" lon="-0.501305">
        <ele>50.210</ele>
        <time>2021-05-05T16:52:08Z</time>
      </trkpt>
      <trkpt lat="38.349733" lon="-0.501228">
        <ele>50.485</ele>
        <time>2021-05-05T16:52:10Z</time>
      </trkpt>
      <trkpt lat="38.349761" lon="-0.501169">
        <ele>50.695</ele>
        <time>2021-05-05T16:52:12Z</time>
      </trkpt>
      <trkpt lat="38.349793" lon="-0.501098">
        <ele>50.748</ele>
        <time>2021-05-05T16:52:14Z</time>
      </trkpt>
      <trkpt lat="38.349838" lon="-0.501022">
        <ele>51.348</ele>
        <time>2021-05-05T16:52:16Z</time>
      </trkpt>
      <trkpt lat="38.349868" lon="-0.500935">
        <ele>51.780</ele>
        <time>2021-05-05T16:52:18Z</time>
      </trkpt>
      <trkpt lat="38.349895" lon="-0.500869">
        <ele>52.417</ele>
        <time>2021-05-05T16:52:20Z</time>
      </trkpt>
      <trkpt lat="38.349918" lon="-0.500801">
        <ele>52.822</ele>
        <time>2021-05-05T16:52:22Z</time>
      </trkpt>
      <trkpt lat="38.349939" lon="-0.500743">
        <ele>53.761</ele>
        <time>2021-05-05T16:52:23Z</time>
      </trkpt>
      <trkpt lat="38.349970" lon="-0.500670">
        <ele>54.121</ele>
        <time>2021-05-05T16:52:25Z</time>
      </trkpt>
      <trkpt lat="38.349992" lon="-0.500613">
        <ele>54.513</ele>
        <time>2021-05-05T16:52:27Z</time>
      </trkpt>
      <trkpt lat="38.350007" lon="-0.500555">
        <ele>54.608</ele>
        <time>2021-05-05T16:52:28Z</time>
      </trkpt>
      <trkpt lat="38.350030" lon="-0.500498">
        <ele>54.473</ele>
        <time>2021-05-05T16:52:30Z</time>
      </trkpt>
      <trkpt lat="38.350057" lon="-0.500431">
        <ele>54.318</ele>
        <time>2021-05-05T16:52:32Z</time>
      </trkpt>
      <trkpt lat="38.350086" lon="-0.500357">
        <ele>54.298</ele>
        <time>2021-05-05T16:52:34Z</time>
      </trkpt>
      <trkpt lat="38.350126" lon="-0.500276">
        <ele>54.211</ele>
        <time>2021-05-05T16:52:36Z</time>
      </trkpt>
      <trkpt lat="38.350154" lon="-0.500204">
        <ele>54.291</ele>
        <time>2021-05-05T16:52:38Z</time>
      </trkpt>
      <trkpt lat="38.350182" lon="-0.500136">
        <ele>54.453</ele>
        <time>2021-05-05T16:52:40Z</time>
      </trkpt>
      <trkpt lat="38.350221" lon="-0.500053">
        <ele>54.630</ele>
        <time>2021-05-05T16:52:42Z</time>
      </trkpt>
      <trkpt lat="38.350235" lon="-0.499974">
        <ele>54.645</ele>
        <time>2021-05-05T16:52:44Z</time>
      </trkpt>
      <trkpt lat="38.350268" lon="-0.499919">
        <ele>55.052</ele>
        <time>2021-05-05T16:52:46Z</time>
      </trkpt>
      <trkpt lat="38.350295" lon="-0.499858">
        <ele>55.753</ele>
        <time>2021-05-05T16:52:48Z</time>
      </trkpt>
      <trkpt lat="38.350339" lon="-0.499759">
        <ele>56.008</ele>
        <time>2021-05-05T16:52:51Z</time>
      </trkpt>
      <trkpt lat="38.350368" lon="-0.499693">
        <ele>56.208</ele>
        <time>2021-05-05T16:52:53Z</time>
      </trkpt>
      <trkpt lat="38.350399" lon="-0.499627">
        <ele>56.142</ele>
        <time>2021-05-05T16:52:55Z</time>
      </trkpt>
      <trkpt lat="38.350437" lon="-0.499550">
        <ele>55.977</ele>
        <time>2021-05-05T16:52:57Z</time>
      </trkpt>
      <trkpt lat="38.350468" lon="-0.499488">
        <ele>56.067</ele>
        <time>2021-05-05T16:52:59Z</time>
      </trkpt>
      <trkpt lat="38.350505" lon="-0.499420">
        <ele>56.420</ele>
        <time>2021-05-05T16:53:01Z</time>
      </trkpt>
      <trkpt lat="38.350535" lon="-0.499369">
        <ele>56.660</ele>
        <time>2021-05-05T16:53:02Z</time>
      </trkpt>
      <trkpt lat="38.350574" lon="-0.499296">
        <ele>57.122</ele>
        <time>2021-05-05T16:53:04Z</time>
      </trkpt>
      <trkpt lat="38.350610" lon="-0.499223">
        <ele>57.989</ele>
        <time>2021-05-05T16:53:06Z</time>
      </trkpt>
      <trkpt lat="38.350636" lon="-0.499162">
        <ele>58.324</ele>
        <time>2021-05-05T16:53:08Z</time>
      </trkpt>
      <trkpt lat="38.350658" lon="-0.499096">
        <ele>58.684</ele>
        <time>2021-05-05T16:53:10Z</time>
      </trkpt>
      <trkpt lat="38.350689" lon="-0.499018">
        <ele>58.707</ele>
        <time>2021-05-05T16:53:12Z</time>
      </trkpt>
      <trkpt lat="38.350714" lon="-0.498969">
        <ele>58.917</ele>
        <time>2021-05-05T16:53:14Z</time>
      </trkpt>
      <trkpt lat="38.350748" lon="-0.498902">
        <ele>59.408</ele>
        <time>2021-05-05T16:53:16Z</time>
      </trkpt>
      <trkpt lat="38.350773" lon="-0.498848">
        <ele>59.235</ele>
        <time>2021-05-05T16:53:17Z</time>
      </trkpt>
      <trkpt lat="38.350800" lon="-0.498786">
        <ele>59.640</ele>
        <time>2021-05-05T16:53:19Z</time>
      </trkpt>
      <trkpt lat="38.350820" lon="-0.498728">
        <ele>59.420</ele>
        <time>2021-05-05T16:53:21Z</time>
      </trkpt>
      <trkpt lat="38.350840" lon="-0.498668">
        <ele>59.443</ele>
        <time>2021-05-05T16:53:23Z</time>
      </trkpt>
      <trkpt lat="38.350869" lon="-0.498609">
        <ele>59.693</ele>
        <time>2021-05-05T16:53:25Z</time>
      </trkpt>
      <trkpt lat="38.350900" lon="-0.498543">
        <ele>59.875</ele>
        <time>2021-05-05T16:53:27Z</time>
      </trkpt>
      <trkpt lat="38.350930" lon="-0.498478">
        <ele>59.992</ele>
        <time>2021-05-05T16:53:30Z</time>
      </trkpt>
      <trkpt lat="38.350964" lon="-0.498407">
        <ele>59.957</ele>
        <time>2021-05-05T16:53:32Z</time>
      </trkpt>
      <trkpt lat="38.350994" lon="-0.498348">
        <ele>60.452</ele>
        <time>2021-05-05T16:53:34Z</time>
      </trkpt>
      <trkpt lat="38.351018" lon="-0.498295">
        <ele>61.453</ele>
        <time>2021-05-05T16:53:37Z</time>
      </trkpt>
      <trkpt lat="38.351055" lon="-0.498227">
        <ele>62.608</ele>
        <time>2021-05-05T16:53:41Z</time>
      </trkpt>
      <trkpt lat="38.351090" lon="-0.498163">
        <ele>63.508</ele>
        <time>2021-05-05T16:53:44Z</time>
      </trkpt>
      <trkpt lat="38.351129" lon="-0.498085">
        <ele>63.862</ele>
        <time>2021-05-05T16:53:47Z</time>
      </trkpt>
      <trkpt lat="38.351160" lon="-0.498016">
        <ele>64.077</ele>
        <time>2021-05-05T16:53:50Z</time>
      </trkpt>
      <trkpt lat="38.351189" lon="-0.497944">
        <ele>63.917</ele>
        <time>2021-05-05T16:53:52Z</time>
      </trkpt>
      <trkpt lat="38.351213" lon="-0.497869">
        <ele>64.310</ele>
        <time>2021-05-05T16:53:54Z</time>
      </trkpt>
      <trkpt lat="38.351240" lon="-0.497801">
        <ele>64.220</ele>
        <time>2021-05-05T16:53:56Z</time>
      </trkpt>
      <trkpt lat="38.351268" lon="-0.497736">
        <ele>63.572</ele>
        <time>2021-05-05T16:53:58Z</time>
      </trkpt>
      <trkpt lat="38.351291" lon="-0.497686">
        <ele>63.349</ele>
        <time>2021-05-05T16:54:00Z</time>
      </trkpt>
      <trkpt lat="38.351327" lon="-0.497631">
        <ele>63.274</ele>
        <time>2021-05-05T16:54:03Z</time>
      </trkpt>
      <trkpt lat="38.351358" lon="-0.497575">
        <ele>63.377</ele>
        <time>2021-05-05T16:54:06Z</time>
      </trkpt>
      <trkpt lat="38.351392" lon="-0.497517">
        <ele>62.861</ele>
        <time>2021-05-05T16:54:10Z</time>
      </trkpt>
      <trkpt lat="38.351416" lon="-0.497465">
        <ele>62.127</ele>
        <time>2021-05-05T16:54:13Z</time>
      </trkpt>
      <trkpt lat="38.351449" lon="-0.497397">
        <ele>62.108</ele>
        <time>2021-05-05T16:54:16Z</time>
      </trkpt>
      <trkpt lat="38.351486" lon="-0.497346">
        <ele>62.264</ele>
        <time>2021-05-05T16:54:19Z</time>
      </trkpt>
      <trkpt lat="38.351516" lon="-0.497273">
        <ele>62.799</ele>
        <time>2021-05-05T16:54:21Z</time>
      </trkpt>
      <trkpt lat="38.351540" lon="-0.497201">
        <ele>63.579</ele>
        <time>2021-05-05T16:54:24Z</time>
      </trkpt>
      <trkpt lat="38.351567" lon="-0.497130">
        <ele>64.712</ele>
        <time>2021-05-05T16:54:26Z</time>
      </trkpt>
      <trkpt lat="38.351599" lon="-0.497058">
        <ele>65.542</ele>
        <time>2021-05-05T16:54:28Z</time>
      </trkpt>
      <trkpt lat="38.351609" lon="-0.496985">
        <ele>66.464</ele>
        <time>2021-05-05T16:54:30Z</time>
      </trkpt>
      <trkpt lat="38.351617" lon="-0.496926">
        <ele>66.441</ele>
        <time>2021-05-05T16:54:32Z</time>
      </trkpt>
      <trkpt lat="38.351639" lon="-0.496842">
        <ele>66.436</ele>
        <time>2021-05-05T16:54:34Z</time>
      </trkpt>
      <trkpt lat="38.351666" lon="-0.496775">
        <ele>66.616</ele>
        <time>2021-05-05T16:54:36Z</time>
      </trkpt>
      <trkpt lat="38.351686" lon="-0.496723">
        <ele>67.276</ele>
        <time>2021-05-05T16:54:38Z</time>
      </trkpt>
      <trkpt lat="38.351712" lon="-0.496673">
        <ele>67.613</ele>
        <time>2021-05-05T16:54:40Z</time>
      </trkpt>
      <trkpt lat="38.351734" lon="-0.496612">
        <ele>67.908</ele>
        <time>2021-05-05T16:54:43Z</time>
      </trkpt>
      <trkpt lat="38.351739" lon="-0.496553">
        <ele>68.068</ele>
        <time>2021-05-05T16:54:48Z</time>
      </trkpt>
      <trkpt lat="38.351742" lon="-0.496489">
        <ele>68.933</ele>
        <time>2021-05-05T16:54:55Z</time>
      </trkpt>
      <trkpt lat="38.351761" lon="-0.496436">
        <ele>69.993</ele>
        <time>2021-05-05T16:54:57Z</time>
      </trkpt>
      <trkpt lat="38.351791" lon="-0.496384">
        <ele>70.536</ele>
        <time>2021-05-05T16:54:59Z</time>
      </trkpt>
      <trkpt lat="38.351759" lon="-0.496313">
        <ele>71.136</ele>
        <time>2021-05-05T16:55:03Z</time>
      </trkpt>
      <trkpt lat="38.351703" lon="-0.496287">
        <ele>71.538</ele>
        <time>2021-05-05T16:55:06Z</time>
      </trkpt>
      <trkpt lat="38.351645" lon="-0.496266">
        <ele>72.125</ele>
        <time>2021-05-05T16:55:08Z</time>
      </trkpt>
      <trkpt lat="38.351597" lon="-0.496234">
        <ele>73.450</ele>
        <time>2021-05-05T16:55:11Z</time>
      </trkpt>
      <trkpt lat="38.351551" lon="-0.496197">
        <ele>74.618</ele>
        <time>2021-05-05T16:55:13Z</time>
      </trkpt>
      <trkpt lat="38.351506" lon="-0.496175">
        <ele>74.998</ele>
        <time>2021-05-05T16:55:16Z</time>
      </trkpt>
      <trkpt lat="38.351474" lon="-0.496088">
        <ele>73.617</ele>
        <time>2021-05-05T16:55:19Z</time>
      </trkpt>
      <trkpt lat="38.351480" lon="-0.495983">
        <ele>72.708</ele>
        <time>2021-05-05T16:55:21Z</time>
      </trkpt>
      <trkpt lat="38.351504" lon="-0.495896">
        <ele>71.948</ele>
        <time>2021-05-05T16:55:23Z</time>
      </trkpt>
      <trkpt lat="38.351531" lon="-0.495815">
        <ele>71.943</ele>
        <time>2021-05-05T16:55:25Z</time>
      </trkpt>
      <trkpt lat="38.351558" lon="-0.495768">
        <ele>71.253</ele>
        <time>2021-05-05T16:55:26Z</time>
      </trkpt>
      <trkpt lat="38.351589" lon="-0.495717">
        <ele>70.476</ele>
        <time>2021-05-05T16:55:28Z</time>
      </trkpt>
      <trkpt lat="38.351619" lon="-0.495659">
        <ele>70.466</ele>
        <time>2021-05-05T16:55:30Z</time>
      </trkpt>
      <trkpt lat="38.351649" lon="-0.495616">
        <ele>70.428</ele>
        <time>2021-05-05T16:55:32Z</time>
      </trkpt>
      <trkpt lat="38.351699" lon="-0.495567">
        <ele>71.295</ele>
        <time>2021-05-05T16:55:35Z</time>
      </trkpt>
      <trkpt lat="38.351666" lon="-0.495524">
        <ele>71.030</ele>
        <time>2021-05-05T16:55:43Z</time>
      </trkpt>
      <trkpt lat="38.351624" lon="-0.495493">
        <ele>71.073</ele>
        <time>2021-05-05T16:55:58Z</time>
      </trkpt>
      <trkpt lat="38.351665" lon="-0.495525">
        <ele>73.785</ele>
        <time>2021-05-05T16:56:34Z</time>
      </trkpt>
      <trkpt lat="38.351627" lon="-0.495561">
        <ele>75.813</ele>
        <time>2021-05-05T16:57:04Z</time>
      </trkpt>
      <trkpt lat="38.351670" lon="-0.495579">
        <ele>79.708</ele>
        <time>2021-05-05T16:57:40Z</time>
      </trkpt>
    </trkseg>
  </trk>
</gpx>
